<?xml version="1.0" encoding="UTF-8" standalone="no" ?>
<gpx xmlns="http://www.topografix.com/GPX/1/1" xmlns:xsi="http://www.w3.org/2001/XMLSchema-instance" xsi:schemaLocation="http://www.topografix.com/GPX/1/1 http://www.topografix.com/GPX/1/1/gpx.xsd" version="1.1" creator="VisuGPX - https://www.visugpx.com">
  <metadata>
    <name>Grange Rando Marche douce Roberto 2026 0902.gpx</name>
  </metadata>
  <trk>
    <name><![CDATA[Grange Rando Marche douce Roberto 2026 0902]]></name>
    <extensions>
      <line xmlns="http://www.topografix.com/GPX/gpx_style/0/2">
        <color>0000FF</color>
        <opacity>1</opacity>
        <width>4</width>
      </line>
    </extensions>
    <trkseg>
      <trkpt lat="48.12911" lon="6.85973">
        <ele>722.19995117188</ele>
        <time>2026-09-02T12:18:56.000Z</time>
      </trkpt>
      <trkpt lat="48.12911" lon="6.85973">
        <ele>722.19995117188</ele>
        <time>2026-09-02T12:18:57.000Z</time>
      </trkpt>
      <trkpt lat="48.12911" lon="6.85973">
        <ele>722.19995117188</ele>
        <time>2026-09-02T12:18:58.000Z</time>
      </trkpt>
      <trkpt lat="48.12911" lon="6.85973">
        <ele>722</ele>
        <time>2026-09-02T12:18:59.000Z</time>
      </trkpt>
      <trkpt lat="48.12911" lon="6.85973">
        <ele>722</ele>
        <time>2026-09-02T12:19:00.000Z</time>
      </trkpt>
      <trkpt lat="48.12911" lon="6.85973">
        <ele>722.19995117188</ele>
        <time>2026-09-02T12:19:01.000Z</time>
      </trkpt>
      <trkpt lat="48.12911" lon="6.85973">
        <ele>722.19995117188</ele>
        <time>2026-09-02T12:19:02.000Z</time>
      </trkpt>
      <trkpt lat="48.12911" lon="6.85973">
        <ele>722.19995117188</ele>
        <time>2026-09-02T12:19:03.000Z</time>
      </trkpt>
      <trkpt lat="48.12911" lon="6.85973">
        <ele>722.19995117188</ele>
        <time>2026-09-02T12:19:04.000Z</time>
      </trkpt>
      <trkpt lat="48.12911" lon="6.85973">
        <ele>722.19995117188</ele>
        <time>2026-09-02T12:19:05.000Z</time>
      </trkpt>
      <trkpt lat="48.12911" lon="6.85973">
        <ele>722.19995117188</ele>
        <time>2026-09-02T12:19:06.000Z</time>
      </trkpt>
      <trkpt lat="48.12911" lon="6.85973">
        <ele>722.19995117188</ele>
        <time>2026-09-02T12:19:07.000Z</time>
      </trkpt>
      <trkpt lat="48.12911" lon="6.85973">
        <ele>722.19995117188</ele>
        <time>2026-09-02T12:19:08.000Z</time>
      </trkpt>
      <trkpt lat="48.12911" lon="6.85973">
        <ele>722</ele>
        <time>2026-09-02T12:19:09.000Z</time>
      </trkpt>
      <trkpt lat="48.12911" lon="6.85971">
        <ele>722</ele>
        <time>2026-09-02T12:19:10.000Z</time>
      </trkpt>
      <trkpt lat="48.12911" lon="6.85971">
        <ele>722</ele>
        <time>2026-09-02T12:19:11.000Z</time>
      </trkpt>
      <trkpt lat="48.12911" lon="6.85971">
        <ele>722</ele>
        <time>2026-09-02T12:19:12.000Z</time>
      </trkpt>
      <trkpt lat="48.12911" lon="6.85971">
        <ele>722.19995117188</ele>
        <time>2026-09-02T12:19:13.000Z</time>
      </trkpt>
      <trkpt lat="48.12911" lon="6.8597">
        <ele>722.19995117188</ele>
        <time>2026-09-02T12:19:14.000Z</time>
      </trkpt>
      <trkpt lat="48.12911" lon="6.85968">
        <ele>722.19995117188</ele>
        <time>2026-09-02T12:19:15.000Z</time>
      </trkpt>
      <trkpt lat="48.12911" lon="6.85968">
        <ele>722.19995117188</ele>
        <time>2026-09-02T12:19:16.000Z</time>
      </trkpt>
      <trkpt lat="48.12911" lon="6.85967">
        <ele>722.19995117188</ele>
        <time>2026-09-02T12:19:17.000Z</time>
      </trkpt>
      <trkpt lat="48.12912" lon="6.85965">
        <ele>722.40002441406</ele>
        <time>2026-09-02T12:19:18.000Z</time>
      </trkpt>
      <trkpt lat="48.12912" lon="6.85964">
        <ele>722.40002441406</ele>
        <time>2026-09-02T12:19:19.000Z</time>
      </trkpt>
      <trkpt lat="48.12912" lon="6.85964">
        <ele>722.40002441406</ele>
        <time>2026-09-02T12:19:20.000Z</time>
      </trkpt>
      <trkpt lat="48.12912" lon="6.85963">
        <ele>722.19995117188</ele>
        <time>2026-09-02T12:19:21.000Z</time>
      </trkpt>
      <trkpt lat="48.12913" lon="6.85963">
        <ele>722.19995117188</ele>
        <time>2026-09-02T12:19:22.000Z</time>
      </trkpt>
      <trkpt lat="48.12913" lon="6.85962">
        <ele>722.19995117188</ele>
        <time>2026-09-02T12:19:23.000Z</time>
      </trkpt>
      <trkpt lat="48.12913" lon="6.85962">
        <ele>722.19995117188</ele>
        <time>2026-09-02T12:19:24.000Z</time>
      </trkpt>
      <trkpt lat="48.12913" lon="6.85961">
        <ele>722.19995117188</ele>
        <time>2026-09-02T12:19:25.000Z</time>
      </trkpt>
      <trkpt lat="48.12913" lon="6.85961">
        <ele>722.19995117188</ele>
        <time>2026-09-02T12:19:26.000Z</time>
      </trkpt>
      <trkpt lat="48.12913" lon="6.8596">
        <ele>722.19995117188</ele>
        <time>2026-09-02T12:19:27.000Z</time>
      </trkpt>
      <trkpt lat="48.12914" lon="6.85959">
        <ele>722</ele>
        <time>2026-09-02T12:19:28.000Z</time>
      </trkpt>
      <trkpt lat="48.12913" lon="6.85957">
        <ele>722</ele>
        <time>2026-09-02T12:19:29.000Z</time>
      </trkpt>
      <trkpt lat="48.12914" lon="6.85956">
        <ele>721.80004882812</ele>
        <time>2026-09-02T12:19:30.000Z</time>
      </trkpt>
      <trkpt lat="48.12914" lon="6.85955">
        <ele>721.59997558594</ele>
        <time>2026-09-02T12:19:31.000Z</time>
      </trkpt>
      <trkpt lat="48.12914" lon="6.85955">
        <ele>721.59997558594</ele>
        <time>2026-09-02T12:19:32.000Z</time>
      </trkpt>
      <trkpt lat="48.12913" lon="6.85954">
        <ele>721.80004882812</ele>
        <time>2026-09-02T12:19:33.000Z</time>
      </trkpt>
      <trkpt lat="48.12914" lon="6.85953">
        <ele>722</ele>
        <time>2026-09-02T12:19:34.000Z</time>
      </trkpt>
      <trkpt lat="48.12914" lon="6.85952">
        <ele>722.19995117188</ele>
        <time>2026-09-02T12:19:35.000Z</time>
      </trkpt>
      <trkpt lat="48.12914" lon="6.85951">
        <ele>722.40002441406</ele>
        <time>2026-09-02T12:19:36.000Z</time>
      </trkpt>
      <trkpt lat="48.12914" lon="6.85951">
        <ele>722.59997558594</ele>
        <time>2026-09-02T12:19:37.000Z</time>
      </trkpt>
      <trkpt lat="48.12914" lon="6.8595">
        <ele>722.59997558594</ele>
        <time>2026-09-02T12:19:38.000Z</time>
      </trkpt>
      <trkpt lat="48.12914" lon="6.8595">
        <ele>722.59997558594</ele>
        <time>2026-09-02T12:19:39.000Z</time>
      </trkpt>
      <trkpt lat="48.12914" lon="6.8595">
        <ele>722.40002441406</ele>
        <time>2026-09-02T12:19:40.000Z</time>
      </trkpt>
      <trkpt lat="48.12914" lon="6.8595">
        <ele>722.40002441406</ele>
        <time>2026-09-02T12:19:41.000Z</time>
      </trkpt>
      <trkpt lat="48.12914" lon="6.8595">
        <ele>722.40002441406</ele>
        <time>2026-09-02T12:19:42.000Z</time>
      </trkpt>
      <trkpt lat="48.12914" lon="6.8595">
        <ele>722.40002441406</ele>
        <time>2026-09-02T12:19:43.000Z</time>
      </trkpt>
      <trkpt lat="48.12914" lon="6.8595">
        <ele>722.40002441406</ele>
        <time>2026-09-02T12:19:44.000Z</time>
      </trkpt>
      <trkpt lat="48.12914" lon="6.8595">
        <ele>722.40002441406</ele>
        <time>2026-09-02T12:19:45.000Z</time>
      </trkpt>
      <trkpt lat="48.12914" lon="6.8595">
        <ele>722.40002441406</ele>
        <time>2026-09-02T12:19:46.000Z</time>
      </trkpt>
      <trkpt lat="48.12914" lon="6.8595">
        <ele>722.40002441406</ele>
        <time>2026-09-02T12:19:47.000Z</time>
      </trkpt>
      <trkpt lat="48.12914" lon="6.8595">
        <ele>722.40002441406</ele>
        <time>2026-09-02T12:19:48.000Z</time>
      </trkpt>
      <trkpt lat="48.12914" lon="6.8595">
        <ele>722.40002441406</ele>
        <time>2026-09-02T12:19:49.000Z</time>
      </trkpt>
      <trkpt lat="48.12914" lon="6.85949">
        <ele>722.19995117188</ele>
        <time>2026-09-02T12:19:50.000Z</time>
      </trkpt>
      <trkpt lat="48.12914" lon="6.85948">
        <ele>722</ele>
        <time>2026-09-02T12:19:51.000Z</time>
      </trkpt>
      <trkpt lat="48.12914" lon="6.85948">
        <ele>721.80004882812</ele>
        <time>2026-09-02T12:19:52.000Z</time>
      </trkpt>
      <trkpt lat="48.12914" lon="6.85948">
        <ele>721.59997558594</ele>
        <time>2026-09-02T12:19:53.000Z</time>
      </trkpt>
      <trkpt lat="48.12914" lon="6.85948">
        <ele>721.59997558594</ele>
        <time>2026-09-02T12:19:54.000Z</time>
      </trkpt>
      <trkpt lat="48.12914" lon="6.85948">
        <ele>721.59997558594</ele>
        <time>2026-09-02T12:19:55.000Z</time>
      </trkpt>
      <trkpt lat="48.12914" lon="6.85948">
        <ele>721.59997558594</ele>
        <time>2026-09-02T12:19:56.000Z</time>
      </trkpt>
      <trkpt lat="48.12914" lon="6.85948">
        <ele>721.80004882812</ele>
        <time>2026-09-02T12:19:57.000Z</time>
      </trkpt>
      <trkpt lat="48.12914" lon="6.85948">
        <ele>721.80004882812</ele>
        <time>2026-09-02T12:19:58.000Z</time>
      </trkpt>
      <trkpt lat="48.12914" lon="6.85948">
        <ele>721.80004882812</ele>
        <time>2026-09-02T12:19:59.000Z</time>
      </trkpt>
      <trkpt lat="48.12914" lon="6.85948">
        <ele>721.80004882812</ele>
        <time>2026-09-02T12:20:00.000Z</time>
      </trkpt>
      <trkpt lat="48.12914" lon="6.85948">
        <ele>721.80004882812</ele>
        <time>2026-09-02T12:20:01.000Z</time>
      </trkpt>
      <trkpt lat="48.12914" lon="6.85948">
        <ele>721.59997558594</ele>
        <time>2026-09-02T12:20:02.000Z</time>
      </trkpt>
      <trkpt lat="48.12914" lon="6.85948">
        <ele>721.59997558594</ele>
        <time>2026-09-02T12:20:03.000Z</time>
      </trkpt>
      <trkpt lat="48.12914" lon="6.85948">
        <ele>721.59997558594</ele>
        <time>2026-09-02T12:20:04.000Z</time>
      </trkpt>
      <trkpt lat="48.12914" lon="6.85948">
        <ele>721.59997558594</ele>
        <time>2026-09-02T12:20:05.000Z</time>
      </trkpt>
      <trkpt lat="48.12914" lon="6.85948">
        <ele>721.59997558594</ele>
        <time>2026-09-02T12:20:06.000Z</time>
      </trkpt>
      <trkpt lat="48.12914" lon="6.85948">
        <ele>721.59997558594</ele>
        <time>2026-09-02T12:20:07.000Z</time>
      </trkpt>
      <trkpt lat="48.12914" lon="6.85948">
        <ele>721.59997558594</ele>
        <time>2026-09-02T12:20:08.000Z</time>
      </trkpt>
      <trkpt lat="48.12914" lon="6.85948">
        <ele>721.59997558594</ele>
        <time>2026-09-02T12:20:09.000Z</time>
      </trkpt>
      <trkpt lat="48.12914" lon="6.85948">
        <ele>721.80004882812</ele>
        <time>2026-09-02T12:20:10.000Z</time>
      </trkpt>
      <trkpt lat="48.12914" lon="6.85948">
        <ele>721.80004882812</ele>
        <time>2026-09-02T12:20:11.000Z</time>
      </trkpt>
      <trkpt lat="48.12914" lon="6.85948">
        <ele>721.80004882812</ele>
        <time>2026-09-02T12:20:12.000Z</time>
      </trkpt>
      <trkpt lat="48.12914" lon="6.85948">
        <ele>721.80004882812</ele>
        <time>2026-09-02T12:20:13.000Z</time>
      </trkpt>
      <trkpt lat="48.12914" lon="6.85948">
        <ele>721.80004882812</ele>
        <time>2026-09-02T12:20:14.000Z</time>
      </trkpt>
      <trkpt lat="48.12914" lon="6.85948">
        <ele>721.59997558594</ele>
        <time>2026-09-02T12:20:15.000Z</time>
      </trkpt>
      <trkpt lat="48.12914" lon="6.85948">
        <ele>721.59997558594</ele>
        <time>2026-09-02T12:20:16.000Z</time>
      </trkpt>
      <trkpt lat="48.12914" lon="6.85948">
        <ele>721.59997558594</ele>
        <time>2026-09-02T12:20:17.000Z</time>
      </trkpt>
      <trkpt lat="48.12914" lon="6.85948">
        <ele>721.59997558594</ele>
        <time>2026-09-02T12:20:18.000Z</time>
      </trkpt>
      <trkpt lat="48.12914" lon="6.85948">
        <ele>721.80004882812</ele>
        <time>2026-09-02T12:20:19.000Z</time>
      </trkpt>
      <trkpt lat="48.12914" lon="6.85948">
        <ele>722</ele>
        <time>2026-09-02T12:20:20.000Z</time>
      </trkpt>
      <trkpt lat="48.12914" lon="6.85948">
        <ele>722</ele>
        <time>2026-09-02T12:20:21.000Z</time>
      </trkpt>
      <trkpt lat="48.12914" lon="6.85948">
        <ele>722.19995117188</ele>
        <time>2026-09-02T12:20:22.000Z</time>
      </trkpt>
      <trkpt lat="48.12914" lon="6.85949">
        <ele>722.19995117188</ele>
        <time>2026-09-02T12:20:23.000Z</time>
      </trkpt>
      <trkpt lat="48.12914" lon="6.85949">
        <ele>722.19995117188</ele>
        <time>2026-09-02T12:20:24.000Z</time>
      </trkpt>
      <trkpt lat="48.12914" lon="6.85947">
        <ele>722.19995117188</ele>
        <time>2026-09-02T12:20:25.000Z</time>
      </trkpt>
      <trkpt lat="48.12914" lon="6.85946">
        <ele>722.19995117188</ele>
        <time>2026-09-02T12:20:26.000Z</time>
      </trkpt>
      <trkpt lat="48.12914" lon="6.85944">
        <ele>722</ele>
        <time>2026-09-02T12:20:27.000Z</time>
      </trkpt>
      <trkpt lat="48.12914" lon="6.85942">
        <ele>722</ele>
        <time>2026-09-02T12:20:28.000Z</time>
      </trkpt>
      <trkpt lat="48.12914" lon="6.8594">
        <ele>721.80004882812</ele>
        <time>2026-09-02T12:20:29.000Z</time>
      </trkpt>
      <trkpt lat="48.12914" lon="6.85938">
        <ele>721.40002441406</ele>
        <time>2026-09-02T12:20:30.000Z</time>
      </trkpt>
      <trkpt lat="48.12914" lon="6.85936">
        <ele>721.19995117188</ele>
        <time>2026-09-02T12:20:31.000Z</time>
      </trkpt>
      <trkpt lat="48.12914" lon="6.85935">
        <ele>721</ele>
        <time>2026-09-02T12:20:32.000Z</time>
      </trkpt>
      <trkpt lat="48.12915" lon="6.85933">
        <ele>720.80004882812</ele>
        <time>2026-09-02T12:20:33.000Z</time>
      </trkpt>
      <trkpt lat="48.12915" lon="6.85931">
        <ele>720.80004882812</ele>
        <time>2026-09-02T12:20:34.000Z</time>
      </trkpt>
      <trkpt lat="48.12916" lon="6.8593">
        <ele>721</ele>
        <time>2026-09-02T12:20:35.000Z</time>
      </trkpt>
      <trkpt lat="48.12916" lon="6.85929">
        <ele>721.19995117188</ele>
        <time>2026-09-02T12:20:36.000Z</time>
      </trkpt>
      <trkpt lat="48.12916" lon="6.85928">
        <ele>721.40002441406</ele>
        <time>2026-09-02T12:20:37.000Z</time>
      </trkpt>
      <trkpt lat="48.12916" lon="6.85926">
        <ele>721.59997558594</ele>
        <time>2026-09-02T12:20:38.000Z</time>
      </trkpt>
      <trkpt lat="48.12917" lon="6.85925">
        <ele>721.59997558594</ele>
        <time>2026-09-02T12:20:39.000Z</time>
      </trkpt>
      <trkpt lat="48.12918" lon="6.85923">
        <ele>721.59997558594</ele>
        <time>2026-09-02T12:20:40.000Z</time>
      </trkpt>
      <trkpt lat="48.12918" lon="6.85922">
        <ele>721.59997558594</ele>
        <time>2026-09-02T12:20:41.000Z</time>
      </trkpt>
      <trkpt lat="48.12918" lon="6.85921">
        <ele>721.59997558594</ele>
        <time>2026-09-02T12:20:42.000Z</time>
      </trkpt>
      <trkpt lat="48.12919" lon="6.8592">
        <ele>721.59997558594</ele>
        <time>2026-09-02T12:20:43.000Z</time>
      </trkpt>
      <trkpt lat="48.1292" lon="6.85918">
        <ele>721.59997558594</ele>
        <time>2026-09-02T12:20:44.000Z</time>
      </trkpt>
      <trkpt lat="48.1292" lon="6.85916">
        <ele>721.80004882812</ele>
        <time>2026-09-02T12:20:45.000Z</time>
      </trkpt>
      <trkpt lat="48.12921" lon="6.85915">
        <ele>722</ele>
        <time>2026-09-02T12:20:46.000Z</time>
      </trkpt>
      <trkpt lat="48.12921" lon="6.85914">
        <ele>722.19995117188</ele>
        <time>2026-09-02T12:20:47.000Z</time>
      </trkpt>
      <trkpt lat="48.12921" lon="6.85913">
        <ele>722.19995117188</ele>
        <time>2026-09-02T12:20:48.000Z</time>
      </trkpt>
      <trkpt lat="48.12922" lon="6.85912">
        <ele>722.19995117188</ele>
        <time>2026-09-02T12:20:49.000Z</time>
      </trkpt>
      <trkpt lat="48.12923" lon="6.85911">
        <ele>722.19995117188</ele>
        <time>2026-09-02T12:20:50.000Z</time>
      </trkpt>
      <trkpt lat="48.12924" lon="6.85909">
        <ele>722.19995117188</ele>
        <time>2026-09-02T12:20:51.000Z</time>
      </trkpt>
      <trkpt lat="48.12924" lon="6.85908">
        <ele>722</ele>
        <time>2026-09-02T12:20:52.000Z</time>
      </trkpt>
      <trkpt lat="48.12925" lon="6.85907">
        <ele>722.19995117188</ele>
        <time>2026-09-02T12:20:53.000Z</time>
      </trkpt>
      <trkpt lat="48.12926" lon="6.85906">
        <ele>722.40002441406</ele>
        <time>2026-09-02T12:20:54.000Z</time>
      </trkpt>
      <trkpt lat="48.12928" lon="6.85906">
        <ele>722.40002441406</ele>
        <time>2026-09-02T12:20:55.000Z</time>
      </trkpt>
      <trkpt lat="48.12928" lon="6.85906">
        <ele>722.59997558594</ele>
        <time>2026-09-02T12:20:56.000Z</time>
      </trkpt>
      <trkpt lat="48.12929" lon="6.85905">
        <ele>722.59997558594</ele>
        <time>2026-09-02T12:20:57.000Z</time>
      </trkpt>
      <trkpt lat="48.1293" lon="6.85906">
        <ele>722.59997558594</ele>
        <time>2026-09-02T12:20:58.000Z</time>
      </trkpt>
      <trkpt lat="48.12931" lon="6.85906">
        <ele>722.59997558594</ele>
        <time>2026-09-02T12:20:59.000Z</time>
      </trkpt>
      <trkpt lat="48.12933" lon="6.85906">
        <ele>722.59997558594</ele>
        <time>2026-09-02T12:21:00.000Z</time>
      </trkpt>
      <trkpt lat="48.12933" lon="6.85906">
        <ele>722.80004882812</ele>
        <time>2026-09-02T12:21:01.000Z</time>
      </trkpt>
      <trkpt lat="48.12934" lon="6.85906">
        <ele>722.80004882812</ele>
        <time>2026-09-02T12:21:02.000Z</time>
      </trkpt>
      <trkpt lat="48.12935" lon="6.85906">
        <ele>723</ele>
        <time>2026-09-02T12:21:03.000Z</time>
      </trkpt>
      <trkpt lat="48.12935" lon="6.85906">
        <ele>723.19995117188</ele>
        <time>2026-09-02T12:21:04.000Z</time>
      </trkpt>
      <trkpt lat="48.12936" lon="6.85907">
        <ele>723.19995117188</ele>
        <time>2026-09-02T12:21:05.000Z</time>
      </trkpt>
      <trkpt lat="48.12936" lon="6.85907">
        <ele>723.19995117188</ele>
        <time>2026-09-02T12:21:06.000Z</time>
      </trkpt>
      <trkpt lat="48.12937" lon="6.85908">
        <ele>723.19995117188</ele>
        <time>2026-09-02T12:21:07.000Z</time>
      </trkpt>
      <trkpt lat="48.12937" lon="6.85908">
        <ele>723</ele>
        <time>2026-09-02T12:21:08.000Z</time>
      </trkpt>
      <trkpt lat="48.12938" lon="6.85908">
        <ele>723</ele>
        <time>2026-09-02T12:21:09.000Z</time>
      </trkpt>
      <trkpt lat="48.12939" lon="6.85908">
        <ele>723.19995117188</ele>
        <time>2026-09-02T12:21:10.000Z</time>
      </trkpt>
      <trkpt lat="48.12939" lon="6.85909">
        <ele>723.19995117188</ele>
        <time>2026-09-02T12:21:11.000Z</time>
      </trkpt>
      <trkpt lat="48.12938" lon="6.85909">
        <ele>723.19995117188</ele>
        <time>2026-09-02T12:21:12.000Z</time>
      </trkpt>
      <trkpt lat="48.12938" lon="6.85908">
        <ele>723.19995117188</ele>
        <time>2026-09-02T12:21:13.000Z</time>
      </trkpt>
      <trkpt lat="48.12937" lon="6.85908">
        <ele>723.19995117188</ele>
        <time>2026-09-02T12:21:14.000Z</time>
      </trkpt>
      <trkpt lat="48.12937" lon="6.85907">
        <ele>723.19995117188</ele>
        <time>2026-09-02T12:21:15.000Z</time>
      </trkpt>
      <trkpt lat="48.12937" lon="6.85906">
        <ele>723</ele>
        <time>2026-09-02T12:21:16.000Z</time>
      </trkpt>
      <trkpt lat="48.12937" lon="6.85906">
        <ele>723</ele>
        <time>2026-09-02T12:21:17.000Z</time>
      </trkpt>
      <trkpt lat="48.12937" lon="6.85906">
        <ele>723</ele>
        <time>2026-09-02T12:21:18.000Z</time>
      </trkpt>
      <trkpt lat="48.12937" lon="6.85906">
        <ele>723</ele>
        <time>2026-09-02T12:21:19.000Z</time>
      </trkpt>
      <trkpt lat="48.12937" lon="6.85906">
        <ele>723</ele>
        <time>2026-09-02T12:21:20.000Z</time>
      </trkpt>
      <trkpt lat="48.12937" lon="6.85906">
        <ele>723</ele>
        <time>2026-09-02T12:21:21.000Z</time>
      </trkpt>
      <trkpt lat="48.12938" lon="6.85907">
        <ele>723</ele>
        <time>2026-09-02T12:21:22.000Z</time>
      </trkpt>
      <trkpt lat="48.12939" lon="6.85908">
        <ele>723.19995117188</ele>
        <time>2026-09-02T12:21:23.000Z</time>
      </trkpt>
      <trkpt lat="48.12941" lon="6.85909">
        <ele>723.19995117188</ele>
        <time>2026-09-02T12:21:24.000Z</time>
      </trkpt>
      <trkpt lat="48.12942" lon="6.85909">
        <ele>723.19995117188</ele>
        <time>2026-09-02T12:21:25.000Z</time>
      </trkpt>
      <trkpt lat="48.12943" lon="6.8591">
        <ele>723.19995117188</ele>
        <time>2026-09-02T12:21:26.000Z</time>
      </trkpt>
      <trkpt lat="48.12944" lon="6.8591">
        <ele>723.19995117188</ele>
        <time>2026-09-02T12:21:27.000Z</time>
      </trkpt>
      <trkpt lat="48.12945" lon="6.8591">
        <ele>723.19995117188</ele>
        <time>2026-09-02T12:21:28.000Z</time>
      </trkpt>
      <trkpt lat="48.12946" lon="6.85911">
        <ele>723.40002441406</ele>
        <time>2026-09-02T12:21:29.000Z</time>
      </trkpt>
      <trkpt lat="48.12947" lon="6.85911">
        <ele>723.40002441406</ele>
        <time>2026-09-02T12:21:30.000Z</time>
      </trkpt>
      <trkpt lat="48.12948" lon="6.85912">
        <ele>723.40002441406</ele>
        <time>2026-09-02T12:21:31.000Z</time>
      </trkpt>
      <trkpt lat="48.12949" lon="6.85912">
        <ele>723.40002441406</ele>
        <time>2026-09-02T12:21:32.000Z</time>
      </trkpt>
      <trkpt lat="48.12951" lon="6.85915">
        <ele>723.40002441406</ele>
        <time>2026-09-02T12:21:33.000Z</time>
      </trkpt>
      <trkpt lat="48.12952" lon="6.85916">
        <ele>723.40002441406</ele>
        <time>2026-09-02T12:21:34.000Z</time>
      </trkpt>
      <trkpt lat="48.12952" lon="6.85917">
        <ele>723.40002441406</ele>
        <time>2026-09-02T12:21:35.000Z</time>
      </trkpt>
      <trkpt lat="48.12953" lon="6.85918">
        <ele>723.40002441406</ele>
        <time>2026-09-02T12:21:36.000Z</time>
      </trkpt>
      <trkpt lat="48.12954" lon="6.85919">
        <ele>723.40002441406</ele>
        <time>2026-09-02T12:21:37.000Z</time>
      </trkpt>
      <trkpt lat="48.12955" lon="6.85919">
        <ele>723.40002441406</ele>
        <time>2026-09-02T12:21:38.000Z</time>
      </trkpt>
      <trkpt lat="48.12956" lon="6.8592">
        <ele>723.59997558594</ele>
        <time>2026-09-02T12:21:39.000Z</time>
      </trkpt>
      <trkpt lat="48.12957" lon="6.85921">
        <ele>723.80004882812</ele>
        <time>2026-09-02T12:21:40.000Z</time>
      </trkpt>
      <trkpt lat="48.12958" lon="6.85922">
        <ele>724</ele>
        <time>2026-09-02T12:21:41.000Z</time>
      </trkpt>
      <trkpt lat="48.12958" lon="6.85923">
        <ele>724</ele>
        <time>2026-09-02T12:21:42.000Z</time>
      </trkpt>
      <trkpt lat="48.12959" lon="6.85924">
        <ele>724</ele>
        <time>2026-09-02T12:21:43.000Z</time>
      </trkpt>
      <trkpt lat="48.1296" lon="6.85924">
        <ele>724</ele>
        <time>2026-09-02T12:21:44.000Z</time>
      </trkpt>
      <trkpt lat="48.12961" lon="6.85925">
        <ele>724</ele>
        <time>2026-09-02T12:21:45.000Z</time>
      </trkpt>
      <trkpt lat="48.12962" lon="6.85925">
        <ele>724</ele>
        <time>2026-09-02T12:21:46.000Z</time>
      </trkpt>
      <trkpt lat="48.12962" lon="6.85926">
        <ele>724</ele>
        <time>2026-09-02T12:21:47.000Z</time>
      </trkpt>
      <trkpt lat="48.12963" lon="6.85926">
        <ele>724</ele>
        <time>2026-09-02T12:21:48.000Z</time>
      </trkpt>
      <trkpt lat="48.12963" lon="6.85926">
        <ele>724.19995117188</ele>
        <time>2026-09-02T12:21:49.000Z</time>
      </trkpt>
      <trkpt lat="48.12964" lon="6.85927">
        <ele>724.19995117188</ele>
        <time>2026-09-02T12:21:50.000Z</time>
      </trkpt>
      <trkpt lat="48.12965" lon="6.85927">
        <ele>724.40002441406</ele>
        <time>2026-09-02T12:21:51.000Z</time>
      </trkpt>
      <trkpt lat="48.12965" lon="6.85928">
        <ele>724.40002441406</ele>
        <time>2026-09-02T12:21:52.000Z</time>
      </trkpt>
      <trkpt lat="48.12966" lon="6.85928">
        <ele>724.40002441406</ele>
        <time>2026-09-02T12:21:53.000Z</time>
      </trkpt>
      <trkpt lat="48.12965" lon="6.85928">
        <ele>724.40002441406</ele>
        <time>2026-09-02T12:21:54.000Z</time>
      </trkpt>
      <trkpt lat="48.12965" lon="6.85928">
        <ele>724.40002441406</ele>
        <time>2026-09-02T12:21:55.000Z</time>
      </trkpt>
      <trkpt lat="48.12965" lon="6.85928">
        <ele>724.40002441406</ele>
        <time>2026-09-02T12:21:56.000Z</time>
      </trkpt>
      <trkpt lat="48.12965" lon="6.85928">
        <ele>724.19995117188</ele>
        <time>2026-09-02T12:21:57.000Z</time>
      </trkpt>
      <trkpt lat="48.12965" lon="6.85928">
        <ele>724.19995117188</ele>
        <time>2026-09-02T12:21:58.000Z</time>
      </trkpt>
      <trkpt lat="48.12965" lon="6.85928">
        <ele>724.19995117188</ele>
        <time>2026-09-02T12:21:59.000Z</time>
      </trkpt>
      <trkpt lat="48.12966" lon="6.85928">
        <ele>724.40002441406</ele>
        <time>2026-09-02T12:22:00.000Z</time>
      </trkpt>
      <trkpt lat="48.12967" lon="6.85931">
        <ele>724.59997558594</ele>
        <time>2026-09-02T12:22:01.000Z</time>
      </trkpt>
      <trkpt lat="48.12968" lon="6.85933">
        <ele>725</ele>
        <time>2026-09-02T12:22:02.000Z</time>
      </trkpt>
      <trkpt lat="48.12969" lon="6.85934">
        <ele>725.19995117188</ele>
        <time>2026-09-02T12:22:03.000Z</time>
      </trkpt>
      <trkpt lat="48.12969" lon="6.85935">
        <ele>725.40002441406</ele>
        <time>2026-09-02T12:22:04.000Z</time>
      </trkpt>
      <trkpt lat="48.1297" lon="6.85936">
        <ele>725.40002441406</ele>
        <time>2026-09-02T12:22:05.000Z</time>
      </trkpt>
      <trkpt lat="48.1297" lon="6.85937">
        <ele>725.40002441406</ele>
        <time>2026-09-02T12:22:06.000Z</time>
      </trkpt>
      <trkpt lat="48.12971" lon="6.85938">
        <ele>725.40002441406</ele>
        <time>2026-09-02T12:22:07.000Z</time>
      </trkpt>
      <trkpt lat="48.12972" lon="6.85939">
        <ele>725.40002441406</ele>
        <time>2026-09-02T12:22:08.000Z</time>
      </trkpt>
      <trkpt lat="48.12973" lon="6.8594">
        <ele>725.40002441406</ele>
        <time>2026-09-02T12:22:09.000Z</time>
      </trkpt>
      <trkpt lat="48.12974" lon="6.85941">
        <ele>725.40002441406</ele>
        <time>2026-09-02T12:22:10.000Z</time>
      </trkpt>
      <trkpt lat="48.12974" lon="6.85942">
        <ele>725.40002441406</ele>
        <time>2026-09-02T12:22:11.000Z</time>
      </trkpt>
      <trkpt lat="48.12975" lon="6.85943">
        <ele>725.19995117188</ele>
        <time>2026-09-02T12:22:12.000Z</time>
      </trkpt>
      <trkpt lat="48.12975" lon="6.85944">
        <ele>725</ele>
        <time>2026-09-02T12:22:13.000Z</time>
      </trkpt>
      <trkpt lat="48.12976" lon="6.85945">
        <ele>724.80004882812</ele>
        <time>2026-09-02T12:22:14.000Z</time>
      </trkpt>
      <trkpt lat="48.12978" lon="6.85946">
        <ele>724.59997558594</ele>
        <time>2026-09-02T12:22:15.000Z</time>
      </trkpt>
      <trkpt lat="48.12979" lon="6.85948">
        <ele>724.59997558594</ele>
        <time>2026-09-02T12:22:16.000Z</time>
      </trkpt>
      <trkpt lat="48.1298" lon="6.85949">
        <ele>724.59997558594</ele>
        <time>2026-09-02T12:22:17.000Z</time>
      </trkpt>
      <trkpt lat="48.12981" lon="6.85949">
        <ele>724.59997558594</ele>
        <time>2026-09-02T12:22:18.000Z</time>
      </trkpt>
      <trkpt lat="48.12981" lon="6.8595">
        <ele>724.80004882812</ele>
        <time>2026-09-02T12:22:19.000Z</time>
      </trkpt>
      <trkpt lat="48.12982" lon="6.8595">
        <ele>725</ele>
        <time>2026-09-02T12:22:20.000Z</time>
      </trkpt>
      <trkpt lat="48.12982" lon="6.85951">
        <ele>725.40002441406</ele>
        <time>2026-09-02T12:22:21.000Z</time>
      </trkpt>
      <trkpt lat="48.12983" lon="6.85952">
        <ele>725.59997558594</ele>
        <time>2026-09-02T12:22:22.000Z</time>
      </trkpt>
      <trkpt lat="48.12984" lon="6.85953">
        <ele>725.80004882812</ele>
        <time>2026-09-02T12:22:23.000Z</time>
      </trkpt>
      <trkpt lat="48.12984" lon="6.85953">
        <ele>725.80004882812</ele>
        <time>2026-09-02T12:22:24.000Z</time>
      </trkpt>
      <trkpt lat="48.12985" lon="6.85954">
        <ele>726</ele>
        <time>2026-09-02T12:22:25.000Z</time>
      </trkpt>
      <trkpt lat="48.12986" lon="6.85955">
        <ele>726</ele>
        <time>2026-09-02T12:22:26.000Z</time>
      </trkpt>
      <trkpt lat="48.12987" lon="6.85956">
        <ele>726.19995117188</ele>
        <time>2026-09-02T12:22:27.000Z</time>
      </trkpt>
      <trkpt lat="48.12987" lon="6.85956">
        <ele>726.40002441406</ele>
        <time>2026-09-02T12:22:28.000Z</time>
      </trkpt>
      <trkpt lat="48.12988" lon="6.85958">
        <ele>726.40002441406</ele>
        <time>2026-09-02T12:22:29.000Z</time>
      </trkpt>
      <trkpt lat="48.12988" lon="6.8596">
        <ele>726.40002441406</ele>
        <time>2026-09-02T12:22:30.000Z</time>
      </trkpt>
      <trkpt lat="48.12989" lon="6.85961">
        <ele>726.40002441406</ele>
        <time>2026-09-02T12:22:31.000Z</time>
      </trkpt>
      <trkpt lat="48.12989" lon="6.85962">
        <ele>726.19995117188</ele>
        <time>2026-09-02T12:22:32.000Z</time>
      </trkpt>
      <trkpt lat="48.1299" lon="6.85964">
        <ele>726.19995117188</ele>
        <time>2026-09-02T12:22:33.000Z</time>
      </trkpt>
      <trkpt lat="48.1299" lon="6.85964">
        <ele>726.19995117188</ele>
        <time>2026-09-02T12:22:34.000Z</time>
      </trkpt>
      <trkpt lat="48.12989" lon="6.85963">
        <ele>726.19995117188</ele>
        <time>2026-09-02T12:22:35.000Z</time>
      </trkpt>
      <trkpt lat="48.12989" lon="6.85963">
        <ele>726.19995117188</ele>
        <time>2026-09-02T12:22:36.000Z</time>
      </trkpt>
      <trkpt lat="48.12989" lon="6.85963">
        <ele>726</ele>
        <time>2026-09-02T12:22:37.000Z</time>
      </trkpt>
      <trkpt lat="48.12989" lon="6.85963">
        <ele>726</ele>
        <time>2026-09-02T12:22:38.000Z</time>
      </trkpt>
      <trkpt lat="48.12989" lon="6.85963">
        <ele>725.80004882812</ele>
        <time>2026-09-02T12:22:39.000Z</time>
      </trkpt>
      <trkpt lat="48.12989" lon="6.85963">
        <ele>725.80004882812</ele>
        <time>2026-09-02T12:22:40.000Z</time>
      </trkpt>
      <trkpt lat="48.12989" lon="6.85963">
        <ele>725.80004882812</ele>
        <time>2026-09-02T12:22:41.000Z</time>
      </trkpt>
      <trkpt lat="48.12989" lon="6.85963">
        <ele>726</ele>
        <time>2026-09-02T12:22:42.000Z</time>
      </trkpt>
      <trkpt lat="48.12989" lon="6.85963">
        <ele>726</ele>
        <time>2026-09-02T12:22:43.000Z</time>
      </trkpt>
      <trkpt lat="48.12989" lon="6.85963">
        <ele>726</ele>
        <time>2026-09-02T12:22:44.000Z</time>
      </trkpt>
      <trkpt lat="48.12989" lon="6.85963">
        <ele>726</ele>
        <time>2026-09-02T12:22:45.000Z</time>
      </trkpt>
      <trkpt lat="48.12989" lon="6.85963">
        <ele>726</ele>
        <time>2026-09-02T12:22:46.000Z</time>
      </trkpt>
      <trkpt lat="48.12989" lon="6.85963">
        <ele>726</ele>
        <time>2026-09-02T12:22:47.000Z</time>
      </trkpt>
      <trkpt lat="48.12989" lon="6.85963">
        <ele>726</ele>
        <time>2026-09-02T12:22:48.000Z</time>
      </trkpt>
      <trkpt lat="48.12989" lon="6.85963">
        <ele>726</ele>
        <time>2026-09-02T12:22:49.000Z</time>
      </trkpt>
      <trkpt lat="48.12989" lon="6.85963">
        <ele>726</ele>
        <time>2026-09-02T12:22:50.000Z</time>
      </trkpt>
      <trkpt lat="48.12989" lon="6.85963">
        <ele>726.19995117188</ele>
        <time>2026-09-02T12:22:51.000Z</time>
      </trkpt>
      <trkpt lat="48.12989" lon="6.85963">
        <ele>726.19995117188</ele>
        <time>2026-09-02T12:22:52.000Z</time>
      </trkpt>
      <trkpt lat="48.12989" lon="6.85962">
        <ele>726.19995117188</ele>
        <time>2026-09-02T12:22:53.000Z</time>
      </trkpt>
      <trkpt lat="48.12988" lon="6.8596">
        <ele>726.19995117188</ele>
        <time>2026-09-02T12:22:54.000Z</time>
      </trkpt>
      <trkpt lat="48.12988" lon="6.85959">
        <ele>726.19995117188</ele>
        <time>2026-09-02T12:22:55.000Z</time>
      </trkpt>
      <trkpt lat="48.12988" lon="6.85959">
        <ele>726.19995117188</ele>
        <time>2026-09-02T12:22:56.000Z</time>
      </trkpt>
      <trkpt lat="48.12987" lon="6.85959">
        <ele>726</ele>
        <time>2026-09-02T12:22:57.000Z</time>
      </trkpt>
      <trkpt lat="48.12987" lon="6.85959">
        <ele>726</ele>
        <time>2026-09-02T12:22:58.000Z</time>
      </trkpt>
      <trkpt lat="48.12987" lon="6.85959">
        <ele>726</ele>
        <time>2026-09-02T12:22:59.000Z</time>
      </trkpt>
      <trkpt lat="48.12987" lon="6.85959">
        <ele>726</ele>
        <time>2026-09-02T12:23:00.000Z</time>
      </trkpt>
      <trkpt lat="48.12987" lon="6.85959">
        <ele>726</ele>
        <time>2026-09-02T12:23:01.000Z</time>
      </trkpt>
      <trkpt lat="48.12987" lon="6.85959">
        <ele>726</ele>
        <time>2026-09-02T12:23:02.000Z</time>
      </trkpt>
      <trkpt lat="48.12987" lon="6.85959">
        <ele>726</ele>
        <time>2026-09-02T12:23:03.000Z</time>
      </trkpt>
      <trkpt lat="48.12987" lon="6.85959">
        <ele>726</ele>
        <time>2026-09-02T12:23:04.000Z</time>
      </trkpt>
      <trkpt lat="48.12987" lon="6.85959">
        <ele>726</ele>
        <time>2026-09-02T12:23:05.000Z</time>
      </trkpt>
      <trkpt lat="48.12987" lon="6.85959">
        <ele>726</ele>
        <time>2026-09-02T12:23:06.000Z</time>
      </trkpt>
      <trkpt lat="48.12987" lon="6.85959">
        <ele>726</ele>
        <time>2026-09-02T12:23:07.000Z</time>
      </trkpt>
      <trkpt lat="48.12988" lon="6.85959">
        <ele>726.19995117188</ele>
        <time>2026-09-02T12:23:08.000Z</time>
      </trkpt>
      <trkpt lat="48.12987" lon="6.85959">
        <ele>726.19995117188</ele>
        <time>2026-09-02T12:23:09.000Z</time>
      </trkpt>
      <trkpt lat="48.12987" lon="6.85959">
        <ele>726.40002441406</ele>
        <time>2026-09-02T12:23:10.000Z</time>
      </trkpt>
      <trkpt lat="48.12987" lon="6.85959">
        <ele>726.59997558594</ele>
        <time>2026-09-02T12:23:11.000Z</time>
      </trkpt>
      <trkpt lat="48.12987" lon="6.85959">
        <ele>726.59997558594</ele>
        <time>2026-09-02T12:23:12.000Z</time>
      </trkpt>
      <trkpt lat="48.12987" lon="6.85959">
        <ele>726.40002441406</ele>
        <time>2026-09-02T12:23:13.000Z</time>
      </trkpt>
      <trkpt lat="48.12987" lon="6.85959">
        <ele>726.40002441406</ele>
        <time>2026-09-02T12:23:14.000Z</time>
      </trkpt>
      <trkpt lat="48.12987" lon="6.85959">
        <ele>726.40002441406</ele>
        <time>2026-09-02T12:23:15.000Z</time>
      </trkpt>
      <trkpt lat="48.12987" lon="6.85959">
        <ele>726.40002441406</ele>
        <time>2026-09-02T12:23:16.000Z</time>
      </trkpt>
      <trkpt lat="48.12987" lon="6.85959">
        <ele>726.40002441406</ele>
        <time>2026-09-02T12:23:17.000Z</time>
      </trkpt>
      <trkpt lat="48.12987" lon="6.85959">
        <ele>726.40002441406</ele>
        <time>2026-09-02T12:23:18.000Z</time>
      </trkpt>
      <trkpt lat="48.12988" lon="6.85959">
        <ele>726.40002441406</ele>
        <time>2026-09-02T12:23:19.000Z</time>
      </trkpt>
      <trkpt lat="48.12987" lon="6.85959">
        <ele>726.40002441406</ele>
        <time>2026-09-02T12:23:20.000Z</time>
      </trkpt>
      <trkpt lat="48.12987" lon="6.85959">
        <ele>726.40002441406</ele>
        <time>2026-09-02T12:23:21.000Z</time>
      </trkpt>
      <trkpt lat="48.12987" lon="6.85959">
        <ele>726.19995117188</ele>
        <time>2026-09-02T12:23:22.000Z</time>
      </trkpt>
      <trkpt lat="48.12987" lon="6.85959">
        <ele>726.19995117188</ele>
        <time>2026-09-02T12:23:23.000Z</time>
      </trkpt>
      <trkpt lat="48.12987" lon="6.85959">
        <ele>726</ele>
        <time>2026-09-02T12:23:24.000Z</time>
      </trkpt>
      <trkpt lat="48.12987" lon="6.85959">
        <ele>726</ele>
        <time>2026-09-02T12:23:25.000Z</time>
      </trkpt>
      <trkpt lat="48.12987" lon="6.85959">
        <ele>726</ele>
        <time>2026-09-02T12:23:26.000Z</time>
      </trkpt>
      <trkpt lat="48.12987" lon="6.85959">
        <ele>726</ele>
        <time>2026-09-02T12:23:27.000Z</time>
      </trkpt>
      <trkpt lat="48.12987" lon="6.85959">
        <ele>726</ele>
        <time>2026-09-02T12:23:28.000Z</time>
      </trkpt>
      <trkpt lat="48.12987" lon="6.85959">
        <ele>726</ele>
        <time>2026-09-02T12:23:29.000Z</time>
      </trkpt>
      <trkpt lat="48.12987" lon="6.85959">
        <ele>726</ele>
        <time>2026-09-02T12:23:30.000Z</time>
      </trkpt>
      <trkpt lat="48.12987" lon="6.85959">
        <ele>726</ele>
        <time>2026-09-02T12:23:31.000Z</time>
      </trkpt>
      <trkpt lat="48.12987" lon="6.85959">
        <ele>726</ele>
        <time>2026-09-02T12:23:32.000Z</time>
      </trkpt>
      <trkpt lat="48.12987" lon="6.85959">
        <ele>726</ele>
        <time>2026-09-02T12:23:33.000Z</time>
      </trkpt>
      <trkpt lat="48.12987" lon="6.85959">
        <ele>725.80004882812</ele>
        <time>2026-09-02T12:23:34.000Z</time>
      </trkpt>
      <trkpt lat="48.12987" lon="6.85959">
        <ele>725.80004882812</ele>
        <time>2026-09-02T12:23:35.000Z</time>
      </trkpt>
      <trkpt lat="48.12987" lon="6.85959">
        <ele>725.59997558594</ele>
        <time>2026-09-02T12:23:36.000Z</time>
      </trkpt>
      <trkpt lat="48.12987" lon="6.85959">
        <ele>725.59997558594</ele>
        <time>2026-09-02T12:23:37.000Z</time>
      </trkpt>
      <trkpt lat="48.12987" lon="6.85959">
        <ele>725.59997558594</ele>
        <time>2026-09-02T12:23:38.000Z</time>
      </trkpt>
      <trkpt lat="48.12987" lon="6.85959">
        <ele>725.59997558594</ele>
        <time>2026-09-02T12:23:39.000Z</time>
      </trkpt>
      <trkpt lat="48.12987" lon="6.85959">
        <ele>725.59997558594</ele>
        <time>2026-09-02T12:23:40.000Z</time>
      </trkpt>
      <trkpt lat="48.12987" lon="6.85959">
        <ele>725.59997558594</ele>
        <time>2026-09-02T12:23:41.000Z</time>
      </trkpt>
      <trkpt lat="48.12987" lon="6.85959">
        <ele>725.80004882812</ele>
        <time>2026-09-02T12:23:42.000Z</time>
      </trkpt>
      <trkpt lat="48.12987" lon="6.85959">
        <ele>725.80004882812</ele>
        <time>2026-09-02T12:23:43.000Z</time>
      </trkpt>
      <trkpt lat="48.12987" lon="6.85959">
        <ele>725.80004882812</ele>
        <time>2026-09-02T12:23:44.000Z</time>
      </trkpt>
      <trkpt lat="48.12987" lon="6.85959">
        <ele>725.80004882812</ele>
        <time>2026-09-02T12:23:45.000Z</time>
      </trkpt>
      <trkpt lat="48.12987" lon="6.85959">
        <ele>725.80004882812</ele>
        <time>2026-09-02T12:23:46.000Z</time>
      </trkpt>
      <trkpt lat="48.12987" lon="6.85959">
        <ele>725.59997558594</ele>
        <time>2026-09-02T12:23:47.000Z</time>
      </trkpt>
      <trkpt lat="48.12987" lon="6.85959">
        <ele>725.59997558594</ele>
        <time>2026-09-02T12:23:48.000Z</time>
      </trkpt>
      <trkpt lat="48.12987" lon="6.85959">
        <ele>725.80004882812</ele>
        <time>2026-09-02T12:23:49.000Z</time>
      </trkpt>
      <trkpt lat="48.12987" lon="6.85959">
        <ele>725.80004882812</ele>
        <time>2026-09-02T12:23:50.000Z</time>
      </trkpt>
      <trkpt lat="48.12987" lon="6.85959">
        <ele>726</ele>
        <time>2026-09-02T12:23:51.000Z</time>
      </trkpt>
      <trkpt lat="48.12987" lon="6.85959">
        <ele>726</ele>
        <time>2026-09-02T12:23:52.000Z</time>
      </trkpt>
      <trkpt lat="48.12987" lon="6.85959">
        <ele>726.19995117188</ele>
        <time>2026-09-02T12:23:53.000Z</time>
      </trkpt>
      <trkpt lat="48.12987" lon="6.85959">
        <ele>726.19995117188</ele>
        <time>2026-09-02T12:23:54.000Z</time>
      </trkpt>
      <trkpt lat="48.12987" lon="6.85959">
        <ele>726.19995117188</ele>
        <time>2026-09-02T12:23:55.000Z</time>
      </trkpt>
      <trkpt lat="48.12987" lon="6.85959">
        <ele>726.40002441406</ele>
        <time>2026-09-02T12:23:56.000Z</time>
      </trkpt>
      <trkpt lat="48.12987" lon="6.85959">
        <ele>726.40002441406</ele>
        <time>2026-09-02T12:23:57.000Z</time>
      </trkpt>
      <trkpt lat="48.12987" lon="6.85959">
        <ele>726.40002441406</ele>
        <time>2026-09-02T12:23:58.000Z</time>
      </trkpt>
      <trkpt lat="48.12987" lon="6.85959">
        <ele>726.59997558594</ele>
        <time>2026-09-02T12:23:59.000Z</time>
      </trkpt>
      <trkpt lat="48.12987" lon="6.85959">
        <ele>726.59997558594</ele>
        <time>2026-09-02T12:24:00.000Z</time>
      </trkpt>
      <trkpt lat="48.12987" lon="6.85959">
        <ele>726.59997558594</ele>
        <time>2026-09-02T12:24:01.000Z</time>
      </trkpt>
      <trkpt lat="48.12987" lon="6.85959">
        <ele>726.59997558594</ele>
        <time>2026-09-02T12:24:02.000Z</time>
      </trkpt>
      <trkpt lat="48.12987" lon="6.85959">
        <ele>726.59997558594</ele>
        <time>2026-09-02T12:24:03.000Z</time>
      </trkpt>
      <trkpt lat="48.12987" lon="6.85959">
        <ele>726.59997558594</ele>
        <time>2026-09-02T12:24:04.000Z</time>
      </trkpt>
      <trkpt lat="48.12987" lon="6.85959">
        <ele>726.59997558594</ele>
        <time>2026-09-02T12:24:05.000Z</time>
      </trkpt>
      <trkpt lat="48.12987" lon="6.85959">
        <ele>726.59997558594</ele>
        <time>2026-09-02T12:24:06.000Z</time>
      </trkpt>
      <trkpt lat="48.12987" lon="6.85959">
        <ele>726.59997558594</ele>
        <time>2026-09-02T12:24:07.000Z</time>
      </trkpt>
      <trkpt lat="48.12987" lon="6.85959">
        <ele>726.59997558594</ele>
        <time>2026-09-02T12:24:08.000Z</time>
      </trkpt>
      <trkpt lat="48.12987" lon="6.85959">
        <ele>726.59997558594</ele>
        <time>2026-09-02T12:24:09.000Z</time>
      </trkpt>
      <trkpt lat="48.12987" lon="6.85959">
        <ele>726.59997558594</ele>
        <time>2026-09-02T12:24:10.000Z</time>
      </trkpt>
      <trkpt lat="48.12987" lon="6.85959">
        <ele>726.80004882812</ele>
        <time>2026-09-02T12:24:11.000Z</time>
      </trkpt>
      <trkpt lat="48.12987" lon="6.85959">
        <ele>726.80004882812</ele>
        <time>2026-09-02T12:24:12.000Z</time>
      </trkpt>
      <trkpt lat="48.12988" lon="6.8596">
        <ele>726.80004882812</ele>
        <time>2026-09-02T12:24:13.000Z</time>
      </trkpt>
      <trkpt lat="48.12987" lon="6.85959">
        <ele>726.80004882812</ele>
        <time>2026-09-02T12:24:14.000Z</time>
      </trkpt>
      <trkpt lat="48.12989" lon="6.8596">
        <ele>727</ele>
        <time>2026-09-02T12:24:15.000Z</time>
      </trkpt>
      <trkpt lat="48.12988" lon="6.8596">
        <ele>726.80004882812</ele>
        <time>2026-09-02T12:24:16.000Z</time>
      </trkpt>
      <trkpt lat="48.12988" lon="6.85961">
        <ele>726.80004882812</ele>
        <time>2026-09-02T12:24:17.000Z</time>
      </trkpt>
      <trkpt lat="48.12988" lon="6.85961">
        <ele>726.59997558594</ele>
        <time>2026-09-02T12:24:18.000Z</time>
      </trkpt>
      <trkpt lat="48.12989" lon="6.85962">
        <ele>726.59997558594</ele>
        <time>2026-09-02T12:24:19.000Z</time>
      </trkpt>
      <trkpt lat="48.12989" lon="6.85961">
        <ele>726.59997558594</ele>
        <time>2026-09-02T12:24:20.000Z</time>
      </trkpt>
      <trkpt lat="48.12989" lon="6.85961">
        <ele>726.59997558594</ele>
        <time>2026-09-02T12:24:21.000Z</time>
      </trkpt>
      <trkpt lat="48.12989" lon="6.85962">
        <ele>726.80004882812</ele>
        <time>2026-09-02T12:24:22.000Z</time>
      </trkpt>
      <trkpt lat="48.12989" lon="6.85962">
        <ele>726.80004882812</ele>
        <time>2026-09-02T12:24:23.000Z</time>
      </trkpt>
      <trkpt lat="48.12989" lon="6.85962">
        <ele>726.80004882812</ele>
        <time>2026-09-02T12:24:24.000Z</time>
      </trkpt>
      <trkpt lat="48.12989" lon="6.85962">
        <ele>726.80004882812</ele>
        <time>2026-09-02T12:24:25.000Z</time>
      </trkpt>
      <trkpt lat="48.12989" lon="6.85962">
        <ele>726.59997558594</ele>
        <time>2026-09-02T12:24:26.000Z</time>
      </trkpt>
      <trkpt lat="48.12989" lon="6.85962">
        <ele>726.59997558594</ele>
        <time>2026-09-02T12:24:27.000Z</time>
      </trkpt>
      <trkpt lat="48.12989" lon="6.85962">
        <ele>726.59997558594</ele>
        <time>2026-09-02T12:24:28.000Z</time>
      </trkpt>
      <trkpt lat="48.12989" lon="6.85962">
        <ele>726.80004882812</ele>
        <time>2026-09-02T12:24:29.000Z</time>
      </trkpt>
      <trkpt lat="48.12989" lon="6.85962">
        <ele>726.80004882812</ele>
        <time>2026-09-02T12:24:30.000Z</time>
      </trkpt>
      <trkpt lat="48.12989" lon="6.85962">
        <ele>726.80004882812</ele>
        <time>2026-09-02T12:24:31.000Z</time>
      </trkpt>
      <trkpt lat="48.12989" lon="6.85962">
        <ele>726.80004882812</ele>
        <time>2026-09-02T12:24:32.000Z</time>
      </trkpt>
      <trkpt lat="48.12989" lon="6.85962">
        <ele>726.80004882812</ele>
        <time>2026-09-02T12:24:33.000Z</time>
      </trkpt>
      <trkpt lat="48.1299" lon="6.85963">
        <ele>727</ele>
        <time>2026-09-02T12:24:34.000Z</time>
      </trkpt>
      <trkpt lat="48.1299" lon="6.85962">
        <ele>727</ele>
        <time>2026-09-02T12:24:35.000Z</time>
      </trkpt>
      <trkpt lat="48.1299" lon="6.85962">
        <ele>727.19995117188</ele>
        <time>2026-09-02T12:24:36.000Z</time>
      </trkpt>
      <trkpt lat="48.1299" lon="6.85962">
        <ele>727.19995117188</ele>
        <time>2026-09-02T12:24:37.000Z</time>
      </trkpt>
      <trkpt lat="48.12991" lon="6.85962">
        <ele>727.40002441406</ele>
        <time>2026-09-02T12:24:38.000Z</time>
      </trkpt>
      <trkpt lat="48.12992" lon="6.85962">
        <ele>727.59997558594</ele>
        <time>2026-09-02T12:24:39.000Z</time>
      </trkpt>
      <trkpt lat="48.12992" lon="6.85963">
        <ele>727.59997558594</ele>
        <time>2026-09-02T12:24:40.000Z</time>
      </trkpt>
      <trkpt lat="48.12993" lon="6.85963">
        <ele>727.59997558594</ele>
        <time>2026-09-02T12:24:41.000Z</time>
      </trkpt>
      <trkpt lat="48.12994" lon="6.85963">
        <ele>727.59997558594</ele>
        <time>2026-09-02T12:24:42.000Z</time>
      </trkpt>
      <trkpt lat="48.12994" lon="6.85963">
        <ele>727.59997558594</ele>
        <time>2026-09-02T12:24:43.000Z</time>
      </trkpt>
      <trkpt lat="48.12994" lon="6.85963">
        <ele>727.59997558594</ele>
        <time>2026-09-02T12:24:44.000Z</time>
      </trkpt>
      <trkpt lat="48.12995" lon="6.85963">
        <ele>727.40002441406</ele>
        <time>2026-09-02T12:24:45.000Z</time>
      </trkpt>
      <trkpt lat="48.12996" lon="6.85963">
        <ele>727.40002441406</ele>
        <time>2026-09-02T12:24:46.000Z</time>
      </trkpt>
      <trkpt lat="48.12998" lon="6.85963">
        <ele>727.19995117188</ele>
        <time>2026-09-02T12:24:47.000Z</time>
      </trkpt>
      <trkpt lat="48.12998" lon="6.85965">
        <ele>727.19995117188</ele>
        <time>2026-09-02T12:24:48.000Z</time>
      </trkpt>
      <trkpt lat="48.12999" lon="6.85966">
        <ele>727.40002441406</ele>
        <time>2026-09-02T12:24:49.000Z</time>
      </trkpt>
      <trkpt lat="48.13" lon="6.85967">
        <ele>727.59997558594</ele>
        <time>2026-09-02T12:24:50.000Z</time>
      </trkpt>
      <trkpt lat="48.13" lon="6.85968">
        <ele>727.80004882812</ele>
        <time>2026-09-02T12:24:51.000Z</time>
      </trkpt>
      <trkpt lat="48.13" lon="6.85968">
        <ele>727.80004882812</ele>
        <time>2026-09-02T12:24:52.000Z</time>
      </trkpt>
      <trkpt lat="48.13" lon="6.85968">
        <ele>728</ele>
        <time>2026-09-02T12:24:53.000Z</time>
      </trkpt>
      <trkpt lat="48.13" lon="6.85968">
        <ele>728</ele>
        <time>2026-09-02T12:24:54.000Z</time>
      </trkpt>
      <trkpt lat="48.13" lon="6.85968">
        <ele>727.80004882812</ele>
        <time>2026-09-02T12:24:55.000Z</time>
      </trkpt>
      <trkpt lat="48.13" lon="6.85969">
        <ele>727.80004882812</ele>
        <time>2026-09-02T12:24:56.000Z</time>
      </trkpt>
      <trkpt lat="48.13001" lon="6.85969">
        <ele>727.59997558594</ele>
        <time>2026-09-02T12:24:57.000Z</time>
      </trkpt>
      <trkpt lat="48.13002" lon="6.85969">
        <ele>727.59997558594</ele>
        <time>2026-09-02T12:24:58.000Z</time>
      </trkpt>
      <trkpt lat="48.13001" lon="6.85969">
        <ele>727.59997558594</ele>
        <time>2026-09-02T12:24:59.000Z</time>
      </trkpt>
      <trkpt lat="48.13002" lon="6.8597">
        <ele>727.59997558594</ele>
        <time>2026-09-02T12:25:00.000Z</time>
      </trkpt>
      <trkpt lat="48.13002" lon="6.8597">
        <ele>727.59997558594</ele>
        <time>2026-09-02T12:25:01.000Z</time>
      </trkpt>
      <trkpt lat="48.13003" lon="6.8597">
        <ele>727.80004882812</ele>
        <time>2026-09-02T12:25:02.000Z</time>
      </trkpt>
      <trkpt lat="48.13003" lon="6.8597">
        <ele>727.80004882812</ele>
        <time>2026-09-02T12:25:03.000Z</time>
      </trkpt>
      <trkpt lat="48.13004" lon="6.85971">
        <ele>727.80004882812</ele>
        <time>2026-09-02T12:25:04.000Z</time>
      </trkpt>
      <trkpt lat="48.13006" lon="6.85972">
        <ele>727.80004882812</ele>
        <time>2026-09-02T12:25:05.000Z</time>
      </trkpt>
      <trkpt lat="48.13007" lon="6.85973">
        <ele>728</ele>
        <time>2026-09-02T12:25:06.000Z</time>
      </trkpt>
      <trkpt lat="48.13008" lon="6.85974">
        <ele>728</ele>
        <time>2026-09-02T12:25:07.000Z</time>
      </trkpt>
      <trkpt lat="48.13009" lon="6.85975">
        <ele>728.19995117188</ele>
        <time>2026-09-02T12:25:08.000Z</time>
      </trkpt>
      <trkpt lat="48.1301" lon="6.85976">
        <ele>728.19995117188</ele>
        <time>2026-09-02T12:25:09.000Z</time>
      </trkpt>
      <trkpt lat="48.1301" lon="6.85976">
        <ele>728.19995117188</ele>
        <time>2026-09-02T12:25:10.000Z</time>
      </trkpt>
      <trkpt lat="48.13011" lon="6.85977">
        <ele>728.19995117188</ele>
        <time>2026-09-02T12:25:11.000Z</time>
      </trkpt>
      <trkpt lat="48.13011" lon="6.85979">
        <ele>728.40002441406</ele>
        <time>2026-09-02T12:25:12.000Z</time>
      </trkpt>
      <trkpt lat="48.13012" lon="6.8598">
        <ele>728.40002441406</ele>
        <time>2026-09-02T12:25:13.000Z</time>
      </trkpt>
      <trkpt lat="48.13012" lon="6.85981">
        <ele>728.40002441406</ele>
        <time>2026-09-02T12:25:14.000Z</time>
      </trkpt>
      <trkpt lat="48.13012" lon="6.85981">
        <ele>728.40002441406</ele>
        <time>2026-09-02T12:25:15.000Z</time>
      </trkpt>
      <trkpt lat="48.13012" lon="6.85982">
        <ele>728.59997558594</ele>
        <time>2026-09-02T12:25:16.000Z</time>
      </trkpt>
      <trkpt lat="48.13012" lon="6.85982">
        <ele>728.59997558594</ele>
        <time>2026-09-02T12:25:17.000Z</time>
      </trkpt>
      <trkpt lat="48.13012" lon="6.85982">
        <ele>728.59997558594</ele>
        <time>2026-09-02T12:25:18.000Z</time>
      </trkpt>
      <trkpt lat="48.13012" lon="6.85982">
        <ele>728.80004882812</ele>
        <time>2026-09-02T12:25:19.000Z</time>
      </trkpt>
      <trkpt lat="48.13012" lon="6.85982">
        <ele>728.80004882812</ele>
        <time>2026-09-02T12:25:20.000Z</time>
      </trkpt>
      <trkpt lat="48.13012" lon="6.85982">
        <ele>728.80004882812</ele>
        <time>2026-09-02T12:25:21.000Z</time>
      </trkpt>
      <trkpt lat="48.13012" lon="6.85982">
        <ele>728.80004882812</ele>
        <time>2026-09-02T12:25:22.000Z</time>
      </trkpt>
      <trkpt lat="48.13012" lon="6.85982">
        <ele>728.80004882812</ele>
        <time>2026-09-02T12:25:23.000Z</time>
      </trkpt>
      <trkpt lat="48.13012" lon="6.85982">
        <ele>728.80004882812</ele>
        <time>2026-09-02T12:25:24.000Z</time>
      </trkpt>
      <trkpt lat="48.13012" lon="6.85982">
        <ele>728.80004882812</ele>
        <time>2026-09-02T12:25:25.000Z</time>
      </trkpt>
      <trkpt lat="48.13012" lon="6.85982">
        <ele>728.59997558594</ele>
        <time>2026-09-02T12:25:26.000Z</time>
      </trkpt>
      <trkpt lat="48.13012" lon="6.85982">
        <ele>728.40002441406</ele>
        <time>2026-09-02T12:25:27.000Z</time>
      </trkpt>
      <trkpt lat="48.13012" lon="6.85982">
        <ele>728.19995117188</ele>
        <time>2026-09-02T12:25:28.000Z</time>
      </trkpt>
      <trkpt lat="48.13012" lon="6.85982">
        <ele>728</ele>
        <time>2026-09-02T12:25:29.000Z</time>
      </trkpt>
      <trkpt lat="48.13012" lon="6.85982">
        <ele>728</ele>
        <time>2026-09-02T12:25:30.000Z</time>
      </trkpt>
      <trkpt lat="48.13012" lon="6.85982">
        <ele>728</ele>
        <time>2026-09-02T12:25:31.000Z</time>
      </trkpt>
      <trkpt lat="48.13012" lon="6.85982">
        <ele>728.19995117188</ele>
        <time>2026-09-02T12:25:32.000Z</time>
      </trkpt>
      <trkpt lat="48.13012" lon="6.85982">
        <ele>728.40002441406</ele>
        <time>2026-09-02T12:25:33.000Z</time>
      </trkpt>
      <trkpt lat="48.13012" lon="6.85982">
        <ele>728.59997558594</ele>
        <time>2026-09-02T12:25:34.000Z</time>
      </trkpt>
      <trkpt lat="48.13012" lon="6.85982">
        <ele>728.59997558594</ele>
        <time>2026-09-02T12:25:35.000Z</time>
      </trkpt>
      <trkpt lat="48.13012" lon="6.85982">
        <ele>728.80004882812</ele>
        <time>2026-09-02T12:25:36.000Z</time>
      </trkpt>
      <trkpt lat="48.13012" lon="6.85982">
        <ele>728.80004882812</ele>
        <time>2026-09-02T12:25:37.000Z</time>
      </trkpt>
      <trkpt lat="48.13012" lon="6.85982">
        <ele>728.80004882812</ele>
        <time>2026-09-02T12:25:38.000Z</time>
      </trkpt>
      <trkpt lat="48.13012" lon="6.85982">
        <ele>728.80004882812</ele>
        <time>2026-09-02T12:25:39.000Z</time>
      </trkpt>
      <trkpt lat="48.13012" lon="6.85982">
        <ele>728.80004882812</ele>
        <time>2026-09-02T12:25:40.000Z</time>
      </trkpt>
      <trkpt lat="48.13012" lon="6.85982">
        <ele>728.80004882812</ele>
        <time>2026-09-02T12:25:41.000Z</time>
      </trkpt>
      <trkpt lat="48.13012" lon="6.85982">
        <ele>728.80004882812</ele>
        <time>2026-09-02T12:25:42.000Z</time>
      </trkpt>
      <trkpt lat="48.13012" lon="6.85982">
        <ele>728.80004882812</ele>
        <time>2026-09-02T12:25:43.000Z</time>
      </trkpt>
      <trkpt lat="48.13012" lon="6.85982">
        <ele>728.80004882812</ele>
        <time>2026-09-02T12:25:44.000Z</time>
      </trkpt>
      <trkpt lat="48.13012" lon="6.85982">
        <ele>728.80004882812</ele>
        <time>2026-09-02T12:25:45.000Z</time>
      </trkpt>
      <trkpt lat="48.13012" lon="6.85982">
        <ele>728.80004882812</ele>
        <time>2026-09-02T12:25:46.000Z</time>
      </trkpt>
      <trkpt lat="48.13012" lon="6.85982">
        <ele>728.80004882812</ele>
        <time>2026-09-02T12:25:47.000Z</time>
      </trkpt>
      <trkpt lat="48.13012" lon="6.85982">
        <ele>728.80004882812</ele>
        <time>2026-09-02T12:25:48.000Z</time>
      </trkpt>
      <trkpt lat="48.13012" lon="6.85982">
        <ele>728.80004882812</ele>
        <time>2026-09-02T12:25:49.000Z</time>
      </trkpt>
      <trkpt lat="48.13012" lon="6.85982">
        <ele>728.80004882812</ele>
        <time>2026-09-02T12:25:50.000Z</time>
      </trkpt>
      <trkpt lat="48.13012" lon="6.85982">
        <ele>728.80004882812</ele>
        <time>2026-09-02T12:25:51.000Z</time>
      </trkpt>
      <trkpt lat="48.13012" lon="6.85982">
        <ele>728.80004882812</ele>
        <time>2026-09-02T12:25:52.000Z</time>
      </trkpt>
      <trkpt lat="48.13012" lon="6.85982">
        <ele>728.80004882812</ele>
        <time>2026-09-02T12:25:53.000Z</time>
      </trkpt>
      <trkpt lat="48.13012" lon="6.85982">
        <ele>728.80004882812</ele>
        <time>2026-09-02T12:25:54.000Z</time>
      </trkpt>
      <trkpt lat="48.13012" lon="6.85982">
        <ele>728.80004882812</ele>
        <time>2026-09-02T12:25:55.000Z</time>
      </trkpt>
      <trkpt lat="48.13012" lon="6.85982">
        <ele>728.80004882812</ele>
        <time>2026-09-02T12:25:56.000Z</time>
      </trkpt>
      <trkpt lat="48.13012" lon="6.85982">
        <ele>728.59997558594</ele>
        <time>2026-09-02T12:25:57.000Z</time>
      </trkpt>
      <trkpt lat="48.13012" lon="6.85982">
        <ele>728.59997558594</ele>
        <time>2026-09-02T12:25:58.000Z</time>
      </trkpt>
      <trkpt lat="48.13012" lon="6.85982">
        <ele>728.59997558594</ele>
        <time>2026-09-02T12:25:59.000Z</time>
      </trkpt>
      <trkpt lat="48.13012" lon="6.85982">
        <ele>728.40002441406</ele>
        <time>2026-09-02T12:26:00.000Z</time>
      </trkpt>
      <trkpt lat="48.13012" lon="6.85982">
        <ele>728.40002441406</ele>
        <time>2026-09-02T12:26:01.000Z</time>
      </trkpt>
      <trkpt lat="48.13012" lon="6.85982">
        <ele>728.19995117188</ele>
        <time>2026-09-02T12:26:02.000Z</time>
      </trkpt>
      <trkpt lat="48.13012" lon="6.85982">
        <ele>728.19995117188</ele>
        <time>2026-09-02T12:26:03.000Z</time>
      </trkpt>
      <trkpt lat="48.13012" lon="6.85982">
        <ele>728.19995117188</ele>
        <time>2026-09-02T12:26:04.000Z</time>
      </trkpt>
      <trkpt lat="48.13012" lon="6.85982">
        <ele>728.19995117188</ele>
        <time>2026-09-02T12:26:05.000Z</time>
      </trkpt>
      <trkpt lat="48.13012" lon="6.85982">
        <ele>728.19995117188</ele>
        <time>2026-09-02T12:26:06.000Z</time>
      </trkpt>
      <trkpt lat="48.13012" lon="6.85982">
        <ele>728.19995117188</ele>
        <time>2026-09-02T12:26:07.000Z</time>
      </trkpt>
      <trkpt lat="48.13012" lon="6.85982">
        <ele>728.19995117188</ele>
        <time>2026-09-02T12:26:08.000Z</time>
      </trkpt>
      <trkpt lat="48.13012" lon="6.85982">
        <ele>728.19995117188</ele>
        <time>2026-09-02T12:26:09.000Z</time>
      </trkpt>
      <trkpt lat="48.13012" lon="6.85982">
        <ele>728.19995117188</ele>
        <time>2026-09-02T12:26:10.000Z</time>
      </trkpt>
      <trkpt lat="48.13012" lon="6.85982">
        <ele>728.19995117188</ele>
        <time>2026-09-02T12:26:11.000Z</time>
      </trkpt>
      <trkpt lat="48.13012" lon="6.85982">
        <ele>728.19995117188</ele>
        <time>2026-09-02T12:26:12.000Z</time>
      </trkpt>
      <trkpt lat="48.13012" lon="6.85982">
        <ele>728.19995117188</ele>
        <time>2026-09-02T12:26:13.000Z</time>
      </trkpt>
      <trkpt lat="48.13012" lon="6.85982">
        <ele>728.19995117188</ele>
        <time>2026-09-02T12:26:14.000Z</time>
      </trkpt>
      <trkpt lat="48.13012" lon="6.85982">
        <ele>728.19995117188</ele>
        <time>2026-09-02T12:26:15.000Z</time>
      </trkpt>
      <trkpt lat="48.13012" lon="6.85982">
        <ele>728.19995117188</ele>
        <time>2026-09-02T12:26:16.000Z</time>
      </trkpt>
      <trkpt lat="48.13012" lon="6.85982">
        <ele>728.19995117188</ele>
        <time>2026-09-02T12:26:17.000Z</time>
      </trkpt>
      <trkpt lat="48.13012" lon="6.85982">
        <ele>728.19995117188</ele>
        <time>2026-09-02T12:26:18.000Z</time>
      </trkpt>
      <trkpt lat="48.13012" lon="6.85982">
        <ele>728.19995117188</ele>
        <time>2026-09-02T12:26:19.000Z</time>
      </trkpt>
      <trkpt lat="48.13012" lon="6.85982">
        <ele>728.19995117188</ele>
        <time>2026-09-02T12:26:20.000Z</time>
      </trkpt>
      <trkpt lat="48.13012" lon="6.85982">
        <ele>728.19995117188</ele>
        <time>2026-09-02T12:26:21.000Z</time>
      </trkpt>
      <trkpt lat="48.13012" lon="6.85982">
        <ele>728.40002441406</ele>
        <time>2026-09-02T12:26:22.000Z</time>
      </trkpt>
      <trkpt lat="48.13012" lon="6.85982">
        <ele>728.40002441406</ele>
        <time>2026-09-02T12:26:23.000Z</time>
      </trkpt>
      <trkpt lat="48.13012" lon="6.85982">
        <ele>728.40002441406</ele>
        <time>2026-09-02T12:26:24.000Z</time>
      </trkpt>
      <trkpt lat="48.13012" lon="6.85982">
        <ele>728.19995117188</ele>
        <time>2026-09-02T12:26:25.000Z</time>
      </trkpt>
      <trkpt lat="48.13012" lon="6.85982">
        <ele>728.19995117188</ele>
        <time>2026-09-02T12:26:26.000Z</time>
      </trkpt>
      <trkpt lat="48.13012" lon="6.85982">
        <ele>728.19995117188</ele>
        <time>2026-09-02T12:26:27.000Z</time>
      </trkpt>
      <trkpt lat="48.13012" lon="6.85982">
        <ele>728.19995117188</ele>
        <time>2026-09-02T12:26:28.000Z</time>
      </trkpt>
      <trkpt lat="48.13012" lon="6.85982">
        <ele>728.19995117188</ele>
        <time>2026-09-02T12:26:29.000Z</time>
      </trkpt>
      <trkpt lat="48.13012" lon="6.85982">
        <ele>728.19995117188</ele>
        <time>2026-09-02T12:26:30.000Z</time>
      </trkpt>
      <trkpt lat="48.13013" lon="6.85982">
        <ele>728.19995117188</ele>
        <time>2026-09-02T12:26:31.000Z</time>
      </trkpt>
      <trkpt lat="48.13013" lon="6.85982">
        <ele>728.40002441406</ele>
        <time>2026-09-02T12:26:32.000Z</time>
      </trkpt>
      <trkpt lat="48.13013" lon="6.85982">
        <ele>728.19995117188</ele>
        <time>2026-09-02T12:26:33.000Z</time>
      </trkpt>
      <trkpt lat="48.13013" lon="6.85982">
        <ele>728.19995117188</ele>
        <time>2026-09-02T12:26:34.000Z</time>
      </trkpt>
      <trkpt lat="48.13013" lon="6.85982">
        <ele>728.19995117188</ele>
        <time>2026-09-02T12:26:35.000Z</time>
      </trkpt>
      <trkpt lat="48.13013" lon="6.85982">
        <ele>728.19995117188</ele>
        <time>2026-09-02T12:26:36.000Z</time>
      </trkpt>
      <trkpt lat="48.13013" lon="6.85982">
        <ele>728.19995117188</ele>
        <time>2026-09-02T12:26:37.000Z</time>
      </trkpt>
      <trkpt lat="48.13013" lon="6.85982">
        <ele>728.40002441406</ele>
        <time>2026-09-02T12:26:38.000Z</time>
      </trkpt>
      <trkpt lat="48.13014" lon="6.85982">
        <ele>728.40002441406</ele>
        <time>2026-09-02T12:26:39.000Z</time>
      </trkpt>
      <trkpt lat="48.13015" lon="6.85983">
        <ele>728.40002441406</ele>
        <time>2026-09-02T12:26:40.000Z</time>
      </trkpt>
      <trkpt lat="48.13016" lon="6.85984">
        <ele>728.59997558594</ele>
        <time>2026-09-02T12:26:41.000Z</time>
      </trkpt>
      <trkpt lat="48.13017" lon="6.85985">
        <ele>728.59997558594</ele>
        <time>2026-09-02T12:26:42.000Z</time>
      </trkpt>
      <trkpt lat="48.13017" lon="6.85985">
        <ele>728.80004882812</ele>
        <time>2026-09-02T12:26:43.000Z</time>
      </trkpt>
      <trkpt lat="48.13018" lon="6.85986">
        <ele>729.19995117188</ele>
        <time>2026-09-02T12:26:44.000Z</time>
      </trkpt>
      <trkpt lat="48.13018" lon="6.85988">
        <ele>729.40002441406</ele>
        <time>2026-09-02T12:26:45.000Z</time>
      </trkpt>
      <trkpt lat="48.13019" lon="6.85988">
        <ele>729.59997558594</ele>
        <time>2026-09-02T12:26:46.000Z</time>
      </trkpt>
      <trkpt lat="48.13019" lon="6.8599">
        <ele>730</ele>
        <time>2026-09-02T12:26:47.000Z</time>
      </trkpt>
      <trkpt lat="48.1302" lon="6.85991">
        <ele>730</ele>
        <time>2026-09-02T12:26:48.000Z</time>
      </trkpt>
      <trkpt lat="48.1302" lon="6.85992">
        <ele>730.19995117188</ele>
        <time>2026-09-02T12:26:49.000Z</time>
      </trkpt>
      <trkpt lat="48.13021" lon="6.85992">
        <ele>730.19995117188</ele>
        <time>2026-09-02T12:26:50.000Z</time>
      </trkpt>
      <trkpt lat="48.13021" lon="6.85993">
        <ele>730.40002441406</ele>
        <time>2026-09-02T12:26:51.000Z</time>
      </trkpt>
      <trkpt lat="48.13022" lon="6.85994">
        <ele>730.40002441406</ele>
        <time>2026-09-02T12:26:52.000Z</time>
      </trkpt>
      <trkpt lat="48.13023" lon="6.85995">
        <ele>730.40002441406</ele>
        <time>2026-09-02T12:26:53.000Z</time>
      </trkpt>
      <trkpt lat="48.13023" lon="6.85996">
        <ele>730.40002441406</ele>
        <time>2026-09-02T12:26:54.000Z</time>
      </trkpt>
      <trkpt lat="48.13024" lon="6.85996">
        <ele>730.40002441406</ele>
        <time>2026-09-02T12:26:55.000Z</time>
      </trkpt>
      <trkpt lat="48.13024" lon="6.85997">
        <ele>730.40002441406</ele>
        <time>2026-09-02T12:26:56.000Z</time>
      </trkpt>
      <trkpt lat="48.13025" lon="6.85998">
        <ele>730.59997558594</ele>
        <time>2026-09-02T12:26:57.000Z</time>
      </trkpt>
      <trkpt lat="48.13025" lon="6.85998">
        <ele>730.59997558594</ele>
        <time>2026-09-02T12:26:58.000Z</time>
      </trkpt>
      <trkpt lat="48.13026" lon="6.85999">
        <ele>730.59997558594</ele>
        <time>2026-09-02T12:26:59.000Z</time>
      </trkpt>
      <trkpt lat="48.13026" lon="6.85999">
        <ele>730.59997558594</ele>
        <time>2026-09-02T12:27:00.000Z</time>
      </trkpt>
      <trkpt lat="48.13027" lon="6.85999">
        <ele>730.59997558594</ele>
        <time>2026-09-02T12:27:01.000Z</time>
      </trkpt>
      <trkpt lat="48.13027" lon="6.86">
        <ele>730.59997558594</ele>
        <time>2026-09-02T12:27:02.000Z</time>
      </trkpt>
      <trkpt lat="48.13028" lon="6.86">
        <ele>730.59997558594</ele>
        <time>2026-09-02T12:27:03.000Z</time>
      </trkpt>
      <trkpt lat="48.13029" lon="6.86">
        <ele>730.59997558594</ele>
        <time>2026-09-02T12:27:04.000Z</time>
      </trkpt>
      <trkpt lat="48.13029" lon="6.86">
        <ele>730.59997558594</ele>
        <time>2026-09-02T12:27:05.000Z</time>
      </trkpt>
      <trkpt lat="48.13029" lon="6.86001">
        <ele>730.80004882812</ele>
        <time>2026-09-02T12:27:06.000Z</time>
      </trkpt>
      <trkpt lat="48.13029" lon="6.86001">
        <ele>731</ele>
        <time>2026-09-02T12:27:07.000Z</time>
      </trkpt>
      <trkpt lat="48.1303" lon="6.86001">
        <ele>731</ele>
        <time>2026-09-02T12:27:08.000Z</time>
      </trkpt>
      <trkpt lat="48.13031" lon="6.86002">
        <ele>731.19995117188</ele>
        <time>2026-09-02T12:27:09.000Z</time>
      </trkpt>
      <trkpt lat="48.13032" lon="6.86002">
        <ele>731.19995117188</ele>
        <time>2026-09-02T12:27:10.000Z</time>
      </trkpt>
      <trkpt lat="48.13033" lon="6.86003">
        <ele>731.19995117188</ele>
        <time>2026-09-02T12:27:11.000Z</time>
      </trkpt>
      <trkpt lat="48.13033" lon="6.86004">
        <ele>731.40002441406</ele>
        <time>2026-09-02T12:27:12.000Z</time>
      </trkpt>
      <trkpt lat="48.13034" lon="6.86005">
        <ele>731.40002441406</ele>
        <time>2026-09-02T12:27:13.000Z</time>
      </trkpt>
      <trkpt lat="48.13035" lon="6.86006">
        <ele>731.40002441406</ele>
        <time>2026-09-02T12:27:14.000Z</time>
      </trkpt>
      <trkpt lat="48.13036" lon="6.86007">
        <ele>731.59997558594</ele>
        <time>2026-09-02T12:27:15.000Z</time>
      </trkpt>
      <trkpt lat="48.13036" lon="6.86008">
        <ele>731.80004882812</ele>
        <time>2026-09-02T12:27:16.000Z</time>
      </trkpt>
      <trkpt lat="48.13037" lon="6.86009">
        <ele>731.80004882812</ele>
        <time>2026-09-02T12:27:17.000Z</time>
      </trkpt>
      <trkpt lat="48.13038" lon="6.8601">
        <ele>731.80004882812</ele>
        <time>2026-09-02T12:27:18.000Z</time>
      </trkpt>
      <trkpt lat="48.13038" lon="6.86011">
        <ele>732</ele>
        <time>2026-09-02T12:27:19.000Z</time>
      </trkpt>
      <trkpt lat="48.13038" lon="6.86011">
        <ele>732</ele>
        <time>2026-09-02T12:27:20.000Z</time>
      </trkpt>
      <trkpt lat="48.13039" lon="6.86012">
        <ele>732</ele>
        <time>2026-09-02T12:27:21.000Z</time>
      </trkpt>
      <trkpt lat="48.13039" lon="6.86013">
        <ele>732</ele>
        <time>2026-09-02T12:27:22.000Z</time>
      </trkpt>
      <trkpt lat="48.13039" lon="6.86014">
        <ele>732.19995117188</ele>
        <time>2026-09-02T12:27:23.000Z</time>
      </trkpt>
      <trkpt lat="48.1304" lon="6.86015">
        <ele>732.40002441406</ele>
        <time>2026-09-02T12:27:24.000Z</time>
      </trkpt>
      <trkpt lat="48.1304" lon="6.86015">
        <ele>732.40002441406</ele>
        <time>2026-09-02T12:27:25.000Z</time>
      </trkpt>
      <trkpt lat="48.13041" lon="6.86017">
        <ele>732.40002441406</ele>
        <time>2026-09-02T12:27:26.000Z</time>
      </trkpt>
      <trkpt lat="48.13041" lon="6.86017">
        <ele>732.59997558594</ele>
        <time>2026-09-02T12:27:27.000Z</time>
      </trkpt>
      <trkpt lat="48.13041" lon="6.86018">
        <ele>732.59997558594</ele>
        <time>2026-09-02T12:27:28.000Z</time>
      </trkpt>
      <trkpt lat="48.13042" lon="6.86018">
        <ele>732.59997558594</ele>
        <time>2026-09-02T12:27:29.000Z</time>
      </trkpt>
      <trkpt lat="48.13042" lon="6.86019">
        <ele>732.59997558594</ele>
        <time>2026-09-02T12:27:30.000Z</time>
      </trkpt>
      <trkpt lat="48.13042" lon="6.86019">
        <ele>732.80004882812</ele>
        <time>2026-09-02T12:27:31.000Z</time>
      </trkpt>
      <trkpt lat="48.13042" lon="6.8602">
        <ele>732.80004882812</ele>
        <time>2026-09-02T12:27:32.000Z</time>
      </trkpt>
      <trkpt lat="48.13043" lon="6.8602">
        <ele>732.80004882812</ele>
        <time>2026-09-02T12:27:33.000Z</time>
      </trkpt>
      <trkpt lat="48.13044" lon="6.8602">
        <ele>733</ele>
        <time>2026-09-02T12:27:34.000Z</time>
      </trkpt>
      <trkpt lat="48.13044" lon="6.86021">
        <ele>733</ele>
        <time>2026-09-02T12:27:35.000Z</time>
      </trkpt>
      <trkpt lat="48.13044" lon="6.86022">
        <ele>733.19995117188</ele>
        <time>2026-09-02T12:27:36.000Z</time>
      </trkpt>
      <trkpt lat="48.13045" lon="6.86022">
        <ele>733.19995117188</ele>
        <time>2026-09-02T12:27:37.000Z</time>
      </trkpt>
      <trkpt lat="48.13045" lon="6.86023">
        <ele>733.40002441406</ele>
        <time>2026-09-02T12:27:38.000Z</time>
      </trkpt>
      <trkpt lat="48.13046" lon="6.86024">
        <ele>733.59997558594</ele>
        <time>2026-09-02T12:27:39.000Z</time>
      </trkpt>
      <trkpt lat="48.13046" lon="6.86025">
        <ele>733.80004882812</ele>
        <time>2026-09-02T12:27:40.000Z</time>
      </trkpt>
      <trkpt lat="48.13046" lon="6.86025">
        <ele>733.80004882812</ele>
        <time>2026-09-02T12:27:41.000Z</time>
      </trkpt>
      <trkpt lat="48.13046" lon="6.86025">
        <ele>734</ele>
        <time>2026-09-02T12:27:42.000Z</time>
      </trkpt>
      <trkpt lat="48.13046" lon="6.86026">
        <ele>734.19995117188</ele>
        <time>2026-09-02T12:27:43.000Z</time>
      </trkpt>
      <trkpt lat="48.13046" lon="6.86026">
        <ele>734.19995117188</ele>
        <time>2026-09-02T12:27:44.000Z</time>
      </trkpt>
      <trkpt lat="48.13046" lon="6.86026">
        <ele>734.19995117188</ele>
        <time>2026-09-02T12:27:45.000Z</time>
      </trkpt>
      <trkpt lat="48.13046" lon="6.86026">
        <ele>734.19995117188</ele>
        <time>2026-09-02T12:27:46.000Z</time>
      </trkpt>
      <trkpt lat="48.13046" lon="6.86026">
        <ele>734.19995117188</ele>
        <time>2026-09-02T12:27:47.000Z</time>
      </trkpt>
      <trkpt lat="48.13046" lon="6.86026">
        <ele>734.19995117188</ele>
        <time>2026-09-02T12:27:48.000Z</time>
      </trkpt>
      <trkpt lat="48.13046" lon="6.86026">
        <ele>734</ele>
        <time>2026-09-02T12:27:49.000Z</time>
      </trkpt>
      <trkpt lat="48.13046" lon="6.86026">
        <ele>734</ele>
        <time>2026-09-02T12:27:50.000Z</time>
      </trkpt>
      <trkpt lat="48.13046" lon="6.86026">
        <ele>734</ele>
        <time>2026-09-02T12:27:51.000Z</time>
      </trkpt>
      <trkpt lat="48.13046" lon="6.86026">
        <ele>733.80004882812</ele>
        <time>2026-09-02T12:27:52.000Z</time>
      </trkpt>
      <trkpt lat="48.13046" lon="6.86026">
        <ele>733.59997558594</ele>
        <time>2026-09-02T12:27:53.000Z</time>
      </trkpt>
      <trkpt lat="48.13046" lon="6.86026">
        <ele>733.59997558594</ele>
        <time>2026-09-02T12:27:54.000Z</time>
      </trkpt>
      <trkpt lat="48.13046" lon="6.86026">
        <ele>733.59997558594</ele>
        <time>2026-09-02T12:27:55.000Z</time>
      </trkpt>
      <trkpt lat="48.13046" lon="6.86026">
        <ele>733.59997558594</ele>
        <time>2026-09-02T12:27:56.000Z</time>
      </trkpt>
      <trkpt lat="48.13046" lon="6.86026">
        <ele>733.59997558594</ele>
        <time>2026-09-02T12:27:57.000Z</time>
      </trkpt>
      <trkpt lat="48.13046" lon="6.86026">
        <ele>733.59997558594</ele>
        <time>2026-09-02T12:27:58.000Z</time>
      </trkpt>
      <trkpt lat="48.13046" lon="6.86026">
        <ele>733.80004882812</ele>
        <time>2026-09-02T12:27:59.000Z</time>
      </trkpt>
      <trkpt lat="48.13046" lon="6.86026">
        <ele>733.59997558594</ele>
        <time>2026-09-02T12:28:00.000Z</time>
      </trkpt>
      <trkpt lat="48.13046" lon="6.86026">
        <ele>733.59997558594</ele>
        <time>2026-09-02T12:28:01.000Z</time>
      </trkpt>
      <trkpt lat="48.13046" lon="6.86026">
        <ele>733.59997558594</ele>
        <time>2026-09-02T12:28:02.000Z</time>
      </trkpt>
      <trkpt lat="48.13046" lon="6.86026">
        <ele>733.59997558594</ele>
        <time>2026-09-02T12:28:03.000Z</time>
      </trkpt>
      <trkpt lat="48.13046" lon="6.86026">
        <ele>733.59997558594</ele>
        <time>2026-09-02T12:28:04.000Z</time>
      </trkpt>
      <trkpt lat="48.13046" lon="6.86026">
        <ele>733.59997558594</ele>
        <time>2026-09-02T12:28:05.000Z</time>
      </trkpt>
      <trkpt lat="48.13046" lon="6.86026">
        <ele>733.80004882812</ele>
        <time>2026-09-02T12:28:06.000Z</time>
      </trkpt>
      <trkpt lat="48.13046" lon="6.86026">
        <ele>733.80004882812</ele>
        <time>2026-09-02T12:28:07.000Z</time>
      </trkpt>
      <trkpt lat="48.13046" lon="6.86026">
        <ele>733.80004882812</ele>
        <time>2026-09-02T12:28:08.000Z</time>
      </trkpt>
      <trkpt lat="48.13046" lon="6.86026">
        <ele>733.80004882812</ele>
        <time>2026-09-02T12:28:09.000Z</time>
      </trkpt>
      <trkpt lat="48.13046" lon="6.86026">
        <ele>733.59997558594</ele>
        <time>2026-09-02T12:28:10.000Z</time>
      </trkpt>
      <trkpt lat="48.13046" lon="6.86026">
        <ele>733.59997558594</ele>
        <time>2026-09-02T12:28:11.000Z</time>
      </trkpt>
      <trkpt lat="48.13046" lon="6.86026">
        <ele>733.59997558594</ele>
        <time>2026-09-02T12:28:12.000Z</time>
      </trkpt>
      <trkpt lat="48.13046" lon="6.86026">
        <ele>733.59997558594</ele>
        <time>2026-09-02T12:28:13.000Z</time>
      </trkpt>
      <trkpt lat="48.13046" lon="6.86026">
        <ele>733.59997558594</ele>
        <time>2026-09-02T12:28:14.000Z</time>
      </trkpt>
      <trkpt lat="48.13046" lon="6.86026">
        <ele>733.59997558594</ele>
        <time>2026-09-02T12:28:15.000Z</time>
      </trkpt>
      <trkpt lat="48.13046" lon="6.86026">
        <ele>733.59997558594</ele>
        <time>2026-09-02T12:28:16.000Z</time>
      </trkpt>
      <trkpt lat="48.13046" lon="6.86026">
        <ele>733.59997558594</ele>
        <time>2026-09-02T12:28:17.000Z</time>
      </trkpt>
      <trkpt lat="48.13046" lon="6.86026">
        <ele>733.59997558594</ele>
        <time>2026-09-02T12:28:18.000Z</time>
      </trkpt>
      <trkpt lat="48.13046" lon="6.86026">
        <ele>733.59997558594</ele>
        <time>2026-09-02T12:28:19.000Z</time>
      </trkpt>
      <trkpt lat="48.13046" lon="6.86026">
        <ele>733.59997558594</ele>
        <time>2026-09-02T12:28:20.000Z</time>
      </trkpt>
      <trkpt lat="48.13046" lon="6.86026">
        <ele>733.59997558594</ele>
        <time>2026-09-02T12:28:21.000Z</time>
      </trkpt>
      <trkpt lat="48.13046" lon="6.86026">
        <ele>733.59997558594</ele>
        <time>2026-09-02T12:28:22.000Z</time>
      </trkpt>
      <trkpt lat="48.13046" lon="6.86026">
        <ele>733.59997558594</ele>
        <time>2026-09-02T12:28:23.000Z</time>
      </trkpt>
      <trkpt lat="48.13046" lon="6.86026">
        <ele>733.59997558594</ele>
        <time>2026-09-02T12:28:24.000Z</time>
      </trkpt>
      <trkpt lat="48.13046" lon="6.86026">
        <ele>733.59997558594</ele>
        <time>2026-09-02T12:28:25.000Z</time>
      </trkpt>
      <trkpt lat="48.13046" lon="6.86026">
        <ele>733.80004882812</ele>
        <time>2026-09-02T12:28:26.000Z</time>
      </trkpt>
      <trkpt lat="48.13046" lon="6.86026">
        <ele>733.80004882812</ele>
        <time>2026-09-02T12:28:27.000Z</time>
      </trkpt>
      <trkpt lat="48.13046" lon="6.86026">
        <ele>734</ele>
        <time>2026-09-02T12:28:28.000Z</time>
      </trkpt>
      <trkpt lat="48.13046" lon="6.86026">
        <ele>734.19995117188</ele>
        <time>2026-09-02T12:28:29.000Z</time>
      </trkpt>
      <trkpt lat="48.13046" lon="6.86026">
        <ele>734.40002441406</ele>
        <time>2026-09-02T12:28:30.000Z</time>
      </trkpt>
      <trkpt lat="48.13046" lon="6.86026">
        <ele>734.40002441406</ele>
        <time>2026-09-02T12:28:31.000Z</time>
      </trkpt>
      <trkpt lat="48.13046" lon="6.86026">
        <ele>734.40002441406</ele>
        <time>2026-09-02T12:28:32.000Z</time>
      </trkpt>
      <trkpt lat="48.13046" lon="6.86026">
        <ele>734.19995117188</ele>
        <time>2026-09-02T12:28:33.000Z</time>
      </trkpt>
      <trkpt lat="48.13046" lon="6.86026">
        <ele>734.19995117188</ele>
        <time>2026-09-02T12:28:34.000Z</time>
      </trkpt>
      <trkpt lat="48.13046" lon="6.86026">
        <ele>734.19995117188</ele>
        <time>2026-09-02T12:28:35.000Z</time>
      </trkpt>
      <trkpt lat="48.13046" lon="6.86026">
        <ele>734.19995117188</ele>
        <time>2026-09-02T12:28:36.000Z</time>
      </trkpt>
      <trkpt lat="48.13046" lon="6.86026">
        <ele>734.40002441406</ele>
        <time>2026-09-02T12:28:37.000Z</time>
      </trkpt>
      <trkpt lat="48.13046" lon="6.86026">
        <ele>734.40002441406</ele>
        <time>2026-09-02T12:28:38.000Z</time>
      </trkpt>
      <trkpt lat="48.13046" lon="6.86026">
        <ele>734.40002441406</ele>
        <time>2026-09-02T12:28:39.000Z</time>
      </trkpt>
      <trkpt lat="48.13046" lon="6.86026">
        <ele>734.40002441406</ele>
        <time>2026-09-02T12:28:40.000Z</time>
      </trkpt>
      <trkpt lat="48.13046" lon="6.86026">
        <ele>734.40002441406</ele>
        <time>2026-09-02T12:28:41.000Z</time>
      </trkpt>
      <trkpt lat="48.13046" lon="6.86026">
        <ele>734.40002441406</ele>
        <time>2026-09-02T12:28:42.000Z</time>
      </trkpt>
      <trkpt lat="48.13047" lon="6.86027">
        <ele>734.40002441406</ele>
        <time>2026-09-02T12:28:43.000Z</time>
      </trkpt>
      <trkpt lat="48.13047" lon="6.86027">
        <ele>734.40002441406</ele>
        <time>2026-09-02T12:28:44.000Z</time>
      </trkpt>
      <trkpt lat="48.13048" lon="6.86028">
        <ele>734.59997558594</ele>
        <time>2026-09-02T12:28:45.000Z</time>
      </trkpt>
      <trkpt lat="48.13048" lon="6.86028">
        <ele>734.80004882812</ele>
        <time>2026-09-02T12:28:46.000Z</time>
      </trkpt>
      <trkpt lat="48.13048" lon="6.86027">
        <ele>735</ele>
        <time>2026-09-02T12:28:47.000Z</time>
      </trkpt>
      <trkpt lat="48.13049" lon="6.86027">
        <ele>735.19995117188</ele>
        <time>2026-09-02T12:28:48.000Z</time>
      </trkpt>
      <trkpt lat="48.13049" lon="6.86026">
        <ele>735.19995117188</ele>
        <time>2026-09-02T12:28:49.000Z</time>
      </trkpt>
      <trkpt lat="48.13049" lon="6.86025">
        <ele>735.40002441406</ele>
        <time>2026-09-02T12:28:50.000Z</time>
      </trkpt>
      <trkpt lat="48.1305" lon="6.86025">
        <ele>735.40002441406</ele>
        <time>2026-09-02T12:28:51.000Z</time>
      </trkpt>
      <trkpt lat="48.1305" lon="6.86025">
        <ele>735.40002441406</ele>
        <time>2026-09-02T12:28:52.000Z</time>
      </trkpt>
      <trkpt lat="48.1305" lon="6.86025">
        <ele>735.59997558594</ele>
        <time>2026-09-02T12:28:53.000Z</time>
      </trkpt>
      <trkpt lat="48.1305" lon="6.86024">
        <ele>735.59997558594</ele>
        <time>2026-09-02T12:28:54.000Z</time>
      </trkpt>
      <trkpt lat="48.1305" lon="6.86022">
        <ele>735.59997558594</ele>
        <time>2026-09-02T12:28:55.000Z</time>
      </trkpt>
      <trkpt lat="48.1305" lon="6.86021">
        <ele>735.59997558594</ele>
        <time>2026-09-02T12:28:56.000Z</time>
      </trkpt>
      <trkpt lat="48.1305" lon="6.8602">
        <ele>735.59997558594</ele>
        <time>2026-09-02T12:28:57.000Z</time>
      </trkpt>
      <trkpt lat="48.13051" lon="6.86019">
        <ele>735.59997558594</ele>
        <time>2026-09-02T12:28:58.000Z</time>
      </trkpt>
      <trkpt lat="48.13051" lon="6.86017">
        <ele>735.59997558594</ele>
        <time>2026-09-02T12:28:59.000Z</time>
      </trkpt>
      <trkpt lat="48.13051" lon="6.86016">
        <ele>735.40002441406</ele>
        <time>2026-09-02T12:29:00.000Z</time>
      </trkpt>
      <trkpt lat="48.13051" lon="6.86015">
        <ele>735.19995117188</ele>
        <time>2026-09-02T12:29:01.000Z</time>
      </trkpt>
      <trkpt lat="48.13052" lon="6.86014">
        <ele>735</ele>
        <time>2026-09-02T12:29:02.000Z</time>
      </trkpt>
      <trkpt lat="48.13052" lon="6.86012">
        <ele>734.80004882812</ele>
        <time>2026-09-02T12:29:03.000Z</time>
      </trkpt>
      <trkpt lat="48.13052" lon="6.86011">
        <ele>734.80004882812</ele>
        <time>2026-09-02T12:29:04.000Z</time>
      </trkpt>
      <trkpt lat="48.13052" lon="6.8601">
        <ele>735</ele>
        <time>2026-09-02T12:29:05.000Z</time>
      </trkpt>
      <trkpt lat="48.13052" lon="6.86009">
        <ele>735.19995117188</ele>
        <time>2026-09-02T12:29:06.000Z</time>
      </trkpt>
      <trkpt lat="48.13052" lon="6.86008">
        <ele>735.59997558594</ele>
        <time>2026-09-02T12:29:07.000Z</time>
      </trkpt>
      <trkpt lat="48.13052" lon="6.86006">
        <ele>735.59997558594</ele>
        <time>2026-09-02T12:29:08.000Z</time>
      </trkpt>
      <trkpt lat="48.13052" lon="6.86005">
        <ele>735.80004882812</ele>
        <time>2026-09-02T12:29:09.000Z</time>
      </trkpt>
      <trkpt lat="48.13052" lon="6.86005">
        <ele>735.59997558594</ele>
        <time>2026-09-02T12:29:10.000Z</time>
      </trkpt>
      <trkpt lat="48.13052" lon="6.86003">
        <ele>735.59997558594</ele>
        <time>2026-09-02T12:29:11.000Z</time>
      </trkpt>
      <trkpt lat="48.13052" lon="6.86002">
        <ele>735.59997558594</ele>
        <time>2026-09-02T12:29:12.000Z</time>
      </trkpt>
      <trkpt lat="48.13052" lon="6.86001">
        <ele>735.40002441406</ele>
        <time>2026-09-02T12:29:13.000Z</time>
      </trkpt>
      <trkpt lat="48.13052" lon="6.85999">
        <ele>735.19995117188</ele>
        <time>2026-09-02T12:29:14.000Z</time>
      </trkpt>
      <trkpt lat="48.13052" lon="6.85997">
        <ele>735.19995117188</ele>
        <time>2026-09-02T12:29:15.000Z</time>
      </trkpt>
      <trkpt lat="48.13052" lon="6.85995">
        <ele>735.19995117188</ele>
        <time>2026-09-02T12:29:16.000Z</time>
      </trkpt>
      <trkpt lat="48.13052" lon="6.85994">
        <ele>735.19995117188</ele>
        <time>2026-09-02T12:29:17.000Z</time>
      </trkpt>
      <trkpt lat="48.13053" lon="6.85993">
        <ele>735.19995117188</ele>
        <time>2026-09-02T12:29:18.000Z</time>
      </trkpt>
      <trkpt lat="48.13053" lon="6.85992">
        <ele>735.19995117188</ele>
        <time>2026-09-02T12:29:19.000Z</time>
      </trkpt>
      <trkpt lat="48.13053" lon="6.85991">
        <ele>735.19995117188</ele>
        <time>2026-09-02T12:29:20.000Z</time>
      </trkpt>
      <trkpt lat="48.13053" lon="6.8599">
        <ele>735.40002441406</ele>
        <time>2026-09-02T12:29:21.000Z</time>
      </trkpt>
      <trkpt lat="48.13053" lon="6.85989">
        <ele>735.40002441406</ele>
        <time>2026-09-02T12:29:22.000Z</time>
      </trkpt>
      <trkpt lat="48.13053" lon="6.85988">
        <ele>735.40002441406</ele>
        <time>2026-09-02T12:29:23.000Z</time>
      </trkpt>
      <trkpt lat="48.13053" lon="6.85986">
        <ele>735.40002441406</ele>
        <time>2026-09-02T12:29:24.000Z</time>
      </trkpt>
      <trkpt lat="48.13054" lon="6.85985">
        <ele>735.40002441406</ele>
        <time>2026-09-02T12:29:25.000Z</time>
      </trkpt>
      <trkpt lat="48.13054" lon="6.85984">
        <ele>735.19995117188</ele>
        <time>2026-09-02T12:29:26.000Z</time>
      </trkpt>
      <trkpt lat="48.13054" lon="6.85983">
        <ele>735.19995117188</ele>
        <time>2026-09-02T12:29:27.000Z</time>
      </trkpt>
      <trkpt lat="48.13054" lon="6.85982">
        <ele>735.19995117188</ele>
        <time>2026-09-02T12:29:28.000Z</time>
      </trkpt>
      <trkpt lat="48.13054" lon="6.85981">
        <ele>735</ele>
        <time>2026-09-02T12:29:29.000Z</time>
      </trkpt>
      <trkpt lat="48.13054" lon="6.8598">
        <ele>735</ele>
        <time>2026-09-02T12:29:30.000Z</time>
      </trkpt>
      <trkpt lat="48.13055" lon="6.85979">
        <ele>735</ele>
        <time>2026-09-02T12:29:31.000Z</time>
      </trkpt>
      <trkpt lat="48.13055" lon="6.85978">
        <ele>735</ele>
        <time>2026-09-02T12:29:32.000Z</time>
      </trkpt>
      <trkpt lat="48.13055" lon="6.85977">
        <ele>735</ele>
        <time>2026-09-02T12:29:33.000Z</time>
      </trkpt>
      <trkpt lat="48.13055" lon="6.85975">
        <ele>735</ele>
        <time>2026-09-02T12:29:34.000Z</time>
      </trkpt>
      <trkpt lat="48.13055" lon="6.85974">
        <ele>735</ele>
        <time>2026-09-02T12:29:35.000Z</time>
      </trkpt>
      <trkpt lat="48.13055" lon="6.85973">
        <ele>735</ele>
        <time>2026-09-02T12:29:36.000Z</time>
      </trkpt>
      <trkpt lat="48.13056" lon="6.85972">
        <ele>735</ele>
        <time>2026-09-02T12:29:37.000Z</time>
      </trkpt>
      <trkpt lat="48.13056" lon="6.85971">
        <ele>734.80004882812</ele>
        <time>2026-09-02T12:29:38.000Z</time>
      </trkpt>
      <trkpt lat="48.13055" lon="6.8597">
        <ele>734.80004882812</ele>
        <time>2026-09-02T12:29:39.000Z</time>
      </trkpt>
      <trkpt lat="48.13055" lon="6.85969">
        <ele>734.80004882812</ele>
        <time>2026-09-02T12:29:40.000Z</time>
      </trkpt>
      <trkpt lat="48.13055" lon="6.85968">
        <ele>734.80004882812</ele>
        <time>2026-09-02T12:29:41.000Z</time>
      </trkpt>
      <trkpt lat="48.13055" lon="6.85967">
        <ele>734.80004882812</ele>
        <time>2026-09-02T12:29:42.000Z</time>
      </trkpt>
      <trkpt lat="48.13055" lon="6.85965">
        <ele>734.59997558594</ele>
        <time>2026-09-02T12:29:43.000Z</time>
      </trkpt>
      <trkpt lat="48.13055" lon="6.85964">
        <ele>734.59997558594</ele>
        <time>2026-09-02T12:29:44.000Z</time>
      </trkpt>
      <trkpt lat="48.13056" lon="6.85963">
        <ele>734.59997558594</ele>
        <time>2026-09-02T12:29:45.000Z</time>
      </trkpt>
      <trkpt lat="48.13056" lon="6.85962">
        <ele>734.59997558594</ele>
        <time>2026-09-02T12:29:46.000Z</time>
      </trkpt>
      <trkpt lat="48.13056" lon="6.8596">
        <ele>734.40002441406</ele>
        <time>2026-09-02T12:29:47.000Z</time>
      </trkpt>
      <trkpt lat="48.13056" lon="6.85959">
        <ele>734.40002441406</ele>
        <time>2026-09-02T12:29:48.000Z</time>
      </trkpt>
      <trkpt lat="48.13056" lon="6.85958">
        <ele>734.40002441406</ele>
        <time>2026-09-02T12:29:49.000Z</time>
      </trkpt>
      <trkpt lat="48.13057" lon="6.85957">
        <ele>734.40002441406</ele>
        <time>2026-09-02T12:29:50.000Z</time>
      </trkpt>
      <trkpt lat="48.13057" lon="6.85956">
        <ele>734.40002441406</ele>
        <time>2026-09-02T12:29:51.000Z</time>
      </trkpt>
      <trkpt lat="48.13057" lon="6.85955">
        <ele>734.40002441406</ele>
        <time>2026-09-02T12:29:52.000Z</time>
      </trkpt>
      <trkpt lat="48.13057" lon="6.85954">
        <ele>734.40002441406</ele>
        <time>2026-09-02T12:29:53.000Z</time>
      </trkpt>
      <trkpt lat="48.13058" lon="6.85952">
        <ele>734.19995117188</ele>
        <time>2026-09-02T12:29:54.000Z</time>
      </trkpt>
      <trkpt lat="48.13058" lon="6.85951">
        <ele>734.19995117188</ele>
        <time>2026-09-02T12:29:55.000Z</time>
      </trkpt>
      <trkpt lat="48.13059" lon="6.8595">
        <ele>734.19995117188</ele>
        <time>2026-09-02T12:29:56.000Z</time>
      </trkpt>
      <trkpt lat="48.13059" lon="6.85949">
        <ele>734.19995117188</ele>
        <time>2026-09-02T12:29:57.000Z</time>
      </trkpt>
      <trkpt lat="48.13059" lon="6.85947">
        <ele>734.19995117188</ele>
        <time>2026-09-02T12:29:58.000Z</time>
      </trkpt>
      <trkpt lat="48.13059" lon="6.85946">
        <ele>734.19995117188</ele>
        <time>2026-09-02T12:29:59.000Z</time>
      </trkpt>
      <trkpt lat="48.13059" lon="6.85945">
        <ele>734.40002441406</ele>
        <time>2026-09-02T12:30:00.000Z</time>
      </trkpt>
      <trkpt lat="48.13059" lon="6.85943">
        <ele>734.40002441406</ele>
        <time>2026-09-02T12:30:01.000Z</time>
      </trkpt>
      <trkpt lat="48.13059" lon="6.85942">
        <ele>734.40002441406</ele>
        <time>2026-09-02T12:30:02.000Z</time>
      </trkpt>
      <trkpt lat="48.13059" lon="6.85941">
        <ele>734.40002441406</ele>
        <time>2026-09-02T12:30:03.000Z</time>
      </trkpt>
      <trkpt lat="48.13059" lon="6.85939">
        <ele>734.40002441406</ele>
        <time>2026-09-02T12:30:04.000Z</time>
      </trkpt>
      <trkpt lat="48.1306" lon="6.85938">
        <ele>734.40002441406</ele>
        <time>2026-09-02T12:30:05.000Z</time>
      </trkpt>
      <trkpt lat="48.1306" lon="6.85937">
        <ele>734.40002441406</ele>
        <time>2026-09-02T12:30:06.000Z</time>
      </trkpt>
      <trkpt lat="48.1306" lon="6.85935">
        <ele>734.40002441406</ele>
        <time>2026-09-02T12:30:07.000Z</time>
      </trkpt>
      <trkpt lat="48.1306" lon="6.85935">
        <ele>734.19995117188</ele>
        <time>2026-09-02T12:30:08.000Z</time>
      </trkpt>
      <trkpt lat="48.13061" lon="6.85934">
        <ele>734.19995117188</ele>
        <time>2026-09-02T12:30:09.000Z</time>
      </trkpt>
      <trkpt lat="48.13061" lon="6.85932">
        <ele>734.19995117188</ele>
        <time>2026-09-02T12:30:10.000Z</time>
      </trkpt>
      <trkpt lat="48.13061" lon="6.8593">
        <ele>734</ele>
        <time>2026-09-02T12:30:11.000Z</time>
      </trkpt>
      <trkpt lat="48.13062" lon="6.85929">
        <ele>734</ele>
        <time>2026-09-02T12:30:12.000Z</time>
      </trkpt>
      <trkpt lat="48.13062" lon="6.85927">
        <ele>734</ele>
        <time>2026-09-02T12:30:13.000Z</time>
      </trkpt>
      <trkpt lat="48.13061" lon="6.85926">
        <ele>734</ele>
        <time>2026-09-02T12:30:14.000Z</time>
      </trkpt>
      <trkpt lat="48.13062" lon="6.85925">
        <ele>734</ele>
        <time>2026-09-02T12:30:15.000Z</time>
      </trkpt>
      <trkpt lat="48.13062" lon="6.85924">
        <ele>734</ele>
        <time>2026-09-02T12:30:16.000Z</time>
      </trkpt>
      <trkpt lat="48.13062" lon="6.85923">
        <ele>734</ele>
        <time>2026-09-02T12:30:17.000Z</time>
      </trkpt>
      <trkpt lat="48.13062" lon="6.85922">
        <ele>734</ele>
        <time>2026-09-02T12:30:18.000Z</time>
      </trkpt>
      <trkpt lat="48.13063" lon="6.85921">
        <ele>734</ele>
        <time>2026-09-02T12:30:19.000Z</time>
      </trkpt>
      <trkpt lat="48.13064" lon="6.8592">
        <ele>734</ele>
        <time>2026-09-02T12:30:20.000Z</time>
      </trkpt>
      <trkpt lat="48.13064" lon="6.85919">
        <ele>734.19995117188</ele>
        <time>2026-09-02T12:30:21.000Z</time>
      </trkpt>
      <trkpt lat="48.13064" lon="6.85919">
        <ele>734.19995117188</ele>
        <time>2026-09-02T12:30:22.000Z</time>
      </trkpt>
      <trkpt lat="48.13064" lon="6.85917">
        <ele>734.19995117188</ele>
        <time>2026-09-02T12:30:23.000Z</time>
      </trkpt>
      <trkpt lat="48.13064" lon="6.85916">
        <ele>734.19995117188</ele>
        <time>2026-09-02T12:30:24.000Z</time>
      </trkpt>
      <trkpt lat="48.13064" lon="6.85914">
        <ele>734.19995117188</ele>
        <time>2026-09-02T12:30:25.000Z</time>
      </trkpt>
      <trkpt lat="48.13064" lon="6.85913">
        <ele>734.19995117188</ele>
        <time>2026-09-02T12:30:26.000Z</time>
      </trkpt>
      <trkpt lat="48.13065" lon="6.85912">
        <ele>734.19995117188</ele>
        <time>2026-09-02T12:30:27.000Z</time>
      </trkpt>
      <trkpt lat="48.13065" lon="6.85911">
        <ele>734.19995117188</ele>
        <time>2026-09-02T12:30:28.000Z</time>
      </trkpt>
      <trkpt lat="48.13065" lon="6.8591">
        <ele>734.19995117188</ele>
        <time>2026-09-02T12:30:29.000Z</time>
      </trkpt>
      <trkpt lat="48.13065" lon="6.85909">
        <ele>734</ele>
        <time>2026-09-02T12:30:30.000Z</time>
      </trkpt>
      <trkpt lat="48.13065" lon="6.85908">
        <ele>734</ele>
        <time>2026-09-02T12:30:31.000Z</time>
      </trkpt>
      <trkpt lat="48.13065" lon="6.85907">
        <ele>733.80004882812</ele>
        <time>2026-09-02T12:30:32.000Z</time>
      </trkpt>
      <trkpt lat="48.13065" lon="6.85905">
        <ele>733.80004882812</ele>
        <time>2026-09-02T12:30:33.000Z</time>
      </trkpt>
      <trkpt lat="48.13066" lon="6.85904">
        <ele>733.80004882812</ele>
        <time>2026-09-02T12:30:34.000Z</time>
      </trkpt>
      <trkpt lat="48.13066" lon="6.85903">
        <ele>733.80004882812</ele>
        <time>2026-09-02T12:30:35.000Z</time>
      </trkpt>
      <trkpt lat="48.13067" lon="6.85901">
        <ele>733.80004882812</ele>
        <time>2026-09-02T12:30:36.000Z</time>
      </trkpt>
      <trkpt lat="48.13067" lon="6.859">
        <ele>733.80004882812</ele>
        <time>2026-09-02T12:30:37.000Z</time>
      </trkpt>
      <trkpt lat="48.13067" lon="6.85898">
        <ele>733.59997558594</ele>
        <time>2026-09-02T12:30:38.000Z</time>
      </trkpt>
      <trkpt lat="48.13068" lon="6.85897">
        <ele>733.59997558594</ele>
        <time>2026-09-02T12:30:39.000Z</time>
      </trkpt>
      <trkpt lat="48.13068" lon="6.85896">
        <ele>733.59997558594</ele>
        <time>2026-09-02T12:30:40.000Z</time>
      </trkpt>
      <trkpt lat="48.13068" lon="6.85894">
        <ele>733.59997558594</ele>
        <time>2026-09-02T12:30:41.000Z</time>
      </trkpt>
      <trkpt lat="48.13068" lon="6.85893">
        <ele>733.40002441406</ele>
        <time>2026-09-02T12:30:42.000Z</time>
      </trkpt>
      <trkpt lat="48.13069" lon="6.85892">
        <ele>733.40002441406</ele>
        <time>2026-09-02T12:30:43.000Z</time>
      </trkpt>
      <trkpt lat="48.13069" lon="6.85891">
        <ele>733.40002441406</ele>
        <time>2026-09-02T12:30:44.000Z</time>
      </trkpt>
      <trkpt lat="48.13069" lon="6.8589">
        <ele>733.19995117188</ele>
        <time>2026-09-02T12:30:45.000Z</time>
      </trkpt>
      <trkpt lat="48.1307" lon="6.85889">
        <ele>733.19995117188</ele>
        <time>2026-09-02T12:30:46.000Z</time>
      </trkpt>
      <trkpt lat="48.1307" lon="6.85887">
        <ele>733.19995117188</ele>
        <time>2026-09-02T12:30:47.000Z</time>
      </trkpt>
      <trkpt lat="48.1307" lon="6.85886">
        <ele>733</ele>
        <time>2026-09-02T12:30:48.000Z</time>
      </trkpt>
      <trkpt lat="48.1307" lon="6.85884">
        <ele>733</ele>
        <time>2026-09-02T12:30:49.000Z</time>
      </trkpt>
      <trkpt lat="48.13071" lon="6.85883">
        <ele>732.80004882812</ele>
        <time>2026-09-02T12:30:50.000Z</time>
      </trkpt>
      <trkpt lat="48.13071" lon="6.85882">
        <ele>732.80004882812</ele>
        <time>2026-09-02T12:30:51.000Z</time>
      </trkpt>
      <trkpt lat="48.13071" lon="6.8588">
        <ele>732.80004882812</ele>
        <time>2026-09-02T12:30:52.000Z</time>
      </trkpt>
      <trkpt lat="48.13071" lon="6.85879">
        <ele>732.80004882812</ele>
        <time>2026-09-02T12:30:53.000Z</time>
      </trkpt>
      <trkpt lat="48.13072" lon="6.85878">
        <ele>732.59997558594</ele>
        <time>2026-09-02T12:30:54.000Z</time>
      </trkpt>
      <trkpt lat="48.13072" lon="6.85877">
        <ele>732.59997558594</ele>
        <time>2026-09-02T12:30:55.000Z</time>
      </trkpt>
      <trkpt lat="48.13073" lon="6.85875">
        <ele>732.59997558594</ele>
        <time>2026-09-02T12:30:56.000Z</time>
      </trkpt>
      <trkpt lat="48.13073" lon="6.85874">
        <ele>732.40002441406</ele>
        <time>2026-09-02T12:30:57.000Z</time>
      </trkpt>
      <trkpt lat="48.13073" lon="6.85873">
        <ele>732.40002441406</ele>
        <time>2026-09-02T12:30:58.000Z</time>
      </trkpt>
      <trkpt lat="48.13073" lon="6.85872">
        <ele>732.19995117188</ele>
        <time>2026-09-02T12:30:59.000Z</time>
      </trkpt>
      <trkpt lat="48.13073" lon="6.85872">
        <ele>732.19995117188</ele>
        <time>2026-09-02T12:31:00.000Z</time>
      </trkpt>
      <trkpt lat="48.13073" lon="6.8587">
        <ele>732</ele>
        <time>2026-09-02T12:31:01.000Z</time>
      </trkpt>
      <trkpt lat="48.13074" lon="6.85869">
        <ele>731.80004882812</ele>
        <time>2026-09-02T12:31:02.000Z</time>
      </trkpt>
      <trkpt lat="48.13074" lon="6.85868">
        <ele>731.80004882812</ele>
        <time>2026-09-02T12:31:03.000Z</time>
      </trkpt>
      <trkpt lat="48.13074" lon="6.85867">
        <ele>731.59997558594</ele>
        <time>2026-09-02T12:31:04.000Z</time>
      </trkpt>
      <trkpt lat="48.13075" lon="6.85865">
        <ele>731.40002441406</ele>
        <time>2026-09-02T12:31:05.000Z</time>
      </trkpt>
      <trkpt lat="48.13075" lon="6.85863">
        <ele>731.40002441406</ele>
        <time>2026-09-02T12:31:06.000Z</time>
      </trkpt>
      <trkpt lat="48.13075" lon="6.85862">
        <ele>731.40002441406</ele>
        <time>2026-09-02T12:31:07.000Z</time>
      </trkpt>
      <trkpt lat="48.13076" lon="6.85861">
        <ele>731.40002441406</ele>
        <time>2026-09-02T12:31:08.000Z</time>
      </trkpt>
      <trkpt lat="48.13076" lon="6.8586">
        <ele>731.40002441406</ele>
        <time>2026-09-02T12:31:09.000Z</time>
      </trkpt>
      <trkpt lat="48.13076" lon="6.85859">
        <ele>731.19995117188</ele>
        <time>2026-09-02T12:31:10.000Z</time>
      </trkpt>
      <trkpt lat="48.13076" lon="6.85858">
        <ele>731.19995117188</ele>
        <time>2026-09-02T12:31:11.000Z</time>
      </trkpt>
      <trkpt lat="48.13077" lon="6.85856">
        <ele>731.19995117188</ele>
        <time>2026-09-02T12:31:12.000Z</time>
      </trkpt>
      <trkpt lat="48.13077" lon="6.85856">
        <ele>731</ele>
        <time>2026-09-02T12:31:13.000Z</time>
      </trkpt>
      <trkpt lat="48.13078" lon="6.85854">
        <ele>731</ele>
        <time>2026-09-02T12:31:14.000Z</time>
      </trkpt>
      <trkpt lat="48.13078" lon="6.85853">
        <ele>731</ele>
        <time>2026-09-02T12:31:15.000Z</time>
      </trkpt>
      <trkpt lat="48.13078" lon="6.85851">
        <ele>731</ele>
        <time>2026-09-02T12:31:16.000Z</time>
      </trkpt>
      <trkpt lat="48.13079" lon="6.85851">
        <ele>731</ele>
        <time>2026-09-02T12:31:17.000Z</time>
      </trkpt>
      <trkpt lat="48.13079" lon="6.85849">
        <ele>731</ele>
        <time>2026-09-02T12:31:18.000Z</time>
      </trkpt>
      <trkpt lat="48.13079" lon="6.85848">
        <ele>731</ele>
        <time>2026-09-02T12:31:19.000Z</time>
      </trkpt>
      <trkpt lat="48.13079" lon="6.85847">
        <ele>731</ele>
        <time>2026-09-02T12:31:20.000Z</time>
      </trkpt>
      <trkpt lat="48.13079" lon="6.85846">
        <ele>731</ele>
        <time>2026-09-02T12:31:21.000Z</time>
      </trkpt>
      <trkpt lat="48.13079" lon="6.85844">
        <ele>731</ele>
        <time>2026-09-02T12:31:22.000Z</time>
      </trkpt>
      <trkpt lat="48.13079" lon="6.85843">
        <ele>731</ele>
        <time>2026-09-02T12:31:23.000Z</time>
      </trkpt>
      <trkpt lat="48.13079" lon="6.85841">
        <ele>731</ele>
        <time>2026-09-02T12:31:24.000Z</time>
      </trkpt>
      <trkpt lat="48.13079" lon="6.8584">
        <ele>730.80004882812</ele>
        <time>2026-09-02T12:31:25.000Z</time>
      </trkpt>
      <trkpt lat="48.13079" lon="6.85839">
        <ele>730.80004882812</ele>
        <time>2026-09-02T12:31:26.000Z</time>
      </trkpt>
      <trkpt lat="48.13079" lon="6.85837">
        <ele>730.59997558594</ele>
        <time>2026-09-02T12:31:27.000Z</time>
      </trkpt>
      <trkpt lat="48.13079" lon="6.85836">
        <ele>730.59997558594</ele>
        <time>2026-09-02T12:31:28.000Z</time>
      </trkpt>
      <trkpt lat="48.1308" lon="6.85835">
        <ele>730.40002441406</ele>
        <time>2026-09-02T12:31:29.000Z</time>
      </trkpt>
      <trkpt lat="48.1308" lon="6.85834">
        <ele>730.40002441406</ele>
        <time>2026-09-02T12:31:30.000Z</time>
      </trkpt>
      <trkpt lat="48.1308" lon="6.85832">
        <ele>730.40002441406</ele>
        <time>2026-09-02T12:31:31.000Z</time>
      </trkpt>
      <trkpt lat="48.1308" lon="6.85832">
        <ele>730.40002441406</ele>
        <time>2026-09-02T12:31:32.000Z</time>
      </trkpt>
      <trkpt lat="48.13081" lon="6.85831">
        <ele>730.40002441406</ele>
        <time>2026-09-02T12:31:33.000Z</time>
      </trkpt>
      <trkpt lat="48.13081" lon="6.8583">
        <ele>730.40002441406</ele>
        <time>2026-09-02T12:31:34.000Z</time>
      </trkpt>
      <trkpt lat="48.13081" lon="6.85829">
        <ele>730.40002441406</ele>
        <time>2026-09-02T12:31:35.000Z</time>
      </trkpt>
      <trkpt lat="48.13081" lon="6.85828">
        <ele>730.19995117188</ele>
        <time>2026-09-02T12:31:36.000Z</time>
      </trkpt>
      <trkpt lat="48.13081" lon="6.85827">
        <ele>730.19995117188</ele>
        <time>2026-09-02T12:31:37.000Z</time>
      </trkpt>
      <trkpt lat="48.13081" lon="6.85827">
        <ele>730.19995117188</ele>
        <time>2026-09-02T12:31:38.000Z</time>
      </trkpt>
      <trkpt lat="48.13082" lon="6.85826">
        <ele>730.19995117188</ele>
        <time>2026-09-02T12:31:39.000Z</time>
      </trkpt>
      <trkpt lat="48.13082" lon="6.85825">
        <ele>730.19995117188</ele>
        <time>2026-09-02T12:31:40.000Z</time>
      </trkpt>
      <trkpt lat="48.13083" lon="6.85824">
        <ele>730.19995117188</ele>
        <time>2026-09-02T12:31:41.000Z</time>
      </trkpt>
      <trkpt lat="48.13083" lon="6.85824">
        <ele>730.19995117188</ele>
        <time>2026-09-02T12:31:42.000Z</time>
      </trkpt>
      <trkpt lat="48.13083" lon="6.85823">
        <ele>730</ele>
        <time>2026-09-02T12:31:43.000Z</time>
      </trkpt>
      <trkpt lat="48.13083" lon="6.85823">
        <ele>730</ele>
        <time>2026-09-02T12:31:44.000Z</time>
      </trkpt>
      <trkpt lat="48.13083" lon="6.85822">
        <ele>729.80004882812</ele>
        <time>2026-09-02T12:31:45.000Z</time>
      </trkpt>
      <trkpt lat="48.13083" lon="6.85821">
        <ele>729.59997558594</ele>
        <time>2026-09-02T12:31:46.000Z</time>
      </trkpt>
      <trkpt lat="48.13082" lon="6.8582">
        <ele>729.59997558594</ele>
        <time>2026-09-02T12:31:47.000Z</time>
      </trkpt>
      <trkpt lat="48.13082" lon="6.85819">
        <ele>729.59997558594</ele>
        <time>2026-09-02T12:31:48.000Z</time>
      </trkpt>
      <trkpt lat="48.13082" lon="6.85819">
        <ele>729.59997558594</ele>
        <time>2026-09-02T12:31:49.000Z</time>
      </trkpt>
      <trkpt lat="48.13082" lon="6.85817">
        <ele>729.59997558594</ele>
        <time>2026-09-02T12:31:50.000Z</time>
      </trkpt>
      <trkpt lat="48.13082" lon="6.85817">
        <ele>729.40002441406</ele>
        <time>2026-09-02T12:31:51.000Z</time>
      </trkpt>
      <trkpt lat="48.13082" lon="6.85816">
        <ele>729.40002441406</ele>
        <time>2026-09-02T12:31:52.000Z</time>
      </trkpt>
      <trkpt lat="48.13082" lon="6.85815">
        <ele>729.19995117188</ele>
        <time>2026-09-02T12:31:53.000Z</time>
      </trkpt>
      <trkpt lat="48.13082" lon="6.85814">
        <ele>729</ele>
        <time>2026-09-02T12:31:54.000Z</time>
      </trkpt>
      <trkpt lat="48.13082" lon="6.85814">
        <ele>729</ele>
        <time>2026-09-02T12:31:55.000Z</time>
      </trkpt>
      <trkpt lat="48.13082" lon="6.85812">
        <ele>729</ele>
        <time>2026-09-02T12:31:56.000Z</time>
      </trkpt>
      <trkpt lat="48.13081" lon="6.85811">
        <ele>729</ele>
        <time>2026-09-02T12:31:57.000Z</time>
      </trkpt>
      <trkpt lat="48.13081" lon="6.85811">
        <ele>728.80004882812</ele>
        <time>2026-09-02T12:31:58.000Z</time>
      </trkpt>
      <trkpt lat="48.13081" lon="6.8581">
        <ele>728.80004882812</ele>
        <time>2026-09-02T12:31:59.000Z</time>
      </trkpt>
      <trkpt lat="48.13081" lon="6.85809">
        <ele>728.80004882812</ele>
        <time>2026-09-02T12:32:00.000Z</time>
      </trkpt>
      <trkpt lat="48.13081" lon="6.85809">
        <ele>728.80004882812</ele>
        <time>2026-09-02T12:32:01.000Z</time>
      </trkpt>
      <trkpt lat="48.13081" lon="6.85809">
        <ele>728.59997558594</ele>
        <time>2026-09-02T12:32:02.000Z</time>
      </trkpt>
      <trkpt lat="48.13081" lon="6.85809">
        <ele>728.59997558594</ele>
        <time>2026-09-02T12:32:03.000Z</time>
      </trkpt>
      <trkpt lat="48.13081" lon="6.85809">
        <ele>728.80004882812</ele>
        <time>2026-09-02T12:32:04.000Z</time>
      </trkpt>
      <trkpt lat="48.13081" lon="6.85809">
        <ele>728.80004882812</ele>
        <time>2026-09-02T12:32:05.000Z</time>
      </trkpt>
      <trkpt lat="48.13081" lon="6.85808">
        <ele>728.80004882812</ele>
        <time>2026-09-02T12:32:06.000Z</time>
      </trkpt>
      <trkpt lat="48.13081" lon="6.85806">
        <ele>728.80004882812</ele>
        <time>2026-09-02T12:32:07.000Z</time>
      </trkpt>
      <trkpt lat="48.13081" lon="6.85805">
        <ele>728.80004882812</ele>
        <time>2026-09-02T12:32:08.000Z</time>
      </trkpt>
      <trkpt lat="48.1308" lon="6.85803">
        <ele>728.59997558594</ele>
        <time>2026-09-02T12:32:09.000Z</time>
      </trkpt>
      <trkpt lat="48.1308" lon="6.85802">
        <ele>728.59997558594</ele>
        <time>2026-09-02T12:32:10.000Z</time>
      </trkpt>
      <trkpt lat="48.1308" lon="6.858">
        <ele>728.59997558594</ele>
        <time>2026-09-02T12:32:11.000Z</time>
      </trkpt>
      <trkpt lat="48.13081" lon="6.85799">
        <ele>728.59997558594</ele>
        <time>2026-09-02T12:32:12.000Z</time>
      </trkpt>
      <trkpt lat="48.13081" lon="6.85797">
        <ele>728.40002441406</ele>
        <time>2026-09-02T12:32:13.000Z</time>
      </trkpt>
      <trkpt lat="48.13081" lon="6.85796">
        <ele>728.40002441406</ele>
        <time>2026-09-02T12:32:14.000Z</time>
      </trkpt>
      <trkpt lat="48.1308" lon="6.85795">
        <ele>728.40002441406</ele>
        <time>2026-09-02T12:32:15.000Z</time>
      </trkpt>
      <trkpt lat="48.13081" lon="6.85793">
        <ele>728.40002441406</ele>
        <time>2026-09-02T12:32:16.000Z</time>
      </trkpt>
      <trkpt lat="48.13081" lon="6.85792">
        <ele>728.19995117188</ele>
        <time>2026-09-02T12:32:17.000Z</time>
      </trkpt>
      <trkpt lat="48.13081" lon="6.85792">
        <ele>728.40002441406</ele>
        <time>2026-09-02T12:32:18.000Z</time>
      </trkpt>
      <trkpt lat="48.13081" lon="6.85793">
        <ele>728.40002441406</ele>
        <time>2026-09-02T12:32:19.000Z</time>
      </trkpt>
      <trkpt lat="48.13081" lon="6.85792">
        <ele>728.40002441406</ele>
        <time>2026-09-02T12:32:20.000Z</time>
      </trkpt>
      <trkpt lat="48.13081" lon="6.85792">
        <ele>728.40002441406</ele>
        <time>2026-09-02T12:32:21.000Z</time>
      </trkpt>
      <trkpt lat="48.13081" lon="6.85792">
        <ele>728.40002441406</ele>
        <time>2026-09-02T12:32:22.000Z</time>
      </trkpt>
      <trkpt lat="48.13081" lon="6.85792">
        <ele>728.19995117188</ele>
        <time>2026-09-02T12:32:23.000Z</time>
      </trkpt>
      <trkpt lat="48.13081" lon="6.85792">
        <ele>728.19995117188</ele>
        <time>2026-09-02T12:32:24.000Z</time>
      </trkpt>
      <trkpt lat="48.13081" lon="6.85792">
        <ele>728.19995117188</ele>
        <time>2026-09-02T12:32:25.000Z</time>
      </trkpt>
      <trkpt lat="48.13081" lon="6.85791">
        <ele>728.19995117188</ele>
        <time>2026-09-02T12:32:26.000Z</time>
      </trkpt>
      <trkpt lat="48.13082" lon="6.85789">
        <ele>728.19995117188</ele>
        <time>2026-09-02T12:32:27.000Z</time>
      </trkpt>
      <trkpt lat="48.13082" lon="6.85788">
        <ele>728.19995117188</ele>
        <time>2026-09-02T12:32:28.000Z</time>
      </trkpt>
      <trkpt lat="48.13082" lon="6.85787">
        <ele>728.19995117188</ele>
        <time>2026-09-02T12:32:29.000Z</time>
      </trkpt>
      <trkpt lat="48.13082" lon="6.85786">
        <ele>728</ele>
        <time>2026-09-02T12:32:30.000Z</time>
      </trkpt>
      <trkpt lat="48.13082" lon="6.85785">
        <ele>728</ele>
        <time>2026-09-02T12:32:31.000Z</time>
      </trkpt>
      <trkpt lat="48.13082" lon="6.85784">
        <ele>728</ele>
        <time>2026-09-02T12:32:32.000Z</time>
      </trkpt>
      <trkpt lat="48.13082" lon="6.85783">
        <ele>728</ele>
        <time>2026-09-02T12:32:33.000Z</time>
      </trkpt>
      <trkpt lat="48.13083" lon="6.85781">
        <ele>728</ele>
        <time>2026-09-02T12:32:34.000Z</time>
      </trkpt>
      <trkpt lat="48.13083" lon="6.8578">
        <ele>727.80004882812</ele>
        <time>2026-09-02T12:32:35.000Z</time>
      </trkpt>
      <trkpt lat="48.13083" lon="6.85779">
        <ele>727.80004882812</ele>
        <time>2026-09-02T12:32:36.000Z</time>
      </trkpt>
      <trkpt lat="48.13083" lon="6.85778">
        <ele>728</ele>
        <time>2026-09-02T12:32:37.000Z</time>
      </trkpt>
      <trkpt lat="48.13084" lon="6.85777">
        <ele>728</ele>
        <time>2026-09-02T12:32:38.000Z</time>
      </trkpt>
      <trkpt lat="48.13084" lon="6.85776">
        <ele>728</ele>
        <time>2026-09-02T12:32:39.000Z</time>
      </trkpt>
      <trkpt lat="48.13084" lon="6.85774">
        <ele>728</ele>
        <time>2026-09-02T12:32:40.000Z</time>
      </trkpt>
      <trkpt lat="48.13085" lon="6.85772">
        <ele>728</ele>
        <time>2026-09-02T12:32:41.000Z</time>
      </trkpt>
      <trkpt lat="48.13085" lon="6.8577">
        <ele>728.19995117188</ele>
        <time>2026-09-02T12:32:42.000Z</time>
      </trkpt>
      <trkpt lat="48.13085" lon="6.85769">
        <ele>728.19995117188</ele>
        <time>2026-09-02T12:32:43.000Z</time>
      </trkpt>
      <trkpt lat="48.13085" lon="6.85768">
        <ele>728</ele>
        <time>2026-09-02T12:32:44.000Z</time>
      </trkpt>
      <trkpt lat="48.13085" lon="6.85767">
        <ele>728</ele>
        <time>2026-09-02T12:32:45.000Z</time>
      </trkpt>
      <trkpt lat="48.13086" lon="6.85765">
        <ele>727.80004882812</ele>
        <time>2026-09-02T12:32:46.000Z</time>
      </trkpt>
      <trkpt lat="48.13086" lon="6.85764">
        <ele>727.59997558594</ele>
        <time>2026-09-02T12:32:47.000Z</time>
      </trkpt>
      <trkpt lat="48.13087" lon="6.85762">
        <ele>727.59997558594</ele>
        <time>2026-09-02T12:32:48.000Z</time>
      </trkpt>
      <trkpt lat="48.13087" lon="6.8576">
        <ele>727.59997558594</ele>
        <time>2026-09-02T12:32:49.000Z</time>
      </trkpt>
      <trkpt lat="48.13087" lon="6.85759">
        <ele>727.59997558594</ele>
        <time>2026-09-02T12:32:50.000Z</time>
      </trkpt>
      <trkpt lat="48.13088" lon="6.85758">
        <ele>727.59997558594</ele>
        <time>2026-09-02T12:32:51.000Z</time>
      </trkpt>
      <trkpt lat="48.13088" lon="6.85758">
        <ele>727.59997558594</ele>
        <time>2026-09-02T12:32:52.000Z</time>
      </trkpt>
      <trkpt lat="48.13088" lon="6.85756">
        <ele>727.59997558594</ele>
        <time>2026-09-02T12:32:53.000Z</time>
      </trkpt>
      <trkpt lat="48.13089" lon="6.85755">
        <ele>727.80004882812</ele>
        <time>2026-09-02T12:32:54.000Z</time>
      </trkpt>
      <trkpt lat="48.13089" lon="6.85754">
        <ele>727.80004882812</ele>
        <time>2026-09-02T12:32:55.000Z</time>
      </trkpt>
      <trkpt lat="48.13089" lon="6.85753">
        <ele>727.80004882812</ele>
        <time>2026-09-02T12:32:56.000Z</time>
      </trkpt>
      <trkpt lat="48.13089" lon="6.85753">
        <ele>727.80004882812</ele>
        <time>2026-09-02T12:32:57.000Z</time>
      </trkpt>
      <trkpt lat="48.13089" lon="6.85752">
        <ele>727.80004882812</ele>
        <time>2026-09-02T12:32:58.000Z</time>
      </trkpt>
      <trkpt lat="48.1309" lon="6.85751">
        <ele>727.59997558594</ele>
        <time>2026-09-02T12:32:59.000Z</time>
      </trkpt>
      <trkpt lat="48.1309" lon="6.85749">
        <ele>727.59997558594</ele>
        <time>2026-09-02T12:33:00.000Z</time>
      </trkpt>
      <trkpt lat="48.13091" lon="6.85748">
        <ele>727.80004882812</ele>
        <time>2026-09-02T12:33:01.000Z</time>
      </trkpt>
      <trkpt lat="48.13091" lon="6.85747">
        <ele>727.80004882812</ele>
        <time>2026-09-02T12:33:02.000Z</time>
      </trkpt>
      <trkpt lat="48.13091" lon="6.85746">
        <ele>727.80004882812</ele>
        <time>2026-09-02T12:33:03.000Z</time>
      </trkpt>
      <trkpt lat="48.13091" lon="6.85745">
        <ele>727.80004882812</ele>
        <time>2026-09-02T12:33:04.000Z</time>
      </trkpt>
      <trkpt lat="48.13092" lon="6.85745">
        <ele>727.80004882812</ele>
        <time>2026-09-02T12:33:05.000Z</time>
      </trkpt>
      <trkpt lat="48.13092" lon="6.85744">
        <ele>727.80004882812</ele>
        <time>2026-09-02T12:33:06.000Z</time>
      </trkpt>
      <trkpt lat="48.13092" lon="6.85742">
        <ele>727.59997558594</ele>
        <time>2026-09-02T12:33:07.000Z</time>
      </trkpt>
      <trkpt lat="48.13092" lon="6.85741">
        <ele>727.59997558594</ele>
        <time>2026-09-02T12:33:08.000Z</time>
      </trkpt>
      <trkpt lat="48.13092" lon="6.8574">
        <ele>727.59997558594</ele>
        <time>2026-09-02T12:33:09.000Z</time>
      </trkpt>
      <trkpt lat="48.13092" lon="6.85739">
        <ele>727.59997558594</ele>
        <time>2026-09-02T12:33:10.000Z</time>
      </trkpt>
      <trkpt lat="48.13092" lon="6.85739">
        <ele>727.40002441406</ele>
        <time>2026-09-02T12:33:11.000Z</time>
      </trkpt>
      <trkpt lat="48.13092" lon="6.85738">
        <ele>727.40002441406</ele>
        <time>2026-09-02T12:33:12.000Z</time>
      </trkpt>
      <trkpt lat="48.13092" lon="6.85738">
        <ele>727.40002441406</ele>
        <time>2026-09-02T12:33:13.000Z</time>
      </trkpt>
      <trkpt lat="48.13092" lon="6.85737">
        <ele>727.40002441406</ele>
        <time>2026-09-02T12:33:14.000Z</time>
      </trkpt>
      <trkpt lat="48.13092" lon="6.85736">
        <ele>727.40002441406</ele>
        <time>2026-09-02T12:33:15.000Z</time>
      </trkpt>
      <trkpt lat="48.13092" lon="6.85736">
        <ele>727.40002441406</ele>
        <time>2026-09-02T12:33:16.000Z</time>
      </trkpt>
      <trkpt lat="48.13092" lon="6.85736">
        <ele>727.19995117188</ele>
        <time>2026-09-02T12:33:17.000Z</time>
      </trkpt>
      <trkpt lat="48.13092" lon="6.85735">
        <ele>727.19995117188</ele>
        <time>2026-09-02T12:33:18.000Z</time>
      </trkpt>
      <trkpt lat="48.13092" lon="6.85736">
        <ele>727.40002441406</ele>
        <time>2026-09-02T12:33:19.000Z</time>
      </trkpt>
      <trkpt lat="48.13092" lon="6.85736">
        <ele>727.40002441406</ele>
        <time>2026-09-02T12:33:20.000Z</time>
      </trkpt>
      <trkpt lat="48.13092" lon="6.85736">
        <ele>727.40002441406</ele>
        <time>2026-09-02T12:33:21.000Z</time>
      </trkpt>
      <trkpt lat="48.13092" lon="6.85736">
        <ele>727.40002441406</ele>
        <time>2026-09-02T12:33:22.000Z</time>
      </trkpt>
      <trkpt lat="48.13092" lon="6.85736">
        <ele>727.40002441406</ele>
        <time>2026-09-02T12:33:23.000Z</time>
      </trkpt>
      <trkpt lat="48.13092" lon="6.85736">
        <ele>727.40002441406</ele>
        <time>2026-09-02T12:33:24.000Z</time>
      </trkpt>
      <trkpt lat="48.13092" lon="6.85736">
        <ele>727.59997558594</ele>
        <time>2026-09-02T12:33:25.000Z</time>
      </trkpt>
      <trkpt lat="48.13092" lon="6.85736">
        <ele>727.59997558594</ele>
        <time>2026-09-02T12:33:26.000Z</time>
      </trkpt>
      <trkpt lat="48.13092" lon="6.85736">
        <ele>727.40002441406</ele>
        <time>2026-09-02T12:33:27.000Z</time>
      </trkpt>
      <trkpt lat="48.13092" lon="6.85736">
        <ele>727.40002441406</ele>
        <time>2026-09-02T12:33:28.000Z</time>
      </trkpt>
      <trkpt lat="48.13092" lon="6.85736">
        <ele>727.40002441406</ele>
        <time>2026-09-02T12:33:29.000Z</time>
      </trkpt>
      <trkpt lat="48.13092" lon="6.85736">
        <ele>727.19995117188</ele>
        <time>2026-09-02T12:33:30.000Z</time>
      </trkpt>
      <trkpt lat="48.13092" lon="6.85736">
        <ele>727.19995117188</ele>
        <time>2026-09-02T12:33:31.000Z</time>
      </trkpt>
      <trkpt lat="48.13092" lon="6.85736">
        <ele>727.19995117188</ele>
        <time>2026-09-02T12:33:32.000Z</time>
      </trkpt>
      <trkpt lat="48.13092" lon="6.85736">
        <ele>727.40002441406</ele>
        <time>2026-09-02T12:33:33.000Z</time>
      </trkpt>
      <trkpt lat="48.13092" lon="6.85736">
        <ele>727.40002441406</ele>
        <time>2026-09-02T12:33:34.000Z</time>
      </trkpt>
      <trkpt lat="48.13092" lon="6.85736">
        <ele>727.40002441406</ele>
        <time>2026-09-02T12:33:35.000Z</time>
      </trkpt>
      <trkpt lat="48.13092" lon="6.85736">
        <ele>727.40002441406</ele>
        <time>2026-09-02T12:33:36.000Z</time>
      </trkpt>
      <trkpt lat="48.13092" lon="6.85736">
        <ele>727.40002441406</ele>
        <time>2026-09-02T12:33:37.000Z</time>
      </trkpt>
      <trkpt lat="48.13093" lon="6.85735">
        <ele>727.19995117188</ele>
        <time>2026-09-02T12:33:38.000Z</time>
      </trkpt>
      <trkpt lat="48.13093" lon="6.85735">
        <ele>727.19995117188</ele>
        <time>2026-09-02T12:33:39.000Z</time>
      </trkpt>
      <trkpt lat="48.13093" lon="6.85734">
        <ele>727.19995117188</ele>
        <time>2026-09-02T12:33:40.000Z</time>
      </trkpt>
      <trkpt lat="48.13093" lon="6.85733">
        <ele>727.19995117188</ele>
        <time>2026-09-02T12:33:41.000Z</time>
      </trkpt>
      <trkpt lat="48.13093" lon="6.85733">
        <ele>727.19995117188</ele>
        <time>2026-09-02T12:33:42.000Z</time>
      </trkpt>
      <trkpt lat="48.13094" lon="6.85731">
        <ele>727.19995117188</ele>
        <time>2026-09-02T12:33:43.000Z</time>
      </trkpt>
      <trkpt lat="48.13094" lon="6.8573">
        <ele>727.40002441406</ele>
        <time>2026-09-02T12:33:44.000Z</time>
      </trkpt>
      <trkpt lat="48.13094" lon="6.85729">
        <ele>727.40002441406</ele>
        <time>2026-09-02T12:33:45.000Z</time>
      </trkpt>
      <trkpt lat="48.13095" lon="6.85728">
        <ele>727.40002441406</ele>
        <time>2026-09-02T12:33:46.000Z</time>
      </trkpt>
      <trkpt lat="48.13095" lon="6.85727">
        <ele>727.40002441406</ele>
        <time>2026-09-02T12:33:47.000Z</time>
      </trkpt>
      <trkpt lat="48.13095" lon="6.85727">
        <ele>727.19995117188</ele>
        <time>2026-09-02T12:33:48.000Z</time>
      </trkpt>
      <trkpt lat="48.13095" lon="6.85727">
        <ele>727.19995117188</ele>
        <time>2026-09-02T12:33:49.000Z</time>
      </trkpt>
      <trkpt lat="48.13095" lon="6.85726">
        <ele>727.19995117188</ele>
        <time>2026-09-02T12:33:50.000Z</time>
      </trkpt>
      <trkpt lat="48.13095" lon="6.85726">
        <ele>727.19995117188</ele>
        <time>2026-09-02T12:33:51.000Z</time>
      </trkpt>
      <trkpt lat="48.13095" lon="6.85726">
        <ele>727.19995117188</ele>
        <time>2026-09-02T12:33:52.000Z</time>
      </trkpt>
      <trkpt lat="48.13095" lon="6.85726">
        <ele>727.19995117188</ele>
        <time>2026-09-02T12:33:53.000Z</time>
      </trkpt>
      <trkpt lat="48.13095" lon="6.85726">
        <ele>727.19995117188</ele>
        <time>2026-09-02T12:33:54.000Z</time>
      </trkpt>
      <trkpt lat="48.13095" lon="6.85726">
        <ele>727.19995117188</ele>
        <time>2026-09-02T12:33:55.000Z</time>
      </trkpt>
      <trkpt lat="48.13095" lon="6.85726">
        <ele>727.40002441406</ele>
        <time>2026-09-02T12:33:56.000Z</time>
      </trkpt>
      <trkpt lat="48.13095" lon="6.85726">
        <ele>727.40002441406</ele>
        <time>2026-09-02T12:33:57.000Z</time>
      </trkpt>
      <trkpt lat="48.13095" lon="6.85726">
        <ele>727.40002441406</ele>
        <time>2026-09-02T12:33:58.000Z</time>
      </trkpt>
      <trkpt lat="48.13095" lon="6.85726">
        <ele>727.40002441406</ele>
        <time>2026-09-02T12:33:59.000Z</time>
      </trkpt>
      <trkpt lat="48.13095" lon="6.85726">
        <ele>727.40002441406</ele>
        <time>2026-09-02T12:34:00.000Z</time>
      </trkpt>
      <trkpt lat="48.13095" lon="6.85726">
        <ele>727.40002441406</ele>
        <time>2026-09-02T12:34:01.000Z</time>
      </trkpt>
      <trkpt lat="48.13095" lon="6.85726">
        <ele>727.59997558594</ele>
        <time>2026-09-02T12:34:02.000Z</time>
      </trkpt>
      <trkpt lat="48.13095" lon="6.85726">
        <ele>727.59997558594</ele>
        <time>2026-09-02T12:34:03.000Z</time>
      </trkpt>
      <trkpt lat="48.13095" lon="6.85726">
        <ele>727.59997558594</ele>
        <time>2026-09-02T12:34:04.000Z</time>
      </trkpt>
      <trkpt lat="48.13095" lon="6.85726">
        <ele>727.59997558594</ele>
        <time>2026-09-02T12:34:05.000Z</time>
      </trkpt>
      <trkpt lat="48.13095" lon="6.85726">
        <ele>727.40002441406</ele>
        <time>2026-09-02T12:34:06.000Z</time>
      </trkpt>
      <trkpt lat="48.13096" lon="6.85726">
        <ele>727.40002441406</ele>
        <time>2026-09-02T12:34:07.000Z</time>
      </trkpt>
      <trkpt lat="48.13096" lon="6.85725">
        <ele>727.40002441406</ele>
        <time>2026-09-02T12:34:08.000Z</time>
      </trkpt>
      <trkpt lat="48.13097" lon="6.85725">
        <ele>727.59997558594</ele>
        <time>2026-09-02T12:34:09.000Z</time>
      </trkpt>
      <trkpt lat="48.13097" lon="6.85724">
        <ele>727.59997558594</ele>
        <time>2026-09-02T12:34:10.000Z</time>
      </trkpt>
      <trkpt lat="48.13097" lon="6.85723">
        <ele>727.59997558594</ele>
        <time>2026-09-02T12:34:11.000Z</time>
      </trkpt>
      <trkpt lat="48.13098" lon="6.85722">
        <ele>727.59997558594</ele>
        <time>2026-09-02T12:34:12.000Z</time>
      </trkpt>
      <trkpt lat="48.13098" lon="6.85722">
        <ele>727.59997558594</ele>
        <time>2026-09-02T12:34:13.000Z</time>
      </trkpt>
      <trkpt lat="48.13099" lon="6.85721">
        <ele>727.59997558594</ele>
        <time>2026-09-02T12:34:14.000Z</time>
      </trkpt>
      <trkpt lat="48.13099" lon="6.85721">
        <ele>727.59997558594</ele>
        <time>2026-09-02T12:34:15.000Z</time>
      </trkpt>
      <trkpt lat="48.13099" lon="6.8572">
        <ele>727.40002441406</ele>
        <time>2026-09-02T12:34:16.000Z</time>
      </trkpt>
      <trkpt lat="48.131" lon="6.85718">
        <ele>727.40002441406</ele>
        <time>2026-09-02T12:34:17.000Z</time>
      </trkpt>
      <trkpt lat="48.131" lon="6.85718">
        <ele>727.40002441406</ele>
        <time>2026-09-02T12:34:18.000Z</time>
      </trkpt>
      <trkpt lat="48.13101" lon="6.85717">
        <ele>727.40002441406</ele>
        <time>2026-09-02T12:34:19.000Z</time>
      </trkpt>
      <trkpt lat="48.13101" lon="6.85716">
        <ele>727.40002441406</ele>
        <time>2026-09-02T12:34:20.000Z</time>
      </trkpt>
      <trkpt lat="48.13101" lon="6.85714">
        <ele>727.40002441406</ele>
        <time>2026-09-02T12:34:21.000Z</time>
      </trkpt>
      <trkpt lat="48.13102" lon="6.85714">
        <ele>727.40002441406</ele>
        <time>2026-09-02T12:34:22.000Z</time>
      </trkpt>
      <trkpt lat="48.13102" lon="6.85713">
        <ele>727.40002441406</ele>
        <time>2026-09-02T12:34:23.000Z</time>
      </trkpt>
      <trkpt lat="48.13102" lon="6.85713">
        <ele>727.19995117188</ele>
        <time>2026-09-02T12:34:24.000Z</time>
      </trkpt>
      <trkpt lat="48.13102" lon="6.85712">
        <ele>727.19995117188</ele>
        <time>2026-09-02T12:34:25.000Z</time>
      </trkpt>
      <trkpt lat="48.13103" lon="6.85712">
        <ele>727.19995117188</ele>
        <time>2026-09-02T12:34:26.000Z</time>
      </trkpt>
      <trkpt lat="48.13102" lon="6.85712">
        <ele>727</ele>
        <time>2026-09-02T12:34:27.000Z</time>
      </trkpt>
      <trkpt lat="48.13102" lon="6.85712">
        <ele>727</ele>
        <time>2026-09-02T12:34:28.000Z</time>
      </trkpt>
      <trkpt lat="48.13102" lon="6.85712">
        <ele>727</ele>
        <time>2026-09-02T12:34:29.000Z</time>
      </trkpt>
      <trkpt lat="48.13102" lon="6.85712">
        <ele>727.19995117188</ele>
        <time>2026-09-02T12:34:30.000Z</time>
      </trkpt>
      <trkpt lat="48.13102" lon="6.85712">
        <ele>727.19995117188</ele>
        <time>2026-09-02T12:34:31.000Z</time>
      </trkpt>
      <trkpt lat="48.13102" lon="6.85712">
        <ele>727.19995117188</ele>
        <time>2026-09-02T12:34:32.000Z</time>
      </trkpt>
      <trkpt lat="48.13102" lon="6.85712">
        <ele>727.19995117188</ele>
        <time>2026-09-02T12:34:33.000Z</time>
      </trkpt>
      <trkpt lat="48.13102" lon="6.85712">
        <ele>727.19995117188</ele>
        <time>2026-09-02T12:34:34.000Z</time>
      </trkpt>
      <trkpt lat="48.13102" lon="6.85712">
        <ele>727.19995117188</ele>
        <time>2026-09-02T12:34:35.000Z</time>
      </trkpt>
      <trkpt lat="48.13102" lon="6.85712">
        <ele>727.19995117188</ele>
        <time>2026-09-02T12:34:36.000Z</time>
      </trkpt>
      <trkpt lat="48.13102" lon="6.85712">
        <ele>727.19995117188</ele>
        <time>2026-09-02T12:34:37.000Z</time>
      </trkpt>
      <trkpt lat="48.13102" lon="6.85712">
        <ele>727.19995117188</ele>
        <time>2026-09-02T12:34:38.000Z</time>
      </trkpt>
      <trkpt lat="48.13102" lon="6.85712">
        <ele>727.19995117188</ele>
        <time>2026-09-02T12:34:39.000Z</time>
      </trkpt>
      <trkpt lat="48.13102" lon="6.85712">
        <ele>727.40002441406</ele>
        <time>2026-09-02T12:34:40.000Z</time>
      </trkpt>
      <trkpt lat="48.13102" lon="6.85712">
        <ele>727.40002441406</ele>
        <time>2026-09-02T12:34:41.000Z</time>
      </trkpt>
      <trkpt lat="48.13102" lon="6.85712">
        <ele>727.40002441406</ele>
        <time>2026-09-02T12:34:42.000Z</time>
      </trkpt>
      <trkpt lat="48.13102" lon="6.85712">
        <ele>727.40002441406</ele>
        <time>2026-09-02T12:34:43.000Z</time>
      </trkpt>
      <trkpt lat="48.13102" lon="6.85712">
        <ele>727.40002441406</ele>
        <time>2026-09-02T12:34:44.000Z</time>
      </trkpt>
      <trkpt lat="48.13102" lon="6.85712">
        <ele>727.40002441406</ele>
        <time>2026-09-02T12:34:45.000Z</time>
      </trkpt>
      <trkpt lat="48.13102" lon="6.85712">
        <ele>727.40002441406</ele>
        <time>2026-09-02T12:34:46.000Z</time>
      </trkpt>
      <trkpt lat="48.13102" lon="6.85712">
        <ele>727.40002441406</ele>
        <time>2026-09-02T12:34:47.000Z</time>
      </trkpt>
      <trkpt lat="48.13102" lon="6.85712">
        <ele>727.40002441406</ele>
        <time>2026-09-02T12:34:48.000Z</time>
      </trkpt>
      <trkpt lat="48.13102" lon="6.85712">
        <ele>727.40002441406</ele>
        <time>2026-09-02T12:34:49.000Z</time>
      </trkpt>
      <trkpt lat="48.13102" lon="6.85712">
        <ele>727.40002441406</ele>
        <time>2026-09-02T12:34:50.000Z</time>
      </trkpt>
      <trkpt lat="48.13102" lon="6.85712">
        <ele>727.19995117188</ele>
        <time>2026-09-02T12:34:51.000Z</time>
      </trkpt>
      <trkpt lat="48.13102" lon="6.85712">
        <ele>727.19995117188</ele>
        <time>2026-09-02T12:34:52.000Z</time>
      </trkpt>
      <trkpt lat="48.13102" lon="6.85712">
        <ele>727</ele>
        <time>2026-09-02T12:34:53.000Z</time>
      </trkpt>
      <trkpt lat="48.13102" lon="6.85712">
        <ele>727</ele>
        <time>2026-09-02T12:34:54.000Z</time>
      </trkpt>
      <trkpt lat="48.13102" lon="6.85712">
        <ele>727</ele>
        <time>2026-09-02T12:34:55.000Z</time>
      </trkpt>
      <trkpt lat="48.13102" lon="6.85712">
        <ele>727</ele>
        <time>2026-09-02T12:34:56.000Z</time>
      </trkpt>
      <trkpt lat="48.13102" lon="6.85712">
        <ele>727</ele>
        <time>2026-09-02T12:34:57.000Z</time>
      </trkpt>
      <trkpt lat="48.13102" lon="6.85712">
        <ele>726.80004882812</ele>
        <time>2026-09-02T12:34:58.000Z</time>
      </trkpt>
      <trkpt lat="48.13102" lon="6.85712">
        <ele>726.80004882812</ele>
        <time>2026-09-02T12:34:59.000Z</time>
      </trkpt>
      <trkpt lat="48.13102" lon="6.85712">
        <ele>726.59997558594</ele>
        <time>2026-09-02T12:35:00.000Z</time>
      </trkpt>
      <trkpt lat="48.13102" lon="6.85712">
        <ele>726.40002441406</ele>
        <time>2026-09-02T12:35:01.000Z</time>
      </trkpt>
      <trkpt lat="48.13102" lon="6.85712">
        <ele>726.40002441406</ele>
        <time>2026-09-02T12:35:02.000Z</time>
      </trkpt>
      <trkpt lat="48.13102" lon="6.85712">
        <ele>726.40002441406</ele>
        <time>2026-09-02T12:35:03.000Z</time>
      </trkpt>
      <trkpt lat="48.13102" lon="6.85712">
        <ele>726.40002441406</ele>
        <time>2026-09-02T12:35:04.000Z</time>
      </trkpt>
      <trkpt lat="48.13102" lon="6.85712">
        <ele>726.59997558594</ele>
        <time>2026-09-02T12:35:05.000Z</time>
      </trkpt>
      <trkpt lat="48.13102" lon="6.85712">
        <ele>726.59997558594</ele>
        <time>2026-09-02T12:35:06.000Z</time>
      </trkpt>
      <trkpt lat="48.13102" lon="6.85712">
        <ele>726.80004882812</ele>
        <time>2026-09-02T12:35:07.000Z</time>
      </trkpt>
      <trkpt lat="48.13102" lon="6.85712">
        <ele>726.80004882812</ele>
        <time>2026-09-02T12:35:08.000Z</time>
      </trkpt>
      <trkpt lat="48.13102" lon="6.85712">
        <ele>726.80004882812</ele>
        <time>2026-09-02T12:35:09.000Z</time>
      </trkpt>
      <trkpt lat="48.13102" lon="6.85712">
        <ele>726.80004882812</ele>
        <time>2026-09-02T12:35:10.000Z</time>
      </trkpt>
      <trkpt lat="48.13102" lon="6.85712">
        <ele>726.80004882812</ele>
        <time>2026-09-02T12:35:11.000Z</time>
      </trkpt>
      <trkpt lat="48.13102" lon="6.85712">
        <ele>726.80004882812</ele>
        <time>2026-09-02T12:35:12.000Z</time>
      </trkpt>
      <trkpt lat="48.13102" lon="6.85712">
        <ele>726.80004882812</ele>
        <time>2026-09-02T12:35:13.000Z</time>
      </trkpt>
      <trkpt lat="48.13102" lon="6.85712">
        <ele>726.80004882812</ele>
        <time>2026-09-02T12:35:14.000Z</time>
      </trkpt>
      <trkpt lat="48.13102" lon="6.85712">
        <ele>726.80004882812</ele>
        <time>2026-09-02T12:35:15.000Z</time>
      </trkpt>
      <trkpt lat="48.13102" lon="6.85712">
        <ele>726.80004882812</ele>
        <time>2026-09-02T12:35:16.000Z</time>
      </trkpt>
      <trkpt lat="48.13102" lon="6.85712">
        <ele>726.80004882812</ele>
        <time>2026-09-02T12:35:17.000Z</time>
      </trkpt>
      <trkpt lat="48.13102" lon="6.85712">
        <ele>726.80004882812</ele>
        <time>2026-09-02T12:35:18.000Z</time>
      </trkpt>
      <trkpt lat="48.13102" lon="6.85712">
        <ele>727</ele>
        <time>2026-09-02T12:35:19.000Z</time>
      </trkpt>
      <trkpt lat="48.13102" lon="6.85712">
        <ele>727</ele>
        <time>2026-09-02T12:35:20.000Z</time>
      </trkpt>
      <trkpt lat="48.13102" lon="6.85712">
        <ele>727</ele>
        <time>2026-09-02T12:35:21.000Z</time>
      </trkpt>
      <trkpt lat="48.13103" lon="6.85712">
        <ele>727</ele>
        <time>2026-09-02T12:35:22.000Z</time>
      </trkpt>
      <trkpt lat="48.13103" lon="6.85712">
        <ele>727</ele>
        <time>2026-09-02T12:35:23.000Z</time>
      </trkpt>
      <trkpt lat="48.13104" lon="6.85711">
        <ele>727.19995117188</ele>
        <time>2026-09-02T12:35:24.000Z</time>
      </trkpt>
      <trkpt lat="48.13104" lon="6.8571">
        <ele>727.40002441406</ele>
        <time>2026-09-02T12:35:25.000Z</time>
      </trkpt>
      <trkpt lat="48.13104" lon="6.85709">
        <ele>727.59997558594</ele>
        <time>2026-09-02T12:35:26.000Z</time>
      </trkpt>
      <trkpt lat="48.13104" lon="6.85708">
        <ele>727.80004882812</ele>
        <time>2026-09-02T12:35:27.000Z</time>
      </trkpt>
      <trkpt lat="48.13105" lon="6.85708">
        <ele>727.80004882812</ele>
        <time>2026-09-02T12:35:28.000Z</time>
      </trkpt>
      <trkpt lat="48.13105" lon="6.85707">
        <ele>727.80004882812</ele>
        <time>2026-09-02T12:35:29.000Z</time>
      </trkpt>
      <trkpt lat="48.13106" lon="6.85705">
        <ele>727.59997558594</ele>
        <time>2026-09-02T12:35:30.000Z</time>
      </trkpt>
      <trkpt lat="48.13106" lon="6.85705">
        <ele>727.59997558594</ele>
        <time>2026-09-02T12:35:31.000Z</time>
      </trkpt>
      <trkpt lat="48.13106" lon="6.85705">
        <ele>727.59997558594</ele>
        <time>2026-09-02T12:35:32.000Z</time>
      </trkpt>
      <trkpt lat="48.13107" lon="6.85704">
        <ele>727.59997558594</ele>
        <time>2026-09-02T12:35:33.000Z</time>
      </trkpt>
      <trkpt lat="48.13107" lon="6.85704">
        <ele>727.40002441406</ele>
        <time>2026-09-02T12:35:34.000Z</time>
      </trkpt>
      <trkpt lat="48.13107" lon="6.85703">
        <ele>727.19995117188</ele>
        <time>2026-09-02T12:35:35.000Z</time>
      </trkpt>
      <trkpt lat="48.13108" lon="6.85702">
        <ele>727.19995117188</ele>
        <time>2026-09-02T12:35:36.000Z</time>
      </trkpt>
      <trkpt lat="48.13108" lon="6.85701">
        <ele>727.19995117188</ele>
        <time>2026-09-02T12:35:37.000Z</time>
      </trkpt>
      <trkpt lat="48.13108" lon="6.85701">
        <ele>727.19995117188</ele>
        <time>2026-09-02T12:35:38.000Z</time>
      </trkpt>
      <trkpt lat="48.13108" lon="6.85699">
        <ele>727.19995117188</ele>
        <time>2026-09-02T12:35:39.000Z</time>
      </trkpt>
      <trkpt lat="48.13109" lon="6.85698">
        <ele>727</ele>
        <time>2026-09-02T12:35:40.000Z</time>
      </trkpt>
      <trkpt lat="48.13109" lon="6.85697">
        <ele>727</ele>
        <time>2026-09-02T12:35:41.000Z</time>
      </trkpt>
      <trkpt lat="48.13109" lon="6.85696">
        <ele>727</ele>
        <time>2026-09-02T12:35:42.000Z</time>
      </trkpt>
      <trkpt lat="48.13109" lon="6.85695">
        <ele>727</ele>
        <time>2026-09-02T12:35:43.000Z</time>
      </trkpt>
      <trkpt lat="48.1311" lon="6.85694">
        <ele>727</ele>
        <time>2026-09-02T12:35:44.000Z</time>
      </trkpt>
      <trkpt lat="48.1311" lon="6.85693">
        <ele>727</ele>
        <time>2026-09-02T12:35:45.000Z</time>
      </trkpt>
      <trkpt lat="48.1311" lon="6.85692">
        <ele>726.80004882812</ele>
        <time>2026-09-02T12:35:46.000Z</time>
      </trkpt>
      <trkpt lat="48.13111" lon="6.85692">
        <ele>726.80004882812</ele>
        <time>2026-09-02T12:35:47.000Z</time>
      </trkpt>
      <trkpt lat="48.1311" lon="6.85692">
        <ele>726.59997558594</ele>
        <time>2026-09-02T12:35:48.000Z</time>
      </trkpt>
      <trkpt lat="48.1311" lon="6.85691">
        <ele>726.40002441406</ele>
        <time>2026-09-02T12:35:49.000Z</time>
      </trkpt>
      <trkpt lat="48.1311" lon="6.85691">
        <ele>726.40002441406</ele>
        <time>2026-09-02T12:35:50.000Z</time>
      </trkpt>
      <trkpt lat="48.1311" lon="6.8569">
        <ele>726.40002441406</ele>
        <time>2026-09-02T12:35:51.000Z</time>
      </trkpt>
      <trkpt lat="48.1311" lon="6.85689">
        <ele>726.59997558594</ele>
        <time>2026-09-02T12:35:52.000Z</time>
      </trkpt>
      <trkpt lat="48.1311" lon="6.85688">
        <ele>726.80004882812</ele>
        <time>2026-09-02T12:35:53.000Z</time>
      </trkpt>
      <trkpt lat="48.13111" lon="6.85688">
        <ele>726.80004882812</ele>
        <time>2026-09-02T12:35:54.000Z</time>
      </trkpt>
      <trkpt lat="48.13111" lon="6.85687">
        <ele>727</ele>
        <time>2026-09-02T12:35:55.000Z</time>
      </trkpt>
      <trkpt lat="48.13111" lon="6.85686">
        <ele>727</ele>
        <time>2026-09-02T12:35:56.000Z</time>
      </trkpt>
      <trkpt lat="48.13111" lon="6.85685">
        <ele>727</ele>
        <time>2026-09-02T12:35:57.000Z</time>
      </trkpt>
      <trkpt lat="48.13111" lon="6.85684">
        <ele>726.80004882812</ele>
        <time>2026-09-02T12:35:58.000Z</time>
      </trkpt>
      <trkpt lat="48.13111" lon="6.85683">
        <ele>726.59997558594</ele>
        <time>2026-09-02T12:35:59.000Z</time>
      </trkpt>
      <trkpt lat="48.13112" lon="6.85681">
        <ele>726.40002441406</ele>
        <time>2026-09-02T12:36:00.000Z</time>
      </trkpt>
      <trkpt lat="48.13112" lon="6.8568">
        <ele>726.19995117188</ele>
        <time>2026-09-02T12:36:01.000Z</time>
      </trkpt>
      <trkpt lat="48.13113" lon="6.85679">
        <ele>725.80004882812</ele>
        <time>2026-09-02T12:36:02.000Z</time>
      </trkpt>
      <trkpt lat="48.13113" lon="6.85678">
        <ele>725.59997558594</ele>
        <time>2026-09-02T12:36:03.000Z</time>
      </trkpt>
      <trkpt lat="48.13113" lon="6.85677">
        <ele>725.40002441406</ele>
        <time>2026-09-02T12:36:04.000Z</time>
      </trkpt>
      <trkpt lat="48.13114" lon="6.85676">
        <ele>725.19995117188</ele>
        <time>2026-09-02T12:36:05.000Z</time>
      </trkpt>
      <trkpt lat="48.13114" lon="6.85675">
        <ele>725.19995117188</ele>
        <time>2026-09-02T12:36:06.000Z</time>
      </trkpt>
      <trkpt lat="48.13114" lon="6.85675">
        <ele>725.40002441406</ele>
        <time>2026-09-02T12:36:07.000Z</time>
      </trkpt>
      <trkpt lat="48.13115" lon="6.85674">
        <ele>725.59997558594</ele>
        <time>2026-09-02T12:36:08.000Z</time>
      </trkpt>
      <trkpt lat="48.13115" lon="6.85673">
        <ele>725.80004882812</ele>
        <time>2026-09-02T12:36:09.000Z</time>
      </trkpt>
      <trkpt lat="48.13116" lon="6.85673">
        <ele>726</ele>
        <time>2026-09-02T12:36:10.000Z</time>
      </trkpt>
      <trkpt lat="48.13116" lon="6.85672">
        <ele>726.19995117188</ele>
        <time>2026-09-02T12:36:11.000Z</time>
      </trkpt>
      <trkpt lat="48.13117" lon="6.85671">
        <ele>726</ele>
        <time>2026-09-02T12:36:12.000Z</time>
      </trkpt>
      <trkpt lat="48.13117" lon="6.8567">
        <ele>725.80004882812</ele>
        <time>2026-09-02T12:36:13.000Z</time>
      </trkpt>
      <trkpt lat="48.13118" lon="6.85669">
        <ele>725.59997558594</ele>
        <time>2026-09-02T12:36:14.000Z</time>
      </trkpt>
      <trkpt lat="48.13119" lon="6.85668">
        <ele>725.40002441406</ele>
        <time>2026-09-02T12:36:15.000Z</time>
      </trkpt>
      <trkpt lat="48.13119" lon="6.85667">
        <ele>725.40002441406</ele>
        <time>2026-09-02T12:36:16.000Z</time>
      </trkpt>
      <trkpt lat="48.13119" lon="6.85666">
        <ele>725.19995117188</ele>
        <time>2026-09-02T12:36:17.000Z</time>
      </trkpt>
      <trkpt lat="48.1312" lon="6.85665">
        <ele>725</ele>
        <time>2026-09-02T12:36:18.000Z</time>
      </trkpt>
      <trkpt lat="48.1312" lon="6.85664">
        <ele>725</ele>
        <time>2026-09-02T12:36:19.000Z</time>
      </trkpt>
      <trkpt lat="48.13121" lon="6.85664">
        <ele>725</ele>
        <time>2026-09-02T12:36:20.000Z</time>
      </trkpt>
      <trkpt lat="48.13121" lon="6.85664">
        <ele>725.19995117188</ele>
        <time>2026-09-02T12:36:21.000Z</time>
      </trkpt>
      <trkpt lat="48.13121" lon="6.85664">
        <ele>725.40002441406</ele>
        <time>2026-09-02T12:36:22.000Z</time>
      </trkpt>
      <trkpt lat="48.13121" lon="6.85664">
        <ele>725.59997558594</ele>
        <time>2026-09-02T12:36:23.000Z</time>
      </trkpt>
      <trkpt lat="48.13121" lon="6.85664">
        <ele>725.80004882812</ele>
        <time>2026-09-02T12:36:24.000Z</time>
      </trkpt>
      <trkpt lat="48.13121" lon="6.85664">
        <ele>726</ele>
        <time>2026-09-02T12:36:25.000Z</time>
      </trkpt>
      <trkpt lat="48.13121" lon="6.85664">
        <ele>726</ele>
        <time>2026-09-02T12:36:26.000Z</time>
      </trkpt>
      <trkpt lat="48.13121" lon="6.85664">
        <ele>726</ele>
        <time>2026-09-02T12:36:27.000Z</time>
      </trkpt>
      <trkpt lat="48.13121" lon="6.85664">
        <ele>725.80004882812</ele>
        <time>2026-09-02T12:36:28.000Z</time>
      </trkpt>
      <trkpt lat="48.13121" lon="6.85663">
        <ele>725.80004882812</ele>
        <time>2026-09-02T12:36:29.000Z</time>
      </trkpt>
      <trkpt lat="48.13122" lon="6.85662">
        <ele>726</ele>
        <time>2026-09-02T12:36:30.000Z</time>
      </trkpt>
      <trkpt lat="48.13123" lon="6.85661">
        <ele>726</ele>
        <time>2026-09-02T12:36:31.000Z</time>
      </trkpt>
      <trkpt lat="48.13123" lon="6.85661">
        <ele>726</ele>
        <time>2026-09-02T12:36:32.000Z</time>
      </trkpt>
      <trkpt lat="48.13124" lon="6.8566">
        <ele>726</ele>
        <time>2026-09-02T12:36:33.000Z</time>
      </trkpt>
      <trkpt lat="48.13124" lon="6.85658">
        <ele>726</ele>
        <time>2026-09-02T12:36:34.000Z</time>
      </trkpt>
      <trkpt lat="48.13125" lon="6.85658">
        <ele>725.80004882812</ele>
        <time>2026-09-02T12:36:35.000Z</time>
      </trkpt>
      <trkpt lat="48.13125" lon="6.85657">
        <ele>725.80004882812</ele>
        <time>2026-09-02T12:36:36.000Z</time>
      </trkpt>
      <trkpt lat="48.13125" lon="6.85656">
        <ele>725.80004882812</ele>
        <time>2026-09-02T12:36:37.000Z</time>
      </trkpt>
      <trkpt lat="48.13125" lon="6.85656">
        <ele>725.80004882812</ele>
        <time>2026-09-02T12:36:38.000Z</time>
      </trkpt>
      <trkpt lat="48.13125" lon="6.85654">
        <ele>725.80004882812</ele>
        <time>2026-09-02T12:36:39.000Z</time>
      </trkpt>
      <trkpt lat="48.13125" lon="6.85654">
        <ele>725.80004882812</ele>
        <time>2026-09-02T12:36:40.000Z</time>
      </trkpt>
      <trkpt lat="48.13125" lon="6.85653">
        <ele>725.80004882812</ele>
        <time>2026-09-02T12:36:41.000Z</time>
      </trkpt>
      <trkpt lat="48.13126" lon="6.85652">
        <ele>725.80004882812</ele>
        <time>2026-09-02T12:36:42.000Z</time>
      </trkpt>
      <trkpt lat="48.13126" lon="6.85652">
        <ele>725.59997558594</ele>
        <time>2026-09-02T12:36:43.000Z</time>
      </trkpt>
      <trkpt lat="48.13126" lon="6.85651">
        <ele>725.59997558594</ele>
        <time>2026-09-02T12:36:44.000Z</time>
      </trkpt>
      <trkpt lat="48.13127" lon="6.8565">
        <ele>725.59997558594</ele>
        <time>2026-09-02T12:36:45.000Z</time>
      </trkpt>
      <trkpt lat="48.13128" lon="6.85648">
        <ele>725.59997558594</ele>
        <time>2026-09-02T12:36:46.000Z</time>
      </trkpt>
      <trkpt lat="48.13128" lon="6.85647">
        <ele>725.59997558594</ele>
        <time>2026-09-02T12:36:47.000Z</time>
      </trkpt>
      <trkpt lat="48.13129" lon="6.85646">
        <ele>725.59997558594</ele>
        <time>2026-09-02T12:36:48.000Z</time>
      </trkpt>
      <trkpt lat="48.1313" lon="6.85644">
        <ele>725.59997558594</ele>
        <time>2026-09-02T12:36:49.000Z</time>
      </trkpt>
      <trkpt lat="48.1313" lon="6.85643">
        <ele>725.40002441406</ele>
        <time>2026-09-02T12:36:50.000Z</time>
      </trkpt>
      <trkpt lat="48.1313" lon="6.85642">
        <ele>725.40002441406</ele>
        <time>2026-09-02T12:36:51.000Z</time>
      </trkpt>
      <trkpt lat="48.13131" lon="6.85641">
        <ele>725.40002441406</ele>
        <time>2026-09-02T12:36:52.000Z</time>
      </trkpt>
      <trkpt lat="48.13132" lon="6.8564">
        <ele>725.40002441406</ele>
        <time>2026-09-02T12:36:53.000Z</time>
      </trkpt>
      <trkpt lat="48.13132" lon="6.85639">
        <ele>725.40002441406</ele>
        <time>2026-09-02T12:36:54.000Z</time>
      </trkpt>
      <trkpt lat="48.13133" lon="6.85638">
        <ele>725.40002441406</ele>
        <time>2026-09-02T12:36:55.000Z</time>
      </trkpt>
      <trkpt lat="48.13134" lon="6.85636">
        <ele>725.40002441406</ele>
        <time>2026-09-02T12:36:56.000Z</time>
      </trkpt>
      <trkpt lat="48.13135" lon="6.85635">
        <ele>725.40002441406</ele>
        <time>2026-09-02T12:36:57.000Z</time>
      </trkpt>
      <trkpt lat="48.13135" lon="6.85634">
        <ele>725.59997558594</ele>
        <time>2026-09-02T12:36:58.000Z</time>
      </trkpt>
      <trkpt lat="48.13137" lon="6.85633">
        <ele>725.59997558594</ele>
        <time>2026-09-02T12:36:59.000Z</time>
      </trkpt>
      <trkpt lat="48.13137" lon="6.85632">
        <ele>725.59997558594</ele>
        <time>2026-09-02T12:37:00.000Z</time>
      </trkpt>
      <trkpt lat="48.13138" lon="6.85632">
        <ele>725.59997558594</ele>
        <time>2026-09-02T12:37:01.000Z</time>
      </trkpt>
      <trkpt lat="48.13139" lon="6.85632">
        <ele>725.80004882812</ele>
        <time>2026-09-02T12:37:02.000Z</time>
      </trkpt>
      <trkpt lat="48.1314" lon="6.85631">
        <ele>725.80004882812</ele>
        <time>2026-09-02T12:37:03.000Z</time>
      </trkpt>
      <trkpt lat="48.13141" lon="6.85631">
        <ele>726</ele>
        <time>2026-09-02T12:37:04.000Z</time>
      </trkpt>
      <trkpt lat="48.13141" lon="6.85631">
        <ele>726</ele>
        <time>2026-09-02T12:37:05.000Z</time>
      </trkpt>
      <trkpt lat="48.13142" lon="6.8563">
        <ele>726</ele>
        <time>2026-09-02T12:37:06.000Z</time>
      </trkpt>
      <trkpt lat="48.13143" lon="6.8563">
        <ele>726</ele>
        <time>2026-09-02T12:37:07.000Z</time>
      </trkpt>
      <trkpt lat="48.13143" lon="6.8563">
        <ele>726.19995117188</ele>
        <time>2026-09-02T12:37:08.000Z</time>
      </trkpt>
      <trkpt lat="48.13144" lon="6.8563">
        <ele>726.19995117188</ele>
        <time>2026-09-02T12:37:09.000Z</time>
      </trkpt>
      <trkpt lat="48.13143" lon="6.8563">
        <ele>726.19995117188</ele>
        <time>2026-09-02T12:37:10.000Z</time>
      </trkpt>
      <trkpt lat="48.13144" lon="6.85629">
        <ele>726.40002441406</ele>
        <time>2026-09-02T12:37:11.000Z</time>
      </trkpt>
      <trkpt lat="48.13144" lon="6.85629">
        <ele>726.40002441406</ele>
        <time>2026-09-02T12:37:12.000Z</time>
      </trkpt>
      <trkpt lat="48.13145" lon="6.85628">
        <ele>726.40002441406</ele>
        <time>2026-09-02T12:37:13.000Z</time>
      </trkpt>
      <trkpt lat="48.13145" lon="6.85628">
        <ele>726.59997558594</ele>
        <time>2026-09-02T12:37:14.000Z</time>
      </trkpt>
      <trkpt lat="48.13146" lon="6.85628">
        <ele>726.59997558594</ele>
        <time>2026-09-02T12:37:15.000Z</time>
      </trkpt>
      <trkpt lat="48.13146" lon="6.85627">
        <ele>726.80004882812</ele>
        <time>2026-09-02T12:37:16.000Z</time>
      </trkpt>
      <trkpt lat="48.13147" lon="6.85626">
        <ele>727</ele>
        <time>2026-09-02T12:37:17.000Z</time>
      </trkpt>
      <trkpt lat="48.13148" lon="6.85625">
        <ele>727</ele>
        <time>2026-09-02T12:37:18.000Z</time>
      </trkpt>
      <trkpt lat="48.13149" lon="6.85624">
        <ele>727</ele>
        <time>2026-09-02T12:37:19.000Z</time>
      </trkpt>
      <trkpt lat="48.13149" lon="6.85624">
        <ele>727.19995117188</ele>
        <time>2026-09-02T12:37:20.000Z</time>
      </trkpt>
      <trkpt lat="48.1315" lon="6.85624">
        <ele>727.19995117188</ele>
        <time>2026-09-02T12:37:21.000Z</time>
      </trkpt>
      <trkpt lat="48.13151" lon="6.85623">
        <ele>727.19995117188</ele>
        <time>2026-09-02T12:37:22.000Z</time>
      </trkpt>
      <trkpt lat="48.13151" lon="6.85623">
        <ele>727.19995117188</ele>
        <time>2026-09-02T12:37:23.000Z</time>
      </trkpt>
      <trkpt lat="48.13152" lon="6.85622">
        <ele>727.19995117188</ele>
        <time>2026-09-02T12:37:24.000Z</time>
      </trkpt>
      <trkpt lat="48.13153" lon="6.85622">
        <ele>727.40002441406</ele>
        <time>2026-09-02T12:37:25.000Z</time>
      </trkpt>
      <trkpt lat="48.13154" lon="6.85621">
        <ele>727.40002441406</ele>
        <time>2026-09-02T12:37:26.000Z</time>
      </trkpt>
      <trkpt lat="48.13154" lon="6.85621">
        <ele>727.40002441406</ele>
        <time>2026-09-02T12:37:27.000Z</time>
      </trkpt>
      <trkpt lat="48.13155" lon="6.8562">
        <ele>727.59997558594</ele>
        <time>2026-09-02T12:37:28.000Z</time>
      </trkpt>
      <trkpt lat="48.13156" lon="6.85619">
        <ele>727.59997558594</ele>
        <time>2026-09-02T12:37:29.000Z</time>
      </trkpt>
      <trkpt lat="48.13157" lon="6.85619">
        <ele>727.80004882812</ele>
        <time>2026-09-02T12:37:30.000Z</time>
      </trkpt>
      <trkpt lat="48.13158" lon="6.85618">
        <ele>727.80004882812</ele>
        <time>2026-09-02T12:37:31.000Z</time>
      </trkpt>
      <trkpt lat="48.13158" lon="6.85618">
        <ele>727.80004882812</ele>
        <time>2026-09-02T12:37:32.000Z</time>
      </trkpt>
      <trkpt lat="48.13159" lon="6.85617">
        <ele>727.80004882812</ele>
        <time>2026-09-02T12:37:33.000Z</time>
      </trkpt>
      <trkpt lat="48.1316" lon="6.85616">
        <ele>727.80004882812</ele>
        <time>2026-09-02T12:37:34.000Z</time>
      </trkpt>
      <trkpt lat="48.13161" lon="6.85616">
        <ele>727.59997558594</ele>
        <time>2026-09-02T12:37:35.000Z</time>
      </trkpt>
      <trkpt lat="48.13161" lon="6.85615">
        <ele>727.40002441406</ele>
        <time>2026-09-02T12:37:36.000Z</time>
      </trkpt>
      <trkpt lat="48.13161" lon="6.85614">
        <ele>727.40002441406</ele>
        <time>2026-09-02T12:37:37.000Z</time>
      </trkpt>
      <trkpt lat="48.13162" lon="6.85614">
        <ele>727.40002441406</ele>
        <time>2026-09-02T12:37:38.000Z</time>
      </trkpt>
      <trkpt lat="48.13162" lon="6.85613">
        <ele>727.59997558594</ele>
        <time>2026-09-02T12:37:39.000Z</time>
      </trkpt>
      <trkpt lat="48.13163" lon="6.85613">
        <ele>728</ele>
        <time>2026-09-02T12:37:40.000Z</time>
      </trkpt>
      <trkpt lat="48.13163" lon="6.85612">
        <ele>728</ele>
        <time>2026-09-02T12:37:41.000Z</time>
      </trkpt>
      <trkpt lat="48.13164" lon="6.85612">
        <ele>728.19995117188</ele>
        <time>2026-09-02T12:37:42.000Z</time>
      </trkpt>
      <trkpt lat="48.13164" lon="6.85612">
        <ele>728.19995117188</ele>
        <time>2026-09-02T12:37:43.000Z</time>
      </trkpt>
      <trkpt lat="48.13165" lon="6.85611">
        <ele>728.40002441406</ele>
        <time>2026-09-02T12:37:44.000Z</time>
      </trkpt>
      <trkpt lat="48.13166" lon="6.8561">
        <ele>728.40002441406</ele>
        <time>2026-09-02T12:37:45.000Z</time>
      </trkpt>
      <trkpt lat="48.13167" lon="6.85609">
        <ele>728.40002441406</ele>
        <time>2026-09-02T12:37:46.000Z</time>
      </trkpt>
      <trkpt lat="48.13167" lon="6.85609">
        <ele>728.40002441406</ele>
        <time>2026-09-02T12:37:47.000Z</time>
      </trkpt>
      <trkpt lat="48.13168" lon="6.85608">
        <ele>728.59997558594</ele>
        <time>2026-09-02T12:37:48.000Z</time>
      </trkpt>
      <trkpt lat="48.13169" lon="6.85608">
        <ele>728.59997558594</ele>
        <time>2026-09-02T12:37:49.000Z</time>
      </trkpt>
      <trkpt lat="48.13169" lon="6.85608">
        <ele>728.80004882812</ele>
        <time>2026-09-02T12:37:50.000Z</time>
      </trkpt>
      <trkpt lat="48.1317" lon="6.85607">
        <ele>729</ele>
        <time>2026-09-02T12:37:51.000Z</time>
      </trkpt>
      <trkpt lat="48.13171" lon="6.85607">
        <ele>729</ele>
        <time>2026-09-02T12:37:52.000Z</time>
      </trkpt>
      <trkpt lat="48.13172" lon="6.85607">
        <ele>729.19995117188</ele>
        <time>2026-09-02T12:37:53.000Z</time>
      </trkpt>
      <trkpt lat="48.13173" lon="6.85606">
        <ele>729.19995117188</ele>
        <time>2026-09-02T12:37:54.000Z</time>
      </trkpt>
      <trkpt lat="48.13173" lon="6.85606">
        <ele>729.19995117188</ele>
        <time>2026-09-02T12:37:55.000Z</time>
      </trkpt>
      <trkpt lat="48.13172" lon="6.85605">
        <ele>729.19995117188</ele>
        <time>2026-09-02T12:37:56.000Z</time>
      </trkpt>
      <trkpt lat="48.13173" lon="6.85605">
        <ele>729.40002441406</ele>
        <time>2026-09-02T12:37:57.000Z</time>
      </trkpt>
      <trkpt lat="48.13174" lon="6.85604">
        <ele>729.40002441406</ele>
        <time>2026-09-02T12:37:58.000Z</time>
      </trkpt>
      <trkpt lat="48.13174" lon="6.85605">
        <ele>729.59997558594</ele>
        <time>2026-09-02T12:37:59.000Z</time>
      </trkpt>
      <trkpt lat="48.13176" lon="6.85604">
        <ele>729.80004882812</ele>
        <time>2026-09-02T12:38:00.000Z</time>
      </trkpt>
      <trkpt lat="48.13177" lon="6.85605">
        <ele>729.80004882812</ele>
        <time>2026-09-02T12:38:01.000Z</time>
      </trkpt>
      <trkpt lat="48.13178" lon="6.85605">
        <ele>730</ele>
        <time>2026-09-02T12:38:02.000Z</time>
      </trkpt>
      <trkpt lat="48.13179" lon="6.85604">
        <ele>730</ele>
        <time>2026-09-02T12:38:03.000Z</time>
      </trkpt>
      <trkpt lat="48.1318" lon="6.85604">
        <ele>730</ele>
        <time>2026-09-02T12:38:04.000Z</time>
      </trkpt>
      <trkpt lat="48.1318" lon="6.85604">
        <ele>730.19995117188</ele>
        <time>2026-09-02T12:38:05.000Z</time>
      </trkpt>
      <trkpt lat="48.13181" lon="6.85603">
        <ele>730.19995117188</ele>
        <time>2026-09-02T12:38:06.000Z</time>
      </trkpt>
      <trkpt lat="48.13182" lon="6.85603">
        <ele>730.19995117188</ele>
        <time>2026-09-02T12:38:07.000Z</time>
      </trkpt>
      <trkpt lat="48.13182" lon="6.85602">
        <ele>730.19995117188</ele>
        <time>2026-09-02T12:38:08.000Z</time>
      </trkpt>
      <trkpt lat="48.13183" lon="6.85601">
        <ele>730.40002441406</ele>
        <time>2026-09-02T12:38:09.000Z</time>
      </trkpt>
      <trkpt lat="48.13184" lon="6.85601">
        <ele>730.40002441406</ele>
        <time>2026-09-02T12:38:10.000Z</time>
      </trkpt>
      <trkpt lat="48.13185" lon="6.856">
        <ele>730.59997558594</ele>
        <time>2026-09-02T12:38:11.000Z</time>
      </trkpt>
      <trkpt lat="48.13185" lon="6.856">
        <ele>730.59997558594</ele>
        <time>2026-09-02T12:38:12.000Z</time>
      </trkpt>
      <trkpt lat="48.13186" lon="6.85599">
        <ele>730.59997558594</ele>
        <time>2026-09-02T12:38:13.000Z</time>
      </trkpt>
      <trkpt lat="48.13187" lon="6.85599">
        <ele>730.80004882812</ele>
        <time>2026-09-02T12:38:14.000Z</time>
      </trkpt>
      <trkpt lat="48.13187" lon="6.85599">
        <ele>730.80004882812</ele>
        <time>2026-09-02T12:38:15.000Z</time>
      </trkpt>
      <trkpt lat="48.13187" lon="6.85599">
        <ele>730.80004882812</ele>
        <time>2026-09-02T12:38:16.000Z</time>
      </trkpt>
      <trkpt lat="48.13187" lon="6.85598">
        <ele>730.80004882812</ele>
        <time>2026-09-02T12:38:17.000Z</time>
      </trkpt>
      <trkpt lat="48.13188" lon="6.85597">
        <ele>731</ele>
        <time>2026-09-02T12:38:18.000Z</time>
      </trkpt>
      <trkpt lat="48.13188" lon="6.85596">
        <ele>731.19995117188</ele>
        <time>2026-09-02T12:38:19.000Z</time>
      </trkpt>
      <trkpt lat="48.13189" lon="6.85595">
        <ele>731.19995117188</ele>
        <time>2026-09-02T12:38:20.000Z</time>
      </trkpt>
      <trkpt lat="48.13189" lon="6.85595">
        <ele>731.40002441406</ele>
        <time>2026-09-02T12:38:21.000Z</time>
      </trkpt>
      <trkpt lat="48.1319" lon="6.85595">
        <ele>731.40002441406</ele>
        <time>2026-09-02T12:38:22.000Z</time>
      </trkpt>
      <trkpt lat="48.1319" lon="6.85595">
        <ele>731.59997558594</ele>
        <time>2026-09-02T12:38:23.000Z</time>
      </trkpt>
      <trkpt lat="48.13191" lon="6.85594">
        <ele>731.59997558594</ele>
        <time>2026-09-02T12:38:24.000Z</time>
      </trkpt>
      <trkpt lat="48.13191" lon="6.85593">
        <ele>731.40002441406</ele>
        <time>2026-09-02T12:38:25.000Z</time>
      </trkpt>
      <trkpt lat="48.13192" lon="6.85592">
        <ele>731.40002441406</ele>
        <time>2026-09-02T12:38:26.000Z</time>
      </trkpt>
      <trkpt lat="48.13192" lon="6.85591">
        <ele>731.19995117188</ele>
        <time>2026-09-02T12:38:27.000Z</time>
      </trkpt>
      <trkpt lat="48.13193" lon="6.85591">
        <ele>731.19995117188</ele>
        <time>2026-09-02T12:38:28.000Z</time>
      </trkpt>
      <trkpt lat="48.13194" lon="6.8559">
        <ele>731.19995117188</ele>
        <time>2026-09-02T12:38:29.000Z</time>
      </trkpt>
      <trkpt lat="48.13195" lon="6.85589">
        <ele>731.19995117188</ele>
        <time>2026-09-02T12:38:30.000Z</time>
      </trkpt>
      <trkpt lat="48.13196" lon="6.85588">
        <ele>731.19995117188</ele>
        <time>2026-09-02T12:38:31.000Z</time>
      </trkpt>
      <trkpt lat="48.13197" lon="6.85588">
        <ele>731.19995117188</ele>
        <time>2026-09-02T12:38:32.000Z</time>
      </trkpt>
      <trkpt lat="48.13197" lon="6.85588">
        <ele>731</ele>
        <time>2026-09-02T12:38:33.000Z</time>
      </trkpt>
      <trkpt lat="48.13198" lon="6.85588">
        <ele>730.80004882812</ele>
        <time>2026-09-02T12:38:34.000Z</time>
      </trkpt>
      <trkpt lat="48.13198" lon="6.85588">
        <ele>730.59997558594</ele>
        <time>2026-09-02T12:38:35.000Z</time>
      </trkpt>
      <trkpt lat="48.13198" lon="6.85588">
        <ele>730.40002441406</ele>
        <time>2026-09-02T12:38:36.000Z</time>
      </trkpt>
      <trkpt lat="48.13198" lon="6.85588">
        <ele>730.19995117188</ele>
        <time>2026-09-02T12:38:37.000Z</time>
      </trkpt>
      <trkpt lat="48.13198" lon="6.85588">
        <ele>730.40002441406</ele>
        <time>2026-09-02T12:38:38.000Z</time>
      </trkpt>
      <trkpt lat="48.13199" lon="6.85588">
        <ele>730.59997558594</ele>
        <time>2026-09-02T12:38:39.000Z</time>
      </trkpt>
      <trkpt lat="48.13199" lon="6.85588">
        <ele>731</ele>
        <time>2026-09-02T12:38:40.000Z</time>
      </trkpt>
      <trkpt lat="48.132" lon="6.85588">
        <ele>731.19995117188</ele>
        <time>2026-09-02T12:38:41.000Z</time>
      </trkpt>
      <trkpt lat="48.13201" lon="6.85588">
        <ele>731.40002441406</ele>
        <time>2026-09-02T12:38:42.000Z</time>
      </trkpt>
      <trkpt lat="48.13201" lon="6.85588">
        <ele>731.59997558594</ele>
        <time>2026-09-02T12:38:43.000Z</time>
      </trkpt>
      <trkpt lat="48.13201" lon="6.85587">
        <ele>731.59997558594</ele>
        <time>2026-09-02T12:38:44.000Z</time>
      </trkpt>
      <trkpt lat="48.13201" lon="6.85587">
        <ele>731.59997558594</ele>
        <time>2026-09-02T12:38:45.000Z</time>
      </trkpt>
      <trkpt lat="48.13201" lon="6.85587">
        <ele>731.59997558594</ele>
        <time>2026-09-02T12:38:46.000Z</time>
      </trkpt>
      <trkpt lat="48.13201" lon="6.85587">
        <ele>731.59997558594</ele>
        <time>2026-09-02T12:38:47.000Z</time>
      </trkpt>
      <trkpt lat="48.13201" lon="6.85587">
        <ele>731.59997558594</ele>
        <time>2026-09-02T12:38:48.000Z</time>
      </trkpt>
      <trkpt lat="48.13201" lon="6.85587">
        <ele>731.80004882812</ele>
        <time>2026-09-02T12:38:49.000Z</time>
      </trkpt>
      <trkpt lat="48.13202" lon="6.85587">
        <ele>732</ele>
        <time>2026-09-02T12:38:50.000Z</time>
      </trkpt>
      <trkpt lat="48.13203" lon="6.85587">
        <ele>732</ele>
        <time>2026-09-02T12:38:51.000Z</time>
      </trkpt>
      <trkpt lat="48.13204" lon="6.85586">
        <ele>732</ele>
        <time>2026-09-02T12:38:52.000Z</time>
      </trkpt>
      <trkpt lat="48.13205" lon="6.85586">
        <ele>732</ele>
        <time>2026-09-02T12:38:53.000Z</time>
      </trkpt>
      <trkpt lat="48.13206" lon="6.85586">
        <ele>732.19995117188</ele>
        <time>2026-09-02T12:38:54.000Z</time>
      </trkpt>
      <trkpt lat="48.13207" lon="6.85585">
        <ele>732.19995117188</ele>
        <time>2026-09-02T12:38:55.000Z</time>
      </trkpt>
      <trkpt lat="48.13208" lon="6.85585">
        <ele>732.40002441406</ele>
        <time>2026-09-02T12:38:56.000Z</time>
      </trkpt>
      <trkpt lat="48.13209" lon="6.85585">
        <ele>732.40002441406</ele>
        <time>2026-09-02T12:38:57.000Z</time>
      </trkpt>
      <trkpt lat="48.1321" lon="6.85585">
        <ele>732.59997558594</ele>
        <time>2026-09-02T12:38:58.000Z</time>
      </trkpt>
      <trkpt lat="48.1321" lon="6.85586">
        <ele>732.59997558594</ele>
        <time>2026-09-02T12:38:59.000Z</time>
      </trkpt>
      <trkpt lat="48.13211" lon="6.85586">
        <ele>732.80004882812</ele>
        <time>2026-09-02T12:39:00.000Z</time>
      </trkpt>
      <trkpt lat="48.13212" lon="6.85586">
        <ele>732.80004882812</ele>
        <time>2026-09-02T12:39:01.000Z</time>
      </trkpt>
      <trkpt lat="48.13212" lon="6.85586">
        <ele>732.80004882812</ele>
        <time>2026-09-02T12:39:02.000Z</time>
      </trkpt>
      <trkpt lat="48.13213" lon="6.85586">
        <ele>732.80004882812</ele>
        <time>2026-09-02T12:39:03.000Z</time>
      </trkpt>
      <trkpt lat="48.13214" lon="6.85587">
        <ele>733</ele>
        <time>2026-09-02T12:39:04.000Z</time>
      </trkpt>
      <trkpt lat="48.13215" lon="6.85587">
        <ele>733</ele>
        <time>2026-09-02T12:39:05.000Z</time>
      </trkpt>
      <trkpt lat="48.13215" lon="6.85587">
        <ele>733</ele>
        <time>2026-09-02T12:39:06.000Z</time>
      </trkpt>
      <trkpt lat="48.13216" lon="6.85587">
        <ele>733</ele>
        <time>2026-09-02T12:39:07.000Z</time>
      </trkpt>
      <trkpt lat="48.13216" lon="6.85587">
        <ele>733.19995117188</ele>
        <time>2026-09-02T12:39:08.000Z</time>
      </trkpt>
      <trkpt lat="48.13217" lon="6.85587">
        <ele>733.19995117188</ele>
        <time>2026-09-02T12:39:09.000Z</time>
      </trkpt>
      <trkpt lat="48.13217" lon="6.85587">
        <ele>733.40002441406</ele>
        <time>2026-09-02T12:39:10.000Z</time>
      </trkpt>
      <trkpt lat="48.13218" lon="6.85587">
        <ele>733.40002441406</ele>
        <time>2026-09-02T12:39:11.000Z</time>
      </trkpt>
      <trkpt lat="48.13218" lon="6.85586">
        <ele>733.40002441406</ele>
        <time>2026-09-02T12:39:12.000Z</time>
      </trkpt>
      <trkpt lat="48.13219" lon="6.85586">
        <ele>733.40002441406</ele>
        <time>2026-09-02T12:39:13.000Z</time>
      </trkpt>
      <trkpt lat="48.13221" lon="6.85586">
        <ele>733.40002441406</ele>
        <time>2026-09-02T12:39:14.000Z</time>
      </trkpt>
      <trkpt lat="48.13221" lon="6.85586">
        <ele>733.40002441406</ele>
        <time>2026-09-02T12:39:15.000Z</time>
      </trkpt>
      <trkpt lat="48.13222" lon="6.85585">
        <ele>733.40002441406</ele>
        <time>2026-09-02T12:39:16.000Z</time>
      </trkpt>
      <trkpt lat="48.13223" lon="6.85585">
        <ele>733.40002441406</ele>
        <time>2026-09-02T12:39:17.000Z</time>
      </trkpt>
      <trkpt lat="48.13223" lon="6.85585">
        <ele>733.59997558594</ele>
        <time>2026-09-02T12:39:18.000Z</time>
      </trkpt>
      <trkpt lat="48.13224" lon="6.85585">
        <ele>733.59997558594</ele>
        <time>2026-09-02T12:39:19.000Z</time>
      </trkpt>
      <trkpt lat="48.13225" lon="6.85584">
        <ele>733.59997558594</ele>
        <time>2026-09-02T12:39:20.000Z</time>
      </trkpt>
      <trkpt lat="48.13225" lon="6.85584">
        <ele>733.80004882812</ele>
        <time>2026-09-02T12:39:21.000Z</time>
      </trkpt>
      <trkpt lat="48.13226" lon="6.85584">
        <ele>733.80004882812</ele>
        <time>2026-09-02T12:39:22.000Z</time>
      </trkpt>
      <trkpt lat="48.13227" lon="6.85583">
        <ele>733.80004882812</ele>
        <time>2026-09-02T12:39:23.000Z</time>
      </trkpt>
      <trkpt lat="48.13227" lon="6.85583">
        <ele>734</ele>
        <time>2026-09-02T12:39:24.000Z</time>
      </trkpt>
      <trkpt lat="48.13228" lon="6.85583">
        <ele>734</ele>
        <time>2026-09-02T12:39:25.000Z</time>
      </trkpt>
      <trkpt lat="48.13229" lon="6.85583">
        <ele>734</ele>
        <time>2026-09-02T12:39:26.000Z</time>
      </trkpt>
      <trkpt lat="48.1323" lon="6.85582">
        <ele>734.19995117188</ele>
        <time>2026-09-02T12:39:27.000Z</time>
      </trkpt>
      <trkpt lat="48.13231" lon="6.85582">
        <ele>734.19995117188</ele>
        <time>2026-09-02T12:39:28.000Z</time>
      </trkpt>
      <trkpt lat="48.13232" lon="6.85581">
        <ele>734.19995117188</ele>
        <time>2026-09-02T12:39:29.000Z</time>
      </trkpt>
      <trkpt lat="48.13233" lon="6.85581">
        <ele>734.19995117188</ele>
        <time>2026-09-02T12:39:30.000Z</time>
      </trkpt>
      <trkpt lat="48.13233" lon="6.85581">
        <ele>734.40002441406</ele>
        <time>2026-09-02T12:39:31.000Z</time>
      </trkpt>
      <trkpt lat="48.13234" lon="6.85581">
        <ele>734.59997558594</ele>
        <time>2026-09-02T12:39:32.000Z</time>
      </trkpt>
      <trkpt lat="48.13234" lon="6.85581">
        <ele>734.59997558594</ele>
        <time>2026-09-02T12:39:33.000Z</time>
      </trkpt>
      <trkpt lat="48.13235" lon="6.85581">
        <ele>734.59997558594</ele>
        <time>2026-09-02T12:39:34.000Z</time>
      </trkpt>
      <trkpt lat="48.13236" lon="6.8558">
        <ele>734.59997558594</ele>
        <time>2026-09-02T12:39:35.000Z</time>
      </trkpt>
      <trkpt lat="48.13237" lon="6.85579">
        <ele>734.80004882812</ele>
        <time>2026-09-02T12:39:36.000Z</time>
      </trkpt>
      <trkpt lat="48.13237" lon="6.85579">
        <ele>734.80004882812</ele>
        <time>2026-09-02T12:39:37.000Z</time>
      </trkpt>
      <trkpt lat="48.13238" lon="6.85579">
        <ele>734.80004882812</ele>
        <time>2026-09-02T12:39:38.000Z</time>
      </trkpt>
      <trkpt lat="48.13238" lon="6.85579">
        <ele>734.80004882812</ele>
        <time>2026-09-02T12:39:39.000Z</time>
      </trkpt>
      <trkpt lat="48.13238" lon="6.85579">
        <ele>734.80004882812</ele>
        <time>2026-09-02T12:39:40.000Z</time>
      </trkpt>
      <trkpt lat="48.13238" lon="6.85579">
        <ele>734.80004882812</ele>
        <time>2026-09-02T12:39:41.000Z</time>
      </trkpt>
      <trkpt lat="48.13238" lon="6.85579">
        <ele>734.80004882812</ele>
        <time>2026-09-02T12:39:42.000Z</time>
      </trkpt>
      <trkpt lat="48.13238" lon="6.85579">
        <ele>734.80004882812</ele>
        <time>2026-09-02T12:39:43.000Z</time>
      </trkpt>
      <trkpt lat="48.13238" lon="6.85579">
        <ele>734.80004882812</ele>
        <time>2026-09-02T12:39:44.000Z</time>
      </trkpt>
      <trkpt lat="48.13238" lon="6.85579">
        <ele>734.80004882812</ele>
        <time>2026-09-02T12:39:45.000Z</time>
      </trkpt>
      <trkpt lat="48.13238" lon="6.85579">
        <ele>734.80004882812</ele>
        <time>2026-09-02T12:39:46.000Z</time>
      </trkpt>
      <trkpt lat="48.13238" lon="6.85579">
        <ele>734.80004882812</ele>
        <time>2026-09-02T12:39:47.000Z</time>
      </trkpt>
      <trkpt lat="48.13238" lon="6.85579">
        <ele>734.80004882812</ele>
        <time>2026-09-02T12:39:48.000Z</time>
      </trkpt>
      <trkpt lat="48.13239" lon="6.85579">
        <ele>735</ele>
        <time>2026-09-02T12:39:49.000Z</time>
      </trkpt>
      <trkpt lat="48.1324" lon="6.85578">
        <ele>735</ele>
        <time>2026-09-02T12:39:50.000Z</time>
      </trkpt>
      <trkpt lat="48.13241" lon="6.85578">
        <ele>735</ele>
        <time>2026-09-02T12:39:51.000Z</time>
      </trkpt>
      <trkpt lat="48.13241" lon="6.85578">
        <ele>735</ele>
        <time>2026-09-02T12:39:52.000Z</time>
      </trkpt>
      <trkpt lat="48.13242" lon="6.85577">
        <ele>735.19995117188</ele>
        <time>2026-09-02T12:39:53.000Z</time>
      </trkpt>
      <trkpt lat="48.13242" lon="6.85578">
        <ele>735.40002441406</ele>
        <time>2026-09-02T12:39:54.000Z</time>
      </trkpt>
      <trkpt lat="48.13243" lon="6.85578">
        <ele>735.59997558594</ele>
        <time>2026-09-02T12:39:55.000Z</time>
      </trkpt>
      <trkpt lat="48.13244" lon="6.85578">
        <ele>735.59997558594</ele>
        <time>2026-09-02T12:39:56.000Z</time>
      </trkpt>
      <trkpt lat="48.13244" lon="6.85577">
        <ele>735.80004882812</ele>
        <time>2026-09-02T12:39:57.000Z</time>
      </trkpt>
      <trkpt lat="48.13245" lon="6.85576">
        <ele>735.80004882812</ele>
        <time>2026-09-02T12:39:58.000Z</time>
      </trkpt>
      <trkpt lat="48.13246" lon="6.85576">
        <ele>735.59997558594</ele>
        <time>2026-09-02T12:39:59.000Z</time>
      </trkpt>
      <trkpt lat="48.13247" lon="6.85576">
        <ele>735.59997558594</ele>
        <time>2026-09-02T12:40:00.000Z</time>
      </trkpt>
      <trkpt lat="48.13248" lon="6.85575">
        <ele>735.59997558594</ele>
        <time>2026-09-02T12:40:01.000Z</time>
      </trkpt>
      <trkpt lat="48.13249" lon="6.85575">
        <ele>735.59997558594</ele>
        <time>2026-09-02T12:40:02.000Z</time>
      </trkpt>
      <trkpt lat="48.1325" lon="6.85574">
        <ele>735.59997558594</ele>
        <time>2026-09-02T12:40:03.000Z</time>
      </trkpt>
      <trkpt lat="48.1325" lon="6.85574">
        <ele>735.59997558594</ele>
        <time>2026-09-02T12:40:04.000Z</time>
      </trkpt>
      <trkpt lat="48.1325" lon="6.85575">
        <ele>735.59997558594</ele>
        <time>2026-09-02T12:40:05.000Z</time>
      </trkpt>
      <trkpt lat="48.13251" lon="6.85574">
        <ele>735.59997558594</ele>
        <time>2026-09-02T12:40:06.000Z</time>
      </trkpt>
      <trkpt lat="48.13252" lon="6.85574">
        <ele>735.59997558594</ele>
        <time>2026-09-02T12:40:07.000Z</time>
      </trkpt>
      <trkpt lat="48.13252" lon="6.85573">
        <ele>735.40002441406</ele>
        <time>2026-09-02T12:40:08.000Z</time>
      </trkpt>
      <trkpt lat="48.13253" lon="6.85573">
        <ele>735.40002441406</ele>
        <time>2026-09-02T12:40:09.000Z</time>
      </trkpt>
      <trkpt lat="48.13254" lon="6.85573">
        <ele>735.59997558594</ele>
        <time>2026-09-02T12:40:10.000Z</time>
      </trkpt>
      <trkpt lat="48.13254" lon="6.85573">
        <ele>735.59997558594</ele>
        <time>2026-09-02T12:40:11.000Z</time>
      </trkpt>
      <trkpt lat="48.13255" lon="6.85572">
        <ele>735.59997558594</ele>
        <time>2026-09-02T12:40:12.000Z</time>
      </trkpt>
      <trkpt lat="48.13256" lon="6.85572">
        <ele>735.80004882812</ele>
        <time>2026-09-02T12:40:13.000Z</time>
      </trkpt>
      <trkpt lat="48.13257" lon="6.85572">
        <ele>735.80004882812</ele>
        <time>2026-09-02T12:40:14.000Z</time>
      </trkpt>
      <trkpt lat="48.13257" lon="6.85571">
        <ele>735.80004882812</ele>
        <time>2026-09-02T12:40:15.000Z</time>
      </trkpt>
      <trkpt lat="48.13258" lon="6.85571">
        <ele>735.59997558594</ele>
        <time>2026-09-02T12:40:16.000Z</time>
      </trkpt>
      <trkpt lat="48.13258" lon="6.8557">
        <ele>735.59997558594</ele>
        <time>2026-09-02T12:40:17.000Z</time>
      </trkpt>
      <trkpt lat="48.13259" lon="6.85569">
        <ele>735.59997558594</ele>
        <time>2026-09-02T12:40:18.000Z</time>
      </trkpt>
      <trkpt lat="48.1326" lon="6.85568">
        <ele>735.80004882812</ele>
        <time>2026-09-02T12:40:19.000Z</time>
      </trkpt>
      <trkpt lat="48.13261" lon="6.85568">
        <ele>736</ele>
        <time>2026-09-02T12:40:20.000Z</time>
      </trkpt>
      <trkpt lat="48.13262" lon="6.85568">
        <ele>736</ele>
        <time>2026-09-02T12:40:21.000Z</time>
      </trkpt>
      <trkpt lat="48.13263" lon="6.85567">
        <ele>736</ele>
        <time>2026-09-02T12:40:22.000Z</time>
      </trkpt>
      <trkpt lat="48.13264" lon="6.85567">
        <ele>736</ele>
        <time>2026-09-02T12:40:23.000Z</time>
      </trkpt>
      <trkpt lat="48.13264" lon="6.85566">
        <ele>736</ele>
        <time>2026-09-02T12:40:24.000Z</time>
      </trkpt>
      <trkpt lat="48.13265" lon="6.85565">
        <ele>736</ele>
        <time>2026-09-02T12:40:25.000Z</time>
      </trkpt>
      <trkpt lat="48.13266" lon="6.85564">
        <ele>736</ele>
        <time>2026-09-02T12:40:26.000Z</time>
      </trkpt>
      <trkpt lat="48.13266" lon="6.85564">
        <ele>736</ele>
        <time>2026-09-02T12:40:27.000Z</time>
      </trkpt>
      <trkpt lat="48.13266" lon="6.85564">
        <ele>736</ele>
        <time>2026-09-02T12:40:28.000Z</time>
      </trkpt>
      <trkpt lat="48.13267" lon="6.85563">
        <ele>735.80004882812</ele>
        <time>2026-09-02T12:40:29.000Z</time>
      </trkpt>
      <trkpt lat="48.13268" lon="6.85562">
        <ele>735.80004882812</ele>
        <time>2026-09-02T12:40:30.000Z</time>
      </trkpt>
      <trkpt lat="48.13269" lon="6.85562">
        <ele>735.80004882812</ele>
        <time>2026-09-02T12:40:31.000Z</time>
      </trkpt>
      <trkpt lat="48.13269" lon="6.85561">
        <ele>735.80004882812</ele>
        <time>2026-09-02T12:40:32.000Z</time>
      </trkpt>
      <trkpt lat="48.1327" lon="6.8556">
        <ele>735.59997558594</ele>
        <time>2026-09-02T12:40:33.000Z</time>
      </trkpt>
      <trkpt lat="48.1327" lon="6.8556">
        <ele>735.59997558594</ele>
        <time>2026-09-02T12:40:34.000Z</time>
      </trkpt>
      <trkpt lat="48.13271" lon="6.85558">
        <ele>735.59997558594</ele>
        <time>2026-09-02T12:40:35.000Z</time>
      </trkpt>
      <trkpt lat="48.13271" lon="6.85557">
        <ele>735.59997558594</ele>
        <time>2026-09-02T12:40:36.000Z</time>
      </trkpt>
      <trkpt lat="48.13272" lon="6.85557">
        <ele>735.59997558594</ele>
        <time>2026-09-02T12:40:37.000Z</time>
      </trkpt>
      <trkpt lat="48.13273" lon="6.85556">
        <ele>735.80004882812</ele>
        <time>2026-09-02T12:40:38.000Z</time>
      </trkpt>
      <trkpt lat="48.13273" lon="6.85555">
        <ele>735.80004882812</ele>
        <time>2026-09-02T12:40:39.000Z</time>
      </trkpt>
      <trkpt lat="48.13274" lon="6.85555">
        <ele>735.80004882812</ele>
        <time>2026-09-02T12:40:40.000Z</time>
      </trkpt>
      <trkpt lat="48.13275" lon="6.85554">
        <ele>735.80004882812</ele>
        <time>2026-09-02T12:40:41.000Z</time>
      </trkpt>
      <trkpt lat="48.13275" lon="6.85554">
        <ele>735.80004882812</ele>
        <time>2026-09-02T12:40:42.000Z</time>
      </trkpt>
      <trkpt lat="48.13275" lon="6.85553">
        <ele>735.80004882812</ele>
        <time>2026-09-02T12:40:43.000Z</time>
      </trkpt>
      <trkpt lat="48.13277" lon="6.85552">
        <ele>735.59997558594</ele>
        <time>2026-09-02T12:40:44.000Z</time>
      </trkpt>
      <trkpt lat="48.13277" lon="6.85551">
        <ele>735.59997558594</ele>
        <time>2026-09-02T12:40:45.000Z</time>
      </trkpt>
      <trkpt lat="48.13277" lon="6.85551">
        <ele>735.59997558594</ele>
        <time>2026-09-02T12:40:46.000Z</time>
      </trkpt>
      <trkpt lat="48.13277" lon="6.85551">
        <ele>735.59997558594</ele>
        <time>2026-09-02T12:40:47.000Z</time>
      </trkpt>
      <trkpt lat="48.13279" lon="6.85549">
        <ele>735.40002441406</ele>
        <time>2026-09-02T12:40:48.000Z</time>
      </trkpt>
      <trkpt lat="48.13279" lon="6.85548">
        <ele>735.40002441406</ele>
        <time>2026-09-02T12:40:49.000Z</time>
      </trkpt>
      <trkpt lat="48.1328" lon="6.85548">
        <ele>735.40002441406</ele>
        <time>2026-09-02T12:40:50.000Z</time>
      </trkpt>
      <trkpt lat="48.13281" lon="6.85547">
        <ele>735.40002441406</ele>
        <time>2026-09-02T12:40:51.000Z</time>
      </trkpt>
      <trkpt lat="48.13281" lon="6.85546">
        <ele>735.40002441406</ele>
        <time>2026-09-02T12:40:52.000Z</time>
      </trkpt>
      <trkpt lat="48.13282" lon="6.85546">
        <ele>735.59997558594</ele>
        <time>2026-09-02T12:40:53.000Z</time>
      </trkpt>
      <trkpt lat="48.13283" lon="6.85545">
        <ele>735.59997558594</ele>
        <time>2026-09-02T12:40:54.000Z</time>
      </trkpt>
      <trkpt lat="48.13283" lon="6.85545">
        <ele>735.59997558594</ele>
        <time>2026-09-02T12:40:55.000Z</time>
      </trkpt>
      <trkpt lat="48.13283" lon="6.85544">
        <ele>735.80004882812</ele>
        <time>2026-09-02T12:40:56.000Z</time>
      </trkpt>
      <trkpt lat="48.13284" lon="6.85543">
        <ele>735.80004882812</ele>
        <time>2026-09-02T12:40:57.000Z</time>
      </trkpt>
      <trkpt lat="48.13284" lon="6.85543">
        <ele>735.80004882812</ele>
        <time>2026-09-02T12:40:58.000Z</time>
      </trkpt>
      <trkpt lat="48.13285" lon="6.85542">
        <ele>735.80004882812</ele>
        <time>2026-09-02T12:40:59.000Z</time>
      </trkpt>
      <trkpt lat="48.13286" lon="6.85541">
        <ele>735.80004882812</ele>
        <time>2026-09-02T12:41:00.000Z</time>
      </trkpt>
      <trkpt lat="48.13287" lon="6.8554">
        <ele>735.59997558594</ele>
        <time>2026-09-02T12:41:01.000Z</time>
      </trkpt>
      <trkpt lat="48.13287" lon="6.8554">
        <ele>735.59997558594</ele>
        <time>2026-09-02T12:41:02.000Z</time>
      </trkpt>
      <trkpt lat="48.13288" lon="6.85539">
        <ele>735.59997558594</ele>
        <time>2026-09-02T12:41:03.000Z</time>
      </trkpt>
      <trkpt lat="48.13289" lon="6.85539">
        <ele>735.59997558594</ele>
        <time>2026-09-02T12:41:04.000Z</time>
      </trkpt>
      <trkpt lat="48.1329" lon="6.85539">
        <ele>735.59997558594</ele>
        <time>2026-09-02T12:41:05.000Z</time>
      </trkpt>
      <trkpt lat="48.13291" lon="6.85539">
        <ele>735.59997558594</ele>
        <time>2026-09-02T12:41:06.000Z</time>
      </trkpt>
      <trkpt lat="48.13291" lon="6.85538">
        <ele>735.59997558594</ele>
        <time>2026-09-02T12:41:07.000Z</time>
      </trkpt>
      <trkpt lat="48.13291" lon="6.85538">
        <ele>735.59997558594</ele>
        <time>2026-09-02T12:41:08.000Z</time>
      </trkpt>
      <trkpt lat="48.13293" lon="6.85538">
        <ele>735.59997558594</ele>
        <time>2026-09-02T12:41:09.000Z</time>
      </trkpt>
      <trkpt lat="48.13293" lon="6.85538">
        <ele>735.80004882812</ele>
        <time>2026-09-02T12:41:10.000Z</time>
      </trkpt>
      <trkpt lat="48.13294" lon="6.85539">
        <ele>735.80004882812</ele>
        <time>2026-09-02T12:41:11.000Z</time>
      </trkpt>
      <trkpt lat="48.13295" lon="6.85539">
        <ele>736</ele>
        <time>2026-09-02T12:41:12.000Z</time>
      </trkpt>
      <trkpt lat="48.13295" lon="6.85539">
        <ele>736</ele>
        <time>2026-09-02T12:41:13.000Z</time>
      </trkpt>
      <trkpt lat="48.13296" lon="6.85539">
        <ele>736</ele>
        <time>2026-09-02T12:41:14.000Z</time>
      </trkpt>
      <trkpt lat="48.13296" lon="6.85538">
        <ele>736</ele>
        <time>2026-09-02T12:41:15.000Z</time>
      </trkpt>
      <trkpt lat="48.13297" lon="6.85537">
        <ele>736.19995117188</ele>
        <time>2026-09-02T12:41:16.000Z</time>
      </trkpt>
      <trkpt lat="48.13297" lon="6.85537">
        <ele>736.19995117188</ele>
        <time>2026-09-02T12:41:17.000Z</time>
      </trkpt>
      <trkpt lat="48.13299" lon="6.85537">
        <ele>736.40002441406</ele>
        <time>2026-09-02T12:41:18.000Z</time>
      </trkpt>
      <trkpt lat="48.133" lon="6.85537">
        <ele>736.40002441406</ele>
        <time>2026-09-02T12:41:19.000Z</time>
      </trkpt>
      <trkpt lat="48.133" lon="6.85538">
        <ele>736.40002441406</ele>
        <time>2026-09-02T12:41:20.000Z</time>
      </trkpt>
      <trkpt lat="48.13301" lon="6.85538">
        <ele>736.19995117188</ele>
        <time>2026-09-02T12:41:21.000Z</time>
      </trkpt>
      <trkpt lat="48.13301" lon="6.85537">
        <ele>736.19995117188</ele>
        <time>2026-09-02T12:41:22.000Z</time>
      </trkpt>
      <trkpt lat="48.13302" lon="6.85537">
        <ele>736.19995117188</ele>
        <time>2026-09-02T12:41:23.000Z</time>
      </trkpt>
      <trkpt lat="48.13303" lon="6.85537">
        <ele>736</ele>
        <time>2026-09-02T12:41:24.000Z</time>
      </trkpt>
      <trkpt lat="48.13304" lon="6.85537">
        <ele>736</ele>
        <time>2026-09-02T12:41:25.000Z</time>
      </trkpt>
      <trkpt lat="48.13304" lon="6.85537">
        <ele>736.19995117188</ele>
        <time>2026-09-02T12:41:26.000Z</time>
      </trkpt>
      <trkpt lat="48.13305" lon="6.85537">
        <ele>736.19995117188</ele>
        <time>2026-09-02T12:41:27.000Z</time>
      </trkpt>
      <trkpt lat="48.13305" lon="6.85537">
        <ele>736.19995117188</ele>
        <time>2026-09-02T12:41:28.000Z</time>
      </trkpt>
      <trkpt lat="48.13305" lon="6.85536">
        <ele>736.40002441406</ele>
        <time>2026-09-02T12:41:29.000Z</time>
      </trkpt>
      <trkpt lat="48.13306" lon="6.85536">
        <ele>736.59997558594</ele>
        <time>2026-09-02T12:41:30.000Z</time>
      </trkpt>
      <trkpt lat="48.13306" lon="6.85536">
        <ele>736.59997558594</ele>
        <time>2026-09-02T12:41:31.000Z</time>
      </trkpt>
      <trkpt lat="48.13307" lon="6.85536">
        <ele>736.80004882812</ele>
        <time>2026-09-02T12:41:32.000Z</time>
      </trkpt>
      <trkpt lat="48.13308" lon="6.85536">
        <ele>736.80004882812</ele>
        <time>2026-09-02T12:41:33.000Z</time>
      </trkpt>
      <trkpt lat="48.13309" lon="6.85536">
        <ele>736.80004882812</ele>
        <time>2026-09-02T12:41:34.000Z</time>
      </trkpt>
      <trkpt lat="48.13309" lon="6.85535">
        <ele>736.80004882812</ele>
        <time>2026-09-02T12:41:35.000Z</time>
      </trkpt>
      <trkpt lat="48.1331" lon="6.85535">
        <ele>736.80004882812</ele>
        <time>2026-09-02T12:41:36.000Z</time>
      </trkpt>
      <trkpt lat="48.13311" lon="6.85534">
        <ele>736.80004882812</ele>
        <time>2026-09-02T12:41:37.000Z</time>
      </trkpt>
      <trkpt lat="48.13311" lon="6.85534">
        <ele>736.80004882812</ele>
        <time>2026-09-02T12:41:38.000Z</time>
      </trkpt>
      <trkpt lat="48.13311" lon="6.85534">
        <ele>737</ele>
        <time>2026-09-02T12:41:39.000Z</time>
      </trkpt>
      <trkpt lat="48.13312" lon="6.85534">
        <ele>737</ele>
        <time>2026-09-02T12:41:40.000Z</time>
      </trkpt>
      <trkpt lat="48.13312" lon="6.85535">
        <ele>737</ele>
        <time>2026-09-02T12:41:41.000Z</time>
      </trkpt>
      <trkpt lat="48.13313" lon="6.85535">
        <ele>737</ele>
        <time>2026-09-02T12:41:42.000Z</time>
      </trkpt>
      <trkpt lat="48.13314" lon="6.85535">
        <ele>737.19995117188</ele>
        <time>2026-09-02T12:41:43.000Z</time>
      </trkpt>
      <trkpt lat="48.13315" lon="6.85535">
        <ele>737.19995117188</ele>
        <time>2026-09-02T12:41:44.000Z</time>
      </trkpt>
      <trkpt lat="48.13315" lon="6.85535">
        <ele>737.19995117188</ele>
        <time>2026-09-02T12:41:45.000Z</time>
      </trkpt>
      <trkpt lat="48.13316" lon="6.85535">
        <ele>737.19995117188</ele>
        <time>2026-09-02T12:41:46.000Z</time>
      </trkpt>
      <trkpt lat="48.13317" lon="6.85535">
        <ele>737.19995117188</ele>
        <time>2026-09-02T12:41:47.000Z</time>
      </trkpt>
      <trkpt lat="48.13318" lon="6.85535">
        <ele>737.40002441406</ele>
        <time>2026-09-02T12:41:48.000Z</time>
      </trkpt>
      <trkpt lat="48.13319" lon="6.85535">
        <ele>737.40002441406</ele>
        <time>2026-09-02T12:41:49.000Z</time>
      </trkpt>
      <trkpt lat="48.13319" lon="6.85535">
        <ele>737.40002441406</ele>
        <time>2026-09-02T12:41:50.000Z</time>
      </trkpt>
      <trkpt lat="48.13319" lon="6.85535">
        <ele>737.59997558594</ele>
        <time>2026-09-02T12:41:51.000Z</time>
      </trkpt>
      <trkpt lat="48.1332" lon="6.85535">
        <ele>737.59997558594</ele>
        <time>2026-09-02T12:41:52.000Z</time>
      </trkpt>
      <trkpt lat="48.1332" lon="6.85536">
        <ele>737.80004882812</ele>
        <time>2026-09-02T12:41:53.000Z</time>
      </trkpt>
      <trkpt lat="48.13321" lon="6.85536">
        <ele>737.80004882812</ele>
        <time>2026-09-02T12:41:54.000Z</time>
      </trkpt>
      <trkpt lat="48.13321" lon="6.85536">
        <ele>738</ele>
        <time>2026-09-02T12:41:55.000Z</time>
      </trkpt>
      <trkpt lat="48.13321" lon="6.85536">
        <ele>738</ele>
        <time>2026-09-02T12:41:56.000Z</time>
      </trkpt>
      <trkpt lat="48.13321" lon="6.85536">
        <ele>737.80004882812</ele>
        <time>2026-09-02T12:41:57.000Z</time>
      </trkpt>
      <trkpt lat="48.13321" lon="6.85536">
        <ele>737.80004882812</ele>
        <time>2026-09-02T12:41:58.000Z</time>
      </trkpt>
      <trkpt lat="48.13321" lon="6.85536">
        <ele>738</ele>
        <time>2026-09-02T12:41:59.000Z</time>
      </trkpt>
      <trkpt lat="48.13321" lon="6.85536">
        <ele>738</ele>
        <time>2026-09-02T12:42:00.000Z</time>
      </trkpt>
      <trkpt lat="48.13322" lon="6.85536">
        <ele>738</ele>
        <time>2026-09-02T12:42:01.000Z</time>
      </trkpt>
      <trkpt lat="48.13323" lon="6.85537">
        <ele>738.19995117188</ele>
        <time>2026-09-02T12:42:02.000Z</time>
      </trkpt>
      <trkpt lat="48.13324" lon="6.85537">
        <ele>738.19995117188</ele>
        <time>2026-09-02T12:42:03.000Z</time>
      </trkpt>
      <trkpt lat="48.13324" lon="6.85537">
        <ele>738.19995117188</ele>
        <time>2026-09-02T12:42:04.000Z</time>
      </trkpt>
      <trkpt lat="48.13324" lon="6.85538">
        <ele>738.40002441406</ele>
        <time>2026-09-02T12:42:05.000Z</time>
      </trkpt>
      <trkpt lat="48.13325" lon="6.85538">
        <ele>738.59997558594</ele>
        <time>2026-09-02T12:42:06.000Z</time>
      </trkpt>
      <trkpt lat="48.13326" lon="6.85539">
        <ele>738.80004882812</ele>
        <time>2026-09-02T12:42:07.000Z</time>
      </trkpt>
      <trkpt lat="48.13326" lon="6.85539">
        <ele>739</ele>
        <time>2026-09-02T12:42:08.000Z</time>
      </trkpt>
      <trkpt lat="48.13327" lon="6.8554">
        <ele>739.19995117188</ele>
        <time>2026-09-02T12:42:09.000Z</time>
      </trkpt>
      <trkpt lat="48.13327" lon="6.8554">
        <ele>739.19995117188</ele>
        <time>2026-09-02T12:42:10.000Z</time>
      </trkpt>
      <trkpt lat="48.13327" lon="6.85541">
        <ele>739.40002441406</ele>
        <time>2026-09-02T12:42:11.000Z</time>
      </trkpt>
      <trkpt lat="48.13328" lon="6.85541">
        <ele>739.40002441406</ele>
        <time>2026-09-02T12:42:12.000Z</time>
      </trkpt>
      <trkpt lat="48.13328" lon="6.85541">
        <ele>739.40002441406</ele>
        <time>2026-09-02T12:42:13.000Z</time>
      </trkpt>
      <trkpt lat="48.13328" lon="6.85541">
        <ele>739.40002441406</ele>
        <time>2026-09-02T12:42:14.000Z</time>
      </trkpt>
      <trkpt lat="48.13328" lon="6.85541">
        <ele>739.59997558594</ele>
        <time>2026-09-02T12:42:15.000Z</time>
      </trkpt>
      <trkpt lat="48.13328" lon="6.85541">
        <ele>739.59997558594</ele>
        <time>2026-09-02T12:42:16.000Z</time>
      </trkpt>
      <trkpt lat="48.13329" lon="6.85542">
        <ele>739.80004882812</ele>
        <time>2026-09-02T12:42:17.000Z</time>
      </trkpt>
      <trkpt lat="48.13329" lon="6.85542">
        <ele>739.80004882812</ele>
        <time>2026-09-02T12:42:18.000Z</time>
      </trkpt>
      <trkpt lat="48.13329" lon="6.85542">
        <ele>740</ele>
        <time>2026-09-02T12:42:19.000Z</time>
      </trkpt>
      <trkpt lat="48.13329" lon="6.85542">
        <ele>740</ele>
        <time>2026-09-02T12:42:20.000Z</time>
      </trkpt>
      <trkpt lat="48.13329" lon="6.85542">
        <ele>740</ele>
        <time>2026-09-02T12:42:21.000Z</time>
      </trkpt>
      <trkpt lat="48.1333" lon="6.85543">
        <ele>740</ele>
        <time>2026-09-02T12:42:22.000Z</time>
      </trkpt>
      <trkpt lat="48.13329" lon="6.85543">
        <ele>740</ele>
        <time>2026-09-02T12:42:23.000Z</time>
      </trkpt>
      <trkpt lat="48.13331" lon="6.85543">
        <ele>740</ele>
        <time>2026-09-02T12:42:24.000Z</time>
      </trkpt>
      <trkpt lat="48.13331" lon="6.85543">
        <ele>740.19995117188</ele>
        <time>2026-09-02T12:42:25.000Z</time>
      </trkpt>
      <trkpt lat="48.13332" lon="6.85544">
        <ele>740.19995117188</ele>
        <time>2026-09-02T12:42:26.000Z</time>
      </trkpt>
      <trkpt lat="48.13332" lon="6.85544">
        <ele>740.19995117188</ele>
        <time>2026-09-02T12:42:27.000Z</time>
      </trkpt>
      <trkpt lat="48.13333" lon="6.85545">
        <ele>740.40002441406</ele>
        <time>2026-09-02T12:42:28.000Z</time>
      </trkpt>
      <trkpt lat="48.13333" lon="6.85544">
        <ele>740.59997558594</ele>
        <time>2026-09-02T12:42:29.000Z</time>
      </trkpt>
      <trkpt lat="48.13334" lon="6.85545">
        <ele>740.59997558594</ele>
        <time>2026-09-02T12:42:30.000Z</time>
      </trkpt>
      <trkpt lat="48.13334" lon="6.85545">
        <ele>740.80004882812</ele>
        <time>2026-09-02T12:42:31.000Z</time>
      </trkpt>
      <trkpt lat="48.13334" lon="6.85546">
        <ele>740.80004882812</ele>
        <time>2026-09-02T12:42:32.000Z</time>
      </trkpt>
      <trkpt lat="48.13334" lon="6.85547">
        <ele>740.80004882812</ele>
        <time>2026-09-02T12:42:33.000Z</time>
      </trkpt>
      <trkpt lat="48.13334" lon="6.85547">
        <ele>740.80004882812</ele>
        <time>2026-09-02T12:42:34.000Z</time>
      </trkpt>
      <trkpt lat="48.13334" lon="6.85547">
        <ele>740.59997558594</ele>
        <time>2026-09-02T12:42:35.000Z</time>
      </trkpt>
      <trkpt lat="48.13334" lon="6.85547">
        <ele>740.59997558594</ele>
        <time>2026-09-02T12:42:36.000Z</time>
      </trkpt>
      <trkpt lat="48.13334" lon="6.85547">
        <ele>740.59997558594</ele>
        <time>2026-09-02T12:42:37.000Z</time>
      </trkpt>
      <trkpt lat="48.13334" lon="6.85547">
        <ele>740.59997558594</ele>
        <time>2026-09-02T12:42:38.000Z</time>
      </trkpt>
      <trkpt lat="48.13335" lon="6.85547">
        <ele>740.59997558594</ele>
        <time>2026-09-02T12:42:39.000Z</time>
      </trkpt>
      <trkpt lat="48.13335" lon="6.85548">
        <ele>740.80004882812</ele>
        <time>2026-09-02T12:42:40.000Z</time>
      </trkpt>
      <trkpt lat="48.13336" lon="6.85549">
        <ele>740.80004882812</ele>
        <time>2026-09-02T12:42:41.000Z</time>
      </trkpt>
      <trkpt lat="48.13336" lon="6.85549">
        <ele>741</ele>
        <time>2026-09-02T12:42:42.000Z</time>
      </trkpt>
      <trkpt lat="48.13336" lon="6.85549">
        <ele>741</ele>
        <time>2026-09-02T12:42:43.000Z</time>
      </trkpt>
      <trkpt lat="48.13337" lon="6.8555">
        <ele>741.19995117188</ele>
        <time>2026-09-02T12:42:44.000Z</time>
      </trkpt>
      <trkpt lat="48.13337" lon="6.8555">
        <ele>741.19995117188</ele>
        <time>2026-09-02T12:42:45.000Z</time>
      </trkpt>
      <trkpt lat="48.13338" lon="6.85551">
        <ele>741.19995117188</ele>
        <time>2026-09-02T12:42:46.000Z</time>
      </trkpt>
      <trkpt lat="48.13338" lon="6.85551">
        <ele>741.40002441406</ele>
        <time>2026-09-02T12:42:47.000Z</time>
      </trkpt>
      <trkpt lat="48.13338" lon="6.85552">
        <ele>741.59997558594</ele>
        <time>2026-09-02T12:42:48.000Z</time>
      </trkpt>
      <trkpt lat="48.13338" lon="6.85552">
        <ele>741.80004882812</ele>
        <time>2026-09-02T12:42:49.000Z</time>
      </trkpt>
      <trkpt lat="48.13339" lon="6.85553">
        <ele>742</ele>
        <time>2026-09-02T12:42:50.000Z</time>
      </trkpt>
      <trkpt lat="48.13339" lon="6.85553">
        <ele>742</ele>
        <time>2026-09-02T12:42:51.000Z</time>
      </trkpt>
      <trkpt lat="48.1334" lon="6.85553">
        <ele>742.19995117188</ele>
        <time>2026-09-02T12:42:52.000Z</time>
      </trkpt>
      <trkpt lat="48.1334" lon="6.85553">
        <ele>742.19995117188</ele>
        <time>2026-09-02T12:42:53.000Z</time>
      </trkpt>
      <trkpt lat="48.1334" lon="6.85553">
        <ele>742.19995117188</ele>
        <time>2026-09-02T12:42:54.000Z</time>
      </trkpt>
      <trkpt lat="48.13341" lon="6.85553">
        <ele>742</ele>
        <time>2026-09-02T12:42:55.000Z</time>
      </trkpt>
      <trkpt lat="48.13341" lon="6.85553">
        <ele>742</ele>
        <time>2026-09-02T12:42:56.000Z</time>
      </trkpt>
      <trkpt lat="48.13341" lon="6.85553">
        <ele>742</ele>
        <time>2026-09-02T12:42:57.000Z</time>
      </trkpt>
      <trkpt lat="48.13341" lon="6.85553">
        <ele>742</ele>
        <time>2026-09-02T12:42:58.000Z</time>
      </trkpt>
      <trkpt lat="48.13341" lon="6.85553">
        <ele>742.19995117188</ele>
        <time>2026-09-02T12:42:59.000Z</time>
      </trkpt>
      <trkpt lat="48.13341" lon="6.85553">
        <ele>742.19995117188</ele>
        <time>2026-09-02T12:43:00.000Z</time>
      </trkpt>
      <trkpt lat="48.13341" lon="6.85553">
        <ele>742.19995117188</ele>
        <time>2026-09-02T12:43:01.000Z</time>
      </trkpt>
      <trkpt lat="48.13341" lon="6.85553">
        <ele>742.40002441406</ele>
        <time>2026-09-02T12:43:02.000Z</time>
      </trkpt>
      <trkpt lat="48.13342" lon="6.85553">
        <ele>742.40002441406</ele>
        <time>2026-09-02T12:43:03.000Z</time>
      </trkpt>
      <trkpt lat="48.13342" lon="6.85553">
        <ele>742.40002441406</ele>
        <time>2026-09-02T12:43:04.000Z</time>
      </trkpt>
      <trkpt lat="48.13343" lon="6.85554">
        <ele>742.40002441406</ele>
        <time>2026-09-02T12:43:05.000Z</time>
      </trkpt>
      <trkpt lat="48.13343" lon="6.85554">
        <ele>742.19995117188</ele>
        <time>2026-09-02T12:43:06.000Z</time>
      </trkpt>
      <trkpt lat="48.13344" lon="6.85555">
        <ele>742.19995117188</ele>
        <time>2026-09-02T12:43:07.000Z</time>
      </trkpt>
      <trkpt lat="48.13345" lon="6.85555">
        <ele>742.40002441406</ele>
        <time>2026-09-02T12:43:08.000Z</time>
      </trkpt>
      <trkpt lat="48.13345" lon="6.85556">
        <ele>742.40002441406</ele>
        <time>2026-09-02T12:43:09.000Z</time>
      </trkpt>
      <trkpt lat="48.13345" lon="6.85557">
        <ele>742.59997558594</ele>
        <time>2026-09-02T12:43:10.000Z</time>
      </trkpt>
      <trkpt lat="48.13346" lon="6.85557">
        <ele>742.59997558594</ele>
        <time>2026-09-02T12:43:11.000Z</time>
      </trkpt>
      <trkpt lat="48.13346" lon="6.85557">
        <ele>742.80004882812</ele>
        <time>2026-09-02T12:43:12.000Z</time>
      </trkpt>
      <trkpt lat="48.13346" lon="6.85558">
        <ele>742.80004882812</ele>
        <time>2026-09-02T12:43:13.000Z</time>
      </trkpt>
      <trkpt lat="48.13347" lon="6.85558">
        <ele>742.80004882812</ele>
        <time>2026-09-02T12:43:14.000Z</time>
      </trkpt>
      <trkpt lat="48.13347" lon="6.85559">
        <ele>742.80004882812</ele>
        <time>2026-09-02T12:43:15.000Z</time>
      </trkpt>
      <trkpt lat="48.13348" lon="6.8556">
        <ele>743</ele>
        <time>2026-09-02T12:43:16.000Z</time>
      </trkpt>
      <trkpt lat="48.13349" lon="6.85562">
        <ele>743</ele>
        <time>2026-09-02T12:43:17.000Z</time>
      </trkpt>
      <trkpt lat="48.13349" lon="6.85563">
        <ele>743</ele>
        <time>2026-09-02T12:43:18.000Z</time>
      </trkpt>
      <trkpt lat="48.13349" lon="6.85563">
        <ele>743.19995117188</ele>
        <time>2026-09-02T12:43:19.000Z</time>
      </trkpt>
      <trkpt lat="48.13349" lon="6.85564">
        <ele>743.19995117188</ele>
        <time>2026-09-02T12:43:20.000Z</time>
      </trkpt>
      <trkpt lat="48.13349" lon="6.85563">
        <ele>743.19995117188</ele>
        <time>2026-09-02T12:43:21.000Z</time>
      </trkpt>
      <trkpt lat="48.1335" lon="6.85564">
        <ele>743.40002441406</ele>
        <time>2026-09-02T12:43:22.000Z</time>
      </trkpt>
      <trkpt lat="48.1335" lon="6.85564">
        <ele>743.40002441406</ele>
        <time>2026-09-02T12:43:23.000Z</time>
      </trkpt>
      <trkpt lat="48.13351" lon="6.85564">
        <ele>743.40002441406</ele>
        <time>2026-09-02T12:43:24.000Z</time>
      </trkpt>
      <trkpt lat="48.13352" lon="6.85565">
        <ele>743.59997558594</ele>
        <time>2026-09-02T12:43:25.000Z</time>
      </trkpt>
      <trkpt lat="48.13352" lon="6.85566">
        <ele>743.59997558594</ele>
        <time>2026-09-02T12:43:26.000Z</time>
      </trkpt>
      <trkpt lat="48.13353" lon="6.85567">
        <ele>743.80004882812</ele>
        <time>2026-09-02T12:43:27.000Z</time>
      </trkpt>
      <trkpt lat="48.13352" lon="6.85568">
        <ele>743.80004882812</ele>
        <time>2026-09-02T12:43:28.000Z</time>
      </trkpt>
      <trkpt lat="48.13353" lon="6.85568">
        <ele>743.80004882812</ele>
        <time>2026-09-02T12:43:29.000Z</time>
      </trkpt>
      <trkpt lat="48.13353" lon="6.85569">
        <ele>743.80004882812</ele>
        <time>2026-09-02T12:43:30.000Z</time>
      </trkpt>
      <trkpt lat="48.13353" lon="6.85569">
        <ele>744</ele>
        <time>2026-09-02T12:43:31.000Z</time>
      </trkpt>
      <trkpt lat="48.13353" lon="6.8557">
        <ele>744</ele>
        <time>2026-09-02T12:43:32.000Z</time>
      </trkpt>
      <trkpt lat="48.13353" lon="6.85572">
        <ele>744.19995117188</ele>
        <time>2026-09-02T12:43:33.000Z</time>
      </trkpt>
      <trkpt lat="48.13353" lon="6.85572">
        <ele>744.40002441406</ele>
        <time>2026-09-02T12:43:34.000Z</time>
      </trkpt>
      <trkpt lat="48.13353" lon="6.85573">
        <ele>744.40002441406</ele>
        <time>2026-09-02T12:43:35.000Z</time>
      </trkpt>
      <trkpt lat="48.13354" lon="6.85575">
        <ele>744.40002441406</ele>
        <time>2026-09-02T12:43:36.000Z</time>
      </trkpt>
      <trkpt lat="48.13354" lon="6.85576">
        <ele>744.59997558594</ele>
        <time>2026-09-02T12:43:37.000Z</time>
      </trkpt>
      <trkpt lat="48.13354" lon="6.85577">
        <ele>744.59997558594</ele>
        <time>2026-09-02T12:43:38.000Z</time>
      </trkpt>
      <trkpt lat="48.13353" lon="6.85579">
        <ele>744.59997558594</ele>
        <time>2026-09-02T12:43:39.000Z</time>
      </trkpt>
      <trkpt lat="48.13353" lon="6.8558">
        <ele>744.80004882812</ele>
        <time>2026-09-02T12:43:40.000Z</time>
      </trkpt>
      <trkpt lat="48.13353" lon="6.85579">
        <ele>744.80004882812</ele>
        <time>2026-09-02T12:43:41.000Z</time>
      </trkpt>
      <trkpt lat="48.13353" lon="6.85579">
        <ele>744.80004882812</ele>
        <time>2026-09-02T12:43:42.000Z</time>
      </trkpt>
      <trkpt lat="48.13353" lon="6.85579">
        <ele>744.80004882812</ele>
        <time>2026-09-02T12:43:43.000Z</time>
      </trkpt>
      <trkpt lat="48.13353" lon="6.85579">
        <ele>744.80004882812</ele>
        <time>2026-09-02T12:43:44.000Z</time>
      </trkpt>
      <trkpt lat="48.13353" lon="6.85579">
        <ele>744.80004882812</ele>
        <time>2026-09-02T12:43:45.000Z</time>
      </trkpt>
      <trkpt lat="48.13353" lon="6.85579">
        <ele>744.80004882812</ele>
        <time>2026-09-02T12:43:46.000Z</time>
      </trkpt>
      <trkpt lat="48.13353" lon="6.85579">
        <ele>744.80004882812</ele>
        <time>2026-09-02T12:43:47.000Z</time>
      </trkpt>
      <trkpt lat="48.13353" lon="6.85579">
        <ele>744.80004882812</ele>
        <time>2026-09-02T12:43:48.000Z</time>
      </trkpt>
      <trkpt lat="48.13354" lon="6.8558">
        <ele>744.80004882812</ele>
        <time>2026-09-02T12:43:49.000Z</time>
      </trkpt>
      <trkpt lat="48.13354" lon="6.85581">
        <ele>744.80004882812</ele>
        <time>2026-09-02T12:43:50.000Z</time>
      </trkpt>
      <trkpt lat="48.13354" lon="6.85582">
        <ele>745</ele>
        <time>2026-09-02T12:43:51.000Z</time>
      </trkpt>
      <trkpt lat="48.13354" lon="6.85583">
        <ele>745.19995117188</ele>
        <time>2026-09-02T12:43:52.000Z</time>
      </trkpt>
      <trkpt lat="48.13354" lon="6.85583">
        <ele>745.19995117188</ele>
        <time>2026-09-02T12:43:53.000Z</time>
      </trkpt>
      <trkpt lat="48.13354" lon="6.85584">
        <ele>745.19995117188</ele>
        <time>2026-09-02T12:43:54.000Z</time>
      </trkpt>
      <trkpt lat="48.13354" lon="6.85585">
        <ele>745.19995117188</ele>
        <time>2026-09-02T12:43:55.000Z</time>
      </trkpt>
      <trkpt lat="48.13354" lon="6.85585">
        <ele>745.40002441406</ele>
        <time>2026-09-02T12:43:56.000Z</time>
      </trkpt>
      <trkpt lat="48.13354" lon="6.85587">
        <ele>745.40002441406</ele>
        <time>2026-09-02T12:43:57.000Z</time>
      </trkpt>
      <trkpt lat="48.13354" lon="6.85588">
        <ele>745.59997558594</ele>
        <time>2026-09-02T12:43:58.000Z</time>
      </trkpt>
      <trkpt lat="48.13354" lon="6.85588">
        <ele>745.80004882812</ele>
        <time>2026-09-02T12:43:59.000Z</time>
      </trkpt>
      <trkpt lat="48.13354" lon="6.85589">
        <ele>745.80004882812</ele>
        <time>2026-09-02T12:44:00.000Z</time>
      </trkpt>
      <trkpt lat="48.13354" lon="6.8559">
        <ele>746</ele>
        <time>2026-09-02T12:44:01.000Z</time>
      </trkpt>
      <trkpt lat="48.13354" lon="6.85592">
        <ele>746</ele>
        <time>2026-09-02T12:44:02.000Z</time>
      </trkpt>
      <trkpt lat="48.13353" lon="6.85592">
        <ele>746.19995117188</ele>
        <time>2026-09-02T12:44:03.000Z</time>
      </trkpt>
      <trkpt lat="48.13353" lon="6.85592">
        <ele>746.40002441406</ele>
        <time>2026-09-02T12:44:04.000Z</time>
      </trkpt>
      <trkpt lat="48.13353" lon="6.85592">
        <ele>746.40002441406</ele>
        <time>2026-09-02T12:44:05.000Z</time>
      </trkpt>
      <trkpt lat="48.13353" lon="6.85592">
        <ele>746.40002441406</ele>
        <time>2026-09-02T12:44:06.000Z</time>
      </trkpt>
      <trkpt lat="48.13353" lon="6.85592">
        <ele>746.40002441406</ele>
        <time>2026-09-02T12:44:07.000Z</time>
      </trkpt>
      <trkpt lat="48.13353" lon="6.85592">
        <ele>746.40002441406</ele>
        <time>2026-09-02T12:44:08.000Z</time>
      </trkpt>
      <trkpt lat="48.13353" lon="6.85592">
        <ele>746.40002441406</ele>
        <time>2026-09-02T12:44:09.000Z</time>
      </trkpt>
      <trkpt lat="48.13353" lon="6.85592">
        <ele>746.40002441406</ele>
        <time>2026-09-02T12:44:10.000Z</time>
      </trkpt>
      <trkpt lat="48.13353" lon="6.85592">
        <ele>746.40002441406</ele>
        <time>2026-09-02T12:44:11.000Z</time>
      </trkpt>
      <trkpt lat="48.13353" lon="6.85592">
        <ele>746.40002441406</ele>
        <time>2026-09-02T12:44:12.000Z</time>
      </trkpt>
      <trkpt lat="48.13353" lon="6.85592">
        <ele>746.40002441406</ele>
        <time>2026-09-02T12:44:13.000Z</time>
      </trkpt>
      <trkpt lat="48.13353" lon="6.85592">
        <ele>746.40002441406</ele>
        <time>2026-09-02T12:44:14.000Z</time>
      </trkpt>
      <trkpt lat="48.13353" lon="6.85592">
        <ele>746.40002441406</ele>
        <time>2026-09-02T12:44:15.000Z</time>
      </trkpt>
      <trkpt lat="48.13353" lon="6.85592">
        <ele>746.40002441406</ele>
        <time>2026-09-02T12:44:16.000Z</time>
      </trkpt>
      <trkpt lat="48.13353" lon="6.85592">
        <ele>746.40002441406</ele>
        <time>2026-09-02T12:44:17.000Z</time>
      </trkpt>
      <trkpt lat="48.13353" lon="6.85592">
        <ele>746.40002441406</ele>
        <time>2026-09-02T12:44:18.000Z</time>
      </trkpt>
      <trkpt lat="48.13353" lon="6.85592">
        <ele>746.40002441406</ele>
        <time>2026-09-02T12:44:19.000Z</time>
      </trkpt>
      <trkpt lat="48.13353" lon="6.85592">
        <ele>746.40002441406</ele>
        <time>2026-09-02T12:44:20.000Z</time>
      </trkpt>
      <trkpt lat="48.13353" lon="6.85593">
        <ele>746.40002441406</ele>
        <time>2026-09-02T12:44:21.000Z</time>
      </trkpt>
      <trkpt lat="48.13353" lon="6.85592">
        <ele>746.40002441406</ele>
        <time>2026-09-02T12:44:22.000Z</time>
      </trkpt>
      <trkpt lat="48.13353" lon="6.85592">
        <ele>746.40002441406</ele>
        <time>2026-09-02T12:44:23.000Z</time>
      </trkpt>
      <trkpt lat="48.13353" lon="6.85592">
        <ele>746.40002441406</ele>
        <time>2026-09-02T12:44:24.000Z</time>
      </trkpt>
      <trkpt lat="48.13353" lon="6.85592">
        <ele>746.40002441406</ele>
        <time>2026-09-02T12:44:25.000Z</time>
      </trkpt>
      <trkpt lat="48.13353" lon="6.85592">
        <ele>746.40002441406</ele>
        <time>2026-09-02T12:44:26.000Z</time>
      </trkpt>
      <trkpt lat="48.13353" lon="6.85592">
        <ele>746.59997558594</ele>
        <time>2026-09-02T12:44:27.000Z</time>
      </trkpt>
      <trkpt lat="48.13353" lon="6.85592">
        <ele>746.59997558594</ele>
        <time>2026-09-02T12:44:28.000Z</time>
      </trkpt>
      <trkpt lat="48.13353" lon="6.85592">
        <ele>746.80004882812</ele>
        <time>2026-09-02T12:44:29.000Z</time>
      </trkpt>
      <trkpt lat="48.13353" lon="6.85592">
        <ele>746.80004882812</ele>
        <time>2026-09-02T12:44:30.000Z</time>
      </trkpt>
      <trkpt lat="48.13353" lon="6.85595">
        <ele>746.80004882812</ele>
        <time>2026-09-02T12:44:31.000Z</time>
      </trkpt>
      <trkpt lat="48.13352" lon="6.85595">
        <ele>746.59997558594</ele>
        <time>2026-09-02T12:44:32.000Z</time>
      </trkpt>
      <trkpt lat="48.13352" lon="6.85595">
        <ele>746.59997558594</ele>
        <time>2026-09-02T12:44:33.000Z</time>
      </trkpt>
      <trkpt lat="48.13352" lon="6.85595">
        <ele>746.59997558594</ele>
        <time>2026-09-02T12:44:34.000Z</time>
      </trkpt>
      <trkpt lat="48.13352" lon="6.85595">
        <ele>746.59997558594</ele>
        <time>2026-09-02T12:44:35.000Z</time>
      </trkpt>
      <trkpt lat="48.13352" lon="6.85595">
        <ele>746.59997558594</ele>
        <time>2026-09-02T12:44:36.000Z</time>
      </trkpt>
      <trkpt lat="48.13352" lon="6.85595">
        <ele>746.59997558594</ele>
        <time>2026-09-02T12:44:37.000Z</time>
      </trkpt>
      <trkpt lat="48.13352" lon="6.85595">
        <ele>746.59997558594</ele>
        <time>2026-09-02T12:44:38.000Z</time>
      </trkpt>
      <trkpt lat="48.13352" lon="6.85595">
        <ele>746.40002441406</ele>
        <time>2026-09-02T12:44:39.000Z</time>
      </trkpt>
      <trkpt lat="48.13352" lon="6.85595">
        <ele>746.40002441406</ele>
        <time>2026-09-02T12:44:40.000Z</time>
      </trkpt>
      <trkpt lat="48.13352" lon="6.85595">
        <ele>746.40002441406</ele>
        <time>2026-09-02T12:44:41.000Z</time>
      </trkpt>
      <trkpt lat="48.13352" lon="6.85596">
        <ele>746.40002441406</ele>
        <time>2026-09-02T12:44:42.000Z</time>
      </trkpt>
      <trkpt lat="48.13352" lon="6.85599">
        <ele>746.19995117188</ele>
        <time>2026-09-02T12:44:43.000Z</time>
      </trkpt>
      <trkpt lat="48.13352" lon="6.856">
        <ele>746.19995117188</ele>
        <time>2026-09-02T12:44:44.000Z</time>
      </trkpt>
      <trkpt lat="48.13352" lon="6.85601">
        <ele>746</ele>
        <time>2026-09-02T12:44:45.000Z</time>
      </trkpt>
      <trkpt lat="48.13353" lon="6.85602">
        <ele>746</ele>
        <time>2026-09-02T12:44:46.000Z</time>
      </trkpt>
      <trkpt lat="48.13352" lon="6.85602">
        <ele>746.19995117188</ele>
        <time>2026-09-02T12:44:47.000Z</time>
      </trkpt>
      <trkpt lat="48.13352" lon="6.85602">
        <ele>746.19995117188</ele>
        <time>2026-09-02T12:44:48.000Z</time>
      </trkpt>
      <trkpt lat="48.13352" lon="6.85602">
        <ele>746.40002441406</ele>
        <time>2026-09-02T12:44:49.000Z</time>
      </trkpt>
      <trkpt lat="48.13352" lon="6.85602">
        <ele>746.59997558594</ele>
        <time>2026-09-02T12:44:50.000Z</time>
      </trkpt>
      <trkpt lat="48.13352" lon="6.85602">
        <ele>746.59997558594</ele>
        <time>2026-09-02T12:44:51.000Z</time>
      </trkpt>
      <trkpt lat="48.13352" lon="6.85602">
        <ele>746.59997558594</ele>
        <time>2026-09-02T12:44:52.000Z</time>
      </trkpt>
      <trkpt lat="48.13352" lon="6.85602">
        <ele>746.59997558594</ele>
        <time>2026-09-02T12:44:53.000Z</time>
      </trkpt>
      <trkpt lat="48.13352" lon="6.85603">
        <ele>746.59997558594</ele>
        <time>2026-09-02T12:44:54.000Z</time>
      </trkpt>
      <trkpt lat="48.13352" lon="6.85604">
        <ele>746.59997558594</ele>
        <time>2026-09-02T12:44:55.000Z</time>
      </trkpt>
      <trkpt lat="48.13351" lon="6.85604">
        <ele>746.59997558594</ele>
        <time>2026-09-02T12:44:56.000Z</time>
      </trkpt>
      <trkpt lat="48.13351" lon="6.85604">
        <ele>746.40002441406</ele>
        <time>2026-09-02T12:44:57.000Z</time>
      </trkpt>
      <trkpt lat="48.13351" lon="6.85604">
        <ele>746.40002441406</ele>
        <time>2026-09-02T12:44:58.000Z</time>
      </trkpt>
      <trkpt lat="48.13352" lon="6.85603">
        <ele>746.19995117188</ele>
        <time>2026-09-02T12:44:59.000Z</time>
      </trkpt>
      <trkpt lat="48.13352" lon="6.85604">
        <ele>746</ele>
        <time>2026-09-02T12:45:00.000Z</time>
      </trkpt>
      <trkpt lat="48.13352" lon="6.85604">
        <ele>746</ele>
        <time>2026-09-02T12:45:01.000Z</time>
      </trkpt>
      <trkpt lat="48.13351" lon="6.85604">
        <ele>746</ele>
        <time>2026-09-02T12:45:02.000Z</time>
      </trkpt>
      <trkpt lat="48.13351" lon="6.85603">
        <ele>746.19995117188</ele>
        <time>2026-09-02T12:45:03.000Z</time>
      </trkpt>
      <trkpt lat="48.13352" lon="6.85603">
        <ele>746.40002441406</ele>
        <time>2026-09-02T12:45:04.000Z</time>
      </trkpt>
      <trkpt lat="48.13352" lon="6.85602">
        <ele>746.59997558594</ele>
        <time>2026-09-02T12:45:05.000Z</time>
      </trkpt>
      <trkpt lat="48.13352" lon="6.85602">
        <ele>746.80004882812</ele>
        <time>2026-09-02T12:45:06.000Z</time>
      </trkpt>
      <trkpt lat="48.13352" lon="6.85602">
        <ele>747</ele>
        <time>2026-09-02T12:45:07.000Z</time>
      </trkpt>
      <trkpt lat="48.13352" lon="6.85602">
        <ele>747</ele>
        <time>2026-09-02T12:45:08.000Z</time>
      </trkpt>
      <trkpt lat="48.13352" lon="6.85602">
        <ele>747</ele>
        <time>2026-09-02T12:45:09.000Z</time>
      </trkpt>
      <trkpt lat="48.13352" lon="6.85602">
        <ele>747</ele>
        <time>2026-09-02T12:45:10.000Z</time>
      </trkpt>
      <trkpt lat="48.13352" lon="6.85602">
        <ele>747</ele>
        <time>2026-09-02T12:45:11.000Z</time>
      </trkpt>
      <trkpt lat="48.13352" lon="6.85602">
        <ele>747</ele>
        <time>2026-09-02T12:45:12.000Z</time>
      </trkpt>
      <trkpt lat="48.13352" lon="6.85602">
        <ele>747</ele>
        <time>2026-09-02T12:45:13.000Z</time>
      </trkpt>
      <trkpt lat="48.13352" lon="6.85602">
        <ele>746.80004882812</ele>
        <time>2026-09-02T12:45:14.000Z</time>
      </trkpt>
      <trkpt lat="48.13352" lon="6.85602">
        <ele>746.80004882812</ele>
        <time>2026-09-02T12:45:15.000Z</time>
      </trkpt>
      <trkpt lat="48.13352" lon="6.85602">
        <ele>746.80004882812</ele>
        <time>2026-09-02T12:45:16.000Z</time>
      </trkpt>
      <trkpt lat="48.13352" lon="6.85602">
        <ele>746.80004882812</ele>
        <time>2026-09-02T12:45:17.000Z</time>
      </trkpt>
      <trkpt lat="48.13352" lon="6.85602">
        <ele>746.80004882812</ele>
        <time>2026-09-02T12:45:18.000Z</time>
      </trkpt>
      <trkpt lat="48.13352" lon="6.85603">
        <ele>746.80004882812</ele>
        <time>2026-09-02T12:45:19.000Z</time>
      </trkpt>
      <trkpt lat="48.13351" lon="6.85604">
        <ele>747</ele>
        <time>2026-09-02T12:45:20.000Z</time>
      </trkpt>
      <trkpt lat="48.1335" lon="6.85604">
        <ele>747.19995117188</ele>
        <time>2026-09-02T12:45:21.000Z</time>
      </trkpt>
      <trkpt lat="48.1335" lon="6.85605">
        <ele>747.19995117188</ele>
        <time>2026-09-02T12:45:22.000Z</time>
      </trkpt>
      <trkpt lat="48.1335" lon="6.85605">
        <ele>747.19995117188</ele>
        <time>2026-09-02T12:45:23.000Z</time>
      </trkpt>
      <trkpt lat="48.1335" lon="6.85605">
        <ele>747.19995117188</ele>
        <time>2026-09-02T12:45:24.000Z</time>
      </trkpt>
      <trkpt lat="48.1335" lon="6.85605">
        <ele>747</ele>
        <time>2026-09-02T12:45:25.000Z</time>
      </trkpt>
      <trkpt lat="48.1335" lon="6.85605">
        <ele>747</ele>
        <time>2026-09-02T12:45:26.000Z</time>
      </trkpt>
      <trkpt lat="48.1335" lon="6.85605">
        <ele>747</ele>
        <time>2026-09-02T12:45:27.000Z</time>
      </trkpt>
      <trkpt lat="48.1335" lon="6.85605">
        <ele>747</ele>
        <time>2026-09-02T12:45:28.000Z</time>
      </trkpt>
      <trkpt lat="48.1335" lon="6.85605">
        <ele>747</ele>
        <time>2026-09-02T12:45:29.000Z</time>
      </trkpt>
      <trkpt lat="48.1335" lon="6.85605">
        <ele>747</ele>
        <time>2026-09-02T12:45:30.000Z</time>
      </trkpt>
      <trkpt lat="48.1335" lon="6.85605">
        <ele>747</ele>
        <time>2026-09-02T12:45:31.000Z</time>
      </trkpt>
      <trkpt lat="48.1335" lon="6.85605">
        <ele>747</ele>
        <time>2026-09-02T12:45:32.000Z</time>
      </trkpt>
      <trkpt lat="48.1335" lon="6.85605">
        <ele>747</ele>
        <time>2026-09-02T12:45:33.000Z</time>
      </trkpt>
      <trkpt lat="48.1335" lon="6.85605">
        <ele>747</ele>
        <time>2026-09-02T12:45:34.000Z</time>
      </trkpt>
      <trkpt lat="48.1335" lon="6.85605">
        <ele>747</ele>
        <time>2026-09-02T12:45:35.000Z</time>
      </trkpt>
      <trkpt lat="48.1335" lon="6.85605">
        <ele>746.80004882812</ele>
        <time>2026-09-02T12:45:36.000Z</time>
      </trkpt>
      <trkpt lat="48.1335" lon="6.85605">
        <ele>746.80004882812</ele>
        <time>2026-09-02T12:45:37.000Z</time>
      </trkpt>
      <trkpt lat="48.1335" lon="6.85605">
        <ele>746.80004882812</ele>
        <time>2026-09-02T12:45:38.000Z</time>
      </trkpt>
      <trkpt lat="48.1335" lon="6.85605">
        <ele>746.59997558594</ele>
        <time>2026-09-02T12:45:39.000Z</time>
      </trkpt>
      <trkpt lat="48.1335" lon="6.85605">
        <ele>746.59997558594</ele>
        <time>2026-09-02T12:45:40.000Z</time>
      </trkpt>
      <trkpt lat="48.1335" lon="6.85605">
        <ele>746.59997558594</ele>
        <time>2026-09-02T12:45:41.000Z</time>
      </trkpt>
      <trkpt lat="48.1335" lon="6.85605">
        <ele>746.59997558594</ele>
        <time>2026-09-02T12:45:42.000Z</time>
      </trkpt>
      <trkpt lat="48.1335" lon="6.85605">
        <ele>746.59997558594</ele>
        <time>2026-09-02T12:45:43.000Z</time>
      </trkpt>
      <trkpt lat="48.1335" lon="6.85605">
        <ele>746.40002441406</ele>
        <time>2026-09-02T12:45:44.000Z</time>
      </trkpt>
      <trkpt lat="48.1335" lon="6.85605">
        <ele>746.40002441406</ele>
        <time>2026-09-02T12:45:45.000Z</time>
      </trkpt>
      <trkpt lat="48.1335" lon="6.85605">
        <ele>746.40002441406</ele>
        <time>2026-09-02T12:45:46.000Z</time>
      </trkpt>
      <trkpt lat="48.1335" lon="6.85605">
        <ele>746.40002441406</ele>
        <time>2026-09-02T12:45:47.000Z</time>
      </trkpt>
      <trkpt lat="48.1335" lon="6.85605">
        <ele>746.40002441406</ele>
        <time>2026-09-02T12:45:48.000Z</time>
      </trkpt>
      <trkpt lat="48.1335" lon="6.85605">
        <ele>746.40002441406</ele>
        <time>2026-09-02T12:45:49.000Z</time>
      </trkpt>
      <trkpt lat="48.1335" lon="6.85605">
        <ele>746.40002441406</ele>
        <time>2026-09-02T12:45:50.000Z</time>
      </trkpt>
      <trkpt lat="48.1335" lon="6.85605">
        <ele>746.59997558594</ele>
        <time>2026-09-02T12:45:51.000Z</time>
      </trkpt>
      <trkpt lat="48.1335" lon="6.85605">
        <ele>746.59997558594</ele>
        <time>2026-09-02T12:45:52.000Z</time>
      </trkpt>
      <trkpt lat="48.1335" lon="6.85605">
        <ele>746.59997558594</ele>
        <time>2026-09-02T12:45:53.000Z</time>
      </trkpt>
      <trkpt lat="48.1335" lon="6.85605">
        <ele>746.59997558594</ele>
        <time>2026-09-02T12:45:54.000Z</time>
      </trkpt>
      <trkpt lat="48.1335" lon="6.85605">
        <ele>746.59997558594</ele>
        <time>2026-09-02T12:45:55.000Z</time>
      </trkpt>
      <trkpt lat="48.1335" lon="6.85605">
        <ele>746.40002441406</ele>
        <time>2026-09-02T12:45:56.000Z</time>
      </trkpt>
      <trkpt lat="48.1335" lon="6.85605">
        <ele>746.40002441406</ele>
        <time>2026-09-02T12:45:57.000Z</time>
      </trkpt>
      <trkpt lat="48.1335" lon="6.85605">
        <ele>746.59997558594</ele>
        <time>2026-09-02T12:45:58.000Z</time>
      </trkpt>
      <trkpt lat="48.1335" lon="6.85605">
        <ele>746.59997558594</ele>
        <time>2026-09-02T12:45:59.000Z</time>
      </trkpt>
      <trkpt lat="48.1335" lon="6.85605">
        <ele>746.59997558594</ele>
        <time>2026-09-02T12:46:00.000Z</time>
      </trkpt>
      <trkpt lat="48.1335" lon="6.85605">
        <ele>746.59997558594</ele>
        <time>2026-09-02T12:46:01.000Z</time>
      </trkpt>
      <trkpt lat="48.1335" lon="6.85605">
        <ele>746.59997558594</ele>
        <time>2026-09-02T12:46:02.000Z</time>
      </trkpt>
      <trkpt lat="48.1335" lon="6.85605">
        <ele>746.59997558594</ele>
        <time>2026-09-02T12:46:03.000Z</time>
      </trkpt>
      <trkpt lat="48.1335" lon="6.85605">
        <ele>746.59997558594</ele>
        <time>2026-09-02T12:46:04.000Z</time>
      </trkpt>
      <trkpt lat="48.1335" lon="6.85605">
        <ele>746.40002441406</ele>
        <time>2026-09-02T12:46:05.000Z</time>
      </trkpt>
      <trkpt lat="48.1335" lon="6.85605">
        <ele>746.40002441406</ele>
        <time>2026-09-02T12:46:06.000Z</time>
      </trkpt>
      <trkpt lat="48.1335" lon="6.85605">
        <ele>746.40002441406</ele>
        <time>2026-09-02T12:46:07.000Z</time>
      </trkpt>
      <trkpt lat="48.1335" lon="6.85605">
        <ele>746.59997558594</ele>
        <time>2026-09-02T12:46:08.000Z</time>
      </trkpt>
      <trkpt lat="48.1335" lon="6.85605">
        <ele>746.80004882812</ele>
        <time>2026-09-02T12:46:09.000Z</time>
      </trkpt>
      <trkpt lat="48.1335" lon="6.85605">
        <ele>746.80004882812</ele>
        <time>2026-09-02T12:46:10.000Z</time>
      </trkpt>
      <trkpt lat="48.1335" lon="6.85605">
        <ele>746.80004882812</ele>
        <time>2026-09-02T12:46:11.000Z</time>
      </trkpt>
      <trkpt lat="48.1335" lon="6.85605">
        <ele>746.80004882812</ele>
        <time>2026-09-02T12:46:12.000Z</time>
      </trkpt>
      <trkpt lat="48.1335" lon="6.85605">
        <ele>746.80004882812</ele>
        <time>2026-09-02T12:46:13.000Z</time>
      </trkpt>
      <trkpt lat="48.1335" lon="6.85605">
        <ele>746.80004882812</ele>
        <time>2026-09-02T12:46:14.000Z</time>
      </trkpt>
      <trkpt lat="48.1335" lon="6.85605">
        <ele>747</ele>
        <time>2026-09-02T12:46:15.000Z</time>
      </trkpt>
      <trkpt lat="48.1335" lon="6.85605">
        <ele>747</ele>
        <time>2026-09-02T12:46:16.000Z</time>
      </trkpt>
      <trkpt lat="48.1335" lon="6.85605">
        <ele>747</ele>
        <time>2026-09-02T12:46:17.000Z</time>
      </trkpt>
      <trkpt lat="48.1335" lon="6.85605">
        <ele>747.19995117188</ele>
        <time>2026-09-02T12:46:18.000Z</time>
      </trkpt>
      <trkpt lat="48.1335" lon="6.85605">
        <ele>747.19995117188</ele>
        <time>2026-09-02T12:46:19.000Z</time>
      </trkpt>
      <trkpt lat="48.1335" lon="6.85605">
        <ele>747.19995117188</ele>
        <time>2026-09-02T12:46:20.000Z</time>
      </trkpt>
      <trkpt lat="48.1335" lon="6.85605">
        <ele>747.19995117188</ele>
        <time>2026-09-02T12:46:21.000Z</time>
      </trkpt>
      <trkpt lat="48.1335" lon="6.85605">
        <ele>747</ele>
        <time>2026-09-02T12:46:22.000Z</time>
      </trkpt>
      <trkpt lat="48.1335" lon="6.85605">
        <ele>747</ele>
        <time>2026-09-02T12:46:23.000Z</time>
      </trkpt>
      <trkpt lat="48.1335" lon="6.85605">
        <ele>746.80004882812</ele>
        <time>2026-09-02T12:46:24.000Z</time>
      </trkpt>
      <trkpt lat="48.1335" lon="6.85605">
        <ele>746.80004882812</ele>
        <time>2026-09-02T12:46:25.000Z</time>
      </trkpt>
      <trkpt lat="48.1335" lon="6.85605">
        <ele>746.80004882812</ele>
        <time>2026-09-02T12:46:26.000Z</time>
      </trkpt>
      <trkpt lat="48.1335" lon="6.85605">
        <ele>746.80004882812</ele>
        <time>2026-09-02T12:46:27.000Z</time>
      </trkpt>
      <trkpt lat="48.1335" lon="6.85605">
        <ele>746.80004882812</ele>
        <time>2026-09-02T12:46:28.000Z</time>
      </trkpt>
      <trkpt lat="48.1335" lon="6.85605">
        <ele>747</ele>
        <time>2026-09-02T12:46:29.000Z</time>
      </trkpt>
      <trkpt lat="48.1335" lon="6.85605">
        <ele>747</ele>
        <time>2026-09-02T12:46:30.000Z</time>
      </trkpt>
      <trkpt lat="48.1335" lon="6.85605">
        <ele>747</ele>
        <time>2026-09-02T12:46:31.000Z</time>
      </trkpt>
      <trkpt lat="48.1335" lon="6.85605">
        <ele>747</ele>
        <time>2026-09-02T12:46:32.000Z</time>
      </trkpt>
      <trkpt lat="48.1335" lon="6.85605">
        <ele>747</ele>
        <time>2026-09-02T12:46:33.000Z</time>
      </trkpt>
      <trkpt lat="48.1335" lon="6.85605">
        <ele>747</ele>
        <time>2026-09-02T12:46:34.000Z</time>
      </trkpt>
      <trkpt lat="48.1335" lon="6.85605">
        <ele>746.80004882812</ele>
        <time>2026-09-02T12:46:35.000Z</time>
      </trkpt>
      <trkpt lat="48.1335" lon="6.85605">
        <ele>746.80004882812</ele>
        <time>2026-09-02T12:46:36.000Z</time>
      </trkpt>
      <trkpt lat="48.1335" lon="6.85605">
        <ele>746.80004882812</ele>
        <time>2026-09-02T12:46:37.000Z</time>
      </trkpt>
      <trkpt lat="48.1335" lon="6.85605">
        <ele>746.59997558594</ele>
        <time>2026-09-02T12:46:38.000Z</time>
      </trkpt>
      <trkpt lat="48.1335" lon="6.85605">
        <ele>746.59997558594</ele>
        <time>2026-09-02T12:46:39.000Z</time>
      </trkpt>
      <trkpt lat="48.1335" lon="6.85605">
        <ele>746.59997558594</ele>
        <time>2026-09-02T12:46:40.000Z</time>
      </trkpt>
      <trkpt lat="48.1335" lon="6.85605">
        <ele>746.59997558594</ele>
        <time>2026-09-02T12:46:41.000Z</time>
      </trkpt>
      <trkpt lat="48.1335" lon="6.85605">
        <ele>746.59997558594</ele>
        <time>2026-09-02T12:46:42.000Z</time>
      </trkpt>
      <trkpt lat="48.1335" lon="6.85605">
        <ele>746.59997558594</ele>
        <time>2026-09-02T12:46:43.000Z</time>
      </trkpt>
      <trkpt lat="48.1335" lon="6.85605">
        <ele>746.59997558594</ele>
        <time>2026-09-02T12:46:44.000Z</time>
      </trkpt>
      <trkpt lat="48.1335" lon="6.85605">
        <ele>746.59997558594</ele>
        <time>2026-09-02T12:46:45.000Z</time>
      </trkpt>
      <trkpt lat="48.1335" lon="6.85605">
        <ele>746.59997558594</ele>
        <time>2026-09-02T12:46:46.000Z</time>
      </trkpt>
      <trkpt lat="48.1335" lon="6.85605">
        <ele>746.80004882812</ele>
        <time>2026-09-02T12:46:47.000Z</time>
      </trkpt>
      <trkpt lat="48.1335" lon="6.85605">
        <ele>746.80004882812</ele>
        <time>2026-09-02T12:46:48.000Z</time>
      </trkpt>
      <trkpt lat="48.1335" lon="6.85605">
        <ele>746.80004882812</ele>
        <time>2026-09-02T12:46:49.000Z</time>
      </trkpt>
      <trkpt lat="48.1335" lon="6.85605">
        <ele>746.80004882812</ele>
        <time>2026-09-02T12:46:50.000Z</time>
      </trkpt>
      <trkpt lat="48.1335" lon="6.85605">
        <ele>746.80004882812</ele>
        <time>2026-09-02T12:46:51.000Z</time>
      </trkpt>
      <trkpt lat="48.1335" lon="6.85605">
        <ele>746.80004882812</ele>
        <time>2026-09-02T12:46:52.000Z</time>
      </trkpt>
      <trkpt lat="48.1335" lon="6.85605">
        <ele>746.80004882812</ele>
        <time>2026-09-02T12:46:53.000Z</time>
      </trkpt>
      <trkpt lat="48.1335" lon="6.85605">
        <ele>746.80004882812</ele>
        <time>2026-09-02T12:46:54.000Z</time>
      </trkpt>
      <trkpt lat="48.1335" lon="6.85605">
        <ele>746.80004882812</ele>
        <time>2026-09-02T12:46:55.000Z</time>
      </trkpt>
      <trkpt lat="48.1335" lon="6.85605">
        <ele>747</ele>
        <time>2026-09-02T12:46:56.000Z</time>
      </trkpt>
      <trkpt lat="48.1335" lon="6.85605">
        <ele>747</ele>
        <time>2026-09-02T12:46:57.000Z</time>
      </trkpt>
      <trkpt lat="48.1335" lon="6.85605">
        <ele>747</ele>
        <time>2026-09-02T12:46:58.000Z</time>
      </trkpt>
      <trkpt lat="48.1335" lon="6.85605">
        <ele>747</ele>
        <time>2026-09-02T12:46:59.000Z</time>
      </trkpt>
      <trkpt lat="48.1335" lon="6.85605">
        <ele>747</ele>
        <time>2026-09-02T12:47:00.000Z</time>
      </trkpt>
      <trkpt lat="48.1335" lon="6.85605">
        <ele>747</ele>
        <time>2026-09-02T12:47:01.000Z</time>
      </trkpt>
      <trkpt lat="48.1335" lon="6.85605">
        <ele>747</ele>
        <time>2026-09-02T12:47:02.000Z</time>
      </trkpt>
      <trkpt lat="48.1335" lon="6.85605">
        <ele>747</ele>
        <time>2026-09-02T12:47:03.000Z</time>
      </trkpt>
      <trkpt lat="48.1335" lon="6.85605">
        <ele>747</ele>
        <time>2026-09-02T12:47:04.000Z</time>
      </trkpt>
      <trkpt lat="48.1335" lon="6.85605">
        <ele>747</ele>
        <time>2026-09-02T12:47:05.000Z</time>
      </trkpt>
      <trkpt lat="48.1335" lon="6.85605">
        <ele>747</ele>
        <time>2026-09-02T12:47:06.000Z</time>
      </trkpt>
      <trkpt lat="48.1335" lon="6.85605">
        <ele>747</ele>
        <time>2026-09-02T12:47:07.000Z</time>
      </trkpt>
      <trkpt lat="48.1335" lon="6.85605">
        <ele>747</ele>
        <time>2026-09-02T12:47:08.000Z</time>
      </trkpt>
      <trkpt lat="48.1335" lon="6.85605">
        <ele>746.80004882812</ele>
        <time>2026-09-02T12:47:09.000Z</time>
      </trkpt>
      <trkpt lat="48.1335" lon="6.85605">
        <ele>747</ele>
        <time>2026-09-02T12:47:10.000Z</time>
      </trkpt>
      <trkpt lat="48.1335" lon="6.85605">
        <ele>747</ele>
        <time>2026-09-02T12:47:11.000Z</time>
      </trkpt>
      <trkpt lat="48.1335" lon="6.85605">
        <ele>747</ele>
        <time>2026-09-02T12:47:12.000Z</time>
      </trkpt>
      <trkpt lat="48.1335" lon="6.85605">
        <ele>747</ele>
        <time>2026-09-02T12:47:13.000Z</time>
      </trkpt>
      <trkpt lat="48.1335" lon="6.85605">
        <ele>747</ele>
        <time>2026-09-02T12:47:14.000Z</time>
      </trkpt>
      <trkpt lat="48.1335" lon="6.85605">
        <ele>747</ele>
        <time>2026-09-02T12:47:15.000Z</time>
      </trkpt>
      <trkpt lat="48.1335" lon="6.85605">
        <ele>747</ele>
        <time>2026-09-02T12:47:16.000Z</time>
      </trkpt>
      <trkpt lat="48.1335" lon="6.85605">
        <ele>746.80004882812</ele>
        <time>2026-09-02T12:47:17.000Z</time>
      </trkpt>
      <trkpt lat="48.1335" lon="6.85605">
        <ele>746.80004882812</ele>
        <time>2026-09-02T12:47:18.000Z</time>
      </trkpt>
      <trkpt lat="48.1335" lon="6.85605">
        <ele>746.59997558594</ele>
        <time>2026-09-02T12:47:19.000Z</time>
      </trkpt>
      <trkpt lat="48.1335" lon="6.85605">
        <ele>746.59997558594</ele>
        <time>2026-09-02T12:47:20.000Z</time>
      </trkpt>
      <trkpt lat="48.1335" lon="6.85605">
        <ele>746.59997558594</ele>
        <time>2026-09-02T12:47:21.000Z</time>
      </trkpt>
      <trkpt lat="48.1335" lon="6.85605">
        <ele>746.59997558594</ele>
        <time>2026-09-02T12:47:22.000Z</time>
      </trkpt>
      <trkpt lat="48.1335" lon="6.85605">
        <ele>746.59997558594</ele>
        <time>2026-09-02T12:47:23.000Z</time>
      </trkpt>
      <trkpt lat="48.1335" lon="6.85605">
        <ele>746.80004882812</ele>
        <time>2026-09-02T12:47:24.000Z</time>
      </trkpt>
      <trkpt lat="48.1335" lon="6.85605">
        <ele>747</ele>
        <time>2026-09-02T12:47:25.000Z</time>
      </trkpt>
      <trkpt lat="48.1335" lon="6.85605">
        <ele>747</ele>
        <time>2026-09-02T12:47:26.000Z</time>
      </trkpt>
      <trkpt lat="48.1335" lon="6.85605">
        <ele>747</ele>
        <time>2026-09-02T12:47:27.000Z</time>
      </trkpt>
      <trkpt lat="48.1335" lon="6.85605">
        <ele>747</ele>
        <time>2026-09-02T12:47:28.000Z</time>
      </trkpt>
      <trkpt lat="48.1335" lon="6.85605">
        <ele>747</ele>
        <time>2026-09-02T12:47:29.000Z</time>
      </trkpt>
      <trkpt lat="48.1335" lon="6.85605">
        <ele>746.80004882812</ele>
        <time>2026-09-02T12:47:30.000Z</time>
      </trkpt>
      <trkpt lat="48.1335" lon="6.85605">
        <ele>746.80004882812</ele>
        <time>2026-09-02T12:47:31.000Z</time>
      </trkpt>
      <trkpt lat="48.1335" lon="6.85605">
        <ele>746.80004882812</ele>
        <time>2026-09-02T12:47:32.000Z</time>
      </trkpt>
      <trkpt lat="48.1335" lon="6.85605">
        <ele>746.80004882812</ele>
        <time>2026-09-02T12:47:33.000Z</time>
      </trkpt>
      <trkpt lat="48.1335" lon="6.85605">
        <ele>746.80004882812</ele>
        <time>2026-09-02T12:47:34.000Z</time>
      </trkpt>
      <trkpt lat="48.13351" lon="6.85604">
        <ele>746.80004882812</ele>
        <time>2026-09-02T12:47:35.000Z</time>
      </trkpt>
      <trkpt lat="48.13352" lon="6.85603">
        <ele>747</ele>
        <time>2026-09-02T12:47:36.000Z</time>
      </trkpt>
      <trkpt lat="48.13352" lon="6.85603">
        <ele>747.19995117188</ele>
        <time>2026-09-02T12:47:37.000Z</time>
      </trkpt>
      <trkpt lat="48.13352" lon="6.85603">
        <ele>747.40002441406</ele>
        <time>2026-09-02T12:47:38.000Z</time>
      </trkpt>
      <trkpt lat="48.13352" lon="6.85603">
        <ele>747.40002441406</ele>
        <time>2026-09-02T12:47:39.000Z</time>
      </trkpt>
      <trkpt lat="48.13352" lon="6.85603">
        <ele>747.40002441406</ele>
        <time>2026-09-02T12:47:40.000Z</time>
      </trkpt>
      <trkpt lat="48.13352" lon="6.85603">
        <ele>747.40002441406</ele>
        <time>2026-09-02T12:47:41.000Z</time>
      </trkpt>
      <trkpt lat="48.13352" lon="6.85603">
        <ele>747.40002441406</ele>
        <time>2026-09-02T12:47:42.000Z</time>
      </trkpt>
      <trkpt lat="48.13352" lon="6.85603">
        <ele>747.19995117188</ele>
        <time>2026-09-02T12:47:43.000Z</time>
      </trkpt>
      <trkpt lat="48.13353" lon="6.85603">
        <ele>747.19995117188</ele>
        <time>2026-09-02T12:47:44.000Z</time>
      </trkpt>
      <trkpt lat="48.13353" lon="6.85602">
        <ele>747.19995117188</ele>
        <time>2026-09-02T12:47:45.000Z</time>
      </trkpt>
      <trkpt lat="48.13352" lon="6.85602">
        <ele>747</ele>
        <time>2026-09-02T12:47:46.000Z</time>
      </trkpt>
      <trkpt lat="48.13352" lon="6.85602">
        <ele>747</ele>
        <time>2026-09-02T12:47:47.000Z</time>
      </trkpt>
      <trkpt lat="48.13351" lon="6.85602">
        <ele>747</ele>
        <time>2026-09-02T12:47:48.000Z</time>
      </trkpt>
      <trkpt lat="48.13352" lon="6.85603">
        <ele>747</ele>
        <time>2026-09-02T12:47:49.000Z</time>
      </trkpt>
      <trkpt lat="48.13352" lon="6.85603">
        <ele>747</ele>
        <time>2026-09-02T12:47:50.000Z</time>
      </trkpt>
      <trkpt lat="48.13352" lon="6.85603">
        <ele>747</ele>
        <time>2026-09-02T12:47:51.000Z</time>
      </trkpt>
      <trkpt lat="48.13352" lon="6.85603">
        <ele>747.19995117188</ele>
        <time>2026-09-02T12:47:52.000Z</time>
      </trkpt>
      <trkpt lat="48.13352" lon="6.85603">
        <ele>747.19995117188</ele>
        <time>2026-09-02T12:47:53.000Z</time>
      </trkpt>
      <trkpt lat="48.13352" lon="6.85603">
        <ele>747.19995117188</ele>
        <time>2026-09-02T12:47:54.000Z</time>
      </trkpt>
      <trkpt lat="48.13352" lon="6.85603">
        <ele>747.19995117188</ele>
        <time>2026-09-02T12:47:55.000Z</time>
      </trkpt>
      <trkpt lat="48.13352" lon="6.85603">
        <ele>747.19995117188</ele>
        <time>2026-09-02T12:47:56.000Z</time>
      </trkpt>
      <trkpt lat="48.13352" lon="6.85603">
        <ele>747.40002441406</ele>
        <time>2026-09-02T12:47:57.000Z</time>
      </trkpt>
      <trkpt lat="48.13352" lon="6.85602">
        <ele>747.40002441406</ele>
        <time>2026-09-02T12:47:58.000Z</time>
      </trkpt>
      <trkpt lat="48.13352" lon="6.85601">
        <ele>747.40002441406</ele>
        <time>2026-09-02T12:47:59.000Z</time>
      </trkpt>
      <trkpt lat="48.13352" lon="6.85601">
        <ele>747.40002441406</ele>
        <time>2026-09-02T12:48:00.000Z</time>
      </trkpt>
      <trkpt lat="48.13352" lon="6.85603">
        <ele>747.40002441406</ele>
        <time>2026-09-02T12:48:01.000Z</time>
      </trkpt>
      <trkpt lat="48.13352" lon="6.85603">
        <ele>747.19995117188</ele>
        <time>2026-09-02T12:48:02.000Z</time>
      </trkpt>
      <trkpt lat="48.13352" lon="6.85603">
        <ele>747.19995117188</ele>
        <time>2026-09-02T12:48:03.000Z</time>
      </trkpt>
      <trkpt lat="48.13352" lon="6.85601">
        <ele>747.19995117188</ele>
        <time>2026-09-02T12:48:04.000Z</time>
      </trkpt>
      <trkpt lat="48.13353" lon="6.856">
        <ele>747.19995117188</ele>
        <time>2026-09-02T12:48:05.000Z</time>
      </trkpt>
      <trkpt lat="48.13353" lon="6.85601">
        <ele>747.19995117188</ele>
        <time>2026-09-02T12:48:06.000Z</time>
      </trkpt>
      <trkpt lat="48.13353" lon="6.85601">
        <ele>747.19995117188</ele>
        <time>2026-09-02T12:48:07.000Z</time>
      </trkpt>
      <trkpt lat="48.13353" lon="6.85601">
        <ele>747.19995117188</ele>
        <time>2026-09-02T12:48:08.000Z</time>
      </trkpt>
      <trkpt lat="48.13353" lon="6.85601">
        <ele>747.19995117188</ele>
        <time>2026-09-02T12:48:09.000Z</time>
      </trkpt>
      <trkpt lat="48.13353" lon="6.85601">
        <ele>747.19995117188</ele>
        <time>2026-09-02T12:48:10.000Z</time>
      </trkpt>
      <trkpt lat="48.13353" lon="6.85601">
        <ele>747.19995117188</ele>
        <time>2026-09-02T12:48:11.000Z</time>
      </trkpt>
      <trkpt lat="48.13353" lon="6.85601">
        <ele>747</ele>
        <time>2026-09-02T12:48:12.000Z</time>
      </trkpt>
      <trkpt lat="48.13353" lon="6.85601">
        <ele>747</ele>
        <time>2026-09-02T12:48:13.000Z</time>
      </trkpt>
      <trkpt lat="48.13353" lon="6.85601">
        <ele>746.80004882812</ele>
        <time>2026-09-02T12:48:14.000Z</time>
      </trkpt>
      <trkpt lat="48.13353" lon="6.85601">
        <ele>746.80004882812</ele>
        <time>2026-09-02T12:48:15.000Z</time>
      </trkpt>
      <trkpt lat="48.13353" lon="6.85601">
        <ele>746.80004882812</ele>
        <time>2026-09-02T12:48:16.000Z</time>
      </trkpt>
      <trkpt lat="48.13353" lon="6.85601">
        <ele>746.80004882812</ele>
        <time>2026-09-02T12:48:17.000Z</time>
      </trkpt>
      <trkpt lat="48.13353" lon="6.85601">
        <ele>746.80004882812</ele>
        <time>2026-09-02T12:48:18.000Z</time>
      </trkpt>
      <trkpt lat="48.13353" lon="6.85601">
        <ele>746.80004882812</ele>
        <time>2026-09-02T12:48:19.000Z</time>
      </trkpt>
      <trkpt lat="48.13353" lon="6.85601">
        <ele>746.80004882812</ele>
        <time>2026-09-02T12:48:20.000Z</time>
      </trkpt>
      <trkpt lat="48.13353" lon="6.85601">
        <ele>746.80004882812</ele>
        <time>2026-09-02T12:48:21.000Z</time>
      </trkpt>
      <trkpt lat="48.13353" lon="6.85601">
        <ele>746.80004882812</ele>
        <time>2026-09-02T12:48:22.000Z</time>
      </trkpt>
      <trkpt lat="48.13353" lon="6.85601">
        <ele>747</ele>
        <time>2026-09-02T12:48:23.000Z</time>
      </trkpt>
      <trkpt lat="48.13353" lon="6.85601">
        <ele>747</ele>
        <time>2026-09-02T12:48:24.000Z</time>
      </trkpt>
      <trkpt lat="48.13353" lon="6.85601">
        <ele>747</ele>
        <time>2026-09-02T12:48:25.000Z</time>
      </trkpt>
      <trkpt lat="48.13353" lon="6.85601">
        <ele>747</ele>
        <time>2026-09-02T12:48:26.000Z</time>
      </trkpt>
      <trkpt lat="48.13353" lon="6.85601">
        <ele>747</ele>
        <time>2026-09-02T12:48:27.000Z</time>
      </trkpt>
      <trkpt lat="48.13353" lon="6.85601">
        <ele>747</ele>
        <time>2026-09-02T12:48:28.000Z</time>
      </trkpt>
      <trkpt lat="48.13353" lon="6.85601">
        <ele>747</ele>
        <time>2026-09-02T12:48:29.000Z</time>
      </trkpt>
      <trkpt lat="48.13353" lon="6.85601">
        <ele>747</ele>
        <time>2026-09-02T12:48:30.000Z</time>
      </trkpt>
      <trkpt lat="48.13353" lon="6.85601">
        <ele>747</ele>
        <time>2026-09-02T12:48:31.000Z</time>
      </trkpt>
      <trkpt lat="48.13353" lon="6.85601">
        <ele>747</ele>
        <time>2026-09-02T12:48:32.000Z</time>
      </trkpt>
      <trkpt lat="48.13353" lon="6.85601">
        <ele>746.80004882812</ele>
        <time>2026-09-02T12:48:33.000Z</time>
      </trkpt>
      <trkpt lat="48.13353" lon="6.85601">
        <ele>747</ele>
        <time>2026-09-02T12:48:34.000Z</time>
      </trkpt>
      <trkpt lat="48.13353" lon="6.85601">
        <ele>746.80004882812</ele>
        <time>2026-09-02T12:48:35.000Z</time>
      </trkpt>
      <trkpt lat="48.13353" lon="6.85601">
        <ele>747</ele>
        <time>2026-09-02T12:48:36.000Z</time>
      </trkpt>
      <trkpt lat="48.13353" lon="6.85601">
        <ele>747</ele>
        <time>2026-09-02T12:48:37.000Z</time>
      </trkpt>
      <trkpt lat="48.13353" lon="6.85601">
        <ele>747</ele>
        <time>2026-09-02T12:48:38.000Z</time>
      </trkpt>
      <trkpt lat="48.13353" lon="6.85601">
        <ele>747</ele>
        <time>2026-09-02T12:48:39.000Z</time>
      </trkpt>
      <trkpt lat="48.13353" lon="6.85601">
        <ele>747</ele>
        <time>2026-09-02T12:48:40.000Z</time>
      </trkpt>
      <trkpt lat="48.13353" lon="6.85601">
        <ele>747</ele>
        <time>2026-09-02T12:48:41.000Z</time>
      </trkpt>
      <trkpt lat="48.13353" lon="6.85601">
        <ele>747</ele>
        <time>2026-09-02T12:48:42.000Z</time>
      </trkpt>
      <trkpt lat="48.13353" lon="6.85601">
        <ele>747</ele>
        <time>2026-09-02T12:48:43.000Z</time>
      </trkpt>
      <trkpt lat="48.13353" lon="6.85601">
        <ele>747.19995117188</ele>
        <time>2026-09-02T12:48:44.000Z</time>
      </trkpt>
      <trkpt lat="48.13353" lon="6.85601">
        <ele>747.19995117188</ele>
        <time>2026-09-02T12:48:45.000Z</time>
      </trkpt>
      <trkpt lat="48.13353" lon="6.85601">
        <ele>747.19995117188</ele>
        <time>2026-09-02T12:48:46.000Z</time>
      </trkpt>
      <trkpt lat="48.13353" lon="6.85601">
        <ele>747.19995117188</ele>
        <time>2026-09-02T12:48:47.000Z</time>
      </trkpt>
      <trkpt lat="48.13353" lon="6.85601">
        <ele>747</ele>
        <time>2026-09-02T12:48:48.000Z</time>
      </trkpt>
      <trkpt lat="48.13353" lon="6.85601">
        <ele>747.19995117188</ele>
        <time>2026-09-02T12:48:49.000Z</time>
      </trkpt>
      <trkpt lat="48.13353" lon="6.85601">
        <ele>747.19995117188</ele>
        <time>2026-09-02T12:48:50.000Z</time>
      </trkpt>
      <trkpt lat="48.13353" lon="6.85601">
        <ele>747.19995117188</ele>
        <time>2026-09-02T12:48:51.000Z</time>
      </trkpt>
      <trkpt lat="48.13353" lon="6.85601">
        <ele>747.19995117188</ele>
        <time>2026-09-02T12:48:52.000Z</time>
      </trkpt>
      <trkpt lat="48.13353" lon="6.85601">
        <ele>747.19995117188</ele>
        <time>2026-09-02T12:48:53.000Z</time>
      </trkpt>
      <trkpt lat="48.13353" lon="6.85601">
        <ele>747.19995117188</ele>
        <time>2026-09-02T12:48:54.000Z</time>
      </trkpt>
      <trkpt lat="48.13353" lon="6.85601">
        <ele>747.19995117188</ele>
        <time>2026-09-02T12:48:55.000Z</time>
      </trkpt>
      <trkpt lat="48.13353" lon="6.85601">
        <ele>747</ele>
        <time>2026-09-02T12:48:56.000Z</time>
      </trkpt>
      <trkpt lat="48.13353" lon="6.85601">
        <ele>747</ele>
        <time>2026-09-02T12:48:57.000Z</time>
      </trkpt>
      <trkpt lat="48.13353" lon="6.85601">
        <ele>747</ele>
        <time>2026-09-02T12:48:58.000Z</time>
      </trkpt>
      <trkpt lat="48.13353" lon="6.85601">
        <ele>747</ele>
        <time>2026-09-02T12:48:59.000Z</time>
      </trkpt>
      <trkpt lat="48.13353" lon="6.85601">
        <ele>747.19995117188</ele>
        <time>2026-09-02T12:49:00.000Z</time>
      </trkpt>
      <trkpt lat="48.13353" lon="6.85601">
        <ele>747.19995117188</ele>
        <time>2026-09-02T12:49:01.000Z</time>
      </trkpt>
      <trkpt lat="48.13353" lon="6.85601">
        <ele>747.19995117188</ele>
        <time>2026-09-02T12:49:02.000Z</time>
      </trkpt>
      <trkpt lat="48.13353" lon="6.85601">
        <ele>747.19995117188</ele>
        <time>2026-09-02T12:49:03.000Z</time>
      </trkpt>
      <trkpt lat="48.13353" lon="6.85601">
        <ele>747.19995117188</ele>
        <time>2026-09-02T12:49:04.000Z</time>
      </trkpt>
      <trkpt lat="48.13353" lon="6.85601">
        <ele>747.19995117188</ele>
        <time>2026-09-02T12:49:05.000Z</time>
      </trkpt>
      <trkpt lat="48.13353" lon="6.85601">
        <ele>747.19995117188</ele>
        <time>2026-09-02T12:49:06.000Z</time>
      </trkpt>
      <trkpt lat="48.13353" lon="6.85601">
        <ele>747</ele>
        <time>2026-09-02T12:49:07.000Z</time>
      </trkpt>
      <trkpt lat="48.13353" lon="6.85601">
        <ele>747.19995117188</ele>
        <time>2026-09-02T12:49:08.000Z</time>
      </trkpt>
      <trkpt lat="48.13353" lon="6.85601">
        <ele>747.19995117188</ele>
        <time>2026-09-02T12:49:09.000Z</time>
      </trkpt>
      <trkpt lat="48.13353" lon="6.85601">
        <ele>747.19995117188</ele>
        <time>2026-09-02T12:49:10.000Z</time>
      </trkpt>
      <trkpt lat="48.13353" lon="6.85601">
        <ele>747.40002441406</ele>
        <time>2026-09-02T12:49:11.000Z</time>
      </trkpt>
      <trkpt lat="48.13353" lon="6.85601">
        <ele>747.40002441406</ele>
        <time>2026-09-02T12:49:12.000Z</time>
      </trkpt>
      <trkpt lat="48.13353" lon="6.85601">
        <ele>747.40002441406</ele>
        <time>2026-09-02T12:49:13.000Z</time>
      </trkpt>
      <trkpt lat="48.13353" lon="6.85601">
        <ele>747.40002441406</ele>
        <time>2026-09-02T12:49:14.000Z</time>
      </trkpt>
      <trkpt lat="48.13353" lon="6.85601">
        <ele>747.59997558594</ele>
        <time>2026-09-02T12:49:15.000Z</time>
      </trkpt>
      <trkpt lat="48.13353" lon="6.85601">
        <ele>747.59997558594</ele>
        <time>2026-09-02T12:49:16.000Z</time>
      </trkpt>
      <trkpt lat="48.13352" lon="6.85602">
        <ele>747.59997558594</ele>
        <time>2026-09-02T12:49:17.000Z</time>
      </trkpt>
      <trkpt lat="48.13351" lon="6.85604">
        <ele>747.40002441406</ele>
        <time>2026-09-02T12:49:18.000Z</time>
      </trkpt>
      <trkpt lat="48.13351" lon="6.85605">
        <ele>747.40002441406</ele>
        <time>2026-09-02T12:49:19.000Z</time>
      </trkpt>
      <trkpt lat="48.13351" lon="6.85606">
        <ele>747.19995117188</ele>
        <time>2026-09-02T12:49:20.000Z</time>
      </trkpt>
      <trkpt lat="48.13351" lon="6.85607">
        <ele>747.19995117188</ele>
        <time>2026-09-02T12:49:21.000Z</time>
      </trkpt>
      <trkpt lat="48.13351" lon="6.85608">
        <ele>747.40002441406</ele>
        <time>2026-09-02T12:49:22.000Z</time>
      </trkpt>
      <trkpt lat="48.13351" lon="6.85608">
        <ele>747.40002441406</ele>
        <time>2026-09-02T12:49:23.000Z</time>
      </trkpt>
      <trkpt lat="48.13351" lon="6.85609">
        <ele>747.59997558594</ele>
        <time>2026-09-02T12:49:24.000Z</time>
      </trkpt>
      <trkpt lat="48.13351" lon="6.8561">
        <ele>747.59997558594</ele>
        <time>2026-09-02T12:49:25.000Z</time>
      </trkpt>
      <trkpt lat="48.13351" lon="6.8561">
        <ele>747.80004882812</ele>
        <time>2026-09-02T12:49:26.000Z</time>
      </trkpt>
      <trkpt lat="48.13351" lon="6.85611">
        <ele>748</ele>
        <time>2026-09-02T12:49:27.000Z</time>
      </trkpt>
      <trkpt lat="48.1335" lon="6.8561">
        <ele>748</ele>
        <time>2026-09-02T12:49:28.000Z</time>
      </trkpt>
      <trkpt lat="48.13349" lon="6.8561">
        <ele>748.19995117188</ele>
        <time>2026-09-02T12:49:29.000Z</time>
      </trkpt>
      <trkpt lat="48.13348" lon="6.85611">
        <ele>748.19995117188</ele>
        <time>2026-09-02T12:49:30.000Z</time>
      </trkpt>
      <trkpt lat="48.13348" lon="6.85611">
        <ele>748.19995117188</ele>
        <time>2026-09-02T12:49:31.000Z</time>
      </trkpt>
      <trkpt lat="48.13348" lon="6.85612">
        <ele>748.19995117188</ele>
        <time>2026-09-02T12:49:32.000Z</time>
      </trkpt>
      <trkpt lat="48.13347" lon="6.85612">
        <ele>748.19995117188</ele>
        <time>2026-09-02T12:49:33.000Z</time>
      </trkpt>
      <trkpt lat="48.13346" lon="6.85613">
        <ele>748.19995117188</ele>
        <time>2026-09-02T12:49:34.000Z</time>
      </trkpt>
      <trkpt lat="48.13346" lon="6.85613">
        <ele>748.19995117188</ele>
        <time>2026-09-02T12:49:35.000Z</time>
      </trkpt>
      <trkpt lat="48.13346" lon="6.85614">
        <ele>748.19995117188</ele>
        <time>2026-09-02T12:49:36.000Z</time>
      </trkpt>
      <trkpt lat="48.13347" lon="6.85613">
        <ele>748.19995117188</ele>
        <time>2026-09-02T12:49:37.000Z</time>
      </trkpt>
      <trkpt lat="48.13347" lon="6.85613">
        <ele>748.19995117188</ele>
        <time>2026-09-02T12:49:38.000Z</time>
      </trkpt>
      <trkpt lat="48.13347" lon="6.85613">
        <ele>748.19995117188</ele>
        <time>2026-09-02T12:49:39.000Z</time>
      </trkpt>
      <trkpt lat="48.13347" lon="6.85613">
        <ele>748.19995117188</ele>
        <time>2026-09-02T12:49:40.000Z</time>
      </trkpt>
      <trkpt lat="48.13347" lon="6.85613">
        <ele>748</ele>
        <time>2026-09-02T12:49:41.000Z</time>
      </trkpt>
      <trkpt lat="48.13347" lon="6.85613">
        <ele>748</ele>
        <time>2026-09-02T12:49:42.000Z</time>
      </trkpt>
      <trkpt lat="48.13347" lon="6.85613">
        <ele>748</ele>
        <time>2026-09-02T12:49:43.000Z</time>
      </trkpt>
      <trkpt lat="48.13347" lon="6.85613">
        <ele>748</ele>
        <time>2026-09-02T12:49:44.000Z</time>
      </trkpt>
      <trkpt lat="48.13347" lon="6.85613">
        <ele>748.19995117188</ele>
        <time>2026-09-02T12:49:45.000Z</time>
      </trkpt>
      <trkpt lat="48.13347" lon="6.85613">
        <ele>748.19995117188</ele>
        <time>2026-09-02T12:49:46.000Z</time>
      </trkpt>
      <trkpt lat="48.13347" lon="6.85613">
        <ele>748.19995117188</ele>
        <time>2026-09-02T12:49:47.000Z</time>
      </trkpt>
      <trkpt lat="48.13347" lon="6.85613">
        <ele>748.19995117188</ele>
        <time>2026-09-02T12:49:48.000Z</time>
      </trkpt>
      <trkpt lat="48.13347" lon="6.85613">
        <ele>748.19995117188</ele>
        <time>2026-09-02T12:49:49.000Z</time>
      </trkpt>
      <trkpt lat="48.13348" lon="6.85613">
        <ele>748.19995117188</ele>
        <time>2026-09-02T12:49:50.000Z</time>
      </trkpt>
      <trkpt lat="48.13349" lon="6.85612">
        <ele>748.19995117188</ele>
        <time>2026-09-02T12:49:51.000Z</time>
      </trkpt>
      <trkpt lat="48.13351" lon="6.85611">
        <ele>748</ele>
        <time>2026-09-02T12:49:52.000Z</time>
      </trkpt>
      <trkpt lat="48.13352" lon="6.85611">
        <ele>748</ele>
        <time>2026-09-02T12:49:53.000Z</time>
      </trkpt>
      <trkpt lat="48.13353" lon="6.8561">
        <ele>748</ele>
        <time>2026-09-02T12:49:54.000Z</time>
      </trkpt>
      <trkpt lat="48.13353" lon="6.85611">
        <ele>748</ele>
        <time>2026-09-02T12:49:55.000Z</time>
      </trkpt>
      <trkpt lat="48.13354" lon="6.85612">
        <ele>748</ele>
        <time>2026-09-02T12:49:56.000Z</time>
      </trkpt>
      <trkpt lat="48.13355" lon="6.85613">
        <ele>748</ele>
        <time>2026-09-02T12:49:57.000Z</time>
      </trkpt>
      <trkpt lat="48.13355" lon="6.85614">
        <ele>748</ele>
        <time>2026-09-02T12:49:58.000Z</time>
      </trkpt>
      <trkpt lat="48.13355" lon="6.85615">
        <ele>748.19995117188</ele>
        <time>2026-09-02T12:49:59.000Z</time>
      </trkpt>
      <trkpt lat="48.13356" lon="6.85616">
        <ele>748.19995117188</ele>
        <time>2026-09-02T12:50:00.000Z</time>
      </trkpt>
      <trkpt lat="48.13357" lon="6.85617">
        <ele>748.19995117188</ele>
        <time>2026-09-02T12:50:01.000Z</time>
      </trkpt>
      <trkpt lat="48.13358" lon="6.85618">
        <ele>748.19995117188</ele>
        <time>2026-09-02T12:50:02.000Z</time>
      </trkpt>
      <trkpt lat="48.13358" lon="6.85619">
        <ele>748.40002441406</ele>
        <time>2026-09-02T12:50:03.000Z</time>
      </trkpt>
      <trkpt lat="48.13359" lon="6.8562">
        <ele>748.40002441406</ele>
        <time>2026-09-02T12:50:04.000Z</time>
      </trkpt>
      <trkpt lat="48.13359" lon="6.85621">
        <ele>748.40002441406</ele>
        <time>2026-09-02T12:50:05.000Z</time>
      </trkpt>
      <trkpt lat="48.1336" lon="6.85621">
        <ele>748.40002441406</ele>
        <time>2026-09-02T12:50:06.000Z</time>
      </trkpt>
      <trkpt lat="48.13361" lon="6.85622">
        <ele>748.59997558594</ele>
        <time>2026-09-02T12:50:07.000Z</time>
      </trkpt>
      <trkpt lat="48.13361" lon="6.85624">
        <ele>748.59997558594</ele>
        <time>2026-09-02T12:50:08.000Z</time>
      </trkpt>
      <trkpt lat="48.13361" lon="6.85625">
        <ele>748.80004882812</ele>
        <time>2026-09-02T12:50:09.000Z</time>
      </trkpt>
      <trkpt lat="48.13361" lon="6.85627">
        <ele>749</ele>
        <time>2026-09-02T12:50:10.000Z</time>
      </trkpt>
      <trkpt lat="48.13361" lon="6.85628">
        <ele>749</ele>
        <time>2026-09-02T12:50:11.000Z</time>
      </trkpt>
      <trkpt lat="48.13362" lon="6.85629">
        <ele>749</ele>
        <time>2026-09-02T12:50:12.000Z</time>
      </trkpt>
      <trkpt lat="48.13362" lon="6.8563">
        <ele>749</ele>
        <time>2026-09-02T12:50:13.000Z</time>
      </trkpt>
      <trkpt lat="48.13361" lon="6.85631">
        <ele>749.19995117188</ele>
        <time>2026-09-02T12:50:14.000Z</time>
      </trkpt>
      <trkpt lat="48.13361" lon="6.85632">
        <ele>749.19995117188</ele>
        <time>2026-09-02T12:50:15.000Z</time>
      </trkpt>
      <trkpt lat="48.13361" lon="6.85633">
        <ele>749.19995117188</ele>
        <time>2026-09-02T12:50:16.000Z</time>
      </trkpt>
      <trkpt lat="48.13361" lon="6.85634">
        <ele>749.19995117188</ele>
        <time>2026-09-02T12:50:17.000Z</time>
      </trkpt>
      <trkpt lat="48.13361" lon="6.85634">
        <ele>749.40002441406</ele>
        <time>2026-09-02T12:50:18.000Z</time>
      </trkpt>
      <trkpt lat="48.13361" lon="6.85635">
        <ele>749.40002441406</ele>
        <time>2026-09-02T12:50:19.000Z</time>
      </trkpt>
      <trkpt lat="48.13361" lon="6.85636">
        <ele>749.40002441406</ele>
        <time>2026-09-02T12:50:20.000Z</time>
      </trkpt>
      <trkpt lat="48.13361" lon="6.85636">
        <ele>749.59997558594</ele>
        <time>2026-09-02T12:50:21.000Z</time>
      </trkpt>
      <trkpt lat="48.13361" lon="6.85637">
        <ele>749.59997558594</ele>
        <time>2026-09-02T12:50:22.000Z</time>
      </trkpt>
      <trkpt lat="48.13361" lon="6.85637">
        <ele>749.59997558594</ele>
        <time>2026-09-02T12:50:23.000Z</time>
      </trkpt>
      <trkpt lat="48.13362" lon="6.85638">
        <ele>749.80004882812</ele>
        <time>2026-09-02T12:50:24.000Z</time>
      </trkpt>
      <trkpt lat="48.13362" lon="6.85638">
        <ele>749.80004882812</ele>
        <time>2026-09-02T12:50:25.000Z</time>
      </trkpt>
      <trkpt lat="48.13362" lon="6.85639">
        <ele>750</ele>
        <time>2026-09-02T12:50:26.000Z</time>
      </trkpt>
      <trkpt lat="48.13362" lon="6.85639">
        <ele>750</ele>
        <time>2026-09-02T12:50:27.000Z</time>
      </trkpt>
      <trkpt lat="48.13363" lon="6.8564">
        <ele>750</ele>
        <time>2026-09-02T12:50:28.000Z</time>
      </trkpt>
      <trkpt lat="48.13363" lon="6.85641">
        <ele>750.19995117188</ele>
        <time>2026-09-02T12:50:29.000Z</time>
      </trkpt>
      <trkpt lat="48.13363" lon="6.85641">
        <ele>750.19995117188</ele>
        <time>2026-09-02T12:50:30.000Z</time>
      </trkpt>
      <trkpt lat="48.13362" lon="6.85642">
        <ele>750.19995117188</ele>
        <time>2026-09-02T12:50:31.000Z</time>
      </trkpt>
      <trkpt lat="48.13362" lon="6.85643">
        <ele>750.19995117188</ele>
        <time>2026-09-02T12:50:32.000Z</time>
      </trkpt>
      <trkpt lat="48.13362" lon="6.85643">
        <ele>750.19995117188</ele>
        <time>2026-09-02T12:50:33.000Z</time>
      </trkpt>
      <trkpt lat="48.13362" lon="6.85644">
        <ele>750.19995117188</ele>
        <time>2026-09-02T12:50:34.000Z</time>
      </trkpt>
      <trkpt lat="48.13362" lon="6.85644">
        <ele>750.40002441406</ele>
        <time>2026-09-02T12:50:35.000Z</time>
      </trkpt>
      <trkpt lat="48.13361" lon="6.85645">
        <ele>750.40002441406</ele>
        <time>2026-09-02T12:50:36.000Z</time>
      </trkpt>
      <trkpt lat="48.13361" lon="6.85646">
        <ele>750.59997558594</ele>
        <time>2026-09-02T12:50:37.000Z</time>
      </trkpt>
      <trkpt lat="48.1336" lon="6.85646">
        <ele>750.59997558594</ele>
        <time>2026-09-02T12:50:38.000Z</time>
      </trkpt>
      <trkpt lat="48.1336" lon="6.85647">
        <ele>750.59997558594</ele>
        <time>2026-09-02T12:50:39.000Z</time>
      </trkpt>
      <trkpt lat="48.13359" lon="6.85648">
        <ele>750.59997558594</ele>
        <time>2026-09-02T12:50:40.000Z</time>
      </trkpt>
      <trkpt lat="48.13358" lon="6.85649">
        <ele>750.59997558594</ele>
        <time>2026-09-02T12:50:41.000Z</time>
      </trkpt>
      <trkpt lat="48.13357" lon="6.85649">
        <ele>750.59997558594</ele>
        <time>2026-09-02T12:50:42.000Z</time>
      </trkpt>
      <trkpt lat="48.13357" lon="6.8565">
        <ele>750.59997558594</ele>
        <time>2026-09-02T12:50:43.000Z</time>
      </trkpt>
      <trkpt lat="48.13356" lon="6.8565">
        <ele>750.59997558594</ele>
        <time>2026-09-02T12:50:44.000Z</time>
      </trkpt>
      <trkpt lat="48.13355" lon="6.8565">
        <ele>750.80004882812</ele>
        <time>2026-09-02T12:50:45.000Z</time>
      </trkpt>
      <trkpt lat="48.13354" lon="6.85651">
        <ele>750.80004882812</ele>
        <time>2026-09-02T12:50:46.000Z</time>
      </trkpt>
      <trkpt lat="48.13353" lon="6.85651">
        <ele>750.80004882812</ele>
        <time>2026-09-02T12:50:47.000Z</time>
      </trkpt>
      <trkpt lat="48.13353" lon="6.85651">
        <ele>751</ele>
        <time>2026-09-02T12:50:48.000Z</time>
      </trkpt>
      <trkpt lat="48.13352" lon="6.8565">
        <ele>751</ele>
        <time>2026-09-02T12:50:49.000Z</time>
      </trkpt>
      <trkpt lat="48.13351" lon="6.85651">
        <ele>751</ele>
        <time>2026-09-02T12:50:50.000Z</time>
      </trkpt>
      <trkpt lat="48.13351" lon="6.85651">
        <ele>751.19995117188</ele>
        <time>2026-09-02T12:50:51.000Z</time>
      </trkpt>
      <trkpt lat="48.1335" lon="6.85651">
        <ele>751.19995117188</ele>
        <time>2026-09-02T12:50:52.000Z</time>
      </trkpt>
      <trkpt lat="48.1335" lon="6.85651">
        <ele>751.19995117188</ele>
        <time>2026-09-02T12:50:53.000Z</time>
      </trkpt>
      <trkpt lat="48.1335" lon="6.85651">
        <ele>751.19995117188</ele>
        <time>2026-09-02T12:50:54.000Z</time>
      </trkpt>
      <trkpt lat="48.13349" lon="6.85651">
        <ele>751.19995117188</ele>
        <time>2026-09-02T12:50:55.000Z</time>
      </trkpt>
      <trkpt lat="48.13349" lon="6.85651">
        <ele>751.19995117188</ele>
        <time>2026-09-02T12:50:56.000Z</time>
      </trkpt>
      <trkpt lat="48.13349" lon="6.85651">
        <ele>751.19995117188</ele>
        <time>2026-09-02T12:50:57.000Z</time>
      </trkpt>
      <trkpt lat="48.13349" lon="6.85651">
        <ele>751.19995117188</ele>
        <time>2026-09-02T12:50:58.000Z</time>
      </trkpt>
      <trkpt lat="48.13349" lon="6.85651">
        <ele>751</ele>
        <time>2026-09-02T12:50:59.000Z</time>
      </trkpt>
      <trkpt lat="48.13349" lon="6.85651">
        <ele>751</ele>
        <time>2026-09-02T12:51:00.000Z</time>
      </trkpt>
      <trkpt lat="48.13348" lon="6.85651">
        <ele>750.80004882812</ele>
        <time>2026-09-02T12:51:01.000Z</time>
      </trkpt>
      <trkpt lat="48.13347" lon="6.85651">
        <ele>750.80004882812</ele>
        <time>2026-09-02T12:51:02.000Z</time>
      </trkpt>
      <trkpt lat="48.13347" lon="6.85651">
        <ele>750.80004882812</ele>
        <time>2026-09-02T12:51:03.000Z</time>
      </trkpt>
      <trkpt lat="48.13346" lon="6.85651">
        <ele>751</ele>
        <time>2026-09-02T12:51:04.000Z</time>
      </trkpt>
      <trkpt lat="48.13346" lon="6.85652">
        <ele>751.40002441406</ele>
        <time>2026-09-02T12:51:05.000Z</time>
      </trkpt>
      <trkpt lat="48.13346" lon="6.85652">
        <ele>751.59997558594</ele>
        <time>2026-09-02T12:51:06.000Z</time>
      </trkpt>
      <trkpt lat="48.13346" lon="6.85653">
        <ele>752</ele>
        <time>2026-09-02T12:51:07.000Z</time>
      </trkpt>
      <trkpt lat="48.13345" lon="6.85653">
        <ele>752</ele>
        <time>2026-09-02T12:51:08.000Z</time>
      </trkpt>
      <trkpt lat="48.13345" lon="6.85653">
        <ele>752</ele>
        <time>2026-09-02T12:51:09.000Z</time>
      </trkpt>
      <trkpt lat="48.13344" lon="6.85654">
        <ele>752</ele>
        <time>2026-09-02T12:51:10.000Z</time>
      </trkpt>
      <trkpt lat="48.13344" lon="6.85655">
        <ele>752</ele>
        <time>2026-09-02T12:51:11.000Z</time>
      </trkpt>
      <trkpt lat="48.13344" lon="6.85656">
        <ele>752</ele>
        <time>2026-09-02T12:51:12.000Z</time>
      </trkpt>
      <trkpt lat="48.13344" lon="6.85657">
        <ele>752</ele>
        <time>2026-09-02T12:51:13.000Z</time>
      </trkpt>
      <trkpt lat="48.13343" lon="6.85658">
        <ele>752</ele>
        <time>2026-09-02T12:51:14.000Z</time>
      </trkpt>
      <trkpt lat="48.13343" lon="6.85659">
        <ele>752.19995117188</ele>
        <time>2026-09-02T12:51:15.000Z</time>
      </trkpt>
      <trkpt lat="48.13342" lon="6.85659">
        <ele>752.19995117188</ele>
        <time>2026-09-02T12:51:16.000Z</time>
      </trkpt>
      <trkpt lat="48.13342" lon="6.8566">
        <ele>752.40002441406</ele>
        <time>2026-09-02T12:51:17.000Z</time>
      </trkpt>
      <trkpt lat="48.13342" lon="6.85661">
        <ele>752.40002441406</ele>
        <time>2026-09-02T12:51:18.000Z</time>
      </trkpt>
      <trkpt lat="48.13342" lon="6.85661">
        <ele>752.40002441406</ele>
        <time>2026-09-02T12:51:19.000Z</time>
      </trkpt>
      <trkpt lat="48.13341" lon="6.85662">
        <ele>752.40002441406</ele>
        <time>2026-09-02T12:51:20.000Z</time>
      </trkpt>
      <trkpt lat="48.13341" lon="6.85663">
        <ele>752.59997558594</ele>
        <time>2026-09-02T12:51:21.000Z</time>
      </trkpt>
      <trkpt lat="48.13341" lon="6.85665">
        <ele>752.59997558594</ele>
        <time>2026-09-02T12:51:22.000Z</time>
      </trkpt>
      <trkpt lat="48.13341" lon="6.85666">
        <ele>752.80004882812</ele>
        <time>2026-09-02T12:51:23.000Z</time>
      </trkpt>
      <trkpt lat="48.13341" lon="6.85667">
        <ele>752.80004882812</ele>
        <time>2026-09-02T12:51:24.000Z</time>
      </trkpt>
      <trkpt lat="48.13341" lon="6.85669">
        <ele>752.80004882812</ele>
        <time>2026-09-02T12:51:25.000Z</time>
      </trkpt>
      <trkpt lat="48.13341" lon="6.85671">
        <ele>753</ele>
        <time>2026-09-02T12:51:26.000Z</time>
      </trkpt>
      <trkpt lat="48.13341" lon="6.85672">
        <ele>753</ele>
        <time>2026-09-02T12:51:27.000Z</time>
      </trkpt>
      <trkpt lat="48.13341" lon="6.85674">
        <ele>753</ele>
        <time>2026-09-02T12:51:28.000Z</time>
      </trkpt>
      <trkpt lat="48.13341" lon="6.85674">
        <ele>753.19995117188</ele>
        <time>2026-09-02T12:51:29.000Z</time>
      </trkpt>
      <trkpt lat="48.13341" lon="6.85674">
        <ele>753.19995117188</ele>
        <time>2026-09-02T12:51:30.000Z</time>
      </trkpt>
      <trkpt lat="48.1334" lon="6.85675">
        <ele>753.40002441406</ele>
        <time>2026-09-02T12:51:31.000Z</time>
      </trkpt>
      <trkpt lat="48.1334" lon="6.85676">
        <ele>753.40002441406</ele>
        <time>2026-09-02T12:51:32.000Z</time>
      </trkpt>
      <trkpt lat="48.13339" lon="6.85677">
        <ele>753.40002441406</ele>
        <time>2026-09-02T12:51:33.000Z</time>
      </trkpt>
      <trkpt lat="48.13339" lon="6.85677">
        <ele>753.40002441406</ele>
        <time>2026-09-02T12:51:34.000Z</time>
      </trkpt>
      <trkpt lat="48.13339" lon="6.85678">
        <ele>753.40002441406</ele>
        <time>2026-09-02T12:51:35.000Z</time>
      </trkpt>
      <trkpt lat="48.13339" lon="6.85679">
        <ele>753.40002441406</ele>
        <time>2026-09-02T12:51:36.000Z</time>
      </trkpt>
      <trkpt lat="48.13339" lon="6.8568">
        <ele>753.59997558594</ele>
        <time>2026-09-02T12:51:37.000Z</time>
      </trkpt>
      <trkpt lat="48.13339" lon="6.85681">
        <ele>753.59997558594</ele>
        <time>2026-09-02T12:51:38.000Z</time>
      </trkpt>
      <trkpt lat="48.13338" lon="6.85681">
        <ele>753.59997558594</ele>
        <time>2026-09-02T12:51:39.000Z</time>
      </trkpt>
      <trkpt lat="48.13338" lon="6.85682">
        <ele>753.59997558594</ele>
        <time>2026-09-02T12:51:40.000Z</time>
      </trkpt>
      <trkpt lat="48.13337" lon="6.85683">
        <ele>753.59997558594</ele>
        <time>2026-09-02T12:51:41.000Z</time>
      </trkpt>
      <trkpt lat="48.13337" lon="6.85684">
        <ele>753.59997558594</ele>
        <time>2026-09-02T12:51:42.000Z</time>
      </trkpt>
      <trkpt lat="48.13337" lon="6.85685">
        <ele>753.80004882812</ele>
        <time>2026-09-02T12:51:43.000Z</time>
      </trkpt>
      <trkpt lat="48.13337" lon="6.85687">
        <ele>753.80004882812</ele>
        <time>2026-09-02T12:51:44.000Z</time>
      </trkpt>
      <trkpt lat="48.13336" lon="6.85687">
        <ele>753.80004882812</ele>
        <time>2026-09-02T12:51:45.000Z</time>
      </trkpt>
      <trkpt lat="48.13336" lon="6.85688">
        <ele>753.80004882812</ele>
        <time>2026-09-02T12:51:46.000Z</time>
      </trkpt>
      <trkpt lat="48.13336" lon="6.85689">
        <ele>753.80004882812</ele>
        <time>2026-09-02T12:51:47.000Z</time>
      </trkpt>
      <trkpt lat="48.13336" lon="6.8569">
        <ele>753.80004882812</ele>
        <time>2026-09-02T12:51:48.000Z</time>
      </trkpt>
      <trkpt lat="48.13336" lon="6.8569">
        <ele>753.59997558594</ele>
        <time>2026-09-02T12:51:49.000Z</time>
      </trkpt>
      <trkpt lat="48.13336" lon="6.85691">
        <ele>753.40002441406</ele>
        <time>2026-09-02T12:51:50.000Z</time>
      </trkpt>
      <trkpt lat="48.13336" lon="6.85692">
        <ele>753.19995117188</ele>
        <time>2026-09-02T12:51:51.000Z</time>
      </trkpt>
      <trkpt lat="48.13336" lon="6.85692">
        <ele>753</ele>
        <time>2026-09-02T12:51:52.000Z</time>
      </trkpt>
      <trkpt lat="48.13336" lon="6.85693">
        <ele>752.80004882812</ele>
        <time>2026-09-02T12:51:53.000Z</time>
      </trkpt>
      <trkpt lat="48.13336" lon="6.85694">
        <ele>752.80004882812</ele>
        <time>2026-09-02T12:51:54.000Z</time>
      </trkpt>
      <trkpt lat="48.13336" lon="6.85695">
        <ele>752.80004882812</ele>
        <time>2026-09-02T12:51:55.000Z</time>
      </trkpt>
      <trkpt lat="48.13336" lon="6.85695">
        <ele>752.80004882812</ele>
        <time>2026-09-02T12:51:56.000Z</time>
      </trkpt>
      <trkpt lat="48.13336" lon="6.85696">
        <ele>752.80004882812</ele>
        <time>2026-09-02T12:51:57.000Z</time>
      </trkpt>
      <trkpt lat="48.13336" lon="6.85696">
        <ele>753</ele>
        <time>2026-09-02T12:51:58.000Z</time>
      </trkpt>
      <trkpt lat="48.13336" lon="6.85697">
        <ele>753</ele>
        <time>2026-09-02T12:51:59.000Z</time>
      </trkpt>
      <trkpt lat="48.13336" lon="6.85697">
        <ele>753.19995117188</ele>
        <time>2026-09-02T12:52:00.000Z</time>
      </trkpt>
      <trkpt lat="48.13336" lon="6.85698">
        <ele>753.40002441406</ele>
        <time>2026-09-02T12:52:01.000Z</time>
      </trkpt>
      <trkpt lat="48.13336" lon="6.85699">
        <ele>753.40002441406</ele>
        <time>2026-09-02T12:52:02.000Z</time>
      </trkpt>
      <trkpt lat="48.13336" lon="6.857">
        <ele>753.40002441406</ele>
        <time>2026-09-02T12:52:03.000Z</time>
      </trkpt>
      <trkpt lat="48.13336" lon="6.857">
        <ele>753.59997558594</ele>
        <time>2026-09-02T12:52:04.000Z</time>
      </trkpt>
      <trkpt lat="48.13336" lon="6.857">
        <ele>753.59997558594</ele>
        <time>2026-09-02T12:52:05.000Z</time>
      </trkpt>
      <trkpt lat="48.13336" lon="6.857">
        <ele>753.59997558594</ele>
        <time>2026-09-02T12:52:06.000Z</time>
      </trkpt>
      <trkpt lat="48.13336" lon="6.857">
        <ele>753.59997558594</ele>
        <time>2026-09-02T12:52:07.000Z</time>
      </trkpt>
      <trkpt lat="48.13336" lon="6.857">
        <ele>753.80004882812</ele>
        <time>2026-09-02T12:52:08.000Z</time>
      </trkpt>
      <trkpt lat="48.13336" lon="6.857">
        <ele>753.80004882812</ele>
        <time>2026-09-02T12:52:09.000Z</time>
      </trkpt>
      <trkpt lat="48.13336" lon="6.857">
        <ele>753.80004882812</ele>
        <time>2026-09-02T12:52:10.000Z</time>
      </trkpt>
      <trkpt lat="48.13336" lon="6.857">
        <ele>753.80004882812</ele>
        <time>2026-09-02T12:52:11.000Z</time>
      </trkpt>
      <trkpt lat="48.13336" lon="6.857">
        <ele>753.80004882812</ele>
        <time>2026-09-02T12:52:12.000Z</time>
      </trkpt>
      <trkpt lat="48.13336" lon="6.857">
        <ele>753.59997558594</ele>
        <time>2026-09-02T12:52:13.000Z</time>
      </trkpt>
      <trkpt lat="48.13336" lon="6.857">
        <ele>753.59997558594</ele>
        <time>2026-09-02T12:52:14.000Z</time>
      </trkpt>
      <trkpt lat="48.13336" lon="6.857">
        <ele>753.59997558594</ele>
        <time>2026-09-02T12:52:15.000Z</time>
      </trkpt>
      <trkpt lat="48.13336" lon="6.857">
        <ele>753.59997558594</ele>
        <time>2026-09-02T12:52:16.000Z</time>
      </trkpt>
      <trkpt lat="48.13336" lon="6.857">
        <ele>753.59997558594</ele>
        <time>2026-09-02T12:52:17.000Z</time>
      </trkpt>
      <trkpt lat="48.13336" lon="6.857">
        <ele>753.59997558594</ele>
        <time>2026-09-02T12:52:18.000Z</time>
      </trkpt>
      <trkpt lat="48.13336" lon="6.857">
        <ele>753.80004882812</ele>
        <time>2026-09-02T12:52:19.000Z</time>
      </trkpt>
      <trkpt lat="48.13336" lon="6.857">
        <ele>753.80004882812</ele>
        <time>2026-09-02T12:52:20.000Z</time>
      </trkpt>
      <trkpt lat="48.13335" lon="6.85701">
        <ele>753.80004882812</ele>
        <time>2026-09-02T12:52:21.000Z</time>
      </trkpt>
      <trkpt lat="48.13335" lon="6.85704">
        <ele>753.80004882812</ele>
        <time>2026-09-02T12:52:22.000Z</time>
      </trkpt>
      <trkpt lat="48.13335" lon="6.85704">
        <ele>753.80004882812</ele>
        <time>2026-09-02T12:52:23.000Z</time>
      </trkpt>
      <trkpt lat="48.13334" lon="6.85706">
        <ele>753.80004882812</ele>
        <time>2026-09-02T12:52:24.000Z</time>
      </trkpt>
      <trkpt lat="48.13334" lon="6.85707">
        <ele>753.80004882812</ele>
        <time>2026-09-02T12:52:25.000Z</time>
      </trkpt>
      <trkpt lat="48.13334" lon="6.85708">
        <ele>753.80004882812</ele>
        <time>2026-09-02T12:52:26.000Z</time>
      </trkpt>
      <trkpt lat="48.13334" lon="6.8571">
        <ele>753.59997558594</ele>
        <time>2026-09-02T12:52:27.000Z</time>
      </trkpt>
      <trkpt lat="48.13334" lon="6.85711">
        <ele>753.59997558594</ele>
        <time>2026-09-02T12:52:28.000Z</time>
      </trkpt>
      <trkpt lat="48.13334" lon="6.85711">
        <ele>753.59997558594</ele>
        <time>2026-09-02T12:52:29.000Z</time>
      </trkpt>
      <trkpt lat="48.13333" lon="6.85712">
        <ele>753.40002441406</ele>
        <time>2026-09-02T12:52:30.000Z</time>
      </trkpt>
      <trkpt lat="48.13333" lon="6.85714">
        <ele>753.59997558594</ele>
        <time>2026-09-02T12:52:31.000Z</time>
      </trkpt>
      <trkpt lat="48.13332" lon="6.85715">
        <ele>753.59997558594</ele>
        <time>2026-09-02T12:52:32.000Z</time>
      </trkpt>
      <trkpt lat="48.13332" lon="6.85716">
        <ele>753.59997558594</ele>
        <time>2026-09-02T12:52:33.000Z</time>
      </trkpt>
      <trkpt lat="48.13332" lon="6.85718">
        <ele>753.40002441406</ele>
        <time>2026-09-02T12:52:34.000Z</time>
      </trkpt>
      <trkpt lat="48.13331" lon="6.85719">
        <ele>753.19995117188</ele>
        <time>2026-09-02T12:52:35.000Z</time>
      </trkpt>
      <trkpt lat="48.13331" lon="6.8572">
        <ele>753</ele>
        <time>2026-09-02T12:52:36.000Z</time>
      </trkpt>
      <trkpt lat="48.13331" lon="6.8572">
        <ele>752.80004882812</ele>
        <time>2026-09-02T12:52:37.000Z</time>
      </trkpt>
      <trkpt lat="48.13331" lon="6.85721">
        <ele>752.80004882812</ele>
        <time>2026-09-02T12:52:38.000Z</time>
      </trkpt>
      <trkpt lat="48.1333" lon="6.85722">
        <ele>752.59997558594</ele>
        <time>2026-09-02T12:52:39.000Z</time>
      </trkpt>
      <trkpt lat="48.1333" lon="6.85723">
        <ele>752.59997558594</ele>
        <time>2026-09-02T12:52:40.000Z</time>
      </trkpt>
      <trkpt lat="48.13329" lon="6.85723">
        <ele>752.59997558594</ele>
        <time>2026-09-02T12:52:41.000Z</time>
      </trkpt>
      <trkpt lat="48.13328" lon="6.85724">
        <ele>752.59997558594</ele>
        <time>2026-09-02T12:52:42.000Z</time>
      </trkpt>
      <trkpt lat="48.13327" lon="6.85726">
        <ele>752.59997558594</ele>
        <time>2026-09-02T12:52:43.000Z</time>
      </trkpt>
      <trkpt lat="48.13327" lon="6.85727">
        <ele>752.40002441406</ele>
        <time>2026-09-02T12:52:44.000Z</time>
      </trkpt>
      <trkpt lat="48.13325" lon="6.85728">
        <ele>752.40002441406</ele>
        <time>2026-09-02T12:52:45.000Z</time>
      </trkpt>
      <trkpt lat="48.13324" lon="6.85729">
        <ele>752.19995117188</ele>
        <time>2026-09-02T12:52:46.000Z</time>
      </trkpt>
      <trkpt lat="48.13323" lon="6.8573">
        <ele>752.19995117188</ele>
        <time>2026-09-02T12:52:47.000Z</time>
      </trkpt>
      <trkpt lat="48.13322" lon="6.85731">
        <ele>752.19995117188</ele>
        <time>2026-09-02T12:52:48.000Z</time>
      </trkpt>
      <trkpt lat="48.13321" lon="6.85732">
        <ele>752.40002441406</ele>
        <time>2026-09-02T12:52:49.000Z</time>
      </trkpt>
      <trkpt lat="48.1332" lon="6.85733">
        <ele>752.40002441406</ele>
        <time>2026-09-02T12:52:50.000Z</time>
      </trkpt>
      <trkpt lat="48.1332" lon="6.85733">
        <ele>752.59997558594</ele>
        <time>2026-09-02T12:52:51.000Z</time>
      </trkpt>
      <trkpt lat="48.13319" lon="6.85734">
        <ele>752.59997558594</ele>
        <time>2026-09-02T12:52:52.000Z</time>
      </trkpt>
      <trkpt lat="48.13318" lon="6.85734">
        <ele>752.40002441406</ele>
        <time>2026-09-02T12:52:53.000Z</time>
      </trkpt>
      <trkpt lat="48.13318" lon="6.85735">
        <ele>752.40002441406</ele>
        <time>2026-09-02T12:52:54.000Z</time>
      </trkpt>
      <trkpt lat="48.13318" lon="6.85735">
        <ele>752.19995117188</ele>
        <time>2026-09-02T12:52:55.000Z</time>
      </trkpt>
      <trkpt lat="48.13318" lon="6.85735">
        <ele>752.19995117188</ele>
        <time>2026-09-02T12:52:56.000Z</time>
      </trkpt>
      <trkpt lat="48.13318" lon="6.85735">
        <ele>752.40002441406</ele>
        <time>2026-09-02T12:52:57.000Z</time>
      </trkpt>
      <trkpt lat="48.13317" lon="6.85736">
        <ele>752.59997558594</ele>
        <time>2026-09-02T12:52:58.000Z</time>
      </trkpt>
      <trkpt lat="48.13316" lon="6.85737">
        <ele>752.59997558594</ele>
        <time>2026-09-02T12:52:59.000Z</time>
      </trkpt>
      <trkpt lat="48.13315" lon="6.85737">
        <ele>752.80004882812</ele>
        <time>2026-09-02T12:53:00.000Z</time>
      </trkpt>
      <trkpt lat="48.13314" lon="6.85737">
        <ele>752.80004882812</ele>
        <time>2026-09-02T12:53:01.000Z</time>
      </trkpt>
      <trkpt lat="48.13314" lon="6.85737">
        <ele>752.80004882812</ele>
        <time>2026-09-02T12:53:02.000Z</time>
      </trkpt>
      <trkpt lat="48.13313" lon="6.85738">
        <ele>752.80004882812</ele>
        <time>2026-09-02T12:53:03.000Z</time>
      </trkpt>
      <trkpt lat="48.13313" lon="6.85739">
        <ele>752.80004882812</ele>
        <time>2026-09-02T12:53:04.000Z</time>
      </trkpt>
      <trkpt lat="48.13313" lon="6.85739">
        <ele>752.80004882812</ele>
        <time>2026-09-02T12:53:05.000Z</time>
      </trkpt>
      <trkpt lat="48.13312" lon="6.8574">
        <ele>752.80004882812</ele>
        <time>2026-09-02T12:53:06.000Z</time>
      </trkpt>
      <trkpt lat="48.13311" lon="6.85741">
        <ele>752.80004882812</ele>
        <time>2026-09-02T12:53:07.000Z</time>
      </trkpt>
      <trkpt lat="48.13311" lon="6.85742">
        <ele>752.80004882812</ele>
        <time>2026-09-02T12:53:08.000Z</time>
      </trkpt>
      <trkpt lat="48.1331" lon="6.85743">
        <ele>752.80004882812</ele>
        <time>2026-09-02T12:53:09.000Z</time>
      </trkpt>
      <trkpt lat="48.1331" lon="6.85744">
        <ele>752.80004882812</ele>
        <time>2026-09-02T12:53:10.000Z</time>
      </trkpt>
      <trkpt lat="48.1331" lon="6.85744">
        <ele>752.80004882812</ele>
        <time>2026-09-02T12:53:11.000Z</time>
      </trkpt>
      <trkpt lat="48.13309" lon="6.85746">
        <ele>752.80004882812</ele>
        <time>2026-09-02T12:53:12.000Z</time>
      </trkpt>
      <trkpt lat="48.13309" lon="6.85746">
        <ele>752.59997558594</ele>
        <time>2026-09-02T12:53:13.000Z</time>
      </trkpt>
      <trkpt lat="48.13308" lon="6.85746">
        <ele>752.59997558594</ele>
        <time>2026-09-02T12:53:14.000Z</time>
      </trkpt>
      <trkpt lat="48.13309" lon="6.85748">
        <ele>752.59997558594</ele>
        <time>2026-09-02T12:53:15.000Z</time>
      </trkpt>
      <trkpt lat="48.13309" lon="6.85748">
        <ele>752.59997558594</ele>
        <time>2026-09-02T12:53:16.000Z</time>
      </trkpt>
      <trkpt lat="48.13308" lon="6.85749">
        <ele>752.40002441406</ele>
        <time>2026-09-02T12:53:17.000Z</time>
      </trkpt>
      <trkpt lat="48.13308" lon="6.8575">
        <ele>752.40002441406</ele>
        <time>2026-09-02T12:53:18.000Z</time>
      </trkpt>
      <trkpt lat="48.13307" lon="6.8575">
        <ele>752.40002441406</ele>
        <time>2026-09-02T12:53:19.000Z</time>
      </trkpt>
      <trkpt lat="48.13307" lon="6.8575">
        <ele>752.40002441406</ele>
        <time>2026-09-02T12:53:20.000Z</time>
      </trkpt>
      <trkpt lat="48.13307" lon="6.85751">
        <ele>752.40002441406</ele>
        <time>2026-09-02T12:53:21.000Z</time>
      </trkpt>
      <trkpt lat="48.13307" lon="6.85751">
        <ele>752.40002441406</ele>
        <time>2026-09-02T12:53:22.000Z</time>
      </trkpt>
      <trkpt lat="48.13307" lon="6.85751">
        <ele>752.40002441406</ele>
        <time>2026-09-02T12:53:23.000Z</time>
      </trkpt>
      <trkpt lat="48.13307" lon="6.85751">
        <ele>752.40002441406</ele>
        <time>2026-09-02T12:53:24.000Z</time>
      </trkpt>
      <trkpt lat="48.13307" lon="6.85751">
        <ele>752.40002441406</ele>
        <time>2026-09-02T12:53:25.000Z</time>
      </trkpt>
      <trkpt lat="48.13307" lon="6.85751">
        <ele>752.40002441406</ele>
        <time>2026-09-02T12:53:26.000Z</time>
      </trkpt>
      <trkpt lat="48.13307" lon="6.85751">
        <ele>752.40002441406</ele>
        <time>2026-09-02T12:53:27.000Z</time>
      </trkpt>
      <trkpt lat="48.13307" lon="6.85751">
        <ele>752.40002441406</ele>
        <time>2026-09-02T12:53:28.000Z</time>
      </trkpt>
      <trkpt lat="48.13307" lon="6.85751">
        <ele>752.19995117188</ele>
        <time>2026-09-02T12:53:29.000Z</time>
      </trkpt>
      <trkpt lat="48.13307" lon="6.85751">
        <ele>752.19995117188</ele>
        <time>2026-09-02T12:53:30.000Z</time>
      </trkpt>
      <trkpt lat="48.13307" lon="6.85751">
        <ele>752.19995117188</ele>
        <time>2026-09-02T12:53:31.000Z</time>
      </trkpt>
      <trkpt lat="48.13306" lon="6.85752">
        <ele>752</ele>
        <time>2026-09-02T12:53:32.000Z</time>
      </trkpt>
      <trkpt lat="48.13306" lon="6.85753">
        <ele>752</ele>
        <time>2026-09-02T12:53:33.000Z</time>
      </trkpt>
      <trkpt lat="48.13306" lon="6.85754">
        <ele>752</ele>
        <time>2026-09-02T12:53:34.000Z</time>
      </trkpt>
      <trkpt lat="48.13306" lon="6.85754">
        <ele>752</ele>
        <time>2026-09-02T12:53:35.000Z</time>
      </trkpt>
      <trkpt lat="48.13305" lon="6.85754">
        <ele>752</ele>
        <time>2026-09-02T12:53:36.000Z</time>
      </trkpt>
      <trkpt lat="48.13305" lon="6.85755">
        <ele>752</ele>
        <time>2026-09-02T12:53:37.000Z</time>
      </trkpt>
      <trkpt lat="48.13305" lon="6.85755">
        <ele>752</ele>
        <time>2026-09-02T12:53:38.000Z</time>
      </trkpt>
      <trkpt lat="48.13305" lon="6.85755">
        <ele>752</ele>
        <time>2026-09-02T12:53:39.000Z</time>
      </trkpt>
      <trkpt lat="48.13305" lon="6.85755">
        <ele>752</ele>
        <time>2026-09-02T12:53:40.000Z</time>
      </trkpt>
      <trkpt lat="48.13305" lon="6.85756">
        <ele>752</ele>
        <time>2026-09-02T12:53:41.000Z</time>
      </trkpt>
      <trkpt lat="48.13305" lon="6.85757">
        <ele>751.80004882812</ele>
        <time>2026-09-02T12:53:42.000Z</time>
      </trkpt>
      <trkpt lat="48.13304" lon="6.85757">
        <ele>751.80004882812</ele>
        <time>2026-09-02T12:53:43.000Z</time>
      </trkpt>
      <trkpt lat="48.13304" lon="6.85758">
        <ele>751.80004882812</ele>
        <time>2026-09-02T12:53:44.000Z</time>
      </trkpt>
      <trkpt lat="48.13304" lon="6.85758">
        <ele>751.80004882812</ele>
        <time>2026-09-02T12:53:45.000Z</time>
      </trkpt>
      <trkpt lat="48.13304" lon="6.85758">
        <ele>751.80004882812</ele>
        <time>2026-09-02T12:53:46.000Z</time>
      </trkpt>
      <trkpt lat="48.13304" lon="6.85759">
        <ele>751.80004882812</ele>
        <time>2026-09-02T12:53:47.000Z</time>
      </trkpt>
      <trkpt lat="48.13304" lon="6.8576">
        <ele>751.59997558594</ele>
        <time>2026-09-02T12:53:48.000Z</time>
      </trkpt>
      <trkpt lat="48.13304" lon="6.85761">
        <ele>751.59997558594</ele>
        <time>2026-09-02T12:53:49.000Z</time>
      </trkpt>
      <trkpt lat="48.13303" lon="6.85762">
        <ele>751.59997558594</ele>
        <time>2026-09-02T12:53:50.000Z</time>
      </trkpt>
      <trkpt lat="48.13303" lon="6.85762">
        <ele>751.59997558594</ele>
        <time>2026-09-02T12:53:51.000Z</time>
      </trkpt>
      <trkpt lat="48.13302" lon="6.85762">
        <ele>751.40002441406</ele>
        <time>2026-09-02T12:53:52.000Z</time>
      </trkpt>
      <trkpt lat="48.13301" lon="6.85762">
        <ele>751.40002441406</ele>
        <time>2026-09-02T12:53:53.000Z</time>
      </trkpt>
      <trkpt lat="48.13301" lon="6.85763">
        <ele>751.40002441406</ele>
        <time>2026-09-02T12:53:54.000Z</time>
      </trkpt>
      <trkpt lat="48.13301" lon="6.85763">
        <ele>751.40002441406</ele>
        <time>2026-09-02T12:53:55.000Z</time>
      </trkpt>
      <trkpt lat="48.133" lon="6.85764">
        <ele>751.40002441406</ele>
        <time>2026-09-02T12:53:56.000Z</time>
      </trkpt>
      <trkpt lat="48.133" lon="6.85764">
        <ele>751.40002441406</ele>
        <time>2026-09-02T12:53:57.000Z</time>
      </trkpt>
      <trkpt lat="48.13299" lon="6.85765">
        <ele>751.40002441406</ele>
        <time>2026-09-02T12:53:58.000Z</time>
      </trkpt>
      <trkpt lat="48.13299" lon="6.85766">
        <ele>751.19995117188</ele>
        <time>2026-09-02T12:53:59.000Z</time>
      </trkpt>
      <trkpt lat="48.13299" lon="6.85767">
        <ele>751.19995117188</ele>
        <time>2026-09-02T12:54:00.000Z</time>
      </trkpt>
      <trkpt lat="48.13299" lon="6.85767">
        <ele>751.19995117188</ele>
        <time>2026-09-02T12:54:01.000Z</time>
      </trkpt>
      <trkpt lat="48.13298" lon="6.85767">
        <ele>751</ele>
        <time>2026-09-02T12:54:02.000Z</time>
      </trkpt>
      <trkpt lat="48.13298" lon="6.85768">
        <ele>751</ele>
        <time>2026-09-02T12:54:03.000Z</time>
      </trkpt>
      <trkpt lat="48.13298" lon="6.85768">
        <ele>751</ele>
        <time>2026-09-02T12:54:04.000Z</time>
      </trkpt>
      <trkpt lat="48.13298" lon="6.85768">
        <ele>751</ele>
        <time>2026-09-02T12:54:05.000Z</time>
      </trkpt>
      <trkpt lat="48.13297" lon="6.85768">
        <ele>751</ele>
        <time>2026-09-02T12:54:06.000Z</time>
      </trkpt>
      <trkpt lat="48.13297" lon="6.85769">
        <ele>751</ele>
        <time>2026-09-02T12:54:07.000Z</time>
      </trkpt>
      <trkpt lat="48.13297" lon="6.85769">
        <ele>751</ele>
        <time>2026-09-02T12:54:08.000Z</time>
      </trkpt>
      <trkpt lat="48.13297" lon="6.8577">
        <ele>751</ele>
        <time>2026-09-02T12:54:09.000Z</time>
      </trkpt>
      <trkpt lat="48.13297" lon="6.8577">
        <ele>751</ele>
        <time>2026-09-02T12:54:10.000Z</time>
      </trkpt>
      <trkpt lat="48.13297" lon="6.85771">
        <ele>751</ele>
        <time>2026-09-02T12:54:11.000Z</time>
      </trkpt>
      <trkpt lat="48.13296" lon="6.85772">
        <ele>751</ele>
        <time>2026-09-02T12:54:12.000Z</time>
      </trkpt>
      <trkpt lat="48.13296" lon="6.85773">
        <ele>751</ele>
        <time>2026-09-02T12:54:13.000Z</time>
      </trkpt>
      <trkpt lat="48.13295" lon="6.85774">
        <ele>751</ele>
        <time>2026-09-02T12:54:14.000Z</time>
      </trkpt>
      <trkpt lat="48.13295" lon="6.85774">
        <ele>751</ele>
        <time>2026-09-02T12:54:15.000Z</time>
      </trkpt>
      <trkpt lat="48.13295" lon="6.85774">
        <ele>750.80004882812</ele>
        <time>2026-09-02T12:54:16.000Z</time>
      </trkpt>
      <trkpt lat="48.13294" lon="6.85775">
        <ele>750.80004882812</ele>
        <time>2026-09-02T12:54:17.000Z</time>
      </trkpt>
      <trkpt lat="48.13294" lon="6.85776">
        <ele>750.80004882812</ele>
        <time>2026-09-02T12:54:18.000Z</time>
      </trkpt>
      <trkpt lat="48.13294" lon="6.85776">
        <ele>750.80004882812</ele>
        <time>2026-09-02T12:54:19.000Z</time>
      </trkpt>
      <trkpt lat="48.13294" lon="6.85777">
        <ele>750.80004882812</ele>
        <time>2026-09-02T12:54:20.000Z</time>
      </trkpt>
      <trkpt lat="48.13294" lon="6.85779">
        <ele>750.80004882812</ele>
        <time>2026-09-02T12:54:21.000Z</time>
      </trkpt>
      <trkpt lat="48.13293" lon="6.85779">
        <ele>750.80004882812</ele>
        <time>2026-09-02T12:54:22.000Z</time>
      </trkpt>
      <trkpt lat="48.13292" lon="6.85781">
        <ele>750.80004882812</ele>
        <time>2026-09-02T12:54:23.000Z</time>
      </trkpt>
      <trkpt lat="48.13292" lon="6.85782">
        <ele>751</ele>
        <time>2026-09-02T12:54:24.000Z</time>
      </trkpt>
      <trkpt lat="48.13291" lon="6.85783">
        <ele>750.80004882812</ele>
        <time>2026-09-02T12:54:25.000Z</time>
      </trkpt>
      <trkpt lat="48.13291" lon="6.85783">
        <ele>750.80004882812</ele>
        <time>2026-09-02T12:54:26.000Z</time>
      </trkpt>
      <trkpt lat="48.1329" lon="6.85784">
        <ele>750.80004882812</ele>
        <time>2026-09-02T12:54:27.000Z</time>
      </trkpt>
      <trkpt lat="48.13289" lon="6.85786">
        <ele>750.59997558594</ele>
        <time>2026-09-02T12:54:28.000Z</time>
      </trkpt>
      <trkpt lat="48.13289" lon="6.85786">
        <ele>750.59997558594</ele>
        <time>2026-09-02T12:54:29.000Z</time>
      </trkpt>
      <trkpt lat="48.13288" lon="6.85787">
        <ele>750.59997558594</ele>
        <time>2026-09-02T12:54:30.000Z</time>
      </trkpt>
      <trkpt lat="48.13288" lon="6.85789">
        <ele>750.59997558594</ele>
        <time>2026-09-02T12:54:31.000Z</time>
      </trkpt>
      <trkpt lat="48.13287" lon="6.8579">
        <ele>750.80004882812</ele>
        <time>2026-09-02T12:54:32.000Z</time>
      </trkpt>
      <trkpt lat="48.13287" lon="6.85792">
        <ele>750.80004882812</ele>
        <time>2026-09-02T12:54:33.000Z</time>
      </trkpt>
      <trkpt lat="48.13286" lon="6.85792">
        <ele>750.80004882812</ele>
        <time>2026-09-02T12:54:34.000Z</time>
      </trkpt>
      <trkpt lat="48.13286" lon="6.85794">
        <ele>750.80004882812</ele>
        <time>2026-09-02T12:54:35.000Z</time>
      </trkpt>
      <trkpt lat="48.13285" lon="6.85795">
        <ele>750.59997558594</ele>
        <time>2026-09-02T12:54:36.000Z</time>
      </trkpt>
      <trkpt lat="48.13285" lon="6.85796">
        <ele>750.59997558594</ele>
        <time>2026-09-02T12:54:37.000Z</time>
      </trkpt>
      <trkpt lat="48.13285" lon="6.85796">
        <ele>750.59997558594</ele>
        <time>2026-09-02T12:54:38.000Z</time>
      </trkpt>
      <trkpt lat="48.13284" lon="6.85798">
        <ele>750.59997558594</ele>
        <time>2026-09-02T12:54:39.000Z</time>
      </trkpt>
      <trkpt lat="48.13284" lon="6.85798">
        <ele>750.59997558594</ele>
        <time>2026-09-02T12:54:40.000Z</time>
      </trkpt>
      <trkpt lat="48.13284" lon="6.85799">
        <ele>750.59997558594</ele>
        <time>2026-09-02T12:54:41.000Z</time>
      </trkpt>
      <trkpt lat="48.13283" lon="6.858">
        <ele>750.40002441406</ele>
        <time>2026-09-02T12:54:42.000Z</time>
      </trkpt>
      <trkpt lat="48.13283" lon="6.858">
        <ele>750.40002441406</ele>
        <time>2026-09-02T12:54:43.000Z</time>
      </trkpt>
      <trkpt lat="48.13283" lon="6.85799">
        <ele>750.40002441406</ele>
        <time>2026-09-02T12:54:44.000Z</time>
      </trkpt>
      <trkpt lat="48.13283" lon="6.85799">
        <ele>750.19995117188</ele>
        <time>2026-09-02T12:54:45.000Z</time>
      </trkpt>
      <trkpt lat="48.13283" lon="6.85799">
        <ele>750.19995117188</ele>
        <time>2026-09-02T12:54:46.000Z</time>
      </trkpt>
      <trkpt lat="48.13283" lon="6.85799">
        <ele>750.19995117188</ele>
        <time>2026-09-02T12:54:47.000Z</time>
      </trkpt>
      <trkpt lat="48.13283" lon="6.85799">
        <ele>750.19995117188</ele>
        <time>2026-09-02T12:54:48.000Z</time>
      </trkpt>
      <trkpt lat="48.13283" lon="6.85799">
        <ele>750.19995117188</ele>
        <time>2026-09-02T12:54:49.000Z</time>
      </trkpt>
      <trkpt lat="48.13283" lon="6.85799">
        <ele>750.19995117188</ele>
        <time>2026-09-02T12:54:50.000Z</time>
      </trkpt>
      <trkpt lat="48.13283" lon="6.85799">
        <ele>750.19995117188</ele>
        <time>2026-09-02T12:54:51.000Z</time>
      </trkpt>
      <trkpt lat="48.13283" lon="6.85799">
        <ele>750.19995117188</ele>
        <time>2026-09-02T12:54:52.000Z</time>
      </trkpt>
      <trkpt lat="48.13282" lon="6.85799">
        <ele>750.19995117188</ele>
        <time>2026-09-02T12:54:53.000Z</time>
      </trkpt>
      <trkpt lat="48.13283" lon="6.85799">
        <ele>750</ele>
        <time>2026-09-02T12:54:54.000Z</time>
      </trkpt>
      <trkpt lat="48.13283" lon="6.85799">
        <ele>750</ele>
        <time>2026-09-02T12:54:55.000Z</time>
      </trkpt>
      <trkpt lat="48.13283" lon="6.85799">
        <ele>750</ele>
        <time>2026-09-02T12:54:56.000Z</time>
      </trkpt>
      <trkpt lat="48.13283" lon="6.85799">
        <ele>750</ele>
        <time>2026-09-02T12:54:57.000Z</time>
      </trkpt>
      <trkpt lat="48.13283" lon="6.85799">
        <ele>749.80004882812</ele>
        <time>2026-09-02T12:54:58.000Z</time>
      </trkpt>
      <trkpt lat="48.13283" lon="6.85799">
        <ele>749.80004882812</ele>
        <time>2026-09-02T12:54:59.000Z</time>
      </trkpt>
      <trkpt lat="48.13283" lon="6.85799">
        <ele>750</ele>
        <time>2026-09-02T12:55:00.000Z</time>
      </trkpt>
      <trkpt lat="48.13283" lon="6.85799">
        <ele>750</ele>
        <time>2026-09-02T12:55:01.000Z</time>
      </trkpt>
      <trkpt lat="48.13283" lon="6.85799">
        <ele>750</ele>
        <time>2026-09-02T12:55:02.000Z</time>
      </trkpt>
      <trkpt lat="48.13283" lon="6.85799">
        <ele>750</ele>
        <time>2026-09-02T12:55:03.000Z</time>
      </trkpt>
      <trkpt lat="48.13283" lon="6.85799">
        <ele>750.19995117188</ele>
        <time>2026-09-02T12:55:04.000Z</time>
      </trkpt>
      <trkpt lat="48.13283" lon="6.85799">
        <ele>750.19995117188</ele>
        <time>2026-09-02T12:55:05.000Z</time>
      </trkpt>
      <trkpt lat="48.13283" lon="6.85799">
        <ele>750</ele>
        <time>2026-09-02T12:55:06.000Z</time>
      </trkpt>
      <trkpt lat="48.13283" lon="6.85799">
        <ele>750</ele>
        <time>2026-09-02T12:55:07.000Z</time>
      </trkpt>
      <trkpt lat="48.13283" lon="6.85799">
        <ele>750</ele>
        <time>2026-09-02T12:55:08.000Z</time>
      </trkpt>
      <trkpt lat="48.13283" lon="6.85799">
        <ele>749.80004882812</ele>
        <time>2026-09-02T12:55:09.000Z</time>
      </trkpt>
      <trkpt lat="48.13283" lon="6.85799">
        <ele>749.80004882812</ele>
        <time>2026-09-02T12:55:10.000Z</time>
      </trkpt>
      <trkpt lat="48.13283" lon="6.85799">
        <ele>750</ele>
        <time>2026-09-02T12:55:11.000Z</time>
      </trkpt>
      <trkpt lat="48.13283" lon="6.85799">
        <ele>750</ele>
        <time>2026-09-02T12:55:12.000Z</time>
      </trkpt>
      <trkpt lat="48.13283" lon="6.85799">
        <ele>750</ele>
        <time>2026-09-02T12:55:13.000Z</time>
      </trkpt>
      <trkpt lat="48.13283" lon="6.85799">
        <ele>749.80004882812</ele>
        <time>2026-09-02T12:55:14.000Z</time>
      </trkpt>
      <trkpt lat="48.13283" lon="6.85799">
        <ele>749.80004882812</ele>
        <time>2026-09-02T12:55:15.000Z</time>
      </trkpt>
      <trkpt lat="48.13283" lon="6.85799">
        <ele>749.80004882812</ele>
        <time>2026-09-02T12:55:16.000Z</time>
      </trkpt>
      <trkpt lat="48.13283" lon="6.85799">
        <ele>749.80004882812</ele>
        <time>2026-09-02T12:55:17.000Z</time>
      </trkpt>
      <trkpt lat="48.13283" lon="6.85799">
        <ele>749.59997558594</ele>
        <time>2026-09-02T12:55:18.000Z</time>
      </trkpt>
      <trkpt lat="48.13283" lon="6.85799">
        <ele>749.59997558594</ele>
        <time>2026-09-02T12:55:19.000Z</time>
      </trkpt>
      <trkpt lat="48.13283" lon="6.85799">
        <ele>749.80004882812</ele>
        <time>2026-09-02T12:55:20.000Z</time>
      </trkpt>
      <trkpt lat="48.13283" lon="6.85799">
        <ele>749.80004882812</ele>
        <time>2026-09-02T12:55:21.000Z</time>
      </trkpt>
      <trkpt lat="48.13283" lon="6.85799">
        <ele>749.80004882812</ele>
        <time>2026-09-02T12:55:22.000Z</time>
      </trkpt>
      <trkpt lat="48.13283" lon="6.85799">
        <ele>749.80004882812</ele>
        <time>2026-09-02T12:55:23.000Z</time>
      </trkpt>
      <trkpt lat="48.13283" lon="6.85799">
        <ele>749.80004882812</ele>
        <time>2026-09-02T12:55:24.000Z</time>
      </trkpt>
      <trkpt lat="48.13283" lon="6.85799">
        <ele>749.80004882812</ele>
        <time>2026-09-02T12:55:25.000Z</time>
      </trkpt>
      <trkpt lat="48.13283" lon="6.85799">
        <ele>750</ele>
        <time>2026-09-02T12:55:26.000Z</time>
      </trkpt>
      <trkpt lat="48.13283" lon="6.85799">
        <ele>750</ele>
        <time>2026-09-02T12:55:27.000Z</time>
      </trkpt>
      <trkpt lat="48.13283" lon="6.85799">
        <ele>750</ele>
        <time>2026-09-02T12:55:28.000Z</time>
      </trkpt>
      <trkpt lat="48.13283" lon="6.85799">
        <ele>750</ele>
        <time>2026-09-02T12:55:29.000Z</time>
      </trkpt>
      <trkpt lat="48.13283" lon="6.85799">
        <ele>750</ele>
        <time>2026-09-02T12:55:30.000Z</time>
      </trkpt>
      <trkpt lat="48.13283" lon="6.85799">
        <ele>750</ele>
        <time>2026-09-02T12:55:31.000Z</time>
      </trkpt>
      <trkpt lat="48.13283" lon="6.85799">
        <ele>749.80004882812</ele>
        <time>2026-09-02T12:55:32.000Z</time>
      </trkpt>
      <trkpt lat="48.13282" lon="6.858">
        <ele>750</ele>
        <time>2026-09-02T12:55:33.000Z</time>
      </trkpt>
      <trkpt lat="48.13282" lon="6.85801">
        <ele>750</ele>
        <time>2026-09-02T12:55:34.000Z</time>
      </trkpt>
      <trkpt lat="48.13282" lon="6.85801">
        <ele>750.19995117188</ele>
        <time>2026-09-02T12:55:35.000Z</time>
      </trkpt>
      <trkpt lat="48.13282" lon="6.85801">
        <ele>750.59997558594</ele>
        <time>2026-09-02T12:55:36.000Z</time>
      </trkpt>
      <trkpt lat="48.13283" lon="6.85799">
        <ele>750.80004882812</ele>
        <time>2026-09-02T12:55:37.000Z</time>
      </trkpt>
      <trkpt lat="48.13283" lon="6.85799">
        <ele>750.80004882812</ele>
        <time>2026-09-02T12:55:38.000Z</time>
      </trkpt>
      <trkpt lat="48.13283" lon="6.85799">
        <ele>751</ele>
        <time>2026-09-02T12:55:39.000Z</time>
      </trkpt>
      <trkpt lat="48.13283" lon="6.85799">
        <ele>751</ele>
        <time>2026-09-02T12:55:40.000Z</time>
      </trkpt>
      <trkpt lat="48.13283" lon="6.85799">
        <ele>750.80004882812</ele>
        <time>2026-09-02T12:55:41.000Z</time>
      </trkpt>
      <trkpt lat="48.13282" lon="6.85801">
        <ele>750.59997558594</ele>
        <time>2026-09-02T12:55:42.000Z</time>
      </trkpt>
      <trkpt lat="48.13282" lon="6.85801">
        <ele>750.40002441406</ele>
        <time>2026-09-02T12:55:43.000Z</time>
      </trkpt>
      <trkpt lat="48.13282" lon="6.85801">
        <ele>750.19995117188</ele>
        <time>2026-09-02T12:55:44.000Z</time>
      </trkpt>
      <trkpt lat="48.13282" lon="6.85801">
        <ele>749.80004882812</ele>
        <time>2026-09-02T12:55:45.000Z</time>
      </trkpt>
      <trkpt lat="48.13282" lon="6.85801">
        <ele>749.59997558594</ele>
        <time>2026-09-02T12:55:46.000Z</time>
      </trkpt>
      <trkpt lat="48.13282" lon="6.85801">
        <ele>749.59997558594</ele>
        <time>2026-09-02T12:55:47.000Z</time>
      </trkpt>
      <trkpt lat="48.13282" lon="6.85801">
        <ele>749.59997558594</ele>
        <time>2026-09-02T12:55:48.000Z</time>
      </trkpt>
      <trkpt lat="48.13282" lon="6.85801">
        <ele>749.59997558594</ele>
        <time>2026-09-02T12:55:49.000Z</time>
      </trkpt>
      <trkpt lat="48.13282" lon="6.85801">
        <ele>749.59997558594</ele>
        <time>2026-09-02T12:55:50.000Z</time>
      </trkpt>
      <trkpt lat="48.13282" lon="6.85801">
        <ele>749.59997558594</ele>
        <time>2026-09-02T12:55:51.000Z</time>
      </trkpt>
      <trkpt lat="48.13282" lon="6.85801">
        <ele>749.59997558594</ele>
        <time>2026-09-02T12:55:52.000Z</time>
      </trkpt>
      <trkpt lat="48.13282" lon="6.85801">
        <ele>749.59997558594</ele>
        <time>2026-09-02T12:55:53.000Z</time>
      </trkpt>
      <trkpt lat="48.13282" lon="6.85801">
        <ele>749.59997558594</ele>
        <time>2026-09-02T12:55:54.000Z</time>
      </trkpt>
      <trkpt lat="48.13282" lon="6.85801">
        <ele>749.59997558594</ele>
        <time>2026-09-02T12:55:55.000Z</time>
      </trkpt>
      <trkpt lat="48.13282" lon="6.85801">
        <ele>749.40002441406</ele>
        <time>2026-09-02T12:55:56.000Z</time>
      </trkpt>
      <trkpt lat="48.13282" lon="6.85801">
        <ele>749.40002441406</ele>
        <time>2026-09-02T12:55:57.000Z</time>
      </trkpt>
      <trkpt lat="48.13282" lon="6.85801">
        <ele>749.40002441406</ele>
        <time>2026-09-02T12:55:58.000Z</time>
      </trkpt>
      <trkpt lat="48.13282" lon="6.85801">
        <ele>749.40002441406</ele>
        <time>2026-09-02T12:55:59.000Z</time>
      </trkpt>
      <trkpt lat="48.13282" lon="6.85801">
        <ele>749.59997558594</ele>
        <time>2026-09-02T12:56:00.000Z</time>
      </trkpt>
      <trkpt lat="48.13282" lon="6.85801">
        <ele>749.59997558594</ele>
        <time>2026-09-02T12:56:01.000Z</time>
      </trkpt>
      <trkpt lat="48.13282" lon="6.85801">
        <ele>749.59997558594</ele>
        <time>2026-09-02T12:56:02.000Z</time>
      </trkpt>
      <trkpt lat="48.13282" lon="6.85801">
        <ele>749.59997558594</ele>
        <time>2026-09-02T12:56:03.000Z</time>
      </trkpt>
      <trkpt lat="48.13282" lon="6.85801">
        <ele>749.59997558594</ele>
        <time>2026-09-02T12:56:04.000Z</time>
      </trkpt>
      <trkpt lat="48.13282" lon="6.85801">
        <ele>749.40002441406</ele>
        <time>2026-09-02T12:56:05.000Z</time>
      </trkpt>
      <trkpt lat="48.13282" lon="6.85801">
        <ele>749.40002441406</ele>
        <time>2026-09-02T12:56:06.000Z</time>
      </trkpt>
      <trkpt lat="48.13282" lon="6.85801">
        <ele>749.40002441406</ele>
        <time>2026-09-02T12:56:07.000Z</time>
      </trkpt>
      <trkpt lat="48.13282" lon="6.85801">
        <ele>749.40002441406</ele>
        <time>2026-09-02T12:56:08.000Z</time>
      </trkpt>
      <trkpt lat="48.13282" lon="6.85801">
        <ele>749.40002441406</ele>
        <time>2026-09-02T12:56:09.000Z</time>
      </trkpt>
      <trkpt lat="48.13282" lon="6.85801">
        <ele>749.40002441406</ele>
        <time>2026-09-02T12:56:10.000Z</time>
      </trkpt>
      <trkpt lat="48.13282" lon="6.85801">
        <ele>749.40002441406</ele>
        <time>2026-09-02T12:56:11.000Z</time>
      </trkpt>
      <trkpt lat="48.13282" lon="6.85801">
        <ele>749.40002441406</ele>
        <time>2026-09-02T12:56:12.000Z</time>
      </trkpt>
      <trkpt lat="48.13282" lon="6.85801">
        <ele>749.40002441406</ele>
        <time>2026-09-02T12:56:13.000Z</time>
      </trkpt>
      <trkpt lat="48.13282" lon="6.85801">
        <ele>749.40002441406</ele>
        <time>2026-09-02T12:56:14.000Z</time>
      </trkpt>
      <trkpt lat="48.13282" lon="6.85801">
        <ele>749.40002441406</ele>
        <time>2026-09-02T12:56:15.000Z</time>
      </trkpt>
      <trkpt lat="48.13282" lon="6.85801">
        <ele>749.40002441406</ele>
        <time>2026-09-02T12:56:16.000Z</time>
      </trkpt>
      <trkpt lat="48.13282" lon="6.85801">
        <ele>749.40002441406</ele>
        <time>2026-09-02T12:56:17.000Z</time>
      </trkpt>
      <trkpt lat="48.13282" lon="6.85801">
        <ele>749.40002441406</ele>
        <time>2026-09-02T12:56:18.000Z</time>
      </trkpt>
      <trkpt lat="48.13282" lon="6.85801">
        <ele>749.40002441406</ele>
        <time>2026-09-02T12:56:19.000Z</time>
      </trkpt>
      <trkpt lat="48.13282" lon="6.85801">
        <ele>749.19995117188</ele>
        <time>2026-09-02T12:56:20.000Z</time>
      </trkpt>
      <trkpt lat="48.13282" lon="6.85801">
        <ele>749.19995117188</ele>
        <time>2026-09-02T12:56:21.000Z</time>
      </trkpt>
      <trkpt lat="48.13282" lon="6.85801">
        <ele>749.19995117188</ele>
        <time>2026-09-02T12:56:22.000Z</time>
      </trkpt>
      <trkpt lat="48.13282" lon="6.85801">
        <ele>749.19995117188</ele>
        <time>2026-09-02T12:56:23.000Z</time>
      </trkpt>
      <trkpt lat="48.13282" lon="6.85801">
        <ele>749.19995117188</ele>
        <time>2026-09-02T12:56:24.000Z</time>
      </trkpt>
      <trkpt lat="48.13282" lon="6.85801">
        <ele>749.19995117188</ele>
        <time>2026-09-02T12:56:25.000Z</time>
      </trkpt>
      <trkpt lat="48.13282" lon="6.85801">
        <ele>749.40002441406</ele>
        <time>2026-09-02T12:56:26.000Z</time>
      </trkpt>
      <trkpt lat="48.13282" lon="6.85801">
        <ele>749.59997558594</ele>
        <time>2026-09-02T12:56:27.000Z</time>
      </trkpt>
      <trkpt lat="48.13282" lon="6.85801">
        <ele>749.59997558594</ele>
        <time>2026-09-02T12:56:28.000Z</time>
      </trkpt>
      <trkpt lat="48.13282" lon="6.85801">
        <ele>749.80004882812</ele>
        <time>2026-09-02T12:56:29.000Z</time>
      </trkpt>
      <trkpt lat="48.13282" lon="6.85801">
        <ele>749.80004882812</ele>
        <time>2026-09-02T12:56:30.000Z</time>
      </trkpt>
      <trkpt lat="48.13282" lon="6.85801">
        <ele>749.59997558594</ele>
        <time>2026-09-02T12:56:31.000Z</time>
      </trkpt>
      <trkpt lat="48.13282" lon="6.85802">
        <ele>749.59997558594</ele>
        <time>2026-09-02T12:56:32.000Z</time>
      </trkpt>
      <trkpt lat="48.13282" lon="6.85802">
        <ele>749.80004882812</ele>
        <time>2026-09-02T12:56:33.000Z</time>
      </trkpt>
      <trkpt lat="48.13283" lon="6.85802">
        <ele>749.80004882812</ele>
        <time>2026-09-02T12:56:34.000Z</time>
      </trkpt>
      <trkpt lat="48.13283" lon="6.85802">
        <ele>749.80004882812</ele>
        <time>2026-09-02T12:56:35.000Z</time>
      </trkpt>
      <trkpt lat="48.13283" lon="6.85802">
        <ele>750</ele>
        <time>2026-09-02T12:56:36.000Z</time>
      </trkpt>
      <trkpt lat="48.13283" lon="6.85802">
        <ele>750</ele>
        <time>2026-09-02T12:56:37.000Z</time>
      </trkpt>
      <trkpt lat="48.13282" lon="6.85802">
        <ele>750</ele>
        <time>2026-09-02T12:56:38.000Z</time>
      </trkpt>
      <trkpt lat="48.13282" lon="6.85803">
        <ele>750</ele>
        <time>2026-09-02T12:56:39.000Z</time>
      </trkpt>
      <trkpt lat="48.13281" lon="6.85804">
        <ele>750</ele>
        <time>2026-09-02T12:56:40.000Z</time>
      </trkpt>
      <trkpt lat="48.1328" lon="6.85805">
        <ele>749.80004882812</ele>
        <time>2026-09-02T12:56:41.000Z</time>
      </trkpt>
      <trkpt lat="48.13279" lon="6.85805">
        <ele>749.59997558594</ele>
        <time>2026-09-02T12:56:42.000Z</time>
      </trkpt>
      <trkpt lat="48.13279" lon="6.85806">
        <ele>749.40002441406</ele>
        <time>2026-09-02T12:56:43.000Z</time>
      </trkpt>
      <trkpt lat="48.13278" lon="6.85806">
        <ele>749.19995117188</ele>
        <time>2026-09-02T12:56:44.000Z</time>
      </trkpt>
      <trkpt lat="48.13278" lon="6.85807">
        <ele>749</ele>
        <time>2026-09-02T12:56:45.000Z</time>
      </trkpt>
      <trkpt lat="48.13277" lon="6.85808">
        <ele>748.80004882812</ele>
        <time>2026-09-02T12:56:46.000Z</time>
      </trkpt>
      <trkpt lat="48.13277" lon="6.85808">
        <ele>748.80004882812</ele>
        <time>2026-09-02T12:56:47.000Z</time>
      </trkpt>
      <trkpt lat="48.13277" lon="6.85808">
        <ele>748.80004882812</ele>
        <time>2026-09-02T12:56:48.000Z</time>
      </trkpt>
      <trkpt lat="48.13277" lon="6.85808">
        <ele>749.19995117188</ele>
        <time>2026-09-02T12:56:49.000Z</time>
      </trkpt>
      <trkpt lat="48.13277" lon="6.85808">
        <ele>749.59997558594</ele>
        <time>2026-09-02T12:56:50.000Z</time>
      </trkpt>
      <trkpt lat="48.13277" lon="6.85809">
        <ele>749.80004882812</ele>
        <time>2026-09-02T12:56:51.000Z</time>
      </trkpt>
      <trkpt lat="48.13277" lon="6.85808">
        <ele>750</ele>
        <time>2026-09-02T12:56:52.000Z</time>
      </trkpt>
      <trkpt lat="48.13277" lon="6.85808">
        <ele>750.19995117188</ele>
        <time>2026-09-02T12:56:53.000Z</time>
      </trkpt>
      <trkpt lat="48.13277" lon="6.85808">
        <ele>750</ele>
        <time>2026-09-02T12:56:54.000Z</time>
      </trkpt>
      <trkpt lat="48.13277" lon="6.85808">
        <ele>750</ele>
        <time>2026-09-02T12:56:55.000Z</time>
      </trkpt>
      <trkpt lat="48.13277" lon="6.85808">
        <ele>750</ele>
        <time>2026-09-02T12:56:56.000Z</time>
      </trkpt>
      <trkpt lat="48.13277" lon="6.85808">
        <ele>750</ele>
        <time>2026-09-02T12:56:57.000Z</time>
      </trkpt>
      <trkpt lat="48.13277" lon="6.85808">
        <ele>750</ele>
        <time>2026-09-02T12:56:58.000Z</time>
      </trkpt>
      <trkpt lat="48.13277" lon="6.85808">
        <ele>750</ele>
        <time>2026-09-02T12:56:59.000Z</time>
      </trkpt>
      <trkpt lat="48.13277" lon="6.85808">
        <ele>750</ele>
        <time>2026-09-02T12:57:00.000Z</time>
      </trkpt>
      <trkpt lat="48.13277" lon="6.85808">
        <ele>750</ele>
        <time>2026-09-02T12:57:01.000Z</time>
      </trkpt>
      <trkpt lat="48.13277" lon="6.85808">
        <ele>750.19995117188</ele>
        <time>2026-09-02T12:57:02.000Z</time>
      </trkpt>
      <trkpt lat="48.13277" lon="6.85808">
        <ele>750.19995117188</ele>
        <time>2026-09-02T12:57:03.000Z</time>
      </trkpt>
      <trkpt lat="48.13277" lon="6.85808">
        <ele>750.19995117188</ele>
        <time>2026-09-02T12:57:04.000Z</time>
      </trkpt>
      <trkpt lat="48.13277" lon="6.85808">
        <ele>750.19995117188</ele>
        <time>2026-09-02T12:57:05.000Z</time>
      </trkpt>
      <trkpt lat="48.13277" lon="6.85808">
        <ele>750.19995117188</ele>
        <time>2026-09-02T12:57:06.000Z</time>
      </trkpt>
      <trkpt lat="48.13277" lon="6.85808">
        <ele>750.19995117188</ele>
        <time>2026-09-02T12:57:07.000Z</time>
      </trkpt>
      <trkpt lat="48.13277" lon="6.85808">
        <ele>750.19995117188</ele>
        <time>2026-09-02T12:57:08.000Z</time>
      </trkpt>
      <trkpt lat="48.13277" lon="6.85808">
        <ele>750.19995117188</ele>
        <time>2026-09-02T12:57:09.000Z</time>
      </trkpt>
      <trkpt lat="48.13277" lon="6.85808">
        <ele>750.19995117188</ele>
        <time>2026-09-02T12:57:10.000Z</time>
      </trkpt>
      <trkpt lat="48.13277" lon="6.85808">
        <ele>750.19995117188</ele>
        <time>2026-09-02T12:57:11.000Z</time>
      </trkpt>
      <trkpt lat="48.13277" lon="6.85808">
        <ele>750.19995117188</ele>
        <time>2026-09-02T12:57:12.000Z</time>
      </trkpt>
      <trkpt lat="48.13277" lon="6.85808">
        <ele>750.19995117188</ele>
        <time>2026-09-02T12:57:13.000Z</time>
      </trkpt>
      <trkpt lat="48.13277" lon="6.85808">
        <ele>750.19995117188</ele>
        <time>2026-09-02T12:57:14.000Z</time>
      </trkpt>
      <trkpt lat="48.13277" lon="6.85808">
        <ele>750.19995117188</ele>
        <time>2026-09-02T12:57:15.000Z</time>
      </trkpt>
      <trkpt lat="48.13277" lon="6.85808">
        <ele>750.19995117188</ele>
        <time>2026-09-02T12:57:16.000Z</time>
      </trkpt>
      <trkpt lat="48.13277" lon="6.85808">
        <ele>750.19995117188</ele>
        <time>2026-09-02T12:57:17.000Z</time>
      </trkpt>
      <trkpt lat="48.13277" lon="6.85808">
        <ele>750.19995117188</ele>
        <time>2026-09-02T12:57:18.000Z</time>
      </trkpt>
      <trkpt lat="48.13277" lon="6.85808">
        <ele>750.19995117188</ele>
        <time>2026-09-02T12:57:19.000Z</time>
      </trkpt>
      <trkpt lat="48.13277" lon="6.85808">
        <ele>750</ele>
        <time>2026-09-02T12:57:20.000Z</time>
      </trkpt>
      <trkpt lat="48.13277" lon="6.85808">
        <ele>750</ele>
        <time>2026-09-02T12:57:21.000Z</time>
      </trkpt>
      <trkpt lat="48.13277" lon="6.85808">
        <ele>749.80004882812</ele>
        <time>2026-09-02T12:57:22.000Z</time>
      </trkpt>
      <trkpt lat="48.13277" lon="6.85808">
        <ele>749.80004882812</ele>
        <time>2026-09-02T12:57:23.000Z</time>
      </trkpt>
      <trkpt lat="48.13277" lon="6.85808">
        <ele>749.59997558594</ele>
        <time>2026-09-02T12:57:24.000Z</time>
      </trkpt>
      <trkpt lat="48.13277" lon="6.85808">
        <ele>749.59997558594</ele>
        <time>2026-09-02T12:57:25.000Z</time>
      </trkpt>
      <trkpt lat="48.13277" lon="6.85808">
        <ele>749.59997558594</ele>
        <time>2026-09-02T12:57:26.000Z</time>
      </trkpt>
      <trkpt lat="48.13277" lon="6.85808">
        <ele>749.59997558594</ele>
        <time>2026-09-02T12:57:27.000Z</time>
      </trkpt>
      <trkpt lat="48.13277" lon="6.85808">
        <ele>749.59997558594</ele>
        <time>2026-09-02T12:57:28.000Z</time>
      </trkpt>
      <trkpt lat="48.13277" lon="6.85808">
        <ele>749.59997558594</ele>
        <time>2026-09-02T12:57:29.000Z</time>
      </trkpt>
      <trkpt lat="48.13277" lon="6.85808">
        <ele>749.59997558594</ele>
        <time>2026-09-02T12:57:30.000Z</time>
      </trkpt>
      <trkpt lat="48.13277" lon="6.85808">
        <ele>749.59997558594</ele>
        <time>2026-09-02T12:57:31.000Z</time>
      </trkpt>
      <trkpt lat="48.13277" lon="6.85808">
        <ele>749.59997558594</ele>
        <time>2026-09-02T12:57:32.000Z</time>
      </trkpt>
      <trkpt lat="48.13277" lon="6.85808">
        <ele>749.59997558594</ele>
        <time>2026-09-02T12:57:33.000Z</time>
      </trkpt>
      <trkpt lat="48.13277" lon="6.85808">
        <ele>749.59997558594</ele>
        <time>2026-09-02T12:57:34.000Z</time>
      </trkpt>
      <trkpt lat="48.13277" lon="6.85808">
        <ele>749.59997558594</ele>
        <time>2026-09-02T12:57:35.000Z</time>
      </trkpt>
      <trkpt lat="48.13276" lon="6.85808">
        <ele>749.59997558594</ele>
        <time>2026-09-02T12:57:36.000Z</time>
      </trkpt>
      <trkpt lat="48.13276" lon="6.85809">
        <ele>749.59997558594</ele>
        <time>2026-09-02T12:57:37.000Z</time>
      </trkpt>
      <trkpt lat="48.13275" lon="6.85809">
        <ele>749.59997558594</ele>
        <time>2026-09-02T12:57:38.000Z</time>
      </trkpt>
      <trkpt lat="48.13275" lon="6.85809">
        <ele>749.59997558594</ele>
        <time>2026-09-02T12:57:39.000Z</time>
      </trkpt>
      <trkpt lat="48.13275" lon="6.85809">
        <ele>749.59997558594</ele>
        <time>2026-09-02T12:57:40.000Z</time>
      </trkpt>
      <trkpt lat="48.13274" lon="6.85809">
        <ele>749.59997558594</ele>
        <time>2026-09-02T12:57:41.000Z</time>
      </trkpt>
      <trkpt lat="48.13274" lon="6.85809">
        <ele>749.59997558594</ele>
        <time>2026-09-02T12:57:42.000Z</time>
      </trkpt>
      <trkpt lat="48.13274" lon="6.85809">
        <ele>749.59997558594</ele>
        <time>2026-09-02T12:57:43.000Z</time>
      </trkpt>
      <trkpt lat="48.13274" lon="6.85809">
        <ele>749.59997558594</ele>
        <time>2026-09-02T12:57:44.000Z</time>
      </trkpt>
      <trkpt lat="48.13274" lon="6.85809">
        <ele>749.59997558594</ele>
        <time>2026-09-02T12:57:45.000Z</time>
      </trkpt>
      <trkpt lat="48.13274" lon="6.85809">
        <ele>749.40002441406</ele>
        <time>2026-09-02T12:57:46.000Z</time>
      </trkpt>
      <trkpt lat="48.13274" lon="6.85809">
        <ele>749.40002441406</ele>
        <time>2026-09-02T12:57:47.000Z</time>
      </trkpt>
      <trkpt lat="48.13274" lon="6.85809">
        <ele>749.40002441406</ele>
        <time>2026-09-02T12:57:48.000Z</time>
      </trkpt>
      <trkpt lat="48.13274" lon="6.85809">
        <ele>749.40002441406</ele>
        <time>2026-09-02T12:57:49.000Z</time>
      </trkpt>
      <trkpt lat="48.13274" lon="6.85809">
        <ele>749.40002441406</ele>
        <time>2026-09-02T12:57:50.000Z</time>
      </trkpt>
      <trkpt lat="48.13274" lon="6.85809">
        <ele>749.40002441406</ele>
        <time>2026-09-02T12:57:51.000Z</time>
      </trkpt>
      <trkpt lat="48.13274" lon="6.85809">
        <ele>749.19995117188</ele>
        <time>2026-09-02T12:57:52.000Z</time>
      </trkpt>
      <trkpt lat="48.13274" lon="6.85809">
        <ele>749.19995117188</ele>
        <time>2026-09-02T12:57:53.000Z</time>
      </trkpt>
      <trkpt lat="48.13274" lon="6.85809">
        <ele>749.19995117188</ele>
        <time>2026-09-02T12:57:54.000Z</time>
      </trkpt>
      <trkpt lat="48.13274" lon="6.85809">
        <ele>749</ele>
        <time>2026-09-02T12:57:55.000Z</time>
      </trkpt>
      <trkpt lat="48.13274" lon="6.85809">
        <ele>749</ele>
        <time>2026-09-02T12:57:56.000Z</time>
      </trkpt>
      <trkpt lat="48.13274" lon="6.85809">
        <ele>749</ele>
        <time>2026-09-02T12:57:57.000Z</time>
      </trkpt>
      <trkpt lat="48.13274" lon="6.85809">
        <ele>749.19995117188</ele>
        <time>2026-09-02T12:57:58.000Z</time>
      </trkpt>
      <trkpt lat="48.13274" lon="6.85809">
        <ele>749.40002441406</ele>
        <time>2026-09-02T12:57:59.000Z</time>
      </trkpt>
      <trkpt lat="48.13274" lon="6.85809">
        <ele>749.40002441406</ele>
        <time>2026-09-02T12:58:00.000Z</time>
      </trkpt>
      <trkpt lat="48.13274" lon="6.85809">
        <ele>749.59997558594</ele>
        <time>2026-09-02T12:58:01.000Z</time>
      </trkpt>
      <trkpt lat="48.13274" lon="6.85809">
        <ele>749.80004882812</ele>
        <time>2026-09-02T12:58:02.000Z</time>
      </trkpt>
      <trkpt lat="48.13274" lon="6.85809">
        <ele>749.80004882812</ele>
        <time>2026-09-02T12:58:03.000Z</time>
      </trkpt>
      <trkpt lat="48.13274" lon="6.85809">
        <ele>749.80004882812</ele>
        <time>2026-09-02T12:58:04.000Z</time>
      </trkpt>
      <trkpt lat="48.13274" lon="6.85809">
        <ele>749.80004882812</ele>
        <time>2026-09-02T12:58:05.000Z</time>
      </trkpt>
      <trkpt lat="48.13274" lon="6.85809">
        <ele>749.80004882812</ele>
        <time>2026-09-02T12:58:06.000Z</time>
      </trkpt>
      <trkpt lat="48.13274" lon="6.85809">
        <ele>750</ele>
        <time>2026-09-02T12:58:07.000Z</time>
      </trkpt>
      <trkpt lat="48.13274" lon="6.85809">
        <ele>750</ele>
        <time>2026-09-02T12:58:08.000Z</time>
      </trkpt>
      <trkpt lat="48.13274" lon="6.85809">
        <ele>750</ele>
        <time>2026-09-02T12:58:09.000Z</time>
      </trkpt>
      <trkpt lat="48.13274" lon="6.85809">
        <ele>750.19995117188</ele>
        <time>2026-09-02T12:58:10.000Z</time>
      </trkpt>
      <trkpt lat="48.13274" lon="6.85809">
        <ele>750.19995117188</ele>
        <time>2026-09-02T12:58:11.000Z</time>
      </trkpt>
      <trkpt lat="48.13274" lon="6.85809">
        <ele>750.19995117188</ele>
        <time>2026-09-02T12:58:12.000Z</time>
      </trkpt>
      <trkpt lat="48.13274" lon="6.85809">
        <ele>750.40002441406</ele>
        <time>2026-09-02T12:58:13.000Z</time>
      </trkpt>
      <trkpt lat="48.13274" lon="6.85809">
        <ele>750.40002441406</ele>
        <time>2026-09-02T12:58:14.000Z</time>
      </trkpt>
      <trkpt lat="48.13274" lon="6.85809">
        <ele>750.40002441406</ele>
        <time>2026-09-02T12:58:15.000Z</time>
      </trkpt>
      <trkpt lat="48.13274" lon="6.85809">
        <ele>750.40002441406</ele>
        <time>2026-09-02T12:58:16.000Z</time>
      </trkpt>
      <trkpt lat="48.13274" lon="6.85809">
        <ele>750.40002441406</ele>
        <time>2026-09-02T12:58:17.000Z</time>
      </trkpt>
      <trkpt lat="48.13274" lon="6.85809">
        <ele>750.40002441406</ele>
        <time>2026-09-02T12:58:18.000Z</time>
      </trkpt>
      <trkpt lat="48.13274" lon="6.85809">
        <ele>750.19995117188</ele>
        <time>2026-09-02T12:58:19.000Z</time>
      </trkpt>
      <trkpt lat="48.13274" lon="6.85811">
        <ele>750.19995117188</ele>
        <time>2026-09-02T12:58:20.000Z</time>
      </trkpt>
      <trkpt lat="48.13273" lon="6.85811">
        <ele>750</ele>
        <time>2026-09-02T12:58:21.000Z</time>
      </trkpt>
      <trkpt lat="48.13272" lon="6.85812">
        <ele>749.59997558594</ele>
        <time>2026-09-02T12:58:22.000Z</time>
      </trkpt>
      <trkpt lat="48.13271" lon="6.85813">
        <ele>749.40002441406</ele>
        <time>2026-09-02T12:58:23.000Z</time>
      </trkpt>
      <trkpt lat="48.13271" lon="6.85814">
        <ele>749</ele>
        <time>2026-09-02T12:58:24.000Z</time>
      </trkpt>
      <trkpt lat="48.1327" lon="6.85815">
        <ele>748.80004882812</ele>
        <time>2026-09-02T12:58:25.000Z</time>
      </trkpt>
      <trkpt lat="48.1327" lon="6.85816">
        <ele>748.80004882812</ele>
        <time>2026-09-02T12:58:26.000Z</time>
      </trkpt>
      <trkpt lat="48.13269" lon="6.85816">
        <ele>749</ele>
        <time>2026-09-02T12:58:27.000Z</time>
      </trkpt>
      <trkpt lat="48.13269" lon="6.85817">
        <ele>749.19995117188</ele>
        <time>2026-09-02T12:58:28.000Z</time>
      </trkpt>
      <trkpt lat="48.13268" lon="6.85817">
        <ele>749.40002441406</ele>
        <time>2026-09-02T12:58:29.000Z</time>
      </trkpt>
      <trkpt lat="48.13267" lon="6.85818">
        <ele>749.59997558594</ele>
        <time>2026-09-02T12:58:30.000Z</time>
      </trkpt>
      <trkpt lat="48.13266" lon="6.85819">
        <ele>749.80004882812</ele>
        <time>2026-09-02T12:58:31.000Z</time>
      </trkpt>
      <trkpt lat="48.13266" lon="6.85819">
        <ele>749.80004882812</ele>
        <time>2026-09-02T12:58:32.000Z</time>
      </trkpt>
      <trkpt lat="48.13265" lon="6.8582">
        <ele>749.80004882812</ele>
        <time>2026-09-02T12:58:33.000Z</time>
      </trkpt>
      <trkpt lat="48.13264" lon="6.85822">
        <ele>749.80004882812</ele>
        <time>2026-09-02T12:58:34.000Z</time>
      </trkpt>
      <trkpt lat="48.13264" lon="6.85823">
        <ele>749.80004882812</ele>
        <time>2026-09-02T12:58:35.000Z</time>
      </trkpt>
      <trkpt lat="48.13263" lon="6.85823">
        <ele>749.80004882812</ele>
        <time>2026-09-02T12:58:36.000Z</time>
      </trkpt>
      <trkpt lat="48.13262" lon="6.85823">
        <ele>749.59997558594</ele>
        <time>2026-09-02T12:58:37.000Z</time>
      </trkpt>
      <trkpt lat="48.13261" lon="6.85824">
        <ele>749.59997558594</ele>
        <time>2026-09-02T12:58:38.000Z</time>
      </trkpt>
      <trkpt lat="48.13261" lon="6.85825">
        <ele>749.40002441406</ele>
        <time>2026-09-02T12:58:39.000Z</time>
      </trkpt>
      <trkpt lat="48.1326" lon="6.85826">
        <ele>749.40002441406</ele>
        <time>2026-09-02T12:58:40.000Z</time>
      </trkpt>
      <trkpt lat="48.1326" lon="6.85827">
        <ele>749.40002441406</ele>
        <time>2026-09-02T12:58:41.000Z</time>
      </trkpt>
      <trkpt lat="48.13259" lon="6.85827">
        <ele>749.19995117188</ele>
        <time>2026-09-02T12:58:42.000Z</time>
      </trkpt>
      <trkpt lat="48.13258" lon="6.85828">
        <ele>749.19995117188</ele>
        <time>2026-09-02T12:58:43.000Z</time>
      </trkpt>
      <trkpt lat="48.13257" lon="6.85829">
        <ele>749.19995117188</ele>
        <time>2026-09-02T12:58:44.000Z</time>
      </trkpt>
      <trkpt lat="48.13256" lon="6.85829">
        <ele>749</ele>
        <time>2026-09-02T12:58:45.000Z</time>
      </trkpt>
      <trkpt lat="48.13256" lon="6.8583">
        <ele>749</ele>
        <time>2026-09-02T12:58:46.000Z</time>
      </trkpt>
      <trkpt lat="48.13255" lon="6.8583">
        <ele>749</ele>
        <time>2026-09-02T12:58:47.000Z</time>
      </trkpt>
      <trkpt lat="48.13254" lon="6.85831">
        <ele>749</ele>
        <time>2026-09-02T12:58:48.000Z</time>
      </trkpt>
      <trkpt lat="48.13254" lon="6.85832">
        <ele>748.80004882812</ele>
        <time>2026-09-02T12:58:49.000Z</time>
      </trkpt>
      <trkpt lat="48.13254" lon="6.85833">
        <ele>748.80004882812</ele>
        <time>2026-09-02T12:58:50.000Z</time>
      </trkpt>
      <trkpt lat="48.13253" lon="6.85833">
        <ele>748.59997558594</ele>
        <time>2026-09-02T12:58:51.000Z</time>
      </trkpt>
      <trkpt lat="48.13252" lon="6.85834">
        <ele>748.59997558594</ele>
        <time>2026-09-02T12:58:52.000Z</time>
      </trkpt>
      <trkpt lat="48.13252" lon="6.85834">
        <ele>748.59997558594</ele>
        <time>2026-09-02T12:58:53.000Z</time>
      </trkpt>
      <trkpt lat="48.13252" lon="6.85836">
        <ele>748.40002441406</ele>
        <time>2026-09-02T12:58:54.000Z</time>
      </trkpt>
      <trkpt lat="48.13251" lon="6.85836">
        <ele>748.40002441406</ele>
        <time>2026-09-02T12:58:55.000Z</time>
      </trkpt>
      <trkpt lat="48.1325" lon="6.85837">
        <ele>748.19995117188</ele>
        <time>2026-09-02T12:58:56.000Z</time>
      </trkpt>
      <trkpt lat="48.13249" lon="6.85838">
        <ele>748.19995117188</ele>
        <time>2026-09-02T12:58:57.000Z</time>
      </trkpt>
      <trkpt lat="48.13248" lon="6.85839">
        <ele>748.19995117188</ele>
        <time>2026-09-02T12:58:58.000Z</time>
      </trkpt>
      <trkpt lat="48.13247" lon="6.8584">
        <ele>748.19995117188</ele>
        <time>2026-09-02T12:58:59.000Z</time>
      </trkpt>
      <trkpt lat="48.13247" lon="6.85841">
        <ele>748</ele>
        <time>2026-09-02T12:59:00.000Z</time>
      </trkpt>
      <trkpt lat="48.13246" lon="6.85842">
        <ele>748</ele>
        <time>2026-09-02T12:59:01.000Z</time>
      </trkpt>
      <trkpt lat="48.13246" lon="6.85842">
        <ele>748</ele>
        <time>2026-09-02T12:59:02.000Z</time>
      </trkpt>
      <trkpt lat="48.13244" lon="6.85843">
        <ele>748</ele>
        <time>2026-09-02T12:59:03.000Z</time>
      </trkpt>
      <trkpt lat="48.13243" lon="6.85844">
        <ele>748</ele>
        <time>2026-09-02T12:59:04.000Z</time>
      </trkpt>
      <trkpt lat="48.13243" lon="6.85845">
        <ele>748</ele>
        <time>2026-09-02T12:59:05.000Z</time>
      </trkpt>
      <trkpt lat="48.13242" lon="6.85846">
        <ele>747.80004882812</ele>
        <time>2026-09-02T12:59:06.000Z</time>
      </trkpt>
      <trkpt lat="48.13242" lon="6.85846">
        <ele>747.80004882812</ele>
        <time>2026-09-02T12:59:07.000Z</time>
      </trkpt>
      <trkpt lat="48.13241" lon="6.85847">
        <ele>747.80004882812</ele>
        <time>2026-09-02T12:59:08.000Z</time>
      </trkpt>
      <trkpt lat="48.13241" lon="6.85848">
        <ele>747.59997558594</ele>
        <time>2026-09-02T12:59:09.000Z</time>
      </trkpt>
      <trkpt lat="48.1324" lon="6.85848">
        <ele>747.59997558594</ele>
        <time>2026-09-02T12:59:10.000Z</time>
      </trkpt>
      <trkpt lat="48.13239" lon="6.85849">
        <ele>747.59997558594</ele>
        <time>2026-09-02T12:59:11.000Z</time>
      </trkpt>
      <trkpt lat="48.13238" lon="6.8585">
        <ele>747.59997558594</ele>
        <time>2026-09-02T12:59:12.000Z</time>
      </trkpt>
      <trkpt lat="48.13238" lon="6.85852">
        <ele>747.59997558594</ele>
        <time>2026-09-02T12:59:13.000Z</time>
      </trkpt>
      <trkpt lat="48.13237" lon="6.85853">
        <ele>747.59997558594</ele>
        <time>2026-09-02T12:59:14.000Z</time>
      </trkpt>
      <trkpt lat="48.13236" lon="6.85853">
        <ele>747.59997558594</ele>
        <time>2026-09-02T12:59:15.000Z</time>
      </trkpt>
      <trkpt lat="48.13236" lon="6.85853">
        <ele>747.59997558594</ele>
        <time>2026-09-02T12:59:16.000Z</time>
      </trkpt>
      <trkpt lat="48.13235" lon="6.85854">
        <ele>747.40002441406</ele>
        <time>2026-09-02T12:59:17.000Z</time>
      </trkpt>
      <trkpt lat="48.13234" lon="6.85855">
        <ele>747.19995117188</ele>
        <time>2026-09-02T12:59:18.000Z</time>
      </trkpt>
      <trkpt lat="48.13234" lon="6.85856">
        <ele>747.19995117188</ele>
        <time>2026-09-02T12:59:19.000Z</time>
      </trkpt>
      <trkpt lat="48.13233" lon="6.85857">
        <ele>747.19995117188</ele>
        <time>2026-09-02T12:59:20.000Z</time>
      </trkpt>
      <trkpt lat="48.13232" lon="6.85857">
        <ele>747.19995117188</ele>
        <time>2026-09-02T12:59:21.000Z</time>
      </trkpt>
      <trkpt lat="48.13231" lon="6.85858">
        <ele>747.19995117188</ele>
        <time>2026-09-02T12:59:22.000Z</time>
      </trkpt>
      <trkpt lat="48.1323" lon="6.8586">
        <ele>747</ele>
        <time>2026-09-02T12:59:23.000Z</time>
      </trkpt>
      <trkpt lat="48.1323" lon="6.85861">
        <ele>747</ele>
        <time>2026-09-02T12:59:24.000Z</time>
      </trkpt>
      <trkpt lat="48.13229" lon="6.85861">
        <ele>747</ele>
        <time>2026-09-02T12:59:25.000Z</time>
      </trkpt>
      <trkpt lat="48.13229" lon="6.85862">
        <ele>747</ele>
        <time>2026-09-02T12:59:26.000Z</time>
      </trkpt>
      <trkpt lat="48.13228" lon="6.85863">
        <ele>747</ele>
        <time>2026-09-02T12:59:27.000Z</time>
      </trkpt>
      <trkpt lat="48.13227" lon="6.85864">
        <ele>747</ele>
        <time>2026-09-02T12:59:28.000Z</time>
      </trkpt>
      <trkpt lat="48.13227" lon="6.85865">
        <ele>747</ele>
        <time>2026-09-02T12:59:29.000Z</time>
      </trkpt>
      <trkpt lat="48.13226" lon="6.85865">
        <ele>747</ele>
        <time>2026-09-02T12:59:30.000Z</time>
      </trkpt>
      <trkpt lat="48.13225" lon="6.85866">
        <ele>747</ele>
        <time>2026-09-02T12:59:31.000Z</time>
      </trkpt>
      <trkpt lat="48.13224" lon="6.85866">
        <ele>746.80004882812</ele>
        <time>2026-09-02T12:59:32.000Z</time>
      </trkpt>
      <trkpt lat="48.13223" lon="6.85867">
        <ele>746.59997558594</ele>
        <time>2026-09-02T12:59:33.000Z</time>
      </trkpt>
      <trkpt lat="48.13222" lon="6.85867">
        <ele>746.40002441406</ele>
        <time>2026-09-02T12:59:34.000Z</time>
      </trkpt>
      <trkpt lat="48.13221" lon="6.85867">
        <ele>746.40002441406</ele>
        <time>2026-09-02T12:59:35.000Z</time>
      </trkpt>
      <trkpt lat="48.1322" lon="6.85868">
        <ele>746.40002441406</ele>
        <time>2026-09-02T12:59:36.000Z</time>
      </trkpt>
      <trkpt lat="48.13219" lon="6.85869">
        <ele>746.40002441406</ele>
        <time>2026-09-02T12:59:37.000Z</time>
      </trkpt>
      <trkpt lat="48.13218" lon="6.8587">
        <ele>746.40002441406</ele>
        <time>2026-09-02T12:59:38.000Z</time>
      </trkpt>
      <trkpt lat="48.13217" lon="6.8587">
        <ele>746.40002441406</ele>
        <time>2026-09-02T12:59:39.000Z</time>
      </trkpt>
      <trkpt lat="48.13217" lon="6.85871">
        <ele>746.40002441406</ele>
        <time>2026-09-02T12:59:40.000Z</time>
      </trkpt>
      <trkpt lat="48.13216" lon="6.85871">
        <ele>746.40002441406</ele>
        <time>2026-09-02T12:59:41.000Z</time>
      </trkpt>
      <trkpt lat="48.13215" lon="6.85872">
        <ele>746.40002441406</ele>
        <time>2026-09-02T12:59:42.000Z</time>
      </trkpt>
      <trkpt lat="48.13214" lon="6.85873">
        <ele>746.40002441406</ele>
        <time>2026-09-02T12:59:43.000Z</time>
      </trkpt>
      <trkpt lat="48.13213" lon="6.85874">
        <ele>746.40002441406</ele>
        <time>2026-09-02T12:59:44.000Z</time>
      </trkpt>
      <trkpt lat="48.13213" lon="6.85875">
        <ele>746.19995117188</ele>
        <time>2026-09-02T12:59:45.000Z</time>
      </trkpt>
      <trkpt lat="48.13212" lon="6.85876">
        <ele>746.19995117188</ele>
        <time>2026-09-02T12:59:46.000Z</time>
      </trkpt>
      <trkpt lat="48.13211" lon="6.85877">
        <ele>746.19995117188</ele>
        <time>2026-09-02T12:59:47.000Z</time>
      </trkpt>
      <trkpt lat="48.1321" lon="6.85878">
        <ele>746.19995117188</ele>
        <time>2026-09-02T12:59:48.000Z</time>
      </trkpt>
      <trkpt lat="48.1321" lon="6.85879">
        <ele>746</ele>
        <time>2026-09-02T12:59:49.000Z</time>
      </trkpt>
      <trkpt lat="48.13209" lon="6.85879">
        <ele>746</ele>
        <time>2026-09-02T12:59:50.000Z</time>
      </trkpt>
      <trkpt lat="48.13208" lon="6.8588">
        <ele>746</ele>
        <time>2026-09-02T12:59:51.000Z</time>
      </trkpt>
      <trkpt lat="48.13206" lon="6.8588">
        <ele>746</ele>
        <time>2026-09-02T12:59:52.000Z</time>
      </trkpt>
      <trkpt lat="48.13206" lon="6.8588">
        <ele>745.80004882812</ele>
        <time>2026-09-02T12:59:53.000Z</time>
      </trkpt>
      <trkpt lat="48.13204" lon="6.85881">
        <ele>745.80004882812</ele>
        <time>2026-09-02T12:59:54.000Z</time>
      </trkpt>
      <trkpt lat="48.13204" lon="6.85881">
        <ele>745.80004882812</ele>
        <time>2026-09-02T12:59:55.000Z</time>
      </trkpt>
      <trkpt lat="48.13203" lon="6.85882">
        <ele>745.80004882812</ele>
        <time>2026-09-02T12:59:56.000Z</time>
      </trkpt>
      <trkpt lat="48.13203" lon="6.85882">
        <ele>745.80004882812</ele>
        <time>2026-09-02T12:59:57.000Z</time>
      </trkpt>
      <trkpt lat="48.13202" lon="6.85882">
        <ele>745.80004882812</ele>
        <time>2026-09-02T12:59:58.000Z</time>
      </trkpt>
      <trkpt lat="48.13202" lon="6.85882">
        <ele>745.80004882812</ele>
        <time>2026-09-02T12:59:59.000Z</time>
      </trkpt>
      <trkpt lat="48.13203" lon="6.85882">
        <ele>745.80004882812</ele>
        <time>2026-09-02T13:00:00.000Z</time>
      </trkpt>
      <trkpt lat="48.13203" lon="6.85882">
        <ele>745.80004882812</ele>
        <time>2026-09-02T13:00:01.000Z</time>
      </trkpt>
      <trkpt lat="48.13203" lon="6.85882">
        <ele>745.80004882812</ele>
        <time>2026-09-02T13:00:02.000Z</time>
      </trkpt>
      <trkpt lat="48.13203" lon="6.85882">
        <ele>745.80004882812</ele>
        <time>2026-09-02T13:00:03.000Z</time>
      </trkpt>
      <trkpt lat="48.13203" lon="6.85882">
        <ele>745.59997558594</ele>
        <time>2026-09-02T13:00:04.000Z</time>
      </trkpt>
      <trkpt lat="48.13203" lon="6.85882">
        <ele>745.59997558594</ele>
        <time>2026-09-02T13:00:05.000Z</time>
      </trkpt>
      <trkpt lat="48.13203" lon="6.85882">
        <ele>745.59997558594</ele>
        <time>2026-09-02T13:00:06.000Z</time>
      </trkpt>
      <trkpt lat="48.13203" lon="6.85882">
        <ele>745.59997558594</ele>
        <time>2026-09-02T13:00:07.000Z</time>
      </trkpt>
      <trkpt lat="48.13203" lon="6.85882">
        <ele>745.80004882812</ele>
        <time>2026-09-02T13:00:08.000Z</time>
      </trkpt>
      <trkpt lat="48.13203" lon="6.85882">
        <ele>745.80004882812</ele>
        <time>2026-09-02T13:00:09.000Z</time>
      </trkpt>
      <trkpt lat="48.13203" lon="6.85882">
        <ele>745.80004882812</ele>
        <time>2026-09-02T13:00:10.000Z</time>
      </trkpt>
      <trkpt lat="48.13203" lon="6.85882">
        <ele>745.59997558594</ele>
        <time>2026-09-02T13:00:11.000Z</time>
      </trkpt>
      <trkpt lat="48.13202" lon="6.85885">
        <ele>745.59997558594</ele>
        <time>2026-09-02T13:00:12.000Z</time>
      </trkpt>
      <trkpt lat="48.13202" lon="6.85885">
        <ele>745.40002441406</ele>
        <time>2026-09-02T13:00:13.000Z</time>
      </trkpt>
      <trkpt lat="48.13202" lon="6.85885">
        <ele>745.40002441406</ele>
        <time>2026-09-02T13:00:14.000Z</time>
      </trkpt>
      <trkpt lat="48.13202" lon="6.85885">
        <ele>745.19995117188</ele>
        <time>2026-09-02T13:00:15.000Z</time>
      </trkpt>
      <trkpt lat="48.13202" lon="6.85885">
        <ele>745.19995117188</ele>
        <time>2026-09-02T13:00:16.000Z</time>
      </trkpt>
      <trkpt lat="48.13202" lon="6.85885">
        <ele>745.19995117188</ele>
        <time>2026-09-02T13:00:17.000Z</time>
      </trkpt>
      <trkpt lat="48.13202" lon="6.85885">
        <ele>745.19995117188</ele>
        <time>2026-09-02T13:00:18.000Z</time>
      </trkpt>
      <trkpt lat="48.13202" lon="6.85885">
        <ele>745.19995117188</ele>
        <time>2026-09-02T13:00:19.000Z</time>
      </trkpt>
      <trkpt lat="48.13202" lon="6.85885">
        <ele>745.19995117188</ele>
        <time>2026-09-02T13:00:20.000Z</time>
      </trkpt>
      <trkpt lat="48.13202" lon="6.85885">
        <ele>745.19995117188</ele>
        <time>2026-09-02T13:00:21.000Z</time>
      </trkpt>
      <trkpt lat="48.13202" lon="6.85885">
        <ele>745.40002441406</ele>
        <time>2026-09-02T13:00:22.000Z</time>
      </trkpt>
      <trkpt lat="48.13202" lon="6.85886">
        <ele>745.40002441406</ele>
        <time>2026-09-02T13:00:23.000Z</time>
      </trkpt>
      <trkpt lat="48.132" lon="6.85888">
        <ele>745.19995117188</ele>
        <time>2026-09-02T13:00:24.000Z</time>
      </trkpt>
      <trkpt lat="48.132" lon="6.85889">
        <ele>745.19995117188</ele>
        <time>2026-09-02T13:00:25.000Z</time>
      </trkpt>
      <trkpt lat="48.13199" lon="6.8589">
        <ele>745.19995117188</ele>
        <time>2026-09-02T13:00:26.000Z</time>
      </trkpt>
      <trkpt lat="48.13198" lon="6.85891">
        <ele>745</ele>
        <time>2026-09-02T13:00:27.000Z</time>
      </trkpt>
      <trkpt lat="48.13198" lon="6.85891">
        <ele>745</ele>
        <time>2026-09-02T13:00:28.000Z</time>
      </trkpt>
      <trkpt lat="48.13197" lon="6.85892">
        <ele>745</ele>
        <time>2026-09-02T13:00:29.000Z</time>
      </trkpt>
      <trkpt lat="48.13197" lon="6.85893">
        <ele>745</ele>
        <time>2026-09-02T13:00:30.000Z</time>
      </trkpt>
      <trkpt lat="48.13196" lon="6.85893">
        <ele>745</ele>
        <time>2026-09-02T13:00:31.000Z</time>
      </trkpt>
      <trkpt lat="48.13196" lon="6.85893">
        <ele>745</ele>
        <time>2026-09-02T13:00:32.000Z</time>
      </trkpt>
      <trkpt lat="48.13196" lon="6.85893">
        <ele>745</ele>
        <time>2026-09-02T13:00:33.000Z</time>
      </trkpt>
      <trkpt lat="48.13195" lon="6.85893">
        <ele>745</ele>
        <time>2026-09-02T13:00:34.000Z</time>
      </trkpt>
      <trkpt lat="48.13194" lon="6.85894">
        <ele>745</ele>
        <time>2026-09-02T13:00:35.000Z</time>
      </trkpt>
      <trkpt lat="48.13194" lon="6.85894">
        <ele>745</ele>
        <time>2026-09-02T13:00:36.000Z</time>
      </trkpt>
      <trkpt lat="48.13193" lon="6.85895">
        <ele>744.80004882812</ele>
        <time>2026-09-02T13:00:37.000Z</time>
      </trkpt>
      <trkpt lat="48.13192" lon="6.85895">
        <ele>744.80004882812</ele>
        <time>2026-09-02T13:00:38.000Z</time>
      </trkpt>
      <trkpt lat="48.13192" lon="6.85896">
        <ele>744.80004882812</ele>
        <time>2026-09-02T13:00:39.000Z</time>
      </trkpt>
      <trkpt lat="48.13191" lon="6.85897">
        <ele>745</ele>
        <time>2026-09-02T13:00:40.000Z</time>
      </trkpt>
      <trkpt lat="48.1319" lon="6.85897">
        <ele>745</ele>
        <time>2026-09-02T13:00:41.000Z</time>
      </trkpt>
      <trkpt lat="48.1319" lon="6.85898">
        <ele>745</ele>
        <time>2026-09-02T13:00:42.000Z</time>
      </trkpt>
      <trkpt lat="48.13189" lon="6.85898">
        <ele>745.19995117188</ele>
        <time>2026-09-02T13:00:43.000Z</time>
      </trkpt>
      <trkpt lat="48.13188" lon="6.85899">
        <ele>745</ele>
        <time>2026-09-02T13:00:44.000Z</time>
      </trkpt>
      <trkpt lat="48.13187" lon="6.85899">
        <ele>745</ele>
        <time>2026-09-02T13:00:45.000Z</time>
      </trkpt>
      <trkpt lat="48.13187" lon="6.859">
        <ele>745</ele>
        <time>2026-09-02T13:00:46.000Z</time>
      </trkpt>
      <trkpt lat="48.13186" lon="6.859">
        <ele>745</ele>
        <time>2026-09-02T13:00:47.000Z</time>
      </trkpt>
      <trkpt lat="48.13186" lon="6.85901">
        <ele>745</ele>
        <time>2026-09-02T13:00:48.000Z</time>
      </trkpt>
      <trkpt lat="48.13185" lon="6.85901">
        <ele>745</ele>
        <time>2026-09-02T13:00:49.000Z</time>
      </trkpt>
      <trkpt lat="48.13185" lon="6.85902">
        <ele>745</ele>
        <time>2026-09-02T13:00:50.000Z</time>
      </trkpt>
      <trkpt lat="48.13184" lon="6.85902">
        <ele>745</ele>
        <time>2026-09-02T13:00:51.000Z</time>
      </trkpt>
      <trkpt lat="48.13184" lon="6.85903">
        <ele>745</ele>
        <time>2026-09-02T13:00:52.000Z</time>
      </trkpt>
      <trkpt lat="48.13183" lon="6.85904">
        <ele>745.19995117188</ele>
        <time>2026-09-02T13:00:53.000Z</time>
      </trkpt>
      <trkpt lat="48.13182" lon="6.85904">
        <ele>745.19995117188</ele>
        <time>2026-09-02T13:00:54.000Z</time>
      </trkpt>
      <trkpt lat="48.13182" lon="6.85905">
        <ele>745</ele>
        <time>2026-09-02T13:00:55.000Z</time>
      </trkpt>
      <trkpt lat="48.13181" lon="6.85905">
        <ele>745</ele>
        <time>2026-09-02T13:00:56.000Z</time>
      </trkpt>
      <trkpt lat="48.13181" lon="6.85906">
        <ele>745</ele>
        <time>2026-09-02T13:00:57.000Z</time>
      </trkpt>
      <trkpt lat="48.1318" lon="6.85907">
        <ele>745</ele>
        <time>2026-09-02T13:00:58.000Z</time>
      </trkpt>
      <trkpt lat="48.1318" lon="6.85908">
        <ele>745</ele>
        <time>2026-09-02T13:00:59.000Z</time>
      </trkpt>
      <trkpt lat="48.13179" lon="6.85909">
        <ele>745</ele>
        <time>2026-09-02T13:01:00.000Z</time>
      </trkpt>
      <trkpt lat="48.13178" lon="6.8591">
        <ele>745</ele>
        <time>2026-09-02T13:01:01.000Z</time>
      </trkpt>
      <trkpt lat="48.13177" lon="6.8591">
        <ele>745</ele>
        <time>2026-09-02T13:01:02.000Z</time>
      </trkpt>
      <trkpt lat="48.13177" lon="6.85911">
        <ele>745</ele>
        <time>2026-09-02T13:01:03.000Z</time>
      </trkpt>
      <trkpt lat="48.13176" lon="6.85912">
        <ele>745</ele>
        <time>2026-09-02T13:01:04.000Z</time>
      </trkpt>
      <trkpt lat="48.13175" lon="6.85912">
        <ele>745</ele>
        <time>2026-09-02T13:01:05.000Z</time>
      </trkpt>
      <trkpt lat="48.13174" lon="6.85913">
        <ele>745</ele>
        <time>2026-09-02T13:01:06.000Z</time>
      </trkpt>
      <trkpt lat="48.13174" lon="6.85913">
        <ele>745</ele>
        <time>2026-09-02T13:01:07.000Z</time>
      </trkpt>
      <trkpt lat="48.13173" lon="6.85913">
        <ele>745</ele>
        <time>2026-09-02T13:01:08.000Z</time>
      </trkpt>
      <trkpt lat="48.13172" lon="6.85914">
        <ele>745</ele>
        <time>2026-09-02T13:01:09.000Z</time>
      </trkpt>
      <trkpt lat="48.13171" lon="6.85914">
        <ele>745</ele>
        <time>2026-09-02T13:01:10.000Z</time>
      </trkpt>
      <trkpt lat="48.1317" lon="6.85914">
        <ele>745</ele>
        <time>2026-09-02T13:01:11.000Z</time>
      </trkpt>
      <trkpt lat="48.1317" lon="6.85915">
        <ele>745</ele>
        <time>2026-09-02T13:01:12.000Z</time>
      </trkpt>
      <trkpt lat="48.13169" lon="6.85915">
        <ele>745</ele>
        <time>2026-09-02T13:01:13.000Z</time>
      </trkpt>
      <trkpt lat="48.13168" lon="6.85916">
        <ele>745.19995117188</ele>
        <time>2026-09-02T13:01:14.000Z</time>
      </trkpt>
      <trkpt lat="48.13167" lon="6.85917">
        <ele>745.19995117188</ele>
        <time>2026-09-02T13:01:15.000Z</time>
      </trkpt>
      <trkpt lat="48.13167" lon="6.85917">
        <ele>745.19995117188</ele>
        <time>2026-09-02T13:01:16.000Z</time>
      </trkpt>
      <trkpt lat="48.13166" lon="6.85919">
        <ele>745.19995117188</ele>
        <time>2026-09-02T13:01:17.000Z</time>
      </trkpt>
      <trkpt lat="48.13166" lon="6.85919">
        <ele>745.19995117188</ele>
        <time>2026-09-02T13:01:18.000Z</time>
      </trkpt>
      <trkpt lat="48.13165" lon="6.8592">
        <ele>745.40002441406</ele>
        <time>2026-09-02T13:01:19.000Z</time>
      </trkpt>
      <trkpt lat="48.13164" lon="6.85921">
        <ele>745.40002441406</ele>
        <time>2026-09-02T13:01:20.000Z</time>
      </trkpt>
      <trkpt lat="48.13164" lon="6.85921">
        <ele>745.40002441406</ele>
        <time>2026-09-02T13:01:21.000Z</time>
      </trkpt>
      <trkpt lat="48.13163" lon="6.85922">
        <ele>745.40002441406</ele>
        <time>2026-09-02T13:01:22.000Z</time>
      </trkpt>
      <trkpt lat="48.13162" lon="6.85923">
        <ele>745.40002441406</ele>
        <time>2026-09-02T13:01:23.000Z</time>
      </trkpt>
      <trkpt lat="48.13161" lon="6.85924">
        <ele>745.40002441406</ele>
        <time>2026-09-02T13:01:24.000Z</time>
      </trkpt>
      <trkpt lat="48.1316" lon="6.85924">
        <ele>745.40002441406</ele>
        <time>2026-09-02T13:01:25.000Z</time>
      </trkpt>
      <trkpt lat="48.1316" lon="6.85925">
        <ele>745.40002441406</ele>
        <time>2026-09-02T13:01:26.000Z</time>
      </trkpt>
      <trkpt lat="48.13159" lon="6.85926">
        <ele>745.40002441406</ele>
        <time>2026-09-02T13:01:27.000Z</time>
      </trkpt>
      <trkpt lat="48.13158" lon="6.85927">
        <ele>745.40002441406</ele>
        <time>2026-09-02T13:01:28.000Z</time>
      </trkpt>
      <trkpt lat="48.13157" lon="6.85928">
        <ele>745.40002441406</ele>
        <time>2026-09-02T13:01:29.000Z</time>
      </trkpt>
      <trkpt lat="48.13156" lon="6.85929">
        <ele>745.40002441406</ele>
        <time>2026-09-02T13:01:30.000Z</time>
      </trkpt>
      <trkpt lat="48.13155" lon="6.8593">
        <ele>745.40002441406</ele>
        <time>2026-09-02T13:01:31.000Z</time>
      </trkpt>
      <trkpt lat="48.13155" lon="6.85931">
        <ele>745.40002441406</ele>
        <time>2026-09-02T13:01:32.000Z</time>
      </trkpt>
      <trkpt lat="48.13154" lon="6.85932">
        <ele>745.40002441406</ele>
        <time>2026-09-02T13:01:33.000Z</time>
      </trkpt>
      <trkpt lat="48.13154" lon="6.85933">
        <ele>745.40002441406</ele>
        <time>2026-09-02T13:01:34.000Z</time>
      </trkpt>
      <trkpt lat="48.13153" lon="6.85934">
        <ele>745.19995117188</ele>
        <time>2026-09-02T13:01:35.000Z</time>
      </trkpt>
      <trkpt lat="48.13152" lon="6.85936">
        <ele>745.19995117188</ele>
        <time>2026-09-02T13:01:36.000Z</time>
      </trkpt>
      <trkpt lat="48.13152" lon="6.85937">
        <ele>745</ele>
        <time>2026-09-02T13:01:37.000Z</time>
      </trkpt>
      <trkpt lat="48.13151" lon="6.85938">
        <ele>745</ele>
        <time>2026-09-02T13:01:38.000Z</time>
      </trkpt>
      <trkpt lat="48.13151" lon="6.85939">
        <ele>745.19995117188</ele>
        <time>2026-09-02T13:01:39.000Z</time>
      </trkpt>
      <trkpt lat="48.1315" lon="6.8594">
        <ele>745.19995117188</ele>
        <time>2026-09-02T13:01:40.000Z</time>
      </trkpt>
      <trkpt lat="48.1315" lon="6.85941">
        <ele>745.40002441406</ele>
        <time>2026-09-02T13:01:41.000Z</time>
      </trkpt>
      <trkpt lat="48.13149" lon="6.85942">
        <ele>745.40002441406</ele>
        <time>2026-09-02T13:01:42.000Z</time>
      </trkpt>
      <trkpt lat="48.13149" lon="6.85944">
        <ele>745.59997558594</ele>
        <time>2026-09-02T13:01:43.000Z</time>
      </trkpt>
      <trkpt lat="48.13148" lon="6.85945">
        <ele>745.59997558594</ele>
        <time>2026-09-02T13:01:44.000Z</time>
      </trkpt>
      <trkpt lat="48.13147" lon="6.85946">
        <ele>745.59997558594</ele>
        <time>2026-09-02T13:01:45.000Z</time>
      </trkpt>
      <trkpt lat="48.13147" lon="6.85947">
        <ele>745.59997558594</ele>
        <time>2026-09-02T13:01:46.000Z</time>
      </trkpt>
      <trkpt lat="48.13146" lon="6.85948">
        <ele>745.40002441406</ele>
        <time>2026-09-02T13:01:47.000Z</time>
      </trkpt>
      <trkpt lat="48.13145" lon="6.8595">
        <ele>745.40002441406</ele>
        <time>2026-09-02T13:01:48.000Z</time>
      </trkpt>
      <trkpt lat="48.13144" lon="6.85951">
        <ele>745.40002441406</ele>
        <time>2026-09-02T13:01:49.000Z</time>
      </trkpt>
      <trkpt lat="48.13143" lon="6.85952">
        <ele>745.40002441406</ele>
        <time>2026-09-02T13:01:50.000Z</time>
      </trkpt>
      <trkpt lat="48.13143" lon="6.85953">
        <ele>745.40002441406</ele>
        <time>2026-09-02T13:01:51.000Z</time>
      </trkpt>
      <trkpt lat="48.13142" lon="6.85955">
        <ele>745.40002441406</ele>
        <time>2026-09-02T13:01:52.000Z</time>
      </trkpt>
      <trkpt lat="48.13142" lon="6.85956">
        <ele>745.40002441406</ele>
        <time>2026-09-02T13:01:53.000Z</time>
      </trkpt>
      <trkpt lat="48.13142" lon="6.85957">
        <ele>745.59997558594</ele>
        <time>2026-09-02T13:01:54.000Z</time>
      </trkpt>
      <trkpt lat="48.13142" lon="6.85958">
        <ele>745.59997558594</ele>
        <time>2026-09-02T13:01:55.000Z</time>
      </trkpt>
      <trkpt lat="48.13141" lon="6.8596">
        <ele>745.59997558594</ele>
        <time>2026-09-02T13:01:56.000Z</time>
      </trkpt>
      <trkpt lat="48.13141" lon="6.85961">
        <ele>745.59997558594</ele>
        <time>2026-09-02T13:01:57.000Z</time>
      </trkpt>
      <trkpt lat="48.13141" lon="6.85962">
        <ele>745.59997558594</ele>
        <time>2026-09-02T13:01:58.000Z</time>
      </trkpt>
      <trkpt lat="48.13141" lon="6.85963">
        <ele>745.59997558594</ele>
        <time>2026-09-02T13:01:59.000Z</time>
      </trkpt>
      <trkpt lat="48.13141" lon="6.85965">
        <ele>745.59997558594</ele>
        <time>2026-09-02T13:02:00.000Z</time>
      </trkpt>
      <trkpt lat="48.1314" lon="6.85966">
        <ele>745.59997558594</ele>
        <time>2026-09-02T13:02:01.000Z</time>
      </trkpt>
      <trkpt lat="48.1314" lon="6.85968">
        <ele>745.59997558594</ele>
        <time>2026-09-02T13:02:02.000Z</time>
      </trkpt>
      <trkpt lat="48.1314" lon="6.85969">
        <ele>745.80004882812</ele>
        <time>2026-09-02T13:02:03.000Z</time>
      </trkpt>
      <trkpt lat="48.1314" lon="6.8597">
        <ele>745.80004882812</ele>
        <time>2026-09-02T13:02:04.000Z</time>
      </trkpt>
      <trkpt lat="48.1314" lon="6.85972">
        <ele>745.80004882812</ele>
        <time>2026-09-02T13:02:05.000Z</time>
      </trkpt>
      <trkpt lat="48.1314" lon="6.85973">
        <ele>746</ele>
        <time>2026-09-02T13:02:06.000Z</time>
      </trkpt>
      <trkpt lat="48.1314" lon="6.85974">
        <ele>746</ele>
        <time>2026-09-02T13:02:07.000Z</time>
      </trkpt>
      <trkpt lat="48.1314" lon="6.85975">
        <ele>746</ele>
        <time>2026-09-02T13:02:08.000Z</time>
      </trkpt>
      <trkpt lat="48.1314" lon="6.85976">
        <ele>746</ele>
        <time>2026-09-02T13:02:09.000Z</time>
      </trkpt>
      <trkpt lat="48.13139" lon="6.85977">
        <ele>746</ele>
        <time>2026-09-02T13:02:10.000Z</time>
      </trkpt>
      <trkpt lat="48.13139" lon="6.85978">
        <ele>746</ele>
        <time>2026-09-02T13:02:11.000Z</time>
      </trkpt>
      <trkpt lat="48.13139" lon="6.85979">
        <ele>746.19995117188</ele>
        <time>2026-09-02T13:02:12.000Z</time>
      </trkpt>
      <trkpt lat="48.13139" lon="6.85979">
        <ele>746.19995117188</ele>
        <time>2026-09-02T13:02:13.000Z</time>
      </trkpt>
      <trkpt lat="48.13139" lon="6.85979">
        <ele>746.19995117188</ele>
        <time>2026-09-02T13:02:14.000Z</time>
      </trkpt>
      <trkpt lat="48.13139" lon="6.85979">
        <ele>746</ele>
        <time>2026-09-02T13:02:15.000Z</time>
      </trkpt>
      <trkpt lat="48.13139" lon="6.85979">
        <ele>746</ele>
        <time>2026-09-02T13:02:16.000Z</time>
      </trkpt>
      <trkpt lat="48.13139" lon="6.85979">
        <ele>746</ele>
        <time>2026-09-02T13:02:17.000Z</time>
      </trkpt>
      <trkpt lat="48.13139" lon="6.85979">
        <ele>746.19995117188</ele>
        <time>2026-09-02T13:02:18.000Z</time>
      </trkpt>
      <trkpt lat="48.13139" lon="6.85979">
        <ele>746.19995117188</ele>
        <time>2026-09-02T13:02:19.000Z</time>
      </trkpt>
      <trkpt lat="48.13139" lon="6.85979">
        <ele>746.19995117188</ele>
        <time>2026-09-02T13:02:20.000Z</time>
      </trkpt>
      <trkpt lat="48.13139" lon="6.85979">
        <ele>746.19995117188</ele>
        <time>2026-09-02T13:02:21.000Z</time>
      </trkpt>
      <trkpt lat="48.13139" lon="6.85979">
        <ele>746.19995117188</ele>
        <time>2026-09-02T13:02:22.000Z</time>
      </trkpt>
      <trkpt lat="48.13139" lon="6.85979">
        <ele>746.19995117188</ele>
        <time>2026-09-02T13:02:23.000Z</time>
      </trkpt>
      <trkpt lat="48.13139" lon="6.85979">
        <ele>746.19995117188</ele>
        <time>2026-09-02T13:02:24.000Z</time>
      </trkpt>
      <trkpt lat="48.13139" lon="6.85979">
        <ele>746.19995117188</ele>
        <time>2026-09-02T13:02:25.000Z</time>
      </trkpt>
      <trkpt lat="48.13139" lon="6.85979">
        <ele>746.19995117188</ele>
        <time>2026-09-02T13:02:26.000Z</time>
      </trkpt>
      <trkpt lat="48.13139" lon="6.85979">
        <ele>746.19995117188</ele>
        <time>2026-09-02T13:02:27.000Z</time>
      </trkpt>
      <trkpt lat="48.13139" lon="6.85979">
        <ele>746.19995117188</ele>
        <time>2026-09-02T13:02:28.000Z</time>
      </trkpt>
      <trkpt lat="48.13139" lon="6.85979">
        <ele>746.19995117188</ele>
        <time>2026-09-02T13:02:29.000Z</time>
      </trkpt>
      <trkpt lat="48.13139" lon="6.85979">
        <ele>746</ele>
        <time>2026-09-02T13:02:30.000Z</time>
      </trkpt>
      <trkpt lat="48.13138" lon="6.8598">
        <ele>746</ele>
        <time>2026-09-02T13:02:31.000Z</time>
      </trkpt>
      <trkpt lat="48.13138" lon="6.85982">
        <ele>746</ele>
        <time>2026-09-02T13:02:32.000Z</time>
      </trkpt>
      <trkpt lat="48.13137" lon="6.85983">
        <ele>746</ele>
        <time>2026-09-02T13:02:33.000Z</time>
      </trkpt>
      <trkpt lat="48.13137" lon="6.85984">
        <ele>746</ele>
        <time>2026-09-02T13:02:34.000Z</time>
      </trkpt>
      <trkpt lat="48.13137" lon="6.85985">
        <ele>746</ele>
        <time>2026-09-02T13:02:35.000Z</time>
      </trkpt>
      <trkpt lat="48.13136" lon="6.85986">
        <ele>746</ele>
        <time>2026-09-02T13:02:36.000Z</time>
      </trkpt>
      <trkpt lat="48.13135" lon="6.85987">
        <ele>746</ele>
        <time>2026-09-02T13:02:37.000Z</time>
      </trkpt>
      <trkpt lat="48.13134" lon="6.85988">
        <ele>746</ele>
        <time>2026-09-02T13:02:38.000Z</time>
      </trkpt>
      <trkpt lat="48.13134" lon="6.85989">
        <ele>745.80004882812</ele>
        <time>2026-09-02T13:02:39.000Z</time>
      </trkpt>
      <trkpt lat="48.13133" lon="6.8599">
        <ele>745.80004882812</ele>
        <time>2026-09-02T13:02:40.000Z</time>
      </trkpt>
      <trkpt lat="48.13132" lon="6.85991">
        <ele>745.80004882812</ele>
        <time>2026-09-02T13:02:41.000Z</time>
      </trkpt>
      <trkpt lat="48.13131" lon="6.85992">
        <ele>745.80004882812</ele>
        <time>2026-09-02T13:02:42.000Z</time>
      </trkpt>
      <trkpt lat="48.1313" lon="6.85993">
        <ele>745.80004882812</ele>
        <time>2026-09-02T13:02:43.000Z</time>
      </trkpt>
      <trkpt lat="48.1313" lon="6.85994">
        <ele>745.80004882812</ele>
        <time>2026-09-02T13:02:44.000Z</time>
      </trkpt>
      <trkpt lat="48.13129" lon="6.85995">
        <ele>745.59997558594</ele>
        <time>2026-09-02T13:02:45.000Z</time>
      </trkpt>
      <trkpt lat="48.13128" lon="6.85997">
        <ele>745.59997558594</ele>
        <time>2026-09-02T13:02:46.000Z</time>
      </trkpt>
      <trkpt lat="48.13128" lon="6.85998">
        <ele>745.59997558594</ele>
        <time>2026-09-02T13:02:47.000Z</time>
      </trkpt>
      <trkpt lat="48.13127" lon="6.85999">
        <ele>745.59997558594</ele>
        <time>2026-09-02T13:02:48.000Z</time>
      </trkpt>
      <trkpt lat="48.13127" lon="6.86">
        <ele>745.59997558594</ele>
        <time>2026-09-02T13:02:49.000Z</time>
      </trkpt>
      <trkpt lat="48.13127" lon="6.86002">
        <ele>745.59997558594</ele>
        <time>2026-09-02T13:02:50.000Z</time>
      </trkpt>
      <trkpt lat="48.13127" lon="6.86003">
        <ele>745.59997558594</ele>
        <time>2026-09-02T13:02:51.000Z</time>
      </trkpt>
      <trkpt lat="48.13126" lon="6.86005">
        <ele>745.59997558594</ele>
        <time>2026-09-02T13:02:52.000Z</time>
      </trkpt>
      <trkpt lat="48.13126" lon="6.86005">
        <ele>745.59997558594</ele>
        <time>2026-09-02T13:02:53.000Z</time>
      </trkpt>
      <trkpt lat="48.13126" lon="6.86006">
        <ele>745.40002441406</ele>
        <time>2026-09-02T13:02:54.000Z</time>
      </trkpt>
      <trkpt lat="48.13125" lon="6.86008">
        <ele>745.40002441406</ele>
        <time>2026-09-02T13:02:55.000Z</time>
      </trkpt>
      <trkpt lat="48.13125" lon="6.8601">
        <ele>745.19995117188</ele>
        <time>2026-09-02T13:02:56.000Z</time>
      </trkpt>
      <trkpt lat="48.13125" lon="6.86011">
        <ele>745</ele>
        <time>2026-09-02T13:02:57.000Z</time>
      </trkpt>
      <trkpt lat="48.13125" lon="6.86012">
        <ele>745</ele>
        <time>2026-09-02T13:02:58.000Z</time>
      </trkpt>
      <trkpt lat="48.13125" lon="6.86013">
        <ele>745</ele>
        <time>2026-09-02T13:02:59.000Z</time>
      </trkpt>
      <trkpt lat="48.13125" lon="6.86015">
        <ele>745.19995117188</ele>
        <time>2026-09-02T13:03:00.000Z</time>
      </trkpt>
      <trkpt lat="48.13124" lon="6.86016">
        <ele>745.19995117188</ele>
        <time>2026-09-02T13:03:01.000Z</time>
      </trkpt>
      <trkpt lat="48.13124" lon="6.86017">
        <ele>745.19995117188</ele>
        <time>2026-09-02T13:03:02.000Z</time>
      </trkpt>
      <trkpt lat="48.13124" lon="6.86019">
        <ele>745.19995117188</ele>
        <time>2026-09-02T13:03:03.000Z</time>
      </trkpt>
      <trkpt lat="48.13123" lon="6.8602">
        <ele>745.19995117188</ele>
        <time>2026-09-02T13:03:04.000Z</time>
      </trkpt>
      <trkpt lat="48.13123" lon="6.86022">
        <ele>745.40002441406</ele>
        <time>2026-09-02T13:03:05.000Z</time>
      </trkpt>
      <trkpt lat="48.13123" lon="6.86023">
        <ele>745.40002441406</ele>
        <time>2026-09-02T13:03:06.000Z</time>
      </trkpt>
      <trkpt lat="48.13123" lon="6.86025">
        <ele>745.40002441406</ele>
        <time>2026-09-02T13:03:07.000Z</time>
      </trkpt>
      <trkpt lat="48.13123" lon="6.86027">
        <ele>745.40002441406</ele>
        <time>2026-09-02T13:03:08.000Z</time>
      </trkpt>
      <trkpt lat="48.13123" lon="6.86028">
        <ele>745.19995117188</ele>
        <time>2026-09-02T13:03:09.000Z</time>
      </trkpt>
      <trkpt lat="48.13123" lon="6.8603">
        <ele>745</ele>
        <time>2026-09-02T13:03:10.000Z</time>
      </trkpt>
      <trkpt lat="48.13123" lon="6.86032">
        <ele>745</ele>
        <time>2026-09-02T13:03:11.000Z</time>
      </trkpt>
      <trkpt lat="48.13122" lon="6.86034">
        <ele>744.80004882812</ele>
        <time>2026-09-02T13:03:12.000Z</time>
      </trkpt>
      <trkpt lat="48.13122" lon="6.86035">
        <ele>744.80004882812</ele>
        <time>2026-09-02T13:03:13.000Z</time>
      </trkpt>
      <trkpt lat="48.13122" lon="6.86036">
        <ele>744.80004882812</ele>
        <time>2026-09-02T13:03:14.000Z</time>
      </trkpt>
      <trkpt lat="48.13122" lon="6.86037">
        <ele>744.80004882812</ele>
        <time>2026-09-02T13:03:15.000Z</time>
      </trkpt>
      <trkpt lat="48.13122" lon="6.86038">
        <ele>744.80004882812</ele>
        <time>2026-09-02T13:03:16.000Z</time>
      </trkpt>
      <trkpt lat="48.13122" lon="6.86039">
        <ele>744.80004882812</ele>
        <time>2026-09-02T13:03:17.000Z</time>
      </trkpt>
      <trkpt lat="48.13122" lon="6.86041">
        <ele>744.80004882812</ele>
        <time>2026-09-02T13:03:18.000Z</time>
      </trkpt>
      <trkpt lat="48.13122" lon="6.86043">
        <ele>744.80004882812</ele>
        <time>2026-09-02T13:03:19.000Z</time>
      </trkpt>
      <trkpt lat="48.13123" lon="6.86044">
        <ele>744.59997558594</ele>
        <time>2026-09-02T13:03:20.000Z</time>
      </trkpt>
      <trkpt lat="48.13123" lon="6.86046">
        <ele>744.80004882812</ele>
        <time>2026-09-02T13:03:21.000Z</time>
      </trkpt>
      <trkpt lat="48.13123" lon="6.86047">
        <ele>744.80004882812</ele>
        <time>2026-09-02T13:03:22.000Z</time>
      </trkpt>
      <trkpt lat="48.13123" lon="6.86048">
        <ele>744.80004882812</ele>
        <time>2026-09-02T13:03:23.000Z</time>
      </trkpt>
      <trkpt lat="48.13122" lon="6.8605">
        <ele>744.80004882812</ele>
        <time>2026-09-02T13:03:24.000Z</time>
      </trkpt>
      <trkpt lat="48.13122" lon="6.86051">
        <ele>744.80004882812</ele>
        <time>2026-09-02T13:03:25.000Z</time>
      </trkpt>
      <trkpt lat="48.13122" lon="6.86052">
        <ele>744.80004882812</ele>
        <time>2026-09-02T13:03:26.000Z</time>
      </trkpt>
      <trkpt lat="48.13122" lon="6.86053">
        <ele>744.80004882812</ele>
        <time>2026-09-02T13:03:27.000Z</time>
      </trkpt>
      <trkpt lat="48.13122" lon="6.86054">
        <ele>744.80004882812</ele>
        <time>2026-09-02T13:03:28.000Z</time>
      </trkpt>
      <trkpt lat="48.13122" lon="6.86056">
        <ele>744.59997558594</ele>
        <time>2026-09-02T13:03:29.000Z</time>
      </trkpt>
      <trkpt lat="48.13121" lon="6.86057">
        <ele>744.59997558594</ele>
        <time>2026-09-02T13:03:30.000Z</time>
      </trkpt>
      <trkpt lat="48.13121" lon="6.86058">
        <ele>744.59997558594</ele>
        <time>2026-09-02T13:03:31.000Z</time>
      </trkpt>
      <trkpt lat="48.13121" lon="6.86059">
        <ele>744.40002441406</ele>
        <time>2026-09-02T13:03:32.000Z</time>
      </trkpt>
      <trkpt lat="48.13121" lon="6.8606">
        <ele>744.40002441406</ele>
        <time>2026-09-02T13:03:33.000Z</time>
      </trkpt>
      <trkpt lat="48.13121" lon="6.86062">
        <ele>744.19995117188</ele>
        <time>2026-09-02T13:03:34.000Z</time>
      </trkpt>
      <trkpt lat="48.13121" lon="6.86063">
        <ele>744.19995117188</ele>
        <time>2026-09-02T13:03:35.000Z</time>
      </trkpt>
      <trkpt lat="48.13121" lon="6.86064">
        <ele>744</ele>
        <time>2026-09-02T13:03:36.000Z</time>
      </trkpt>
      <trkpt lat="48.13121" lon="6.86066">
        <ele>744</ele>
        <time>2026-09-02T13:03:37.000Z</time>
      </trkpt>
      <trkpt lat="48.13121" lon="6.86068">
        <ele>744</ele>
        <time>2026-09-02T13:03:38.000Z</time>
      </trkpt>
      <trkpt lat="48.1312" lon="6.8607">
        <ele>744</ele>
        <time>2026-09-02T13:03:39.000Z</time>
      </trkpt>
      <trkpt lat="48.1312" lon="6.86072">
        <ele>744</ele>
        <time>2026-09-02T13:03:40.000Z</time>
      </trkpt>
      <trkpt lat="48.1312" lon="6.86073">
        <ele>743.80004882812</ele>
        <time>2026-09-02T13:03:41.000Z</time>
      </trkpt>
      <trkpt lat="48.1312" lon="6.86075">
        <ele>743.59997558594</ele>
        <time>2026-09-02T13:03:42.000Z</time>
      </trkpt>
      <trkpt lat="48.1312" lon="6.86076">
        <ele>743.59997558594</ele>
        <time>2026-09-02T13:03:43.000Z</time>
      </trkpt>
      <trkpt lat="48.1312" lon="6.86077">
        <ele>743.40002441406</ele>
        <time>2026-09-02T13:03:44.000Z</time>
      </trkpt>
      <trkpt lat="48.1312" lon="6.86078">
        <ele>743.40002441406</ele>
        <time>2026-09-02T13:03:45.000Z</time>
      </trkpt>
      <trkpt lat="48.1312" lon="6.86079">
        <ele>743.40002441406</ele>
        <time>2026-09-02T13:03:46.000Z</time>
      </trkpt>
      <trkpt lat="48.13119" lon="6.86081">
        <ele>743.40002441406</ele>
        <time>2026-09-02T13:03:47.000Z</time>
      </trkpt>
      <trkpt lat="48.13119" lon="6.86083">
        <ele>743.40002441406</ele>
        <time>2026-09-02T13:03:48.000Z</time>
      </trkpt>
      <trkpt lat="48.13119" lon="6.86084">
        <ele>743.40002441406</ele>
        <time>2026-09-02T13:03:49.000Z</time>
      </trkpt>
      <trkpt lat="48.13119" lon="6.86085">
        <ele>743.19995117188</ele>
        <time>2026-09-02T13:03:50.000Z</time>
      </trkpt>
      <trkpt lat="48.13119" lon="6.86086">
        <ele>743.19995117188</ele>
        <time>2026-09-02T13:03:51.000Z</time>
      </trkpt>
      <trkpt lat="48.13119" lon="6.86088">
        <ele>743.19995117188</ele>
        <time>2026-09-02T13:03:52.000Z</time>
      </trkpt>
      <trkpt lat="48.13119" lon="6.86089">
        <ele>743</ele>
        <time>2026-09-02T13:03:53.000Z</time>
      </trkpt>
      <trkpt lat="48.13119" lon="6.8609">
        <ele>743</ele>
        <time>2026-09-02T13:03:54.000Z</time>
      </trkpt>
      <trkpt lat="48.13119" lon="6.86091">
        <ele>743</ele>
        <time>2026-09-02T13:03:55.000Z</time>
      </trkpt>
      <trkpt lat="48.13119" lon="6.86092">
        <ele>742.80004882812</ele>
        <time>2026-09-02T13:03:56.000Z</time>
      </trkpt>
      <trkpt lat="48.13119" lon="6.86094">
        <ele>742.80004882812</ele>
        <time>2026-09-02T13:03:57.000Z</time>
      </trkpt>
      <trkpt lat="48.13119" lon="6.86095">
        <ele>742.59997558594</ele>
        <time>2026-09-02T13:03:58.000Z</time>
      </trkpt>
      <trkpt lat="48.13119" lon="6.86096">
        <ele>742.59997558594</ele>
        <time>2026-09-02T13:03:59.000Z</time>
      </trkpt>
      <trkpt lat="48.13119" lon="6.86097">
        <ele>742.59997558594</ele>
        <time>2026-09-02T13:04:00.000Z</time>
      </trkpt>
      <trkpt lat="48.1312" lon="6.86098">
        <ele>742.40002441406</ele>
        <time>2026-09-02T13:04:01.000Z</time>
      </trkpt>
      <trkpt lat="48.13119" lon="6.86099">
        <ele>742.19995117188</ele>
        <time>2026-09-02T13:04:02.000Z</time>
      </trkpt>
      <trkpt lat="48.13119" lon="6.86101">
        <ele>742.19995117188</ele>
        <time>2026-09-02T13:04:03.000Z</time>
      </trkpt>
      <trkpt lat="48.1312" lon="6.86102">
        <ele>742</ele>
        <time>2026-09-02T13:04:04.000Z</time>
      </trkpt>
      <trkpt lat="48.1312" lon="6.86103">
        <ele>742</ele>
        <time>2026-09-02T13:04:05.000Z</time>
      </trkpt>
      <trkpt lat="48.13119" lon="6.86104">
        <ele>742</ele>
        <time>2026-09-02T13:04:06.000Z</time>
      </trkpt>
      <trkpt lat="48.13119" lon="6.86105">
        <ele>742</ele>
        <time>2026-09-02T13:04:07.000Z</time>
      </trkpt>
      <trkpt lat="48.13119" lon="6.86107">
        <ele>742</ele>
        <time>2026-09-02T13:04:08.000Z</time>
      </trkpt>
      <trkpt lat="48.13119" lon="6.86108">
        <ele>741.80004882812</ele>
        <time>2026-09-02T13:04:09.000Z</time>
      </trkpt>
      <trkpt lat="48.13119" lon="6.86109">
        <ele>741.80004882812</ele>
        <time>2026-09-02T13:04:10.000Z</time>
      </trkpt>
      <trkpt lat="48.13118" lon="6.86111">
        <ele>741.59997558594</ele>
        <time>2026-09-02T13:04:11.000Z</time>
      </trkpt>
      <trkpt lat="48.13118" lon="6.86112">
        <ele>741.59997558594</ele>
        <time>2026-09-02T13:04:12.000Z</time>
      </trkpt>
      <trkpt lat="48.13117" lon="6.86114">
        <ele>741.59997558594</ele>
        <time>2026-09-02T13:04:13.000Z</time>
      </trkpt>
      <trkpt lat="48.13116" lon="6.86115">
        <ele>741.40002441406</ele>
        <time>2026-09-02T13:04:14.000Z</time>
      </trkpt>
      <trkpt lat="48.13116" lon="6.86116">
        <ele>741.40002441406</ele>
        <time>2026-09-02T13:04:15.000Z</time>
      </trkpt>
      <trkpt lat="48.13115" lon="6.86118">
        <ele>741.40002441406</ele>
        <time>2026-09-02T13:04:16.000Z</time>
      </trkpt>
      <trkpt lat="48.13114" lon="6.86119">
        <ele>741.40002441406</ele>
        <time>2026-09-02T13:04:17.000Z</time>
      </trkpt>
      <trkpt lat="48.13114" lon="6.8612">
        <ele>741.40002441406</ele>
        <time>2026-09-02T13:04:18.000Z</time>
      </trkpt>
      <trkpt lat="48.13113" lon="6.86121">
        <ele>741.40002441406</ele>
        <time>2026-09-02T13:04:19.000Z</time>
      </trkpt>
      <trkpt lat="48.13112" lon="6.86122">
        <ele>741.40002441406</ele>
        <time>2026-09-02T13:04:20.000Z</time>
      </trkpt>
      <trkpt lat="48.13112" lon="6.86123">
        <ele>741.40002441406</ele>
        <time>2026-09-02T13:04:21.000Z</time>
      </trkpt>
      <trkpt lat="48.13111" lon="6.86124">
        <ele>741.40002441406</ele>
        <time>2026-09-02T13:04:22.000Z</time>
      </trkpt>
      <trkpt lat="48.13111" lon="6.86125">
        <ele>741.19995117188</ele>
        <time>2026-09-02T13:04:23.000Z</time>
      </trkpt>
      <trkpt lat="48.1311" lon="6.86126">
        <ele>741</ele>
        <time>2026-09-02T13:04:24.000Z</time>
      </trkpt>
      <trkpt lat="48.13109" lon="6.86127">
        <ele>740.80004882812</ele>
        <time>2026-09-02T13:04:25.000Z</time>
      </trkpt>
      <trkpt lat="48.13108" lon="6.86128">
        <ele>740.59997558594</ele>
        <time>2026-09-02T13:04:26.000Z</time>
      </trkpt>
      <trkpt lat="48.13108" lon="6.86129">
        <ele>740.40002441406</ele>
        <time>2026-09-02T13:04:27.000Z</time>
      </trkpt>
      <trkpt lat="48.13107" lon="6.8613">
        <ele>740.40002441406</ele>
        <time>2026-09-02T13:04:28.000Z</time>
      </trkpt>
      <trkpt lat="48.13106" lon="6.86132">
        <ele>740.40002441406</ele>
        <time>2026-09-02T13:04:29.000Z</time>
      </trkpt>
      <trkpt lat="48.13106" lon="6.86132">
        <ele>740.59997558594</ele>
        <time>2026-09-02T13:04:30.000Z</time>
      </trkpt>
      <trkpt lat="48.13105" lon="6.86133">
        <ele>740.80004882812</ele>
        <time>2026-09-02T13:04:31.000Z</time>
      </trkpt>
      <trkpt lat="48.13105" lon="6.86135">
        <ele>740.80004882812</ele>
        <time>2026-09-02T13:04:32.000Z</time>
      </trkpt>
      <trkpt lat="48.13104" lon="6.86135">
        <ele>741</ele>
        <time>2026-09-02T13:04:33.000Z</time>
      </trkpt>
      <trkpt lat="48.13104" lon="6.86136">
        <ele>741</ele>
        <time>2026-09-02T13:04:34.000Z</time>
      </trkpt>
      <trkpt lat="48.13103" lon="6.86137">
        <ele>740.80004882812</ele>
        <time>2026-09-02T13:04:35.000Z</time>
      </trkpt>
      <trkpt lat="48.13103" lon="6.86139">
        <ele>740.80004882812</ele>
        <time>2026-09-02T13:04:36.000Z</time>
      </trkpt>
      <trkpt lat="48.13103" lon="6.8614">
        <ele>740.59997558594</ele>
        <time>2026-09-02T13:04:37.000Z</time>
      </trkpt>
      <trkpt lat="48.13103" lon="6.86141">
        <ele>740.40002441406</ele>
        <time>2026-09-02T13:04:38.000Z</time>
      </trkpt>
      <trkpt lat="48.13102" lon="6.86142">
        <ele>740.19995117188</ele>
        <time>2026-09-02T13:04:39.000Z</time>
      </trkpt>
      <trkpt lat="48.13102" lon="6.86143">
        <ele>740.19995117188</ele>
        <time>2026-09-02T13:04:40.000Z</time>
      </trkpt>
      <trkpt lat="48.13102" lon="6.86144">
        <ele>740.19995117188</ele>
        <time>2026-09-02T13:04:41.000Z</time>
      </trkpt>
      <trkpt lat="48.13102" lon="6.86145">
        <ele>740.19995117188</ele>
        <time>2026-09-02T13:04:42.000Z</time>
      </trkpt>
      <trkpt lat="48.13101" lon="6.86147">
        <ele>740</ele>
        <time>2026-09-02T13:04:43.000Z</time>
      </trkpt>
      <trkpt lat="48.13101" lon="6.86147">
        <ele>740</ele>
        <time>2026-09-02T13:04:44.000Z</time>
      </trkpt>
      <trkpt lat="48.13101" lon="6.86149">
        <ele>740</ele>
        <time>2026-09-02T13:04:45.000Z</time>
      </trkpt>
      <trkpt lat="48.131" lon="6.8615">
        <ele>740.19995117188</ele>
        <time>2026-09-02T13:04:46.000Z</time>
      </trkpt>
      <trkpt lat="48.131" lon="6.86152">
        <ele>740.19995117188</ele>
        <time>2026-09-02T13:04:47.000Z</time>
      </trkpt>
      <trkpt lat="48.131" lon="6.86153">
        <ele>740.19995117188</ele>
        <time>2026-09-02T13:04:48.000Z</time>
      </trkpt>
      <trkpt lat="48.131" lon="6.86154">
        <ele>740.19995117188</ele>
        <time>2026-09-02T13:04:49.000Z</time>
      </trkpt>
      <trkpt lat="48.13099" lon="6.86156">
        <ele>740.19995117188</ele>
        <time>2026-09-02T13:04:50.000Z</time>
      </trkpt>
      <trkpt lat="48.13099" lon="6.86157">
        <ele>740</ele>
        <time>2026-09-02T13:04:51.000Z</time>
      </trkpt>
      <trkpt lat="48.13099" lon="6.86159">
        <ele>740</ele>
        <time>2026-09-02T13:04:52.000Z</time>
      </trkpt>
      <trkpt lat="48.13099" lon="6.8616">
        <ele>739.80004882812</ele>
        <time>2026-09-02T13:04:53.000Z</time>
      </trkpt>
      <trkpt lat="48.13099" lon="6.86162">
        <ele>739.59997558594</ele>
        <time>2026-09-02T13:04:54.000Z</time>
      </trkpt>
      <trkpt lat="48.13099" lon="6.86164">
        <ele>739.59997558594</ele>
        <time>2026-09-02T13:04:55.000Z</time>
      </trkpt>
      <trkpt lat="48.13099" lon="6.86165">
        <ele>739.40002441406</ele>
        <time>2026-09-02T13:04:56.000Z</time>
      </trkpt>
      <trkpt lat="48.13099" lon="6.86166">
        <ele>739.40002441406</ele>
        <time>2026-09-02T13:04:57.000Z</time>
      </trkpt>
      <trkpt lat="48.13099" lon="6.86167">
        <ele>739.19995117188</ele>
        <time>2026-09-02T13:04:58.000Z</time>
      </trkpt>
      <trkpt lat="48.13099" lon="6.86167">
        <ele>739</ele>
        <time>2026-09-02T13:04:59.000Z</time>
      </trkpt>
      <trkpt lat="48.13099" lon="6.86167">
        <ele>739</ele>
        <time>2026-09-02T13:05:00.000Z</time>
      </trkpt>
      <trkpt lat="48.13099" lon="6.86167">
        <ele>739</ele>
        <time>2026-09-02T13:05:01.000Z</time>
      </trkpt>
      <trkpt lat="48.13099" lon="6.86167">
        <ele>739</ele>
        <time>2026-09-02T13:05:02.000Z</time>
      </trkpt>
      <trkpt lat="48.13099" lon="6.86167">
        <ele>739</ele>
        <time>2026-09-02T13:05:03.000Z</time>
      </trkpt>
      <trkpt lat="48.13099" lon="6.86167">
        <ele>739</ele>
        <time>2026-09-02T13:05:04.000Z</time>
      </trkpt>
      <trkpt lat="48.13099" lon="6.86167">
        <ele>739</ele>
        <time>2026-09-02T13:05:05.000Z</time>
      </trkpt>
      <trkpt lat="48.13099" lon="6.86167">
        <ele>739</ele>
        <time>2026-09-02T13:05:06.000Z</time>
      </trkpt>
      <trkpt lat="48.13099" lon="6.86167">
        <ele>739</ele>
        <time>2026-09-02T13:05:07.000Z</time>
      </trkpt>
      <trkpt lat="48.13099" lon="6.86167">
        <ele>739</ele>
        <time>2026-09-02T13:05:08.000Z</time>
      </trkpt>
      <trkpt lat="48.13099" lon="6.86167">
        <ele>739</ele>
        <time>2026-09-02T13:05:09.000Z</time>
      </trkpt>
      <trkpt lat="48.13099" lon="6.86167">
        <ele>738.80004882812</ele>
        <time>2026-09-02T13:05:10.000Z</time>
      </trkpt>
      <trkpt lat="48.13099" lon="6.86167">
        <ele>738.80004882812</ele>
        <time>2026-09-02T13:05:11.000Z</time>
      </trkpt>
      <trkpt lat="48.13099" lon="6.86167">
        <ele>738.80004882812</ele>
        <time>2026-09-02T13:05:12.000Z</time>
      </trkpt>
      <trkpt lat="48.13099" lon="6.86167">
        <ele>738.80004882812</ele>
        <time>2026-09-02T13:05:13.000Z</time>
      </trkpt>
      <trkpt lat="48.13099" lon="6.86167">
        <ele>739</ele>
        <time>2026-09-02T13:05:14.000Z</time>
      </trkpt>
      <trkpt lat="48.13099" lon="6.86167">
        <ele>739</ele>
        <time>2026-09-02T13:05:15.000Z</time>
      </trkpt>
      <trkpt lat="48.13099" lon="6.86167">
        <ele>739</ele>
        <time>2026-09-02T13:05:16.000Z</time>
      </trkpt>
      <trkpt lat="48.13099" lon="6.86167">
        <ele>739</ele>
        <time>2026-09-02T13:05:17.000Z</time>
      </trkpt>
      <trkpt lat="48.13099" lon="6.86167">
        <ele>739</ele>
        <time>2026-09-02T13:05:18.000Z</time>
      </trkpt>
      <trkpt lat="48.13099" lon="6.86167">
        <ele>739</ele>
        <time>2026-09-02T13:05:19.000Z</time>
      </trkpt>
      <trkpt lat="48.13099" lon="6.86167">
        <ele>739</ele>
        <time>2026-09-02T13:05:20.000Z</time>
      </trkpt>
      <trkpt lat="48.13099" lon="6.86167">
        <ele>739.19995117188</ele>
        <time>2026-09-02T13:05:21.000Z</time>
      </trkpt>
      <trkpt lat="48.13099" lon="6.86167">
        <ele>739.19995117188</ele>
        <time>2026-09-02T13:05:22.000Z</time>
      </trkpt>
      <trkpt lat="48.13099" lon="6.86167">
        <ele>739.19995117188</ele>
        <time>2026-09-02T13:05:23.000Z</time>
      </trkpt>
      <trkpt lat="48.13099" lon="6.86167">
        <ele>739.19995117188</ele>
        <time>2026-09-02T13:05:24.000Z</time>
      </trkpt>
      <trkpt lat="48.13099" lon="6.86167">
        <ele>739.19995117188</ele>
        <time>2026-09-02T13:05:25.000Z</time>
      </trkpt>
      <trkpt lat="48.13099" lon="6.86167">
        <ele>739.19995117188</ele>
        <time>2026-09-02T13:05:26.000Z</time>
      </trkpt>
      <trkpt lat="48.13099" lon="6.86167">
        <ele>739.19995117188</ele>
        <time>2026-09-02T13:05:27.000Z</time>
      </trkpt>
      <trkpt lat="48.13099" lon="6.86167">
        <ele>739.19995117188</ele>
        <time>2026-09-02T13:05:28.000Z</time>
      </trkpt>
      <trkpt lat="48.13099" lon="6.86167">
        <ele>739</ele>
        <time>2026-09-02T13:05:29.000Z</time>
      </trkpt>
      <trkpt lat="48.13099" lon="6.86167">
        <ele>738.80004882812</ele>
        <time>2026-09-02T13:05:30.000Z</time>
      </trkpt>
      <trkpt lat="48.13099" lon="6.86168">
        <ele>738.80004882812</ele>
        <time>2026-09-02T13:05:31.000Z</time>
      </trkpt>
      <trkpt lat="48.13099" lon="6.86168">
        <ele>738.59997558594</ele>
        <time>2026-09-02T13:05:32.000Z</time>
      </trkpt>
      <trkpt lat="48.13099" lon="6.86169">
        <ele>738.59997558594</ele>
        <time>2026-09-02T13:05:33.000Z</time>
      </trkpt>
      <trkpt lat="48.13099" lon="6.8617">
        <ele>738.80004882812</ele>
        <time>2026-09-02T13:05:34.000Z</time>
      </trkpt>
      <trkpt lat="48.13099" lon="6.86171">
        <ele>738.80004882812</ele>
        <time>2026-09-02T13:05:35.000Z</time>
      </trkpt>
      <trkpt lat="48.13099" lon="6.86172">
        <ele>738.59997558594</ele>
        <time>2026-09-02T13:05:36.000Z</time>
      </trkpt>
      <trkpt lat="48.13099" lon="6.86172">
        <ele>738.59997558594</ele>
        <time>2026-09-02T13:05:37.000Z</time>
      </trkpt>
      <trkpt lat="48.131" lon="6.86171">
        <ele>738.40002441406</ele>
        <time>2026-09-02T13:05:38.000Z</time>
      </trkpt>
      <trkpt lat="48.131" lon="6.86171">
        <ele>738.40002441406</ele>
        <time>2026-09-02T13:05:39.000Z</time>
      </trkpt>
      <trkpt lat="48.13101" lon="6.86169">
        <ele>738.40002441406</ele>
        <time>2026-09-02T13:05:40.000Z</time>
      </trkpt>
      <trkpt lat="48.13102" lon="6.86168">
        <ele>738.59997558594</ele>
        <time>2026-09-02T13:05:41.000Z</time>
      </trkpt>
      <trkpt lat="48.13102" lon="6.86167">
        <ele>738.59997558594</ele>
        <time>2026-09-02T13:05:42.000Z</time>
      </trkpt>
      <trkpt lat="48.13103" lon="6.86167">
        <ele>738.59997558594</ele>
        <time>2026-09-02T13:05:43.000Z</time>
      </trkpt>
      <trkpt lat="48.13103" lon="6.86167">
        <ele>738.40002441406</ele>
        <time>2026-09-02T13:05:44.000Z</time>
      </trkpt>
      <trkpt lat="48.13104" lon="6.86167">
        <ele>738.40002441406</ele>
        <time>2026-09-02T13:05:45.000Z</time>
      </trkpt>
      <trkpt lat="48.13105" lon="6.86167">
        <ele>738.40002441406</ele>
        <time>2026-09-02T13:05:46.000Z</time>
      </trkpt>
      <trkpt lat="48.13106" lon="6.86166">
        <ele>738.40002441406</ele>
        <time>2026-09-02T13:05:47.000Z</time>
      </trkpt>
      <trkpt lat="48.13106" lon="6.86166">
        <ele>738.59997558594</ele>
        <time>2026-09-02T13:05:48.000Z</time>
      </trkpt>
      <trkpt lat="48.13107" lon="6.86166">
        <ele>738.80004882812</ele>
        <time>2026-09-02T13:05:49.000Z</time>
      </trkpt>
      <trkpt lat="48.13109" lon="6.86166">
        <ele>739</ele>
        <time>2026-09-02T13:05:50.000Z</time>
      </trkpt>
      <trkpt lat="48.1311" lon="6.86166">
        <ele>739.19995117188</ele>
        <time>2026-09-02T13:05:51.000Z</time>
      </trkpt>
      <trkpt lat="48.13111" lon="6.86166">
        <ele>739.19995117188</ele>
        <time>2026-09-02T13:05:52.000Z</time>
      </trkpt>
      <trkpt lat="48.13111" lon="6.86166">
        <ele>739.19995117188</ele>
        <time>2026-09-02T13:05:53.000Z</time>
      </trkpt>
      <trkpt lat="48.13113" lon="6.86166">
        <ele>739.19995117188</ele>
        <time>2026-09-02T13:05:54.000Z</time>
      </trkpt>
      <trkpt lat="48.13114" lon="6.86167">
        <ele>739.40002441406</ele>
        <time>2026-09-02T13:05:55.000Z</time>
      </trkpt>
      <trkpt lat="48.13115" lon="6.86166">
        <ele>739.40002441406</ele>
        <time>2026-09-02T13:05:56.000Z</time>
      </trkpt>
      <trkpt lat="48.13116" lon="6.86167">
        <ele>739.40002441406</ele>
        <time>2026-09-02T13:05:57.000Z</time>
      </trkpt>
      <trkpt lat="48.13117" lon="6.86168">
        <ele>739.59997558594</ele>
        <time>2026-09-02T13:05:58.000Z</time>
      </trkpt>
      <trkpt lat="48.13117" lon="6.86168">
        <ele>739.59997558594</ele>
        <time>2026-09-02T13:05:59.000Z</time>
      </trkpt>
      <trkpt lat="48.13118" lon="6.86168">
        <ele>739.59997558594</ele>
        <time>2026-09-02T13:06:00.000Z</time>
      </trkpt>
      <trkpt lat="48.13119" lon="6.86168">
        <ele>739.80004882812</ele>
        <time>2026-09-02T13:06:01.000Z</time>
      </trkpt>
      <trkpt lat="48.13119" lon="6.86169">
        <ele>739.80004882812</ele>
        <time>2026-09-02T13:06:02.000Z</time>
      </trkpt>
      <trkpt lat="48.1312" lon="6.86169">
        <ele>739.80004882812</ele>
        <time>2026-09-02T13:06:03.000Z</time>
      </trkpt>
      <trkpt lat="48.13121" lon="6.86168">
        <ele>739.80004882812</ele>
        <time>2026-09-02T13:06:04.000Z</time>
      </trkpt>
      <trkpt lat="48.13122" lon="6.86168">
        <ele>739.80004882812</ele>
        <time>2026-09-02T13:06:05.000Z</time>
      </trkpt>
      <trkpt lat="48.13123" lon="6.86168">
        <ele>739.80004882812</ele>
        <time>2026-09-02T13:06:06.000Z</time>
      </trkpt>
      <trkpt lat="48.13124" lon="6.86169">
        <ele>739.80004882812</ele>
        <time>2026-09-02T13:06:07.000Z</time>
      </trkpt>
      <trkpt lat="48.13124" lon="6.86169">
        <ele>739.80004882812</ele>
        <time>2026-09-02T13:06:08.000Z</time>
      </trkpt>
      <trkpt lat="48.13124" lon="6.86169">
        <ele>739.80004882812</ele>
        <time>2026-09-02T13:06:09.000Z</time>
      </trkpt>
      <trkpt lat="48.13125" lon="6.86169">
        <ele>739.80004882812</ele>
        <time>2026-09-02T13:06:10.000Z</time>
      </trkpt>
      <trkpt lat="48.13125" lon="6.86169">
        <ele>739.80004882812</ele>
        <time>2026-09-02T13:06:11.000Z</time>
      </trkpt>
      <trkpt lat="48.13126" lon="6.86169">
        <ele>739.80004882812</ele>
        <time>2026-09-02T13:06:12.000Z</time>
      </trkpt>
      <trkpt lat="48.13127" lon="6.86169">
        <ele>739.80004882812</ele>
        <time>2026-09-02T13:06:13.000Z</time>
      </trkpt>
      <trkpt lat="48.13128" lon="6.86169">
        <ele>739.80004882812</ele>
        <time>2026-09-02T13:06:14.000Z</time>
      </trkpt>
      <trkpt lat="48.13128" lon="6.86169">
        <ele>739.80004882812</ele>
        <time>2026-09-02T13:06:15.000Z</time>
      </trkpt>
      <trkpt lat="48.13129" lon="6.86169">
        <ele>740</ele>
        <time>2026-09-02T13:06:16.000Z</time>
      </trkpt>
      <trkpt lat="48.1313" lon="6.86169">
        <ele>740</ele>
        <time>2026-09-02T13:06:17.000Z</time>
      </trkpt>
      <trkpt lat="48.13131" lon="6.86169">
        <ele>740.19995117188</ele>
        <time>2026-09-02T13:06:18.000Z</time>
      </trkpt>
      <trkpt lat="48.13131" lon="6.86169">
        <ele>740.19995117188</ele>
        <time>2026-09-02T13:06:19.000Z</time>
      </trkpt>
      <trkpt lat="48.13132" lon="6.86169">
        <ele>740.19995117188</ele>
        <time>2026-09-02T13:06:20.000Z</time>
      </trkpt>
      <trkpt lat="48.13133" lon="6.86168">
        <ele>740</ele>
        <time>2026-09-02T13:06:21.000Z</time>
      </trkpt>
      <trkpt lat="48.13133" lon="6.86169">
        <ele>740</ele>
        <time>2026-09-02T13:06:22.000Z</time>
      </trkpt>
      <trkpt lat="48.13134" lon="6.86168">
        <ele>740</ele>
        <time>2026-09-02T13:06:23.000Z</time>
      </trkpt>
      <trkpt lat="48.13135" lon="6.86168">
        <ele>740</ele>
        <time>2026-09-02T13:06:24.000Z</time>
      </trkpt>
      <trkpt lat="48.13135" lon="6.86168">
        <ele>740</ele>
        <time>2026-09-02T13:06:25.000Z</time>
      </trkpt>
      <trkpt lat="48.13135" lon="6.86168">
        <ele>740</ele>
        <time>2026-09-02T13:06:26.000Z</time>
      </trkpt>
      <trkpt lat="48.13136" lon="6.86167">
        <ele>740</ele>
        <time>2026-09-02T13:06:27.000Z</time>
      </trkpt>
      <trkpt lat="48.13136" lon="6.86167">
        <ele>740</ele>
        <time>2026-09-02T13:06:28.000Z</time>
      </trkpt>
      <trkpt lat="48.13136" lon="6.86168">
        <ele>740</ele>
        <time>2026-09-02T13:06:29.000Z</time>
      </trkpt>
      <trkpt lat="48.13136" lon="6.86167">
        <ele>740</ele>
        <time>2026-09-02T13:06:30.000Z</time>
      </trkpt>
      <trkpt lat="48.13137" lon="6.86167">
        <ele>739.80004882812</ele>
        <time>2026-09-02T13:06:31.000Z</time>
      </trkpt>
      <trkpt lat="48.13137" lon="6.86167">
        <ele>739.80004882812</ele>
        <time>2026-09-02T13:06:32.000Z</time>
      </trkpt>
      <trkpt lat="48.13137" lon="6.86167">
        <ele>739.80004882812</ele>
        <time>2026-09-02T13:06:33.000Z</time>
      </trkpt>
      <trkpt lat="48.13137" lon="6.86166">
        <ele>739.80004882812</ele>
        <time>2026-09-02T13:06:34.000Z</time>
      </trkpt>
      <trkpt lat="48.13138" lon="6.86166">
        <ele>739.80004882812</ele>
        <time>2026-09-02T13:06:35.000Z</time>
      </trkpt>
      <trkpt lat="48.13139" lon="6.86165">
        <ele>739.80004882812</ele>
        <time>2026-09-02T13:06:36.000Z</time>
      </trkpt>
      <trkpt lat="48.1314" lon="6.86165">
        <ele>739.80004882812</ele>
        <time>2026-09-02T13:06:37.000Z</time>
      </trkpt>
      <trkpt lat="48.1314" lon="6.86164">
        <ele>740</ele>
        <time>2026-09-02T13:06:38.000Z</time>
      </trkpt>
      <trkpt lat="48.13141" lon="6.86163">
        <ele>740.19995117188</ele>
        <time>2026-09-02T13:06:39.000Z</time>
      </trkpt>
      <trkpt lat="48.13142" lon="6.86162">
        <ele>740.19995117188</ele>
        <time>2026-09-02T13:06:40.000Z</time>
      </trkpt>
      <trkpt lat="48.13142" lon="6.86162">
        <ele>740.19995117188</ele>
        <time>2026-09-02T13:06:41.000Z</time>
      </trkpt>
      <trkpt lat="48.13143" lon="6.86161">
        <ele>740.19995117188</ele>
        <time>2026-09-02T13:06:42.000Z</time>
      </trkpt>
      <trkpt lat="48.13144" lon="6.86161">
        <ele>740</ele>
        <time>2026-09-02T13:06:43.000Z</time>
      </trkpt>
      <trkpt lat="48.13144" lon="6.8616">
        <ele>740</ele>
        <time>2026-09-02T13:06:44.000Z</time>
      </trkpt>
      <trkpt lat="48.13144" lon="6.8616">
        <ele>740</ele>
        <time>2026-09-02T13:06:45.000Z</time>
      </trkpt>
      <trkpt lat="48.13145" lon="6.86159">
        <ele>740</ele>
        <time>2026-09-02T13:06:46.000Z</time>
      </trkpt>
      <trkpt lat="48.13146" lon="6.86158">
        <ele>740</ele>
        <time>2026-09-02T13:06:47.000Z</time>
      </trkpt>
      <trkpt lat="48.13147" lon="6.86157">
        <ele>740</ele>
        <time>2026-09-02T13:06:48.000Z</time>
      </trkpt>
      <trkpt lat="48.13147" lon="6.86156">
        <ele>740</ele>
        <time>2026-09-02T13:06:49.000Z</time>
      </trkpt>
      <trkpt lat="48.13147" lon="6.86155">
        <ele>740</ele>
        <time>2026-09-02T13:06:50.000Z</time>
      </trkpt>
      <trkpt lat="48.13148" lon="6.86154">
        <ele>740</ele>
        <time>2026-09-02T13:06:51.000Z</time>
      </trkpt>
      <trkpt lat="48.13149" lon="6.86154">
        <ele>740</ele>
        <time>2026-09-02T13:06:52.000Z</time>
      </trkpt>
      <trkpt lat="48.13149" lon="6.86153">
        <ele>740</ele>
        <time>2026-09-02T13:06:53.000Z</time>
      </trkpt>
      <trkpt lat="48.1315" lon="6.86152">
        <ele>739.80004882812</ele>
        <time>2026-09-02T13:06:54.000Z</time>
      </trkpt>
      <trkpt lat="48.13151" lon="6.86152">
        <ele>739.80004882812</ele>
        <time>2026-09-02T13:06:55.000Z</time>
      </trkpt>
      <trkpt lat="48.13152" lon="6.86151">
        <ele>739.80004882812</ele>
        <time>2026-09-02T13:06:56.000Z</time>
      </trkpt>
      <trkpt lat="48.13152" lon="6.8615">
        <ele>739.80004882812</ele>
        <time>2026-09-02T13:06:57.000Z</time>
      </trkpt>
      <trkpt lat="48.13153" lon="6.86149">
        <ele>739.80004882812</ele>
        <time>2026-09-02T13:06:58.000Z</time>
      </trkpt>
      <trkpt lat="48.13153" lon="6.86149">
        <ele>739.80004882812</ele>
        <time>2026-09-02T13:06:59.000Z</time>
      </trkpt>
      <trkpt lat="48.13154" lon="6.86148">
        <ele>739.59997558594</ele>
        <time>2026-09-02T13:07:00.000Z</time>
      </trkpt>
      <trkpt lat="48.13154" lon="6.86147">
        <ele>739.59997558594</ele>
        <time>2026-09-02T13:07:01.000Z</time>
      </trkpt>
      <trkpt lat="48.13155" lon="6.86147">
        <ele>739.59997558594</ele>
        <time>2026-09-02T13:07:02.000Z</time>
      </trkpt>
      <trkpt lat="48.13155" lon="6.86146">
        <ele>739.59997558594</ele>
        <time>2026-09-02T13:07:03.000Z</time>
      </trkpt>
      <trkpt lat="48.13156" lon="6.86145">
        <ele>739.59997558594</ele>
        <time>2026-09-02T13:07:04.000Z</time>
      </trkpt>
      <trkpt lat="48.13157" lon="6.86144">
        <ele>739.59997558594</ele>
        <time>2026-09-02T13:07:05.000Z</time>
      </trkpt>
      <trkpt lat="48.13158" lon="6.86143">
        <ele>739.59997558594</ele>
        <time>2026-09-02T13:07:06.000Z</time>
      </trkpt>
      <trkpt lat="48.13158" lon="6.86142">
        <ele>739.59997558594</ele>
        <time>2026-09-02T13:07:07.000Z</time>
      </trkpt>
      <trkpt lat="48.13159" lon="6.86141">
        <ele>739.59997558594</ele>
        <time>2026-09-02T13:07:08.000Z</time>
      </trkpt>
      <trkpt lat="48.1316" lon="6.86141">
        <ele>739.40002441406</ele>
        <time>2026-09-02T13:07:09.000Z</time>
      </trkpt>
      <trkpt lat="48.1316" lon="6.8614">
        <ele>739.59997558594</ele>
        <time>2026-09-02T13:07:10.000Z</time>
      </trkpt>
      <trkpt lat="48.13161" lon="6.8614">
        <ele>739.59997558594</ele>
        <time>2026-09-02T13:07:11.000Z</time>
      </trkpt>
      <trkpt lat="48.13162" lon="6.8614">
        <ele>739.59997558594</ele>
        <time>2026-09-02T13:07:12.000Z</time>
      </trkpt>
      <trkpt lat="48.13162" lon="6.86139">
        <ele>739.40002441406</ele>
        <time>2026-09-02T13:07:13.000Z</time>
      </trkpt>
      <trkpt lat="48.13163" lon="6.86139">
        <ele>739.40002441406</ele>
        <time>2026-09-02T13:07:14.000Z</time>
      </trkpt>
      <trkpt lat="48.13164" lon="6.86138">
        <ele>739.40002441406</ele>
        <time>2026-09-02T13:07:15.000Z</time>
      </trkpt>
      <trkpt lat="48.13165" lon="6.86138">
        <ele>739.40002441406</ele>
        <time>2026-09-02T13:07:16.000Z</time>
      </trkpt>
      <trkpt lat="48.13166" lon="6.86137">
        <ele>739.40002441406</ele>
        <time>2026-09-02T13:07:17.000Z</time>
      </trkpt>
      <trkpt lat="48.13167" lon="6.86137">
        <ele>739.40002441406</ele>
        <time>2026-09-02T13:07:18.000Z</time>
      </trkpt>
      <trkpt lat="48.13167" lon="6.86137">
        <ele>739.40002441406</ele>
        <time>2026-09-02T13:07:19.000Z</time>
      </trkpt>
      <trkpt lat="48.13169" lon="6.86137">
        <ele>739.40002441406</ele>
        <time>2026-09-02T13:07:20.000Z</time>
      </trkpt>
      <trkpt lat="48.13169" lon="6.86136">
        <ele>739.40002441406</ele>
        <time>2026-09-02T13:07:21.000Z</time>
      </trkpt>
      <trkpt lat="48.1317" lon="6.86136">
        <ele>739.59997558594</ele>
        <time>2026-09-02T13:07:22.000Z</time>
      </trkpt>
      <trkpt lat="48.13171" lon="6.86135">
        <ele>739.59997558594</ele>
        <time>2026-09-02T13:07:23.000Z</time>
      </trkpt>
      <trkpt lat="48.13172" lon="6.86135">
        <ele>739.59997558594</ele>
        <time>2026-09-02T13:07:24.000Z</time>
      </trkpt>
      <trkpt lat="48.13172" lon="6.86134">
        <ele>739.80004882812</ele>
        <time>2026-09-02T13:07:25.000Z</time>
      </trkpt>
      <trkpt lat="48.13173" lon="6.86133">
        <ele>739.80004882812</ele>
        <time>2026-09-02T13:07:26.000Z</time>
      </trkpt>
      <trkpt lat="48.13173" lon="6.86132">
        <ele>739.80004882812</ele>
        <time>2026-09-02T13:07:27.000Z</time>
      </trkpt>
      <trkpt lat="48.13173" lon="6.86131">
        <ele>739.80004882812</ele>
        <time>2026-09-02T13:07:28.000Z</time>
      </trkpt>
      <trkpt lat="48.13174" lon="6.8613">
        <ele>739.80004882812</ele>
        <time>2026-09-02T13:07:29.000Z</time>
      </trkpt>
      <trkpt lat="48.13174" lon="6.8613">
        <ele>739.80004882812</ele>
        <time>2026-09-02T13:07:30.000Z</time>
      </trkpt>
      <trkpt lat="48.13175" lon="6.86128">
        <ele>739.80004882812</ele>
        <time>2026-09-02T13:07:31.000Z</time>
      </trkpt>
      <trkpt lat="48.13175" lon="6.86127">
        <ele>739.80004882812</ele>
        <time>2026-09-02T13:07:32.000Z</time>
      </trkpt>
      <trkpt lat="48.13175" lon="6.86127">
        <ele>739.80004882812</ele>
        <time>2026-09-02T13:07:33.000Z</time>
      </trkpt>
      <trkpt lat="48.13176" lon="6.86126">
        <ele>739.80004882812</ele>
        <time>2026-09-02T13:07:34.000Z</time>
      </trkpt>
      <trkpt lat="48.13176" lon="6.86125">
        <ele>739.80004882812</ele>
        <time>2026-09-02T13:07:35.000Z</time>
      </trkpt>
      <trkpt lat="48.13177" lon="6.86125">
        <ele>739.80004882812</ele>
        <time>2026-09-02T13:07:36.000Z</time>
      </trkpt>
      <trkpt lat="48.13177" lon="6.86124">
        <ele>739.80004882812</ele>
        <time>2026-09-02T13:07:37.000Z</time>
      </trkpt>
      <trkpt lat="48.13178" lon="6.86124">
        <ele>739.80004882812</ele>
        <time>2026-09-02T13:07:38.000Z</time>
      </trkpt>
      <trkpt lat="48.13179" lon="6.86124">
        <ele>739.80004882812</ele>
        <time>2026-09-02T13:07:39.000Z</time>
      </trkpt>
      <trkpt lat="48.1318" lon="6.86123">
        <ele>739.80004882812</ele>
        <time>2026-09-02T13:07:40.000Z</time>
      </trkpt>
      <trkpt lat="48.1318" lon="6.86122">
        <ele>739.80004882812</ele>
        <time>2026-09-02T13:07:41.000Z</time>
      </trkpt>
      <trkpt lat="48.13181" lon="6.86122">
        <ele>739.80004882812</ele>
        <time>2026-09-02T13:07:42.000Z</time>
      </trkpt>
      <trkpt lat="48.13181" lon="6.86121">
        <ele>739.80004882812</ele>
        <time>2026-09-02T13:07:43.000Z</time>
      </trkpt>
      <trkpt lat="48.13181" lon="6.86119">
        <ele>739.80004882812</ele>
        <time>2026-09-02T13:07:44.000Z</time>
      </trkpt>
      <trkpt lat="48.13181" lon="6.86118">
        <ele>739.80004882812</ele>
        <time>2026-09-02T13:07:45.000Z</time>
      </trkpt>
      <trkpt lat="48.13181" lon="6.86117">
        <ele>739.80004882812</ele>
        <time>2026-09-02T13:07:46.000Z</time>
      </trkpt>
      <trkpt lat="48.13182" lon="6.86116">
        <ele>739.80004882812</ele>
        <time>2026-09-02T13:07:47.000Z</time>
      </trkpt>
      <trkpt lat="48.13182" lon="6.86114">
        <ele>740</ele>
        <time>2026-09-02T13:07:48.000Z</time>
      </trkpt>
      <trkpt lat="48.13183" lon="6.86113">
        <ele>740</ele>
        <time>2026-09-02T13:07:49.000Z</time>
      </trkpt>
      <trkpt lat="48.13183" lon="6.86112">
        <ele>740</ele>
        <time>2026-09-02T13:07:50.000Z</time>
      </trkpt>
      <trkpt lat="48.13183" lon="6.86111">
        <ele>740</ele>
        <time>2026-09-02T13:07:51.000Z</time>
      </trkpt>
      <trkpt lat="48.13184" lon="6.86109">
        <ele>740</ele>
        <time>2026-09-02T13:07:52.000Z</time>
      </trkpt>
      <trkpt lat="48.13184" lon="6.86109">
        <ele>740</ele>
        <time>2026-09-02T13:07:53.000Z</time>
      </trkpt>
      <trkpt lat="48.13184" lon="6.86108">
        <ele>740</ele>
        <time>2026-09-02T13:07:54.000Z</time>
      </trkpt>
      <trkpt lat="48.13185" lon="6.86107">
        <ele>740</ele>
        <time>2026-09-02T13:07:55.000Z</time>
      </trkpt>
      <trkpt lat="48.13185" lon="6.86106">
        <ele>740</ele>
        <time>2026-09-02T13:07:56.000Z</time>
      </trkpt>
      <trkpt lat="48.13185" lon="6.86105">
        <ele>740</ele>
        <time>2026-09-02T13:07:57.000Z</time>
      </trkpt>
      <trkpt lat="48.13186" lon="6.86103">
        <ele>740</ele>
        <time>2026-09-02T13:07:58.000Z</time>
      </trkpt>
      <trkpt lat="48.13186" lon="6.86103">
        <ele>740</ele>
        <time>2026-09-02T13:07:59.000Z</time>
      </trkpt>
      <trkpt lat="48.13187" lon="6.86102">
        <ele>740</ele>
        <time>2026-09-02T13:08:00.000Z</time>
      </trkpt>
      <trkpt lat="48.13187" lon="6.86102">
        <ele>740</ele>
        <time>2026-09-02T13:08:01.000Z</time>
      </trkpt>
      <trkpt lat="48.13187" lon="6.86101">
        <ele>740</ele>
        <time>2026-09-02T13:08:02.000Z</time>
      </trkpt>
      <trkpt lat="48.13188" lon="6.86101">
        <ele>740</ele>
        <time>2026-09-02T13:08:03.000Z</time>
      </trkpt>
      <trkpt lat="48.13188" lon="6.861">
        <ele>740</ele>
        <time>2026-09-02T13:08:04.000Z</time>
      </trkpt>
      <trkpt lat="48.13189" lon="6.86099">
        <ele>739.80004882812</ele>
        <time>2026-09-02T13:08:05.000Z</time>
      </trkpt>
      <trkpt lat="48.13189" lon="6.86098">
        <ele>739.80004882812</ele>
        <time>2026-09-02T13:08:06.000Z</time>
      </trkpt>
      <trkpt lat="48.1319" lon="6.86097">
        <ele>739.80004882812</ele>
        <time>2026-09-02T13:08:07.000Z</time>
      </trkpt>
      <trkpt lat="48.13191" lon="6.86096">
        <ele>739.80004882812</ele>
        <time>2026-09-02T13:08:08.000Z</time>
      </trkpt>
      <trkpt lat="48.13192" lon="6.86096">
        <ele>739.80004882812</ele>
        <time>2026-09-02T13:08:09.000Z</time>
      </trkpt>
      <trkpt lat="48.13192" lon="6.86096">
        <ele>739.80004882812</ele>
        <time>2026-09-02T13:08:10.000Z</time>
      </trkpt>
      <trkpt lat="48.13193" lon="6.86095">
        <ele>740</ele>
        <time>2026-09-02T13:08:11.000Z</time>
      </trkpt>
      <trkpt lat="48.13194" lon="6.86094">
        <ele>740</ele>
        <time>2026-09-02T13:08:12.000Z</time>
      </trkpt>
      <trkpt lat="48.13195" lon="6.86094">
        <ele>740</ele>
        <time>2026-09-02T13:08:13.000Z</time>
      </trkpt>
      <trkpt lat="48.13196" lon="6.86094">
        <ele>740.19995117188</ele>
        <time>2026-09-02T13:08:14.000Z</time>
      </trkpt>
      <trkpt lat="48.13197" lon="6.86093">
        <ele>740.19995117188</ele>
        <time>2026-09-02T13:08:15.000Z</time>
      </trkpt>
      <trkpt lat="48.13198" lon="6.86093">
        <ele>740</ele>
        <time>2026-09-02T13:08:16.000Z</time>
      </trkpt>
      <trkpt lat="48.13199" lon="6.86093">
        <ele>740</ele>
        <time>2026-09-02T13:08:17.000Z</time>
      </trkpt>
      <trkpt lat="48.132" lon="6.86093">
        <ele>740</ele>
        <time>2026-09-02T13:08:18.000Z</time>
      </trkpt>
      <trkpt lat="48.13201" lon="6.86093">
        <ele>740</ele>
        <time>2026-09-02T13:08:19.000Z</time>
      </trkpt>
      <trkpt lat="48.13202" lon="6.86093">
        <ele>740</ele>
        <time>2026-09-02T13:08:20.000Z</time>
      </trkpt>
      <trkpt lat="48.13202" lon="6.86093">
        <ele>740</ele>
        <time>2026-09-02T13:08:21.000Z</time>
      </trkpt>
      <trkpt lat="48.13203" lon="6.86092">
        <ele>739.80004882812</ele>
        <time>2026-09-02T13:08:22.000Z</time>
      </trkpt>
      <trkpt lat="48.13204" lon="6.86092">
        <ele>739.80004882812</ele>
        <time>2026-09-02T13:08:23.000Z</time>
      </trkpt>
      <trkpt lat="48.13205" lon="6.86092">
        <ele>739.80004882812</ele>
        <time>2026-09-02T13:08:24.000Z</time>
      </trkpt>
      <trkpt lat="48.13206" lon="6.86091">
        <ele>739.80004882812</ele>
        <time>2026-09-02T13:08:25.000Z</time>
      </trkpt>
      <trkpt lat="48.13207" lon="6.86092">
        <ele>739.80004882812</ele>
        <time>2026-09-02T13:08:26.000Z</time>
      </trkpt>
      <trkpt lat="48.13208" lon="6.86091">
        <ele>739.80004882812</ele>
        <time>2026-09-02T13:08:27.000Z</time>
      </trkpt>
      <trkpt lat="48.13208" lon="6.86091">
        <ele>739.80004882812</ele>
        <time>2026-09-02T13:08:28.000Z</time>
      </trkpt>
      <trkpt lat="48.13209" lon="6.86091">
        <ele>739.80004882812</ele>
        <time>2026-09-02T13:08:29.000Z</time>
      </trkpt>
      <trkpt lat="48.13209" lon="6.86091">
        <ele>739.80004882812</ele>
        <time>2026-09-02T13:08:30.000Z</time>
      </trkpt>
      <trkpt lat="48.13209" lon="6.86091">
        <ele>739.59997558594</ele>
        <time>2026-09-02T13:08:31.000Z</time>
      </trkpt>
      <trkpt lat="48.13209" lon="6.86091">
        <ele>739.59997558594</ele>
        <time>2026-09-02T13:08:32.000Z</time>
      </trkpt>
      <trkpt lat="48.13209" lon="6.86091">
        <ele>739.59997558594</ele>
        <time>2026-09-02T13:08:33.000Z</time>
      </trkpt>
      <trkpt lat="48.13209" lon="6.86091">
        <ele>739.59997558594</ele>
        <time>2026-09-02T13:08:34.000Z</time>
      </trkpt>
      <trkpt lat="48.1321" lon="6.86091">
        <ele>739.59997558594</ele>
        <time>2026-09-02T13:08:35.000Z</time>
      </trkpt>
      <trkpt lat="48.13211" lon="6.86091">
        <ele>739.59997558594</ele>
        <time>2026-09-02T13:08:36.000Z</time>
      </trkpt>
      <trkpt lat="48.13212" lon="6.86091">
        <ele>739.59997558594</ele>
        <time>2026-09-02T13:08:37.000Z</time>
      </trkpt>
      <trkpt lat="48.13213" lon="6.86091">
        <ele>739.40002441406</ele>
        <time>2026-09-02T13:08:38.000Z</time>
      </trkpt>
      <trkpt lat="48.13214" lon="6.86091">
        <ele>739.40002441406</ele>
        <time>2026-09-02T13:08:39.000Z</time>
      </trkpt>
      <trkpt lat="48.13215" lon="6.86091">
        <ele>739.40002441406</ele>
        <time>2026-09-02T13:08:40.000Z</time>
      </trkpt>
      <trkpt lat="48.13216" lon="6.86091">
        <ele>739.40002441406</ele>
        <time>2026-09-02T13:08:41.000Z</time>
      </trkpt>
      <trkpt lat="48.13216" lon="6.86091">
        <ele>739.40002441406</ele>
        <time>2026-09-02T13:08:42.000Z</time>
      </trkpt>
      <trkpt lat="48.13218" lon="6.8609">
        <ele>739.59997558594</ele>
        <time>2026-09-02T13:08:43.000Z</time>
      </trkpt>
      <trkpt lat="48.13218" lon="6.86091">
        <ele>739.59997558594</ele>
        <time>2026-09-02T13:08:44.000Z</time>
      </trkpt>
      <trkpt lat="48.13218" lon="6.86091">
        <ele>739.59997558594</ele>
        <time>2026-09-02T13:08:45.000Z</time>
      </trkpt>
      <trkpt lat="48.13219" lon="6.86091">
        <ele>739.40002441406</ele>
        <time>2026-09-02T13:08:46.000Z</time>
      </trkpt>
      <trkpt lat="48.13219" lon="6.86091">
        <ele>739.40002441406</ele>
        <time>2026-09-02T13:08:47.000Z</time>
      </trkpt>
      <trkpt lat="48.13219" lon="6.86091">
        <ele>739.19995117188</ele>
        <time>2026-09-02T13:08:48.000Z</time>
      </trkpt>
      <trkpt lat="48.13219" lon="6.86091">
        <ele>739.19995117188</ele>
        <time>2026-09-02T13:08:49.000Z</time>
      </trkpt>
      <trkpt lat="48.13219" lon="6.86091">
        <ele>739.19995117188</ele>
        <time>2026-09-02T13:08:50.000Z</time>
      </trkpt>
      <trkpt lat="48.13219" lon="6.86091">
        <ele>739</ele>
        <time>2026-09-02T13:08:51.000Z</time>
      </trkpt>
      <trkpt lat="48.13219" lon="6.86091">
        <ele>739</ele>
        <time>2026-09-02T13:08:52.000Z</time>
      </trkpt>
      <trkpt lat="48.13219" lon="6.86091">
        <ele>738.80004882812</ele>
        <time>2026-09-02T13:08:53.000Z</time>
      </trkpt>
      <trkpt lat="48.13219" lon="6.86091">
        <ele>738.80004882812</ele>
        <time>2026-09-02T13:08:54.000Z</time>
      </trkpt>
      <trkpt lat="48.13219" lon="6.86091">
        <ele>738.80004882812</ele>
        <time>2026-09-02T13:08:55.000Z</time>
      </trkpt>
      <trkpt lat="48.13219" lon="6.86091">
        <ele>738.80004882812</ele>
        <time>2026-09-02T13:08:56.000Z</time>
      </trkpt>
      <trkpt lat="48.13219" lon="6.86091">
        <ele>738.80004882812</ele>
        <time>2026-09-02T13:08:57.000Z</time>
      </trkpt>
      <trkpt lat="48.13219" lon="6.86091">
        <ele>738.80004882812</ele>
        <time>2026-09-02T13:08:58.000Z</time>
      </trkpt>
      <trkpt lat="48.13219" lon="6.86091">
        <ele>739</ele>
        <time>2026-09-02T13:08:59.000Z</time>
      </trkpt>
      <trkpt lat="48.13219" lon="6.86091">
        <ele>739</ele>
        <time>2026-09-02T13:09:00.000Z</time>
      </trkpt>
      <trkpt lat="48.13219" lon="6.86091">
        <ele>738.80004882812</ele>
        <time>2026-09-02T13:09:01.000Z</time>
      </trkpt>
      <trkpt lat="48.13219" lon="6.86091">
        <ele>738.80004882812</ele>
        <time>2026-09-02T13:09:02.000Z</time>
      </trkpt>
      <trkpt lat="48.13219" lon="6.86091">
        <ele>738.80004882812</ele>
        <time>2026-09-02T13:09:03.000Z</time>
      </trkpt>
      <trkpt lat="48.13219" lon="6.86091">
        <ele>738.80004882812</ele>
        <time>2026-09-02T13:09:04.000Z</time>
      </trkpt>
      <trkpt lat="48.13219" lon="6.86091">
        <ele>738.80004882812</ele>
        <time>2026-09-02T13:09:05.000Z</time>
      </trkpt>
      <trkpt lat="48.13219" lon="6.86091">
        <ele>738.80004882812</ele>
        <time>2026-09-02T13:09:06.000Z</time>
      </trkpt>
      <trkpt lat="48.13219" lon="6.86091">
        <ele>738.80004882812</ele>
        <time>2026-09-02T13:09:07.000Z</time>
      </trkpt>
      <trkpt lat="48.13219" lon="6.86091">
        <ele>738.80004882812</ele>
        <time>2026-09-02T13:09:08.000Z</time>
      </trkpt>
      <trkpt lat="48.13219" lon="6.86091">
        <ele>738.80004882812</ele>
        <time>2026-09-02T13:09:09.000Z</time>
      </trkpt>
      <trkpt lat="48.13219" lon="6.86091">
        <ele>739</ele>
        <time>2026-09-02T13:09:10.000Z</time>
      </trkpt>
      <trkpt lat="48.13219" lon="6.86091">
        <ele>739</ele>
        <time>2026-09-02T13:09:11.000Z</time>
      </trkpt>
      <trkpt lat="48.13219" lon="6.86091">
        <ele>739</ele>
        <time>2026-09-02T13:09:12.000Z</time>
      </trkpt>
      <trkpt lat="48.13219" lon="6.8609">
        <ele>738.80004882812</ele>
        <time>2026-09-02T13:09:13.000Z</time>
      </trkpt>
      <trkpt lat="48.1322" lon="6.8609">
        <ele>738.80004882812</ele>
        <time>2026-09-02T13:09:14.000Z</time>
      </trkpt>
      <trkpt lat="48.1322" lon="6.8609">
        <ele>738.59997558594</ele>
        <time>2026-09-02T13:09:15.000Z</time>
      </trkpt>
      <trkpt lat="48.1322" lon="6.8609">
        <ele>738.59997558594</ele>
        <time>2026-09-02T13:09:16.000Z</time>
      </trkpt>
      <trkpt lat="48.1322" lon="6.8609">
        <ele>738.80004882812</ele>
        <time>2026-09-02T13:09:17.000Z</time>
      </trkpt>
      <trkpt lat="48.13222" lon="6.8609">
        <ele>738.80004882812</ele>
        <time>2026-09-02T13:09:18.000Z</time>
      </trkpt>
      <trkpt lat="48.13223" lon="6.8609">
        <ele>738.80004882812</ele>
        <time>2026-09-02T13:09:19.000Z</time>
      </trkpt>
      <trkpt lat="48.13223" lon="6.8609">
        <ele>738.80004882812</ele>
        <time>2026-09-02T13:09:20.000Z</time>
      </trkpt>
      <trkpt lat="48.13224" lon="6.86091">
        <ele>738.59997558594</ele>
        <time>2026-09-02T13:09:21.000Z</time>
      </trkpt>
      <trkpt lat="48.13225" lon="6.86091">
        <ele>738.40002441406</ele>
        <time>2026-09-02T13:09:22.000Z</time>
      </trkpt>
      <trkpt lat="48.13225" lon="6.86092">
        <ele>738.40002441406</ele>
        <time>2026-09-02T13:09:23.000Z</time>
      </trkpt>
      <trkpt lat="48.13226" lon="6.86091">
        <ele>738.19995117188</ele>
        <time>2026-09-02T13:09:24.000Z</time>
      </trkpt>
      <trkpt lat="48.13227" lon="6.86091">
        <ele>738.19995117188</ele>
        <time>2026-09-02T13:09:25.000Z</time>
      </trkpt>
      <trkpt lat="48.13228" lon="6.86092">
        <ele>738.19995117188</ele>
        <time>2026-09-02T13:09:26.000Z</time>
      </trkpt>
      <trkpt lat="48.13228" lon="6.86093">
        <ele>738.19995117188</ele>
        <time>2026-09-02T13:09:27.000Z</time>
      </trkpt>
      <trkpt lat="48.13229" lon="6.86092">
        <ele>738.19995117188</ele>
        <time>2026-09-02T13:09:28.000Z</time>
      </trkpt>
      <trkpt lat="48.1323" lon="6.86093">
        <ele>738.19995117188</ele>
        <time>2026-09-02T13:09:29.000Z</time>
      </trkpt>
      <trkpt lat="48.1323" lon="6.86093">
        <ele>738</ele>
        <time>2026-09-02T13:09:30.000Z</time>
      </trkpt>
      <trkpt lat="48.13231" lon="6.86094">
        <ele>737.80004882812</ele>
        <time>2026-09-02T13:09:31.000Z</time>
      </trkpt>
      <trkpt lat="48.13232" lon="6.86094">
        <ele>737.80004882812</ele>
        <time>2026-09-02T13:09:32.000Z</time>
      </trkpt>
      <trkpt lat="48.13232" lon="6.86094">
        <ele>737.80004882812</ele>
        <time>2026-09-02T13:09:33.000Z</time>
      </trkpt>
      <trkpt lat="48.13233" lon="6.86095">
        <ele>737.59997558594</ele>
        <time>2026-09-02T13:09:34.000Z</time>
      </trkpt>
      <trkpt lat="48.13234" lon="6.86095">
        <ele>737.59997558594</ele>
        <time>2026-09-02T13:09:35.000Z</time>
      </trkpt>
      <trkpt lat="48.13235" lon="6.86095">
        <ele>737.59997558594</ele>
        <time>2026-09-02T13:09:36.000Z</time>
      </trkpt>
      <trkpt lat="48.13236" lon="6.86095">
        <ele>737.59997558594</ele>
        <time>2026-09-02T13:09:37.000Z</time>
      </trkpt>
      <trkpt lat="48.13237" lon="6.86095">
        <ele>737.59997558594</ele>
        <time>2026-09-02T13:09:38.000Z</time>
      </trkpt>
      <trkpt lat="48.13237" lon="6.86095">
        <ele>737.59997558594</ele>
        <time>2026-09-02T13:09:39.000Z</time>
      </trkpt>
      <trkpt lat="48.13238" lon="6.86095">
        <ele>737.40002441406</ele>
        <time>2026-09-02T13:09:40.000Z</time>
      </trkpt>
      <trkpt lat="48.13239" lon="6.86095">
        <ele>737.40002441406</ele>
        <time>2026-09-02T13:09:41.000Z</time>
      </trkpt>
      <trkpt lat="48.1324" lon="6.86095">
        <ele>737.40002441406</ele>
        <time>2026-09-02T13:09:42.000Z</time>
      </trkpt>
      <trkpt lat="48.13241" lon="6.86094">
        <ele>737.40002441406</ele>
        <time>2026-09-02T13:09:43.000Z</time>
      </trkpt>
      <trkpt lat="48.13241" lon="6.86093">
        <ele>737.19995117188</ele>
        <time>2026-09-02T13:09:44.000Z</time>
      </trkpt>
      <trkpt lat="48.13241" lon="6.86092">
        <ele>737</ele>
        <time>2026-09-02T13:09:45.000Z</time>
      </trkpt>
      <trkpt lat="48.13241" lon="6.86092">
        <ele>737</ele>
        <time>2026-09-02T13:09:46.000Z</time>
      </trkpt>
      <trkpt lat="48.13242" lon="6.86091">
        <ele>737</ele>
        <time>2026-09-02T13:09:47.000Z</time>
      </trkpt>
      <trkpt lat="48.13242" lon="6.8609">
        <ele>737</ele>
        <time>2026-09-02T13:09:48.000Z</time>
      </trkpt>
      <trkpt lat="48.13242" lon="6.8609">
        <ele>737</ele>
        <time>2026-09-02T13:09:49.000Z</time>
      </trkpt>
      <trkpt lat="48.13243" lon="6.86089">
        <ele>737</ele>
        <time>2026-09-02T13:09:50.000Z</time>
      </trkpt>
      <trkpt lat="48.13243" lon="6.86088">
        <ele>737</ele>
        <time>2026-09-02T13:09:51.000Z</time>
      </trkpt>
      <trkpt lat="48.13244" lon="6.86087">
        <ele>737</ele>
        <time>2026-09-02T13:09:52.000Z</time>
      </trkpt>
      <trkpt lat="48.13245" lon="6.86086">
        <ele>737</ele>
        <time>2026-09-02T13:09:53.000Z</time>
      </trkpt>
      <trkpt lat="48.13245" lon="6.86085">
        <ele>737</ele>
        <time>2026-09-02T13:09:54.000Z</time>
      </trkpt>
      <trkpt lat="48.13246" lon="6.86085">
        <ele>737</ele>
        <time>2026-09-02T13:09:55.000Z</time>
      </trkpt>
      <trkpt lat="48.13247" lon="6.86084">
        <ele>737</ele>
        <time>2026-09-02T13:09:56.000Z</time>
      </trkpt>
      <trkpt lat="48.13248" lon="6.86083">
        <ele>736.80004882812</ele>
        <time>2026-09-02T13:09:57.000Z</time>
      </trkpt>
      <trkpt lat="48.13248" lon="6.86083">
        <ele>736.80004882812</ele>
        <time>2026-09-02T13:09:58.000Z</time>
      </trkpt>
      <trkpt lat="48.13248" lon="6.86082">
        <ele>736.80004882812</ele>
        <time>2026-09-02T13:09:59.000Z</time>
      </trkpt>
      <trkpt lat="48.13248" lon="6.86081">
        <ele>736.59997558594</ele>
        <time>2026-09-02T13:10:00.000Z</time>
      </trkpt>
      <trkpt lat="48.13249" lon="6.8608">
        <ele>736.59997558594</ele>
        <time>2026-09-02T13:10:01.000Z</time>
      </trkpt>
      <trkpt lat="48.1325" lon="6.8608">
        <ele>736.59997558594</ele>
        <time>2026-09-02T13:10:02.000Z</time>
      </trkpt>
      <trkpt lat="48.1325" lon="6.86079">
        <ele>736.59997558594</ele>
        <time>2026-09-02T13:10:03.000Z</time>
      </trkpt>
      <trkpt lat="48.1325" lon="6.86078">
        <ele>736.59997558594</ele>
        <time>2026-09-02T13:10:04.000Z</time>
      </trkpt>
      <trkpt lat="48.1325" lon="6.86077">
        <ele>736.59997558594</ele>
        <time>2026-09-02T13:10:05.000Z</time>
      </trkpt>
      <trkpt lat="48.1325" lon="6.86076">
        <ele>736.40002441406</ele>
        <time>2026-09-02T13:10:06.000Z</time>
      </trkpt>
      <trkpt lat="48.13251" lon="6.86075">
        <ele>736.40002441406</ele>
        <time>2026-09-02T13:10:07.000Z</time>
      </trkpt>
      <trkpt lat="48.13251" lon="6.86074">
        <ele>736.40002441406</ele>
        <time>2026-09-02T13:10:08.000Z</time>
      </trkpt>
      <trkpt lat="48.13252" lon="6.86073">
        <ele>736.40002441406</ele>
        <time>2026-09-02T13:10:09.000Z</time>
      </trkpt>
      <trkpt lat="48.13252" lon="6.86072">
        <ele>736.40002441406</ele>
        <time>2026-09-02T13:10:10.000Z</time>
      </trkpt>
      <trkpt lat="48.13253" lon="6.86072">
        <ele>736.40002441406</ele>
        <time>2026-09-02T13:10:11.000Z</time>
      </trkpt>
      <trkpt lat="48.13253" lon="6.86071">
        <ele>736.40002441406</ele>
        <time>2026-09-02T13:10:12.000Z</time>
      </trkpt>
      <trkpt lat="48.13254" lon="6.8607">
        <ele>736.40002441406</ele>
        <time>2026-09-02T13:10:13.000Z</time>
      </trkpt>
      <trkpt lat="48.13254" lon="6.86069">
        <ele>736.19995117188</ele>
        <time>2026-09-02T13:10:14.000Z</time>
      </trkpt>
      <trkpt lat="48.13255" lon="6.86069">
        <ele>736.19995117188</ele>
        <time>2026-09-02T13:10:15.000Z</time>
      </trkpt>
      <trkpt lat="48.13255" lon="6.86068">
        <ele>736</ele>
        <time>2026-09-02T13:10:16.000Z</time>
      </trkpt>
      <trkpt lat="48.13255" lon="6.86067">
        <ele>736</ele>
        <time>2026-09-02T13:10:17.000Z</time>
      </trkpt>
      <trkpt lat="48.13256" lon="6.86066">
        <ele>735.80004882812</ele>
        <time>2026-09-02T13:10:18.000Z</time>
      </trkpt>
      <trkpt lat="48.13257" lon="6.86065">
        <ele>735.80004882812</ele>
        <time>2026-09-02T13:10:19.000Z</time>
      </trkpt>
      <trkpt lat="48.13257" lon="6.86064">
        <ele>735.80004882812</ele>
        <time>2026-09-02T13:10:20.000Z</time>
      </trkpt>
      <trkpt lat="48.13257" lon="6.86062">
        <ele>735.80004882812</ele>
        <time>2026-09-02T13:10:21.000Z</time>
      </trkpt>
      <trkpt lat="48.13258" lon="6.86061">
        <ele>735.59997558594</ele>
        <time>2026-09-02T13:10:22.000Z</time>
      </trkpt>
      <trkpt lat="48.13258" lon="6.8606">
        <ele>735.59997558594</ele>
        <time>2026-09-02T13:10:23.000Z</time>
      </trkpt>
      <trkpt lat="48.13259" lon="6.86059">
        <ele>735.40002441406</ele>
        <time>2026-09-02T13:10:24.000Z</time>
      </trkpt>
      <trkpt lat="48.13259" lon="6.86058">
        <ele>735.40002441406</ele>
        <time>2026-09-02T13:10:25.000Z</time>
      </trkpt>
      <trkpt lat="48.1326" lon="6.86058">
        <ele>735.19995117188</ele>
        <time>2026-09-02T13:10:26.000Z</time>
      </trkpt>
      <trkpt lat="48.13259" lon="6.86057">
        <ele>735.19995117188</ele>
        <time>2026-09-02T13:10:27.000Z</time>
      </trkpt>
      <trkpt lat="48.13259" lon="6.86057">
        <ele>735.19995117188</ele>
        <time>2026-09-02T13:10:28.000Z</time>
      </trkpt>
      <trkpt lat="48.1326" lon="6.86056">
        <ele>735</ele>
        <time>2026-09-02T13:10:29.000Z</time>
      </trkpt>
      <trkpt lat="48.1326" lon="6.86056">
        <ele>735</ele>
        <time>2026-09-02T13:10:30.000Z</time>
      </trkpt>
      <trkpt lat="48.13261" lon="6.86055">
        <ele>735</ele>
        <time>2026-09-02T13:10:31.000Z</time>
      </trkpt>
      <trkpt lat="48.13262" lon="6.86055">
        <ele>734.80004882812</ele>
        <time>2026-09-02T13:10:32.000Z</time>
      </trkpt>
      <trkpt lat="48.13263" lon="6.86055">
        <ele>734.80004882812</ele>
        <time>2026-09-02T13:10:33.000Z</time>
      </trkpt>
      <trkpt lat="48.13264" lon="6.86054">
        <ele>734.80004882812</ele>
        <time>2026-09-02T13:10:34.000Z</time>
      </trkpt>
      <trkpt lat="48.13264" lon="6.86054">
        <ele>734.80004882812</ele>
        <time>2026-09-02T13:10:35.000Z</time>
      </trkpt>
      <trkpt lat="48.13265" lon="6.86053">
        <ele>734.80004882812</ele>
        <time>2026-09-02T13:10:36.000Z</time>
      </trkpt>
      <trkpt lat="48.13266" lon="6.86053">
        <ele>734.80004882812</ele>
        <time>2026-09-02T13:10:37.000Z</time>
      </trkpt>
      <trkpt lat="48.13266" lon="6.86053">
        <ele>734.80004882812</ele>
        <time>2026-09-02T13:10:38.000Z</time>
      </trkpt>
      <trkpt lat="48.13267" lon="6.86053">
        <ele>734.80004882812</ele>
        <time>2026-09-02T13:10:39.000Z</time>
      </trkpt>
      <trkpt lat="48.13268" lon="6.86053">
        <ele>734.80004882812</ele>
        <time>2026-09-02T13:10:40.000Z</time>
      </trkpt>
      <trkpt lat="48.13268" lon="6.86053">
        <ele>734.59997558594</ele>
        <time>2026-09-02T13:10:41.000Z</time>
      </trkpt>
      <trkpt lat="48.13269" lon="6.86053">
        <ele>734.59997558594</ele>
        <time>2026-09-02T13:10:42.000Z</time>
      </trkpt>
      <trkpt lat="48.13269" lon="6.86053">
        <ele>734.40002441406</ele>
        <time>2026-09-02T13:10:43.000Z</time>
      </trkpt>
      <trkpt lat="48.13271" lon="6.86054">
        <ele>734.40002441406</ele>
        <time>2026-09-02T13:10:44.000Z</time>
      </trkpt>
      <trkpt lat="48.13271" lon="6.86054">
        <ele>734.40002441406</ele>
        <time>2026-09-02T13:10:45.000Z</time>
      </trkpt>
      <trkpt lat="48.13271" lon="6.86054">
        <ele>734.40002441406</ele>
        <time>2026-09-02T13:10:46.000Z</time>
      </trkpt>
      <trkpt lat="48.13271" lon="6.86054">
        <ele>734.59997558594</ele>
        <time>2026-09-02T13:10:47.000Z</time>
      </trkpt>
      <trkpt lat="48.13271" lon="6.86054">
        <ele>734.59997558594</ele>
        <time>2026-09-02T13:10:48.000Z</time>
      </trkpt>
      <trkpt lat="48.13271" lon="6.86054">
        <ele>734.59997558594</ele>
        <time>2026-09-02T13:10:49.000Z</time>
      </trkpt>
      <trkpt lat="48.13271" lon="6.86054">
        <ele>734.59997558594</ele>
        <time>2026-09-02T13:10:50.000Z</time>
      </trkpt>
      <trkpt lat="48.13271" lon="6.86054">
        <ele>734.40002441406</ele>
        <time>2026-09-02T13:10:51.000Z</time>
      </trkpt>
      <trkpt lat="48.13271" lon="6.86054">
        <ele>734.40002441406</ele>
        <time>2026-09-02T13:10:52.000Z</time>
      </trkpt>
      <trkpt lat="48.13271" lon="6.86054">
        <ele>734.40002441406</ele>
        <time>2026-09-02T13:10:53.000Z</time>
      </trkpt>
      <trkpt lat="48.13271" lon="6.86054">
        <ele>734.40002441406</ele>
        <time>2026-09-02T13:10:54.000Z</time>
      </trkpt>
      <trkpt lat="48.13271" lon="6.86054">
        <ele>734.40002441406</ele>
        <time>2026-09-02T13:10:55.000Z</time>
      </trkpt>
      <trkpt lat="48.13273" lon="6.86054">
        <ele>734.40002441406</ele>
        <time>2026-09-02T13:10:56.000Z</time>
      </trkpt>
      <trkpt lat="48.13275" lon="6.86054">
        <ele>734.40002441406</ele>
        <time>2026-09-02T13:10:57.000Z</time>
      </trkpt>
      <trkpt lat="48.13275" lon="6.86055">
        <ele>734.19995117188</ele>
        <time>2026-09-02T13:10:58.000Z</time>
      </trkpt>
      <trkpt lat="48.13276" lon="6.86056">
        <ele>734.19995117188</ele>
        <time>2026-09-02T13:10:59.000Z</time>
      </trkpt>
      <trkpt lat="48.13277" lon="6.86057">
        <ele>734.19995117188</ele>
        <time>2026-09-02T13:11:00.000Z</time>
      </trkpt>
      <trkpt lat="48.13277" lon="6.86058">
        <ele>734.19995117188</ele>
        <time>2026-09-02T13:11:01.000Z</time>
      </trkpt>
      <trkpt lat="48.13278" lon="6.86058">
        <ele>734</ele>
        <time>2026-09-02T13:11:02.000Z</time>
      </trkpt>
      <trkpt lat="48.13279" lon="6.86059">
        <ele>734</ele>
        <time>2026-09-02T13:11:03.000Z</time>
      </trkpt>
      <trkpt lat="48.13279" lon="6.8606">
        <ele>733.80004882812</ele>
        <time>2026-09-02T13:11:04.000Z</time>
      </trkpt>
      <trkpt lat="48.13279" lon="6.86059">
        <ele>733.80004882812</ele>
        <time>2026-09-02T13:11:05.000Z</time>
      </trkpt>
      <trkpt lat="48.13279" lon="6.86059">
        <ele>733.80004882812</ele>
        <time>2026-09-02T13:11:06.000Z</time>
      </trkpt>
      <trkpt lat="48.13279" lon="6.86059">
        <ele>733.80004882812</ele>
        <time>2026-09-02T13:11:07.000Z</time>
      </trkpt>
      <trkpt lat="48.1328" lon="6.8606">
        <ele>733.80004882812</ele>
        <time>2026-09-02T13:11:08.000Z</time>
      </trkpt>
      <trkpt lat="48.1328" lon="6.86061">
        <ele>734</ele>
        <time>2026-09-02T13:11:09.000Z</time>
      </trkpt>
      <trkpt lat="48.1328" lon="6.86061">
        <ele>734</ele>
        <time>2026-09-02T13:11:10.000Z</time>
      </trkpt>
      <trkpt lat="48.1328" lon="6.86061">
        <ele>734</ele>
        <time>2026-09-02T13:11:11.000Z</time>
      </trkpt>
      <trkpt lat="48.1328" lon="6.86061">
        <ele>734</ele>
        <time>2026-09-02T13:11:12.000Z</time>
      </trkpt>
      <trkpt lat="48.1328" lon="6.86061">
        <ele>733.80004882812</ele>
        <time>2026-09-02T13:11:13.000Z</time>
      </trkpt>
      <trkpt lat="48.1328" lon="6.86061">
        <ele>733.80004882812</ele>
        <time>2026-09-02T13:11:14.000Z</time>
      </trkpt>
      <trkpt lat="48.1328" lon="6.86061">
        <ele>734</ele>
        <time>2026-09-02T13:11:15.000Z</time>
      </trkpt>
      <trkpt lat="48.1328" lon="6.86061">
        <ele>734</ele>
        <time>2026-09-02T13:11:16.000Z</time>
      </trkpt>
      <trkpt lat="48.13281" lon="6.86061">
        <ele>733.80004882812</ele>
        <time>2026-09-02T13:11:17.000Z</time>
      </trkpt>
      <trkpt lat="48.13281" lon="6.86062">
        <ele>733.80004882812</ele>
        <time>2026-09-02T13:11:18.000Z</time>
      </trkpt>
      <trkpt lat="48.13281" lon="6.86063">
        <ele>733.80004882812</ele>
        <time>2026-09-02T13:11:19.000Z</time>
      </trkpt>
      <trkpt lat="48.13281" lon="6.86063">
        <ele>733.80004882812</ele>
        <time>2026-09-02T13:11:20.000Z</time>
      </trkpt>
      <trkpt lat="48.13281" lon="6.86063">
        <ele>733.59997558594</ele>
        <time>2026-09-02T13:11:21.000Z</time>
      </trkpt>
      <trkpt lat="48.13281" lon="6.86063">
        <ele>733.59997558594</ele>
        <time>2026-09-02T13:11:22.000Z</time>
      </trkpt>
      <trkpt lat="48.13281" lon="6.86063">
        <ele>733.59997558594</ele>
        <time>2026-09-02T13:11:23.000Z</time>
      </trkpt>
      <trkpt lat="48.13281" lon="6.86063">
        <ele>733.59997558594</ele>
        <time>2026-09-02T13:11:24.000Z</time>
      </trkpt>
      <trkpt lat="48.13281" lon="6.86063">
        <ele>733.59997558594</ele>
        <time>2026-09-02T13:11:25.000Z</time>
      </trkpt>
      <trkpt lat="48.13281" lon="6.86063">
        <ele>733.59997558594</ele>
        <time>2026-09-02T13:11:26.000Z</time>
      </trkpt>
      <trkpt lat="48.13281" lon="6.86063">
        <ele>733.59997558594</ele>
        <time>2026-09-02T13:11:27.000Z</time>
      </trkpt>
      <trkpt lat="48.13281" lon="6.86063">
        <ele>733.59997558594</ele>
        <time>2026-09-02T13:11:28.000Z</time>
      </trkpt>
      <trkpt lat="48.13281" lon="6.86063">
        <ele>733.59997558594</ele>
        <time>2026-09-02T13:11:29.000Z</time>
      </trkpt>
      <trkpt lat="48.13281" lon="6.86063">
        <ele>733.59997558594</ele>
        <time>2026-09-02T13:11:30.000Z</time>
      </trkpt>
      <trkpt lat="48.13281" lon="6.86063">
        <ele>733.59997558594</ele>
        <time>2026-09-02T13:11:31.000Z</time>
      </trkpt>
      <trkpt lat="48.13281" lon="6.86063">
        <ele>733.59997558594</ele>
        <time>2026-09-02T13:11:32.000Z</time>
      </trkpt>
      <trkpt lat="48.13281" lon="6.86063">
        <ele>733.59997558594</ele>
        <time>2026-09-02T13:11:33.000Z</time>
      </trkpt>
      <trkpt lat="48.13281" lon="6.86063">
        <ele>733.80004882812</ele>
        <time>2026-09-02T13:11:34.000Z</time>
      </trkpt>
      <trkpt lat="48.13281" lon="6.86063">
        <ele>733.80004882812</ele>
        <time>2026-09-02T13:11:35.000Z</time>
      </trkpt>
      <trkpt lat="48.13281" lon="6.86063">
        <ele>733.80004882812</ele>
        <time>2026-09-02T13:11:36.000Z</time>
      </trkpt>
      <trkpt lat="48.13281" lon="6.86063">
        <ele>733.80004882812</ele>
        <time>2026-09-02T13:11:37.000Z</time>
      </trkpt>
      <trkpt lat="48.13281" lon="6.86063">
        <ele>733.80004882812</ele>
        <time>2026-09-02T13:11:38.000Z</time>
      </trkpt>
      <trkpt lat="48.13281" lon="6.86063">
        <ele>733.80004882812</ele>
        <time>2026-09-02T13:11:39.000Z</time>
      </trkpt>
      <trkpt lat="48.13281" lon="6.86063">
        <ele>733.59997558594</ele>
        <time>2026-09-02T13:11:40.000Z</time>
      </trkpt>
      <trkpt lat="48.13281" lon="6.86063">
        <ele>733.59997558594</ele>
        <time>2026-09-02T13:11:41.000Z</time>
      </trkpt>
      <trkpt lat="48.13282" lon="6.86064">
        <ele>733.59997558594</ele>
        <time>2026-09-02T13:11:42.000Z</time>
      </trkpt>
      <trkpt lat="48.13282" lon="6.86064">
        <ele>733.59997558594</ele>
        <time>2026-09-02T13:11:43.000Z</time>
      </trkpt>
      <trkpt lat="48.13283" lon="6.86064">
        <ele>733.40002441406</ele>
        <time>2026-09-02T13:11:44.000Z</time>
      </trkpt>
      <trkpt lat="48.13283" lon="6.86064">
        <ele>733.19995117188</ele>
        <time>2026-09-02T13:11:45.000Z</time>
      </trkpt>
      <trkpt lat="48.13283" lon="6.86064">
        <ele>733.19995117188</ele>
        <time>2026-09-02T13:11:46.000Z</time>
      </trkpt>
      <trkpt lat="48.13283" lon="6.86064">
        <ele>733</ele>
        <time>2026-09-02T13:11:47.000Z</time>
      </trkpt>
      <trkpt lat="48.13283" lon="6.86064">
        <ele>733</ele>
        <time>2026-09-02T13:11:48.000Z</time>
      </trkpt>
      <trkpt lat="48.13283" lon="6.86064">
        <ele>733</ele>
        <time>2026-09-02T13:11:49.000Z</time>
      </trkpt>
      <trkpt lat="48.13283" lon="6.86064">
        <ele>733</ele>
        <time>2026-09-02T13:11:50.000Z</time>
      </trkpt>
      <trkpt lat="48.13283" lon="6.86064">
        <ele>733.19995117188</ele>
        <time>2026-09-02T13:11:51.000Z</time>
      </trkpt>
      <trkpt lat="48.13283" lon="6.86064">
        <ele>733.19995117188</ele>
        <time>2026-09-02T13:11:52.000Z</time>
      </trkpt>
      <trkpt lat="48.13283" lon="6.86064">
        <ele>733</ele>
        <time>2026-09-02T13:11:53.000Z</time>
      </trkpt>
      <trkpt lat="48.13283" lon="6.86064">
        <ele>733</ele>
        <time>2026-09-02T13:11:54.000Z</time>
      </trkpt>
      <trkpt lat="48.13283" lon="6.86064">
        <ele>732.80004882812</ele>
        <time>2026-09-02T13:11:55.000Z</time>
      </trkpt>
      <trkpt lat="48.13283" lon="6.86064">
        <ele>732.80004882812</ele>
        <time>2026-09-02T13:11:56.000Z</time>
      </trkpt>
      <trkpt lat="48.13283" lon="6.86064">
        <ele>732.80004882812</ele>
        <time>2026-09-02T13:11:57.000Z</time>
      </trkpt>
      <trkpt lat="48.13283" lon="6.86064">
        <ele>733</ele>
        <time>2026-09-02T13:11:58.000Z</time>
      </trkpt>
      <trkpt lat="48.13283" lon="6.86064">
        <ele>733</ele>
        <time>2026-09-02T13:11:59.000Z</time>
      </trkpt>
      <trkpt lat="48.13283" lon="6.86064">
        <ele>733</ele>
        <time>2026-09-02T13:12:00.000Z</time>
      </trkpt>
      <trkpt lat="48.13283" lon="6.86064">
        <ele>733</ele>
        <time>2026-09-02T13:12:01.000Z</time>
      </trkpt>
      <trkpt lat="48.13283" lon="6.86064">
        <ele>733</ele>
        <time>2026-09-02T13:12:02.000Z</time>
      </trkpt>
      <trkpt lat="48.13283" lon="6.86064">
        <ele>733</ele>
        <time>2026-09-02T13:12:03.000Z</time>
      </trkpt>
      <trkpt lat="48.13283" lon="6.86064">
        <ele>733</ele>
        <time>2026-09-02T13:12:04.000Z</time>
      </trkpt>
      <trkpt lat="48.13283" lon="6.86064">
        <ele>733</ele>
        <time>2026-09-02T13:12:05.000Z</time>
      </trkpt>
      <trkpt lat="48.13283" lon="6.86064">
        <ele>733</ele>
        <time>2026-09-02T13:12:06.000Z</time>
      </trkpt>
      <trkpt lat="48.13283" lon="6.86064">
        <ele>733</ele>
        <time>2026-09-02T13:12:07.000Z</time>
      </trkpt>
      <trkpt lat="48.13283" lon="6.86064">
        <ele>733</ele>
        <time>2026-09-02T13:12:08.000Z</time>
      </trkpt>
      <trkpt lat="48.13283" lon="6.86064">
        <ele>733.19995117188</ele>
        <time>2026-09-02T13:12:09.000Z</time>
      </trkpt>
      <trkpt lat="48.13283" lon="6.86064">
        <ele>733.19995117188</ele>
        <time>2026-09-02T13:12:10.000Z</time>
      </trkpt>
      <trkpt lat="48.13283" lon="6.86064">
        <ele>733.19995117188</ele>
        <time>2026-09-02T13:12:11.000Z</time>
      </trkpt>
      <trkpt lat="48.13283" lon="6.86064">
        <ele>733.19995117188</ele>
        <time>2026-09-02T13:12:12.000Z</time>
      </trkpt>
      <trkpt lat="48.13283" lon="6.86064">
        <ele>733.19995117188</ele>
        <time>2026-09-02T13:12:13.000Z</time>
      </trkpt>
      <trkpt lat="48.13283" lon="6.86064">
        <ele>733</ele>
        <time>2026-09-02T13:12:14.000Z</time>
      </trkpt>
      <trkpt lat="48.13283" lon="6.86064">
        <ele>733</ele>
        <time>2026-09-02T13:12:15.000Z</time>
      </trkpt>
      <trkpt lat="48.13283" lon="6.86064">
        <ele>733.19995117188</ele>
        <time>2026-09-02T13:12:16.000Z</time>
      </trkpt>
      <trkpt lat="48.13283" lon="6.86064">
        <ele>733.19995117188</ele>
        <time>2026-09-02T13:12:17.000Z</time>
      </trkpt>
      <trkpt lat="48.13283" lon="6.86064">
        <ele>733.19995117188</ele>
        <time>2026-09-02T13:12:18.000Z</time>
      </trkpt>
      <trkpt lat="48.13283" lon="6.86064">
        <ele>733.19995117188</ele>
        <time>2026-09-02T13:12:19.000Z</time>
      </trkpt>
      <trkpt lat="48.13283" lon="6.86064">
        <ele>733.19995117188</ele>
        <time>2026-09-02T13:12:20.000Z</time>
      </trkpt>
      <trkpt lat="48.13283" lon="6.86064">
        <ele>733</ele>
        <time>2026-09-02T13:12:21.000Z</time>
      </trkpt>
      <trkpt lat="48.13283" lon="6.86064">
        <ele>733</ele>
        <time>2026-09-02T13:12:22.000Z</time>
      </trkpt>
      <trkpt lat="48.13283" lon="6.86064">
        <ele>733</ele>
        <time>2026-09-02T13:12:23.000Z</time>
      </trkpt>
      <trkpt lat="48.13283" lon="6.86064">
        <ele>733</ele>
        <time>2026-09-02T13:12:24.000Z</time>
      </trkpt>
      <trkpt lat="48.13283" lon="6.86064">
        <ele>733</ele>
        <time>2026-09-02T13:12:25.000Z</time>
      </trkpt>
      <trkpt lat="48.13283" lon="6.86064">
        <ele>733.19995117188</ele>
        <time>2026-09-02T13:12:26.000Z</time>
      </trkpt>
      <trkpt lat="48.13283" lon="6.86064">
        <ele>733.19995117188</ele>
        <time>2026-09-02T13:12:27.000Z</time>
      </trkpt>
      <trkpt lat="48.13283" lon="6.86064">
        <ele>733.19995117188</ele>
        <time>2026-09-02T13:12:28.000Z</time>
      </trkpt>
      <trkpt lat="48.13283" lon="6.86064">
        <ele>733</ele>
        <time>2026-09-02T13:12:29.000Z</time>
      </trkpt>
      <trkpt lat="48.13283" lon="6.86064">
        <ele>733.19995117188</ele>
        <time>2026-09-02T13:12:30.000Z</time>
      </trkpt>
      <trkpt lat="48.13283" lon="6.86064">
        <ele>733</ele>
        <time>2026-09-02T13:12:31.000Z</time>
      </trkpt>
      <trkpt lat="48.13283" lon="6.86064">
        <ele>733.19995117188</ele>
        <time>2026-09-02T13:12:32.000Z</time>
      </trkpt>
      <trkpt lat="48.13283" lon="6.86064">
        <ele>733.19995117188</ele>
        <time>2026-09-02T13:12:33.000Z</time>
      </trkpt>
      <trkpt lat="48.13283" lon="6.86064">
        <ele>733.19995117188</ele>
        <time>2026-09-02T13:12:34.000Z</time>
      </trkpt>
      <trkpt lat="48.13283" lon="6.86064">
        <ele>733.19995117188</ele>
        <time>2026-09-02T13:12:35.000Z</time>
      </trkpt>
      <trkpt lat="48.13282" lon="6.86066">
        <ele>733.19995117188</ele>
        <time>2026-09-02T13:12:36.000Z</time>
      </trkpt>
      <trkpt lat="48.13282" lon="6.86066">
        <ele>733.19995117188</ele>
        <time>2026-09-02T13:12:37.000Z</time>
      </trkpt>
      <trkpt lat="48.13282" lon="6.86066">
        <ele>733.19995117188</ele>
        <time>2026-09-02T13:12:38.000Z</time>
      </trkpt>
      <trkpt lat="48.13282" lon="6.86066">
        <ele>733.19995117188</ele>
        <time>2026-09-02T13:12:39.000Z</time>
      </trkpt>
      <trkpt lat="48.13282" lon="6.86066">
        <ele>733.19995117188</ele>
        <time>2026-09-02T13:12:40.000Z</time>
      </trkpt>
      <trkpt lat="48.13282" lon="6.86066">
        <ele>733.19995117188</ele>
        <time>2026-09-02T13:12:41.000Z</time>
      </trkpt>
      <trkpt lat="48.13282" lon="6.86066">
        <ele>733</ele>
        <time>2026-09-02T13:12:42.000Z</time>
      </trkpt>
      <trkpt lat="48.13282" lon="6.86067">
        <ele>733</ele>
        <time>2026-09-02T13:12:43.000Z</time>
      </trkpt>
      <trkpt lat="48.13282" lon="6.86068">
        <ele>733</ele>
        <time>2026-09-02T13:12:44.000Z</time>
      </trkpt>
      <trkpt lat="48.13282" lon="6.86069">
        <ele>733</ele>
        <time>2026-09-02T13:12:45.000Z</time>
      </trkpt>
      <trkpt lat="48.13282" lon="6.8607">
        <ele>733</ele>
        <time>2026-09-02T13:12:46.000Z</time>
      </trkpt>
      <trkpt lat="48.13282" lon="6.8607">
        <ele>733</ele>
        <time>2026-09-02T13:12:47.000Z</time>
      </trkpt>
      <trkpt lat="48.13282" lon="6.8607">
        <ele>733</ele>
        <time>2026-09-02T13:12:48.000Z</time>
      </trkpt>
      <trkpt lat="48.13282" lon="6.8607">
        <ele>733</ele>
        <time>2026-09-02T13:12:49.000Z</time>
      </trkpt>
      <trkpt lat="48.13282" lon="6.8607">
        <ele>733</ele>
        <time>2026-09-02T13:12:50.000Z</time>
      </trkpt>
      <trkpt lat="48.13282" lon="6.8607">
        <ele>733.19995117188</ele>
        <time>2026-09-02T13:12:51.000Z</time>
      </trkpt>
      <trkpt lat="48.13282" lon="6.8607">
        <ele>733.19995117188</ele>
        <time>2026-09-02T13:12:52.000Z</time>
      </trkpt>
      <trkpt lat="48.13282" lon="6.8607">
        <ele>733.40002441406</ele>
        <time>2026-09-02T13:12:53.000Z</time>
      </trkpt>
      <trkpt lat="48.13281" lon="6.86071">
        <ele>733.40002441406</ele>
        <time>2026-09-02T13:12:54.000Z</time>
      </trkpt>
      <trkpt lat="48.13281" lon="6.86071">
        <ele>733.19995117188</ele>
        <time>2026-09-02T13:12:55.000Z</time>
      </trkpt>
      <trkpt lat="48.13281" lon="6.86071">
        <ele>733.19995117188</ele>
        <time>2026-09-02T13:12:56.000Z</time>
      </trkpt>
      <trkpt lat="48.13281" lon="6.86071">
        <ele>733.19995117188</ele>
        <time>2026-09-02T13:12:57.000Z</time>
      </trkpt>
      <trkpt lat="48.13281" lon="6.86071">
        <ele>733</ele>
        <time>2026-09-02T13:12:58.000Z</time>
      </trkpt>
      <trkpt lat="48.13281" lon="6.86071">
        <ele>733</ele>
        <time>2026-09-02T13:12:59.000Z</time>
      </trkpt>
      <trkpt lat="48.13281" lon="6.86071">
        <ele>733</ele>
        <time>2026-09-02T13:13:00.000Z</time>
      </trkpt>
      <trkpt lat="48.13281" lon="6.86071">
        <ele>733.19995117188</ele>
        <time>2026-09-02T13:13:01.000Z</time>
      </trkpt>
      <trkpt lat="48.13281" lon="6.86071">
        <ele>733.19995117188</ele>
        <time>2026-09-02T13:13:02.000Z</time>
      </trkpt>
      <trkpt lat="48.1328" lon="6.86071">
        <ele>733.40002441406</ele>
        <time>2026-09-02T13:13:03.000Z</time>
      </trkpt>
      <trkpt lat="48.1328" lon="6.86073">
        <ele>733.40002441406</ele>
        <time>2026-09-02T13:13:04.000Z</time>
      </trkpt>
      <trkpt lat="48.1328" lon="6.86074">
        <ele>733.40002441406</ele>
        <time>2026-09-02T13:13:05.000Z</time>
      </trkpt>
      <trkpt lat="48.13281" lon="6.86075">
        <ele>733.40002441406</ele>
        <time>2026-09-02T13:13:06.000Z</time>
      </trkpt>
      <trkpt lat="48.13281" lon="6.86075">
        <ele>733.40002441406</ele>
        <time>2026-09-02T13:13:07.000Z</time>
      </trkpt>
      <trkpt lat="48.13281" lon="6.86076">
        <ele>733.19995117188</ele>
        <time>2026-09-02T13:13:08.000Z</time>
      </trkpt>
      <trkpt lat="48.13281" lon="6.86076">
        <ele>733.19995117188</ele>
        <time>2026-09-02T13:13:09.000Z</time>
      </trkpt>
      <trkpt lat="48.13281" lon="6.86077">
        <ele>733</ele>
        <time>2026-09-02T13:13:10.000Z</time>
      </trkpt>
      <trkpt lat="48.13282" lon="6.86078">
        <ele>732.80004882812</ele>
        <time>2026-09-02T13:13:11.000Z</time>
      </trkpt>
      <trkpt lat="48.13282" lon="6.86079">
        <ele>732.80004882812</ele>
        <time>2026-09-02T13:13:12.000Z</time>
      </trkpt>
      <trkpt lat="48.13282" lon="6.8608">
        <ele>732.59997558594</ele>
        <time>2026-09-02T13:13:13.000Z</time>
      </trkpt>
      <trkpt lat="48.13282" lon="6.8608">
        <ele>732.59997558594</ele>
        <time>2026-09-02T13:13:14.000Z</time>
      </trkpt>
      <trkpt lat="48.13282" lon="6.86081">
        <ele>732.40002441406</ele>
        <time>2026-09-02T13:13:15.000Z</time>
      </trkpt>
      <trkpt lat="48.13282" lon="6.86082">
        <ele>732.40002441406</ele>
        <time>2026-09-02T13:13:16.000Z</time>
      </trkpt>
      <trkpt lat="48.13282" lon="6.86082">
        <ele>732.19995117188</ele>
        <time>2026-09-02T13:13:17.000Z</time>
      </trkpt>
      <trkpt lat="48.13283" lon="6.86083">
        <ele>732</ele>
        <time>2026-09-02T13:13:18.000Z</time>
      </trkpt>
      <trkpt lat="48.13283" lon="6.86084">
        <ele>732</ele>
        <time>2026-09-02T13:13:19.000Z</time>
      </trkpt>
      <trkpt lat="48.13283" lon="6.86085">
        <ele>731.80004882812</ele>
        <time>2026-09-02T13:13:20.000Z</time>
      </trkpt>
      <trkpt lat="48.13283" lon="6.86085">
        <ele>731.80004882812</ele>
        <time>2026-09-02T13:13:21.000Z</time>
      </trkpt>
      <trkpt lat="48.13283" lon="6.86086">
        <ele>731.80004882812</ele>
        <time>2026-09-02T13:13:22.000Z</time>
      </trkpt>
      <trkpt lat="48.13284" lon="6.86087">
        <ele>731.80004882812</ele>
        <time>2026-09-02T13:13:23.000Z</time>
      </trkpt>
      <trkpt lat="48.13284" lon="6.86088">
        <ele>731.59997558594</ele>
        <time>2026-09-02T13:13:24.000Z</time>
      </trkpt>
      <trkpt lat="48.13284" lon="6.86089">
        <ele>731.59997558594</ele>
        <time>2026-09-02T13:13:25.000Z</time>
      </trkpt>
      <trkpt lat="48.13284" lon="6.8609">
        <ele>731.40002441406</ele>
        <time>2026-09-02T13:13:26.000Z</time>
      </trkpt>
      <trkpt lat="48.13285" lon="6.8609">
        <ele>731.19995117188</ele>
        <time>2026-09-02T13:13:27.000Z</time>
      </trkpt>
      <trkpt lat="48.13285" lon="6.86091">
        <ele>731</ele>
        <time>2026-09-02T13:13:28.000Z</time>
      </trkpt>
      <trkpt lat="48.13285" lon="6.86092">
        <ele>730.80004882812</ele>
        <time>2026-09-02T13:13:29.000Z</time>
      </trkpt>
      <trkpt lat="48.13285" lon="6.86092">
        <ele>730.59997558594</ele>
        <time>2026-09-02T13:13:30.000Z</time>
      </trkpt>
      <trkpt lat="48.13286" lon="6.86093">
        <ele>730.40002441406</ele>
        <time>2026-09-02T13:13:31.000Z</time>
      </trkpt>
      <trkpt lat="48.13286" lon="6.86093">
        <ele>730.40002441406</ele>
        <time>2026-09-02T13:13:32.000Z</time>
      </trkpt>
      <trkpt lat="48.13286" lon="6.86094">
        <ele>730.40002441406</ele>
        <time>2026-09-02T13:13:33.000Z</time>
      </trkpt>
      <trkpt lat="48.13286" lon="6.86094">
        <ele>730.40002441406</ele>
        <time>2026-09-02T13:13:34.000Z</time>
      </trkpt>
      <trkpt lat="48.13287" lon="6.86095">
        <ele>730.40002441406</ele>
        <time>2026-09-02T13:13:35.000Z</time>
      </trkpt>
      <trkpt lat="48.13287" lon="6.86095">
        <ele>730.40002441406</ele>
        <time>2026-09-02T13:13:36.000Z</time>
      </trkpt>
      <trkpt lat="48.13288" lon="6.86096">
        <ele>730.40002441406</ele>
        <time>2026-09-02T13:13:37.000Z</time>
      </trkpt>
      <trkpt lat="48.13288" lon="6.86097">
        <ele>730.19995117188</ele>
        <time>2026-09-02T13:13:38.000Z</time>
      </trkpt>
      <trkpt lat="48.13289" lon="6.86097">
        <ele>730.19995117188</ele>
        <time>2026-09-02T13:13:39.000Z</time>
      </trkpt>
      <trkpt lat="48.13289" lon="6.86097">
        <ele>730</ele>
        <time>2026-09-02T13:13:40.000Z</time>
      </trkpt>
      <trkpt lat="48.1329" lon="6.86098">
        <ele>729.80004882812</ele>
        <time>2026-09-02T13:13:41.000Z</time>
      </trkpt>
      <trkpt lat="48.1329" lon="6.86099">
        <ele>729.80004882812</ele>
        <time>2026-09-02T13:13:42.000Z</time>
      </trkpt>
      <trkpt lat="48.13291" lon="6.86099">
        <ele>729.59997558594</ele>
        <time>2026-09-02T13:13:43.000Z</time>
      </trkpt>
      <trkpt lat="48.13291" lon="6.861">
        <ele>729.59997558594</ele>
        <time>2026-09-02T13:13:44.000Z</time>
      </trkpt>
      <trkpt lat="48.13291" lon="6.861">
        <ele>729.59997558594</ele>
        <time>2026-09-02T13:13:45.000Z</time>
      </trkpt>
      <trkpt lat="48.13292" lon="6.86101">
        <ele>729.59997558594</ele>
        <time>2026-09-02T13:13:46.000Z</time>
      </trkpt>
      <trkpt lat="48.13292" lon="6.86101">
        <ele>729.59997558594</ele>
        <time>2026-09-02T13:13:47.000Z</time>
      </trkpt>
      <trkpt lat="48.13292" lon="6.86102">
        <ele>729.40002441406</ele>
        <time>2026-09-02T13:13:48.000Z</time>
      </trkpt>
      <trkpt lat="48.13293" lon="6.86102">
        <ele>729.40002441406</ele>
        <time>2026-09-02T13:13:49.000Z</time>
      </trkpt>
      <trkpt lat="48.13293" lon="6.86102">
        <ele>729.40002441406</ele>
        <time>2026-09-02T13:13:50.000Z</time>
      </trkpt>
      <trkpt lat="48.13293" lon="6.86103">
        <ele>729.40002441406</ele>
        <time>2026-09-02T13:13:51.000Z</time>
      </trkpt>
      <trkpt lat="48.13294" lon="6.86103">
        <ele>729.19995117188</ele>
        <time>2026-09-02T13:13:52.000Z</time>
      </trkpt>
      <trkpt lat="48.13294" lon="6.86104">
        <ele>729.19995117188</ele>
        <time>2026-09-02T13:13:53.000Z</time>
      </trkpt>
      <trkpt lat="48.13295" lon="6.86104">
        <ele>729.40002441406</ele>
        <time>2026-09-02T13:13:54.000Z</time>
      </trkpt>
      <trkpt lat="48.13295" lon="6.86105">
        <ele>729.40002441406</ele>
        <time>2026-09-02T13:13:55.000Z</time>
      </trkpt>
      <trkpt lat="48.13296" lon="6.86105">
        <ele>729.19995117188</ele>
        <time>2026-09-02T13:13:56.000Z</time>
      </trkpt>
      <trkpt lat="48.13296" lon="6.86106">
        <ele>729.19995117188</ele>
        <time>2026-09-02T13:13:57.000Z</time>
      </trkpt>
      <trkpt lat="48.13296" lon="6.86106">
        <ele>729.19995117188</ele>
        <time>2026-09-02T13:13:58.000Z</time>
      </trkpt>
      <trkpt lat="48.13297" lon="6.86106">
        <ele>729.19995117188</ele>
        <time>2026-09-02T13:13:59.000Z</time>
      </trkpt>
      <trkpt lat="48.13297" lon="6.86107">
        <ele>729</ele>
        <time>2026-09-02T13:14:00.000Z</time>
      </trkpt>
      <trkpt lat="48.13297" lon="6.86107">
        <ele>729</ele>
        <time>2026-09-02T13:14:01.000Z</time>
      </trkpt>
      <trkpt lat="48.13298" lon="6.86108">
        <ele>728.80004882812</ele>
        <time>2026-09-02T13:14:02.000Z</time>
      </trkpt>
      <trkpt lat="48.13298" lon="6.86108">
        <ele>728.80004882812</ele>
        <time>2026-09-02T13:14:03.000Z</time>
      </trkpt>
      <trkpt lat="48.13299" lon="6.86109">
        <ele>728.59997558594</ele>
        <time>2026-09-02T13:14:04.000Z</time>
      </trkpt>
      <trkpt lat="48.13299" lon="6.86109">
        <ele>728.59997558594</ele>
        <time>2026-09-02T13:14:05.000Z</time>
      </trkpt>
      <trkpt lat="48.133" lon="6.8611">
        <ele>728.59997558594</ele>
        <time>2026-09-02T13:14:06.000Z</time>
      </trkpt>
      <trkpt lat="48.133" lon="6.8611">
        <ele>728.40002441406</ele>
        <time>2026-09-02T13:14:07.000Z</time>
      </trkpt>
      <trkpt lat="48.133" lon="6.8611">
        <ele>728.40002441406</ele>
        <time>2026-09-02T13:14:08.000Z</time>
      </trkpt>
      <trkpt lat="48.13301" lon="6.86111">
        <ele>728.19995117188</ele>
        <time>2026-09-02T13:14:09.000Z</time>
      </trkpt>
      <trkpt lat="48.13301" lon="6.86111">
        <ele>728.19995117188</ele>
        <time>2026-09-02T13:14:10.000Z</time>
      </trkpt>
      <trkpt lat="48.13302" lon="6.86112">
        <ele>728.19995117188</ele>
        <time>2026-09-02T13:14:11.000Z</time>
      </trkpt>
      <trkpt lat="48.13302" lon="6.86113">
        <ele>728.19995117188</ele>
        <time>2026-09-02T13:14:12.000Z</time>
      </trkpt>
      <trkpt lat="48.13303" lon="6.86113">
        <ele>728</ele>
        <time>2026-09-02T13:14:13.000Z</time>
      </trkpt>
      <trkpt lat="48.13304" lon="6.86114">
        <ele>728</ele>
        <time>2026-09-02T13:14:14.000Z</time>
      </trkpt>
      <trkpt lat="48.13304" lon="6.86114">
        <ele>727.80004882812</ele>
        <time>2026-09-02T13:14:15.000Z</time>
      </trkpt>
      <trkpt lat="48.13305" lon="6.86115">
        <ele>727.59997558594</ele>
        <time>2026-09-02T13:14:16.000Z</time>
      </trkpt>
      <trkpt lat="48.13305" lon="6.86116">
        <ele>727.59997558594</ele>
        <time>2026-09-02T13:14:17.000Z</time>
      </trkpt>
      <trkpt lat="48.13306" lon="6.86116">
        <ele>727.40002441406</ele>
        <time>2026-09-02T13:14:18.000Z</time>
      </trkpt>
      <trkpt lat="48.13306" lon="6.86117">
        <ele>727.40002441406</ele>
        <time>2026-09-02T13:14:19.000Z</time>
      </trkpt>
      <trkpt lat="48.13307" lon="6.86118">
        <ele>727.40002441406</ele>
        <time>2026-09-02T13:14:20.000Z</time>
      </trkpt>
      <trkpt lat="48.13307" lon="6.86118">
        <ele>727.40002441406</ele>
        <time>2026-09-02T13:14:21.000Z</time>
      </trkpt>
      <trkpt lat="48.13308" lon="6.86119">
        <ele>727.40002441406</ele>
        <time>2026-09-02T13:14:22.000Z</time>
      </trkpt>
      <trkpt lat="48.13309" lon="6.86119">
        <ele>727.40002441406</ele>
        <time>2026-09-02T13:14:23.000Z</time>
      </trkpt>
      <trkpt lat="48.13309" lon="6.8612">
        <ele>727.40002441406</ele>
        <time>2026-09-02T13:14:24.000Z</time>
      </trkpt>
      <trkpt lat="48.1331" lon="6.8612">
        <ele>727.40002441406</ele>
        <time>2026-09-02T13:14:25.000Z</time>
      </trkpt>
      <trkpt lat="48.1331" lon="6.86121">
        <ele>727.40002441406</ele>
        <time>2026-09-02T13:14:26.000Z</time>
      </trkpt>
      <trkpt lat="48.13311" lon="6.86121">
        <ele>727.19995117188</ele>
        <time>2026-09-02T13:14:27.000Z</time>
      </trkpt>
      <trkpt lat="48.13311" lon="6.86122">
        <ele>727.19995117188</ele>
        <time>2026-09-02T13:14:28.000Z</time>
      </trkpt>
      <trkpt lat="48.13312" lon="6.86123">
        <ele>727.19995117188</ele>
        <time>2026-09-02T13:14:29.000Z</time>
      </trkpt>
      <trkpt lat="48.13312" lon="6.86124">
        <ele>727</ele>
        <time>2026-09-02T13:14:30.000Z</time>
      </trkpt>
      <trkpt lat="48.13312" lon="6.86124">
        <ele>727</ele>
        <time>2026-09-02T13:14:31.000Z</time>
      </trkpt>
      <trkpt lat="48.13313" lon="6.86125">
        <ele>727</ele>
        <time>2026-09-02T13:14:32.000Z</time>
      </trkpt>
      <trkpt lat="48.13314" lon="6.86126">
        <ele>726.80004882812</ele>
        <time>2026-09-02T13:14:33.000Z</time>
      </trkpt>
      <trkpt lat="48.13314" lon="6.86127">
        <ele>726.59997558594</ele>
        <time>2026-09-02T13:14:34.000Z</time>
      </trkpt>
      <trkpt lat="48.13314" lon="6.86128">
        <ele>726.59997558594</ele>
        <time>2026-09-02T13:14:35.000Z</time>
      </trkpt>
      <trkpt lat="48.13315" lon="6.86128">
        <ele>726.59997558594</ele>
        <time>2026-09-02T13:14:36.000Z</time>
      </trkpt>
      <trkpt lat="48.13315" lon="6.86129">
        <ele>726.59997558594</ele>
        <time>2026-09-02T13:14:37.000Z</time>
      </trkpt>
      <trkpt lat="48.13316" lon="6.8613">
        <ele>726.59997558594</ele>
        <time>2026-09-02T13:14:38.000Z</time>
      </trkpt>
      <trkpt lat="48.13316" lon="6.8613">
        <ele>726.59997558594</ele>
        <time>2026-09-02T13:14:39.000Z</time>
      </trkpt>
      <trkpt lat="48.13317" lon="6.86131">
        <ele>726.59997558594</ele>
        <time>2026-09-02T13:14:40.000Z</time>
      </trkpt>
      <trkpt lat="48.13317" lon="6.86131">
        <ele>726.59997558594</ele>
        <time>2026-09-02T13:14:41.000Z</time>
      </trkpt>
      <trkpt lat="48.13317" lon="6.86131">
        <ele>726.40002441406</ele>
        <time>2026-09-02T13:14:42.000Z</time>
      </trkpt>
      <trkpt lat="48.13317" lon="6.86131">
        <ele>726.40002441406</ele>
        <time>2026-09-02T13:14:43.000Z</time>
      </trkpt>
      <trkpt lat="48.13317" lon="6.86131">
        <ele>726.40002441406</ele>
        <time>2026-09-02T13:14:44.000Z</time>
      </trkpt>
      <trkpt lat="48.13317" lon="6.86131">
        <ele>726.40002441406</ele>
        <time>2026-09-02T13:14:45.000Z</time>
      </trkpt>
      <trkpt lat="48.13317" lon="6.86131">
        <ele>726.40002441406</ele>
        <time>2026-09-02T13:14:46.000Z</time>
      </trkpt>
      <trkpt lat="48.13318" lon="6.86132">
        <ele>726.40002441406</ele>
        <time>2026-09-02T13:14:47.000Z</time>
      </trkpt>
      <trkpt lat="48.13318" lon="6.86133">
        <ele>726.40002441406</ele>
        <time>2026-09-02T13:14:48.000Z</time>
      </trkpt>
      <trkpt lat="48.13318" lon="6.86133">
        <ele>726.40002441406</ele>
        <time>2026-09-02T13:14:49.000Z</time>
      </trkpt>
      <trkpt lat="48.13319" lon="6.86134">
        <ele>726.40002441406</ele>
        <time>2026-09-02T13:14:50.000Z</time>
      </trkpt>
      <trkpt lat="48.13319" lon="6.86134">
        <ele>726.40002441406</ele>
        <time>2026-09-02T13:14:51.000Z</time>
      </trkpt>
      <trkpt lat="48.13319" lon="6.86134">
        <ele>726.40002441406</ele>
        <time>2026-09-02T13:14:52.000Z</time>
      </trkpt>
      <trkpt lat="48.1332" lon="6.86135">
        <ele>726.19995117188</ele>
        <time>2026-09-02T13:14:53.000Z</time>
      </trkpt>
      <trkpt lat="48.1332" lon="6.86135">
        <ele>726</ele>
        <time>2026-09-02T13:14:54.000Z</time>
      </trkpt>
      <trkpt lat="48.13321" lon="6.86135">
        <ele>725.80004882812</ele>
        <time>2026-09-02T13:14:55.000Z</time>
      </trkpt>
      <trkpt lat="48.13321" lon="6.86136">
        <ele>725.59997558594</ele>
        <time>2026-09-02T13:14:56.000Z</time>
      </trkpt>
      <trkpt lat="48.13322" lon="6.86136">
        <ele>725.59997558594</ele>
        <time>2026-09-02T13:14:57.000Z</time>
      </trkpt>
      <trkpt lat="48.13323" lon="6.86137">
        <ele>725.40002441406</ele>
        <time>2026-09-02T13:14:58.000Z</time>
      </trkpt>
      <trkpt lat="48.13323" lon="6.86137">
        <ele>725.40002441406</ele>
        <time>2026-09-02T13:14:59.000Z</time>
      </trkpt>
      <trkpt lat="48.13324" lon="6.86138">
        <ele>725.40002441406</ele>
        <time>2026-09-02T13:15:00.000Z</time>
      </trkpt>
      <trkpt lat="48.13324" lon="6.86138">
        <ele>725.40002441406</ele>
        <time>2026-09-02T13:15:01.000Z</time>
      </trkpt>
      <trkpt lat="48.13325" lon="6.86139">
        <ele>725.19995117188</ele>
        <time>2026-09-02T13:15:02.000Z</time>
      </trkpt>
      <trkpt lat="48.13326" lon="6.86139">
        <ele>725.19995117188</ele>
        <time>2026-09-02T13:15:03.000Z</time>
      </trkpt>
      <trkpt lat="48.13326" lon="6.8614">
        <ele>725</ele>
        <time>2026-09-02T13:15:04.000Z</time>
      </trkpt>
      <trkpt lat="48.13327" lon="6.8614">
        <ele>725</ele>
        <time>2026-09-02T13:15:05.000Z</time>
      </trkpt>
      <trkpt lat="48.13327" lon="6.8614">
        <ele>725</ele>
        <time>2026-09-02T13:15:06.000Z</time>
      </trkpt>
      <trkpt lat="48.13328" lon="6.86141">
        <ele>725</ele>
        <time>2026-09-02T13:15:07.000Z</time>
      </trkpt>
      <trkpt lat="48.13328" lon="6.86141">
        <ele>724.80004882812</ele>
        <time>2026-09-02T13:15:08.000Z</time>
      </trkpt>
      <trkpt lat="48.13329" lon="6.86141">
        <ele>724.80004882812</ele>
        <time>2026-09-02T13:15:09.000Z</time>
      </trkpt>
      <trkpt lat="48.1333" lon="6.86141">
        <ele>724.80004882812</ele>
        <time>2026-09-02T13:15:10.000Z</time>
      </trkpt>
      <trkpt lat="48.1333" lon="6.86141">
        <ele>724.80004882812</ele>
        <time>2026-09-02T13:15:11.000Z</time>
      </trkpt>
      <trkpt lat="48.13331" lon="6.86141">
        <ele>724.80004882812</ele>
        <time>2026-09-02T13:15:12.000Z</time>
      </trkpt>
      <trkpt lat="48.13331" lon="6.86141">
        <ele>724.80004882812</ele>
        <time>2026-09-02T13:15:13.000Z</time>
      </trkpt>
      <trkpt lat="48.13332" lon="6.86141">
        <ele>724.59997558594</ele>
        <time>2026-09-02T13:15:14.000Z</time>
      </trkpt>
      <trkpt lat="48.13333" lon="6.86141">
        <ele>724.59997558594</ele>
        <time>2026-09-02T13:15:15.000Z</time>
      </trkpt>
      <trkpt lat="48.13333" lon="6.86141">
        <ele>724.59997558594</ele>
        <time>2026-09-02T13:15:16.000Z</time>
      </trkpt>
      <trkpt lat="48.13334" lon="6.86141">
        <ele>724.59997558594</ele>
        <time>2026-09-02T13:15:17.000Z</time>
      </trkpt>
      <trkpt lat="48.13335" lon="6.8614">
        <ele>724.40002441406</ele>
        <time>2026-09-02T13:15:18.000Z</time>
      </trkpt>
      <trkpt lat="48.13335" lon="6.8614">
        <ele>724.40002441406</ele>
        <time>2026-09-02T13:15:19.000Z</time>
      </trkpt>
      <trkpt lat="48.13336" lon="6.8614">
        <ele>724.40002441406</ele>
        <time>2026-09-02T13:15:20.000Z</time>
      </trkpt>
      <trkpt lat="48.13337" lon="6.8614">
        <ele>724.19995117188</ele>
        <time>2026-09-02T13:15:21.000Z</time>
      </trkpt>
      <trkpt lat="48.13337" lon="6.8614">
        <ele>724.19995117188</ele>
        <time>2026-09-02T13:15:22.000Z</time>
      </trkpt>
      <trkpt lat="48.13338" lon="6.86139">
        <ele>724</ele>
        <time>2026-09-02T13:15:23.000Z</time>
      </trkpt>
      <trkpt lat="48.13338" lon="6.86139">
        <ele>723.80004882812</ele>
        <time>2026-09-02T13:15:24.000Z</time>
      </trkpt>
      <trkpt lat="48.13339" lon="6.86139">
        <ele>723.59997558594</ele>
        <time>2026-09-02T13:15:25.000Z</time>
      </trkpt>
      <trkpt lat="48.1334" lon="6.86139">
        <ele>723.59997558594</ele>
        <time>2026-09-02T13:15:26.000Z</time>
      </trkpt>
      <trkpt lat="48.13341" lon="6.86138">
        <ele>723.40002441406</ele>
        <time>2026-09-02T13:15:27.000Z</time>
      </trkpt>
      <trkpt lat="48.13341" lon="6.86138">
        <ele>723.40002441406</ele>
        <time>2026-09-02T13:15:28.000Z</time>
      </trkpt>
      <trkpt lat="48.13342" lon="6.86138">
        <ele>723.40002441406</ele>
        <time>2026-09-02T13:15:29.000Z</time>
      </trkpt>
      <trkpt lat="48.13343" lon="6.86137">
        <ele>723.40002441406</ele>
        <time>2026-09-02T13:15:30.000Z</time>
      </trkpt>
      <trkpt lat="48.13344" lon="6.86137">
        <ele>723.19995117188</ele>
        <time>2026-09-02T13:15:31.000Z</time>
      </trkpt>
      <trkpt lat="48.13345" lon="6.86137">
        <ele>723.19995117188</ele>
        <time>2026-09-02T13:15:32.000Z</time>
      </trkpt>
      <trkpt lat="48.13345" lon="6.86137">
        <ele>723.19995117188</ele>
        <time>2026-09-02T13:15:33.000Z</time>
      </trkpt>
      <trkpt lat="48.13346" lon="6.86136">
        <ele>723</ele>
        <time>2026-09-02T13:15:34.000Z</time>
      </trkpt>
      <trkpt lat="48.13346" lon="6.86136">
        <ele>723</ele>
        <time>2026-09-02T13:15:35.000Z</time>
      </trkpt>
      <trkpt lat="48.13347" lon="6.86136">
        <ele>723</ele>
        <time>2026-09-02T13:15:36.000Z</time>
      </trkpt>
      <trkpt lat="48.13348" lon="6.86136">
        <ele>723</ele>
        <time>2026-09-02T13:15:37.000Z</time>
      </trkpt>
      <trkpt lat="48.13349" lon="6.86135">
        <ele>722.80004882812</ele>
        <time>2026-09-02T13:15:38.000Z</time>
      </trkpt>
      <trkpt lat="48.1335" lon="6.86135">
        <ele>722.80004882812</ele>
        <time>2026-09-02T13:15:39.000Z</time>
      </trkpt>
      <trkpt lat="48.1335" lon="6.86135">
        <ele>722.80004882812</ele>
        <time>2026-09-02T13:15:40.000Z</time>
      </trkpt>
      <trkpt lat="48.13351" lon="6.86135">
        <ele>722.80004882812</ele>
        <time>2026-09-02T13:15:41.000Z</time>
      </trkpt>
      <trkpt lat="48.13352" lon="6.86134">
        <ele>722.59997558594</ele>
        <time>2026-09-02T13:15:42.000Z</time>
      </trkpt>
      <trkpt lat="48.13353" lon="6.86134">
        <ele>722.40002441406</ele>
        <time>2026-09-02T13:15:43.000Z</time>
      </trkpt>
      <trkpt lat="48.13353" lon="6.86133">
        <ele>722.40002441406</ele>
        <time>2026-09-02T13:15:44.000Z</time>
      </trkpt>
      <trkpt lat="48.13354" lon="6.86133">
        <ele>722.19995117188</ele>
        <time>2026-09-02T13:15:45.000Z</time>
      </trkpt>
      <trkpt lat="48.13354" lon="6.86132">
        <ele>722.19995117188</ele>
        <time>2026-09-02T13:15:46.000Z</time>
      </trkpt>
      <trkpt lat="48.13355" lon="6.86132">
        <ele>722</ele>
        <time>2026-09-02T13:15:47.000Z</time>
      </trkpt>
      <trkpt lat="48.13355" lon="6.86132">
        <ele>722</ele>
        <time>2026-09-02T13:15:48.000Z</time>
      </trkpt>
      <trkpt lat="48.13356" lon="6.86132">
        <ele>722</ele>
        <time>2026-09-02T13:15:49.000Z</time>
      </trkpt>
      <trkpt lat="48.13356" lon="6.86132">
        <ele>721.80004882812</ele>
        <time>2026-09-02T13:15:50.000Z</time>
      </trkpt>
      <trkpt lat="48.13357" lon="6.86131">
        <ele>721.80004882812</ele>
        <time>2026-09-02T13:15:51.000Z</time>
      </trkpt>
      <trkpt lat="48.13357" lon="6.86131">
        <ele>721.59997558594</ele>
        <time>2026-09-02T13:15:52.000Z</time>
      </trkpt>
      <trkpt lat="48.13358" lon="6.8613">
        <ele>721.59997558594</ele>
        <time>2026-09-02T13:15:53.000Z</time>
      </trkpt>
      <trkpt lat="48.13358" lon="6.8613">
        <ele>721.40002441406</ele>
        <time>2026-09-02T13:15:54.000Z</time>
      </trkpt>
      <trkpt lat="48.13359" lon="6.86129">
        <ele>721.19995117188</ele>
        <time>2026-09-02T13:15:55.000Z</time>
      </trkpt>
      <trkpt lat="48.1336" lon="6.86128">
        <ele>721.19995117188</ele>
        <time>2026-09-02T13:15:56.000Z</time>
      </trkpt>
      <trkpt lat="48.1336" lon="6.86128">
        <ele>721</ele>
        <time>2026-09-02T13:15:57.000Z</time>
      </trkpt>
      <trkpt lat="48.13361" lon="6.86127">
        <ele>720.80004882812</ele>
        <time>2026-09-02T13:15:58.000Z</time>
      </trkpt>
      <trkpt lat="48.13362" lon="6.86126">
        <ele>720.80004882812</ele>
        <time>2026-09-02T13:15:59.000Z</time>
      </trkpt>
      <trkpt lat="48.13362" lon="6.86126">
        <ele>720.80004882812</ele>
        <time>2026-09-02T13:16:00.000Z</time>
      </trkpt>
      <trkpt lat="48.13363" lon="6.86125">
        <ele>720.59997558594</ele>
        <time>2026-09-02T13:16:01.000Z</time>
      </trkpt>
      <trkpt lat="48.13364" lon="6.86124">
        <ele>720.59997558594</ele>
        <time>2026-09-02T13:16:02.000Z</time>
      </trkpt>
      <trkpt lat="48.13364" lon="6.86123">
        <ele>720.59997558594</ele>
        <time>2026-09-02T13:16:03.000Z</time>
      </trkpt>
      <trkpt lat="48.13365" lon="6.86123">
        <ele>720.40002441406</ele>
        <time>2026-09-02T13:16:04.000Z</time>
      </trkpt>
      <trkpt lat="48.13365" lon="6.86122">
        <ele>720.40002441406</ele>
        <time>2026-09-02T13:16:05.000Z</time>
      </trkpt>
      <trkpt lat="48.13366" lon="6.86121">
        <ele>720.19995117188</ele>
        <time>2026-09-02T13:16:06.000Z</time>
      </trkpt>
      <trkpt lat="48.13366" lon="6.86121">
        <ele>720</ele>
        <time>2026-09-02T13:16:07.000Z</time>
      </trkpt>
      <trkpt lat="48.13366" lon="6.86121">
        <ele>720</ele>
        <time>2026-09-02T13:16:08.000Z</time>
      </trkpt>
      <trkpt lat="48.13367" lon="6.86121">
        <ele>719.80004882812</ele>
        <time>2026-09-02T13:16:09.000Z</time>
      </trkpt>
      <trkpt lat="48.13367" lon="6.86121">
        <ele>719.80004882812</ele>
        <time>2026-09-02T13:16:10.000Z</time>
      </trkpt>
      <trkpt lat="48.13367" lon="6.86121">
        <ele>719.80004882812</ele>
        <time>2026-09-02T13:16:11.000Z</time>
      </trkpt>
      <trkpt lat="48.13367" lon="6.86121">
        <ele>720</ele>
        <time>2026-09-02T13:16:12.000Z</time>
      </trkpt>
      <trkpt lat="48.13367" lon="6.86121">
        <ele>720</ele>
        <time>2026-09-02T13:16:13.000Z</time>
      </trkpt>
      <trkpt lat="48.13367" lon="6.86121">
        <ele>720</ele>
        <time>2026-09-02T13:16:14.000Z</time>
      </trkpt>
      <trkpt lat="48.13367" lon="6.8612">
        <ele>719.80004882812</ele>
        <time>2026-09-02T13:16:15.000Z</time>
      </trkpt>
      <trkpt lat="48.13368" lon="6.8612">
        <ele>719.80004882812</ele>
        <time>2026-09-02T13:16:16.000Z</time>
      </trkpt>
      <trkpt lat="48.13368" lon="6.86119">
        <ele>719.59997558594</ele>
        <time>2026-09-02T13:16:17.000Z</time>
      </trkpt>
      <trkpt lat="48.13369" lon="6.86118">
        <ele>719.59997558594</ele>
        <time>2026-09-02T13:16:18.000Z</time>
      </trkpt>
      <trkpt lat="48.13369" lon="6.86118">
        <ele>719.59997558594</ele>
        <time>2026-09-02T13:16:19.000Z</time>
      </trkpt>
      <trkpt lat="48.1337" lon="6.86117">
        <ele>719.59997558594</ele>
        <time>2026-09-02T13:16:20.000Z</time>
      </trkpt>
      <trkpt lat="48.1337" lon="6.86116">
        <ele>719.40002441406</ele>
        <time>2026-09-02T13:16:21.000Z</time>
      </trkpt>
      <trkpt lat="48.13371" lon="6.86116">
        <ele>719.40002441406</ele>
        <time>2026-09-02T13:16:22.000Z</time>
      </trkpt>
      <trkpt lat="48.13371" lon="6.86115">
        <ele>719.40002441406</ele>
        <time>2026-09-02T13:16:23.000Z</time>
      </trkpt>
      <trkpt lat="48.13372" lon="6.86114">
        <ele>719.19995117188</ele>
        <time>2026-09-02T13:16:24.000Z</time>
      </trkpt>
      <trkpt lat="48.13372" lon="6.86114">
        <ele>719.19995117188</ele>
        <time>2026-09-02T13:16:25.000Z</time>
      </trkpt>
      <trkpt lat="48.13373" lon="6.86113">
        <ele>719.19995117188</ele>
        <time>2026-09-02T13:16:26.000Z</time>
      </trkpt>
      <trkpt lat="48.13373" lon="6.86113">
        <ele>719.19995117188</ele>
        <time>2026-09-02T13:16:27.000Z</time>
      </trkpt>
      <trkpt lat="48.13373" lon="6.86113">
        <ele>719.19995117188</ele>
        <time>2026-09-02T13:16:28.000Z</time>
      </trkpt>
      <trkpt lat="48.13373" lon="6.86113">
        <ele>719.19995117188</ele>
        <time>2026-09-02T13:16:29.000Z</time>
      </trkpt>
      <trkpt lat="48.13373" lon="6.86113">
        <ele>719.19995117188</ele>
        <time>2026-09-02T13:16:30.000Z</time>
      </trkpt>
      <trkpt lat="48.13373" lon="6.86113">
        <ele>719.19995117188</ele>
        <time>2026-09-02T13:16:31.000Z</time>
      </trkpt>
      <trkpt lat="48.13373" lon="6.86113">
        <ele>719.19995117188</ele>
        <time>2026-09-02T13:16:32.000Z</time>
      </trkpt>
      <trkpt lat="48.13373" lon="6.86113">
        <ele>719.19995117188</ele>
        <time>2026-09-02T13:16:33.000Z</time>
      </trkpt>
      <trkpt lat="48.13373" lon="6.86113">
        <ele>719.19995117188</ele>
        <time>2026-09-02T13:16:34.000Z</time>
      </trkpt>
      <trkpt lat="48.13373" lon="6.86113">
        <ele>719.40002441406</ele>
        <time>2026-09-02T13:16:35.000Z</time>
      </trkpt>
      <trkpt lat="48.13373" lon="6.86113">
        <ele>719.40002441406</ele>
        <time>2026-09-02T13:16:36.000Z</time>
      </trkpt>
      <trkpt lat="48.13373" lon="6.86113">
        <ele>719.40002441406</ele>
        <time>2026-09-02T13:16:37.000Z</time>
      </trkpt>
      <trkpt lat="48.13374" lon="6.86112">
        <ele>719.19995117188</ele>
        <time>2026-09-02T13:16:38.000Z</time>
      </trkpt>
      <trkpt lat="48.13374" lon="6.86112">
        <ele>719</ele>
        <time>2026-09-02T13:16:39.000Z</time>
      </trkpt>
      <trkpt lat="48.13375" lon="6.86111">
        <ele>718.80004882812</ele>
        <time>2026-09-02T13:16:40.000Z</time>
      </trkpt>
      <trkpt lat="48.13375" lon="6.86111">
        <ele>718.80004882812</ele>
        <time>2026-09-02T13:16:41.000Z</time>
      </trkpt>
      <trkpt lat="48.13376" lon="6.8611">
        <ele>718.80004882812</ele>
        <time>2026-09-02T13:16:42.000Z</time>
      </trkpt>
      <trkpt lat="48.13377" lon="6.8611">
        <ele>718.80004882812</ele>
        <time>2026-09-02T13:16:43.000Z</time>
      </trkpt>
      <trkpt lat="48.13377" lon="6.8611">
        <ele>718.80004882812</ele>
        <time>2026-09-02T13:16:44.000Z</time>
      </trkpt>
      <trkpt lat="48.13378" lon="6.86109">
        <ele>718.80004882812</ele>
        <time>2026-09-02T13:16:45.000Z</time>
      </trkpt>
      <trkpt lat="48.13379" lon="6.86109">
        <ele>718.59997558594</ele>
        <time>2026-09-02T13:16:46.000Z</time>
      </trkpt>
      <trkpt lat="48.13379" lon="6.86108">
        <ele>718.59997558594</ele>
        <time>2026-09-02T13:16:47.000Z</time>
      </trkpt>
      <trkpt lat="48.1338" lon="6.86108">
        <ele>718.59997558594</ele>
        <time>2026-09-02T13:16:48.000Z</time>
      </trkpt>
      <trkpt lat="48.13381" lon="6.86108">
        <ele>718.40002441406</ele>
        <time>2026-09-02T13:16:49.000Z</time>
      </trkpt>
      <trkpt lat="48.13382" lon="6.86108">
        <ele>718.40002441406</ele>
        <time>2026-09-02T13:16:50.000Z</time>
      </trkpt>
      <trkpt lat="48.13382" lon="6.86108">
        <ele>718.19995117188</ele>
        <time>2026-09-02T13:16:51.000Z</time>
      </trkpt>
      <trkpt lat="48.13383" lon="6.86108">
        <ele>718.19995117188</ele>
        <time>2026-09-02T13:16:52.000Z</time>
      </trkpt>
      <trkpt lat="48.13383" lon="6.86108">
        <ele>718.19995117188</ele>
        <time>2026-09-02T13:16:53.000Z</time>
      </trkpt>
      <trkpt lat="48.13384" lon="6.86108">
        <ele>718.19995117188</ele>
        <time>2026-09-02T13:16:54.000Z</time>
      </trkpt>
      <trkpt lat="48.13385" lon="6.86108">
        <ele>718.19995117188</ele>
        <time>2026-09-02T13:16:55.000Z</time>
      </trkpt>
      <trkpt lat="48.13385" lon="6.86108">
        <ele>718.19995117188</ele>
        <time>2026-09-02T13:16:56.000Z</time>
      </trkpt>
      <trkpt lat="48.13386" lon="6.86108">
        <ele>718</ele>
        <time>2026-09-02T13:16:57.000Z</time>
      </trkpt>
      <trkpt lat="48.13387" lon="6.86108">
        <ele>717.80004882812</ele>
        <time>2026-09-02T13:16:58.000Z</time>
      </trkpt>
      <trkpt lat="48.13387" lon="6.86108">
        <ele>717.80004882812</ele>
        <time>2026-09-02T13:16:59.000Z</time>
      </trkpt>
      <trkpt lat="48.13388" lon="6.86108">
        <ele>717.59997558594</ele>
        <time>2026-09-02T13:17:00.000Z</time>
      </trkpt>
      <trkpt lat="48.13389" lon="6.86108">
        <ele>717.19995117188</ele>
        <time>2026-09-02T13:17:01.000Z</time>
      </trkpt>
      <trkpt lat="48.13389" lon="6.86108">
        <ele>717.19995117188</ele>
        <time>2026-09-02T13:17:02.000Z</time>
      </trkpt>
      <trkpt lat="48.1339" lon="6.86109">
        <ele>717</ele>
        <time>2026-09-02T13:17:03.000Z</time>
      </trkpt>
      <trkpt lat="48.1339" lon="6.86109">
        <ele>717</ele>
        <time>2026-09-02T13:17:04.000Z</time>
      </trkpt>
      <trkpt lat="48.1339" lon="6.86109">
        <ele>716.80004882812</ele>
        <time>2026-09-02T13:17:05.000Z</time>
      </trkpt>
      <trkpt lat="48.13391" lon="6.86109">
        <ele>716.80004882812</ele>
        <time>2026-09-02T13:17:06.000Z</time>
      </trkpt>
      <trkpt lat="48.13391" lon="6.86109">
        <ele>716.80004882812</ele>
        <time>2026-09-02T13:17:07.000Z</time>
      </trkpt>
      <trkpt lat="48.13392" lon="6.8611">
        <ele>716.59997558594</ele>
        <time>2026-09-02T13:17:08.000Z</time>
      </trkpt>
      <trkpt lat="48.13392" lon="6.8611">
        <ele>716.59997558594</ele>
        <time>2026-09-02T13:17:09.000Z</time>
      </trkpt>
      <trkpt lat="48.13393" lon="6.8611">
        <ele>716.59997558594</ele>
        <time>2026-09-02T13:17:10.000Z</time>
      </trkpt>
      <trkpt lat="48.13393" lon="6.8611">
        <ele>716.40002441406</ele>
        <time>2026-09-02T13:17:11.000Z</time>
      </trkpt>
      <trkpt lat="48.13394" lon="6.8611">
        <ele>716.40002441406</ele>
        <time>2026-09-02T13:17:12.000Z</time>
      </trkpt>
      <trkpt lat="48.13394" lon="6.8611">
        <ele>716.59997558594</ele>
        <time>2026-09-02T13:17:13.000Z</time>
      </trkpt>
      <trkpt lat="48.13395" lon="6.8611">
        <ele>716.59997558594</ele>
        <time>2026-09-02T13:17:14.000Z</time>
      </trkpt>
      <trkpt lat="48.13395" lon="6.8611">
        <ele>716.59997558594</ele>
        <time>2026-09-02T13:17:15.000Z</time>
      </trkpt>
      <trkpt lat="48.13396" lon="6.86111">
        <ele>716.40002441406</ele>
        <time>2026-09-02T13:17:16.000Z</time>
      </trkpt>
      <trkpt lat="48.13396" lon="6.8611">
        <ele>716.40002441406</ele>
        <time>2026-09-02T13:17:17.000Z</time>
      </trkpt>
      <trkpt lat="48.13397" lon="6.8611">
        <ele>716.19995117188</ele>
        <time>2026-09-02T13:17:18.000Z</time>
      </trkpt>
      <trkpt lat="48.13398" lon="6.8611">
        <ele>716.19995117188</ele>
        <time>2026-09-02T13:17:19.000Z</time>
      </trkpt>
      <trkpt lat="48.13399" lon="6.8611">
        <ele>716</ele>
        <time>2026-09-02T13:17:20.000Z</time>
      </trkpt>
      <trkpt lat="48.13399" lon="6.8611">
        <ele>716</ele>
        <time>2026-09-02T13:17:21.000Z</time>
      </trkpt>
      <trkpt lat="48.134" lon="6.86109">
        <ele>716</ele>
        <time>2026-09-02T13:17:22.000Z</time>
      </trkpt>
      <trkpt lat="48.13401" lon="6.86109">
        <ele>716</ele>
        <time>2026-09-02T13:17:23.000Z</time>
      </trkpt>
      <trkpt lat="48.13402" lon="6.86109">
        <ele>715.80004882812</ele>
        <time>2026-09-02T13:17:24.000Z</time>
      </trkpt>
      <trkpt lat="48.13402" lon="6.86109">
        <ele>715.80004882812</ele>
        <time>2026-09-02T13:17:25.000Z</time>
      </trkpt>
      <trkpt lat="48.13403" lon="6.86109">
        <ele>715.59997558594</ele>
        <time>2026-09-02T13:17:26.000Z</time>
      </trkpt>
      <trkpt lat="48.13403" lon="6.86109">
        <ele>715.40002441406</ele>
        <time>2026-09-02T13:17:27.000Z</time>
      </trkpt>
      <trkpt lat="48.13403" lon="6.86109">
        <ele>715.40002441406</ele>
        <time>2026-09-02T13:17:28.000Z</time>
      </trkpt>
      <trkpt lat="48.13403" lon="6.86109">
        <ele>715.40002441406</ele>
        <time>2026-09-02T13:17:29.000Z</time>
      </trkpt>
      <trkpt lat="48.13403" lon="6.86109">
        <ele>715.40002441406</ele>
        <time>2026-09-02T13:17:30.000Z</time>
      </trkpt>
      <trkpt lat="48.13403" lon="6.86109">
        <ele>715.40002441406</ele>
        <time>2026-09-02T13:17:31.000Z</time>
      </trkpt>
      <trkpt lat="48.13404" lon="6.86108">
        <ele>715.40002441406</ele>
        <time>2026-09-02T13:17:32.000Z</time>
      </trkpt>
      <trkpt lat="48.13405" lon="6.86108">
        <ele>715.40002441406</ele>
        <time>2026-09-02T13:17:33.000Z</time>
      </trkpt>
      <trkpt lat="48.13405" lon="6.86108">
        <ele>715.19995117188</ele>
        <time>2026-09-02T13:17:34.000Z</time>
      </trkpt>
      <trkpt lat="48.13406" lon="6.86107">
        <ele>715.19995117188</ele>
        <time>2026-09-02T13:17:35.000Z</time>
      </trkpt>
      <trkpt lat="48.13407" lon="6.86107">
        <ele>715</ele>
        <time>2026-09-02T13:17:36.000Z</time>
      </trkpt>
      <trkpt lat="48.13407" lon="6.86107">
        <ele>715</ele>
        <time>2026-09-02T13:17:37.000Z</time>
      </trkpt>
      <trkpt lat="48.13407" lon="6.86107">
        <ele>715</ele>
        <time>2026-09-02T13:17:38.000Z</time>
      </trkpt>
      <trkpt lat="48.13407" lon="6.86107">
        <ele>715</ele>
        <time>2026-09-02T13:17:39.000Z</time>
      </trkpt>
      <trkpt lat="48.13407" lon="6.86107">
        <ele>715.19995117188</ele>
        <time>2026-09-02T13:17:40.000Z</time>
      </trkpt>
      <trkpt lat="48.13407" lon="6.86107">
        <ele>715</ele>
        <time>2026-09-02T13:17:41.000Z</time>
      </trkpt>
      <trkpt lat="48.13407" lon="6.86107">
        <ele>715</ele>
        <time>2026-09-02T13:17:42.000Z</time>
      </trkpt>
      <trkpt lat="48.13407" lon="6.86107">
        <ele>714.80004882812</ele>
        <time>2026-09-02T13:17:43.000Z</time>
      </trkpt>
      <trkpt lat="48.13407" lon="6.86107">
        <ele>714.80004882812</ele>
        <time>2026-09-02T13:17:44.000Z</time>
      </trkpt>
      <trkpt lat="48.13408" lon="6.86106">
        <ele>714.80004882812</ele>
        <time>2026-09-02T13:17:45.000Z</time>
      </trkpt>
      <trkpt lat="48.13409" lon="6.86106">
        <ele>714.59997558594</ele>
        <time>2026-09-02T13:17:46.000Z</time>
      </trkpt>
      <trkpt lat="48.1341" lon="6.86106">
        <ele>714.40002441406</ele>
        <time>2026-09-02T13:17:47.000Z</time>
      </trkpt>
      <trkpt lat="48.1341" lon="6.86106">
        <ele>714.40002441406</ele>
        <time>2026-09-02T13:17:48.000Z</time>
      </trkpt>
      <trkpt lat="48.1341" lon="6.86105">
        <ele>714.19995117188</ele>
        <time>2026-09-02T13:17:49.000Z</time>
      </trkpt>
      <trkpt lat="48.13411" lon="6.86105">
        <ele>714</ele>
        <time>2026-09-02T13:17:50.000Z</time>
      </trkpt>
      <trkpt lat="48.13411" lon="6.86105">
        <ele>714</ele>
        <time>2026-09-02T13:17:51.000Z</time>
      </trkpt>
      <trkpt lat="48.13412" lon="6.86104">
        <ele>714</ele>
        <time>2026-09-02T13:17:52.000Z</time>
      </trkpt>
      <trkpt lat="48.13412" lon="6.86104">
        <ele>713.80004882812</ele>
        <time>2026-09-02T13:17:53.000Z</time>
      </trkpt>
      <trkpt lat="48.13413" lon="6.86104">
        <ele>713.80004882812</ele>
        <time>2026-09-02T13:17:54.000Z</time>
      </trkpt>
      <trkpt lat="48.13413" lon="6.86104">
        <ele>713.80004882812</ele>
        <time>2026-09-02T13:17:55.000Z</time>
      </trkpt>
      <trkpt lat="48.13414" lon="6.86103">
        <ele>713.80004882812</ele>
        <time>2026-09-02T13:17:56.000Z</time>
      </trkpt>
      <trkpt lat="48.13415" lon="6.86103">
        <ele>713.59997558594</ele>
        <time>2026-09-02T13:17:57.000Z</time>
      </trkpt>
      <trkpt lat="48.13416" lon="6.86103">
        <ele>713.59997558594</ele>
        <time>2026-09-02T13:17:58.000Z</time>
      </trkpt>
      <trkpt lat="48.13416" lon="6.86102">
        <ele>713.40002441406</ele>
        <time>2026-09-02T13:17:59.000Z</time>
      </trkpt>
      <trkpt lat="48.13417" lon="6.86102">
        <ele>713.40002441406</ele>
        <time>2026-09-02T13:18:00.000Z</time>
      </trkpt>
      <trkpt lat="48.13417" lon="6.86102">
        <ele>713.19995117188</ele>
        <time>2026-09-02T13:18:01.000Z</time>
      </trkpt>
      <trkpt lat="48.13418" lon="6.86101">
        <ele>713</ele>
        <time>2026-09-02T13:18:02.000Z</time>
      </trkpt>
      <trkpt lat="48.13419" lon="6.86101">
        <ele>713</ele>
        <time>2026-09-02T13:18:03.000Z</time>
      </trkpt>
      <trkpt lat="48.13419" lon="6.86101">
        <ele>712.80004882812</ele>
        <time>2026-09-02T13:18:04.000Z</time>
      </trkpt>
      <trkpt lat="48.1342" lon="6.86101">
        <ele>712.80004882812</ele>
        <time>2026-09-02T13:18:05.000Z</time>
      </trkpt>
      <trkpt lat="48.13421" lon="6.861">
        <ele>712.59997558594</ele>
        <time>2026-09-02T13:18:06.000Z</time>
      </trkpt>
      <trkpt lat="48.13421" lon="6.861">
        <ele>712.59997558594</ele>
        <time>2026-09-02T13:18:07.000Z</time>
      </trkpt>
      <trkpt lat="48.13422" lon="6.861">
        <ele>712.40002441406</ele>
        <time>2026-09-02T13:18:08.000Z</time>
      </trkpt>
      <trkpt lat="48.13422" lon="6.861">
        <ele>712.40002441406</ele>
        <time>2026-09-02T13:18:09.000Z</time>
      </trkpt>
      <trkpt lat="48.13423" lon="6.861">
        <ele>712.40002441406</ele>
        <time>2026-09-02T13:18:10.000Z</time>
      </trkpt>
      <trkpt lat="48.13423" lon="6.86099">
        <ele>712.19995117188</ele>
        <time>2026-09-02T13:18:11.000Z</time>
      </trkpt>
      <trkpt lat="48.13424" lon="6.86099">
        <ele>712.19995117188</ele>
        <time>2026-09-02T13:18:12.000Z</time>
      </trkpt>
      <trkpt lat="48.13424" lon="6.86099">
        <ele>712</ele>
        <time>2026-09-02T13:18:13.000Z</time>
      </trkpt>
      <trkpt lat="48.13425" lon="6.86099">
        <ele>712</ele>
        <time>2026-09-02T13:18:14.000Z</time>
      </trkpt>
      <trkpt lat="48.13425" lon="6.86098">
        <ele>711.80004882812</ele>
        <time>2026-09-02T13:18:15.000Z</time>
      </trkpt>
      <trkpt lat="48.13426" lon="6.86098">
        <ele>711.80004882812</ele>
        <time>2026-09-02T13:18:16.000Z</time>
      </trkpt>
      <trkpt lat="48.13427" lon="6.86098">
        <ele>711.59997558594</ele>
        <time>2026-09-02T13:18:17.000Z</time>
      </trkpt>
      <trkpt lat="48.13427" lon="6.86097">
        <ele>711.59997558594</ele>
        <time>2026-09-02T13:18:18.000Z</time>
      </trkpt>
      <trkpt lat="48.13428" lon="6.86097">
        <ele>711.59997558594</ele>
        <time>2026-09-02T13:18:19.000Z</time>
      </trkpt>
      <trkpt lat="48.13429" lon="6.86097">
        <ele>711.40002441406</ele>
        <time>2026-09-02T13:18:20.000Z</time>
      </trkpt>
      <trkpt lat="48.13429" lon="6.86096">
        <ele>711.40002441406</ele>
        <time>2026-09-02T13:18:21.000Z</time>
      </trkpt>
      <trkpt lat="48.1343" lon="6.86096">
        <ele>711.40002441406</ele>
        <time>2026-09-02T13:18:22.000Z</time>
      </trkpt>
      <trkpt lat="48.1343" lon="6.86096">
        <ele>711.19995117188</ele>
        <time>2026-09-02T13:18:23.000Z</time>
      </trkpt>
      <trkpt lat="48.13431" lon="6.86096">
        <ele>711.19995117188</ele>
        <time>2026-09-02T13:18:24.000Z</time>
      </trkpt>
      <trkpt lat="48.13431" lon="6.86096">
        <ele>711.19995117188</ele>
        <time>2026-09-02T13:18:25.000Z</time>
      </trkpt>
      <trkpt lat="48.13432" lon="6.86095">
        <ele>711.19995117188</ele>
        <time>2026-09-02T13:18:26.000Z</time>
      </trkpt>
      <trkpt lat="48.13432" lon="6.86095">
        <ele>711.40002441406</ele>
        <time>2026-09-02T13:18:27.000Z</time>
      </trkpt>
      <trkpt lat="48.13433" lon="6.86095">
        <ele>711.19995117188</ele>
        <time>2026-09-02T13:18:28.000Z</time>
      </trkpt>
      <trkpt lat="48.13434" lon="6.86094">
        <ele>711</ele>
        <time>2026-09-02T13:18:29.000Z</time>
      </trkpt>
      <trkpt lat="48.13434" lon="6.86094">
        <ele>711</ele>
        <time>2026-09-02T13:18:30.000Z</time>
      </trkpt>
      <trkpt lat="48.13435" lon="6.86094">
        <ele>710.80004882812</ele>
        <time>2026-09-02T13:18:31.000Z</time>
      </trkpt>
      <trkpt lat="48.13436" lon="6.86093">
        <ele>710.59997558594</ele>
        <time>2026-09-02T13:18:32.000Z</time>
      </trkpt>
      <trkpt lat="48.13437" lon="6.86093">
        <ele>710.59997558594</ele>
        <time>2026-09-02T13:18:33.000Z</time>
      </trkpt>
      <trkpt lat="48.13438" lon="6.86092">
        <ele>710.59997558594</ele>
        <time>2026-09-02T13:18:34.000Z</time>
      </trkpt>
      <trkpt lat="48.13438" lon="6.86092">
        <ele>710.59997558594</ele>
        <time>2026-09-02T13:18:35.000Z</time>
      </trkpt>
      <trkpt lat="48.13439" lon="6.86091">
        <ele>710.59997558594</ele>
        <time>2026-09-02T13:18:36.000Z</time>
      </trkpt>
      <trkpt lat="48.1344" lon="6.86091">
        <ele>710.59997558594</ele>
        <time>2026-09-02T13:18:37.000Z</time>
      </trkpt>
      <trkpt lat="48.13441" lon="6.86091">
        <ele>710.40002441406</ele>
        <time>2026-09-02T13:18:38.000Z</time>
      </trkpt>
      <trkpt lat="48.13442" lon="6.8609">
        <ele>710.40002441406</ele>
        <time>2026-09-02T13:18:39.000Z</time>
      </trkpt>
      <trkpt lat="48.13442" lon="6.8609">
        <ele>710.40002441406</ele>
        <time>2026-09-02T13:18:40.000Z</time>
      </trkpt>
      <trkpt lat="48.13443" lon="6.86089">
        <ele>710.40002441406</ele>
        <time>2026-09-02T13:18:41.000Z</time>
      </trkpt>
      <trkpt lat="48.13444" lon="6.86089">
        <ele>710.40002441406</ele>
        <time>2026-09-02T13:18:42.000Z</time>
      </trkpt>
      <trkpt lat="48.13445" lon="6.86088">
        <ele>710.40002441406</ele>
        <time>2026-09-02T13:18:43.000Z</time>
      </trkpt>
      <trkpt lat="48.13445" lon="6.86088">
        <ele>710.59997558594</ele>
        <time>2026-09-02T13:18:44.000Z</time>
      </trkpt>
      <trkpt lat="48.13446" lon="6.86087">
        <ele>710.59997558594</ele>
        <time>2026-09-02T13:18:45.000Z</time>
      </trkpt>
      <trkpt lat="48.13447" lon="6.86087">
        <ele>710.80004882812</ele>
        <time>2026-09-02T13:18:46.000Z</time>
      </trkpt>
      <trkpt lat="48.13448" lon="6.86086">
        <ele>710.80004882812</ele>
        <time>2026-09-02T13:18:47.000Z</time>
      </trkpt>
      <trkpt lat="48.13449" lon="6.86085">
        <ele>710.80004882812</ele>
        <time>2026-09-02T13:18:48.000Z</time>
      </trkpt>
      <trkpt lat="48.13449" lon="6.86085">
        <ele>710.59997558594</ele>
        <time>2026-09-02T13:18:49.000Z</time>
      </trkpt>
      <trkpt lat="48.1345" lon="6.86085">
        <ele>710.40002441406</ele>
        <time>2026-09-02T13:18:50.000Z</time>
      </trkpt>
      <trkpt lat="48.13451" lon="6.86084">
        <ele>710</ele>
        <time>2026-09-02T13:18:51.000Z</time>
      </trkpt>
      <trkpt lat="48.13452" lon="6.86083">
        <ele>709.80004882812</ele>
        <time>2026-09-02T13:18:52.000Z</time>
      </trkpt>
      <trkpt lat="48.13453" lon="6.86083">
        <ele>709.80004882812</ele>
        <time>2026-09-02T13:18:53.000Z</time>
      </trkpt>
      <trkpt lat="48.13453" lon="6.86082">
        <ele>709.59997558594</ele>
        <time>2026-09-02T13:18:54.000Z</time>
      </trkpt>
      <trkpt lat="48.13454" lon="6.86082">
        <ele>709.59997558594</ele>
        <time>2026-09-02T13:18:55.000Z</time>
      </trkpt>
      <trkpt lat="48.13455" lon="6.86082">
        <ele>709.59997558594</ele>
        <time>2026-09-02T13:18:56.000Z</time>
      </trkpt>
      <trkpt lat="48.13456" lon="6.86081">
        <ele>709.40002441406</ele>
        <time>2026-09-02T13:18:57.000Z</time>
      </trkpt>
      <trkpt lat="48.13457" lon="6.86081">
        <ele>709.40002441406</ele>
        <time>2026-09-02T13:18:58.000Z</time>
      </trkpt>
      <trkpt lat="48.13457" lon="6.8608">
        <ele>709.40002441406</ele>
        <time>2026-09-02T13:18:59.000Z</time>
      </trkpt>
      <trkpt lat="48.13458" lon="6.86079">
        <ele>709.40002441406</ele>
        <time>2026-09-02T13:19:00.000Z</time>
      </trkpt>
      <trkpt lat="48.13458" lon="6.86079">
        <ele>709.40002441406</ele>
        <time>2026-09-02T13:19:01.000Z</time>
      </trkpt>
      <trkpt lat="48.13459" lon="6.86079">
        <ele>709.40002441406</ele>
        <time>2026-09-02T13:19:02.000Z</time>
      </trkpt>
      <trkpt lat="48.1346" lon="6.86079">
        <ele>709.40002441406</ele>
        <time>2026-09-02T13:19:03.000Z</time>
      </trkpt>
      <trkpt lat="48.1346" lon="6.86079">
        <ele>709.19995117188</ele>
        <time>2026-09-02T13:19:04.000Z</time>
      </trkpt>
      <trkpt lat="48.13461" lon="6.86078">
        <ele>709</ele>
        <time>2026-09-02T13:19:05.000Z</time>
      </trkpt>
      <trkpt lat="48.13462" lon="6.86078">
        <ele>709.19995117188</ele>
        <time>2026-09-02T13:19:06.000Z</time>
      </trkpt>
      <trkpt lat="48.13463" lon="6.86078">
        <ele>709.19995117188</ele>
        <time>2026-09-02T13:19:07.000Z</time>
      </trkpt>
      <trkpt lat="48.13464" lon="6.86078">
        <ele>709.40002441406</ele>
        <time>2026-09-02T13:19:08.000Z</time>
      </trkpt>
      <trkpt lat="48.13465" lon="6.86078">
        <ele>709.59997558594</ele>
        <time>2026-09-02T13:19:09.000Z</time>
      </trkpt>
      <trkpt lat="48.13466" lon="6.86077">
        <ele>709.80004882812</ele>
        <time>2026-09-02T13:19:10.000Z</time>
      </trkpt>
      <trkpt lat="48.13466" lon="6.86076">
        <ele>709.80004882812</ele>
        <time>2026-09-02T13:19:11.000Z</time>
      </trkpt>
      <trkpt lat="48.13467" lon="6.86076">
        <ele>710</ele>
        <time>2026-09-02T13:19:12.000Z</time>
      </trkpt>
      <trkpt lat="48.13468" lon="6.86075">
        <ele>709.80004882812</ele>
        <time>2026-09-02T13:19:13.000Z</time>
      </trkpt>
      <trkpt lat="48.13469" lon="6.86074">
        <ele>709.80004882812</ele>
        <time>2026-09-02T13:19:14.000Z</time>
      </trkpt>
      <trkpt lat="48.1347" lon="6.86074">
        <ele>709.59997558594</ele>
        <time>2026-09-02T13:19:15.000Z</time>
      </trkpt>
      <trkpt lat="48.13471" lon="6.86073">
        <ele>709.40002441406</ele>
        <time>2026-09-02T13:19:16.000Z</time>
      </trkpt>
      <trkpt lat="48.13471" lon="6.86072">
        <ele>709.40002441406</ele>
        <time>2026-09-02T13:19:17.000Z</time>
      </trkpt>
      <trkpt lat="48.13472" lon="6.86072">
        <ele>709.19995117188</ele>
        <time>2026-09-02T13:19:18.000Z</time>
      </trkpt>
      <trkpt lat="48.13473" lon="6.86072">
        <ele>709.19995117188</ele>
        <time>2026-09-02T13:19:19.000Z</time>
      </trkpt>
      <trkpt lat="48.13474" lon="6.86071">
        <ele>709.19995117188</ele>
        <time>2026-09-02T13:19:20.000Z</time>
      </trkpt>
      <trkpt lat="48.13474" lon="6.86071">
        <ele>709.19995117188</ele>
        <time>2026-09-02T13:19:21.000Z</time>
      </trkpt>
      <trkpt lat="48.13475" lon="6.8607">
        <ele>709.19995117188</ele>
        <time>2026-09-02T13:19:22.000Z</time>
      </trkpt>
      <trkpt lat="48.13475" lon="6.8607">
        <ele>709</ele>
        <time>2026-09-02T13:19:23.000Z</time>
      </trkpt>
      <trkpt lat="48.13476" lon="6.86069">
        <ele>709</ele>
        <time>2026-09-02T13:19:24.000Z</time>
      </trkpt>
      <trkpt lat="48.13477" lon="6.86069">
        <ele>708.80004882812</ele>
        <time>2026-09-02T13:19:25.000Z</time>
      </trkpt>
      <trkpt lat="48.13478" lon="6.86068">
        <ele>708.59997558594</ele>
        <time>2026-09-02T13:19:26.000Z</time>
      </trkpt>
      <trkpt lat="48.13478" lon="6.86068">
        <ele>708.40002441406</ele>
        <time>2026-09-02T13:19:27.000Z</time>
      </trkpt>
      <trkpt lat="48.13479" lon="6.86068">
        <ele>708.40002441406</ele>
        <time>2026-09-02T13:19:28.000Z</time>
      </trkpt>
      <trkpt lat="48.1348" lon="6.86067">
        <ele>708.19995117188</ele>
        <time>2026-09-02T13:19:29.000Z</time>
      </trkpt>
      <trkpt lat="48.13481" lon="6.86067">
        <ele>708.19995117188</ele>
        <time>2026-09-02T13:19:30.000Z</time>
      </trkpt>
      <trkpt lat="48.13481" lon="6.86066">
        <ele>708.19995117188</ele>
        <time>2026-09-02T13:19:31.000Z</time>
      </trkpt>
      <trkpt lat="48.13482" lon="6.86066">
        <ele>708.19995117188</ele>
        <time>2026-09-02T13:19:32.000Z</time>
      </trkpt>
      <trkpt lat="48.13482" lon="6.86065">
        <ele>708.19995117188</ele>
        <time>2026-09-02T13:19:33.000Z</time>
      </trkpt>
      <trkpt lat="48.13483" lon="6.86065">
        <ele>708</ele>
        <time>2026-09-02T13:19:34.000Z</time>
      </trkpt>
      <trkpt lat="48.13484" lon="6.86064">
        <ele>708</ele>
        <time>2026-09-02T13:19:35.000Z</time>
      </trkpt>
      <trkpt lat="48.13484" lon="6.86064">
        <ele>707.80004882812</ele>
        <time>2026-09-02T13:19:36.000Z</time>
      </trkpt>
      <trkpt lat="48.13484" lon="6.86064">
        <ele>707.59997558594</ele>
        <time>2026-09-02T13:19:37.000Z</time>
      </trkpt>
      <trkpt lat="48.13485" lon="6.86063">
        <ele>707.59997558594</ele>
        <time>2026-09-02T13:19:38.000Z</time>
      </trkpt>
      <trkpt lat="48.13486" lon="6.86063">
        <ele>707.59997558594</ele>
        <time>2026-09-02T13:19:39.000Z</time>
      </trkpt>
      <trkpt lat="48.13487" lon="6.86063">
        <ele>707.40002441406</ele>
        <time>2026-09-02T13:19:40.000Z</time>
      </trkpt>
      <trkpt lat="48.13488" lon="6.86063">
        <ele>707.19995117188</ele>
        <time>2026-09-02T13:19:41.000Z</time>
      </trkpt>
      <trkpt lat="48.13488" lon="6.86062">
        <ele>706.80004882812</ele>
        <time>2026-09-02T13:19:42.000Z</time>
      </trkpt>
      <trkpt lat="48.13488" lon="6.86062">
        <ele>706.80004882812</ele>
        <time>2026-09-02T13:19:43.000Z</time>
      </trkpt>
      <trkpt lat="48.13489" lon="6.86062">
        <ele>706.59997558594</ele>
        <time>2026-09-02T13:19:44.000Z</time>
      </trkpt>
      <trkpt lat="48.1349" lon="6.86062">
        <ele>706.59997558594</ele>
        <time>2026-09-02T13:19:45.000Z</time>
      </trkpt>
      <trkpt lat="48.1349" lon="6.86062">
        <ele>706.59997558594</ele>
        <time>2026-09-02T13:19:46.000Z</time>
      </trkpt>
      <trkpt lat="48.13491" lon="6.86062">
        <ele>706.59997558594</ele>
        <time>2026-09-02T13:19:47.000Z</time>
      </trkpt>
      <trkpt lat="48.13493" lon="6.86062">
        <ele>706.59997558594</ele>
        <time>2026-09-02T13:19:48.000Z</time>
      </trkpt>
      <trkpt lat="48.13493" lon="6.86062">
        <ele>706.59997558594</ele>
        <time>2026-09-02T13:19:49.000Z</time>
      </trkpt>
      <trkpt lat="48.13494" lon="6.86061">
        <ele>706.40002441406</ele>
        <time>2026-09-02T13:19:50.000Z</time>
      </trkpt>
      <trkpt lat="48.13494" lon="6.86062">
        <ele>706.19995117188</ele>
        <time>2026-09-02T13:19:51.000Z</time>
      </trkpt>
      <trkpt lat="48.13495" lon="6.86062">
        <ele>706</ele>
        <time>2026-09-02T13:19:52.000Z</time>
      </trkpt>
      <trkpt lat="48.13496" lon="6.86062">
        <ele>706</ele>
        <time>2026-09-02T13:19:53.000Z</time>
      </trkpt>
      <trkpt lat="48.13496" lon="6.86062">
        <ele>705.80004882812</ele>
        <time>2026-09-02T13:19:54.000Z</time>
      </trkpt>
      <trkpt lat="48.13496" lon="6.86062">
        <ele>705.80004882812</ele>
        <time>2026-09-02T13:19:55.000Z</time>
      </trkpt>
      <trkpt lat="48.13497" lon="6.86062">
        <ele>705.80004882812</ele>
        <time>2026-09-02T13:19:56.000Z</time>
      </trkpt>
      <trkpt lat="48.13497" lon="6.86062">
        <ele>705.80004882812</ele>
        <time>2026-09-02T13:19:57.000Z</time>
      </trkpt>
      <trkpt lat="48.13498" lon="6.86062">
        <ele>705.59997558594</ele>
        <time>2026-09-02T13:19:58.000Z</time>
      </trkpt>
      <trkpt lat="48.13499" lon="6.86062">
        <ele>705.59997558594</ele>
        <time>2026-09-02T13:19:59.000Z</time>
      </trkpt>
      <trkpt lat="48.13499" lon="6.86062">
        <ele>705.40002441406</ele>
        <time>2026-09-02T13:20:00.000Z</time>
      </trkpt>
      <trkpt lat="48.135" lon="6.86062">
        <ele>705.40002441406</ele>
        <time>2026-09-02T13:20:01.000Z</time>
      </trkpt>
      <trkpt lat="48.135" lon="6.86062">
        <ele>705.19995117188</ele>
        <time>2026-09-02T13:20:02.000Z</time>
      </trkpt>
      <trkpt lat="48.135" lon="6.86062">
        <ele>705.19995117188</ele>
        <time>2026-09-02T13:20:03.000Z</time>
      </trkpt>
      <trkpt lat="48.13501" lon="6.86062">
        <ele>705.19995117188</ele>
        <time>2026-09-02T13:20:04.000Z</time>
      </trkpt>
      <trkpt lat="48.13501" lon="6.86062">
        <ele>705.19995117188</ele>
        <time>2026-09-02T13:20:05.000Z</time>
      </trkpt>
      <trkpt lat="48.13501" lon="6.86062">
        <ele>705</ele>
        <time>2026-09-02T13:20:06.000Z</time>
      </trkpt>
      <trkpt lat="48.13501" lon="6.86062">
        <ele>705</ele>
        <time>2026-09-02T13:20:07.000Z</time>
      </trkpt>
      <trkpt lat="48.13501" lon="6.86062">
        <ele>705</ele>
        <time>2026-09-02T13:20:08.000Z</time>
      </trkpt>
      <trkpt lat="48.13501" lon="6.86062">
        <ele>705</ele>
        <time>2026-09-02T13:20:09.000Z</time>
      </trkpt>
      <trkpt lat="48.13501" lon="6.86062">
        <ele>705</ele>
        <time>2026-09-02T13:20:10.000Z</time>
      </trkpt>
      <trkpt lat="48.13501" lon="6.86062">
        <ele>705</ele>
        <time>2026-09-02T13:20:11.000Z</time>
      </trkpt>
      <trkpt lat="48.13502" lon="6.86062">
        <ele>705</ele>
        <time>2026-09-02T13:20:12.000Z</time>
      </trkpt>
      <trkpt lat="48.13502" lon="6.86062">
        <ele>705</ele>
        <time>2026-09-02T13:20:13.000Z</time>
      </trkpt>
      <trkpt lat="48.13503" lon="6.86063">
        <ele>705</ele>
        <time>2026-09-02T13:20:14.000Z</time>
      </trkpt>
      <trkpt lat="48.13503" lon="6.86063">
        <ele>705</ele>
        <time>2026-09-02T13:20:15.000Z</time>
      </trkpt>
      <trkpt lat="48.13504" lon="6.86063">
        <ele>704.80004882812</ele>
        <time>2026-09-02T13:20:16.000Z</time>
      </trkpt>
      <trkpt lat="48.13504" lon="6.86063">
        <ele>704.80004882812</ele>
        <time>2026-09-02T13:20:17.000Z</time>
      </trkpt>
      <trkpt lat="48.13504" lon="6.86063">
        <ele>704.59997558594</ele>
        <time>2026-09-02T13:20:18.000Z</time>
      </trkpt>
      <trkpt lat="48.13504" lon="6.86063">
        <ele>704.59997558594</ele>
        <time>2026-09-02T13:20:19.000Z</time>
      </trkpt>
      <trkpt lat="48.13505" lon="6.86063">
        <ele>704.40002441406</ele>
        <time>2026-09-02T13:20:20.000Z</time>
      </trkpt>
      <trkpt lat="48.13505" lon="6.86063">
        <ele>704.19995117188</ele>
        <time>2026-09-02T13:20:21.000Z</time>
      </trkpt>
      <trkpt lat="48.13506" lon="6.86063">
        <ele>704</ele>
        <time>2026-09-02T13:20:22.000Z</time>
      </trkpt>
      <trkpt lat="48.13506" lon="6.86063">
        <ele>704</ele>
        <time>2026-09-02T13:20:23.000Z</time>
      </trkpt>
      <trkpt lat="48.13506" lon="6.86063">
        <ele>704</ele>
        <time>2026-09-02T13:20:24.000Z</time>
      </trkpt>
      <trkpt lat="48.13506" lon="6.86063">
        <ele>703.80004882812</ele>
        <time>2026-09-02T13:20:25.000Z</time>
      </trkpt>
      <trkpt lat="48.13506" lon="6.86063">
        <ele>703.80004882812</ele>
        <time>2026-09-02T13:20:26.000Z</time>
      </trkpt>
      <trkpt lat="48.13506" lon="6.86063">
        <ele>703.80004882812</ele>
        <time>2026-09-02T13:20:27.000Z</time>
      </trkpt>
      <trkpt lat="48.13506" lon="6.86063">
        <ele>703.80004882812</ele>
        <time>2026-09-02T13:20:28.000Z</time>
      </trkpt>
      <trkpt lat="48.13506" lon="6.86063">
        <ele>703.59997558594</ele>
        <time>2026-09-02T13:20:29.000Z</time>
      </trkpt>
      <trkpt lat="48.13506" lon="6.86063">
        <ele>703.80004882812</ele>
        <time>2026-09-02T13:20:30.000Z</time>
      </trkpt>
      <trkpt lat="48.13507" lon="6.86063">
        <ele>703.59997558594</ele>
        <time>2026-09-02T13:20:31.000Z</time>
      </trkpt>
      <trkpt lat="48.13507" lon="6.86063">
        <ele>703.59997558594</ele>
        <time>2026-09-02T13:20:32.000Z</time>
      </trkpt>
      <trkpt lat="48.13508" lon="6.86063">
        <ele>703.59997558594</ele>
        <time>2026-09-02T13:20:33.000Z</time>
      </trkpt>
      <trkpt lat="48.13508" lon="6.86063">
        <ele>703.59997558594</ele>
        <time>2026-09-02T13:20:34.000Z</time>
      </trkpt>
      <trkpt lat="48.13509" lon="6.86063">
        <ele>703.40002441406</ele>
        <time>2026-09-02T13:20:35.000Z</time>
      </trkpt>
      <trkpt lat="48.1351" lon="6.86064">
        <ele>703.40002441406</ele>
        <time>2026-09-02T13:20:36.000Z</time>
      </trkpt>
      <trkpt lat="48.13511" lon="6.86064">
        <ele>703.40002441406</ele>
        <time>2026-09-02T13:20:37.000Z</time>
      </trkpt>
      <trkpt lat="48.13512" lon="6.86065">
        <ele>703.19995117188</ele>
        <time>2026-09-02T13:20:38.000Z</time>
      </trkpt>
      <trkpt lat="48.13513" lon="6.86065">
        <ele>703.19995117188</ele>
        <time>2026-09-02T13:20:39.000Z</time>
      </trkpt>
      <trkpt lat="48.13513" lon="6.86066">
        <ele>703</ele>
        <time>2026-09-02T13:20:40.000Z</time>
      </trkpt>
      <trkpt lat="48.13514" lon="6.86067">
        <ele>702.80004882812</ele>
        <time>2026-09-02T13:20:41.000Z</time>
      </trkpt>
      <trkpt lat="48.13515" lon="6.86068">
        <ele>702.40002441406</ele>
        <time>2026-09-02T13:20:42.000Z</time>
      </trkpt>
      <trkpt lat="48.13516" lon="6.86069">
        <ele>702.19995117188</ele>
        <time>2026-09-02T13:20:43.000Z</time>
      </trkpt>
      <trkpt lat="48.13516" lon="6.86069">
        <ele>702</ele>
        <time>2026-09-02T13:20:44.000Z</time>
      </trkpt>
      <trkpt lat="48.13517" lon="6.8607">
        <ele>702</ele>
        <time>2026-09-02T13:20:45.000Z</time>
      </trkpt>
      <trkpt lat="48.13517" lon="6.86071">
        <ele>702</ele>
        <time>2026-09-02T13:20:46.000Z</time>
      </trkpt>
      <trkpt lat="48.13518" lon="6.86072">
        <ele>701.80004882812</ele>
        <time>2026-09-02T13:20:47.000Z</time>
      </trkpt>
      <trkpt lat="48.13518" lon="6.86073">
        <ele>701.80004882812</ele>
        <time>2026-09-02T13:20:48.000Z</time>
      </trkpt>
      <trkpt lat="48.13519" lon="6.86075">
        <ele>701.59997558594</ele>
        <time>2026-09-02T13:20:49.000Z</time>
      </trkpt>
      <trkpt lat="48.13519" lon="6.86076">
        <ele>701.40002441406</ele>
        <time>2026-09-02T13:20:50.000Z</time>
      </trkpt>
      <trkpt lat="48.1352" lon="6.86077">
        <ele>701.19995117188</ele>
        <time>2026-09-02T13:20:51.000Z</time>
      </trkpt>
      <trkpt lat="48.1352" lon="6.86078">
        <ele>701.19995117188</ele>
        <time>2026-09-02T13:20:52.000Z</time>
      </trkpt>
      <trkpt lat="48.1352" lon="6.8608">
        <ele>701</ele>
        <time>2026-09-02T13:20:53.000Z</time>
      </trkpt>
      <trkpt lat="48.1352" lon="6.86082">
        <ele>701</ele>
        <time>2026-09-02T13:20:54.000Z</time>
      </trkpt>
      <trkpt lat="48.13519" lon="6.86083">
        <ele>701</ele>
        <time>2026-09-02T13:20:55.000Z</time>
      </trkpt>
      <trkpt lat="48.13519" lon="6.86085">
        <ele>700.80004882812</ele>
        <time>2026-09-02T13:20:56.000Z</time>
      </trkpt>
      <trkpt lat="48.13518" lon="6.86086">
        <ele>700.80004882812</ele>
        <time>2026-09-02T13:20:57.000Z</time>
      </trkpt>
      <trkpt lat="48.13517" lon="6.86087">
        <ele>700.80004882812</ele>
        <time>2026-09-02T13:20:58.000Z</time>
      </trkpt>
      <trkpt lat="48.13517" lon="6.86089">
        <ele>700.80004882812</ele>
        <time>2026-09-02T13:20:59.000Z</time>
      </trkpt>
      <trkpt lat="48.13516" lon="6.8609">
        <ele>700.59997558594</ele>
        <time>2026-09-02T13:21:00.000Z</time>
      </trkpt>
      <trkpt lat="48.13516" lon="6.8609">
        <ele>700.59997558594</ele>
        <time>2026-09-02T13:21:01.000Z</time>
      </trkpt>
      <trkpt lat="48.13516" lon="6.86091">
        <ele>700.40002441406</ele>
        <time>2026-09-02T13:21:02.000Z</time>
      </trkpt>
      <trkpt lat="48.13515" lon="6.86092">
        <ele>700.19995117188</ele>
        <time>2026-09-02T13:21:03.000Z</time>
      </trkpt>
      <trkpt lat="48.13514" lon="6.86093">
        <ele>700.19995117188</ele>
        <time>2026-09-02T13:21:04.000Z</time>
      </trkpt>
      <trkpt lat="48.13514" lon="6.86094">
        <ele>700</ele>
        <time>2026-09-02T13:21:05.000Z</time>
      </trkpt>
      <trkpt lat="48.13513" lon="6.86095">
        <ele>700</ele>
        <time>2026-09-02T13:21:06.000Z</time>
      </trkpt>
      <trkpt lat="48.13513" lon="6.86096">
        <ele>699.80004882812</ele>
        <time>2026-09-02T13:21:07.000Z</time>
      </trkpt>
      <trkpt lat="48.13512" lon="6.86097">
        <ele>699.80004882812</ele>
        <time>2026-09-02T13:21:08.000Z</time>
      </trkpt>
      <trkpt lat="48.13512" lon="6.86098">
        <ele>699.59997558594</ele>
        <time>2026-09-02T13:21:09.000Z</time>
      </trkpt>
      <trkpt lat="48.13512" lon="6.86099">
        <ele>699.59997558594</ele>
        <time>2026-09-02T13:21:10.000Z</time>
      </trkpt>
      <trkpt lat="48.13511" lon="6.861">
        <ele>699.40002441406</ele>
        <time>2026-09-02T13:21:11.000Z</time>
      </trkpt>
      <trkpt lat="48.13511" lon="6.86099">
        <ele>699.40002441406</ele>
        <time>2026-09-02T13:21:12.000Z</time>
      </trkpt>
      <trkpt lat="48.13511" lon="6.861">
        <ele>699.19995117188</ele>
        <time>2026-09-02T13:21:13.000Z</time>
      </trkpt>
      <trkpt lat="48.1351" lon="6.86101">
        <ele>699.19995117188</ele>
        <time>2026-09-02T13:21:14.000Z</time>
      </trkpt>
      <trkpt lat="48.1351" lon="6.86102">
        <ele>699</ele>
        <time>2026-09-02T13:21:15.000Z</time>
      </trkpt>
      <trkpt lat="48.1351" lon="6.86104">
        <ele>699</ele>
        <time>2026-09-02T13:21:16.000Z</time>
      </trkpt>
      <trkpt lat="48.13509" lon="6.86105">
        <ele>698.80004882812</ele>
        <time>2026-09-02T13:21:17.000Z</time>
      </trkpt>
      <trkpt lat="48.13509" lon="6.86106">
        <ele>698.40002441406</ele>
        <time>2026-09-02T13:21:18.000Z</time>
      </trkpt>
      <trkpt lat="48.13509" lon="6.86107">
        <ele>698.19995117188</ele>
        <time>2026-09-02T13:21:19.000Z</time>
      </trkpt>
      <trkpt lat="48.13509" lon="6.86109">
        <ele>698</ele>
        <time>2026-09-02T13:21:20.000Z</time>
      </trkpt>
      <trkpt lat="48.13509" lon="6.8611">
        <ele>697.80004882812</ele>
        <time>2026-09-02T13:21:21.000Z</time>
      </trkpt>
      <trkpt lat="48.13509" lon="6.86111">
        <ele>697.59997558594</ele>
        <time>2026-09-02T13:21:22.000Z</time>
      </trkpt>
      <trkpt lat="48.13508" lon="6.86112">
        <ele>697.59997558594</ele>
        <time>2026-09-02T13:21:23.000Z</time>
      </trkpt>
      <trkpt lat="48.13508" lon="6.86113">
        <ele>697.59997558594</ele>
        <time>2026-09-02T13:21:24.000Z</time>
      </trkpt>
      <trkpt lat="48.13508" lon="6.86114">
        <ele>697.40002441406</ele>
        <time>2026-09-02T13:21:25.000Z</time>
      </trkpt>
      <trkpt lat="48.13508" lon="6.86115">
        <ele>697.40002441406</ele>
        <time>2026-09-02T13:21:26.000Z</time>
      </trkpt>
      <trkpt lat="48.13508" lon="6.86116">
        <ele>697.19995117188</ele>
        <time>2026-09-02T13:21:27.000Z</time>
      </trkpt>
      <trkpt lat="48.13508" lon="6.86117">
        <ele>697.19995117188</ele>
        <time>2026-09-02T13:21:28.000Z</time>
      </trkpt>
      <trkpt lat="48.13508" lon="6.86118">
        <ele>697</ele>
        <time>2026-09-02T13:21:29.000Z</time>
      </trkpt>
      <trkpt lat="48.13507" lon="6.86119">
        <ele>696.80004882812</ele>
        <time>2026-09-02T13:21:30.000Z</time>
      </trkpt>
      <trkpt lat="48.13507" lon="6.8612">
        <ele>696.59997558594</ele>
        <time>2026-09-02T13:21:31.000Z</time>
      </trkpt>
      <trkpt lat="48.13507" lon="6.86121">
        <ele>696.40002441406</ele>
        <time>2026-09-02T13:21:32.000Z</time>
      </trkpt>
      <trkpt lat="48.13507" lon="6.86122">
        <ele>696.40002441406</ele>
        <time>2026-09-02T13:21:33.000Z</time>
      </trkpt>
      <trkpt lat="48.13507" lon="6.86123">
        <ele>696</ele>
        <time>2026-09-02T13:21:34.000Z</time>
      </trkpt>
      <trkpt lat="48.13507" lon="6.86124">
        <ele>695.80004882812</ele>
        <time>2026-09-02T13:21:35.000Z</time>
      </trkpt>
      <trkpt lat="48.13507" lon="6.86125">
        <ele>695.80004882812</ele>
        <time>2026-09-02T13:21:36.000Z</time>
      </trkpt>
      <trkpt lat="48.13508" lon="6.86127">
        <ele>695.59997558594</ele>
        <time>2026-09-02T13:21:37.000Z</time>
      </trkpt>
      <trkpt lat="48.13508" lon="6.86128">
        <ele>695.59997558594</ele>
        <time>2026-09-02T13:21:38.000Z</time>
      </trkpt>
      <trkpt lat="48.13508" lon="6.86129">
        <ele>695.59997558594</ele>
        <time>2026-09-02T13:21:39.000Z</time>
      </trkpt>
      <trkpt lat="48.13509" lon="6.8613">
        <ele>695.59997558594</ele>
        <time>2026-09-02T13:21:40.000Z</time>
      </trkpt>
      <trkpt lat="48.13509" lon="6.86131">
        <ele>695.40002441406</ele>
        <time>2026-09-02T13:21:41.000Z</time>
      </trkpt>
      <trkpt lat="48.13509" lon="6.86132">
        <ele>695.19995117188</ele>
        <time>2026-09-02T13:21:42.000Z</time>
      </trkpt>
      <trkpt lat="48.1351" lon="6.86134">
        <ele>695</ele>
        <time>2026-09-02T13:21:43.000Z</time>
      </trkpt>
      <trkpt lat="48.13511" lon="6.86134">
        <ele>694.80004882812</ele>
        <time>2026-09-02T13:21:44.000Z</time>
      </trkpt>
      <trkpt lat="48.13511" lon="6.86136">
        <ele>694.59997558594</ele>
        <time>2026-09-02T13:21:45.000Z</time>
      </trkpt>
      <trkpt lat="48.13511" lon="6.86137">
        <ele>694.59997558594</ele>
        <time>2026-09-02T13:21:46.000Z</time>
      </trkpt>
      <trkpt lat="48.13512" lon="6.86138">
        <ele>694.59997558594</ele>
        <time>2026-09-02T13:21:47.000Z</time>
      </trkpt>
      <trkpt lat="48.13513" lon="6.8614">
        <ele>694.59997558594</ele>
        <time>2026-09-02T13:21:48.000Z</time>
      </trkpt>
      <trkpt lat="48.13513" lon="6.86141">
        <ele>694.40002441406</ele>
        <time>2026-09-02T13:21:49.000Z</time>
      </trkpt>
      <trkpt lat="48.13514" lon="6.86142">
        <ele>694.19995117188</ele>
        <time>2026-09-02T13:21:50.000Z</time>
      </trkpt>
      <trkpt lat="48.13514" lon="6.86144">
        <ele>694.19995117188</ele>
        <time>2026-09-02T13:21:51.000Z</time>
      </trkpt>
      <trkpt lat="48.13515" lon="6.86145">
        <ele>694</ele>
        <time>2026-09-02T13:21:52.000Z</time>
      </trkpt>
      <trkpt lat="48.13516" lon="6.86146">
        <ele>694</ele>
        <time>2026-09-02T13:21:53.000Z</time>
      </trkpt>
      <trkpt lat="48.13517" lon="6.86148">
        <ele>694</ele>
        <time>2026-09-02T13:21:54.000Z</time>
      </trkpt>
      <trkpt lat="48.13517" lon="6.86149">
        <ele>694</ele>
        <time>2026-09-02T13:21:55.000Z</time>
      </trkpt>
      <trkpt lat="48.13518" lon="6.86151">
        <ele>693.80004882812</ele>
        <time>2026-09-02T13:21:56.000Z</time>
      </trkpt>
      <trkpt lat="48.13518" lon="6.86152">
        <ele>693.80004882812</ele>
        <time>2026-09-02T13:21:57.000Z</time>
      </trkpt>
      <trkpt lat="48.13518" lon="6.86154">
        <ele>693.59997558594</ele>
        <time>2026-09-02T13:21:58.000Z</time>
      </trkpt>
      <trkpt lat="48.13518" lon="6.86155">
        <ele>693.59997558594</ele>
        <time>2026-09-02T13:21:59.000Z</time>
      </trkpt>
      <trkpt lat="48.13519" lon="6.86156">
        <ele>693.59997558594</ele>
        <time>2026-09-02T13:22:00.000Z</time>
      </trkpt>
      <trkpt lat="48.13519" lon="6.86157">
        <ele>693.59997558594</ele>
        <time>2026-09-02T13:22:01.000Z</time>
      </trkpt>
      <trkpt lat="48.13519" lon="6.86158">
        <ele>693.40002441406</ele>
        <time>2026-09-02T13:22:02.000Z</time>
      </trkpt>
      <trkpt lat="48.13519" lon="6.8616">
        <ele>693.40002441406</ele>
        <time>2026-09-02T13:22:03.000Z</time>
      </trkpt>
      <trkpt lat="48.13519" lon="6.86161">
        <ele>693.40002441406</ele>
        <time>2026-09-02T13:22:04.000Z</time>
      </trkpt>
      <trkpt lat="48.1352" lon="6.86162">
        <ele>693.19995117188</ele>
        <time>2026-09-02T13:22:05.000Z</time>
      </trkpt>
      <trkpt lat="48.1352" lon="6.86163">
        <ele>693.19995117188</ele>
        <time>2026-09-02T13:22:06.000Z</time>
      </trkpt>
      <trkpt lat="48.1352" lon="6.86165">
        <ele>693</ele>
        <time>2026-09-02T13:22:07.000Z</time>
      </trkpt>
      <trkpt lat="48.1352" lon="6.86166">
        <ele>692.80004882812</ele>
        <time>2026-09-02T13:22:08.000Z</time>
      </trkpt>
      <trkpt lat="48.13521" lon="6.86167">
        <ele>692.80004882812</ele>
        <time>2026-09-02T13:22:09.000Z</time>
      </trkpt>
      <trkpt lat="48.13521" lon="6.86168">
        <ele>692.80004882812</ele>
        <time>2026-09-02T13:22:10.000Z</time>
      </trkpt>
      <trkpt lat="48.13522" lon="6.86169">
        <ele>692.59997558594</ele>
        <time>2026-09-02T13:22:11.000Z</time>
      </trkpt>
      <trkpt lat="48.13522" lon="6.8617">
        <ele>692.59997558594</ele>
        <time>2026-09-02T13:22:12.000Z</time>
      </trkpt>
      <trkpt lat="48.13522" lon="6.86171">
        <ele>692.59997558594</ele>
        <time>2026-09-02T13:22:13.000Z</time>
      </trkpt>
      <trkpt lat="48.13523" lon="6.86172">
        <ele>692.40002441406</ele>
        <time>2026-09-02T13:22:14.000Z</time>
      </trkpt>
      <trkpt lat="48.13523" lon="6.86173">
        <ele>692.40002441406</ele>
        <time>2026-09-02T13:22:15.000Z</time>
      </trkpt>
      <trkpt lat="48.13524" lon="6.86174">
        <ele>692.19995117188</ele>
        <time>2026-09-02T13:22:16.000Z</time>
      </trkpt>
      <trkpt lat="48.13524" lon="6.86174">
        <ele>692</ele>
        <time>2026-09-02T13:22:17.000Z</time>
      </trkpt>
      <trkpt lat="48.13525" lon="6.86175">
        <ele>691.80004882812</ele>
        <time>2026-09-02T13:22:18.000Z</time>
      </trkpt>
      <trkpt lat="48.13525" lon="6.86176">
        <ele>691.59997558594</ele>
        <time>2026-09-02T13:22:19.000Z</time>
      </trkpt>
      <trkpt lat="48.13526" lon="6.86177">
        <ele>691.59997558594</ele>
        <time>2026-09-02T13:22:20.000Z</time>
      </trkpt>
      <trkpt lat="48.13526" lon="6.86178">
        <ele>691.40002441406</ele>
        <time>2026-09-02T13:22:21.000Z</time>
      </trkpt>
      <trkpt lat="48.13527" lon="6.86179">
        <ele>691.40002441406</ele>
        <time>2026-09-02T13:22:22.000Z</time>
      </trkpt>
      <trkpt lat="48.13527" lon="6.8618">
        <ele>691.19995117188</ele>
        <time>2026-09-02T13:22:23.000Z</time>
      </trkpt>
      <trkpt lat="48.13527" lon="6.86181">
        <ele>691.19995117188</ele>
        <time>2026-09-02T13:22:24.000Z</time>
      </trkpt>
      <trkpt lat="48.13528" lon="6.86182">
        <ele>691.19995117188</ele>
        <time>2026-09-02T13:22:25.000Z</time>
      </trkpt>
      <trkpt lat="48.13528" lon="6.86183">
        <ele>691</ele>
        <time>2026-09-02T13:22:26.000Z</time>
      </trkpt>
      <trkpt lat="48.13529" lon="6.86185">
        <ele>691</ele>
        <time>2026-09-02T13:22:27.000Z</time>
      </trkpt>
      <trkpt lat="48.13529" lon="6.86186">
        <ele>690.80004882812</ele>
        <time>2026-09-02T13:22:28.000Z</time>
      </trkpt>
      <trkpt lat="48.1353" lon="6.86187">
        <ele>690.59997558594</ele>
        <time>2026-09-02T13:22:29.000Z</time>
      </trkpt>
      <trkpt lat="48.1353" lon="6.86188">
        <ele>690.59997558594</ele>
        <time>2026-09-02T13:22:30.000Z</time>
      </trkpt>
      <trkpt lat="48.13531" lon="6.86189">
        <ele>690.40002441406</ele>
        <time>2026-09-02T13:22:31.000Z</time>
      </trkpt>
      <trkpt lat="48.13531" lon="6.8619">
        <ele>690.40002441406</ele>
        <time>2026-09-02T13:22:32.000Z</time>
      </trkpt>
      <trkpt lat="48.13532" lon="6.86191">
        <ele>690.19995117188</ele>
        <time>2026-09-02T13:22:33.000Z</time>
      </trkpt>
      <trkpt lat="48.13532" lon="6.86192">
        <ele>690.19995117188</ele>
        <time>2026-09-02T13:22:34.000Z</time>
      </trkpt>
      <trkpt lat="48.13533" lon="6.86193">
        <ele>690.19995117188</ele>
        <time>2026-09-02T13:22:35.000Z</time>
      </trkpt>
      <trkpt lat="48.13534" lon="6.86194">
        <ele>690</ele>
        <time>2026-09-02T13:22:36.000Z</time>
      </trkpt>
      <trkpt lat="48.13534" lon="6.86195">
        <ele>690</ele>
        <time>2026-09-02T13:22:37.000Z</time>
      </trkpt>
      <trkpt lat="48.13535" lon="6.86196">
        <ele>689.80004882812</ele>
        <time>2026-09-02T13:22:38.000Z</time>
      </trkpt>
      <trkpt lat="48.13535" lon="6.86197">
        <ele>689.80004882812</ele>
        <time>2026-09-02T13:22:39.000Z</time>
      </trkpt>
      <trkpt lat="48.13536" lon="6.86198">
        <ele>689.59997558594</ele>
        <time>2026-09-02T13:22:40.000Z</time>
      </trkpt>
      <trkpt lat="48.13536" lon="6.86199">
        <ele>689.40002441406</ele>
        <time>2026-09-02T13:22:41.000Z</time>
      </trkpt>
      <trkpt lat="48.13537" lon="6.862">
        <ele>689.40002441406</ele>
        <time>2026-09-02T13:22:42.000Z</time>
      </trkpt>
      <trkpt lat="48.13537" lon="6.86201">
        <ele>689.40002441406</ele>
        <time>2026-09-02T13:22:43.000Z</time>
      </trkpt>
      <trkpt lat="48.13537" lon="6.86202">
        <ele>689.40002441406</ele>
        <time>2026-09-02T13:22:44.000Z</time>
      </trkpt>
      <trkpt lat="48.13537" lon="6.86202">
        <ele>689.40002441406</ele>
        <time>2026-09-02T13:22:45.000Z</time>
      </trkpt>
      <trkpt lat="48.13538" lon="6.86203">
        <ele>689.19995117188</ele>
        <time>2026-09-02T13:22:46.000Z</time>
      </trkpt>
      <trkpt lat="48.13538" lon="6.86204">
        <ele>689.19995117188</ele>
        <time>2026-09-02T13:22:47.000Z</time>
      </trkpt>
      <trkpt lat="48.13539" lon="6.86205">
        <ele>689.19995117188</ele>
        <time>2026-09-02T13:22:48.000Z</time>
      </trkpt>
      <trkpt lat="48.13539" lon="6.86206">
        <ele>689</ele>
        <time>2026-09-02T13:22:49.000Z</time>
      </trkpt>
      <trkpt lat="48.1354" lon="6.86206">
        <ele>689</ele>
        <time>2026-09-02T13:22:50.000Z</time>
      </trkpt>
      <trkpt lat="48.1354" lon="6.86207">
        <ele>688.80004882812</ele>
        <time>2026-09-02T13:22:51.000Z</time>
      </trkpt>
      <trkpt lat="48.1354" lon="6.86209">
        <ele>688.80004882812</ele>
        <time>2026-09-02T13:22:52.000Z</time>
      </trkpt>
      <trkpt lat="48.13541" lon="6.86209">
        <ele>688.59997558594</ele>
        <time>2026-09-02T13:22:53.000Z</time>
      </trkpt>
      <trkpt lat="48.13542" lon="6.8621">
        <ele>688.40002441406</ele>
        <time>2026-09-02T13:22:54.000Z</time>
      </trkpt>
      <trkpt lat="48.13542" lon="6.86211">
        <ele>688.40002441406</ele>
        <time>2026-09-02T13:22:55.000Z</time>
      </trkpt>
      <trkpt lat="48.13543" lon="6.86212">
        <ele>688.19995117188</ele>
        <time>2026-09-02T13:22:56.000Z</time>
      </trkpt>
      <trkpt lat="48.13543" lon="6.86213">
        <ele>688</ele>
        <time>2026-09-02T13:22:57.000Z</time>
      </trkpt>
      <trkpt lat="48.13544" lon="6.86213">
        <ele>687.80004882812</ele>
        <time>2026-09-02T13:22:58.000Z</time>
      </trkpt>
      <trkpt lat="48.13545" lon="6.86214">
        <ele>687.80004882812</ele>
        <time>2026-09-02T13:22:59.000Z</time>
      </trkpt>
      <trkpt lat="48.13545" lon="6.86215">
        <ele>687.80004882812</ele>
        <time>2026-09-02T13:23:00.000Z</time>
      </trkpt>
      <trkpt lat="48.13546" lon="6.86216">
        <ele>687.59997558594</ele>
        <time>2026-09-02T13:23:01.000Z</time>
      </trkpt>
      <trkpt lat="48.13546" lon="6.86217">
        <ele>687.40002441406</ele>
        <time>2026-09-02T13:23:02.000Z</time>
      </trkpt>
      <trkpt lat="48.13547" lon="6.86218">
        <ele>687.19995117188</ele>
        <time>2026-09-02T13:23:03.000Z</time>
      </trkpt>
      <trkpt lat="48.13547" lon="6.86219">
        <ele>687</ele>
        <time>2026-09-02T13:23:04.000Z</time>
      </trkpt>
      <trkpt lat="48.13548" lon="6.8622">
        <ele>686.80004882812</ele>
        <time>2026-09-02T13:23:05.000Z</time>
      </trkpt>
      <trkpt lat="48.13548" lon="6.86222">
        <ele>686.80004882812</ele>
        <time>2026-09-02T13:23:06.000Z</time>
      </trkpt>
      <trkpt lat="48.13548" lon="6.86223">
        <ele>686.80004882812</ele>
        <time>2026-09-02T13:23:07.000Z</time>
      </trkpt>
      <trkpt lat="48.13548" lon="6.86224">
        <ele>686.59997558594</ele>
        <time>2026-09-02T13:23:08.000Z</time>
      </trkpt>
      <trkpt lat="48.13549" lon="6.86225">
        <ele>686.40002441406</ele>
        <time>2026-09-02T13:23:09.000Z</time>
      </trkpt>
      <trkpt lat="48.13549" lon="6.86226">
        <ele>686.40002441406</ele>
        <time>2026-09-02T13:23:10.000Z</time>
      </trkpt>
      <trkpt lat="48.1355" lon="6.86227">
        <ele>686.19995117188</ele>
        <time>2026-09-02T13:23:11.000Z</time>
      </trkpt>
      <trkpt lat="48.1355" lon="6.86228">
        <ele>686</ele>
        <time>2026-09-02T13:23:12.000Z</time>
      </trkpt>
      <trkpt lat="48.13551" lon="6.86229">
        <ele>685.80004882812</ele>
        <time>2026-09-02T13:23:13.000Z</time>
      </trkpt>
      <trkpt lat="48.13551" lon="6.8623">
        <ele>685.80004882812</ele>
        <time>2026-09-02T13:23:14.000Z</time>
      </trkpt>
      <trkpt lat="48.13551" lon="6.86231">
        <ele>685.59997558594</ele>
        <time>2026-09-02T13:23:15.000Z</time>
      </trkpt>
      <trkpt lat="48.13551" lon="6.86231">
        <ele>685.59997558594</ele>
        <time>2026-09-02T13:23:16.000Z</time>
      </trkpt>
      <trkpt lat="48.13551" lon="6.86232">
        <ele>685.40002441406</ele>
        <time>2026-09-02T13:23:17.000Z</time>
      </trkpt>
      <trkpt lat="48.13552" lon="6.86233">
        <ele>685.19995117188</ele>
        <time>2026-09-02T13:23:18.000Z</time>
      </trkpt>
      <trkpt lat="48.13552" lon="6.86234">
        <ele>685.19995117188</ele>
        <time>2026-09-02T13:23:19.000Z</time>
      </trkpt>
      <trkpt lat="48.13553" lon="6.86235">
        <ele>685</ele>
        <time>2026-09-02T13:23:20.000Z</time>
      </trkpt>
      <trkpt lat="48.13553" lon="6.86237">
        <ele>684.80004882812</ele>
        <time>2026-09-02T13:23:21.000Z</time>
      </trkpt>
      <trkpt lat="48.13553" lon="6.86238">
        <ele>684.80004882812</ele>
        <time>2026-09-02T13:23:22.000Z</time>
      </trkpt>
      <trkpt lat="48.13553" lon="6.86239">
        <ele>684.59997558594</ele>
        <time>2026-09-02T13:23:23.000Z</time>
      </trkpt>
      <trkpt lat="48.13553" lon="6.8624">
        <ele>684.59997558594</ele>
        <time>2026-09-02T13:23:24.000Z</time>
      </trkpt>
      <trkpt lat="48.13553" lon="6.86242">
        <ele>684.40002441406</ele>
        <time>2026-09-02T13:23:25.000Z</time>
      </trkpt>
      <trkpt lat="48.13553" lon="6.86243">
        <ele>684.40002441406</ele>
        <time>2026-09-02T13:23:26.000Z</time>
      </trkpt>
      <trkpt lat="48.13553" lon="6.86244">
        <ele>684.40002441406</ele>
        <time>2026-09-02T13:23:27.000Z</time>
      </trkpt>
      <trkpt lat="48.13553" lon="6.86246">
        <ele>684.19995117188</ele>
        <time>2026-09-02T13:23:28.000Z</time>
      </trkpt>
      <trkpt lat="48.13553" lon="6.86247">
        <ele>684</ele>
        <time>2026-09-02T13:23:29.000Z</time>
      </trkpt>
      <trkpt lat="48.13554" lon="6.86248">
        <ele>684</ele>
        <time>2026-09-02T13:23:30.000Z</time>
      </trkpt>
      <trkpt lat="48.13553" lon="6.86249">
        <ele>683.80004882812</ele>
        <time>2026-09-02T13:23:31.000Z</time>
      </trkpt>
      <trkpt lat="48.13554" lon="6.8625">
        <ele>683.80004882812</ele>
        <time>2026-09-02T13:23:32.000Z</time>
      </trkpt>
      <trkpt lat="48.13554" lon="6.86252">
        <ele>683.59997558594</ele>
        <time>2026-09-02T13:23:33.000Z</time>
      </trkpt>
      <trkpt lat="48.13554" lon="6.86253">
        <ele>683.40002441406</ele>
        <time>2026-09-02T13:23:34.000Z</time>
      </trkpt>
      <trkpt lat="48.13554" lon="6.86254">
        <ele>683.40002441406</ele>
        <time>2026-09-02T13:23:35.000Z</time>
      </trkpt>
      <trkpt lat="48.13554" lon="6.86256">
        <ele>683.19995117188</ele>
        <time>2026-09-02T13:23:36.000Z</time>
      </trkpt>
      <trkpt lat="48.13555" lon="6.86257">
        <ele>683</ele>
        <time>2026-09-02T13:23:37.000Z</time>
      </trkpt>
      <trkpt lat="48.13555" lon="6.86259">
        <ele>682.80004882812</ele>
        <time>2026-09-02T13:23:38.000Z</time>
      </trkpt>
      <trkpt lat="48.13555" lon="6.86261">
        <ele>682.80004882812</ele>
        <time>2026-09-02T13:23:39.000Z</time>
      </trkpt>
      <trkpt lat="48.13555" lon="6.86262">
        <ele>682.59997558594</ele>
        <time>2026-09-02T13:23:40.000Z</time>
      </trkpt>
      <trkpt lat="48.13556" lon="6.86263">
        <ele>682.59997558594</ele>
        <time>2026-09-02T13:23:41.000Z</time>
      </trkpt>
      <trkpt lat="48.13556" lon="6.86264">
        <ele>682.40002441406</ele>
        <time>2026-09-02T13:23:42.000Z</time>
      </trkpt>
      <trkpt lat="48.13555" lon="6.86266">
        <ele>682.40002441406</ele>
        <time>2026-09-02T13:23:43.000Z</time>
      </trkpt>
      <trkpt lat="48.13556" lon="6.86267">
        <ele>682.19995117188</ele>
        <time>2026-09-02T13:23:44.000Z</time>
      </trkpt>
      <trkpt lat="48.13556" lon="6.86268">
        <ele>682.19995117188</ele>
        <time>2026-09-02T13:23:45.000Z</time>
      </trkpt>
      <trkpt lat="48.13556" lon="6.8627">
        <ele>682</ele>
        <time>2026-09-02T13:23:46.000Z</time>
      </trkpt>
      <trkpt lat="48.13556" lon="6.86271">
        <ele>682</ele>
        <time>2026-09-02T13:23:47.000Z</time>
      </trkpt>
      <trkpt lat="48.13556" lon="6.86272">
        <ele>681.80004882812</ele>
        <time>2026-09-02T13:23:48.000Z</time>
      </trkpt>
      <trkpt lat="48.13556" lon="6.86273">
        <ele>681.80004882812</ele>
        <time>2026-09-02T13:23:49.000Z</time>
      </trkpt>
      <trkpt lat="48.13556" lon="6.86274">
        <ele>681.59997558594</ele>
        <time>2026-09-02T13:23:50.000Z</time>
      </trkpt>
      <trkpt lat="48.13556" lon="6.86275">
        <ele>681.40002441406</ele>
        <time>2026-09-02T13:23:51.000Z</time>
      </trkpt>
      <trkpt lat="48.13556" lon="6.86276">
        <ele>681.19995117188</ele>
        <time>2026-09-02T13:23:52.000Z</time>
      </trkpt>
      <trkpt lat="48.13557" lon="6.86277">
        <ele>681.19995117188</ele>
        <time>2026-09-02T13:23:53.000Z</time>
      </trkpt>
      <trkpt lat="48.13557" lon="6.86278">
        <ele>681</ele>
        <time>2026-09-02T13:23:54.000Z</time>
      </trkpt>
      <trkpt lat="48.13557" lon="6.86279">
        <ele>680.80004882812</ele>
        <time>2026-09-02T13:23:55.000Z</time>
      </trkpt>
      <trkpt lat="48.13557" lon="6.8628">
        <ele>680.80004882812</ele>
        <time>2026-09-02T13:23:56.000Z</time>
      </trkpt>
      <trkpt lat="48.13557" lon="6.86281">
        <ele>680.80004882812</ele>
        <time>2026-09-02T13:23:57.000Z</time>
      </trkpt>
      <trkpt lat="48.13557" lon="6.86282">
        <ele>680.59997558594</ele>
        <time>2026-09-02T13:23:58.000Z</time>
      </trkpt>
      <trkpt lat="48.13557" lon="6.86283">
        <ele>680.59997558594</ele>
        <time>2026-09-02T13:23:59.000Z</time>
      </trkpt>
      <trkpt lat="48.13557" lon="6.86283">
        <ele>680.59997558594</ele>
        <time>2026-09-02T13:24:00.000Z</time>
      </trkpt>
      <trkpt lat="48.13557" lon="6.86283">
        <ele>680.59997558594</ele>
        <time>2026-09-02T13:24:01.000Z</time>
      </trkpt>
      <trkpt lat="48.13557" lon="6.86283">
        <ele>680.40002441406</ele>
        <time>2026-09-02T13:24:02.000Z</time>
      </trkpt>
      <trkpt lat="48.13557" lon="6.86283">
        <ele>680.40002441406</ele>
        <time>2026-09-02T13:24:03.000Z</time>
      </trkpt>
      <trkpt lat="48.13557" lon="6.86283">
        <ele>680.59997558594</ele>
        <time>2026-09-02T13:24:04.000Z</time>
      </trkpt>
      <trkpt lat="48.13557" lon="6.86284">
        <ele>680.59997558594</ele>
        <time>2026-09-02T13:24:05.000Z</time>
      </trkpt>
      <trkpt lat="48.13557" lon="6.86285">
        <ele>680.40002441406</ele>
        <time>2026-09-02T13:24:06.000Z</time>
      </trkpt>
      <trkpt lat="48.13557" lon="6.86286">
        <ele>680.40002441406</ele>
        <time>2026-09-02T13:24:07.000Z</time>
      </trkpt>
      <trkpt lat="48.13558" lon="6.86287">
        <ele>680.19995117188</ele>
        <time>2026-09-02T13:24:08.000Z</time>
      </trkpt>
      <trkpt lat="48.13558" lon="6.86289">
        <ele>680</ele>
        <time>2026-09-02T13:24:09.000Z</time>
      </trkpt>
      <trkpt lat="48.13558" lon="6.8629">
        <ele>679.80004882812</ele>
        <time>2026-09-02T13:24:10.000Z</time>
      </trkpt>
      <trkpt lat="48.13558" lon="6.86291">
        <ele>679.59997558594</ele>
        <time>2026-09-02T13:24:11.000Z</time>
      </trkpt>
      <trkpt lat="48.13558" lon="6.86293">
        <ele>679.40002441406</ele>
        <time>2026-09-02T13:24:12.000Z</time>
      </trkpt>
      <trkpt lat="48.13558" lon="6.86294">
        <ele>679.19995117188</ele>
        <time>2026-09-02T13:24:13.000Z</time>
      </trkpt>
      <trkpt lat="48.13558" lon="6.86295">
        <ele>679.19995117188</ele>
        <time>2026-09-02T13:24:14.000Z</time>
      </trkpt>
      <trkpt lat="48.13558" lon="6.86296">
        <ele>679</ele>
        <time>2026-09-02T13:24:15.000Z</time>
      </trkpt>
      <trkpt lat="48.13558" lon="6.86298">
        <ele>678.80004882812</ele>
        <time>2026-09-02T13:24:16.000Z</time>
      </trkpt>
      <trkpt lat="48.13558" lon="6.86299">
        <ele>678.59997558594</ele>
        <time>2026-09-02T13:24:17.000Z</time>
      </trkpt>
      <trkpt lat="48.13558" lon="6.863">
        <ele>678.40002441406</ele>
        <time>2026-09-02T13:24:18.000Z</time>
      </trkpt>
      <trkpt lat="48.13558" lon="6.86301">
        <ele>678.19995117188</ele>
        <time>2026-09-02T13:24:19.000Z</time>
      </trkpt>
      <trkpt lat="48.13557" lon="6.86302">
        <ele>678.19995117188</ele>
        <time>2026-09-02T13:24:20.000Z</time>
      </trkpt>
      <trkpt lat="48.13558" lon="6.86303">
        <ele>678</ele>
        <time>2026-09-02T13:24:21.000Z</time>
      </trkpt>
      <trkpt lat="48.13558" lon="6.86305">
        <ele>678</ele>
        <time>2026-09-02T13:24:22.000Z</time>
      </trkpt>
      <trkpt lat="48.13558" lon="6.86306">
        <ele>678</ele>
        <time>2026-09-02T13:24:23.000Z</time>
      </trkpt>
      <trkpt lat="48.13557" lon="6.86307">
        <ele>678</ele>
        <time>2026-09-02T13:24:24.000Z</time>
      </trkpt>
      <trkpt lat="48.13557" lon="6.86308">
        <ele>678</ele>
        <time>2026-09-02T13:24:25.000Z</time>
      </trkpt>
      <trkpt lat="48.13557" lon="6.8631">
        <ele>677.80004882812</ele>
        <time>2026-09-02T13:24:26.000Z</time>
      </trkpt>
      <trkpt lat="48.13557" lon="6.86311">
        <ele>677.59997558594</ele>
        <time>2026-09-02T13:24:27.000Z</time>
      </trkpt>
      <trkpt lat="48.13557" lon="6.86313">
        <ele>677.59997558594</ele>
        <time>2026-09-02T13:24:28.000Z</time>
      </trkpt>
      <trkpt lat="48.13557" lon="6.86315">
        <ele>677.40002441406</ele>
        <time>2026-09-02T13:24:29.000Z</time>
      </trkpt>
      <trkpt lat="48.13557" lon="6.86316">
        <ele>677.19995117188</ele>
        <time>2026-09-02T13:24:30.000Z</time>
      </trkpt>
      <trkpt lat="48.13557" lon="6.86318">
        <ele>677.19995117188</ele>
        <time>2026-09-02T13:24:31.000Z</time>
      </trkpt>
      <trkpt lat="48.13556" lon="6.8632">
        <ele>677</ele>
        <time>2026-09-02T13:24:32.000Z</time>
      </trkpt>
      <trkpt lat="48.13556" lon="6.86321">
        <ele>677</ele>
        <time>2026-09-02T13:24:33.000Z</time>
      </trkpt>
      <trkpt lat="48.13556" lon="6.86322">
        <ele>676.80004882812</ele>
        <time>2026-09-02T13:24:34.000Z</time>
      </trkpt>
      <trkpt lat="48.13556" lon="6.86324">
        <ele>676.80004882812</ele>
        <time>2026-09-02T13:24:35.000Z</time>
      </trkpt>
      <trkpt lat="48.13556" lon="6.86325">
        <ele>676.59997558594</ele>
        <time>2026-09-02T13:24:36.000Z</time>
      </trkpt>
      <trkpt lat="48.13556" lon="6.86327">
        <ele>676.59997558594</ele>
        <time>2026-09-02T13:24:37.000Z</time>
      </trkpt>
      <trkpt lat="48.13556" lon="6.86327">
        <ele>676.40002441406</ele>
        <time>2026-09-02T13:24:38.000Z</time>
      </trkpt>
      <trkpt lat="48.13555" lon="6.86328">
        <ele>676.19995117188</ele>
        <time>2026-09-02T13:24:39.000Z</time>
      </trkpt>
      <trkpt lat="48.13555" lon="6.8633">
        <ele>676</ele>
        <time>2026-09-02T13:24:40.000Z</time>
      </trkpt>
      <trkpt lat="48.13555" lon="6.8633">
        <ele>675.80004882812</ele>
        <time>2026-09-02T13:24:41.000Z</time>
      </trkpt>
      <trkpt lat="48.13554" lon="6.86331">
        <ele>675.80004882812</ele>
        <time>2026-09-02T13:24:42.000Z</time>
      </trkpt>
      <trkpt lat="48.13554" lon="6.86333">
        <ele>675.59997558594</ele>
        <time>2026-09-02T13:24:43.000Z</time>
      </trkpt>
      <trkpt lat="48.13554" lon="6.86334">
        <ele>675.59997558594</ele>
        <time>2026-09-02T13:24:44.000Z</time>
      </trkpt>
      <trkpt lat="48.13554" lon="6.86335">
        <ele>675.40002441406</ele>
        <time>2026-09-02T13:24:45.000Z</time>
      </trkpt>
      <trkpt lat="48.13554" lon="6.86337">
        <ele>675.40002441406</ele>
        <time>2026-09-02T13:24:46.000Z</time>
      </trkpt>
      <trkpt lat="48.13553" lon="6.86338">
        <ele>675.19995117188</ele>
        <time>2026-09-02T13:24:47.000Z</time>
      </trkpt>
      <trkpt lat="48.13552" lon="6.86339">
        <ele>675</ele>
        <time>2026-09-02T13:24:48.000Z</time>
      </trkpt>
      <trkpt lat="48.13552" lon="6.86341">
        <ele>675</ele>
        <time>2026-09-02T13:24:49.000Z</time>
      </trkpt>
      <trkpt lat="48.13552" lon="6.86342">
        <ele>675</ele>
        <time>2026-09-02T13:24:50.000Z</time>
      </trkpt>
      <trkpt lat="48.13551" lon="6.86343">
        <ele>674.80004882812</ele>
        <time>2026-09-02T13:24:51.000Z</time>
      </trkpt>
      <trkpt lat="48.13551" lon="6.86344">
        <ele>674.80004882812</ele>
        <time>2026-09-02T13:24:52.000Z</time>
      </trkpt>
      <trkpt lat="48.1355" lon="6.86346">
        <ele>674.59997558594</ele>
        <time>2026-09-02T13:24:53.000Z</time>
      </trkpt>
      <trkpt lat="48.13549" lon="6.86347">
        <ele>674.59997558594</ele>
        <time>2026-09-02T13:24:54.000Z</time>
      </trkpt>
      <trkpt lat="48.13549" lon="6.86348">
        <ele>674.40002441406</ele>
        <time>2026-09-02T13:24:55.000Z</time>
      </trkpt>
      <trkpt lat="48.13549" lon="6.86348">
        <ele>674.40002441406</ele>
        <time>2026-09-02T13:24:56.000Z</time>
      </trkpt>
      <trkpt lat="48.13548" lon="6.86349">
        <ele>674.19995117188</ele>
        <time>2026-09-02T13:24:57.000Z</time>
      </trkpt>
      <trkpt lat="48.13548" lon="6.8635">
        <ele>674</ele>
        <time>2026-09-02T13:24:58.000Z</time>
      </trkpt>
      <trkpt lat="48.13547" lon="6.86351">
        <ele>674</ele>
        <time>2026-09-02T13:24:59.000Z</time>
      </trkpt>
      <trkpt lat="48.13546" lon="6.86353">
        <ele>673.80004882812</ele>
        <time>2026-09-02T13:25:00.000Z</time>
      </trkpt>
      <trkpt lat="48.13546" lon="6.86354">
        <ele>673.59997558594</ele>
        <time>2026-09-02T13:25:01.000Z</time>
      </trkpt>
      <trkpt lat="48.13546" lon="6.86355">
        <ele>673.40002441406</ele>
        <time>2026-09-02T13:25:02.000Z</time>
      </trkpt>
      <trkpt lat="48.13546" lon="6.86356">
        <ele>673.19995117188</ele>
        <time>2026-09-02T13:25:03.000Z</time>
      </trkpt>
      <trkpt lat="48.13545" lon="6.86357">
        <ele>673</ele>
        <time>2026-09-02T13:25:04.000Z</time>
      </trkpt>
      <trkpt lat="48.13545" lon="6.86358">
        <ele>672.80004882812</ele>
        <time>2026-09-02T13:25:05.000Z</time>
      </trkpt>
      <trkpt lat="48.13545" lon="6.86359">
        <ele>672.80004882812</ele>
        <time>2026-09-02T13:25:06.000Z</time>
      </trkpt>
      <trkpt lat="48.13544" lon="6.86361">
        <ele>672.59997558594</ele>
        <time>2026-09-02T13:25:07.000Z</time>
      </trkpt>
      <trkpt lat="48.13544" lon="6.86362">
        <ele>672.59997558594</ele>
        <time>2026-09-02T13:25:08.000Z</time>
      </trkpt>
      <trkpt lat="48.13544" lon="6.86363">
        <ele>672.40002441406</ele>
        <time>2026-09-02T13:25:09.000Z</time>
      </trkpt>
      <trkpt lat="48.13544" lon="6.86365">
        <ele>672.40002441406</ele>
        <time>2026-09-02T13:25:10.000Z</time>
      </trkpt>
      <trkpt lat="48.13543" lon="6.86366">
        <ele>672.19995117188</ele>
        <time>2026-09-02T13:25:11.000Z</time>
      </trkpt>
      <trkpt lat="48.13543" lon="6.86367">
        <ele>672</ele>
        <time>2026-09-02T13:25:12.000Z</time>
      </trkpt>
      <trkpt lat="48.13543" lon="6.86369">
        <ele>671.80004882812</ele>
        <time>2026-09-02T13:25:13.000Z</time>
      </trkpt>
      <trkpt lat="48.13543" lon="6.8637">
        <ele>671.80004882812</ele>
        <time>2026-09-02T13:25:14.000Z</time>
      </trkpt>
      <trkpt lat="48.13543" lon="6.86371">
        <ele>671.59997558594</ele>
        <time>2026-09-02T13:25:15.000Z</time>
      </trkpt>
      <trkpt lat="48.13543" lon="6.86372">
        <ele>671.59997558594</ele>
        <time>2026-09-02T13:25:16.000Z</time>
      </trkpt>
      <trkpt lat="48.13543" lon="6.86373">
        <ele>671.40002441406</ele>
        <time>2026-09-02T13:25:17.000Z</time>
      </trkpt>
      <trkpt lat="48.13543" lon="6.86374">
        <ele>671.19995117188</ele>
        <time>2026-09-02T13:25:18.000Z</time>
      </trkpt>
      <trkpt lat="48.13542" lon="6.86375">
        <ele>671.19995117188</ele>
        <time>2026-09-02T13:25:19.000Z</time>
      </trkpt>
      <trkpt lat="48.13542" lon="6.86376">
        <ele>671</ele>
        <time>2026-09-02T13:25:20.000Z</time>
      </trkpt>
      <trkpt lat="48.13542" lon="6.86377">
        <ele>671</ele>
        <time>2026-09-02T13:25:21.000Z</time>
      </trkpt>
      <trkpt lat="48.13541" lon="6.86377">
        <ele>670.80004882812</ele>
        <time>2026-09-02T13:25:22.000Z</time>
      </trkpt>
      <trkpt lat="48.13541" lon="6.86378">
        <ele>670.59997558594</ele>
        <time>2026-09-02T13:25:23.000Z</time>
      </trkpt>
      <trkpt lat="48.1354" lon="6.86379">
        <ele>670.59997558594</ele>
        <time>2026-09-02T13:25:24.000Z</time>
      </trkpt>
      <trkpt lat="48.1354" lon="6.8638">
        <ele>670.40002441406</ele>
        <time>2026-09-02T13:25:25.000Z</time>
      </trkpt>
      <trkpt lat="48.1354" lon="6.86382">
        <ele>670.40002441406</ele>
        <time>2026-09-02T13:25:26.000Z</time>
      </trkpt>
      <trkpt lat="48.1354" lon="6.86383">
        <ele>670.19995117188</ele>
        <time>2026-09-02T13:25:27.000Z</time>
      </trkpt>
      <trkpt lat="48.13539" lon="6.86383">
        <ele>670.19995117188</ele>
        <time>2026-09-02T13:25:28.000Z</time>
      </trkpt>
      <trkpt lat="48.13538" lon="6.86384">
        <ele>670</ele>
        <time>2026-09-02T13:25:29.000Z</time>
      </trkpt>
      <trkpt lat="48.13538" lon="6.86385">
        <ele>669.80004882812</ele>
        <time>2026-09-02T13:25:30.000Z</time>
      </trkpt>
      <trkpt lat="48.13538" lon="6.86387">
        <ele>669.40002441406</ele>
        <time>2026-09-02T13:25:31.000Z</time>
      </trkpt>
      <trkpt lat="48.13537" lon="6.86388">
        <ele>669.19995117188</ele>
        <time>2026-09-02T13:25:32.000Z</time>
      </trkpt>
      <trkpt lat="48.13537" lon="6.86389">
        <ele>669</ele>
        <time>2026-09-02T13:25:33.000Z</time>
      </trkpt>
      <trkpt lat="48.13536" lon="6.8639">
        <ele>669</ele>
        <time>2026-09-02T13:25:34.000Z</time>
      </trkpt>
      <trkpt lat="48.13536" lon="6.8639">
        <ele>668.80004882812</ele>
        <time>2026-09-02T13:25:35.000Z</time>
      </trkpt>
      <trkpt lat="48.13536" lon="6.86391">
        <ele>668.59997558594</ele>
        <time>2026-09-02T13:25:36.000Z</time>
      </trkpt>
      <trkpt lat="48.13535" lon="6.86391">
        <ele>668.40002441406</ele>
        <time>2026-09-02T13:25:37.000Z</time>
      </trkpt>
      <trkpt lat="48.13535" lon="6.86392">
        <ele>668.19995117188</ele>
        <time>2026-09-02T13:25:38.000Z</time>
      </trkpt>
      <trkpt lat="48.13534" lon="6.86393">
        <ele>668.19995117188</ele>
        <time>2026-09-02T13:25:39.000Z</time>
      </trkpt>
      <trkpt lat="48.13534" lon="6.86394">
        <ele>668.19995117188</ele>
        <time>2026-09-02T13:25:40.000Z</time>
      </trkpt>
      <trkpt lat="48.13533" lon="6.86395">
        <ele>668</ele>
        <time>2026-09-02T13:25:41.000Z</time>
      </trkpt>
      <trkpt lat="48.13532" lon="6.86396">
        <ele>668</ele>
        <time>2026-09-02T13:25:42.000Z</time>
      </trkpt>
      <trkpt lat="48.13532" lon="6.86397">
        <ele>667.80004882812</ele>
        <time>2026-09-02T13:25:43.000Z</time>
      </trkpt>
      <trkpt lat="48.13532" lon="6.86398">
        <ele>667.59997558594</ele>
        <time>2026-09-02T13:25:44.000Z</time>
      </trkpt>
      <trkpt lat="48.13532" lon="6.86399">
        <ele>667.40002441406</ele>
        <time>2026-09-02T13:25:45.000Z</time>
      </trkpt>
      <trkpt lat="48.13531" lon="6.864">
        <ele>667.40002441406</ele>
        <time>2026-09-02T13:25:46.000Z</time>
      </trkpt>
      <trkpt lat="48.13531" lon="6.86402">
        <ele>667</ele>
        <time>2026-09-02T13:25:47.000Z</time>
      </trkpt>
      <trkpt lat="48.13531" lon="6.86402">
        <ele>666.80004882812</ele>
        <time>2026-09-02T13:25:48.000Z</time>
      </trkpt>
      <trkpt lat="48.1353" lon="6.86404">
        <ele>666.80004882812</ele>
        <time>2026-09-02T13:25:49.000Z</time>
      </trkpt>
      <trkpt lat="48.1353" lon="6.86405">
        <ele>666.59997558594</ele>
        <time>2026-09-02T13:25:50.000Z</time>
      </trkpt>
      <trkpt lat="48.1353" lon="6.86406">
        <ele>666.40002441406</ele>
        <time>2026-09-02T13:25:51.000Z</time>
      </trkpt>
      <trkpt lat="48.1353" lon="6.86408">
        <ele>666.40002441406</ele>
        <time>2026-09-02T13:25:52.000Z</time>
      </trkpt>
      <trkpt lat="48.13529" lon="6.86409">
        <ele>666.40002441406</ele>
        <time>2026-09-02T13:25:53.000Z</time>
      </trkpt>
      <trkpt lat="48.13529" lon="6.8641">
        <ele>666.19995117188</ele>
        <time>2026-09-02T13:25:54.000Z</time>
      </trkpt>
      <trkpt lat="48.13529" lon="6.86411">
        <ele>666.19995117188</ele>
        <time>2026-09-02T13:25:55.000Z</time>
      </trkpt>
      <trkpt lat="48.13529" lon="6.86412">
        <ele>666.19995117188</ele>
        <time>2026-09-02T13:25:56.000Z</time>
      </trkpt>
      <trkpt lat="48.13529" lon="6.86412">
        <ele>666</ele>
        <time>2026-09-02T13:25:57.000Z</time>
      </trkpt>
      <trkpt lat="48.13529" lon="6.86412">
        <ele>666</ele>
        <time>2026-09-02T13:25:58.000Z</time>
      </trkpt>
      <trkpt lat="48.13529" lon="6.86412">
        <ele>665.80004882812</ele>
        <time>2026-09-02T13:25:59.000Z</time>
      </trkpt>
      <trkpt lat="48.13529" lon="6.86412">
        <ele>665.80004882812</ele>
        <time>2026-09-02T13:26:00.000Z</time>
      </trkpt>
      <trkpt lat="48.13529" lon="6.86412">
        <ele>665.80004882812</ele>
        <time>2026-09-02T13:26:01.000Z</time>
      </trkpt>
      <trkpt lat="48.13529" lon="6.86412">
        <ele>665.80004882812</ele>
        <time>2026-09-02T13:26:02.000Z</time>
      </trkpt>
      <trkpt lat="48.13529" lon="6.86412">
        <ele>665.80004882812</ele>
        <time>2026-09-02T13:26:03.000Z</time>
      </trkpt>
      <trkpt lat="48.13529" lon="6.86412">
        <ele>665.80004882812</ele>
        <time>2026-09-02T13:26:04.000Z</time>
      </trkpt>
      <trkpt lat="48.13529" lon="6.86412">
        <ele>665.80004882812</ele>
        <time>2026-09-02T13:26:05.000Z</time>
      </trkpt>
      <trkpt lat="48.13529" lon="6.86413">
        <ele>665.80004882812</ele>
        <time>2026-09-02T13:26:06.000Z</time>
      </trkpt>
      <trkpt lat="48.13529" lon="6.86414">
        <ele>665.59997558594</ele>
        <time>2026-09-02T13:26:07.000Z</time>
      </trkpt>
      <trkpt lat="48.13529" lon="6.86415">
        <ele>665.59997558594</ele>
        <time>2026-09-02T13:26:08.000Z</time>
      </trkpt>
      <trkpt lat="48.13529" lon="6.86416">
        <ele>665.59997558594</ele>
        <time>2026-09-02T13:26:09.000Z</time>
      </trkpt>
      <trkpt lat="48.13529" lon="6.86418">
        <ele>665.40002441406</ele>
        <time>2026-09-02T13:26:10.000Z</time>
      </trkpt>
      <trkpt lat="48.13529" lon="6.8642">
        <ele>665.40002441406</ele>
        <time>2026-09-02T13:26:11.000Z</time>
      </trkpt>
      <trkpt lat="48.13529" lon="6.86421">
        <ele>665.19995117188</ele>
        <time>2026-09-02T13:26:12.000Z</time>
      </trkpt>
      <trkpt lat="48.13528" lon="6.86423">
        <ele>665</ele>
        <time>2026-09-02T13:26:13.000Z</time>
      </trkpt>
      <trkpt lat="48.13528" lon="6.86424">
        <ele>665</ele>
        <time>2026-09-02T13:26:14.000Z</time>
      </trkpt>
      <trkpt lat="48.13529" lon="6.86425">
        <ele>664.80004882812</ele>
        <time>2026-09-02T13:26:15.000Z</time>
      </trkpt>
      <trkpt lat="48.13529" lon="6.86426">
        <ele>664.59997558594</ele>
        <time>2026-09-02T13:26:16.000Z</time>
      </trkpt>
      <trkpt lat="48.13529" lon="6.86427">
        <ele>664.59997558594</ele>
        <time>2026-09-02T13:26:17.000Z</time>
      </trkpt>
      <trkpt lat="48.13529" lon="6.86428">
        <ele>664.40002441406</ele>
        <time>2026-09-02T13:26:18.000Z</time>
      </trkpt>
      <trkpt lat="48.13529" lon="6.86429">
        <ele>664.19995117188</ele>
        <time>2026-09-02T13:26:19.000Z</time>
      </trkpt>
      <trkpt lat="48.13529" lon="6.8643">
        <ele>664</ele>
        <time>2026-09-02T13:26:20.000Z</time>
      </trkpt>
      <trkpt lat="48.13529" lon="6.86431">
        <ele>663.80004882812</ele>
        <time>2026-09-02T13:26:21.000Z</time>
      </trkpt>
      <trkpt lat="48.13529" lon="6.86432">
        <ele>663.80004882812</ele>
        <time>2026-09-02T13:26:22.000Z</time>
      </trkpt>
      <trkpt lat="48.13529" lon="6.86434">
        <ele>663.80004882812</ele>
        <time>2026-09-02T13:26:23.000Z</time>
      </trkpt>
      <trkpt lat="48.13529" lon="6.86436">
        <ele>663.80004882812</ele>
        <time>2026-09-02T13:26:24.000Z</time>
      </trkpt>
      <trkpt lat="48.13529" lon="6.86437">
        <ele>663.80004882812</ele>
        <time>2026-09-02T13:26:25.000Z</time>
      </trkpt>
      <trkpt lat="48.1353" lon="6.86438">
        <ele>663.80004882812</ele>
        <time>2026-09-02T13:26:26.000Z</time>
      </trkpt>
      <trkpt lat="48.1353" lon="6.86439">
        <ele>663.59997558594</ele>
        <time>2026-09-02T13:26:27.000Z</time>
      </trkpt>
      <trkpt lat="48.1353" lon="6.86441">
        <ele>663.59997558594</ele>
        <time>2026-09-02T13:26:28.000Z</time>
      </trkpt>
      <trkpt lat="48.1353" lon="6.86442">
        <ele>663.40002441406</ele>
        <time>2026-09-02T13:26:29.000Z</time>
      </trkpt>
      <trkpt lat="48.13531" lon="6.86444">
        <ele>663.40002441406</ele>
        <time>2026-09-02T13:26:30.000Z</time>
      </trkpt>
      <trkpt lat="48.13531" lon="6.86445">
        <ele>663.19995117188</ele>
        <time>2026-09-02T13:26:31.000Z</time>
      </trkpt>
      <trkpt lat="48.13532" lon="6.86446">
        <ele>663.19995117188</ele>
        <time>2026-09-02T13:26:32.000Z</time>
      </trkpt>
      <trkpt lat="48.13532" lon="6.86447">
        <ele>663</ele>
        <time>2026-09-02T13:26:33.000Z</time>
      </trkpt>
      <trkpt lat="48.13533" lon="6.86449">
        <ele>663</ele>
        <time>2026-09-02T13:26:34.000Z</time>
      </trkpt>
      <trkpt lat="48.13534" lon="6.8645">
        <ele>663</ele>
        <time>2026-09-02T13:26:35.000Z</time>
      </trkpt>
      <trkpt lat="48.13534" lon="6.86451">
        <ele>662.80004882812</ele>
        <time>2026-09-02T13:26:36.000Z</time>
      </trkpt>
      <trkpt lat="48.13535" lon="6.86453">
        <ele>662.80004882812</ele>
        <time>2026-09-02T13:26:37.000Z</time>
      </trkpt>
      <trkpt lat="48.13535" lon="6.86453">
        <ele>662.59997558594</ele>
        <time>2026-09-02T13:26:38.000Z</time>
      </trkpt>
      <trkpt lat="48.13536" lon="6.86454">
        <ele>662.40002441406</ele>
        <time>2026-09-02T13:26:39.000Z</time>
      </trkpt>
      <trkpt lat="48.13536" lon="6.86455">
        <ele>662.40002441406</ele>
        <time>2026-09-02T13:26:40.000Z</time>
      </trkpt>
      <trkpt lat="48.13537" lon="6.86455">
        <ele>662.59997558594</ele>
        <time>2026-09-02T13:26:41.000Z</time>
      </trkpt>
      <trkpt lat="48.13538" lon="6.86456">
        <ele>662.59997558594</ele>
        <time>2026-09-02T13:26:42.000Z</time>
      </trkpt>
      <trkpt lat="48.13538" lon="6.86456">
        <ele>662.59997558594</ele>
        <time>2026-09-02T13:26:43.000Z</time>
      </trkpt>
      <trkpt lat="48.13539" lon="6.86457">
        <ele>662.59997558594</ele>
        <time>2026-09-02T13:26:44.000Z</time>
      </trkpt>
      <trkpt lat="48.1354" lon="6.86457">
        <ele>662.40002441406</ele>
        <time>2026-09-02T13:26:45.000Z</time>
      </trkpt>
      <trkpt lat="48.13541" lon="6.86458">
        <ele>662.40002441406</ele>
        <time>2026-09-02T13:26:46.000Z</time>
      </trkpt>
      <trkpt lat="48.13542" lon="6.86458">
        <ele>662.40002441406</ele>
        <time>2026-09-02T13:26:47.000Z</time>
      </trkpt>
      <trkpt lat="48.13542" lon="6.8646">
        <ele>662.19995117188</ele>
        <time>2026-09-02T13:26:48.000Z</time>
      </trkpt>
      <trkpt lat="48.13543" lon="6.8646">
        <ele>662</ele>
        <time>2026-09-02T13:26:49.000Z</time>
      </trkpt>
      <trkpt lat="48.13544" lon="6.86461">
        <ele>662</ele>
        <time>2026-09-02T13:26:50.000Z</time>
      </trkpt>
      <trkpt lat="48.13545" lon="6.86462">
        <ele>662</ele>
        <time>2026-09-02T13:26:51.000Z</time>
      </trkpt>
      <trkpt lat="48.13546" lon="6.86462">
        <ele>661.80004882812</ele>
        <time>2026-09-02T13:26:52.000Z</time>
      </trkpt>
      <trkpt lat="48.13547" lon="6.86463">
        <ele>661.80004882812</ele>
        <time>2026-09-02T13:26:53.000Z</time>
      </trkpt>
      <trkpt lat="48.13547" lon="6.86464">
        <ele>661.80004882812</ele>
        <time>2026-09-02T13:26:54.000Z</time>
      </trkpt>
      <trkpt lat="48.13548" lon="6.86464">
        <ele>661.80004882812</ele>
        <time>2026-09-02T13:26:55.000Z</time>
      </trkpt>
      <trkpt lat="48.13549" lon="6.86465">
        <ele>661.59997558594</ele>
        <time>2026-09-02T13:26:56.000Z</time>
      </trkpt>
      <trkpt lat="48.1355" lon="6.86465">
        <ele>661.59997558594</ele>
        <time>2026-09-02T13:26:57.000Z</time>
      </trkpt>
      <trkpt lat="48.13551" lon="6.86466">
        <ele>661.59997558594</ele>
        <time>2026-09-02T13:26:58.000Z</time>
      </trkpt>
      <trkpt lat="48.13552" lon="6.86466">
        <ele>661.59997558594</ele>
        <time>2026-09-02T13:26:59.000Z</time>
      </trkpt>
      <trkpt lat="48.13553" lon="6.86467">
        <ele>661.59997558594</ele>
        <time>2026-09-02T13:27:00.000Z</time>
      </trkpt>
      <trkpt lat="48.13553" lon="6.86468">
        <ele>661.59997558594</ele>
        <time>2026-09-02T13:27:01.000Z</time>
      </trkpt>
      <trkpt lat="48.13554" lon="6.86469">
        <ele>661.59997558594</ele>
        <time>2026-09-02T13:27:02.000Z</time>
      </trkpt>
      <trkpt lat="48.13555" lon="6.86469">
        <ele>661.59997558594</ele>
        <time>2026-09-02T13:27:03.000Z</time>
      </trkpt>
      <trkpt lat="48.13556" lon="6.8647">
        <ele>661.59997558594</ele>
        <time>2026-09-02T13:27:04.000Z</time>
      </trkpt>
      <trkpt lat="48.13557" lon="6.8647">
        <ele>661.59997558594</ele>
        <time>2026-09-02T13:27:05.000Z</time>
      </trkpt>
      <trkpt lat="48.13558" lon="6.86471">
        <ele>661.59997558594</ele>
        <time>2026-09-02T13:27:06.000Z</time>
      </trkpt>
      <trkpt lat="48.13558" lon="6.86472">
        <ele>661.40002441406</ele>
        <time>2026-09-02T13:27:07.000Z</time>
      </trkpt>
      <trkpt lat="48.13559" lon="6.86473">
        <ele>661.40002441406</ele>
        <time>2026-09-02T13:27:08.000Z</time>
      </trkpt>
      <trkpt lat="48.1356" lon="6.86474">
        <ele>661.40002441406</ele>
        <time>2026-09-02T13:27:09.000Z</time>
      </trkpt>
      <trkpt lat="48.13561" lon="6.86475">
        <ele>661.40002441406</ele>
        <time>2026-09-02T13:27:10.000Z</time>
      </trkpt>
      <trkpt lat="48.13562" lon="6.86476">
        <ele>661.40002441406</ele>
        <time>2026-09-02T13:27:11.000Z</time>
      </trkpt>
      <trkpt lat="48.13563" lon="6.86476">
        <ele>661.40002441406</ele>
        <time>2026-09-02T13:27:12.000Z</time>
      </trkpt>
      <trkpt lat="48.13563" lon="6.86477">
        <ele>661.40002441406</ele>
        <time>2026-09-02T13:27:13.000Z</time>
      </trkpt>
      <trkpt lat="48.13564" lon="6.86478">
        <ele>661.40002441406</ele>
        <time>2026-09-02T13:27:14.000Z</time>
      </trkpt>
      <trkpt lat="48.13565" lon="6.86478">
        <ele>661.40002441406</ele>
        <time>2026-09-02T13:27:15.000Z</time>
      </trkpt>
      <trkpt lat="48.13566" lon="6.86479">
        <ele>661.19995117188</ele>
        <time>2026-09-02T13:27:16.000Z</time>
      </trkpt>
      <trkpt lat="48.13566" lon="6.8648">
        <ele>661.19995117188</ele>
        <time>2026-09-02T13:27:17.000Z</time>
      </trkpt>
      <trkpt lat="48.13567" lon="6.86481">
        <ele>661</ele>
        <time>2026-09-02T13:27:18.000Z</time>
      </trkpt>
      <trkpt lat="48.13568" lon="6.86482">
        <ele>660.80004882812</ele>
        <time>2026-09-02T13:27:19.000Z</time>
      </trkpt>
      <trkpt lat="48.13569" lon="6.86483">
        <ele>660.80004882812</ele>
        <time>2026-09-02T13:27:20.000Z</time>
      </trkpt>
      <trkpt lat="48.1357" lon="6.86484">
        <ele>660.80004882812</ele>
        <time>2026-09-02T13:27:21.000Z</time>
      </trkpt>
      <trkpt lat="48.1357" lon="6.86485">
        <ele>660.80004882812</ele>
        <time>2026-09-02T13:27:22.000Z</time>
      </trkpt>
      <trkpt lat="48.13571" lon="6.86486">
        <ele>661</ele>
        <time>2026-09-02T13:27:23.000Z</time>
      </trkpt>
      <trkpt lat="48.13572" lon="6.86487">
        <ele>661</ele>
        <time>2026-09-02T13:27:24.000Z</time>
      </trkpt>
      <trkpt lat="48.13573" lon="6.86488">
        <ele>661.19995117188</ele>
        <time>2026-09-02T13:27:25.000Z</time>
      </trkpt>
      <trkpt lat="48.13573" lon="6.8649">
        <ele>661.19995117188</ele>
        <time>2026-09-02T13:27:26.000Z</time>
      </trkpt>
      <trkpt lat="48.13574" lon="6.86491">
        <ele>661.19995117188</ele>
        <time>2026-09-02T13:27:27.000Z</time>
      </trkpt>
      <trkpt lat="48.13575" lon="6.86492">
        <ele>661</ele>
        <time>2026-09-02T13:27:28.000Z</time>
      </trkpt>
      <trkpt lat="48.13575" lon="6.86492">
        <ele>661</ele>
        <time>2026-09-02T13:27:29.000Z</time>
      </trkpt>
      <trkpt lat="48.13576" lon="6.86493">
        <ele>661</ele>
        <time>2026-09-02T13:27:30.000Z</time>
      </trkpt>
      <trkpt lat="48.13577" lon="6.86495">
        <ele>661</ele>
        <time>2026-09-02T13:27:31.000Z</time>
      </trkpt>
      <trkpt lat="48.13577" lon="6.86496">
        <ele>661</ele>
        <time>2026-09-02T13:27:32.000Z</time>
      </trkpt>
      <trkpt lat="48.13577" lon="6.86497">
        <ele>661</ele>
        <time>2026-09-02T13:27:33.000Z</time>
      </trkpt>
      <trkpt lat="48.13578" lon="6.86498">
        <ele>661</ele>
        <time>2026-09-02T13:27:34.000Z</time>
      </trkpt>
      <trkpt lat="48.13578" lon="6.86499">
        <ele>661</ele>
        <time>2026-09-02T13:27:35.000Z</time>
      </trkpt>
      <trkpt lat="48.13578" lon="6.86499">
        <ele>660.80004882812</ele>
        <time>2026-09-02T13:27:36.000Z</time>
      </trkpt>
      <trkpt lat="48.13578" lon="6.865">
        <ele>660.80004882812</ele>
        <time>2026-09-02T13:27:37.000Z</time>
      </trkpt>
      <trkpt lat="48.13578" lon="6.86501">
        <ele>661</ele>
        <time>2026-09-02T13:27:38.000Z</time>
      </trkpt>
      <trkpt lat="48.13578" lon="6.86501">
        <ele>661</ele>
        <time>2026-09-02T13:27:39.000Z</time>
      </trkpt>
      <trkpt lat="48.13578" lon="6.86502">
        <ele>661.19995117188</ele>
        <time>2026-09-02T13:27:40.000Z</time>
      </trkpt>
      <trkpt lat="48.13578" lon="6.86502">
        <ele>661.19995117188</ele>
        <time>2026-09-02T13:27:41.000Z</time>
      </trkpt>
      <trkpt lat="48.13578" lon="6.86503">
        <ele>661.19995117188</ele>
        <time>2026-09-02T13:27:42.000Z</time>
      </trkpt>
      <trkpt lat="48.13579" lon="6.86503">
        <ele>661.19995117188</ele>
        <time>2026-09-02T13:27:43.000Z</time>
      </trkpt>
      <trkpt lat="48.13579" lon="6.86504">
        <ele>661.19995117188</ele>
        <time>2026-09-02T13:27:44.000Z</time>
      </trkpt>
      <trkpt lat="48.13579" lon="6.86504">
        <ele>661.19995117188</ele>
        <time>2026-09-02T13:27:45.000Z</time>
      </trkpt>
      <trkpt lat="48.13579" lon="6.86505">
        <ele>661.19995117188</ele>
        <time>2026-09-02T13:27:46.000Z</time>
      </trkpt>
      <trkpt lat="48.13579" lon="6.86505">
        <ele>661.19995117188</ele>
        <time>2026-09-02T13:27:47.000Z</time>
      </trkpt>
      <trkpt lat="48.13579" lon="6.86505">
        <ele>661</ele>
        <time>2026-09-02T13:27:48.000Z</time>
      </trkpt>
      <trkpt lat="48.13579" lon="6.86505">
        <ele>661</ele>
        <time>2026-09-02T13:27:49.000Z</time>
      </trkpt>
      <trkpt lat="48.13579" lon="6.86505">
        <ele>661</ele>
        <time>2026-09-02T13:27:50.000Z</time>
      </trkpt>
      <trkpt lat="48.13579" lon="6.86505">
        <ele>661</ele>
        <time>2026-09-02T13:27:51.000Z</time>
      </trkpt>
      <trkpt lat="48.13579" lon="6.86504">
        <ele>661</ele>
        <time>2026-09-02T13:27:52.000Z</time>
      </trkpt>
      <trkpt lat="48.13579" lon="6.86503">
        <ele>661</ele>
        <time>2026-09-02T13:27:53.000Z</time>
      </trkpt>
      <trkpt lat="48.13579" lon="6.86505">
        <ele>661</ele>
        <time>2026-09-02T13:27:54.000Z</time>
      </trkpt>
      <trkpt lat="48.13579" lon="6.86505">
        <ele>661</ele>
        <time>2026-09-02T13:27:55.000Z</time>
      </trkpt>
      <trkpt lat="48.13579" lon="6.86505">
        <ele>661.19995117188</ele>
        <time>2026-09-02T13:27:56.000Z</time>
      </trkpt>
      <trkpt lat="48.13579" lon="6.86503">
        <ele>661.19995117188</ele>
        <time>2026-09-02T13:27:57.000Z</time>
      </trkpt>
      <trkpt lat="48.13579" lon="6.86503">
        <ele>661</ele>
        <time>2026-09-02T13:27:58.000Z</time>
      </trkpt>
      <trkpt lat="48.13578" lon="6.86503">
        <ele>660.80004882812</ele>
        <time>2026-09-02T13:27:59.000Z</time>
      </trkpt>
      <trkpt lat="48.13579" lon="6.86505">
        <ele>660.80004882812</ele>
        <time>2026-09-02T13:28:00.000Z</time>
      </trkpt>
      <trkpt lat="48.13579" lon="6.86505">
        <ele>660.59997558594</ele>
        <time>2026-09-02T13:28:01.000Z</time>
      </trkpt>
      <trkpt lat="48.13579" lon="6.86505">
        <ele>660.40002441406</ele>
        <time>2026-09-02T13:28:02.000Z</time>
      </trkpt>
      <trkpt lat="48.13579" lon="6.86505">
        <ele>660.40002441406</ele>
        <time>2026-09-02T13:28:03.000Z</time>
      </trkpt>
      <trkpt lat="48.13579" lon="6.86505">
        <ele>660.40002441406</ele>
        <time>2026-09-02T13:28:04.000Z</time>
      </trkpt>
      <trkpt lat="48.13579" lon="6.86504">
        <ele>660.40002441406</ele>
        <time>2026-09-02T13:28:05.000Z</time>
      </trkpt>
      <trkpt lat="48.13579" lon="6.86504">
        <ele>660.59997558594</ele>
        <time>2026-09-02T13:28:06.000Z</time>
      </trkpt>
      <trkpt lat="48.13578" lon="6.86505">
        <ele>660.59997558594</ele>
        <time>2026-09-02T13:28:07.000Z</time>
      </trkpt>
      <trkpt lat="48.13579" lon="6.86505">
        <ele>660.59997558594</ele>
        <time>2026-09-02T13:28:08.000Z</time>
      </trkpt>
      <trkpt lat="48.13579" lon="6.86505">
        <ele>660.59997558594</ele>
        <time>2026-09-02T13:28:09.000Z</time>
      </trkpt>
      <trkpt lat="48.13579" lon="6.86505">
        <ele>660.59997558594</ele>
        <time>2026-09-02T13:28:10.000Z</time>
      </trkpt>
      <trkpt lat="48.13579" lon="6.86505">
        <ele>660.59997558594</ele>
        <time>2026-09-02T13:28:11.000Z</time>
      </trkpt>
      <trkpt lat="48.13579" lon="6.86505">
        <ele>660.59997558594</ele>
        <time>2026-09-02T13:28:12.000Z</time>
      </trkpt>
      <trkpt lat="48.13579" lon="6.86505">
        <ele>660.59997558594</ele>
        <time>2026-09-02T13:28:13.000Z</time>
      </trkpt>
      <trkpt lat="48.13579" lon="6.86505">
        <ele>660.59997558594</ele>
        <time>2026-09-02T13:28:14.000Z</time>
      </trkpt>
      <trkpt lat="48.13579" lon="6.86505">
        <ele>660.59997558594</ele>
        <time>2026-09-02T13:28:15.000Z</time>
      </trkpt>
      <trkpt lat="48.13579" lon="6.86505">
        <ele>660.59997558594</ele>
        <time>2026-09-02T13:28:16.000Z</time>
      </trkpt>
      <trkpt lat="48.13579" lon="6.86505">
        <ele>660.59997558594</ele>
        <time>2026-09-02T13:28:17.000Z</time>
      </trkpt>
      <trkpt lat="48.13578" lon="6.86506">
        <ele>660.59997558594</ele>
        <time>2026-09-02T13:28:18.000Z</time>
      </trkpt>
      <trkpt lat="48.13578" lon="6.86507">
        <ele>660.59997558594</ele>
        <time>2026-09-02T13:28:19.000Z</time>
      </trkpt>
      <trkpt lat="48.13579" lon="6.86508">
        <ele>660.59997558594</ele>
        <time>2026-09-02T13:28:20.000Z</time>
      </trkpt>
      <trkpt lat="48.13579" lon="6.86509">
        <ele>660.59997558594</ele>
        <time>2026-09-02T13:28:21.000Z</time>
      </trkpt>
      <trkpt lat="48.13579" lon="6.8651">
        <ele>660.59997558594</ele>
        <time>2026-09-02T13:28:22.000Z</time>
      </trkpt>
      <trkpt lat="48.13579" lon="6.86509">
        <ele>660.59997558594</ele>
        <time>2026-09-02T13:28:23.000Z</time>
      </trkpt>
      <trkpt lat="48.13579" lon="6.86509">
        <ele>660.40002441406</ele>
        <time>2026-09-02T13:28:24.000Z</time>
      </trkpt>
      <trkpt lat="48.13579" lon="6.86509">
        <ele>660.40002441406</ele>
        <time>2026-09-02T13:28:25.000Z</time>
      </trkpt>
      <trkpt lat="48.13579" lon="6.86507">
        <ele>660.59997558594</ele>
        <time>2026-09-02T13:28:26.000Z</time>
      </trkpt>
      <trkpt lat="48.13579" lon="6.86506">
        <ele>660.40002441406</ele>
        <time>2026-09-02T13:28:27.000Z</time>
      </trkpt>
      <trkpt lat="48.13579" lon="6.86506">
        <ele>660.59997558594</ele>
        <time>2026-09-02T13:28:28.000Z</time>
      </trkpt>
      <trkpt lat="48.13579" lon="6.86506">
        <ele>660.59997558594</ele>
        <time>2026-09-02T13:28:29.000Z</time>
      </trkpt>
      <trkpt lat="48.13579" lon="6.86506">
        <ele>660.59997558594</ele>
        <time>2026-09-02T13:28:30.000Z</time>
      </trkpt>
      <trkpt lat="48.13579" lon="6.86506">
        <ele>660.59997558594</ele>
        <time>2026-09-02T13:28:31.000Z</time>
      </trkpt>
      <trkpt lat="48.13579" lon="6.86506">
        <ele>660.59997558594</ele>
        <time>2026-09-02T13:28:32.000Z</time>
      </trkpt>
      <trkpt lat="48.13579" lon="6.86506">
        <ele>660.59997558594</ele>
        <time>2026-09-02T13:28:33.000Z</time>
      </trkpt>
      <trkpt lat="48.13579" lon="6.86506">
        <ele>660.80004882812</ele>
        <time>2026-09-02T13:28:34.000Z</time>
      </trkpt>
      <trkpt lat="48.13579" lon="6.86506">
        <ele>660.80004882812</ele>
        <time>2026-09-02T13:28:35.000Z</time>
      </trkpt>
      <trkpt lat="48.13579" lon="6.86506">
        <ele>661</ele>
        <time>2026-09-02T13:28:36.000Z</time>
      </trkpt>
      <trkpt lat="48.13579" lon="6.86506">
        <ele>661</ele>
        <time>2026-09-02T13:28:37.000Z</time>
      </trkpt>
      <trkpt lat="48.13579" lon="6.86506">
        <ele>661</ele>
        <time>2026-09-02T13:28:38.000Z</time>
      </trkpt>
      <trkpt lat="48.13579" lon="6.86506">
        <ele>661</ele>
        <time>2026-09-02T13:28:39.000Z</time>
      </trkpt>
      <trkpt lat="48.13579" lon="6.86506">
        <ele>661</ele>
        <time>2026-09-02T13:28:40.000Z</time>
      </trkpt>
      <trkpt lat="48.13579" lon="6.86506">
        <ele>661</ele>
        <time>2026-09-02T13:28:41.000Z</time>
      </trkpt>
      <trkpt lat="48.13579" lon="6.86506">
        <ele>660.80004882812</ele>
        <time>2026-09-02T13:28:42.000Z</time>
      </trkpt>
      <trkpt lat="48.13579" lon="6.86506">
        <ele>660.80004882812</ele>
        <time>2026-09-02T13:28:43.000Z</time>
      </trkpt>
      <trkpt lat="48.13579" lon="6.86506">
        <ele>660.80004882812</ele>
        <time>2026-09-02T13:28:44.000Z</time>
      </trkpt>
      <trkpt lat="48.13578" lon="6.86507">
        <ele>660.80004882812</ele>
        <time>2026-09-02T13:28:45.000Z</time>
      </trkpt>
      <trkpt lat="48.13578" lon="6.86508">
        <ele>660.80004882812</ele>
        <time>2026-09-02T13:28:46.000Z</time>
      </trkpt>
      <trkpt lat="48.13578" lon="6.86509">
        <ele>660.80004882812</ele>
        <time>2026-09-02T13:28:47.000Z</time>
      </trkpt>
      <trkpt lat="48.13578" lon="6.8651">
        <ele>661</ele>
        <time>2026-09-02T13:28:48.000Z</time>
      </trkpt>
      <trkpt lat="48.13577" lon="6.8651">
        <ele>660.80004882812</ele>
        <time>2026-09-02T13:28:49.000Z</time>
      </trkpt>
      <trkpt lat="48.13577" lon="6.8651">
        <ele>660.80004882812</ele>
        <time>2026-09-02T13:28:50.000Z</time>
      </trkpt>
      <trkpt lat="48.13576" lon="6.86511">
        <ele>660.59997558594</ele>
        <time>2026-09-02T13:28:51.000Z</time>
      </trkpt>
      <trkpt lat="48.13576" lon="6.86511">
        <ele>660.59997558594</ele>
        <time>2026-09-02T13:28:52.000Z</time>
      </trkpt>
      <trkpt lat="48.13576" lon="6.86511">
        <ele>660.59997558594</ele>
        <time>2026-09-02T13:28:53.000Z</time>
      </trkpt>
      <trkpt lat="48.13576" lon="6.86511">
        <ele>660.59997558594</ele>
        <time>2026-09-02T13:28:54.000Z</time>
      </trkpt>
      <trkpt lat="48.13576" lon="6.86511">
        <ele>660.80004882812</ele>
        <time>2026-09-02T13:28:55.000Z</time>
      </trkpt>
      <trkpt lat="48.13576" lon="6.86511">
        <ele>660.80004882812</ele>
        <time>2026-09-02T13:28:56.000Z</time>
      </trkpt>
      <trkpt lat="48.13576" lon="6.86511">
        <ele>661</ele>
        <time>2026-09-02T13:28:57.000Z</time>
      </trkpt>
      <trkpt lat="48.13576" lon="6.86511">
        <ele>661</ele>
        <time>2026-09-02T13:28:58.000Z</time>
      </trkpt>
      <trkpt lat="48.13576" lon="6.86511">
        <ele>661</ele>
        <time>2026-09-02T13:28:59.000Z</time>
      </trkpt>
      <trkpt lat="48.13576" lon="6.86511">
        <ele>660.80004882812</ele>
        <time>2026-09-02T13:29:00.000Z</time>
      </trkpt>
      <trkpt lat="48.13576" lon="6.86511">
        <ele>660.80004882812</ele>
        <time>2026-09-02T13:29:01.000Z</time>
      </trkpt>
      <trkpt lat="48.13576" lon="6.86511">
        <ele>660.59997558594</ele>
        <time>2026-09-02T13:29:02.000Z</time>
      </trkpt>
      <trkpt lat="48.13576" lon="6.86511">
        <ele>660.40002441406</ele>
        <time>2026-09-02T13:29:03.000Z</time>
      </trkpt>
      <trkpt lat="48.13576" lon="6.86511">
        <ele>660.19995117188</ele>
        <time>2026-09-02T13:29:04.000Z</time>
      </trkpt>
      <trkpt lat="48.13576" lon="6.86511">
        <ele>660.19995117188</ele>
        <time>2026-09-02T13:29:05.000Z</time>
      </trkpt>
      <trkpt lat="48.13576" lon="6.86511">
        <ele>660.19995117188</ele>
        <time>2026-09-02T13:29:06.000Z</time>
      </trkpt>
      <trkpt lat="48.13576" lon="6.86511">
        <ele>660.40002441406</ele>
        <time>2026-09-02T13:29:07.000Z</time>
      </trkpt>
      <trkpt lat="48.13576" lon="6.86511">
        <ele>660.59997558594</ele>
        <time>2026-09-02T13:29:08.000Z</time>
      </trkpt>
      <trkpt lat="48.13576" lon="6.86511">
        <ele>660.80004882812</ele>
        <time>2026-09-02T13:29:09.000Z</time>
      </trkpt>
      <trkpt lat="48.13576" lon="6.86511">
        <ele>661</ele>
        <time>2026-09-02T13:29:10.000Z</time>
      </trkpt>
      <trkpt lat="48.13576" lon="6.86511">
        <ele>661</ele>
        <time>2026-09-02T13:29:11.000Z</time>
      </trkpt>
      <trkpt lat="48.13576" lon="6.86511">
        <ele>661</ele>
        <time>2026-09-02T13:29:12.000Z</time>
      </trkpt>
      <trkpt lat="48.13576" lon="6.86511">
        <ele>660.80004882812</ele>
        <time>2026-09-02T13:29:13.000Z</time>
      </trkpt>
      <trkpt lat="48.13577" lon="6.8651">
        <ele>660.80004882812</ele>
        <time>2026-09-02T13:29:14.000Z</time>
      </trkpt>
      <trkpt lat="48.13577" lon="6.8651">
        <ele>660.59997558594</ele>
        <time>2026-09-02T13:29:15.000Z</time>
      </trkpt>
      <trkpt lat="48.13577" lon="6.86511">
        <ele>660.59997558594</ele>
        <time>2026-09-02T13:29:16.000Z</time>
      </trkpt>
      <trkpt lat="48.13578" lon="6.86511">
        <ele>660.80004882812</ele>
        <time>2026-09-02T13:29:17.000Z</time>
      </trkpt>
      <trkpt lat="48.13577" lon="6.8651">
        <ele>660.80004882812</ele>
        <time>2026-09-02T13:29:18.000Z</time>
      </trkpt>
      <trkpt lat="48.13577" lon="6.8651">
        <ele>660.80004882812</ele>
        <time>2026-09-02T13:29:19.000Z</time>
      </trkpt>
      <trkpt lat="48.13577" lon="6.8651">
        <ele>660.80004882812</ele>
        <time>2026-09-02T13:29:20.000Z</time>
      </trkpt>
      <trkpt lat="48.13578" lon="6.8651">
        <ele>660.80004882812</ele>
        <time>2026-09-02T13:29:21.000Z</time>
      </trkpt>
      <trkpt lat="48.13578" lon="6.86509">
        <ele>660.59997558594</ele>
        <time>2026-09-02T13:29:22.000Z</time>
      </trkpt>
      <trkpt lat="48.13578" lon="6.86509">
        <ele>660.40002441406</ele>
        <time>2026-09-02T13:29:23.000Z</time>
      </trkpt>
      <trkpt lat="48.13578" lon="6.86509">
        <ele>660.19995117188</ele>
        <time>2026-09-02T13:29:24.000Z</time>
      </trkpt>
      <trkpt lat="48.13578" lon="6.86509">
        <ele>660.19995117188</ele>
        <time>2026-09-02T13:29:25.000Z</time>
      </trkpt>
      <trkpt lat="48.13578" lon="6.86509">
        <ele>660</ele>
        <time>2026-09-02T13:29:26.000Z</time>
      </trkpt>
      <trkpt lat="48.13578" lon="6.86509">
        <ele>660</ele>
        <time>2026-09-02T13:29:27.000Z</time>
      </trkpt>
      <trkpt lat="48.13578" lon="6.86509">
        <ele>660</ele>
        <time>2026-09-02T13:29:28.000Z</time>
      </trkpt>
      <trkpt lat="48.13578" lon="6.86509">
        <ele>660.19995117188</ele>
        <time>2026-09-02T13:29:29.000Z</time>
      </trkpt>
      <trkpt lat="48.13578" lon="6.86509">
        <ele>660.19995117188</ele>
        <time>2026-09-02T13:29:30.000Z</time>
      </trkpt>
      <trkpt lat="48.13578" lon="6.86509">
        <ele>660.19995117188</ele>
        <time>2026-09-02T13:29:31.000Z</time>
      </trkpt>
      <trkpt lat="48.13578" lon="6.86509">
        <ele>660.19995117188</ele>
        <time>2026-09-02T13:29:32.000Z</time>
      </trkpt>
      <trkpt lat="48.13578" lon="6.86509">
        <ele>660.40002441406</ele>
        <time>2026-09-02T13:29:33.000Z</time>
      </trkpt>
      <trkpt lat="48.13579" lon="6.86509">
        <ele>660.59997558594</ele>
        <time>2026-09-02T13:29:34.000Z</time>
      </trkpt>
      <trkpt lat="48.13579" lon="6.86508">
        <ele>660.80004882812</ele>
        <time>2026-09-02T13:29:35.000Z</time>
      </trkpt>
      <trkpt lat="48.13579" lon="6.86509">
        <ele>661</ele>
        <time>2026-09-02T13:29:36.000Z</time>
      </trkpt>
      <trkpt lat="48.1358" lon="6.86509">
        <ele>661</ele>
        <time>2026-09-02T13:29:37.000Z</time>
      </trkpt>
      <trkpt lat="48.1358" lon="6.86511">
        <ele>661</ele>
        <time>2026-09-02T13:29:38.000Z</time>
      </trkpt>
      <trkpt lat="48.13581" lon="6.86512">
        <ele>660.80004882812</ele>
        <time>2026-09-02T13:29:39.000Z</time>
      </trkpt>
      <trkpt lat="48.13581" lon="6.86514">
        <ele>660.59997558594</ele>
        <time>2026-09-02T13:29:40.000Z</time>
      </trkpt>
      <trkpt lat="48.13582" lon="6.86516">
        <ele>660.59997558594</ele>
        <time>2026-09-02T13:29:41.000Z</time>
      </trkpt>
      <trkpt lat="48.13582" lon="6.86517">
        <ele>660.59997558594</ele>
        <time>2026-09-02T13:29:42.000Z</time>
      </trkpt>
      <trkpt lat="48.13583" lon="6.86519">
        <ele>660.59997558594</ele>
        <time>2026-09-02T13:29:43.000Z</time>
      </trkpt>
      <trkpt lat="48.13583" lon="6.8652">
        <ele>660.59997558594</ele>
        <time>2026-09-02T13:29:44.000Z</time>
      </trkpt>
      <trkpt lat="48.13583" lon="6.86521">
        <ele>660.59997558594</ele>
        <time>2026-09-02T13:29:45.000Z</time>
      </trkpt>
      <trkpt lat="48.13584" lon="6.86523">
        <ele>660.59997558594</ele>
        <time>2026-09-02T13:29:46.000Z</time>
      </trkpt>
      <trkpt lat="48.13584" lon="6.86524">
        <ele>660.59997558594</ele>
        <time>2026-09-02T13:29:47.000Z</time>
      </trkpt>
      <trkpt lat="48.13584" lon="6.86525">
        <ele>660.80004882812</ele>
        <time>2026-09-02T13:29:48.000Z</time>
      </trkpt>
      <trkpt lat="48.13584" lon="6.86527">
        <ele>660.80004882812</ele>
        <time>2026-09-02T13:29:49.000Z</time>
      </trkpt>
      <trkpt lat="48.13585" lon="6.86528">
        <ele>660.80004882812</ele>
        <time>2026-09-02T13:29:50.000Z</time>
      </trkpt>
      <trkpt lat="48.13585" lon="6.86529">
        <ele>660.80004882812</ele>
        <time>2026-09-02T13:29:51.000Z</time>
      </trkpt>
      <trkpt lat="48.13586" lon="6.86531">
        <ele>660.59997558594</ele>
        <time>2026-09-02T13:29:52.000Z</time>
      </trkpt>
      <trkpt lat="48.13586" lon="6.86532">
        <ele>660.59997558594</ele>
        <time>2026-09-02T13:29:53.000Z</time>
      </trkpt>
      <trkpt lat="48.13587" lon="6.86534">
        <ele>660.59997558594</ele>
        <time>2026-09-02T13:29:54.000Z</time>
      </trkpt>
      <trkpt lat="48.13587" lon="6.86535">
        <ele>660.59997558594</ele>
        <time>2026-09-02T13:29:55.000Z</time>
      </trkpt>
      <trkpt lat="48.13588" lon="6.86537">
        <ele>660.80004882812</ele>
        <time>2026-09-02T13:29:56.000Z</time>
      </trkpt>
      <trkpt lat="48.13588" lon="6.86538">
        <ele>660.80004882812</ele>
        <time>2026-09-02T13:29:57.000Z</time>
      </trkpt>
      <trkpt lat="48.13589" lon="6.8654">
        <ele>660.80004882812</ele>
        <time>2026-09-02T13:29:58.000Z</time>
      </trkpt>
      <trkpt lat="48.13589" lon="6.86541">
        <ele>660.80004882812</ele>
        <time>2026-09-02T13:29:59.000Z</time>
      </trkpt>
      <trkpt lat="48.1359" lon="6.86542">
        <ele>661</ele>
        <time>2026-09-02T13:30:00.000Z</time>
      </trkpt>
      <trkpt lat="48.1359" lon="6.86543">
        <ele>660.80004882812</ele>
        <time>2026-09-02T13:30:01.000Z</time>
      </trkpt>
      <trkpt lat="48.1359" lon="6.86544">
        <ele>660.80004882812</ele>
        <time>2026-09-02T13:30:02.000Z</time>
      </trkpt>
      <trkpt lat="48.13591" lon="6.86545">
        <ele>660.80004882812</ele>
        <time>2026-09-02T13:30:03.000Z</time>
      </trkpt>
      <trkpt lat="48.13591" lon="6.86545">
        <ele>660.80004882812</ele>
        <time>2026-09-02T13:30:04.000Z</time>
      </trkpt>
      <trkpt lat="48.1359" lon="6.86544">
        <ele>660.80004882812</ele>
        <time>2026-09-02T13:30:05.000Z</time>
      </trkpt>
      <trkpt lat="48.1359" lon="6.86542">
        <ele>660.80004882812</ele>
        <time>2026-09-02T13:30:06.000Z</time>
      </trkpt>
      <trkpt lat="48.13589" lon="6.86541">
        <ele>660.80004882812</ele>
        <time>2026-09-02T13:30:07.000Z</time>
      </trkpt>
      <trkpt lat="48.13589" lon="6.8654">
        <ele>660.80004882812</ele>
        <time>2026-09-02T13:30:08.000Z</time>
      </trkpt>
      <trkpt lat="48.13588" lon="6.86539">
        <ele>660.80004882812</ele>
        <time>2026-09-02T13:30:09.000Z</time>
      </trkpt>
      <trkpt lat="48.13587" lon="6.86539">
        <ele>661</ele>
        <time>2026-09-02T13:30:10.000Z</time>
      </trkpt>
      <trkpt lat="48.13587" lon="6.86538">
        <ele>661.19995117188</ele>
        <time>2026-09-02T13:30:11.000Z</time>
      </trkpt>
      <trkpt lat="48.13586" lon="6.86536">
        <ele>661.40002441406</ele>
        <time>2026-09-02T13:30:12.000Z</time>
      </trkpt>
      <trkpt lat="48.13586" lon="6.86533">
        <ele>661.40002441406</ele>
        <time>2026-09-02T13:30:13.000Z</time>
      </trkpt>
      <trkpt lat="48.13585" lon="6.86532">
        <ele>661.40002441406</ele>
        <time>2026-09-02T13:30:14.000Z</time>
      </trkpt>
      <trkpt lat="48.13585" lon="6.86531">
        <ele>661.40002441406</ele>
        <time>2026-09-02T13:30:15.000Z</time>
      </trkpt>
      <trkpt lat="48.13584" lon="6.8653">
        <ele>661</ele>
        <time>2026-09-02T13:30:16.000Z</time>
      </trkpt>
      <trkpt lat="48.13583" lon="6.86528">
        <ele>660.80004882812</ele>
        <time>2026-09-02T13:30:17.000Z</time>
      </trkpt>
      <trkpt lat="48.13583" lon="6.86527">
        <ele>660.59997558594</ele>
        <time>2026-09-02T13:30:18.000Z</time>
      </trkpt>
      <trkpt lat="48.13583" lon="6.86527">
        <ele>660.40002441406</ele>
        <time>2026-09-02T13:30:19.000Z</time>
      </trkpt>
      <trkpt lat="48.13583" lon="6.86527">
        <ele>660.40002441406</ele>
        <time>2026-09-02T13:30:20.000Z</time>
      </trkpt>
      <trkpt lat="48.13583" lon="6.86527">
        <ele>660.40002441406</ele>
        <time>2026-09-02T13:30:21.000Z</time>
      </trkpt>
      <trkpt lat="48.13583" lon="6.86527">
        <ele>660.40002441406</ele>
        <time>2026-09-02T13:30:22.000Z</time>
      </trkpt>
      <trkpt lat="48.13583" lon="6.86527">
        <ele>660.59997558594</ele>
        <time>2026-09-02T13:30:23.000Z</time>
      </trkpt>
      <trkpt lat="48.13583" lon="6.86527">
        <ele>660.59997558594</ele>
        <time>2026-09-02T13:30:24.000Z</time>
      </trkpt>
      <trkpt lat="48.13583" lon="6.86526">
        <ele>660.59997558594</ele>
        <time>2026-09-02T13:30:25.000Z</time>
      </trkpt>
      <trkpt lat="48.13582" lon="6.86525">
        <ele>660.59997558594</ele>
        <time>2026-09-02T13:30:26.000Z</time>
      </trkpt>
      <trkpt lat="48.13582" lon="6.86523">
        <ele>660.59997558594</ele>
        <time>2026-09-02T13:30:27.000Z</time>
      </trkpt>
      <trkpt lat="48.13582" lon="6.86522">
        <ele>660.59997558594</ele>
        <time>2026-09-02T13:30:28.000Z</time>
      </trkpt>
      <trkpt lat="48.13581" lon="6.86519">
        <ele>660.80004882812</ele>
        <time>2026-09-02T13:30:29.000Z</time>
      </trkpt>
      <trkpt lat="48.13581" lon="6.86518">
        <ele>661</ele>
        <time>2026-09-02T13:30:30.000Z</time>
      </trkpt>
      <trkpt lat="48.1358" lon="6.86516">
        <ele>661.40002441406</ele>
        <time>2026-09-02T13:30:31.000Z</time>
      </trkpt>
      <trkpt lat="48.1358" lon="6.86515">
        <ele>661.40002441406</ele>
        <time>2026-09-02T13:30:32.000Z</time>
      </trkpt>
      <trkpt lat="48.1358" lon="6.86513">
        <ele>661.40002441406</ele>
        <time>2026-09-02T13:30:33.000Z</time>
      </trkpt>
      <trkpt lat="48.13579" lon="6.86511">
        <ele>661.40002441406</ele>
        <time>2026-09-02T13:30:34.000Z</time>
      </trkpt>
      <trkpt lat="48.13579" lon="6.86511">
        <ele>661.19995117188</ele>
        <time>2026-09-02T13:30:35.000Z</time>
      </trkpt>
      <trkpt lat="48.13578" lon="6.86511">
        <ele>661</ele>
        <time>2026-09-02T13:30:36.000Z</time>
      </trkpt>
      <trkpt lat="48.13578" lon="6.86511">
        <ele>660.80004882812</ele>
        <time>2026-09-02T13:30:37.000Z</time>
      </trkpt>
      <trkpt lat="48.13578" lon="6.86512">
        <ele>660.59997558594</ele>
        <time>2026-09-02T13:30:38.000Z</time>
      </trkpt>
      <trkpt lat="48.13578" lon="6.86512">
        <ele>660.19995117188</ele>
        <time>2026-09-02T13:30:39.000Z</time>
      </trkpt>
      <trkpt lat="48.13578" lon="6.86512">
        <ele>660</ele>
        <time>2026-09-02T13:30:40.000Z</time>
      </trkpt>
      <trkpt lat="48.13578" lon="6.86512">
        <ele>660</ele>
        <time>2026-09-02T13:30:41.000Z</time>
      </trkpt>
      <trkpt lat="48.13578" lon="6.86512">
        <ele>660.19995117188</ele>
        <time>2026-09-02T13:30:42.000Z</time>
      </trkpt>
      <trkpt lat="48.13578" lon="6.86512">
        <ele>660.19995117188</ele>
        <time>2026-09-02T13:30:43.000Z</time>
      </trkpt>
      <trkpt lat="48.13578" lon="6.86512">
        <ele>660.19995117188</ele>
        <time>2026-09-02T13:30:44.000Z</time>
      </trkpt>
      <trkpt lat="48.13578" lon="6.86512">
        <ele>660.19995117188</ele>
        <time>2026-09-02T13:30:45.000Z</time>
      </trkpt>
      <trkpt lat="48.13578" lon="6.86512">
        <ele>660.19995117188</ele>
        <time>2026-09-02T13:30:46.000Z</time>
      </trkpt>
      <trkpt lat="48.13578" lon="6.86512">
        <ele>660.19995117188</ele>
        <time>2026-09-02T13:30:47.000Z</time>
      </trkpt>
      <trkpt lat="48.13579" lon="6.86513">
        <ele>660.19995117188</ele>
        <time>2026-09-02T13:30:48.000Z</time>
      </trkpt>
      <trkpt lat="48.13578" lon="6.86513">
        <ele>660.40002441406</ele>
        <time>2026-09-02T13:30:49.000Z</time>
      </trkpt>
      <trkpt lat="48.13578" lon="6.86513">
        <ele>660.59997558594</ele>
        <time>2026-09-02T13:30:50.000Z</time>
      </trkpt>
      <trkpt lat="48.13578" lon="6.86513">
        <ele>660.59997558594</ele>
        <time>2026-09-02T13:30:51.000Z</time>
      </trkpt>
      <trkpt lat="48.13578" lon="6.86512">
        <ele>660.59997558594</ele>
        <time>2026-09-02T13:30:52.000Z</time>
      </trkpt>
      <trkpt lat="48.13578" lon="6.86512">
        <ele>660.59997558594</ele>
        <time>2026-09-02T13:30:53.000Z</time>
      </trkpt>
      <trkpt lat="48.13578" lon="6.86512">
        <ele>660.59997558594</ele>
        <time>2026-09-02T13:30:54.000Z</time>
      </trkpt>
      <trkpt lat="48.13578" lon="6.86512">
        <ele>660.40002441406</ele>
        <time>2026-09-02T13:30:55.000Z</time>
      </trkpt>
      <trkpt lat="48.13578" lon="6.86512">
        <ele>660.40002441406</ele>
        <time>2026-09-02T13:30:56.000Z</time>
      </trkpt>
      <trkpt lat="48.13578" lon="6.86512">
        <ele>660.40002441406</ele>
        <time>2026-09-02T13:30:57.000Z</time>
      </trkpt>
      <trkpt lat="48.13578" lon="6.86512">
        <ele>660.40002441406</ele>
        <time>2026-09-02T13:30:58.000Z</time>
      </trkpt>
      <trkpt lat="48.13578" lon="6.86512">
        <ele>660.59997558594</ele>
        <time>2026-09-02T13:30:59.000Z</time>
      </trkpt>
      <trkpt lat="48.13578" lon="6.86512">
        <ele>660.59997558594</ele>
        <time>2026-09-02T13:31:00.000Z</time>
      </trkpt>
      <trkpt lat="48.13578" lon="6.86512">
        <ele>660.59997558594</ele>
        <time>2026-09-02T13:31:01.000Z</time>
      </trkpt>
      <trkpt lat="48.13578" lon="6.86512">
        <ele>660.59997558594</ele>
        <time>2026-09-02T13:31:02.000Z</time>
      </trkpt>
      <trkpt lat="48.13578" lon="6.86512">
        <ele>660.80004882812</ele>
        <time>2026-09-02T13:31:03.000Z</time>
      </trkpt>
      <trkpt lat="48.13578" lon="6.86512">
        <ele>660.80004882812</ele>
        <time>2026-09-02T13:31:04.000Z</time>
      </trkpt>
      <trkpt lat="48.13578" lon="6.86512">
        <ele>660.80004882812</ele>
        <time>2026-09-02T13:31:05.000Z</time>
      </trkpt>
      <trkpt lat="48.13578" lon="6.86512">
        <ele>661</ele>
        <time>2026-09-02T13:31:06.000Z</time>
      </trkpt>
      <trkpt lat="48.13578" lon="6.86512">
        <ele>660.80004882812</ele>
        <time>2026-09-02T13:31:07.000Z</time>
      </trkpt>
      <trkpt lat="48.13578" lon="6.8651">
        <ele>660.80004882812</ele>
        <time>2026-09-02T13:31:08.000Z</time>
      </trkpt>
      <trkpt lat="48.13578" lon="6.8651">
        <ele>660.80004882812</ele>
        <time>2026-09-02T13:31:09.000Z</time>
      </trkpt>
      <trkpt lat="48.13578" lon="6.8651">
        <ele>660.80004882812</ele>
        <time>2026-09-02T13:31:10.000Z</time>
      </trkpt>
      <trkpt lat="48.13578" lon="6.8651">
        <ele>660.80004882812</ele>
        <time>2026-09-02T13:31:11.000Z</time>
      </trkpt>
      <trkpt lat="48.13578" lon="6.8651">
        <ele>660.80004882812</ele>
        <time>2026-09-02T13:31:12.000Z</time>
      </trkpt>
      <trkpt lat="48.13578" lon="6.8651">
        <ele>660.59997558594</ele>
        <time>2026-09-02T13:31:13.000Z</time>
      </trkpt>
      <trkpt lat="48.13578" lon="6.86509">
        <ele>660.59997558594</ele>
        <time>2026-09-02T13:31:14.000Z</time>
      </trkpt>
      <trkpt lat="48.13578" lon="6.86507">
        <ele>660.59997558594</ele>
        <time>2026-09-02T13:31:15.000Z</time>
      </trkpt>
      <trkpt lat="48.13579" lon="6.86505">
        <ele>660.59997558594</ele>
        <time>2026-09-02T13:31:16.000Z</time>
      </trkpt>
      <trkpt lat="48.13579" lon="6.86504">
        <ele>660.59997558594</ele>
        <time>2026-09-02T13:31:17.000Z</time>
      </trkpt>
      <trkpt lat="48.13579" lon="6.86503">
        <ele>660.59997558594</ele>
        <time>2026-09-02T13:31:18.000Z</time>
      </trkpt>
      <trkpt lat="48.1358" lon="6.86502">
        <ele>660.59997558594</ele>
        <time>2026-09-02T13:31:19.000Z</time>
      </trkpt>
      <trkpt lat="48.1358" lon="6.86502">
        <ele>660.40002441406</ele>
        <time>2026-09-02T13:31:20.000Z</time>
      </trkpt>
      <trkpt lat="48.1358" lon="6.86502">
        <ele>660.40002441406</ele>
        <time>2026-09-02T13:31:21.000Z</time>
      </trkpt>
      <trkpt lat="48.1358" lon="6.86502">
        <ele>660.40002441406</ele>
        <time>2026-09-02T13:31:22.000Z</time>
      </trkpt>
      <trkpt lat="48.1358" lon="6.86502">
        <ele>660.40002441406</ele>
        <time>2026-09-02T13:31:23.000Z</time>
      </trkpt>
      <trkpt lat="48.1358" lon="6.86502">
        <ele>660.40002441406</ele>
        <time>2026-09-02T13:31:24.000Z</time>
      </trkpt>
      <trkpt lat="48.1358" lon="6.86502">
        <ele>660.40002441406</ele>
        <time>2026-09-02T13:31:25.000Z</time>
      </trkpt>
      <trkpt lat="48.1358" lon="6.86502">
        <ele>660.19995117188</ele>
        <time>2026-09-02T13:31:26.000Z</time>
      </trkpt>
      <trkpt lat="48.1358" lon="6.86502">
        <ele>660</ele>
        <time>2026-09-02T13:31:27.000Z</time>
      </trkpt>
      <trkpt lat="48.1358" lon="6.86502">
        <ele>659.80004882812</ele>
        <time>2026-09-02T13:31:28.000Z</time>
      </trkpt>
      <trkpt lat="48.1358" lon="6.86502">
        <ele>659.59997558594</ele>
        <time>2026-09-02T13:31:29.000Z</time>
      </trkpt>
      <trkpt lat="48.1358" lon="6.86502">
        <ele>659.59997558594</ele>
        <time>2026-09-02T13:31:30.000Z</time>
      </trkpt>
      <trkpt lat="48.1358" lon="6.86502">
        <ele>659.59997558594</ele>
        <time>2026-09-02T13:31:31.000Z</time>
      </trkpt>
      <trkpt lat="48.1358" lon="6.86502">
        <ele>659.80004882812</ele>
        <time>2026-09-02T13:31:32.000Z</time>
      </trkpt>
      <trkpt lat="48.1358" lon="6.86502">
        <ele>659.80004882812</ele>
        <time>2026-09-02T13:31:33.000Z</time>
      </trkpt>
      <trkpt lat="48.1358" lon="6.86502">
        <ele>659.80004882812</ele>
        <time>2026-09-02T13:31:34.000Z</time>
      </trkpt>
      <trkpt lat="48.1358" lon="6.86502">
        <ele>659.80004882812</ele>
        <time>2026-09-02T13:31:35.000Z</time>
      </trkpt>
      <trkpt lat="48.1358" lon="6.86502">
        <ele>659.80004882812</ele>
        <time>2026-09-02T13:31:36.000Z</time>
      </trkpt>
      <trkpt lat="48.1358" lon="6.86502">
        <ele>659.80004882812</ele>
        <time>2026-09-02T13:31:37.000Z</time>
      </trkpt>
      <trkpt lat="48.1358" lon="6.86502">
        <ele>659.80004882812</ele>
        <time>2026-09-02T13:31:38.000Z</time>
      </trkpt>
      <trkpt lat="48.1358" lon="6.86502">
        <ele>659.80004882812</ele>
        <time>2026-09-02T13:31:39.000Z</time>
      </trkpt>
      <trkpt lat="48.1358" lon="6.86502">
        <ele>659.80004882812</ele>
        <time>2026-09-02T13:31:40.000Z</time>
      </trkpt>
      <trkpt lat="48.1358" lon="6.86502">
        <ele>659.80004882812</ele>
        <time>2026-09-02T13:31:41.000Z</time>
      </trkpt>
      <trkpt lat="48.1358" lon="6.86502">
        <ele>659.80004882812</ele>
        <time>2026-09-02T13:31:42.000Z</time>
      </trkpt>
      <trkpt lat="48.1358" lon="6.86502">
        <ele>659.59997558594</ele>
        <time>2026-09-02T13:31:43.000Z</time>
      </trkpt>
      <trkpt lat="48.1358" lon="6.86502">
        <ele>659.59997558594</ele>
        <time>2026-09-02T13:31:44.000Z</time>
      </trkpt>
      <trkpt lat="48.1358" lon="6.86502">
        <ele>659.59997558594</ele>
        <time>2026-09-02T13:31:45.000Z</time>
      </trkpt>
      <trkpt lat="48.1358" lon="6.86502">
        <ele>659.59997558594</ele>
        <time>2026-09-02T13:31:46.000Z</time>
      </trkpt>
      <trkpt lat="48.1358" lon="6.86502">
        <ele>659.59997558594</ele>
        <time>2026-09-02T13:31:47.000Z</time>
      </trkpt>
      <trkpt lat="48.1358" lon="6.86502">
        <ele>659.59997558594</ele>
        <time>2026-09-02T13:31:48.000Z</time>
      </trkpt>
      <trkpt lat="48.1358" lon="6.86502">
        <ele>659.80004882812</ele>
        <time>2026-09-02T13:31:49.000Z</time>
      </trkpt>
      <trkpt lat="48.1358" lon="6.86502">
        <ele>659.80004882812</ele>
        <time>2026-09-02T13:31:50.000Z</time>
      </trkpt>
      <trkpt lat="48.1358" lon="6.86502">
        <ele>659.80004882812</ele>
        <time>2026-09-02T13:31:51.000Z</time>
      </trkpt>
      <trkpt lat="48.1358" lon="6.86502">
        <ele>659.80004882812</ele>
        <time>2026-09-02T13:31:52.000Z</time>
      </trkpt>
      <trkpt lat="48.1358" lon="6.86502">
        <ele>659.80004882812</ele>
        <time>2026-09-02T13:31:53.000Z</time>
      </trkpt>
      <trkpt lat="48.1358" lon="6.86502">
        <ele>659.80004882812</ele>
        <time>2026-09-02T13:31:54.000Z</time>
      </trkpt>
      <trkpt lat="48.1358" lon="6.86502">
        <ele>659.80004882812</ele>
        <time>2026-09-02T13:31:55.000Z</time>
      </trkpt>
      <trkpt lat="48.1358" lon="6.86502">
        <ele>660</ele>
        <time>2026-09-02T13:31:56.000Z</time>
      </trkpt>
      <trkpt lat="48.1358" lon="6.86502">
        <ele>660</ele>
        <time>2026-09-02T13:31:57.000Z</time>
      </trkpt>
      <trkpt lat="48.1358" lon="6.86502">
        <ele>660</ele>
        <time>2026-09-02T13:31:58.000Z</time>
      </trkpt>
      <trkpt lat="48.1358" lon="6.86502">
        <ele>660</ele>
        <time>2026-09-02T13:31:59.000Z</time>
      </trkpt>
      <trkpt lat="48.1358" lon="6.86502">
        <ele>660</ele>
        <time>2026-09-02T13:32:00.000Z</time>
      </trkpt>
      <trkpt lat="48.1358" lon="6.86502">
        <ele>660</ele>
        <time>2026-09-02T13:32:01.000Z</time>
      </trkpt>
      <trkpt lat="48.1358" lon="6.86502">
        <ele>660</ele>
        <time>2026-09-02T13:32:02.000Z</time>
      </trkpt>
      <trkpt lat="48.1358" lon="6.86502">
        <ele>660</ele>
        <time>2026-09-02T13:32:03.000Z</time>
      </trkpt>
      <trkpt lat="48.1358" lon="6.86502">
        <ele>660</ele>
        <time>2026-09-02T13:32:04.000Z</time>
      </trkpt>
      <trkpt lat="48.1358" lon="6.86502">
        <ele>660</ele>
        <time>2026-09-02T13:32:05.000Z</time>
      </trkpt>
      <trkpt lat="48.1358" lon="6.86502">
        <ele>660</ele>
        <time>2026-09-02T13:32:06.000Z</time>
      </trkpt>
      <trkpt lat="48.1358" lon="6.86502">
        <ele>660</ele>
        <time>2026-09-02T13:32:07.000Z</time>
      </trkpt>
      <trkpt lat="48.1358" lon="6.86502">
        <ele>660</ele>
        <time>2026-09-02T13:32:08.000Z</time>
      </trkpt>
      <trkpt lat="48.1358" lon="6.86502">
        <ele>660</ele>
        <time>2026-09-02T13:32:09.000Z</time>
      </trkpt>
      <trkpt lat="48.1358" lon="6.86502">
        <ele>660</ele>
        <time>2026-09-02T13:32:10.000Z</time>
      </trkpt>
      <trkpt lat="48.1358" lon="6.86502">
        <ele>660.19995117188</ele>
        <time>2026-09-02T13:32:11.000Z</time>
      </trkpt>
      <trkpt lat="48.1358" lon="6.86502">
        <ele>660.40002441406</ele>
        <time>2026-09-02T13:32:12.000Z</time>
      </trkpt>
      <trkpt lat="48.1358" lon="6.86502">
        <ele>660.59997558594</ele>
        <time>2026-09-02T13:32:13.000Z</time>
      </trkpt>
      <trkpt lat="48.1358" lon="6.86502">
        <ele>660.80004882812</ele>
        <time>2026-09-02T13:32:14.000Z</time>
      </trkpt>
      <trkpt lat="48.1358" lon="6.86502">
        <ele>660.80004882812</ele>
        <time>2026-09-02T13:32:15.000Z</time>
      </trkpt>
      <trkpt lat="48.1358" lon="6.86502">
        <ele>661</ele>
        <time>2026-09-02T13:32:16.000Z</time>
      </trkpt>
      <trkpt lat="48.1358" lon="6.86502">
        <ele>661</ele>
        <time>2026-09-02T13:32:17.000Z</time>
      </trkpt>
      <trkpt lat="48.1358" lon="6.86502">
        <ele>660.80004882812</ele>
        <time>2026-09-02T13:32:18.000Z</time>
      </trkpt>
      <trkpt lat="48.1358" lon="6.86502">
        <ele>660.80004882812</ele>
        <time>2026-09-02T13:32:19.000Z</time>
      </trkpt>
      <trkpt lat="48.1358" lon="6.86502">
        <ele>661</ele>
        <time>2026-09-02T13:32:20.000Z</time>
      </trkpt>
      <trkpt lat="48.1358" lon="6.86502">
        <ele>661</ele>
        <time>2026-09-02T13:32:21.000Z</time>
      </trkpt>
      <trkpt lat="48.1358" lon="6.86502">
        <ele>661</ele>
        <time>2026-09-02T13:32:22.000Z</time>
      </trkpt>
      <trkpt lat="48.1358" lon="6.86502">
        <ele>661</ele>
        <time>2026-09-02T13:32:23.000Z</time>
      </trkpt>
      <trkpt lat="48.1358" lon="6.86502">
        <ele>661</ele>
        <time>2026-09-02T13:32:24.000Z</time>
      </trkpt>
      <trkpt lat="48.1358" lon="6.86502">
        <ele>660.80004882812</ele>
        <time>2026-09-02T13:32:25.000Z</time>
      </trkpt>
      <trkpt lat="48.1358" lon="6.86502">
        <ele>660.80004882812</ele>
        <time>2026-09-02T13:32:26.000Z</time>
      </trkpt>
      <trkpt lat="48.1358" lon="6.86502">
        <ele>660.80004882812</ele>
        <time>2026-09-02T13:32:27.000Z</time>
      </trkpt>
      <trkpt lat="48.1358" lon="6.86502">
        <ele>660.80004882812</ele>
        <time>2026-09-02T13:32:28.000Z</time>
      </trkpt>
      <trkpt lat="48.1358" lon="6.86502">
        <ele>660.80004882812</ele>
        <time>2026-09-02T13:32:29.000Z</time>
      </trkpt>
      <trkpt lat="48.1358" lon="6.86502">
        <ele>661</ele>
        <time>2026-09-02T13:32:30.000Z</time>
      </trkpt>
      <trkpt lat="48.1358" lon="6.86502">
        <ele>661</ele>
        <time>2026-09-02T13:32:31.000Z</time>
      </trkpt>
      <trkpt lat="48.1358" lon="6.86502">
        <ele>660.80004882812</ele>
        <time>2026-09-02T13:32:32.000Z</time>
      </trkpt>
      <trkpt lat="48.1358" lon="6.86502">
        <ele>660.59997558594</ele>
        <time>2026-09-02T13:32:33.000Z</time>
      </trkpt>
      <trkpt lat="48.1358" lon="6.86502">
        <ele>660.40002441406</ele>
        <time>2026-09-02T13:32:34.000Z</time>
      </trkpt>
      <trkpt lat="48.1358" lon="6.86502">
        <ele>660.19995117188</ele>
        <time>2026-09-02T13:32:35.000Z</time>
      </trkpt>
      <trkpt lat="48.1358" lon="6.86502">
        <ele>660.19995117188</ele>
        <time>2026-09-02T13:32:36.000Z</time>
      </trkpt>
      <trkpt lat="48.1358" lon="6.86502">
        <ele>660</ele>
        <time>2026-09-02T13:32:37.000Z</time>
      </trkpt>
      <trkpt lat="48.1358" lon="6.86502">
        <ele>660</ele>
        <time>2026-09-02T13:32:38.000Z</time>
      </trkpt>
      <trkpt lat="48.1358" lon="6.86502">
        <ele>660</ele>
        <time>2026-09-02T13:32:39.000Z</time>
      </trkpt>
      <trkpt lat="48.1358" lon="6.86502">
        <ele>660</ele>
        <time>2026-09-02T13:32:40.000Z</time>
      </trkpt>
      <trkpt lat="48.1358" lon="6.86502">
        <ele>659.80004882812</ele>
        <time>2026-09-02T13:32:41.000Z</time>
      </trkpt>
      <trkpt lat="48.1358" lon="6.86502">
        <ele>659.80004882812</ele>
        <time>2026-09-02T13:32:42.000Z</time>
      </trkpt>
      <trkpt lat="48.1358" lon="6.86502">
        <ele>659.59997558594</ele>
        <time>2026-09-02T13:32:43.000Z</time>
      </trkpt>
      <trkpt lat="48.1358" lon="6.86502">
        <ele>659.40002441406</ele>
        <time>2026-09-02T13:32:44.000Z</time>
      </trkpt>
      <trkpt lat="48.1358" lon="6.86502">
        <ele>659.40002441406</ele>
        <time>2026-09-02T13:32:45.000Z</time>
      </trkpt>
      <trkpt lat="48.1358" lon="6.86502">
        <ele>659.40002441406</ele>
        <time>2026-09-02T13:32:46.000Z</time>
      </trkpt>
      <trkpt lat="48.1358" lon="6.86502">
        <ele>659.40002441406</ele>
        <time>2026-09-02T13:32:47.000Z</time>
      </trkpt>
      <trkpt lat="48.1358" lon="6.86502">
        <ele>659.40002441406</ele>
        <time>2026-09-02T13:32:48.000Z</time>
      </trkpt>
      <trkpt lat="48.1358" lon="6.86502">
        <ele>659.59997558594</ele>
        <time>2026-09-02T13:32:49.000Z</time>
      </trkpt>
      <trkpt lat="48.1358" lon="6.86502">
        <ele>659.59997558594</ele>
        <time>2026-09-02T13:32:50.000Z</time>
      </trkpt>
      <trkpt lat="48.1358" lon="6.86502">
        <ele>659.59997558594</ele>
        <time>2026-09-02T13:32:51.000Z</time>
      </trkpt>
      <trkpt lat="48.1358" lon="6.86502">
        <ele>659.40002441406</ele>
        <time>2026-09-02T13:32:52.000Z</time>
      </trkpt>
      <trkpt lat="48.1358" lon="6.86502">
        <ele>659.40002441406</ele>
        <time>2026-09-02T13:32:53.000Z</time>
      </trkpt>
      <trkpt lat="48.1358" lon="6.86502">
        <ele>659.40002441406</ele>
        <time>2026-09-02T13:32:54.000Z</time>
      </trkpt>
      <trkpt lat="48.1358" lon="6.86502">
        <ele>659.40002441406</ele>
        <time>2026-09-02T13:32:55.000Z</time>
      </trkpt>
      <trkpt lat="48.1358" lon="6.86502">
        <ele>659.40002441406</ele>
        <time>2026-09-02T13:32:56.000Z</time>
      </trkpt>
      <trkpt lat="48.1358" lon="6.86502">
        <ele>659.40002441406</ele>
        <time>2026-09-02T13:32:57.000Z</time>
      </trkpt>
      <trkpt lat="48.1358" lon="6.86502">
        <ele>659.40002441406</ele>
        <time>2026-09-02T13:32:58.000Z</time>
      </trkpt>
      <trkpt lat="48.1358" lon="6.86502">
        <ele>659.40002441406</ele>
        <time>2026-09-02T13:32:59.000Z</time>
      </trkpt>
      <trkpt lat="48.1358" lon="6.86502">
        <ele>659.40002441406</ele>
        <time>2026-09-02T13:33:00.000Z</time>
      </trkpt>
      <trkpt lat="48.1358" lon="6.86502">
        <ele>659.40002441406</ele>
        <time>2026-09-02T13:33:01.000Z</time>
      </trkpt>
      <trkpt lat="48.1358" lon="6.86502">
        <ele>659.40002441406</ele>
        <time>2026-09-02T13:33:02.000Z</time>
      </trkpt>
      <trkpt lat="48.1358" lon="6.86502">
        <ele>659.40002441406</ele>
        <time>2026-09-02T13:33:03.000Z</time>
      </trkpt>
      <trkpt lat="48.1358" lon="6.86502">
        <ele>659.40002441406</ele>
        <time>2026-09-02T13:33:04.000Z</time>
      </trkpt>
      <trkpt lat="48.1358" lon="6.86502">
        <ele>659.40002441406</ele>
        <time>2026-09-02T13:33:05.000Z</time>
      </trkpt>
      <trkpt lat="48.1358" lon="6.86502">
        <ele>659.40002441406</ele>
        <time>2026-09-02T13:33:06.000Z</time>
      </trkpt>
      <trkpt lat="48.1358" lon="6.86502">
        <ele>659.40002441406</ele>
        <time>2026-09-02T13:33:07.000Z</time>
      </trkpt>
      <trkpt lat="48.1358" lon="6.86502">
        <ele>659.40002441406</ele>
        <time>2026-09-02T13:33:08.000Z</time>
      </trkpt>
      <trkpt lat="48.1358" lon="6.86502">
        <ele>659.40002441406</ele>
        <time>2026-09-02T13:33:09.000Z</time>
      </trkpt>
      <trkpt lat="48.1358" lon="6.86502">
        <ele>659.40002441406</ele>
        <time>2026-09-02T13:33:10.000Z</time>
      </trkpt>
      <trkpt lat="48.1358" lon="6.86502">
        <ele>659.40002441406</ele>
        <time>2026-09-02T13:33:11.000Z</time>
      </trkpt>
      <trkpt lat="48.1358" lon="6.86502">
        <ele>659.19995117188</ele>
        <time>2026-09-02T13:33:12.000Z</time>
      </trkpt>
      <trkpt lat="48.1358" lon="6.86502">
        <ele>659.19995117188</ele>
        <time>2026-09-02T13:33:13.000Z</time>
      </trkpt>
      <trkpt lat="48.1358" lon="6.86502">
        <ele>659.19995117188</ele>
        <time>2026-09-02T13:33:14.000Z</time>
      </trkpt>
      <trkpt lat="48.1358" lon="6.86502">
        <ele>659.19995117188</ele>
        <time>2026-09-02T13:33:15.000Z</time>
      </trkpt>
      <trkpt lat="48.1358" lon="6.86502">
        <ele>659.19995117188</ele>
        <time>2026-09-02T13:33:16.000Z</time>
      </trkpt>
      <trkpt lat="48.1358" lon="6.86502">
        <ele>659.40002441406</ele>
        <time>2026-09-02T13:33:17.000Z</time>
      </trkpt>
      <trkpt lat="48.1358" lon="6.86502">
        <ele>659.40002441406</ele>
        <time>2026-09-02T13:33:18.000Z</time>
      </trkpt>
      <trkpt lat="48.1358" lon="6.86502">
        <ele>659.40002441406</ele>
        <time>2026-09-02T13:33:19.000Z</time>
      </trkpt>
      <trkpt lat="48.1358" lon="6.86502">
        <ele>659.59997558594</ele>
        <time>2026-09-02T13:33:20.000Z</time>
      </trkpt>
      <trkpt lat="48.1358" lon="6.86502">
        <ele>659.59997558594</ele>
        <time>2026-09-02T13:33:21.000Z</time>
      </trkpt>
      <trkpt lat="48.1358" lon="6.86502">
        <ele>659.80004882812</ele>
        <time>2026-09-02T13:33:22.000Z</time>
      </trkpt>
      <trkpt lat="48.1358" lon="6.86502">
        <ele>660</ele>
        <time>2026-09-02T13:33:23.000Z</time>
      </trkpt>
      <trkpt lat="48.1358" lon="6.86502">
        <ele>660.19995117188</ele>
        <time>2026-09-02T13:33:24.000Z</time>
      </trkpt>
      <trkpt lat="48.1358" lon="6.86502">
        <ele>660.40002441406</ele>
        <time>2026-09-02T13:33:25.000Z</time>
      </trkpt>
      <trkpt lat="48.1358" lon="6.86502">
        <ele>660.40002441406</ele>
        <time>2026-09-02T13:33:26.000Z</time>
      </trkpt>
      <trkpt lat="48.1358" lon="6.86502">
        <ele>660.40002441406</ele>
        <time>2026-09-02T13:33:27.000Z</time>
      </trkpt>
      <trkpt lat="48.1358" lon="6.86502">
        <ele>660.40002441406</ele>
        <time>2026-09-02T13:33:28.000Z</time>
      </trkpt>
      <trkpt lat="48.1358" lon="6.86502">
        <ele>660.40002441406</ele>
        <time>2026-09-02T13:33:29.000Z</time>
      </trkpt>
      <trkpt lat="48.1358" lon="6.86502">
        <ele>660.40002441406</ele>
        <time>2026-09-02T13:33:30.000Z</time>
      </trkpt>
      <trkpt lat="48.1358" lon="6.86502">
        <ele>660.40002441406</ele>
        <time>2026-09-02T13:33:31.000Z</time>
      </trkpt>
      <trkpt lat="48.1358" lon="6.86502">
        <ele>660.40002441406</ele>
        <time>2026-09-02T13:33:32.000Z</time>
      </trkpt>
      <trkpt lat="48.1358" lon="6.86502">
        <ele>660.40002441406</ele>
        <time>2026-09-02T13:33:33.000Z</time>
      </trkpt>
      <trkpt lat="48.1358" lon="6.86503">
        <ele>660.40002441406</ele>
        <time>2026-09-02T13:33:34.000Z</time>
      </trkpt>
      <trkpt lat="48.1358" lon="6.86504">
        <ele>660.40002441406</ele>
        <time>2026-09-02T13:33:35.000Z</time>
      </trkpt>
      <trkpt lat="48.1358" lon="6.86504">
        <ele>660.19995117188</ele>
        <time>2026-09-02T13:33:36.000Z</time>
      </trkpt>
      <trkpt lat="48.1358" lon="6.86504">
        <ele>660.19995117188</ele>
        <time>2026-09-02T13:33:37.000Z</time>
      </trkpt>
      <trkpt lat="48.1358" lon="6.86504">
        <ele>660.19995117188</ele>
        <time>2026-09-02T13:33:38.000Z</time>
      </trkpt>
      <trkpt lat="48.1358" lon="6.86504">
        <ele>660</ele>
        <time>2026-09-02T13:33:39.000Z</time>
      </trkpt>
      <trkpt lat="48.1358" lon="6.86504">
        <ele>660</ele>
        <time>2026-09-02T13:33:40.000Z</time>
      </trkpt>
      <trkpt lat="48.1358" lon="6.86504">
        <ele>660.19995117188</ele>
        <time>2026-09-02T13:33:41.000Z</time>
      </trkpt>
      <trkpt lat="48.1358" lon="6.86504">
        <ele>660.40002441406</ele>
        <time>2026-09-02T13:33:42.000Z</time>
      </trkpt>
      <trkpt lat="48.1358" lon="6.86506">
        <ele>660.80004882812</ele>
        <time>2026-09-02T13:33:43.000Z</time>
      </trkpt>
      <trkpt lat="48.13581" lon="6.86507">
        <ele>661</ele>
        <time>2026-09-02T13:33:44.000Z</time>
      </trkpt>
      <trkpt lat="48.13581" lon="6.86508">
        <ele>661.19995117188</ele>
        <time>2026-09-02T13:33:45.000Z</time>
      </trkpt>
      <trkpt lat="48.13582" lon="6.86509">
        <ele>661.40002441406</ele>
        <time>2026-09-02T13:33:46.000Z</time>
      </trkpt>
      <trkpt lat="48.13583" lon="6.86511">
        <ele>661.40002441406</ele>
        <time>2026-09-02T13:33:47.000Z</time>
      </trkpt>
      <trkpt lat="48.13583" lon="6.86512">
        <ele>661.40002441406</ele>
        <time>2026-09-02T13:33:48.000Z</time>
      </trkpt>
      <trkpt lat="48.13584" lon="6.86514">
        <ele>661.19995117188</ele>
        <time>2026-09-02T13:33:49.000Z</time>
      </trkpt>
      <trkpt lat="48.13584" lon="6.86515">
        <ele>661</ele>
        <time>2026-09-02T13:33:50.000Z</time>
      </trkpt>
      <trkpt lat="48.13585" lon="6.86517">
        <ele>661</ele>
        <time>2026-09-02T13:33:51.000Z</time>
      </trkpt>
      <trkpt lat="48.13585" lon="6.86517">
        <ele>661</ele>
        <time>2026-09-02T13:33:52.000Z</time>
      </trkpt>
      <trkpt lat="48.13585" lon="6.86519">
        <ele>661</ele>
        <time>2026-09-02T13:33:53.000Z</time>
      </trkpt>
      <trkpt lat="48.13586" lon="6.86519">
        <ele>661.19995117188</ele>
        <time>2026-09-02T13:33:54.000Z</time>
      </trkpt>
      <trkpt lat="48.13586" lon="6.86521">
        <ele>661.40002441406</ele>
        <time>2026-09-02T13:33:55.000Z</time>
      </trkpt>
      <trkpt lat="48.13586" lon="6.86522">
        <ele>661.40002441406</ele>
        <time>2026-09-02T13:33:56.000Z</time>
      </trkpt>
      <trkpt lat="48.13586" lon="6.86524">
        <ele>661.40002441406</ele>
        <time>2026-09-02T13:33:57.000Z</time>
      </trkpt>
      <trkpt lat="48.13587" lon="6.86524">
        <ele>661.40002441406</ele>
        <time>2026-09-02T13:33:58.000Z</time>
      </trkpt>
      <trkpt lat="48.13587" lon="6.86525">
        <ele>661.40002441406</ele>
        <time>2026-09-02T13:33:59.000Z</time>
      </trkpt>
      <trkpt lat="48.13588" lon="6.86526">
        <ele>661.40002441406</ele>
        <time>2026-09-02T13:34:00.000Z</time>
      </trkpt>
      <trkpt lat="48.13588" lon="6.86528">
        <ele>661.19995117188</ele>
        <time>2026-09-02T13:34:01.000Z</time>
      </trkpt>
      <trkpt lat="48.13589" lon="6.86529">
        <ele>661.19995117188</ele>
        <time>2026-09-02T13:34:02.000Z</time>
      </trkpt>
      <trkpt lat="48.13589" lon="6.86529">
        <ele>661.40002441406</ele>
        <time>2026-09-02T13:34:03.000Z</time>
      </trkpt>
      <trkpt lat="48.13589" lon="6.8653">
        <ele>661.40002441406</ele>
        <time>2026-09-02T13:34:04.000Z</time>
      </trkpt>
      <trkpt lat="48.1359" lon="6.86532">
        <ele>661.40002441406</ele>
        <time>2026-09-02T13:34:05.000Z</time>
      </trkpt>
      <trkpt lat="48.1359" lon="6.86533">
        <ele>661.40002441406</ele>
        <time>2026-09-02T13:34:06.000Z</time>
      </trkpt>
      <trkpt lat="48.13591" lon="6.86533">
        <ele>661.40002441406</ele>
        <time>2026-09-02T13:34:07.000Z</time>
      </trkpt>
      <trkpt lat="48.13591" lon="6.86534">
        <ele>661.59997558594</ele>
        <time>2026-09-02T13:34:08.000Z</time>
      </trkpt>
      <trkpt lat="48.13592" lon="6.86536">
        <ele>661.40002441406</ele>
        <time>2026-09-02T13:34:09.000Z</time>
      </trkpt>
      <trkpt lat="48.13593" lon="6.86537">
        <ele>661.40002441406</ele>
        <time>2026-09-02T13:34:10.000Z</time>
      </trkpt>
      <trkpt lat="48.13593" lon="6.86538">
        <ele>661.40002441406</ele>
        <time>2026-09-02T13:34:11.000Z</time>
      </trkpt>
      <trkpt lat="48.13594" lon="6.86539">
        <ele>661.40002441406</ele>
        <time>2026-09-02T13:34:12.000Z</time>
      </trkpt>
      <trkpt lat="48.13594" lon="6.86539">
        <ele>661.40002441406</ele>
        <time>2026-09-02T13:34:13.000Z</time>
      </trkpt>
      <trkpt lat="48.13595" lon="6.8654">
        <ele>661.40002441406</ele>
        <time>2026-09-02T13:34:14.000Z</time>
      </trkpt>
      <trkpt lat="48.13595" lon="6.86541">
        <ele>661.40002441406</ele>
        <time>2026-09-02T13:34:15.000Z</time>
      </trkpt>
      <trkpt lat="48.13596" lon="6.86542">
        <ele>661.40002441406</ele>
        <time>2026-09-02T13:34:16.000Z</time>
      </trkpt>
      <trkpt lat="48.13596" lon="6.86542">
        <ele>661.40002441406</ele>
        <time>2026-09-02T13:34:17.000Z</time>
      </trkpt>
      <trkpt lat="48.13597" lon="6.86543">
        <ele>661.40002441406</ele>
        <time>2026-09-02T13:34:18.000Z</time>
      </trkpt>
      <trkpt lat="48.13598" lon="6.86544">
        <ele>661.40002441406</ele>
        <time>2026-09-02T13:34:19.000Z</time>
      </trkpt>
      <trkpt lat="48.13598" lon="6.86545">
        <ele>661.40002441406</ele>
        <time>2026-09-02T13:34:20.000Z</time>
      </trkpt>
      <trkpt lat="48.13599" lon="6.86545">
        <ele>661.59997558594</ele>
        <time>2026-09-02T13:34:21.000Z</time>
      </trkpt>
      <trkpt lat="48.136" lon="6.86546">
        <ele>661.40002441406</ele>
        <time>2026-09-02T13:34:22.000Z</time>
      </trkpt>
      <trkpt lat="48.136" lon="6.86547">
        <ele>661.40002441406</ele>
        <time>2026-09-02T13:34:23.000Z</time>
      </trkpt>
      <trkpt lat="48.13601" lon="6.86547">
        <ele>661.40002441406</ele>
        <time>2026-09-02T13:34:24.000Z</time>
      </trkpt>
      <trkpt lat="48.13602" lon="6.86548">
        <ele>661.59997558594</ele>
        <time>2026-09-02T13:34:25.000Z</time>
      </trkpt>
      <trkpt lat="48.13603" lon="6.86549">
        <ele>661.59997558594</ele>
        <time>2026-09-02T13:34:26.000Z</time>
      </trkpt>
      <trkpt lat="48.13603" lon="6.86549">
        <ele>661.59997558594</ele>
        <time>2026-09-02T13:34:27.000Z</time>
      </trkpt>
      <trkpt lat="48.13604" lon="6.8655">
        <ele>661.80004882812</ele>
        <time>2026-09-02T13:34:28.000Z</time>
      </trkpt>
      <trkpt lat="48.13604" lon="6.8655">
        <ele>661.80004882812</ele>
        <time>2026-09-02T13:34:29.000Z</time>
      </trkpt>
      <trkpt lat="48.13605" lon="6.86551">
        <ele>661.80004882812</ele>
        <time>2026-09-02T13:34:30.000Z</time>
      </trkpt>
      <trkpt lat="48.13606" lon="6.86551">
        <ele>661.80004882812</ele>
        <time>2026-09-02T13:34:31.000Z</time>
      </trkpt>
      <trkpt lat="48.13607" lon="6.86551">
        <ele>661.80004882812</ele>
        <time>2026-09-02T13:34:32.000Z</time>
      </trkpt>
      <trkpt lat="48.13608" lon="6.86552">
        <ele>661.80004882812</ele>
        <time>2026-09-02T13:34:33.000Z</time>
      </trkpt>
      <trkpt lat="48.13609" lon="6.86552">
        <ele>662</ele>
        <time>2026-09-02T13:34:34.000Z</time>
      </trkpt>
      <trkpt lat="48.1361" lon="6.86552">
        <ele>662</ele>
        <time>2026-09-02T13:34:35.000Z</time>
      </trkpt>
      <trkpt lat="48.1361" lon="6.86552">
        <ele>662</ele>
        <time>2026-09-02T13:34:36.000Z</time>
      </trkpt>
      <trkpt lat="48.13611" lon="6.86552">
        <ele>662</ele>
        <time>2026-09-02T13:34:37.000Z</time>
      </trkpt>
      <trkpt lat="48.13612" lon="6.86553">
        <ele>662</ele>
        <time>2026-09-02T13:34:38.000Z</time>
      </trkpt>
      <trkpt lat="48.13613" lon="6.86553">
        <ele>662</ele>
        <time>2026-09-02T13:34:39.000Z</time>
      </trkpt>
      <trkpt lat="48.13613" lon="6.86553">
        <ele>662</ele>
        <time>2026-09-02T13:34:40.000Z</time>
      </trkpt>
      <trkpt lat="48.13614" lon="6.86553">
        <ele>662</ele>
        <time>2026-09-02T13:34:41.000Z</time>
      </trkpt>
      <trkpt lat="48.13614" lon="6.86553">
        <ele>662</ele>
        <time>2026-09-02T13:34:42.000Z</time>
      </trkpt>
      <trkpt lat="48.13615" lon="6.86552">
        <ele>662.19995117188</ele>
        <time>2026-09-02T13:34:43.000Z</time>
      </trkpt>
      <trkpt lat="48.13616" lon="6.86552">
        <ele>662.19995117188</ele>
        <time>2026-09-02T13:34:44.000Z</time>
      </trkpt>
      <trkpt lat="48.13616" lon="6.86552">
        <ele>662.40002441406</ele>
        <time>2026-09-02T13:34:45.000Z</time>
      </trkpt>
      <trkpt lat="48.13617" lon="6.86552">
        <ele>662.40002441406</ele>
        <time>2026-09-02T13:34:46.000Z</time>
      </trkpt>
      <trkpt lat="48.13618" lon="6.86552">
        <ele>662.40002441406</ele>
        <time>2026-09-02T13:34:47.000Z</time>
      </trkpt>
      <trkpt lat="48.1362" lon="6.86551">
        <ele>662.59997558594</ele>
        <time>2026-09-02T13:34:48.000Z</time>
      </trkpt>
      <trkpt lat="48.13621" lon="6.86551">
        <ele>662.59997558594</ele>
        <time>2026-09-02T13:34:49.000Z</time>
      </trkpt>
      <trkpt lat="48.13622" lon="6.86551">
        <ele>662.59997558594</ele>
        <time>2026-09-02T13:34:50.000Z</time>
      </trkpt>
      <trkpt lat="48.13623" lon="6.86551">
        <ele>662.59997558594</ele>
        <time>2026-09-02T13:34:51.000Z</time>
      </trkpt>
      <trkpt lat="48.13624" lon="6.86551">
        <ele>662.59997558594</ele>
        <time>2026-09-02T13:34:52.000Z</time>
      </trkpt>
      <trkpt lat="48.13625" lon="6.86551">
        <ele>662.59997558594</ele>
        <time>2026-09-02T13:34:53.000Z</time>
      </trkpt>
      <trkpt lat="48.13626" lon="6.86551">
        <ele>662.59997558594</ele>
        <time>2026-09-02T13:34:54.000Z</time>
      </trkpt>
      <trkpt lat="48.13627" lon="6.86552">
        <ele>662.59997558594</ele>
        <time>2026-09-02T13:34:55.000Z</time>
      </trkpt>
      <trkpt lat="48.13628" lon="6.86552">
        <ele>662.59997558594</ele>
        <time>2026-09-02T13:34:56.000Z</time>
      </trkpt>
      <trkpt lat="48.13629" lon="6.86552">
        <ele>662.80004882812</ele>
        <time>2026-09-02T13:34:57.000Z</time>
      </trkpt>
      <trkpt lat="48.1363" lon="6.86552">
        <ele>662.80004882812</ele>
        <time>2026-09-02T13:34:58.000Z</time>
      </trkpt>
      <trkpt lat="48.13631" lon="6.86552">
        <ele>662.80004882812</ele>
        <time>2026-09-02T13:34:59.000Z</time>
      </trkpt>
      <trkpt lat="48.13632" lon="6.86553">
        <ele>662.80004882812</ele>
        <time>2026-09-02T13:35:00.000Z</time>
      </trkpt>
      <trkpt lat="48.13633" lon="6.86552">
        <ele>662.80004882812</ele>
        <time>2026-09-02T13:35:01.000Z</time>
      </trkpt>
      <trkpt lat="48.13634" lon="6.86553">
        <ele>662.80004882812</ele>
        <time>2026-09-02T13:35:02.000Z</time>
      </trkpt>
      <trkpt lat="48.13634" lon="6.86553">
        <ele>662.80004882812</ele>
        <time>2026-09-02T13:35:03.000Z</time>
      </trkpt>
      <trkpt lat="48.13636" lon="6.86553">
        <ele>662.80004882812</ele>
        <time>2026-09-02T13:35:04.000Z</time>
      </trkpt>
      <trkpt lat="48.13637" lon="6.86553">
        <ele>662.80004882812</ele>
        <time>2026-09-02T13:35:05.000Z</time>
      </trkpt>
      <trkpt lat="48.13639" lon="6.86553">
        <ele>663</ele>
        <time>2026-09-02T13:35:06.000Z</time>
      </trkpt>
      <trkpt lat="48.13639" lon="6.86553">
        <ele>663</ele>
        <time>2026-09-02T13:35:07.000Z</time>
      </trkpt>
      <trkpt lat="48.1364" lon="6.86553">
        <ele>663.19995117188</ele>
        <time>2026-09-02T13:35:08.000Z</time>
      </trkpt>
      <trkpt lat="48.13641" lon="6.86553">
        <ele>663.19995117188</ele>
        <time>2026-09-02T13:35:09.000Z</time>
      </trkpt>
      <trkpt lat="48.13642" lon="6.86552">
        <ele>663.19995117188</ele>
        <time>2026-09-02T13:35:10.000Z</time>
      </trkpt>
      <trkpt lat="48.13643" lon="6.86552">
        <ele>663.40002441406</ele>
        <time>2026-09-02T13:35:11.000Z</time>
      </trkpt>
      <trkpt lat="48.13645" lon="6.86552">
        <ele>663.40002441406</ele>
        <time>2026-09-02T13:35:12.000Z</time>
      </trkpt>
      <trkpt lat="48.13645" lon="6.86553">
        <ele>663.40002441406</ele>
        <time>2026-09-02T13:35:13.000Z</time>
      </trkpt>
      <trkpt lat="48.13647" lon="6.86552">
        <ele>663.40002441406</ele>
        <time>2026-09-02T13:35:14.000Z</time>
      </trkpt>
      <trkpt lat="48.13648" lon="6.86552">
        <ele>663.40002441406</ele>
        <time>2026-09-02T13:35:15.000Z</time>
      </trkpt>
      <trkpt lat="48.13649" lon="6.86552">
        <ele>663.40002441406</ele>
        <time>2026-09-02T13:35:16.000Z</time>
      </trkpt>
      <trkpt lat="48.1365" lon="6.86552">
        <ele>663.19995117188</ele>
        <time>2026-09-02T13:35:17.000Z</time>
      </trkpt>
      <trkpt lat="48.1365" lon="6.86552">
        <ele>663.19995117188</ele>
        <time>2026-09-02T13:35:18.000Z</time>
      </trkpt>
      <trkpt lat="48.13651" lon="6.86551">
        <ele>663.19995117188</ele>
        <time>2026-09-02T13:35:19.000Z</time>
      </trkpt>
      <trkpt lat="48.13652" lon="6.86551">
        <ele>663.19995117188</ele>
        <time>2026-09-02T13:35:20.000Z</time>
      </trkpt>
      <trkpt lat="48.13653" lon="6.86551">
        <ele>663.40002441406</ele>
        <time>2026-09-02T13:35:21.000Z</time>
      </trkpt>
      <trkpt lat="48.13653" lon="6.8655">
        <ele>663.40002441406</ele>
        <time>2026-09-02T13:35:22.000Z</time>
      </trkpt>
      <trkpt lat="48.13654" lon="6.8655">
        <ele>663.40002441406</ele>
        <time>2026-09-02T13:35:23.000Z</time>
      </trkpt>
      <trkpt lat="48.13654" lon="6.86549">
        <ele>663.40002441406</ele>
        <time>2026-09-02T13:35:24.000Z</time>
      </trkpt>
      <trkpt lat="48.13655" lon="6.86548">
        <ele>663.59997558594</ele>
        <time>2026-09-02T13:35:25.000Z</time>
      </trkpt>
      <trkpt lat="48.13655" lon="6.86548">
        <ele>663.59997558594</ele>
        <time>2026-09-02T13:35:26.000Z</time>
      </trkpt>
      <trkpt lat="48.13656" lon="6.86547">
        <ele>663.40002441406</ele>
        <time>2026-09-02T13:35:27.000Z</time>
      </trkpt>
      <trkpt lat="48.13657" lon="6.86547">
        <ele>663.40002441406</ele>
        <time>2026-09-02T13:35:28.000Z</time>
      </trkpt>
      <trkpt lat="48.13657" lon="6.86546">
        <ele>663.40002441406</ele>
        <time>2026-09-02T13:35:29.000Z</time>
      </trkpt>
      <trkpt lat="48.13658" lon="6.86546">
        <ele>663.40002441406</ele>
        <time>2026-09-02T13:35:30.000Z</time>
      </trkpt>
      <trkpt lat="48.13658" lon="6.86545">
        <ele>663.59997558594</ele>
        <time>2026-09-02T13:35:31.000Z</time>
      </trkpt>
      <trkpt lat="48.13659" lon="6.86545">
        <ele>663.59997558594</ele>
        <time>2026-09-02T13:35:32.000Z</time>
      </trkpt>
      <trkpt lat="48.1366" lon="6.86545">
        <ele>663.59997558594</ele>
        <time>2026-09-02T13:35:33.000Z</time>
      </trkpt>
      <trkpt lat="48.13662" lon="6.86545">
        <ele>663.59997558594</ele>
        <time>2026-09-02T13:35:34.000Z</time>
      </trkpt>
      <trkpt lat="48.13662" lon="6.86545">
        <ele>663.59997558594</ele>
        <time>2026-09-02T13:35:35.000Z</time>
      </trkpt>
      <trkpt lat="48.13663" lon="6.86546">
        <ele>663.59997558594</ele>
        <time>2026-09-02T13:35:36.000Z</time>
      </trkpt>
      <trkpt lat="48.13664" lon="6.86546">
        <ele>663.80004882812</ele>
        <time>2026-09-02T13:35:37.000Z</time>
      </trkpt>
      <trkpt lat="48.13664" lon="6.86547">
        <ele>663.80004882812</ele>
        <time>2026-09-02T13:35:38.000Z</time>
      </trkpt>
      <trkpt lat="48.13663" lon="6.86547">
        <ele>663.80004882812</ele>
        <time>2026-09-02T13:35:39.000Z</time>
      </trkpt>
      <trkpt lat="48.13663" lon="6.86547">
        <ele>663.80004882812</ele>
        <time>2026-09-02T13:35:40.000Z</time>
      </trkpt>
      <trkpt lat="48.13663" lon="6.86546">
        <ele>663.59997558594</ele>
        <time>2026-09-02T13:35:41.000Z</time>
      </trkpt>
      <trkpt lat="48.13663" lon="6.86546">
        <ele>663.59997558594</ele>
        <time>2026-09-02T13:35:42.000Z</time>
      </trkpt>
      <trkpt lat="48.13663" lon="6.86546">
        <ele>663.59997558594</ele>
        <time>2026-09-02T13:35:43.000Z</time>
      </trkpt>
      <trkpt lat="48.13663" lon="6.86546">
        <ele>663.40002441406</ele>
        <time>2026-09-02T13:35:44.000Z</time>
      </trkpt>
      <trkpt lat="48.13663" lon="6.86546">
        <ele>663.40002441406</ele>
        <time>2026-09-02T13:35:45.000Z</time>
      </trkpt>
      <trkpt lat="48.13663" lon="6.86546">
        <ele>663.19995117188</ele>
        <time>2026-09-02T13:35:46.000Z</time>
      </trkpt>
      <trkpt lat="48.13664" lon="6.86546">
        <ele>663.19995117188</ele>
        <time>2026-09-02T13:35:47.000Z</time>
      </trkpt>
      <trkpt lat="48.13665" lon="6.86546">
        <ele>663</ele>
        <time>2026-09-02T13:35:48.000Z</time>
      </trkpt>
      <trkpt lat="48.13665" lon="6.86545">
        <ele>663</ele>
        <time>2026-09-02T13:35:49.000Z</time>
      </trkpt>
      <trkpt lat="48.13666" lon="6.86545">
        <ele>663</ele>
        <time>2026-09-02T13:35:50.000Z</time>
      </trkpt>
      <trkpt lat="48.13667" lon="6.86544">
        <ele>663</ele>
        <time>2026-09-02T13:35:51.000Z</time>
      </trkpt>
      <trkpt lat="48.13668" lon="6.86544">
        <ele>663</ele>
        <time>2026-09-02T13:35:52.000Z</time>
      </trkpt>
      <trkpt lat="48.13669" lon="6.86544">
        <ele>663</ele>
        <time>2026-09-02T13:35:53.000Z</time>
      </trkpt>
      <trkpt lat="48.1367" lon="6.86543">
        <ele>663</ele>
        <time>2026-09-02T13:35:54.000Z</time>
      </trkpt>
      <trkpt lat="48.13671" lon="6.86543">
        <ele>663.19995117188</ele>
        <time>2026-09-02T13:35:55.000Z</time>
      </trkpt>
      <trkpt lat="48.13672" lon="6.86542">
        <ele>663.19995117188</ele>
        <time>2026-09-02T13:35:56.000Z</time>
      </trkpt>
      <trkpt lat="48.13673" lon="6.86542">
        <ele>663.40002441406</ele>
        <time>2026-09-02T13:35:57.000Z</time>
      </trkpt>
      <trkpt lat="48.13674" lon="6.86541">
        <ele>663.40002441406</ele>
        <time>2026-09-02T13:35:58.000Z</time>
      </trkpt>
      <trkpt lat="48.13675" lon="6.86541">
        <ele>663.40002441406</ele>
        <time>2026-09-02T13:35:59.000Z</time>
      </trkpt>
      <trkpt lat="48.13676" lon="6.8654">
        <ele>663.19995117188</ele>
        <time>2026-09-02T13:36:00.000Z</time>
      </trkpt>
      <trkpt lat="48.13676" lon="6.8654">
        <ele>663.19995117188</ele>
        <time>2026-09-02T13:36:01.000Z</time>
      </trkpt>
      <trkpt lat="48.13677" lon="6.86539">
        <ele>663.19995117188</ele>
        <time>2026-09-02T13:36:02.000Z</time>
      </trkpt>
      <trkpt lat="48.13678" lon="6.86538">
        <ele>663.19995117188</ele>
        <time>2026-09-02T13:36:03.000Z</time>
      </trkpt>
      <trkpt lat="48.13679" lon="6.86538">
        <ele>663.19995117188</ele>
        <time>2026-09-02T13:36:04.000Z</time>
      </trkpt>
      <trkpt lat="48.1368" lon="6.86537">
        <ele>663.19995117188</ele>
        <time>2026-09-02T13:36:05.000Z</time>
      </trkpt>
      <trkpt lat="48.13681" lon="6.86536">
        <ele>663.19995117188</ele>
        <time>2026-09-02T13:36:06.000Z</time>
      </trkpt>
      <trkpt lat="48.13682" lon="6.86535">
        <ele>663.19995117188</ele>
        <time>2026-09-02T13:36:07.000Z</time>
      </trkpt>
      <trkpt lat="48.13683" lon="6.86535">
        <ele>663.19995117188</ele>
        <time>2026-09-02T13:36:08.000Z</time>
      </trkpt>
      <trkpt lat="48.13684" lon="6.86534">
        <ele>663.19995117188</ele>
        <time>2026-09-02T13:36:09.000Z</time>
      </trkpt>
      <trkpt lat="48.13685" lon="6.86533">
        <ele>663.19995117188</ele>
        <time>2026-09-02T13:36:10.000Z</time>
      </trkpt>
      <trkpt lat="48.13685" lon="6.86532">
        <ele>663</ele>
        <time>2026-09-02T13:36:11.000Z</time>
      </trkpt>
      <trkpt lat="48.13686" lon="6.86532">
        <ele>663</ele>
        <time>2026-09-02T13:36:12.000Z</time>
      </trkpt>
      <trkpt lat="48.13687" lon="6.86531">
        <ele>663</ele>
        <time>2026-09-02T13:36:13.000Z</time>
      </trkpt>
      <trkpt lat="48.13688" lon="6.86531">
        <ele>663</ele>
        <time>2026-09-02T13:36:14.000Z</time>
      </trkpt>
      <trkpt lat="48.13689" lon="6.8653">
        <ele>663</ele>
        <time>2026-09-02T13:36:15.000Z</time>
      </trkpt>
      <trkpt lat="48.1369" lon="6.86529">
        <ele>663.19995117188</ele>
        <time>2026-09-02T13:36:16.000Z</time>
      </trkpt>
      <trkpt lat="48.13691" lon="6.86529">
        <ele>663.19995117188</ele>
        <time>2026-09-02T13:36:17.000Z</time>
      </trkpt>
      <trkpt lat="48.13692" lon="6.86528">
        <ele>663.40002441406</ele>
        <time>2026-09-02T13:36:18.000Z</time>
      </trkpt>
      <trkpt lat="48.13693" lon="6.86527">
        <ele>663.40002441406</ele>
        <time>2026-09-02T13:36:19.000Z</time>
      </trkpt>
      <trkpt lat="48.13694" lon="6.86526">
        <ele>663.40002441406</ele>
        <time>2026-09-02T13:36:20.000Z</time>
      </trkpt>
      <trkpt lat="48.13695" lon="6.86525">
        <ele>663.40002441406</ele>
        <time>2026-09-02T13:36:21.000Z</time>
      </trkpt>
      <trkpt lat="48.13696" lon="6.86524">
        <ele>663.40002441406</ele>
        <time>2026-09-02T13:36:22.000Z</time>
      </trkpt>
      <trkpt lat="48.13696" lon="6.86524">
        <ele>663.59997558594</ele>
        <time>2026-09-02T13:36:23.000Z</time>
      </trkpt>
      <trkpt lat="48.13697" lon="6.86523">
        <ele>663.59997558594</ele>
        <time>2026-09-02T13:36:24.000Z</time>
      </trkpt>
      <trkpt lat="48.13698" lon="6.86522">
        <ele>663.80004882812</ele>
        <time>2026-09-02T13:36:25.000Z</time>
      </trkpt>
      <trkpt lat="48.13699" lon="6.86522">
        <ele>663.80004882812</ele>
        <time>2026-09-02T13:36:26.000Z</time>
      </trkpt>
      <trkpt lat="48.137" lon="6.86521">
        <ele>663.80004882812</ele>
        <time>2026-09-02T13:36:27.000Z</time>
      </trkpt>
      <trkpt lat="48.137" lon="6.86521">
        <ele>663.80004882812</ele>
        <time>2026-09-02T13:36:28.000Z</time>
      </trkpt>
      <trkpt lat="48.13701" lon="6.8652">
        <ele>663.80004882812</ele>
        <time>2026-09-02T13:36:29.000Z</time>
      </trkpt>
      <trkpt lat="48.13702" lon="6.8652">
        <ele>663.80004882812</ele>
        <time>2026-09-02T13:36:30.000Z</time>
      </trkpt>
      <trkpt lat="48.13703" lon="6.86519">
        <ele>663.59997558594</ele>
        <time>2026-09-02T13:36:31.000Z</time>
      </trkpt>
      <trkpt lat="48.13704" lon="6.86518">
        <ele>663.59997558594</ele>
        <time>2026-09-02T13:36:32.000Z</time>
      </trkpt>
      <trkpt lat="48.13705" lon="6.86518">
        <ele>663.59997558594</ele>
        <time>2026-09-02T13:36:33.000Z</time>
      </trkpt>
      <trkpt lat="48.13706" lon="6.86517">
        <ele>663.59997558594</ele>
        <time>2026-09-02T13:36:34.000Z</time>
      </trkpt>
      <trkpt lat="48.13707" lon="6.86517">
        <ele>663.59997558594</ele>
        <time>2026-09-02T13:36:35.000Z</time>
      </trkpt>
      <trkpt lat="48.13707" lon="6.86516">
        <ele>663.59997558594</ele>
        <time>2026-09-02T13:36:36.000Z</time>
      </trkpt>
      <trkpt lat="48.13708" lon="6.86515">
        <ele>663.80004882812</ele>
        <time>2026-09-02T13:36:37.000Z</time>
      </trkpt>
      <trkpt lat="48.13709" lon="6.86514">
        <ele>663.80004882812</ele>
        <time>2026-09-02T13:36:38.000Z</time>
      </trkpt>
      <trkpt lat="48.1371" lon="6.86514">
        <ele>663.80004882812</ele>
        <time>2026-09-02T13:36:39.000Z</time>
      </trkpt>
      <trkpt lat="48.13711" lon="6.86513">
        <ele>663.80004882812</ele>
        <time>2026-09-02T13:36:40.000Z</time>
      </trkpt>
      <trkpt lat="48.13712" lon="6.86512">
        <ele>663.80004882812</ele>
        <time>2026-09-02T13:36:41.000Z</time>
      </trkpt>
      <trkpt lat="48.13712" lon="6.86512">
        <ele>663.80004882812</ele>
        <time>2026-09-02T13:36:42.000Z</time>
      </trkpt>
      <trkpt lat="48.13713" lon="6.86511">
        <ele>663.80004882812</ele>
        <time>2026-09-02T13:36:43.000Z</time>
      </trkpt>
      <trkpt lat="48.13714" lon="6.86511">
        <ele>663.80004882812</ele>
        <time>2026-09-02T13:36:44.000Z</time>
      </trkpt>
      <trkpt lat="48.13715" lon="6.8651">
        <ele>663.80004882812</ele>
        <time>2026-09-02T13:36:45.000Z</time>
      </trkpt>
      <trkpt lat="48.13715" lon="6.8651">
        <ele>663.80004882812</ele>
        <time>2026-09-02T13:36:46.000Z</time>
      </trkpt>
      <trkpt lat="48.13716" lon="6.86509">
        <ele>663.80004882812</ele>
        <time>2026-09-02T13:36:47.000Z</time>
      </trkpt>
      <trkpt lat="48.13717" lon="6.86508">
        <ele>663.80004882812</ele>
        <time>2026-09-02T13:36:48.000Z</time>
      </trkpt>
      <trkpt lat="48.13718" lon="6.86508">
        <ele>663.80004882812</ele>
        <time>2026-09-02T13:36:49.000Z</time>
      </trkpt>
      <trkpt lat="48.13719" lon="6.86507">
        <ele>663.80004882812</ele>
        <time>2026-09-02T13:36:50.000Z</time>
      </trkpt>
      <trkpt lat="48.1372" lon="6.86507">
        <ele>663.80004882812</ele>
        <time>2026-09-02T13:36:51.000Z</time>
      </trkpt>
      <trkpt lat="48.13721" lon="6.86506">
        <ele>664</ele>
        <time>2026-09-02T13:36:52.000Z</time>
      </trkpt>
      <trkpt lat="48.13721" lon="6.86505">
        <ele>664</ele>
        <time>2026-09-02T13:36:53.000Z</time>
      </trkpt>
      <trkpt lat="48.13722" lon="6.86504">
        <ele>664</ele>
        <time>2026-09-02T13:36:54.000Z</time>
      </trkpt>
      <trkpt lat="48.13723" lon="6.86504">
        <ele>664</ele>
        <time>2026-09-02T13:36:55.000Z</time>
      </trkpt>
      <trkpt lat="48.13724" lon="6.86503">
        <ele>664</ele>
        <time>2026-09-02T13:36:56.000Z</time>
      </trkpt>
      <trkpt lat="48.13724" lon="6.86502">
        <ele>663.80004882812</ele>
        <time>2026-09-02T13:36:57.000Z</time>
      </trkpt>
      <trkpt lat="48.13725" lon="6.86502">
        <ele>663.80004882812</ele>
        <time>2026-09-02T13:36:58.000Z</time>
      </trkpt>
      <trkpt lat="48.13726" lon="6.865">
        <ele>663.80004882812</ele>
        <time>2026-09-02T13:36:59.000Z</time>
      </trkpt>
      <trkpt lat="48.13726" lon="6.865">
        <ele>663.80004882812</ele>
        <time>2026-09-02T13:37:00.000Z</time>
      </trkpt>
      <trkpt lat="48.13727" lon="6.86499">
        <ele>664</ele>
        <time>2026-09-02T13:37:01.000Z</time>
      </trkpt>
      <trkpt lat="48.13728" lon="6.86499">
        <ele>664.19995117188</ele>
        <time>2026-09-02T13:37:02.000Z</time>
      </trkpt>
      <trkpt lat="48.13729" lon="6.86498">
        <ele>664.19995117188</ele>
        <time>2026-09-02T13:37:03.000Z</time>
      </trkpt>
      <trkpt lat="48.13729" lon="6.86498">
        <ele>664.40002441406</ele>
        <time>2026-09-02T13:37:04.000Z</time>
      </trkpt>
      <trkpt lat="48.1373" lon="6.86497">
        <ele>664.40002441406</ele>
        <time>2026-09-02T13:37:05.000Z</time>
      </trkpt>
      <trkpt lat="48.13731" lon="6.86497">
        <ele>664.59997558594</ele>
        <time>2026-09-02T13:37:06.000Z</time>
      </trkpt>
      <trkpt lat="48.13733" lon="6.86497">
        <ele>664.59997558594</ele>
        <time>2026-09-02T13:37:07.000Z</time>
      </trkpt>
      <trkpt lat="48.13733" lon="6.86496">
        <ele>664.59997558594</ele>
        <time>2026-09-02T13:37:08.000Z</time>
      </trkpt>
      <trkpt lat="48.13734" lon="6.86496">
        <ele>664.59997558594</ele>
        <time>2026-09-02T13:37:09.000Z</time>
      </trkpt>
      <trkpt lat="48.13735" lon="6.86496">
        <ele>664.59997558594</ele>
        <time>2026-09-02T13:37:10.000Z</time>
      </trkpt>
      <trkpt lat="48.13736" lon="6.86495">
        <ele>664.40002441406</ele>
        <time>2026-09-02T13:37:11.000Z</time>
      </trkpt>
      <trkpt lat="48.13737" lon="6.86495">
        <ele>664.40002441406</ele>
        <time>2026-09-02T13:37:12.000Z</time>
      </trkpt>
      <trkpt lat="48.13738" lon="6.86494">
        <ele>664.40002441406</ele>
        <time>2026-09-02T13:37:13.000Z</time>
      </trkpt>
      <trkpt lat="48.13739" lon="6.86494">
        <ele>664.19995117188</ele>
        <time>2026-09-02T13:37:14.000Z</time>
      </trkpt>
      <trkpt lat="48.1374" lon="6.86493">
        <ele>664.19995117188</ele>
        <time>2026-09-02T13:37:15.000Z</time>
      </trkpt>
      <trkpt lat="48.13741" lon="6.86493">
        <ele>664.19995117188</ele>
        <time>2026-09-02T13:37:16.000Z</time>
      </trkpt>
      <trkpt lat="48.13742" lon="6.86492">
        <ele>664</ele>
        <time>2026-09-02T13:37:17.000Z</time>
      </trkpt>
      <trkpt lat="48.13743" lon="6.86492">
        <ele>664</ele>
        <time>2026-09-02T13:37:18.000Z</time>
      </trkpt>
      <trkpt lat="48.13744" lon="6.86492">
        <ele>664.19995117188</ele>
        <time>2026-09-02T13:37:19.000Z</time>
      </trkpt>
      <trkpt lat="48.13744" lon="6.86492">
        <ele>664.19995117188</ele>
        <time>2026-09-02T13:37:20.000Z</time>
      </trkpt>
      <trkpt lat="48.13745" lon="6.86491">
        <ele>664.19995117188</ele>
        <time>2026-09-02T13:37:21.000Z</time>
      </trkpt>
      <trkpt lat="48.13745" lon="6.86491">
        <ele>664</ele>
        <time>2026-09-02T13:37:22.000Z</time>
      </trkpt>
      <trkpt lat="48.13746" lon="6.86491">
        <ele>664</ele>
        <time>2026-09-02T13:37:23.000Z</time>
      </trkpt>
      <trkpt lat="48.13747" lon="6.86491">
        <ele>664</ele>
        <time>2026-09-02T13:37:24.000Z</time>
      </trkpt>
      <trkpt lat="48.13748" lon="6.86491">
        <ele>664</ele>
        <time>2026-09-02T13:37:25.000Z</time>
      </trkpt>
      <trkpt lat="48.13749" lon="6.86491">
        <ele>664</ele>
        <time>2026-09-02T13:37:26.000Z</time>
      </trkpt>
      <trkpt lat="48.1375" lon="6.86491">
        <ele>664</ele>
        <time>2026-09-02T13:37:27.000Z</time>
      </trkpt>
      <trkpt lat="48.13752" lon="6.86491">
        <ele>664</ele>
        <time>2026-09-02T13:37:28.000Z</time>
      </trkpt>
      <trkpt lat="48.13753" lon="6.86491">
        <ele>664</ele>
        <time>2026-09-02T13:37:29.000Z</time>
      </trkpt>
      <trkpt lat="48.13754" lon="6.86491">
        <ele>663.80004882812</ele>
        <time>2026-09-02T13:37:30.000Z</time>
      </trkpt>
      <trkpt lat="48.13755" lon="6.86491">
        <ele>663.80004882812</ele>
        <time>2026-09-02T13:37:31.000Z</time>
      </trkpt>
      <trkpt lat="48.13757" lon="6.86491">
        <ele>663.80004882812</ele>
        <time>2026-09-02T13:37:32.000Z</time>
      </trkpt>
      <trkpt lat="48.13758" lon="6.86491">
        <ele>663.59997558594</ele>
        <time>2026-09-02T13:37:33.000Z</time>
      </trkpt>
      <trkpt lat="48.13759" lon="6.86492">
        <ele>663.59997558594</ele>
        <time>2026-09-02T13:37:34.000Z</time>
      </trkpt>
      <trkpt lat="48.13761" lon="6.86493">
        <ele>663.59997558594</ele>
        <time>2026-09-02T13:37:35.000Z</time>
      </trkpt>
      <trkpt lat="48.13762" lon="6.86493">
        <ele>663.59997558594</ele>
        <time>2026-09-02T13:37:36.000Z</time>
      </trkpt>
      <trkpt lat="48.13763" lon="6.86494">
        <ele>663.59997558594</ele>
        <time>2026-09-02T13:37:37.000Z</time>
      </trkpt>
      <trkpt lat="48.13764" lon="6.86494">
        <ele>663.59997558594</ele>
        <time>2026-09-02T13:37:38.000Z</time>
      </trkpt>
      <trkpt lat="48.13765" lon="6.86495">
        <ele>663.59997558594</ele>
        <time>2026-09-02T13:37:39.000Z</time>
      </trkpt>
      <trkpt lat="48.13765" lon="6.86495">
        <ele>663.59997558594</ele>
        <time>2026-09-02T13:37:40.000Z</time>
      </trkpt>
      <trkpt lat="48.13767" lon="6.86496">
        <ele>663.59997558594</ele>
        <time>2026-09-02T13:37:41.000Z</time>
      </trkpt>
      <trkpt lat="48.13768" lon="6.86497">
        <ele>663.40002441406</ele>
        <time>2026-09-02T13:37:42.000Z</time>
      </trkpt>
      <trkpt lat="48.13769" lon="6.86497">
        <ele>663.40002441406</ele>
        <time>2026-09-02T13:37:43.000Z</time>
      </trkpt>
      <trkpt lat="48.13769" lon="6.86498">
        <ele>663.19995117188</ele>
        <time>2026-09-02T13:37:44.000Z</time>
      </trkpt>
      <trkpt lat="48.1377" lon="6.86498">
        <ele>663.19995117188</ele>
        <time>2026-09-02T13:37:45.000Z</time>
      </trkpt>
      <trkpt lat="48.13771" lon="6.86499">
        <ele>663.19995117188</ele>
        <time>2026-09-02T13:37:46.000Z</time>
      </trkpt>
      <trkpt lat="48.13772" lon="6.865">
        <ele>663</ele>
        <time>2026-09-02T13:37:47.000Z</time>
      </trkpt>
      <trkpt lat="48.13773" lon="6.865">
        <ele>663</ele>
        <time>2026-09-02T13:37:48.000Z</time>
      </trkpt>
      <trkpt lat="48.13773" lon="6.86502">
        <ele>663</ele>
        <time>2026-09-02T13:37:49.000Z</time>
      </trkpt>
      <trkpt lat="48.13774" lon="6.86502">
        <ele>663</ele>
        <time>2026-09-02T13:37:50.000Z</time>
      </trkpt>
      <trkpt lat="48.13775" lon="6.86503">
        <ele>662.80004882812</ele>
        <time>2026-09-02T13:37:51.000Z</time>
      </trkpt>
      <trkpt lat="48.13776" lon="6.86504">
        <ele>662.80004882812</ele>
        <time>2026-09-02T13:37:52.000Z</time>
      </trkpt>
      <trkpt lat="48.13777" lon="6.86505">
        <ele>662.59997558594</ele>
        <time>2026-09-02T13:37:53.000Z</time>
      </trkpt>
      <trkpt lat="48.13778" lon="6.86504">
        <ele>662.59997558594</ele>
        <time>2026-09-02T13:37:54.000Z</time>
      </trkpt>
      <trkpt lat="48.13779" lon="6.86505">
        <ele>662.59997558594</ele>
        <time>2026-09-02T13:37:55.000Z</time>
      </trkpt>
      <trkpt lat="48.1378" lon="6.86506">
        <ele>662.40002441406</ele>
        <time>2026-09-02T13:37:56.000Z</time>
      </trkpt>
      <trkpt lat="48.13781" lon="6.86506">
        <ele>662.40002441406</ele>
        <time>2026-09-02T13:37:57.000Z</time>
      </trkpt>
      <trkpt lat="48.13782" lon="6.86506">
        <ele>662.19995117188</ele>
        <time>2026-09-02T13:37:58.000Z</time>
      </trkpt>
      <trkpt lat="48.13783" lon="6.86507">
        <ele>662.19995117188</ele>
        <time>2026-09-02T13:37:59.000Z</time>
      </trkpt>
      <trkpt lat="48.13784" lon="6.86508">
        <ele>662</ele>
        <time>2026-09-02T13:38:00.000Z</time>
      </trkpt>
      <trkpt lat="48.13785" lon="6.86507">
        <ele>662</ele>
        <time>2026-09-02T13:38:01.000Z</time>
      </trkpt>
      <trkpt lat="48.13785" lon="6.86507">
        <ele>662</ele>
        <time>2026-09-02T13:38:02.000Z</time>
      </trkpt>
      <trkpt lat="48.13786" lon="6.86508">
        <ele>662</ele>
        <time>2026-09-02T13:38:03.000Z</time>
      </trkpt>
      <trkpt lat="48.13787" lon="6.86508">
        <ele>662</ele>
        <time>2026-09-02T13:38:04.000Z</time>
      </trkpt>
      <trkpt lat="48.13788" lon="6.86509">
        <ele>662.19995117188</ele>
        <time>2026-09-02T13:38:05.000Z</time>
      </trkpt>
      <trkpt lat="48.1379" lon="6.8651">
        <ele>662.19995117188</ele>
        <time>2026-09-02T13:38:06.000Z</time>
      </trkpt>
      <trkpt lat="48.1379" lon="6.8651">
        <ele>662.19995117188</ele>
        <time>2026-09-02T13:38:07.000Z</time>
      </trkpt>
      <trkpt lat="48.13791" lon="6.8651">
        <ele>662.19995117188</ele>
        <time>2026-09-02T13:38:08.000Z</time>
      </trkpt>
      <trkpt lat="48.13792" lon="6.86511">
        <ele>662.19995117188</ele>
        <time>2026-09-02T13:38:09.000Z</time>
      </trkpt>
      <trkpt lat="48.13792" lon="6.8651">
        <ele>662</ele>
        <time>2026-09-02T13:38:10.000Z</time>
      </trkpt>
      <trkpt lat="48.13793" lon="6.8651">
        <ele>662</ele>
        <time>2026-09-02T13:38:11.000Z</time>
      </trkpt>
      <trkpt lat="48.13794" lon="6.8651">
        <ele>662</ele>
        <time>2026-09-02T13:38:12.000Z</time>
      </trkpt>
      <trkpt lat="48.13795" lon="6.8651">
        <ele>662</ele>
        <time>2026-09-02T13:38:13.000Z</time>
      </trkpt>
      <trkpt lat="48.13795" lon="6.8651">
        <ele>662</ele>
        <time>2026-09-02T13:38:14.000Z</time>
      </trkpt>
      <trkpt lat="48.13795" lon="6.8651">
        <ele>662</ele>
        <time>2026-09-02T13:38:15.000Z</time>
      </trkpt>
      <trkpt lat="48.13796" lon="6.8651">
        <ele>662</ele>
        <time>2026-09-02T13:38:16.000Z</time>
      </trkpt>
      <trkpt lat="48.13796" lon="6.8651">
        <ele>661.80004882812</ele>
        <time>2026-09-02T13:38:17.000Z</time>
      </trkpt>
      <trkpt lat="48.13797" lon="6.86509">
        <ele>661.80004882812</ele>
        <time>2026-09-02T13:38:18.000Z</time>
      </trkpt>
      <trkpt lat="48.13798" lon="6.86509">
        <ele>661.80004882812</ele>
        <time>2026-09-02T13:38:19.000Z</time>
      </trkpt>
      <trkpt lat="48.13798" lon="6.86508">
        <ele>661.59997558594</ele>
        <time>2026-09-02T13:38:20.000Z</time>
      </trkpt>
      <trkpt lat="48.13799" lon="6.86508">
        <ele>661.59997558594</ele>
        <time>2026-09-02T13:38:21.000Z</time>
      </trkpt>
      <trkpt lat="48.138" lon="6.86508">
        <ele>661.59997558594</ele>
        <time>2026-09-02T13:38:22.000Z</time>
      </trkpt>
      <trkpt lat="48.13801" lon="6.86508">
        <ele>661.59997558594</ele>
        <time>2026-09-02T13:38:23.000Z</time>
      </trkpt>
      <trkpt lat="48.13802" lon="6.86508">
        <ele>661.59997558594</ele>
        <time>2026-09-02T13:38:24.000Z</time>
      </trkpt>
      <trkpt lat="48.13803" lon="6.86507">
        <ele>661.59997558594</ele>
        <time>2026-09-02T13:38:25.000Z</time>
      </trkpt>
      <trkpt lat="48.13804" lon="6.86506">
        <ele>661.59997558594</ele>
        <time>2026-09-02T13:38:26.000Z</time>
      </trkpt>
      <trkpt lat="48.13805" lon="6.86506">
        <ele>661.80004882812</ele>
        <time>2026-09-02T13:38:27.000Z</time>
      </trkpt>
      <trkpt lat="48.13806" lon="6.86506">
        <ele>661.80004882812</ele>
        <time>2026-09-02T13:38:28.000Z</time>
      </trkpt>
      <trkpt lat="48.13807" lon="6.86505">
        <ele>661.80004882812</ele>
        <time>2026-09-02T13:38:29.000Z</time>
      </trkpt>
      <trkpt lat="48.13807" lon="6.86505">
        <ele>661.80004882812</ele>
        <time>2026-09-02T13:38:30.000Z</time>
      </trkpt>
      <trkpt lat="48.13809" lon="6.86504">
        <ele>661.80004882812</ele>
        <time>2026-09-02T13:38:31.000Z</time>
      </trkpt>
      <trkpt lat="48.1381" lon="6.86503">
        <ele>661.80004882812</ele>
        <time>2026-09-02T13:38:32.000Z</time>
      </trkpt>
      <trkpt lat="48.1381" lon="6.86503">
        <ele>661.80004882812</ele>
        <time>2026-09-02T13:38:33.000Z</time>
      </trkpt>
      <trkpt lat="48.13811" lon="6.86502">
        <ele>661.80004882812</ele>
        <time>2026-09-02T13:38:34.000Z</time>
      </trkpt>
      <trkpt lat="48.13812" lon="6.86501">
        <ele>661.80004882812</ele>
        <time>2026-09-02T13:38:35.000Z</time>
      </trkpt>
      <trkpt lat="48.13813" lon="6.86501">
        <ele>661.80004882812</ele>
        <time>2026-09-02T13:38:36.000Z</time>
      </trkpt>
      <trkpt lat="48.13814" lon="6.865">
        <ele>661.80004882812</ele>
        <time>2026-09-02T13:38:37.000Z</time>
      </trkpt>
      <trkpt lat="48.13815" lon="6.865">
        <ele>661.80004882812</ele>
        <time>2026-09-02T13:38:38.000Z</time>
      </trkpt>
      <trkpt lat="48.13815" lon="6.86499">
        <ele>662</ele>
        <time>2026-09-02T13:38:39.000Z</time>
      </trkpt>
      <trkpt lat="48.13816" lon="6.86498">
        <ele>662</ele>
        <time>2026-09-02T13:38:40.000Z</time>
      </trkpt>
      <trkpt lat="48.13817" lon="6.86498">
        <ele>662</ele>
        <time>2026-09-02T13:38:41.000Z</time>
      </trkpt>
      <trkpt lat="48.13818" lon="6.86497">
        <ele>661.80004882812</ele>
        <time>2026-09-02T13:38:42.000Z</time>
      </trkpt>
      <trkpt lat="48.13819" lon="6.86497">
        <ele>661.80004882812</ele>
        <time>2026-09-02T13:38:43.000Z</time>
      </trkpt>
      <trkpt lat="48.1382" lon="6.86496">
        <ele>661.59997558594</ele>
        <time>2026-09-02T13:38:44.000Z</time>
      </trkpt>
      <trkpt lat="48.1382" lon="6.86495">
        <ele>661.40002441406</ele>
        <time>2026-09-02T13:38:45.000Z</time>
      </trkpt>
      <trkpt lat="48.13821" lon="6.86494">
        <ele>661.40002441406</ele>
        <time>2026-09-02T13:38:46.000Z</time>
      </trkpt>
      <trkpt lat="48.13822" lon="6.86493">
        <ele>661.40002441406</ele>
        <time>2026-09-02T13:38:47.000Z</time>
      </trkpt>
      <trkpt lat="48.13823" lon="6.86493">
        <ele>661.59997558594</ele>
        <time>2026-09-02T13:38:48.000Z</time>
      </trkpt>
      <trkpt lat="48.13824" lon="6.86492">
        <ele>661.80004882812</ele>
        <time>2026-09-02T13:38:49.000Z</time>
      </trkpt>
      <trkpt lat="48.13826" lon="6.86491">
        <ele>661.80004882812</ele>
        <time>2026-09-02T13:38:50.000Z</time>
      </trkpt>
      <trkpt lat="48.13826" lon="6.86491">
        <ele>661.80004882812</ele>
        <time>2026-09-02T13:38:51.000Z</time>
      </trkpt>
      <trkpt lat="48.13827" lon="6.8649">
        <ele>661.80004882812</ele>
        <time>2026-09-02T13:38:52.000Z</time>
      </trkpt>
      <trkpt lat="48.13828" lon="6.86489">
        <ele>661.59997558594</ele>
        <time>2026-09-02T13:38:53.000Z</time>
      </trkpt>
      <trkpt lat="48.13829" lon="6.86488">
        <ele>661.59997558594</ele>
        <time>2026-09-02T13:38:54.000Z</time>
      </trkpt>
      <trkpt lat="48.1383" lon="6.86487">
        <ele>661.59997558594</ele>
        <time>2026-09-02T13:38:55.000Z</time>
      </trkpt>
      <trkpt lat="48.13831" lon="6.86487">
        <ele>661.59997558594</ele>
        <time>2026-09-02T13:38:56.000Z</time>
      </trkpt>
      <trkpt lat="48.13831" lon="6.86487">
        <ele>661.80004882812</ele>
        <time>2026-09-02T13:38:57.000Z</time>
      </trkpt>
      <trkpt lat="48.13832" lon="6.86486">
        <ele>661.80004882812</ele>
        <time>2026-09-02T13:38:58.000Z</time>
      </trkpt>
      <trkpt lat="48.13833" lon="6.86485">
        <ele>662</ele>
        <time>2026-09-02T13:38:59.000Z</time>
      </trkpt>
      <trkpt lat="48.13834" lon="6.86484">
        <ele>662</ele>
        <time>2026-09-02T13:39:00.000Z</time>
      </trkpt>
      <trkpt lat="48.13835" lon="6.86484">
        <ele>662</ele>
        <time>2026-09-02T13:39:01.000Z</time>
      </trkpt>
      <trkpt lat="48.13836" lon="6.86483">
        <ele>662</ele>
        <time>2026-09-02T13:39:02.000Z</time>
      </trkpt>
      <trkpt lat="48.13837" lon="6.86483">
        <ele>662</ele>
        <time>2026-09-02T13:39:03.000Z</time>
      </trkpt>
      <trkpt lat="48.13838" lon="6.86482">
        <ele>662</ele>
        <time>2026-09-02T13:39:04.000Z</time>
      </trkpt>
      <trkpt lat="48.13839" lon="6.86482">
        <ele>662</ele>
        <time>2026-09-02T13:39:05.000Z</time>
      </trkpt>
      <trkpt lat="48.1384" lon="6.86481">
        <ele>662</ele>
        <time>2026-09-02T13:39:06.000Z</time>
      </trkpt>
      <trkpt lat="48.13841" lon="6.8648">
        <ele>662.19995117188</ele>
        <time>2026-09-02T13:39:07.000Z</time>
      </trkpt>
      <trkpt lat="48.13842" lon="6.8648">
        <ele>662.19995117188</ele>
        <time>2026-09-02T13:39:08.000Z</time>
      </trkpt>
      <trkpt lat="48.13843" lon="6.86479">
        <ele>662.19995117188</ele>
        <time>2026-09-02T13:39:09.000Z</time>
      </trkpt>
      <trkpt lat="48.13844" lon="6.86479">
        <ele>662.19995117188</ele>
        <time>2026-09-02T13:39:10.000Z</time>
      </trkpt>
      <trkpt lat="48.13845" lon="6.86478">
        <ele>662.40002441406</ele>
        <time>2026-09-02T13:39:11.000Z</time>
      </trkpt>
      <trkpt lat="48.13846" lon="6.86478">
        <ele>662.40002441406</ele>
        <time>2026-09-02T13:39:12.000Z</time>
      </trkpt>
      <trkpt lat="48.13847" lon="6.86478">
        <ele>662.19995117188</ele>
        <time>2026-09-02T13:39:13.000Z</time>
      </trkpt>
      <trkpt lat="48.13847" lon="6.86477">
        <ele>662.19995117188</ele>
        <time>2026-09-02T13:39:14.000Z</time>
      </trkpt>
      <trkpt lat="48.13848" lon="6.86477">
        <ele>662.19995117188</ele>
        <time>2026-09-02T13:39:15.000Z</time>
      </trkpt>
      <trkpt lat="48.13849" lon="6.86475">
        <ele>662.19995117188</ele>
        <time>2026-09-02T13:39:16.000Z</time>
      </trkpt>
      <trkpt lat="48.13851" lon="6.86474">
        <ele>662.19995117188</ele>
        <time>2026-09-02T13:39:17.000Z</time>
      </trkpt>
      <trkpt lat="48.13851" lon="6.86473">
        <ele>662.19995117188</ele>
        <time>2026-09-02T13:39:18.000Z</time>
      </trkpt>
      <trkpt lat="48.13852" lon="6.86473">
        <ele>662.19995117188</ele>
        <time>2026-09-02T13:39:19.000Z</time>
      </trkpt>
      <trkpt lat="48.13853" lon="6.86473">
        <ele>662.19995117188</ele>
        <time>2026-09-02T13:39:20.000Z</time>
      </trkpt>
      <trkpt lat="48.13853" lon="6.86472">
        <ele>662.19995117188</ele>
        <time>2026-09-02T13:39:21.000Z</time>
      </trkpt>
      <trkpt lat="48.13854" lon="6.86472">
        <ele>662.19995117188</ele>
        <time>2026-09-02T13:39:22.000Z</time>
      </trkpt>
      <trkpt lat="48.13855" lon="6.86472">
        <ele>662.40002441406</ele>
        <time>2026-09-02T13:39:23.000Z</time>
      </trkpt>
      <trkpt lat="48.13855" lon="6.86471">
        <ele>662.40002441406</ele>
        <time>2026-09-02T13:39:24.000Z</time>
      </trkpt>
      <trkpt lat="48.13856" lon="6.86471">
        <ele>662.40002441406</ele>
        <time>2026-09-02T13:39:25.000Z</time>
      </trkpt>
      <trkpt lat="48.13857" lon="6.8647">
        <ele>662.40002441406</ele>
        <time>2026-09-02T13:39:26.000Z</time>
      </trkpt>
      <trkpt lat="48.13858" lon="6.86469">
        <ele>662.59997558594</ele>
        <time>2026-09-02T13:39:27.000Z</time>
      </trkpt>
      <trkpt lat="48.13858" lon="6.86469">
        <ele>662.59997558594</ele>
        <time>2026-09-02T13:39:28.000Z</time>
      </trkpt>
      <trkpt lat="48.13859" lon="6.86468">
        <ele>662.59997558594</ele>
        <time>2026-09-02T13:39:29.000Z</time>
      </trkpt>
      <trkpt lat="48.1386" lon="6.86467">
        <ele>662.80004882812</ele>
        <time>2026-09-02T13:39:30.000Z</time>
      </trkpt>
      <trkpt lat="48.13862" lon="6.86465">
        <ele>662.80004882812</ele>
        <time>2026-09-02T13:39:31.000Z</time>
      </trkpt>
      <trkpt lat="48.13863" lon="6.86465">
        <ele>662.80004882812</ele>
        <time>2026-09-02T13:39:32.000Z</time>
      </trkpt>
      <trkpt lat="48.13864" lon="6.86464">
        <ele>662.80004882812</ele>
        <time>2026-09-02T13:39:33.000Z</time>
      </trkpt>
      <trkpt lat="48.13864" lon="6.86464">
        <ele>662.80004882812</ele>
        <time>2026-09-02T13:39:34.000Z</time>
      </trkpt>
      <trkpt lat="48.13865" lon="6.86463">
        <ele>662.59997558594</ele>
        <time>2026-09-02T13:39:35.000Z</time>
      </trkpt>
      <trkpt lat="48.13866" lon="6.86463">
        <ele>662.59997558594</ele>
        <time>2026-09-02T13:39:36.000Z</time>
      </trkpt>
      <trkpt lat="48.13866" lon="6.86462">
        <ele>662.80004882812</ele>
        <time>2026-09-02T13:39:37.000Z</time>
      </trkpt>
      <trkpt lat="48.13867" lon="6.86462">
        <ele>662.59997558594</ele>
        <time>2026-09-02T13:39:38.000Z</time>
      </trkpt>
      <trkpt lat="48.13868" lon="6.86461">
        <ele>662.59997558594</ele>
        <time>2026-09-02T13:39:39.000Z</time>
      </trkpt>
      <trkpt lat="48.13868" lon="6.8646">
        <ele>662.59997558594</ele>
        <time>2026-09-02T13:39:40.000Z</time>
      </trkpt>
      <trkpt lat="48.13869" lon="6.86459">
        <ele>662.59997558594</ele>
        <time>2026-09-02T13:39:41.000Z</time>
      </trkpt>
      <trkpt lat="48.1387" lon="6.86458">
        <ele>662.59997558594</ele>
        <time>2026-09-02T13:39:42.000Z</time>
      </trkpt>
      <trkpt lat="48.13871" lon="6.86457">
        <ele>662.59997558594</ele>
        <time>2026-09-02T13:39:43.000Z</time>
      </trkpt>
      <trkpt lat="48.13872" lon="6.86457">
        <ele>662.59997558594</ele>
        <time>2026-09-02T13:39:44.000Z</time>
      </trkpt>
      <trkpt lat="48.13873" lon="6.86456">
        <ele>662.59997558594</ele>
        <time>2026-09-02T13:39:45.000Z</time>
      </trkpt>
      <trkpt lat="48.13874" lon="6.86456">
        <ele>662.59997558594</ele>
        <time>2026-09-02T13:39:46.000Z</time>
      </trkpt>
      <trkpt lat="48.13875" lon="6.86455">
        <ele>662.80004882812</ele>
        <time>2026-09-02T13:39:47.000Z</time>
      </trkpt>
      <trkpt lat="48.13876" lon="6.86455">
        <ele>662.80004882812</ele>
        <time>2026-09-02T13:39:48.000Z</time>
      </trkpt>
      <trkpt lat="48.13877" lon="6.86454">
        <ele>662.80004882812</ele>
        <time>2026-09-02T13:39:49.000Z</time>
      </trkpt>
      <trkpt lat="48.13877" lon="6.86453">
        <ele>662.80004882812</ele>
        <time>2026-09-02T13:39:50.000Z</time>
      </trkpt>
      <trkpt lat="48.13878" lon="6.86452">
        <ele>663</ele>
        <time>2026-09-02T13:39:51.000Z</time>
      </trkpt>
      <trkpt lat="48.13879" lon="6.86451">
        <ele>663</ele>
        <time>2026-09-02T13:39:52.000Z</time>
      </trkpt>
      <trkpt lat="48.1388" lon="6.86451">
        <ele>663</ele>
        <time>2026-09-02T13:39:53.000Z</time>
      </trkpt>
      <trkpt lat="48.1388" lon="6.8645">
        <ele>663</ele>
        <time>2026-09-02T13:39:54.000Z</time>
      </trkpt>
      <trkpt lat="48.13882" lon="6.86449">
        <ele>663</ele>
        <time>2026-09-02T13:39:55.000Z</time>
      </trkpt>
      <trkpt lat="48.13883" lon="6.86448">
        <ele>663</ele>
        <time>2026-09-02T13:39:56.000Z</time>
      </trkpt>
      <trkpt lat="48.13884" lon="6.86447">
        <ele>663</ele>
        <time>2026-09-02T13:39:57.000Z</time>
      </trkpt>
      <trkpt lat="48.13885" lon="6.86446">
        <ele>663</ele>
        <time>2026-09-02T13:39:58.000Z</time>
      </trkpt>
      <trkpt lat="48.13885" lon="6.86445">
        <ele>663</ele>
        <time>2026-09-02T13:39:59.000Z</time>
      </trkpt>
      <trkpt lat="48.13886" lon="6.86444">
        <ele>663</ele>
        <time>2026-09-02T13:40:00.000Z</time>
      </trkpt>
      <trkpt lat="48.13887" lon="6.86444">
        <ele>663</ele>
        <time>2026-09-02T13:40:01.000Z</time>
      </trkpt>
      <trkpt lat="48.13888" lon="6.86444">
        <ele>663</ele>
        <time>2026-09-02T13:40:02.000Z</time>
      </trkpt>
      <trkpt lat="48.13889" lon="6.86444">
        <ele>663</ele>
        <time>2026-09-02T13:40:03.000Z</time>
      </trkpt>
      <trkpt lat="48.13889" lon="6.86443">
        <ele>663</ele>
        <time>2026-09-02T13:40:04.000Z</time>
      </trkpt>
      <trkpt lat="48.1389" lon="6.86443">
        <ele>663</ele>
        <time>2026-09-02T13:40:05.000Z</time>
      </trkpt>
      <trkpt lat="48.13891" lon="6.86442">
        <ele>663</ele>
        <time>2026-09-02T13:40:06.000Z</time>
      </trkpt>
      <trkpt lat="48.13892" lon="6.86442">
        <ele>663.19995117188</ele>
        <time>2026-09-02T13:40:07.000Z</time>
      </trkpt>
      <trkpt lat="48.13893" lon="6.86442">
        <ele>663.19995117188</ele>
        <time>2026-09-02T13:40:08.000Z</time>
      </trkpt>
      <trkpt lat="48.13893" lon="6.86441">
        <ele>663.19995117188</ele>
        <time>2026-09-02T13:40:09.000Z</time>
      </trkpt>
      <trkpt lat="48.13894" lon="6.8644">
        <ele>663.19995117188</ele>
        <time>2026-09-02T13:40:10.000Z</time>
      </trkpt>
      <trkpt lat="48.13895" lon="6.8644">
        <ele>663.19995117188</ele>
        <time>2026-09-02T13:40:11.000Z</time>
      </trkpt>
      <trkpt lat="48.13897" lon="6.86439">
        <ele>663.19995117188</ele>
        <time>2026-09-02T13:40:12.000Z</time>
      </trkpt>
      <trkpt lat="48.13898" lon="6.86439">
        <ele>663.19995117188</ele>
        <time>2026-09-02T13:40:13.000Z</time>
      </trkpt>
      <trkpt lat="48.13899" lon="6.86439">
        <ele>663.19995117188</ele>
        <time>2026-09-02T13:40:14.000Z</time>
      </trkpt>
      <trkpt lat="48.139" lon="6.86439">
        <ele>663.19995117188</ele>
        <time>2026-09-02T13:40:15.000Z</time>
      </trkpt>
      <trkpt lat="48.13901" lon="6.86438">
        <ele>663.19995117188</ele>
        <time>2026-09-02T13:40:16.000Z</time>
      </trkpt>
      <trkpt lat="48.13902" lon="6.86438">
        <ele>663</ele>
        <time>2026-09-02T13:40:17.000Z</time>
      </trkpt>
      <trkpt lat="48.13902" lon="6.86437">
        <ele>663</ele>
        <time>2026-09-02T13:40:18.000Z</time>
      </trkpt>
      <trkpt lat="48.13903" lon="6.86436">
        <ele>663.19995117188</ele>
        <time>2026-09-02T13:40:19.000Z</time>
      </trkpt>
      <trkpt lat="48.13904" lon="6.86436">
        <ele>663.40002441406</ele>
        <time>2026-09-02T13:40:20.000Z</time>
      </trkpt>
      <trkpt lat="48.13905" lon="6.86435">
        <ele>663.59997558594</ele>
        <time>2026-09-02T13:40:21.000Z</time>
      </trkpt>
      <trkpt lat="48.13906" lon="6.86434">
        <ele>663.59997558594</ele>
        <time>2026-09-02T13:40:22.000Z</time>
      </trkpt>
      <trkpt lat="48.13907" lon="6.86434">
        <ele>663.80004882812</ele>
        <time>2026-09-02T13:40:23.000Z</time>
      </trkpt>
      <trkpt lat="48.13908" lon="6.86433">
        <ele>664</ele>
        <time>2026-09-02T13:40:24.000Z</time>
      </trkpt>
      <trkpt lat="48.13909" lon="6.86432">
        <ele>664</ele>
        <time>2026-09-02T13:40:25.000Z</time>
      </trkpt>
      <trkpt lat="48.1391" lon="6.86432">
        <ele>664</ele>
        <time>2026-09-02T13:40:26.000Z</time>
      </trkpt>
      <trkpt lat="48.13911" lon="6.86431">
        <ele>664.19995117188</ele>
        <time>2026-09-02T13:40:27.000Z</time>
      </trkpt>
      <trkpt lat="48.13911" lon="6.8643">
        <ele>664.19995117188</ele>
        <time>2026-09-02T13:40:28.000Z</time>
      </trkpt>
      <trkpt lat="48.13912" lon="6.8643">
        <ele>664.19995117188</ele>
        <time>2026-09-02T13:40:29.000Z</time>
      </trkpt>
      <trkpt lat="48.13913" lon="6.86429">
        <ele>664.19995117188</ele>
        <time>2026-09-02T13:40:30.000Z</time>
      </trkpt>
      <trkpt lat="48.13914" lon="6.86429">
        <ele>664.19995117188</ele>
        <time>2026-09-02T13:40:31.000Z</time>
      </trkpt>
      <trkpt lat="48.13914" lon="6.86428">
        <ele>664.19995117188</ele>
        <time>2026-09-02T13:40:32.000Z</time>
      </trkpt>
      <trkpt lat="48.13915" lon="6.86427">
        <ele>664.40002441406</ele>
        <time>2026-09-02T13:40:33.000Z</time>
      </trkpt>
      <trkpt lat="48.13916" lon="6.86426">
        <ele>664.40002441406</ele>
        <time>2026-09-02T13:40:34.000Z</time>
      </trkpt>
      <trkpt lat="48.13917" lon="6.86425">
        <ele>664.40002441406</ele>
        <time>2026-09-02T13:40:35.000Z</time>
      </trkpt>
      <trkpt lat="48.13917" lon="6.86424">
        <ele>664.40002441406</ele>
        <time>2026-09-02T13:40:36.000Z</time>
      </trkpt>
      <trkpt lat="48.13918" lon="6.86424">
        <ele>664.40002441406</ele>
        <time>2026-09-02T13:40:37.000Z</time>
      </trkpt>
      <trkpt lat="48.13919" lon="6.86424">
        <ele>664.19995117188</ele>
        <time>2026-09-02T13:40:38.000Z</time>
      </trkpt>
      <trkpt lat="48.1392" lon="6.86423">
        <ele>664.19995117188</ele>
        <time>2026-09-02T13:40:39.000Z</time>
      </trkpt>
      <trkpt lat="48.13921" lon="6.86422">
        <ele>664.40002441406</ele>
        <time>2026-09-02T13:40:40.000Z</time>
      </trkpt>
      <trkpt lat="48.13922" lon="6.86421">
        <ele>664.40002441406</ele>
        <time>2026-09-02T13:40:41.000Z</time>
      </trkpt>
      <trkpt lat="48.13922" lon="6.8642">
        <ele>664.59997558594</ele>
        <time>2026-09-02T13:40:42.000Z</time>
      </trkpt>
      <trkpt lat="48.13923" lon="6.86419">
        <ele>664.59997558594</ele>
        <time>2026-09-02T13:40:43.000Z</time>
      </trkpt>
      <trkpt lat="48.13924" lon="6.86418">
        <ele>664.59997558594</ele>
        <time>2026-09-02T13:40:44.000Z</time>
      </trkpt>
      <trkpt lat="48.13925" lon="6.86417">
        <ele>664.59997558594</ele>
        <time>2026-09-02T13:40:45.000Z</time>
      </trkpt>
      <trkpt lat="48.13925" lon="6.86417">
        <ele>664.59997558594</ele>
        <time>2026-09-02T13:40:46.000Z</time>
      </trkpt>
      <trkpt lat="48.13926" lon="6.86416">
        <ele>664.59997558594</ele>
        <time>2026-09-02T13:40:47.000Z</time>
      </trkpt>
      <trkpt lat="48.13928" lon="6.86416">
        <ele>664.59997558594</ele>
        <time>2026-09-02T13:40:48.000Z</time>
      </trkpt>
      <trkpt lat="48.13929" lon="6.86415">
        <ele>664.59997558594</ele>
        <time>2026-09-02T13:40:49.000Z</time>
      </trkpt>
      <trkpt lat="48.1393" lon="6.86414">
        <ele>664.40002441406</ele>
        <time>2026-09-02T13:40:50.000Z</time>
      </trkpt>
      <trkpt lat="48.13931" lon="6.86414">
        <ele>664.40002441406</ele>
        <time>2026-09-02T13:40:51.000Z</time>
      </trkpt>
      <trkpt lat="48.13931" lon="6.86413">
        <ele>664.40002441406</ele>
        <time>2026-09-02T13:40:52.000Z</time>
      </trkpt>
      <trkpt lat="48.13932" lon="6.86412">
        <ele>664.40002441406</ele>
        <time>2026-09-02T13:40:53.000Z</time>
      </trkpt>
      <trkpt lat="48.13933" lon="6.86411">
        <ele>664.40002441406</ele>
        <time>2026-09-02T13:40:54.000Z</time>
      </trkpt>
      <trkpt lat="48.13934" lon="6.86411">
        <ele>664.59997558594</ele>
        <time>2026-09-02T13:40:55.000Z</time>
      </trkpt>
      <trkpt lat="48.13934" lon="6.8641">
        <ele>664.80004882812</ele>
        <time>2026-09-02T13:40:56.000Z</time>
      </trkpt>
      <trkpt lat="48.13935" lon="6.8641">
        <ele>664.80004882812</ele>
        <time>2026-09-02T13:40:57.000Z</time>
      </trkpt>
      <trkpt lat="48.13936" lon="6.86409">
        <ele>665</ele>
        <time>2026-09-02T13:40:58.000Z</time>
      </trkpt>
      <trkpt lat="48.13937" lon="6.86408">
        <ele>664.80004882812</ele>
        <time>2026-09-02T13:40:59.000Z</time>
      </trkpt>
      <trkpt lat="48.13938" lon="6.86408">
        <ele>664.80004882812</ele>
        <time>2026-09-02T13:41:00.000Z</time>
      </trkpt>
      <trkpt lat="48.13939" lon="6.86407">
        <ele>664.80004882812</ele>
        <time>2026-09-02T13:41:01.000Z</time>
      </trkpt>
      <trkpt lat="48.1394" lon="6.86407">
        <ele>664.59997558594</ele>
        <time>2026-09-02T13:41:02.000Z</time>
      </trkpt>
      <trkpt lat="48.13941" lon="6.86406">
        <ele>664.59997558594</ele>
        <time>2026-09-02T13:41:03.000Z</time>
      </trkpt>
      <trkpt lat="48.13942" lon="6.86405">
        <ele>664.59997558594</ele>
        <time>2026-09-02T13:41:04.000Z</time>
      </trkpt>
      <trkpt lat="48.13943" lon="6.86405">
        <ele>664.59997558594</ele>
        <time>2026-09-02T13:41:05.000Z</time>
      </trkpt>
      <trkpt lat="48.13944" lon="6.86405">
        <ele>664.59997558594</ele>
        <time>2026-09-02T13:41:06.000Z</time>
      </trkpt>
      <trkpt lat="48.13944" lon="6.86404">
        <ele>664.59997558594</ele>
        <time>2026-09-02T13:41:07.000Z</time>
      </trkpt>
      <trkpt lat="48.13945" lon="6.86403">
        <ele>664.59997558594</ele>
        <time>2026-09-02T13:41:08.000Z</time>
      </trkpt>
      <trkpt lat="48.13946" lon="6.86402">
        <ele>664.59997558594</ele>
        <time>2026-09-02T13:41:09.000Z</time>
      </trkpt>
      <trkpt lat="48.13948" lon="6.86402">
        <ele>664.59997558594</ele>
        <time>2026-09-02T13:41:10.000Z</time>
      </trkpt>
      <trkpt lat="48.13949" lon="6.86401">
        <ele>664.59997558594</ele>
        <time>2026-09-02T13:41:11.000Z</time>
      </trkpt>
      <trkpt lat="48.13949" lon="6.86401">
        <ele>664.59997558594</ele>
        <time>2026-09-02T13:41:12.000Z</time>
      </trkpt>
      <trkpt lat="48.1395" lon="6.86401">
        <ele>664.59997558594</ele>
        <time>2026-09-02T13:41:13.000Z</time>
      </trkpt>
      <trkpt lat="48.13951" lon="6.864">
        <ele>664.59997558594</ele>
        <time>2026-09-02T13:41:14.000Z</time>
      </trkpt>
      <trkpt lat="48.13952" lon="6.864">
        <ele>664.40002441406</ele>
        <time>2026-09-02T13:41:15.000Z</time>
      </trkpt>
      <trkpt lat="48.13953" lon="6.86399">
        <ele>664.40002441406</ele>
        <time>2026-09-02T13:41:16.000Z</time>
      </trkpt>
      <trkpt lat="48.13954" lon="6.86399">
        <ele>664.40002441406</ele>
        <time>2026-09-02T13:41:17.000Z</time>
      </trkpt>
      <trkpt lat="48.13955" lon="6.86398">
        <ele>664.59997558594</ele>
        <time>2026-09-02T13:41:18.000Z</time>
      </trkpt>
      <trkpt lat="48.13955" lon="6.86397">
        <ele>664.59997558594</ele>
        <time>2026-09-02T13:41:19.000Z</time>
      </trkpt>
      <trkpt lat="48.13956" lon="6.86397">
        <ele>664.80004882812</ele>
        <time>2026-09-02T13:41:20.000Z</time>
      </trkpt>
      <trkpt lat="48.13957" lon="6.86396">
        <ele>664.80004882812</ele>
        <time>2026-09-02T13:41:21.000Z</time>
      </trkpt>
      <trkpt lat="48.13958" lon="6.86396">
        <ele>664.80004882812</ele>
        <time>2026-09-02T13:41:22.000Z</time>
      </trkpt>
      <trkpt lat="48.13959" lon="6.86395">
        <ele>664.59997558594</ele>
        <time>2026-09-02T13:41:23.000Z</time>
      </trkpt>
      <trkpt lat="48.1396" lon="6.86395">
        <ele>664.59997558594</ele>
        <time>2026-09-02T13:41:24.000Z</time>
      </trkpt>
      <trkpt lat="48.13961" lon="6.86394">
        <ele>664.59997558594</ele>
        <time>2026-09-02T13:41:25.000Z</time>
      </trkpt>
      <trkpt lat="48.13962" lon="6.86393">
        <ele>664.59997558594</ele>
        <time>2026-09-02T13:41:26.000Z</time>
      </trkpt>
      <trkpt lat="48.13963" lon="6.86393">
        <ele>664.59997558594</ele>
        <time>2026-09-02T13:41:27.000Z</time>
      </trkpt>
      <trkpt lat="48.13964" lon="6.86392">
        <ele>664.80004882812</ele>
        <time>2026-09-02T13:41:28.000Z</time>
      </trkpt>
      <trkpt lat="48.13965" lon="6.86391">
        <ele>664.80004882812</ele>
        <time>2026-09-02T13:41:29.000Z</time>
      </trkpt>
      <trkpt lat="48.13966" lon="6.86391">
        <ele>664.80004882812</ele>
        <time>2026-09-02T13:41:30.000Z</time>
      </trkpt>
      <trkpt lat="48.13967" lon="6.8639">
        <ele>664.80004882812</ele>
        <time>2026-09-02T13:41:31.000Z</time>
      </trkpt>
      <trkpt lat="48.13968" lon="6.8639">
        <ele>664.80004882812</ele>
        <time>2026-09-02T13:41:32.000Z</time>
      </trkpt>
      <trkpt lat="48.13969" lon="6.86389">
        <ele>664.80004882812</ele>
        <time>2026-09-02T13:41:33.000Z</time>
      </trkpt>
      <trkpt lat="48.1397" lon="6.86389">
        <ele>664.80004882812</ele>
        <time>2026-09-02T13:41:34.000Z</time>
      </trkpt>
      <trkpt lat="48.13971" lon="6.86388">
        <ele>664.80004882812</ele>
        <time>2026-09-02T13:41:35.000Z</time>
      </trkpt>
      <trkpt lat="48.13971" lon="6.86388">
        <ele>665</ele>
        <time>2026-09-02T13:41:36.000Z</time>
      </trkpt>
      <trkpt lat="48.13972" lon="6.86387">
        <ele>665</ele>
        <time>2026-09-02T13:41:37.000Z</time>
      </trkpt>
      <trkpt lat="48.13972" lon="6.86387">
        <ele>665</ele>
        <time>2026-09-02T13:41:38.000Z</time>
      </trkpt>
      <trkpt lat="48.13973" lon="6.86386">
        <ele>665</ele>
        <time>2026-09-02T13:41:39.000Z</time>
      </trkpt>
      <trkpt lat="48.13974" lon="6.86385">
        <ele>665</ele>
        <time>2026-09-02T13:41:40.000Z</time>
      </trkpt>
      <trkpt lat="48.13975" lon="6.86385">
        <ele>664.80004882812</ele>
        <time>2026-09-02T13:41:41.000Z</time>
      </trkpt>
      <trkpt lat="48.13976" lon="6.86384">
        <ele>664.80004882812</ele>
        <time>2026-09-02T13:41:42.000Z</time>
      </trkpt>
      <trkpt lat="48.13976" lon="6.86384">
        <ele>665</ele>
        <time>2026-09-02T13:41:43.000Z</time>
      </trkpt>
      <trkpt lat="48.13977" lon="6.86383">
        <ele>665</ele>
        <time>2026-09-02T13:41:44.000Z</time>
      </trkpt>
      <trkpt lat="48.13978" lon="6.86382">
        <ele>665</ele>
        <time>2026-09-02T13:41:45.000Z</time>
      </trkpt>
      <trkpt lat="48.13979" lon="6.86381">
        <ele>665</ele>
        <time>2026-09-02T13:41:46.000Z</time>
      </trkpt>
      <trkpt lat="48.1398" lon="6.86381">
        <ele>665</ele>
        <time>2026-09-02T13:41:47.000Z</time>
      </trkpt>
      <trkpt lat="48.1398" lon="6.8638">
        <ele>665</ele>
        <time>2026-09-02T13:41:48.000Z</time>
      </trkpt>
      <trkpt lat="48.13981" lon="6.86379">
        <ele>665</ele>
        <time>2026-09-02T13:41:49.000Z</time>
      </trkpt>
      <trkpt lat="48.13982" lon="6.86379">
        <ele>665</ele>
        <time>2026-09-02T13:41:50.000Z</time>
      </trkpt>
      <trkpt lat="48.13983" lon="6.86378">
        <ele>665</ele>
        <time>2026-09-02T13:41:51.000Z</time>
      </trkpt>
      <trkpt lat="48.13984" lon="6.86378">
        <ele>665</ele>
        <time>2026-09-02T13:41:52.000Z</time>
      </trkpt>
      <trkpt lat="48.13985" lon="6.86377">
        <ele>665.19995117188</ele>
        <time>2026-09-02T13:41:53.000Z</time>
      </trkpt>
      <trkpt lat="48.13986" lon="6.86376">
        <ele>665.19995117188</ele>
        <time>2026-09-02T13:41:54.000Z</time>
      </trkpt>
      <trkpt lat="48.13987" lon="6.86376">
        <ele>665.40002441406</ele>
        <time>2026-09-02T13:41:55.000Z</time>
      </trkpt>
      <trkpt lat="48.13987" lon="6.86376">
        <ele>665.40002441406</ele>
        <time>2026-09-02T13:41:56.000Z</time>
      </trkpt>
      <trkpt lat="48.13988" lon="6.86376">
        <ele>665.40002441406</ele>
        <time>2026-09-02T13:41:57.000Z</time>
      </trkpt>
      <trkpt lat="48.13988" lon="6.86377">
        <ele>665.40002441406</ele>
        <time>2026-09-02T13:41:58.000Z</time>
      </trkpt>
      <trkpt lat="48.13988" lon="6.86376">
        <ele>665.40002441406</ele>
        <time>2026-09-02T13:41:59.000Z</time>
      </trkpt>
      <trkpt lat="48.13988" lon="6.86377">
        <ele>665.19995117188</ele>
        <time>2026-09-02T13:42:00.000Z</time>
      </trkpt>
      <trkpt lat="48.13988" lon="6.86377">
        <ele>665.19995117188</ele>
        <time>2026-09-02T13:42:01.000Z</time>
      </trkpt>
      <trkpt lat="48.13988" lon="6.86377">
        <ele>665.19995117188</ele>
        <time>2026-09-02T13:42:02.000Z</time>
      </trkpt>
      <trkpt lat="48.13987" lon="6.86378">
        <ele>665.19995117188</ele>
        <time>2026-09-02T13:42:03.000Z</time>
      </trkpt>
      <trkpt lat="48.13986" lon="6.86379">
        <ele>665.40002441406</ele>
        <time>2026-09-02T13:42:04.000Z</time>
      </trkpt>
      <trkpt lat="48.13987" lon="6.86378">
        <ele>665.40002441406</ele>
        <time>2026-09-02T13:42:05.000Z</time>
      </trkpt>
      <trkpt lat="48.13987" lon="6.86378">
        <ele>665.59997558594</ele>
        <time>2026-09-02T13:42:06.000Z</time>
      </trkpt>
      <trkpt lat="48.13987" lon="6.86378">
        <ele>665.40002441406</ele>
        <time>2026-09-02T13:42:07.000Z</time>
      </trkpt>
      <trkpt lat="48.13987" lon="6.86378">
        <ele>665.40002441406</ele>
        <time>2026-09-02T13:42:08.000Z</time>
      </trkpt>
      <trkpt lat="48.13987" lon="6.86378">
        <ele>665.40002441406</ele>
        <time>2026-09-02T13:42:09.000Z</time>
      </trkpt>
      <trkpt lat="48.13987" lon="6.86378">
        <ele>665.40002441406</ele>
        <time>2026-09-02T13:42:10.000Z</time>
      </trkpt>
      <trkpt lat="48.13987" lon="6.86378">
        <ele>665.59997558594</ele>
        <time>2026-09-02T13:42:11.000Z</time>
      </trkpt>
      <trkpt lat="48.13987" lon="6.86378">
        <ele>665.59997558594</ele>
        <time>2026-09-02T13:42:12.000Z</time>
      </trkpt>
      <trkpt lat="48.13987" lon="6.86378">
        <ele>665.40002441406</ele>
        <time>2026-09-02T13:42:13.000Z</time>
      </trkpt>
      <trkpt lat="48.13987" lon="6.86378">
        <ele>665.40002441406</ele>
        <time>2026-09-02T13:42:14.000Z</time>
      </trkpt>
      <trkpt lat="48.13987" lon="6.86378">
        <ele>665.40002441406</ele>
        <time>2026-09-02T13:42:15.000Z</time>
      </trkpt>
      <trkpt lat="48.13987" lon="6.86378">
        <ele>665.19995117188</ele>
        <time>2026-09-02T13:42:16.000Z</time>
      </trkpt>
      <trkpt lat="48.13987" lon="6.86378">
        <ele>665</ele>
        <time>2026-09-02T13:42:17.000Z</time>
      </trkpt>
      <trkpt lat="48.13987" lon="6.86378">
        <ele>665</ele>
        <time>2026-09-02T13:42:18.000Z</time>
      </trkpt>
      <trkpt lat="48.13987" lon="6.86378">
        <ele>665</ele>
        <time>2026-09-02T13:42:19.000Z</time>
      </trkpt>
      <trkpt lat="48.13988" lon="6.86377">
        <ele>665</ele>
        <time>2026-09-02T13:42:20.000Z</time>
      </trkpt>
      <trkpt lat="48.13988" lon="6.86376">
        <ele>665.19995117188</ele>
        <time>2026-09-02T13:42:21.000Z</time>
      </trkpt>
      <trkpt lat="48.13989" lon="6.86376">
        <ele>665.19995117188</ele>
        <time>2026-09-02T13:42:22.000Z</time>
      </trkpt>
      <trkpt lat="48.1399" lon="6.86375">
        <ele>665.19995117188</ele>
        <time>2026-09-02T13:42:23.000Z</time>
      </trkpt>
      <trkpt lat="48.13991" lon="6.86375">
        <ele>665.19995117188</ele>
        <time>2026-09-02T13:42:24.000Z</time>
      </trkpt>
      <trkpt lat="48.13992" lon="6.86374">
        <ele>665.40002441406</ele>
        <time>2026-09-02T13:42:25.000Z</time>
      </trkpt>
      <trkpt lat="48.13992" lon="6.86374">
        <ele>665.40002441406</ele>
        <time>2026-09-02T13:42:26.000Z</time>
      </trkpt>
      <trkpt lat="48.13993" lon="6.86373">
        <ele>665.40002441406</ele>
        <time>2026-09-02T13:42:27.000Z</time>
      </trkpt>
      <trkpt lat="48.13994" lon="6.86373">
        <ele>665.40002441406</ele>
        <time>2026-09-02T13:42:28.000Z</time>
      </trkpt>
      <trkpt lat="48.13995" lon="6.86372">
        <ele>665.40002441406</ele>
        <time>2026-09-02T13:42:29.000Z</time>
      </trkpt>
      <trkpt lat="48.13995" lon="6.86372">
        <ele>665.40002441406</ele>
        <time>2026-09-02T13:42:30.000Z</time>
      </trkpt>
      <trkpt lat="48.13996" lon="6.86372">
        <ele>665.40002441406</ele>
        <time>2026-09-02T13:42:31.000Z</time>
      </trkpt>
      <trkpt lat="48.13997" lon="6.86371">
        <ele>665.40002441406</ele>
        <time>2026-09-02T13:42:32.000Z</time>
      </trkpt>
      <trkpt lat="48.13998" lon="6.86371">
        <ele>665.59997558594</ele>
        <time>2026-09-02T13:42:33.000Z</time>
      </trkpt>
      <trkpt lat="48.13999" lon="6.8637">
        <ele>665.80004882812</ele>
        <time>2026-09-02T13:42:34.000Z</time>
      </trkpt>
      <trkpt lat="48.13999" lon="6.86369">
        <ele>666</ele>
        <time>2026-09-02T13:42:35.000Z</time>
      </trkpt>
      <trkpt lat="48.14" lon="6.86369">
        <ele>666</ele>
        <time>2026-09-02T13:42:36.000Z</time>
      </trkpt>
      <trkpt lat="48.14001" lon="6.86369">
        <ele>666.19995117188</ele>
        <time>2026-09-02T13:42:37.000Z</time>
      </trkpt>
      <trkpt lat="48.14002" lon="6.86369">
        <ele>666.19995117188</ele>
        <time>2026-09-02T13:42:38.000Z</time>
      </trkpt>
      <trkpt lat="48.14003" lon="6.86369">
        <ele>666.19995117188</ele>
        <time>2026-09-02T13:42:39.000Z</time>
      </trkpt>
      <trkpt lat="48.14003" lon="6.86368">
        <ele>666.19995117188</ele>
        <time>2026-09-02T13:42:40.000Z</time>
      </trkpt>
      <trkpt lat="48.14004" lon="6.86368">
        <ele>666.19995117188</ele>
        <time>2026-09-02T13:42:41.000Z</time>
      </trkpt>
      <trkpt lat="48.14005" lon="6.86368">
        <ele>666.19995117188</ele>
        <time>2026-09-02T13:42:42.000Z</time>
      </trkpt>
      <trkpt lat="48.14006" lon="6.86367">
        <ele>666.19995117188</ele>
        <time>2026-09-02T13:42:43.000Z</time>
      </trkpt>
      <trkpt lat="48.14007" lon="6.86367">
        <ele>666.19995117188</ele>
        <time>2026-09-02T13:42:44.000Z</time>
      </trkpt>
      <trkpt lat="48.14007" lon="6.86366">
        <ele>666.19995117188</ele>
        <time>2026-09-02T13:42:45.000Z</time>
      </trkpt>
      <trkpt lat="48.14008" lon="6.86365">
        <ele>666</ele>
        <time>2026-09-02T13:42:46.000Z</time>
      </trkpt>
      <trkpt lat="48.14008" lon="6.86365">
        <ele>666</ele>
        <time>2026-09-02T13:42:47.000Z</time>
      </trkpt>
      <trkpt lat="48.14009" lon="6.86364">
        <ele>666</ele>
        <time>2026-09-02T13:42:48.000Z</time>
      </trkpt>
      <trkpt lat="48.1401" lon="6.86364">
        <ele>666</ele>
        <time>2026-09-02T13:42:49.000Z</time>
      </trkpt>
      <trkpt lat="48.14011" lon="6.86363">
        <ele>666.19995117188</ele>
        <time>2026-09-02T13:42:50.000Z</time>
      </trkpt>
      <trkpt lat="48.14012" lon="6.86363">
        <ele>666.40002441406</ele>
        <time>2026-09-02T13:42:51.000Z</time>
      </trkpt>
      <trkpt lat="48.14012" lon="6.86362">
        <ele>666.40002441406</ele>
        <time>2026-09-02T13:42:52.000Z</time>
      </trkpt>
      <trkpt lat="48.14013" lon="6.86361">
        <ele>666.40002441406</ele>
        <time>2026-09-02T13:42:53.000Z</time>
      </trkpt>
      <trkpt lat="48.14014" lon="6.86361">
        <ele>666.59997558594</ele>
        <time>2026-09-02T13:42:54.000Z</time>
      </trkpt>
      <trkpt lat="48.14015" lon="6.86361">
        <ele>666.40002441406</ele>
        <time>2026-09-02T13:42:55.000Z</time>
      </trkpt>
      <trkpt lat="48.14016" lon="6.8636">
        <ele>666.40002441406</ele>
        <time>2026-09-02T13:42:56.000Z</time>
      </trkpt>
      <trkpt lat="48.14017" lon="6.86359">
        <ele>666.40002441406</ele>
        <time>2026-09-02T13:42:57.000Z</time>
      </trkpt>
      <trkpt lat="48.14017" lon="6.86359">
        <ele>666.59997558594</ele>
        <time>2026-09-02T13:42:58.000Z</time>
      </trkpt>
      <trkpt lat="48.14018" lon="6.86358">
        <ele>666.59997558594</ele>
        <time>2026-09-02T13:42:59.000Z</time>
      </trkpt>
      <trkpt lat="48.14019" lon="6.86358">
        <ele>666.59997558594</ele>
        <time>2026-09-02T13:43:00.000Z</time>
      </trkpt>
      <trkpt lat="48.1402" lon="6.86358">
        <ele>666.59997558594</ele>
        <time>2026-09-02T13:43:01.000Z</time>
      </trkpt>
      <trkpt lat="48.14021" lon="6.86357">
        <ele>666.59997558594</ele>
        <time>2026-09-02T13:43:02.000Z</time>
      </trkpt>
      <trkpt lat="48.14022" lon="6.86357">
        <ele>666.59997558594</ele>
        <time>2026-09-02T13:43:03.000Z</time>
      </trkpt>
      <trkpt lat="48.14023" lon="6.86357">
        <ele>666.59997558594</ele>
        <time>2026-09-02T13:43:04.000Z</time>
      </trkpt>
      <trkpt lat="48.14023" lon="6.86356">
        <ele>666.59997558594</ele>
        <time>2026-09-02T13:43:05.000Z</time>
      </trkpt>
      <trkpt lat="48.14025" lon="6.86356">
        <ele>666.59997558594</ele>
        <time>2026-09-02T13:43:06.000Z</time>
      </trkpt>
      <trkpt lat="48.14026" lon="6.86355">
        <ele>666.59997558594</ele>
        <time>2026-09-02T13:43:07.000Z</time>
      </trkpt>
      <trkpt lat="48.14027" lon="6.86354">
        <ele>666.59997558594</ele>
        <time>2026-09-02T13:43:08.000Z</time>
      </trkpt>
      <trkpt lat="48.14028" lon="6.86354">
        <ele>666.80004882812</ele>
        <time>2026-09-02T13:43:09.000Z</time>
      </trkpt>
      <trkpt lat="48.14029" lon="6.86353">
        <ele>666.80004882812</ele>
        <time>2026-09-02T13:43:10.000Z</time>
      </trkpt>
      <trkpt lat="48.1403" lon="6.86353">
        <ele>666.80004882812</ele>
        <time>2026-09-02T13:43:11.000Z</time>
      </trkpt>
      <trkpt lat="48.14031" lon="6.86352">
        <ele>666.80004882812</ele>
        <time>2026-09-02T13:43:12.000Z</time>
      </trkpt>
      <trkpt lat="48.14031" lon="6.86352">
        <ele>667</ele>
        <time>2026-09-02T13:43:13.000Z</time>
      </trkpt>
      <trkpt lat="48.14032" lon="6.86352">
        <ele>667</ele>
        <time>2026-09-02T13:43:14.000Z</time>
      </trkpt>
      <trkpt lat="48.14033" lon="6.86351">
        <ele>667</ele>
        <time>2026-09-02T13:43:15.000Z</time>
      </trkpt>
      <trkpt lat="48.14034" lon="6.86351">
        <ele>667</ele>
        <time>2026-09-02T13:43:16.000Z</time>
      </trkpt>
      <trkpt lat="48.14035" lon="6.8635">
        <ele>667</ele>
        <time>2026-09-02T13:43:17.000Z</time>
      </trkpt>
      <trkpt lat="48.14036" lon="6.86349">
        <ele>667</ele>
        <time>2026-09-02T13:43:18.000Z</time>
      </trkpt>
      <trkpt lat="48.14037" lon="6.86349">
        <ele>667</ele>
        <time>2026-09-02T13:43:19.000Z</time>
      </trkpt>
      <trkpt lat="48.14038" lon="6.86348">
        <ele>667</ele>
        <time>2026-09-02T13:43:20.000Z</time>
      </trkpt>
      <trkpt lat="48.14039" lon="6.86348">
        <ele>667</ele>
        <time>2026-09-02T13:43:21.000Z</time>
      </trkpt>
      <trkpt lat="48.1404" lon="6.86348">
        <ele>667.19995117188</ele>
        <time>2026-09-02T13:43:22.000Z</time>
      </trkpt>
      <trkpt lat="48.14041" lon="6.86348">
        <ele>667.19995117188</ele>
        <time>2026-09-02T13:43:23.000Z</time>
      </trkpt>
      <trkpt lat="48.14042" lon="6.86348">
        <ele>667.19995117188</ele>
        <time>2026-09-02T13:43:24.000Z</time>
      </trkpt>
      <trkpt lat="48.14042" lon="6.86348">
        <ele>667.19995117188</ele>
        <time>2026-09-02T13:43:25.000Z</time>
      </trkpt>
      <trkpt lat="48.14043" lon="6.86348">
        <ele>667.19995117188</ele>
        <time>2026-09-02T13:43:26.000Z</time>
      </trkpt>
      <trkpt lat="48.14043" lon="6.86348">
        <ele>667.19995117188</ele>
        <time>2026-09-02T13:43:27.000Z</time>
      </trkpt>
      <trkpt lat="48.14043" lon="6.86348">
        <ele>667.19995117188</ele>
        <time>2026-09-02T13:43:28.000Z</time>
      </trkpt>
      <trkpt lat="48.14043" lon="6.86348">
        <ele>667.19995117188</ele>
        <time>2026-09-02T13:43:29.000Z</time>
      </trkpt>
      <trkpt lat="48.14044" lon="6.86348">
        <ele>667.19995117188</ele>
        <time>2026-09-02T13:43:30.000Z</time>
      </trkpt>
      <trkpt lat="48.14044" lon="6.86348">
        <ele>667.19995117188</ele>
        <time>2026-09-02T13:43:31.000Z</time>
      </trkpt>
      <trkpt lat="48.14044" lon="6.86348">
        <ele>667.19995117188</ele>
        <time>2026-09-02T13:43:32.000Z</time>
      </trkpt>
      <trkpt lat="48.14044" lon="6.86348">
        <ele>667.19995117188</ele>
        <time>2026-09-02T13:43:33.000Z</time>
      </trkpt>
      <trkpt lat="48.14044" lon="6.86348">
        <ele>667</ele>
        <time>2026-09-02T13:43:34.000Z</time>
      </trkpt>
      <trkpt lat="48.14044" lon="6.86348">
        <ele>666.80004882812</ele>
        <time>2026-09-02T13:43:35.000Z</time>
      </trkpt>
      <trkpt lat="48.14044" lon="6.86348">
        <ele>666.59997558594</ele>
        <time>2026-09-02T13:43:36.000Z</time>
      </trkpt>
      <trkpt lat="48.14044" lon="6.86348">
        <ele>666.40002441406</ele>
        <time>2026-09-02T13:43:37.000Z</time>
      </trkpt>
      <trkpt lat="48.14044" lon="6.86348">
        <ele>666.40002441406</ele>
        <time>2026-09-02T13:43:38.000Z</time>
      </trkpt>
      <trkpt lat="48.14044" lon="6.86348">
        <ele>666.40002441406</ele>
        <time>2026-09-02T13:43:39.000Z</time>
      </trkpt>
      <trkpt lat="48.14044" lon="6.86348">
        <ele>666.40002441406</ele>
        <time>2026-09-02T13:43:40.000Z</time>
      </trkpt>
      <trkpt lat="48.14044" lon="6.86348">
        <ele>666.40002441406</ele>
        <time>2026-09-02T13:43:41.000Z</time>
      </trkpt>
      <trkpt lat="48.14044" lon="6.86348">
        <ele>666.40002441406</ele>
        <time>2026-09-02T13:43:42.000Z</time>
      </trkpt>
      <trkpt lat="48.14044" lon="6.86348">
        <ele>666.40002441406</ele>
        <time>2026-09-02T13:43:43.000Z</time>
      </trkpt>
      <trkpt lat="48.14044" lon="6.86348">
        <ele>666.19995117188</ele>
        <time>2026-09-02T13:43:44.000Z</time>
      </trkpt>
      <trkpt lat="48.14044" lon="6.86348">
        <ele>666.19995117188</ele>
        <time>2026-09-02T13:43:45.000Z</time>
      </trkpt>
      <trkpt lat="48.14044" lon="6.86348">
        <ele>666.19995117188</ele>
        <time>2026-09-02T13:43:46.000Z</time>
      </trkpt>
      <trkpt lat="48.14044" lon="6.86348">
        <ele>666.19995117188</ele>
        <time>2026-09-02T13:43:47.000Z</time>
      </trkpt>
      <trkpt lat="48.14044" lon="6.86348">
        <ele>666.19995117188</ele>
        <time>2026-09-02T13:43:48.000Z</time>
      </trkpt>
      <trkpt lat="48.14044" lon="6.86348">
        <ele>666.40002441406</ele>
        <time>2026-09-02T13:43:49.000Z</time>
      </trkpt>
      <trkpt lat="48.14044" lon="6.86348">
        <ele>666.40002441406</ele>
        <time>2026-09-02T13:43:50.000Z</time>
      </trkpt>
      <trkpt lat="48.14044" lon="6.86348">
        <ele>666.40002441406</ele>
        <time>2026-09-02T13:43:51.000Z</time>
      </trkpt>
      <trkpt lat="48.14044" lon="6.86348">
        <ele>666.40002441406</ele>
        <time>2026-09-02T13:43:52.000Z</time>
      </trkpt>
      <trkpt lat="48.14044" lon="6.86348">
        <ele>666.40002441406</ele>
        <time>2026-09-02T13:43:53.000Z</time>
      </trkpt>
      <trkpt lat="48.14044" lon="6.86348">
        <ele>666.40002441406</ele>
        <time>2026-09-02T13:43:54.000Z</time>
      </trkpt>
      <trkpt lat="48.14044" lon="6.86348">
        <ele>666.40002441406</ele>
        <time>2026-09-02T13:43:55.000Z</time>
      </trkpt>
      <trkpt lat="48.14044" lon="6.86348">
        <ele>666.40002441406</ele>
        <time>2026-09-02T13:43:56.000Z</time>
      </trkpt>
      <trkpt lat="48.14043" lon="6.86346">
        <ele>666.59997558594</ele>
        <time>2026-09-02T13:43:57.000Z</time>
      </trkpt>
      <trkpt lat="48.14043" lon="6.86346">
        <ele>666.80004882812</ele>
        <time>2026-09-02T13:43:58.000Z</time>
      </trkpt>
      <trkpt lat="48.14043" lon="6.86346">
        <ele>666.80004882812</ele>
        <time>2026-09-02T13:43:59.000Z</time>
      </trkpt>
      <trkpt lat="48.14043" lon="6.86347">
        <ele>667</ele>
        <time>2026-09-02T13:44:00.000Z</time>
      </trkpt>
      <trkpt lat="48.14042" lon="6.86347">
        <ele>667.19995117188</ele>
        <time>2026-09-02T13:44:01.000Z</time>
      </trkpt>
      <trkpt lat="48.14042" lon="6.86347">
        <ele>667.19995117188</ele>
        <time>2026-09-02T13:44:02.000Z</time>
      </trkpt>
      <trkpt lat="48.14043" lon="6.86347">
        <ele>667</ele>
        <time>2026-09-02T13:44:03.000Z</time>
      </trkpt>
      <trkpt lat="48.14043" lon="6.86347">
        <ele>666.80004882812</ele>
        <time>2026-09-02T13:44:04.000Z</time>
      </trkpt>
      <trkpt lat="48.14043" lon="6.86347">
        <ele>666.59997558594</ele>
        <time>2026-09-02T13:44:05.000Z</time>
      </trkpt>
      <trkpt lat="48.14043" lon="6.86347">
        <ele>666.59997558594</ele>
        <time>2026-09-02T13:44:06.000Z</time>
      </trkpt>
      <trkpt lat="48.14043" lon="6.86347">
        <ele>666.59997558594</ele>
        <time>2026-09-02T13:44:07.000Z</time>
      </trkpt>
      <trkpt lat="48.14043" lon="6.86347">
        <ele>666.59997558594</ele>
        <time>2026-09-02T13:44:08.000Z</time>
      </trkpt>
      <trkpt lat="48.14043" lon="6.86347">
        <ele>666.80004882812</ele>
        <time>2026-09-02T13:44:09.000Z</time>
      </trkpt>
      <trkpt lat="48.14043" lon="6.86347">
        <ele>666.80004882812</ele>
        <time>2026-09-02T13:44:10.000Z</time>
      </trkpt>
      <trkpt lat="48.14043" lon="6.86347">
        <ele>666.80004882812</ele>
        <time>2026-09-02T13:44:11.000Z</time>
      </trkpt>
      <trkpt lat="48.14043" lon="6.86347">
        <ele>666.59997558594</ele>
        <time>2026-09-02T13:44:12.000Z</time>
      </trkpt>
      <trkpt lat="48.14043" lon="6.86347">
        <ele>666.59997558594</ele>
        <time>2026-09-02T13:44:13.000Z</time>
      </trkpt>
      <trkpt lat="48.14043" lon="6.86347">
        <ele>666.59997558594</ele>
        <time>2026-09-02T13:44:14.000Z</time>
      </trkpt>
      <trkpt lat="48.14043" lon="6.86347">
        <ele>666.59997558594</ele>
        <time>2026-09-02T13:44:15.000Z</time>
      </trkpt>
      <trkpt lat="48.14043" lon="6.86347">
        <ele>666.59997558594</ele>
        <time>2026-09-02T13:44:16.000Z</time>
      </trkpt>
      <trkpt lat="48.14043" lon="6.86347">
        <ele>666.80004882812</ele>
        <time>2026-09-02T13:44:17.000Z</time>
      </trkpt>
      <trkpt lat="48.14043" lon="6.86347">
        <ele>666.80004882812</ele>
        <time>2026-09-02T13:44:18.000Z</time>
      </trkpt>
      <trkpt lat="48.14043" lon="6.86347">
        <ele>666.80004882812</ele>
        <time>2026-09-02T13:44:19.000Z</time>
      </trkpt>
      <trkpt lat="48.14043" lon="6.86347">
        <ele>666.80004882812</ele>
        <time>2026-09-02T13:44:20.000Z</time>
      </trkpt>
      <trkpt lat="48.14043" lon="6.86347">
        <ele>666.59997558594</ele>
        <time>2026-09-02T13:44:21.000Z</time>
      </trkpt>
      <trkpt lat="48.14043" lon="6.86347">
        <ele>666.59997558594</ele>
        <time>2026-09-02T13:44:22.000Z</time>
      </trkpt>
      <trkpt lat="48.14043" lon="6.86347">
        <ele>666.59997558594</ele>
        <time>2026-09-02T13:44:23.000Z</time>
      </trkpt>
      <trkpt lat="48.14043" lon="6.86347">
        <ele>666.59997558594</ele>
        <time>2026-09-02T13:44:24.000Z</time>
      </trkpt>
      <trkpt lat="48.14043" lon="6.86347">
        <ele>666.80004882812</ele>
        <time>2026-09-02T13:44:25.000Z</time>
      </trkpt>
      <trkpt lat="48.14043" lon="6.86347">
        <ele>666.80004882812</ele>
        <time>2026-09-02T13:44:26.000Z</time>
      </trkpt>
      <trkpt lat="48.14043" lon="6.86347">
        <ele>666.80004882812</ele>
        <time>2026-09-02T13:44:27.000Z</time>
      </trkpt>
      <trkpt lat="48.14043" lon="6.86347">
        <ele>666.80004882812</ele>
        <time>2026-09-02T13:44:28.000Z</time>
      </trkpt>
      <trkpt lat="48.14043" lon="6.86347">
        <ele>666.59997558594</ele>
        <time>2026-09-02T13:44:29.000Z</time>
      </trkpt>
      <trkpt lat="48.14043" lon="6.86347">
        <ele>666.59997558594</ele>
        <time>2026-09-02T13:44:30.000Z</time>
      </trkpt>
      <trkpt lat="48.14043" lon="6.86347">
        <ele>666.59997558594</ele>
        <time>2026-09-02T13:44:31.000Z</time>
      </trkpt>
      <trkpt lat="48.14043" lon="6.86347">
        <ele>666.59997558594</ele>
        <time>2026-09-02T13:44:32.000Z</time>
      </trkpt>
      <trkpt lat="48.14043" lon="6.86347">
        <ele>666.59997558594</ele>
        <time>2026-09-02T13:44:33.000Z</time>
      </trkpt>
      <trkpt lat="48.14043" lon="6.86347">
        <ele>666.59997558594</ele>
        <time>2026-09-02T13:44:34.000Z</time>
      </trkpt>
      <trkpt lat="48.14043" lon="6.86347">
        <ele>666.59997558594</ele>
        <time>2026-09-02T13:44:35.000Z</time>
      </trkpt>
      <trkpt lat="48.14043" lon="6.86347">
        <ele>666.59997558594</ele>
        <time>2026-09-02T13:44:36.000Z</time>
      </trkpt>
      <trkpt lat="48.14043" lon="6.86347">
        <ele>666.59997558594</ele>
        <time>2026-09-02T13:44:37.000Z</time>
      </trkpt>
      <trkpt lat="48.14043" lon="6.86347">
        <ele>666.59997558594</ele>
        <time>2026-09-02T13:44:38.000Z</time>
      </trkpt>
      <trkpt lat="48.14043" lon="6.86347">
        <ele>666.59997558594</ele>
        <time>2026-09-02T13:44:39.000Z</time>
      </trkpt>
      <trkpt lat="48.14043" lon="6.86347">
        <ele>666.80004882812</ele>
        <time>2026-09-02T13:44:40.000Z</time>
      </trkpt>
      <trkpt lat="48.14043" lon="6.86347">
        <ele>666.80004882812</ele>
        <time>2026-09-02T13:44:41.000Z</time>
      </trkpt>
      <trkpt lat="48.14043" lon="6.86347">
        <ele>666.80004882812</ele>
        <time>2026-09-02T13:44:42.000Z</time>
      </trkpt>
      <trkpt lat="48.14043" lon="6.86347">
        <ele>666.80004882812</ele>
        <time>2026-09-02T13:44:43.000Z</time>
      </trkpt>
      <trkpt lat="48.14043" lon="6.86347">
        <ele>666.80004882812</ele>
        <time>2026-09-02T13:44:44.000Z</time>
      </trkpt>
      <trkpt lat="48.14043" lon="6.86347">
        <ele>666.80004882812</ele>
        <time>2026-09-02T13:44:45.000Z</time>
      </trkpt>
      <trkpt lat="48.14043" lon="6.86347">
        <ele>666.59997558594</ele>
        <time>2026-09-02T13:44:46.000Z</time>
      </trkpt>
      <trkpt lat="48.14043" lon="6.86347">
        <ele>666.59997558594</ele>
        <time>2026-09-02T13:44:47.000Z</time>
      </trkpt>
      <trkpt lat="48.14043" lon="6.86347">
        <ele>666.59997558594</ele>
        <time>2026-09-02T13:44:48.000Z</time>
      </trkpt>
      <trkpt lat="48.14043" lon="6.86345">
        <ele>666.59997558594</ele>
        <time>2026-09-02T13:44:49.000Z</time>
      </trkpt>
      <trkpt lat="48.14044" lon="6.86345">
        <ele>666.59997558594</ele>
        <time>2026-09-02T13:44:50.000Z</time>
      </trkpt>
      <trkpt lat="48.14045" lon="6.86344">
        <ele>666.59997558594</ele>
        <time>2026-09-02T13:44:51.000Z</time>
      </trkpt>
      <trkpt lat="48.14045" lon="6.86345">
        <ele>666.59997558594</ele>
        <time>2026-09-02T13:44:52.000Z</time>
      </trkpt>
      <trkpt lat="48.14045" lon="6.86345">
        <ele>666.59997558594</ele>
        <time>2026-09-02T13:44:53.000Z</time>
      </trkpt>
      <trkpt lat="48.14045" lon="6.86345">
        <ele>666.40002441406</ele>
        <time>2026-09-02T13:44:54.000Z</time>
      </trkpt>
      <trkpt lat="48.14045" lon="6.86345">
        <ele>666.40002441406</ele>
        <time>2026-09-02T13:44:55.000Z</time>
      </trkpt>
      <trkpt lat="48.14045" lon="6.86345">
        <ele>666.40002441406</ele>
        <time>2026-09-02T13:44:56.000Z</time>
      </trkpt>
      <trkpt lat="48.14045" lon="6.86345">
        <ele>666.40002441406</ele>
        <time>2026-09-02T13:44:57.000Z</time>
      </trkpt>
      <trkpt lat="48.14045" lon="6.86345">
        <ele>666.40002441406</ele>
        <time>2026-09-02T13:44:58.000Z</time>
      </trkpt>
      <trkpt lat="48.14045" lon="6.86345">
        <ele>666.40002441406</ele>
        <time>2026-09-02T13:44:59.000Z</time>
      </trkpt>
      <trkpt lat="48.14045" lon="6.86345">
        <ele>666.40002441406</ele>
        <time>2026-09-02T13:45:00.000Z</time>
      </trkpt>
      <trkpt lat="48.14045" lon="6.86345">
        <ele>666.40002441406</ele>
        <time>2026-09-02T13:45:01.000Z</time>
      </trkpt>
      <trkpt lat="48.14045" lon="6.86345">
        <ele>666.40002441406</ele>
        <time>2026-09-02T13:45:02.000Z</time>
      </trkpt>
      <trkpt lat="48.14045" lon="6.86345">
        <ele>666.40002441406</ele>
        <time>2026-09-02T13:45:03.000Z</time>
      </trkpt>
      <trkpt lat="48.14045" lon="6.86345">
        <ele>666.40002441406</ele>
        <time>2026-09-02T13:45:04.000Z</time>
      </trkpt>
      <trkpt lat="48.14045" lon="6.86345">
        <ele>666.40002441406</ele>
        <time>2026-09-02T13:45:05.000Z</time>
      </trkpt>
      <trkpt lat="48.14046" lon="6.86345">
        <ele>666.59997558594</ele>
        <time>2026-09-02T13:45:06.000Z</time>
      </trkpt>
      <trkpt lat="48.14047" lon="6.86345">
        <ele>666.59997558594</ele>
        <time>2026-09-02T13:45:07.000Z</time>
      </trkpt>
      <trkpt lat="48.14047" lon="6.86345">
        <ele>666.80004882812</ele>
        <time>2026-09-02T13:45:08.000Z</time>
      </trkpt>
      <trkpt lat="48.14047" lon="6.86345">
        <ele>666.80004882812</ele>
        <time>2026-09-02T13:45:09.000Z</time>
      </trkpt>
      <trkpt lat="48.14046" lon="6.86345">
        <ele>666.80004882812</ele>
        <time>2026-09-02T13:45:10.000Z</time>
      </trkpt>
      <trkpt lat="48.14046" lon="6.86345">
        <ele>666.80004882812</ele>
        <time>2026-09-02T13:45:11.000Z</time>
      </trkpt>
      <trkpt lat="48.14046" lon="6.86345">
        <ele>666.59997558594</ele>
        <time>2026-09-02T13:45:12.000Z</time>
      </trkpt>
      <trkpt lat="48.14046" lon="6.86345">
        <ele>666.59997558594</ele>
        <time>2026-09-02T13:45:13.000Z</time>
      </trkpt>
      <trkpt lat="48.14046" lon="6.86345">
        <ele>666.59997558594</ele>
        <time>2026-09-02T13:45:14.000Z</time>
      </trkpt>
      <trkpt lat="48.14046" lon="6.86345">
        <ele>666.59997558594</ele>
        <time>2026-09-02T13:45:15.000Z</time>
      </trkpt>
      <trkpt lat="48.14046" lon="6.86345">
        <ele>666.59997558594</ele>
        <time>2026-09-02T13:45:16.000Z</time>
      </trkpt>
      <trkpt lat="48.14046" lon="6.86345">
        <ele>666.59997558594</ele>
        <time>2026-09-02T13:45:17.000Z</time>
      </trkpt>
      <trkpt lat="48.14046" lon="6.86345">
        <ele>666.59997558594</ele>
        <time>2026-09-02T13:45:18.000Z</time>
      </trkpt>
      <trkpt lat="48.14046" lon="6.86345">
        <ele>666.59997558594</ele>
        <time>2026-09-02T13:45:19.000Z</time>
      </trkpt>
      <trkpt lat="48.14046" lon="6.86345">
        <ele>666.59997558594</ele>
        <time>2026-09-02T13:45:20.000Z</time>
      </trkpt>
      <trkpt lat="48.14046" lon="6.86345">
        <ele>666.80004882812</ele>
        <time>2026-09-02T13:45:21.000Z</time>
      </trkpt>
      <trkpt lat="48.14046" lon="6.86345">
        <ele>666.80004882812</ele>
        <time>2026-09-02T13:45:22.000Z</time>
      </trkpt>
      <trkpt lat="48.14046" lon="6.86345">
        <ele>666.80004882812</ele>
        <time>2026-09-02T13:45:23.000Z</time>
      </trkpt>
      <trkpt lat="48.14046" lon="6.86345">
        <ele>666.80004882812</ele>
        <time>2026-09-02T13:45:24.000Z</time>
      </trkpt>
      <trkpt lat="48.14046" lon="6.86345">
        <ele>666.80004882812</ele>
        <time>2026-09-02T13:45:25.000Z</time>
      </trkpt>
      <trkpt lat="48.14046" lon="6.86345">
        <ele>667</ele>
        <time>2026-09-02T13:45:26.000Z</time>
      </trkpt>
      <trkpt lat="48.14046" lon="6.86345">
        <ele>666.80004882812</ele>
        <time>2026-09-02T13:45:27.000Z</time>
      </trkpt>
      <trkpt lat="48.14046" lon="6.86345">
        <ele>666.80004882812</ele>
        <time>2026-09-02T13:45:28.000Z</time>
      </trkpt>
      <trkpt lat="48.14046" lon="6.86345">
        <ele>666.80004882812</ele>
        <time>2026-09-02T13:45:29.000Z</time>
      </trkpt>
      <trkpt lat="48.14046" lon="6.86345">
        <ele>666.80004882812</ele>
        <time>2026-09-02T13:45:30.000Z</time>
      </trkpt>
      <trkpt lat="48.14046" lon="6.86345">
        <ele>666.80004882812</ele>
        <time>2026-09-02T13:45:31.000Z</time>
      </trkpt>
      <trkpt lat="48.14046" lon="6.86345">
        <ele>666.80004882812</ele>
        <time>2026-09-02T13:45:32.000Z</time>
      </trkpt>
      <trkpt lat="48.14046" lon="6.86345">
        <ele>666.80004882812</ele>
        <time>2026-09-02T13:45:33.000Z</time>
      </trkpt>
      <trkpt lat="48.14046" lon="6.86345">
        <ele>666.80004882812</ele>
        <time>2026-09-02T13:45:34.000Z</time>
      </trkpt>
      <trkpt lat="48.14046" lon="6.86345">
        <ele>666.80004882812</ele>
        <time>2026-09-02T13:45:35.000Z</time>
      </trkpt>
      <trkpt lat="48.14046" lon="6.86345">
        <ele>666.80004882812</ele>
        <time>2026-09-02T13:45:36.000Z</time>
      </trkpt>
      <trkpt lat="48.14046" lon="6.86345">
        <ele>666.80004882812</ele>
        <time>2026-09-02T13:45:37.000Z</time>
      </trkpt>
      <trkpt lat="48.14046" lon="6.86345">
        <ele>666.80004882812</ele>
        <time>2026-09-02T13:45:38.000Z</time>
      </trkpt>
      <trkpt lat="48.14046" lon="6.86345">
        <ele>666.80004882812</ele>
        <time>2026-09-02T13:45:39.000Z</time>
      </trkpt>
      <trkpt lat="48.14046" lon="6.86345">
        <ele>666.80004882812</ele>
        <time>2026-09-02T13:45:40.000Z</time>
      </trkpt>
      <trkpt lat="48.14046" lon="6.86345">
        <ele>666.80004882812</ele>
        <time>2026-09-02T13:45:41.000Z</time>
      </trkpt>
      <trkpt lat="48.14046" lon="6.86345">
        <ele>666.80004882812</ele>
        <time>2026-09-02T13:45:42.000Z</time>
      </trkpt>
      <trkpt lat="48.14046" lon="6.86345">
        <ele>666.59997558594</ele>
        <time>2026-09-02T13:45:43.000Z</time>
      </trkpt>
      <trkpt lat="48.14046" lon="6.86345">
        <ele>666.59997558594</ele>
        <time>2026-09-02T13:45:44.000Z</time>
      </trkpt>
      <trkpt lat="48.14046" lon="6.86345">
        <ele>666.59997558594</ele>
        <time>2026-09-02T13:45:45.000Z</time>
      </trkpt>
      <trkpt lat="48.14046" lon="6.86345">
        <ele>666.59997558594</ele>
        <time>2026-09-02T13:45:46.000Z</time>
      </trkpt>
      <trkpt lat="48.14046" lon="6.86345">
        <ele>666.59997558594</ele>
        <time>2026-09-02T13:45:47.000Z</time>
      </trkpt>
      <trkpt lat="48.14046" lon="6.86345">
        <ele>666.59997558594</ele>
        <time>2026-09-02T13:45:48.000Z</time>
      </trkpt>
      <trkpt lat="48.14046" lon="6.86345">
        <ele>666.80004882812</ele>
        <time>2026-09-02T13:45:49.000Z</time>
      </trkpt>
      <trkpt lat="48.14046" lon="6.86345">
        <ele>666.80004882812</ele>
        <time>2026-09-02T13:45:50.000Z</time>
      </trkpt>
      <trkpt lat="48.14046" lon="6.86345">
        <ele>666.80004882812</ele>
        <time>2026-09-02T13:45:51.000Z</time>
      </trkpt>
      <trkpt lat="48.14046" lon="6.86345">
        <ele>666.80004882812</ele>
        <time>2026-09-02T13:45:52.000Z</time>
      </trkpt>
      <trkpt lat="48.14046" lon="6.86345">
        <ele>666.80004882812</ele>
        <time>2026-09-02T13:45:53.000Z</time>
      </trkpt>
      <trkpt lat="48.14046" lon="6.86345">
        <ele>666.80004882812</ele>
        <time>2026-09-02T13:45:54.000Z</time>
      </trkpt>
      <trkpt lat="48.14046" lon="6.86345">
        <ele>666.80004882812</ele>
        <time>2026-09-02T13:45:55.000Z</time>
      </trkpt>
      <trkpt lat="48.14046" lon="6.86345">
        <ele>666.80004882812</ele>
        <time>2026-09-02T13:45:56.000Z</time>
      </trkpt>
      <trkpt lat="48.14046" lon="6.86345">
        <ele>666.80004882812</ele>
        <time>2026-09-02T13:45:57.000Z</time>
      </trkpt>
      <trkpt lat="48.14046" lon="6.86345">
        <ele>666.80004882812</ele>
        <time>2026-09-02T13:45:58.000Z</time>
      </trkpt>
      <trkpt lat="48.14046" lon="6.86345">
        <ele>666.80004882812</ele>
        <time>2026-09-02T13:45:59.000Z</time>
      </trkpt>
      <trkpt lat="48.14046" lon="6.86345">
        <ele>666.80004882812</ele>
        <time>2026-09-02T13:46:00.000Z</time>
      </trkpt>
      <trkpt lat="48.14046" lon="6.86345">
        <ele>666.80004882812</ele>
        <time>2026-09-02T13:46:01.000Z</time>
      </trkpt>
      <trkpt lat="48.14046" lon="6.86345">
        <ele>666.59997558594</ele>
        <time>2026-09-02T13:46:02.000Z</time>
      </trkpt>
      <trkpt lat="48.14046" lon="6.86345">
        <ele>666.80004882812</ele>
        <time>2026-09-02T13:46:03.000Z</time>
      </trkpt>
      <trkpt lat="48.14046" lon="6.86345">
        <ele>666.80004882812</ele>
        <time>2026-09-02T13:46:04.000Z</time>
      </trkpt>
      <trkpt lat="48.14046" lon="6.86345">
        <ele>666.80004882812</ele>
        <time>2026-09-02T13:46:05.000Z</time>
      </trkpt>
      <trkpt lat="48.14046" lon="6.86345">
        <ele>666.80004882812</ele>
        <time>2026-09-02T13:46:06.000Z</time>
      </trkpt>
      <trkpt lat="48.14046" lon="6.86345">
        <ele>666.80004882812</ele>
        <time>2026-09-02T13:46:07.000Z</time>
      </trkpt>
      <trkpt lat="48.14046" lon="6.86345">
        <ele>666.80004882812</ele>
        <time>2026-09-02T13:46:08.000Z</time>
      </trkpt>
      <trkpt lat="48.14046" lon="6.86345">
        <ele>666.80004882812</ele>
        <time>2026-09-02T13:46:09.000Z</time>
      </trkpt>
      <trkpt lat="48.14046" lon="6.86345">
        <ele>666.80004882812</ele>
        <time>2026-09-02T13:46:10.000Z</time>
      </trkpt>
      <trkpt lat="48.14046" lon="6.86345">
        <ele>666.80004882812</ele>
        <time>2026-09-02T13:46:11.000Z</time>
      </trkpt>
      <trkpt lat="48.14046" lon="6.86345">
        <ele>666.80004882812</ele>
        <time>2026-09-02T13:46:12.000Z</time>
      </trkpt>
      <trkpt lat="48.14046" lon="6.86345">
        <ele>666.80004882812</ele>
        <time>2026-09-02T13:46:13.000Z</time>
      </trkpt>
      <trkpt lat="48.14046" lon="6.86345">
        <ele>666.80004882812</ele>
        <time>2026-09-02T13:46:14.000Z</time>
      </trkpt>
      <trkpt lat="48.14046" lon="6.86345">
        <ele>666.80004882812</ele>
        <time>2026-09-02T13:46:15.000Z</time>
      </trkpt>
      <trkpt lat="48.14046" lon="6.86345">
        <ele>666.80004882812</ele>
        <time>2026-09-02T13:46:16.000Z</time>
      </trkpt>
      <trkpt lat="48.14046" lon="6.86345">
        <ele>666.80004882812</ele>
        <time>2026-09-02T13:46:17.000Z</time>
      </trkpt>
      <trkpt lat="48.14046" lon="6.86345">
        <ele>666.80004882812</ele>
        <time>2026-09-02T13:46:18.000Z</time>
      </trkpt>
      <trkpt lat="48.14046" lon="6.86345">
        <ele>667</ele>
        <time>2026-09-02T13:46:19.000Z</time>
      </trkpt>
      <trkpt lat="48.14046" lon="6.86345">
        <ele>667</ele>
        <time>2026-09-02T13:46:20.000Z</time>
      </trkpt>
      <trkpt lat="48.14046" lon="6.86345">
        <ele>667</ele>
        <time>2026-09-02T13:46:21.000Z</time>
      </trkpt>
      <trkpt lat="48.14046" lon="6.86345">
        <ele>667.19995117188</ele>
        <time>2026-09-02T13:46:22.000Z</time>
      </trkpt>
      <trkpt lat="48.14046" lon="6.86345">
        <ele>667</ele>
        <time>2026-09-02T13:46:23.000Z</time>
      </trkpt>
      <trkpt lat="48.14046" lon="6.86345">
        <ele>667</ele>
        <time>2026-09-02T13:46:24.000Z</time>
      </trkpt>
      <trkpt lat="48.14046" lon="6.86345">
        <ele>667</ele>
        <time>2026-09-02T13:46:25.000Z</time>
      </trkpt>
      <trkpt lat="48.14046" lon="6.86345">
        <ele>667</ele>
        <time>2026-09-02T13:46:26.000Z</time>
      </trkpt>
      <trkpt lat="48.14046" lon="6.86345">
        <ele>667</ele>
        <time>2026-09-02T13:46:27.000Z</time>
      </trkpt>
      <trkpt lat="48.14046" lon="6.86345">
        <ele>666.80004882812</ele>
        <time>2026-09-02T13:46:28.000Z</time>
      </trkpt>
      <trkpt lat="48.14046" lon="6.86345">
        <ele>666.80004882812</ele>
        <time>2026-09-02T13:46:29.000Z</time>
      </trkpt>
      <trkpt lat="48.14046" lon="6.86345">
        <ele>666.80004882812</ele>
        <time>2026-09-02T13:46:30.000Z</time>
      </trkpt>
      <trkpt lat="48.14046" lon="6.86345">
        <ele>666.80004882812</ele>
        <time>2026-09-02T13:46:31.000Z</time>
      </trkpt>
      <trkpt lat="48.14046" lon="6.86345">
        <ele>666.80004882812</ele>
        <time>2026-09-02T13:46:32.000Z</time>
      </trkpt>
      <trkpt lat="48.14046" lon="6.86345">
        <ele>666.80004882812</ele>
        <time>2026-09-02T13:46:33.000Z</time>
      </trkpt>
      <trkpt lat="48.14046" lon="6.86345">
        <ele>666.80004882812</ele>
        <time>2026-09-02T13:46:34.000Z</time>
      </trkpt>
      <trkpt lat="48.14046" lon="6.86345">
        <ele>666.80004882812</ele>
        <time>2026-09-02T13:46:35.000Z</time>
      </trkpt>
      <trkpt lat="48.14046" lon="6.86345">
        <ele>667</ele>
        <time>2026-09-02T13:46:36.000Z</time>
      </trkpt>
      <trkpt lat="48.14046" lon="6.86345">
        <ele>667</ele>
        <time>2026-09-02T13:46:37.000Z</time>
      </trkpt>
      <trkpt lat="48.14046" lon="6.86345">
        <ele>667</ele>
        <time>2026-09-02T13:46:38.000Z</time>
      </trkpt>
      <trkpt lat="48.14046" lon="6.86345">
        <ele>667</ele>
        <time>2026-09-02T13:46:39.000Z</time>
      </trkpt>
      <trkpt lat="48.14046" lon="6.86345">
        <ele>667</ele>
        <time>2026-09-02T13:46:40.000Z</time>
      </trkpt>
      <trkpt lat="48.14046" lon="6.86345">
        <ele>667</ele>
        <time>2026-09-02T13:46:41.000Z</time>
      </trkpt>
      <trkpt lat="48.14046" lon="6.86345">
        <ele>667</ele>
        <time>2026-09-02T13:46:42.000Z</time>
      </trkpt>
      <trkpt lat="48.14046" lon="6.86345">
        <ele>667</ele>
        <time>2026-09-02T13:46:43.000Z</time>
      </trkpt>
      <trkpt lat="48.14046" lon="6.86345">
        <ele>667</ele>
        <time>2026-09-02T13:46:44.000Z</time>
      </trkpt>
      <trkpt lat="48.14046" lon="6.86345">
        <ele>667</ele>
        <time>2026-09-02T13:46:45.000Z</time>
      </trkpt>
      <trkpt lat="48.14046" lon="6.86345">
        <ele>667</ele>
        <time>2026-09-02T13:46:46.000Z</time>
      </trkpt>
      <trkpt lat="48.14047" lon="6.86345">
        <ele>667</ele>
        <time>2026-09-02T13:46:47.000Z</time>
      </trkpt>
      <trkpt lat="48.14049" lon="6.86343">
        <ele>667.19995117188</ele>
        <time>2026-09-02T13:46:48.000Z</time>
      </trkpt>
      <trkpt lat="48.1405" lon="6.86343">
        <ele>667.19995117188</ele>
        <time>2026-09-02T13:46:49.000Z</time>
      </trkpt>
      <trkpt lat="48.14051" lon="6.86342">
        <ele>667.19995117188</ele>
        <time>2026-09-02T13:46:50.000Z</time>
      </trkpt>
      <trkpt lat="48.14052" lon="6.86342">
        <ele>667.40002441406</ele>
        <time>2026-09-02T13:46:51.000Z</time>
      </trkpt>
      <trkpt lat="48.14053" lon="6.86342">
        <ele>667.40002441406</ele>
        <time>2026-09-02T13:46:52.000Z</time>
      </trkpt>
      <trkpt lat="48.14054" lon="6.86342">
        <ele>667.59997558594</ele>
        <time>2026-09-02T13:46:53.000Z</time>
      </trkpt>
      <trkpt lat="48.14056" lon="6.86342">
        <ele>667.59997558594</ele>
        <time>2026-09-02T13:46:54.000Z</time>
      </trkpt>
      <trkpt lat="48.14057" lon="6.86342">
        <ele>667.80004882812</ele>
        <time>2026-09-02T13:46:55.000Z</time>
      </trkpt>
      <trkpt lat="48.14058" lon="6.86342">
        <ele>667.80004882812</ele>
        <time>2026-09-02T13:46:56.000Z</time>
      </trkpt>
      <trkpt lat="48.14059" lon="6.86341">
        <ele>667.80004882812</ele>
        <time>2026-09-02T13:46:57.000Z</time>
      </trkpt>
      <trkpt lat="48.1406" lon="6.86341">
        <ele>668</ele>
        <time>2026-09-02T13:46:58.000Z</time>
      </trkpt>
      <trkpt lat="48.14062" lon="6.86341">
        <ele>668</ele>
        <time>2026-09-02T13:46:59.000Z</time>
      </trkpt>
      <trkpt lat="48.14063" lon="6.86341">
        <ele>668</ele>
        <time>2026-09-02T13:47:00.000Z</time>
      </trkpt>
      <trkpt lat="48.14064" lon="6.8634">
        <ele>668</ele>
        <time>2026-09-02T13:47:01.000Z</time>
      </trkpt>
      <trkpt lat="48.14065" lon="6.86341">
        <ele>667.80004882812</ele>
        <time>2026-09-02T13:47:02.000Z</time>
      </trkpt>
      <trkpt lat="48.14066" lon="6.8634">
        <ele>667.80004882812</ele>
        <time>2026-09-02T13:47:03.000Z</time>
      </trkpt>
      <trkpt lat="48.14067" lon="6.8634">
        <ele>667.80004882812</ele>
        <time>2026-09-02T13:47:04.000Z</time>
      </trkpt>
      <trkpt lat="48.14068" lon="6.8634">
        <ele>667.80004882812</ele>
        <time>2026-09-02T13:47:05.000Z</time>
      </trkpt>
      <trkpt lat="48.1407" lon="6.86341">
        <ele>667.80004882812</ele>
        <time>2026-09-02T13:47:06.000Z</time>
      </trkpt>
      <trkpt lat="48.14071" lon="6.8634">
        <ele>667.80004882812</ele>
        <time>2026-09-02T13:47:07.000Z</time>
      </trkpt>
      <trkpt lat="48.14071" lon="6.8634">
        <ele>668</ele>
        <time>2026-09-02T13:47:08.000Z</time>
      </trkpt>
      <trkpt lat="48.14072" lon="6.8634">
        <ele>668</ele>
        <time>2026-09-02T13:47:09.000Z</time>
      </trkpt>
      <trkpt lat="48.14073" lon="6.86339">
        <ele>668.19995117188</ele>
        <time>2026-09-02T13:47:10.000Z</time>
      </trkpt>
      <trkpt lat="48.14074" lon="6.86339">
        <ele>668.19995117188</ele>
        <time>2026-09-02T13:47:11.000Z</time>
      </trkpt>
      <trkpt lat="48.14075" lon="6.86338">
        <ele>668.19995117188</ele>
        <time>2026-09-02T13:47:12.000Z</time>
      </trkpt>
      <trkpt lat="48.14076" lon="6.86338">
        <ele>668.19995117188</ele>
        <time>2026-09-02T13:47:13.000Z</time>
      </trkpt>
      <trkpt lat="48.14077" lon="6.86337">
        <ele>668.19995117188</ele>
        <time>2026-09-02T13:47:14.000Z</time>
      </trkpt>
      <trkpt lat="48.14078" lon="6.86337">
        <ele>668.40002441406</ele>
        <time>2026-09-02T13:47:15.000Z</time>
      </trkpt>
      <trkpt lat="48.14079" lon="6.86336">
        <ele>668.40002441406</ele>
        <time>2026-09-02T13:47:16.000Z</time>
      </trkpt>
      <trkpt lat="48.14081" lon="6.86336">
        <ele>668.59997558594</ele>
        <time>2026-09-02T13:47:17.000Z</time>
      </trkpt>
      <trkpt lat="48.14082" lon="6.86335">
        <ele>668.59997558594</ele>
        <time>2026-09-02T13:47:18.000Z</time>
      </trkpt>
      <trkpt lat="48.14083" lon="6.86334">
        <ele>668.59997558594</ele>
        <time>2026-09-02T13:47:19.000Z</time>
      </trkpt>
      <trkpt lat="48.14084" lon="6.86333">
        <ele>668.80004882812</ele>
        <time>2026-09-02T13:47:20.000Z</time>
      </trkpt>
      <trkpt lat="48.14085" lon="6.86333">
        <ele>668.80004882812</ele>
        <time>2026-09-02T13:47:21.000Z</time>
      </trkpt>
      <trkpt lat="48.14086" lon="6.86332">
        <ele>668.80004882812</ele>
        <time>2026-09-02T13:47:22.000Z</time>
      </trkpt>
      <trkpt lat="48.14088" lon="6.86332">
        <ele>669</ele>
        <time>2026-09-02T13:47:23.000Z</time>
      </trkpt>
      <trkpt lat="48.14089" lon="6.86332">
        <ele>669.19995117188</ele>
        <time>2026-09-02T13:47:24.000Z</time>
      </trkpt>
      <trkpt lat="48.1409" lon="6.86332">
        <ele>669.19995117188</ele>
        <time>2026-09-02T13:47:25.000Z</time>
      </trkpt>
      <trkpt lat="48.14091" lon="6.86332">
        <ele>669.19995117188</ele>
        <time>2026-09-02T13:47:26.000Z</time>
      </trkpt>
      <trkpt lat="48.14092" lon="6.86331">
        <ele>669.19995117188</ele>
        <time>2026-09-02T13:47:27.000Z</time>
      </trkpt>
      <trkpt lat="48.14093" lon="6.86331">
        <ele>669</ele>
        <time>2026-09-02T13:47:28.000Z</time>
      </trkpt>
      <trkpt lat="48.14094" lon="6.86331">
        <ele>669</ele>
        <time>2026-09-02T13:47:29.000Z</time>
      </trkpt>
      <trkpt lat="48.14095" lon="6.86331">
        <ele>669.19995117188</ele>
        <time>2026-09-02T13:47:30.000Z</time>
      </trkpt>
      <trkpt lat="48.14096" lon="6.8633">
        <ele>669.19995117188</ele>
        <time>2026-09-02T13:47:31.000Z</time>
      </trkpt>
      <trkpt lat="48.14097" lon="6.8633">
        <ele>669.19995117188</ele>
        <time>2026-09-02T13:47:32.000Z</time>
      </trkpt>
      <trkpt lat="48.14098" lon="6.86329">
        <ele>669.40002441406</ele>
        <time>2026-09-02T13:47:33.000Z</time>
      </trkpt>
      <trkpt lat="48.141" lon="6.86329">
        <ele>669.40002441406</ele>
        <time>2026-09-02T13:47:34.000Z</time>
      </trkpt>
      <trkpt lat="48.14101" lon="6.86329">
        <ele>669.40002441406</ele>
        <time>2026-09-02T13:47:35.000Z</time>
      </trkpt>
      <trkpt lat="48.14102" lon="6.86329">
        <ele>669.59997558594</ele>
        <time>2026-09-02T13:47:36.000Z</time>
      </trkpt>
      <trkpt lat="48.14103" lon="6.86328">
        <ele>669.59997558594</ele>
        <time>2026-09-02T13:47:37.000Z</time>
      </trkpt>
      <trkpt lat="48.14104" lon="6.86328">
        <ele>669.59997558594</ele>
        <time>2026-09-02T13:47:38.000Z</time>
      </trkpt>
      <trkpt lat="48.14105" lon="6.86328">
        <ele>669.59997558594</ele>
        <time>2026-09-02T13:47:39.000Z</time>
      </trkpt>
      <trkpt lat="48.14105" lon="6.86328">
        <ele>669.59997558594</ele>
        <time>2026-09-02T13:47:40.000Z</time>
      </trkpt>
      <trkpt lat="48.14106" lon="6.86327">
        <ele>669.80004882812</ele>
        <time>2026-09-02T13:47:41.000Z</time>
      </trkpt>
      <trkpt lat="48.14108" lon="6.86327">
        <ele>669.80004882812</ele>
        <time>2026-09-02T13:47:42.000Z</time>
      </trkpt>
      <trkpt lat="48.14109" lon="6.86327">
        <ele>670</ele>
        <time>2026-09-02T13:47:43.000Z</time>
      </trkpt>
      <trkpt lat="48.1411" lon="6.86326">
        <ele>670</ele>
        <time>2026-09-02T13:47:44.000Z</time>
      </trkpt>
      <trkpt lat="48.14111" lon="6.86326">
        <ele>670</ele>
        <time>2026-09-02T13:47:45.000Z</time>
      </trkpt>
      <trkpt lat="48.14112" lon="6.86326">
        <ele>670</ele>
        <time>2026-09-02T13:47:46.000Z</time>
      </trkpt>
      <trkpt lat="48.14113" lon="6.86326">
        <ele>670</ele>
        <time>2026-09-02T13:47:47.000Z</time>
      </trkpt>
      <trkpt lat="48.14114" lon="6.86326">
        <ele>670</ele>
        <time>2026-09-02T13:47:48.000Z</time>
      </trkpt>
      <trkpt lat="48.14114" lon="6.86325">
        <ele>670</ele>
        <time>2026-09-02T13:47:49.000Z</time>
      </trkpt>
      <trkpt lat="48.14116" lon="6.86325">
        <ele>670.19995117188</ele>
        <time>2026-09-02T13:47:50.000Z</time>
      </trkpt>
      <trkpt lat="48.14116" lon="6.86325">
        <ele>670.19995117188</ele>
        <time>2026-09-02T13:47:51.000Z</time>
      </trkpt>
      <trkpt lat="48.14118" lon="6.86325">
        <ele>670.19995117188</ele>
        <time>2026-09-02T13:47:52.000Z</time>
      </trkpt>
      <trkpt lat="48.14119" lon="6.86325">
        <ele>670.19995117188</ele>
        <time>2026-09-02T13:47:53.000Z</time>
      </trkpt>
      <trkpt lat="48.1412" lon="6.86324">
        <ele>670.19995117188</ele>
        <time>2026-09-02T13:47:54.000Z</time>
      </trkpt>
      <trkpt lat="48.14121" lon="6.86324">
        <ele>670.19995117188</ele>
        <time>2026-09-02T13:47:55.000Z</time>
      </trkpt>
      <trkpt lat="48.14122" lon="6.86324">
        <ele>670.19995117188</ele>
        <time>2026-09-02T13:47:56.000Z</time>
      </trkpt>
      <trkpt lat="48.14123" lon="6.86324">
        <ele>670.19995117188</ele>
        <time>2026-09-02T13:47:57.000Z</time>
      </trkpt>
      <trkpt lat="48.14124" lon="6.86324">
        <ele>670.19995117188</ele>
        <time>2026-09-02T13:47:58.000Z</time>
      </trkpt>
      <trkpt lat="48.14125" lon="6.86324">
        <ele>670.19995117188</ele>
        <time>2026-09-02T13:47:59.000Z</time>
      </trkpt>
      <trkpt lat="48.14126" lon="6.86323">
        <ele>670.40002441406</ele>
        <time>2026-09-02T13:48:00.000Z</time>
      </trkpt>
      <trkpt lat="48.14126" lon="6.86323">
        <ele>670.40002441406</ele>
        <time>2026-09-02T13:48:01.000Z</time>
      </trkpt>
      <trkpt lat="48.14127" lon="6.86323">
        <ele>670.40002441406</ele>
        <time>2026-09-02T13:48:02.000Z</time>
      </trkpt>
      <trkpt lat="48.14128" lon="6.86323">
        <ele>670.40002441406</ele>
        <time>2026-09-02T13:48:03.000Z</time>
      </trkpt>
      <trkpt lat="48.1413" lon="6.86323">
        <ele>670.40002441406</ele>
        <time>2026-09-02T13:48:04.000Z</time>
      </trkpt>
      <trkpt lat="48.1413" lon="6.86322">
        <ele>670.59997558594</ele>
        <time>2026-09-02T13:48:05.000Z</time>
      </trkpt>
      <trkpt lat="48.14132" lon="6.86322">
        <ele>670.59997558594</ele>
        <time>2026-09-02T13:48:06.000Z</time>
      </trkpt>
      <trkpt lat="48.14133" lon="6.86323">
        <ele>670.59997558594</ele>
        <time>2026-09-02T13:48:07.000Z</time>
      </trkpt>
      <trkpt lat="48.14134" lon="6.86322">
        <ele>670.80004882812</ele>
        <time>2026-09-02T13:48:08.000Z</time>
      </trkpt>
      <trkpt lat="48.14135" lon="6.86322">
        <ele>670.80004882812</ele>
        <time>2026-09-02T13:48:09.000Z</time>
      </trkpt>
      <trkpt lat="48.14136" lon="6.86322">
        <ele>671</ele>
        <time>2026-09-02T13:48:10.000Z</time>
      </trkpt>
      <trkpt lat="48.14137" lon="6.86321">
        <ele>671</ele>
        <time>2026-09-02T13:48:11.000Z</time>
      </trkpt>
      <trkpt lat="48.14138" lon="6.86321">
        <ele>671.19995117188</ele>
        <time>2026-09-02T13:48:12.000Z</time>
      </trkpt>
      <trkpt lat="48.14139" lon="6.86321">
        <ele>671.19995117188</ele>
        <time>2026-09-02T13:48:13.000Z</time>
      </trkpt>
      <trkpt lat="48.1414" lon="6.86321">
        <ele>671.19995117188</ele>
        <time>2026-09-02T13:48:14.000Z</time>
      </trkpt>
      <trkpt lat="48.14141" lon="6.86321">
        <ele>671.19995117188</ele>
        <time>2026-09-02T13:48:15.000Z</time>
      </trkpt>
      <trkpt lat="48.14142" lon="6.86321">
        <ele>671.40002441406</ele>
        <time>2026-09-02T13:48:16.000Z</time>
      </trkpt>
      <trkpt lat="48.14143" lon="6.86321">
        <ele>671.40002441406</ele>
        <time>2026-09-02T13:48:17.000Z</time>
      </trkpt>
      <trkpt lat="48.14144" lon="6.8632">
        <ele>671.40002441406</ele>
        <time>2026-09-02T13:48:18.000Z</time>
      </trkpt>
      <trkpt lat="48.14145" lon="6.8632">
        <ele>671.59997558594</ele>
        <time>2026-09-02T13:48:19.000Z</time>
      </trkpt>
      <trkpt lat="48.14145" lon="6.8632">
        <ele>671.59997558594</ele>
        <time>2026-09-02T13:48:20.000Z</time>
      </trkpt>
      <trkpt lat="48.14146" lon="6.8632">
        <ele>671.59997558594</ele>
        <time>2026-09-02T13:48:21.000Z</time>
      </trkpt>
      <trkpt lat="48.14147" lon="6.86319">
        <ele>671.80004882812</ele>
        <time>2026-09-02T13:48:22.000Z</time>
      </trkpt>
      <trkpt lat="48.14148" lon="6.86319">
        <ele>671.80004882812</ele>
        <time>2026-09-02T13:48:23.000Z</time>
      </trkpt>
      <trkpt lat="48.14149" lon="6.86319">
        <ele>672</ele>
        <time>2026-09-02T13:48:24.000Z</time>
      </trkpt>
      <trkpt lat="48.1415" lon="6.86319">
        <ele>672</ele>
        <time>2026-09-02T13:48:25.000Z</time>
      </trkpt>
      <trkpt lat="48.14151" lon="6.86318">
        <ele>672.19995117188</ele>
        <time>2026-09-02T13:48:26.000Z</time>
      </trkpt>
      <trkpt lat="48.14152" lon="6.86318">
        <ele>672.19995117188</ele>
        <time>2026-09-02T13:48:27.000Z</time>
      </trkpt>
      <trkpt lat="48.14152" lon="6.86318">
        <ele>672.40002441406</ele>
        <time>2026-09-02T13:48:28.000Z</time>
      </trkpt>
      <trkpt lat="48.14153" lon="6.86317">
        <ele>672.40002441406</ele>
        <time>2026-09-02T13:48:29.000Z</time>
      </trkpt>
      <trkpt lat="48.14154" lon="6.86317">
        <ele>672.59997558594</ele>
        <time>2026-09-02T13:48:30.000Z</time>
      </trkpt>
      <trkpt lat="48.14155" lon="6.86317">
        <ele>672.59997558594</ele>
        <time>2026-09-02T13:48:31.000Z</time>
      </trkpt>
      <trkpt lat="48.14156" lon="6.86316">
        <ele>672.59997558594</ele>
        <time>2026-09-02T13:48:32.000Z</time>
      </trkpt>
      <trkpt lat="48.14157" lon="6.86316">
        <ele>672.59997558594</ele>
        <time>2026-09-02T13:48:33.000Z</time>
      </trkpt>
      <trkpt lat="48.14158" lon="6.86316">
        <ele>672.40002441406</ele>
        <time>2026-09-02T13:48:34.000Z</time>
      </trkpt>
      <trkpt lat="48.14159" lon="6.86315">
        <ele>672.59997558594</ele>
        <time>2026-09-02T13:48:35.000Z</time>
      </trkpt>
      <trkpt lat="48.1416" lon="6.86315">
        <ele>672.59997558594</ele>
        <time>2026-09-02T13:48:36.000Z</time>
      </trkpt>
      <trkpt lat="48.14161" lon="6.86315">
        <ele>672.80004882812</ele>
        <time>2026-09-02T13:48:37.000Z</time>
      </trkpt>
      <trkpt lat="48.14162" lon="6.86314">
        <ele>673</ele>
        <time>2026-09-02T13:48:38.000Z</time>
      </trkpt>
      <trkpt lat="48.14163" lon="6.86314">
        <ele>673.19995117188</ele>
        <time>2026-09-02T13:48:39.000Z</time>
      </trkpt>
      <trkpt lat="48.14164" lon="6.86314">
        <ele>673.19995117188</ele>
        <time>2026-09-02T13:48:40.000Z</time>
      </trkpt>
      <trkpt lat="48.14165" lon="6.86313">
        <ele>673.19995117188</ele>
        <time>2026-09-02T13:48:41.000Z</time>
      </trkpt>
      <trkpt lat="48.14166" lon="6.86313">
        <ele>673.19995117188</ele>
        <time>2026-09-02T13:48:42.000Z</time>
      </trkpt>
      <trkpt lat="48.14167" lon="6.86313">
        <ele>673.19995117188</ele>
        <time>2026-09-02T13:48:43.000Z</time>
      </trkpt>
      <trkpt lat="48.14167" lon="6.86312">
        <ele>673.19995117188</ele>
        <time>2026-09-02T13:48:44.000Z</time>
      </trkpt>
      <trkpt lat="48.14168" lon="6.86312">
        <ele>673.19995117188</ele>
        <time>2026-09-02T13:48:45.000Z</time>
      </trkpt>
      <trkpt lat="48.14169" lon="6.86312">
        <ele>673.40002441406</ele>
        <time>2026-09-02T13:48:46.000Z</time>
      </trkpt>
      <trkpt lat="48.1417" lon="6.86312">
        <ele>673.40002441406</ele>
        <time>2026-09-02T13:48:47.000Z</time>
      </trkpt>
      <trkpt lat="48.14171" lon="6.86311">
        <ele>673.40002441406</ele>
        <time>2026-09-02T13:48:48.000Z</time>
      </trkpt>
      <trkpt lat="48.14172" lon="6.86311">
        <ele>673.40002441406</ele>
        <time>2026-09-02T13:48:49.000Z</time>
      </trkpt>
      <trkpt lat="48.14173" lon="6.86311">
        <ele>673.40002441406</ele>
        <time>2026-09-02T13:48:50.000Z</time>
      </trkpt>
      <trkpt lat="48.14174" lon="6.8631">
        <ele>673.40002441406</ele>
        <time>2026-09-02T13:48:51.000Z</time>
      </trkpt>
      <trkpt lat="48.14175" lon="6.8631">
        <ele>673.59997558594</ele>
        <time>2026-09-02T13:48:52.000Z</time>
      </trkpt>
      <trkpt lat="48.14176" lon="6.86309">
        <ele>673.59997558594</ele>
        <time>2026-09-02T13:48:53.000Z</time>
      </trkpt>
      <trkpt lat="48.14176" lon="6.86309">
        <ele>673.59997558594</ele>
        <time>2026-09-02T13:48:54.000Z</time>
      </trkpt>
      <trkpt lat="48.14177" lon="6.86309">
        <ele>673.80004882812</ele>
        <time>2026-09-02T13:48:55.000Z</time>
      </trkpt>
      <trkpt lat="48.14178" lon="6.86308">
        <ele>673.80004882812</ele>
        <time>2026-09-02T13:48:56.000Z</time>
      </trkpt>
      <trkpt lat="48.14179" lon="6.86307">
        <ele>673.80004882812</ele>
        <time>2026-09-02T13:48:57.000Z</time>
      </trkpt>
      <trkpt lat="48.1418" lon="6.86307">
        <ele>673.80004882812</ele>
        <time>2026-09-02T13:48:58.000Z</time>
      </trkpt>
      <trkpt lat="48.14181" lon="6.86307">
        <ele>673.80004882812</ele>
        <time>2026-09-02T13:48:59.000Z</time>
      </trkpt>
      <trkpt lat="48.14181" lon="6.86306">
        <ele>674</ele>
        <time>2026-09-02T13:49:00.000Z</time>
      </trkpt>
      <trkpt lat="48.14182" lon="6.86306">
        <ele>674</ele>
        <time>2026-09-02T13:49:01.000Z</time>
      </trkpt>
      <trkpt lat="48.14183" lon="6.86306">
        <ele>674.19995117188</ele>
        <time>2026-09-02T13:49:02.000Z</time>
      </trkpt>
      <trkpt lat="48.14184" lon="6.86305">
        <ele>674.40002441406</ele>
        <time>2026-09-02T13:49:03.000Z</time>
      </trkpt>
      <trkpt lat="48.14185" lon="6.86305">
        <ele>674.40002441406</ele>
        <time>2026-09-02T13:49:04.000Z</time>
      </trkpt>
      <trkpt lat="48.14186" lon="6.86304">
        <ele>674.59997558594</ele>
        <time>2026-09-02T13:49:05.000Z</time>
      </trkpt>
      <trkpt lat="48.14187" lon="6.86304">
        <ele>674.59997558594</ele>
        <time>2026-09-02T13:49:06.000Z</time>
      </trkpt>
      <trkpt lat="48.14187" lon="6.86304">
        <ele>674.59997558594</ele>
        <time>2026-09-02T13:49:07.000Z</time>
      </trkpt>
      <trkpt lat="48.14188" lon="6.86304">
        <ele>674.59997558594</ele>
        <time>2026-09-02T13:49:08.000Z</time>
      </trkpt>
      <trkpt lat="48.14189" lon="6.86304">
        <ele>674.59997558594</ele>
        <time>2026-09-02T13:49:09.000Z</time>
      </trkpt>
      <trkpt lat="48.1419" lon="6.86303">
        <ele>674.59997558594</ele>
        <time>2026-09-02T13:49:10.000Z</time>
      </trkpt>
      <trkpt lat="48.1419" lon="6.86303">
        <ele>674.59997558594</ele>
        <time>2026-09-02T13:49:11.000Z</time>
      </trkpt>
      <trkpt lat="48.1419" lon="6.86303">
        <ele>674.80004882812</ele>
        <time>2026-09-02T13:49:12.000Z</time>
      </trkpt>
      <trkpt lat="48.14191" lon="6.86303">
        <ele>674.80004882812</ele>
        <time>2026-09-02T13:49:13.000Z</time>
      </trkpt>
      <trkpt lat="48.14191" lon="6.86303">
        <ele>675</ele>
        <time>2026-09-02T13:49:14.000Z</time>
      </trkpt>
      <trkpt lat="48.14191" lon="6.86303">
        <ele>675</ele>
        <time>2026-09-02T13:49:15.000Z</time>
      </trkpt>
      <trkpt lat="48.14191" lon="6.86303">
        <ele>675</ele>
        <time>2026-09-02T13:49:16.000Z</time>
      </trkpt>
      <trkpt lat="48.14191" lon="6.86303">
        <ele>674.80004882812</ele>
        <time>2026-09-02T13:49:17.000Z</time>
      </trkpt>
      <trkpt lat="48.14191" lon="6.86303">
        <ele>674.80004882812</ele>
        <time>2026-09-02T13:49:18.000Z</time>
      </trkpt>
      <trkpt lat="48.14191" lon="6.86303">
        <ele>674.80004882812</ele>
        <time>2026-09-02T13:49:19.000Z</time>
      </trkpt>
      <trkpt lat="48.14191" lon="6.86303">
        <ele>674.80004882812</ele>
        <time>2026-09-02T13:49:20.000Z</time>
      </trkpt>
      <trkpt lat="48.14191" lon="6.86303">
        <ele>674.80004882812</ele>
        <time>2026-09-02T13:49:21.000Z</time>
      </trkpt>
      <trkpt lat="48.14191" lon="6.86303">
        <ele>674.80004882812</ele>
        <time>2026-09-02T13:49:22.000Z</time>
      </trkpt>
      <trkpt lat="48.14191" lon="6.86303">
        <ele>674.80004882812</ele>
        <time>2026-09-02T13:49:23.000Z</time>
      </trkpt>
      <trkpt lat="48.14191" lon="6.86303">
        <ele>674.80004882812</ele>
        <time>2026-09-02T13:49:24.000Z</time>
      </trkpt>
      <trkpt lat="48.14191" lon="6.86303">
        <ele>674.80004882812</ele>
        <time>2026-09-02T13:49:25.000Z</time>
      </trkpt>
      <trkpt lat="48.14191" lon="6.86303">
        <ele>675</ele>
        <time>2026-09-02T13:49:26.000Z</time>
      </trkpt>
      <trkpt lat="48.14191" lon="6.86303">
        <ele>675</ele>
        <time>2026-09-02T13:49:27.000Z</time>
      </trkpt>
      <trkpt lat="48.14191" lon="6.86303">
        <ele>674.80004882812</ele>
        <time>2026-09-02T13:49:28.000Z</time>
      </trkpt>
      <trkpt lat="48.14191" lon="6.86303">
        <ele>674.80004882812</ele>
        <time>2026-09-02T13:49:29.000Z</time>
      </trkpt>
      <trkpt lat="48.14191" lon="6.86303">
        <ele>674.80004882812</ele>
        <time>2026-09-02T13:49:30.000Z</time>
      </trkpt>
      <trkpt lat="48.14191" lon="6.86303">
        <ele>674.80004882812</ele>
        <time>2026-09-02T13:49:31.000Z</time>
      </trkpt>
      <trkpt lat="48.1419" lon="6.86303">
        <ele>675</ele>
        <time>2026-09-02T13:49:32.000Z</time>
      </trkpt>
      <trkpt lat="48.14191" lon="6.86303">
        <ele>675</ele>
        <time>2026-09-02T13:49:33.000Z</time>
      </trkpt>
      <trkpt lat="48.14192" lon="6.86302">
        <ele>675.19995117188</ele>
        <time>2026-09-02T13:49:34.000Z</time>
      </trkpt>
      <trkpt lat="48.14193" lon="6.86302">
        <ele>675.40002441406</ele>
        <time>2026-09-02T13:49:35.000Z</time>
      </trkpt>
      <trkpt lat="48.14194" lon="6.86303">
        <ele>675.59997558594</ele>
        <time>2026-09-02T13:49:36.000Z</time>
      </trkpt>
      <trkpt lat="48.14195" lon="6.86302">
        <ele>675.80004882812</ele>
        <time>2026-09-02T13:49:37.000Z</time>
      </trkpt>
      <trkpt lat="48.14196" lon="6.86303">
        <ele>675.80004882812</ele>
        <time>2026-09-02T13:49:38.000Z</time>
      </trkpt>
      <trkpt lat="48.14197" lon="6.86303">
        <ele>675.80004882812</ele>
        <time>2026-09-02T13:49:39.000Z</time>
      </trkpt>
      <trkpt lat="48.14198" lon="6.86303">
        <ele>675.80004882812</ele>
        <time>2026-09-02T13:49:40.000Z</time>
      </trkpt>
      <trkpt lat="48.14199" lon="6.86303">
        <ele>675.80004882812</ele>
        <time>2026-09-02T13:49:41.000Z</time>
      </trkpt>
      <trkpt lat="48.142" lon="6.86302">
        <ele>675.80004882812</ele>
        <time>2026-09-02T13:49:42.000Z</time>
      </trkpt>
      <trkpt lat="48.14202" lon="6.86302">
        <ele>675.80004882812</ele>
        <time>2026-09-02T13:49:43.000Z</time>
      </trkpt>
      <trkpt lat="48.14203" lon="6.86302">
        <ele>675.80004882812</ele>
        <time>2026-09-02T13:49:44.000Z</time>
      </trkpt>
      <trkpt lat="48.14204" lon="6.86303">
        <ele>675.80004882812</ele>
        <time>2026-09-02T13:49:45.000Z</time>
      </trkpt>
      <trkpt lat="48.14205" lon="6.86303">
        <ele>676</ele>
        <time>2026-09-02T13:49:46.000Z</time>
      </trkpt>
      <trkpt lat="48.14206" lon="6.86303">
        <ele>676.19995117188</ele>
        <time>2026-09-02T13:49:47.000Z</time>
      </trkpt>
      <trkpt lat="48.14208" lon="6.86302">
        <ele>676.19995117188</ele>
        <time>2026-09-02T13:49:48.000Z</time>
      </trkpt>
      <trkpt lat="48.14209" lon="6.86302">
        <ele>676.19995117188</ele>
        <time>2026-09-02T13:49:49.000Z</time>
      </trkpt>
      <trkpt lat="48.1421" lon="6.86302">
        <ele>676.40002441406</ele>
        <time>2026-09-02T13:49:50.000Z</time>
      </trkpt>
      <trkpt lat="48.14211" lon="6.86302">
        <ele>676.40002441406</ele>
        <time>2026-09-02T13:49:51.000Z</time>
      </trkpt>
      <trkpt lat="48.14212" lon="6.86302">
        <ele>676.40002441406</ele>
        <time>2026-09-02T13:49:52.000Z</time>
      </trkpt>
      <trkpt lat="48.14213" lon="6.86302">
        <ele>676.59997558594</ele>
        <time>2026-09-02T13:49:53.000Z</time>
      </trkpt>
      <trkpt lat="48.14215" lon="6.86302">
        <ele>676.59997558594</ele>
        <time>2026-09-02T13:49:54.000Z</time>
      </trkpt>
      <trkpt lat="48.14215" lon="6.86302">
        <ele>676.59997558594</ele>
        <time>2026-09-02T13:49:55.000Z</time>
      </trkpt>
      <trkpt lat="48.14216" lon="6.86303">
        <ele>676.59997558594</ele>
        <time>2026-09-02T13:49:56.000Z</time>
      </trkpt>
      <trkpt lat="48.14218" lon="6.86303">
        <ele>676.59997558594</ele>
        <time>2026-09-02T13:49:57.000Z</time>
      </trkpt>
      <trkpt lat="48.14219" lon="6.86302">
        <ele>676.59997558594</ele>
        <time>2026-09-02T13:49:58.000Z</time>
      </trkpt>
      <trkpt lat="48.1422" lon="6.86302">
        <ele>676.80004882812</ele>
        <time>2026-09-02T13:49:59.000Z</time>
      </trkpt>
      <trkpt lat="48.14221" lon="6.86303">
        <ele>676.80004882812</ele>
        <time>2026-09-02T13:50:00.000Z</time>
      </trkpt>
      <trkpt lat="48.14222" lon="6.86303">
        <ele>676.80004882812</ele>
        <time>2026-09-02T13:50:01.000Z</time>
      </trkpt>
      <trkpt lat="48.14223" lon="6.86303">
        <ele>677</ele>
        <time>2026-09-02T13:50:02.000Z</time>
      </trkpt>
      <trkpt lat="48.14224" lon="6.86302">
        <ele>677</ele>
        <time>2026-09-02T13:50:03.000Z</time>
      </trkpt>
      <trkpt lat="48.14225" lon="6.86302">
        <ele>677.19995117188</ele>
        <time>2026-09-02T13:50:04.000Z</time>
      </trkpt>
      <trkpt lat="48.14226" lon="6.86303">
        <ele>677.19995117188</ele>
        <time>2026-09-02T13:50:05.000Z</time>
      </trkpt>
      <trkpt lat="48.14226" lon="6.86303">
        <ele>677.40002441406</ele>
        <time>2026-09-02T13:50:06.000Z</time>
      </trkpt>
      <trkpt lat="48.14228" lon="6.86303">
        <ele>677.19995117188</ele>
        <time>2026-09-02T13:50:07.000Z</time>
      </trkpt>
      <trkpt lat="48.14229" lon="6.86303">
        <ele>677.19995117188</ele>
        <time>2026-09-02T13:50:08.000Z</time>
      </trkpt>
      <trkpt lat="48.1423" lon="6.86303">
        <ele>677.19995117188</ele>
        <time>2026-09-02T13:50:09.000Z</time>
      </trkpt>
      <trkpt lat="48.14231" lon="6.86303">
        <ele>677.40002441406</ele>
        <time>2026-09-02T13:50:10.000Z</time>
      </trkpt>
      <trkpt lat="48.14232" lon="6.86304">
        <ele>677.40002441406</ele>
        <time>2026-09-02T13:50:11.000Z</time>
      </trkpt>
      <trkpt lat="48.14234" lon="6.86304">
        <ele>677.59997558594</ele>
        <time>2026-09-02T13:50:12.000Z</time>
      </trkpt>
      <trkpt lat="48.14235" lon="6.86304">
        <ele>677.59997558594</ele>
        <time>2026-09-02T13:50:13.000Z</time>
      </trkpt>
      <trkpt lat="48.14236" lon="6.86304">
        <ele>677.40002441406</ele>
        <time>2026-09-02T13:50:14.000Z</time>
      </trkpt>
      <trkpt lat="48.14237" lon="6.86304">
        <ele>677.19995117188</ele>
        <time>2026-09-02T13:50:15.000Z</time>
      </trkpt>
      <trkpt lat="48.14238" lon="6.86304">
        <ele>677</ele>
        <time>2026-09-02T13:50:16.000Z</time>
      </trkpt>
      <trkpt lat="48.14239" lon="6.86305">
        <ele>677</ele>
        <time>2026-09-02T13:50:17.000Z</time>
      </trkpt>
      <trkpt lat="48.14241" lon="6.86305">
        <ele>677</ele>
        <time>2026-09-02T13:50:18.000Z</time>
      </trkpt>
      <trkpt lat="48.14241" lon="6.86305">
        <ele>677.19995117188</ele>
        <time>2026-09-02T13:50:19.000Z</time>
      </trkpt>
      <trkpt lat="48.14242" lon="6.86305">
        <ele>677.40002441406</ele>
        <time>2026-09-02T13:50:20.000Z</time>
      </trkpt>
      <trkpt lat="48.14243" lon="6.86305">
        <ele>677.40002441406</ele>
        <time>2026-09-02T13:50:21.000Z</time>
      </trkpt>
      <trkpt lat="48.14244" lon="6.86305">
        <ele>677.40002441406</ele>
        <time>2026-09-02T13:50:22.000Z</time>
      </trkpt>
      <trkpt lat="48.14244" lon="6.86305">
        <ele>677.40002441406</ele>
        <time>2026-09-02T13:50:23.000Z</time>
      </trkpt>
      <trkpt lat="48.14245" lon="6.86305">
        <ele>677.40002441406</ele>
        <time>2026-09-02T13:50:24.000Z</time>
      </trkpt>
      <trkpt lat="48.14246" lon="6.86305">
        <ele>677.40002441406</ele>
        <time>2026-09-02T13:50:25.000Z</time>
      </trkpt>
      <trkpt lat="48.14247" lon="6.86305">
        <ele>677.40002441406</ele>
        <time>2026-09-02T13:50:26.000Z</time>
      </trkpt>
      <trkpt lat="48.14248" lon="6.86306">
        <ele>677.40002441406</ele>
        <time>2026-09-02T13:50:27.000Z</time>
      </trkpt>
      <trkpt lat="48.14249" lon="6.86306">
        <ele>677.59997558594</ele>
        <time>2026-09-02T13:50:28.000Z</time>
      </trkpt>
      <trkpt lat="48.14249" lon="6.86306">
        <ele>677.59997558594</ele>
        <time>2026-09-02T13:50:29.000Z</time>
      </trkpt>
      <trkpt lat="48.1425" lon="6.86306">
        <ele>677.59997558594</ele>
        <time>2026-09-02T13:50:30.000Z</time>
      </trkpt>
      <trkpt lat="48.14251" lon="6.86307">
        <ele>677.59997558594</ele>
        <time>2026-09-02T13:50:31.000Z</time>
      </trkpt>
      <trkpt lat="48.14251" lon="6.86307">
        <ele>677.80004882812</ele>
        <time>2026-09-02T13:50:32.000Z</time>
      </trkpt>
      <trkpt lat="48.14251" lon="6.86307">
        <ele>677.80004882812</ele>
        <time>2026-09-02T13:50:33.000Z</time>
      </trkpt>
      <trkpt lat="48.14251" lon="6.86307">
        <ele>677.80004882812</ele>
        <time>2026-09-02T13:50:34.000Z</time>
      </trkpt>
      <trkpt lat="48.14252" lon="6.86307">
        <ele>677.80004882812</ele>
        <time>2026-09-02T13:50:35.000Z</time>
      </trkpt>
      <trkpt lat="48.14252" lon="6.86307">
        <ele>677.80004882812</ele>
        <time>2026-09-02T13:50:36.000Z</time>
      </trkpt>
      <trkpt lat="48.14252" lon="6.86307">
        <ele>678</ele>
        <time>2026-09-02T13:50:37.000Z</time>
      </trkpt>
      <trkpt lat="48.14252" lon="6.86307">
        <ele>677.80004882812</ele>
        <time>2026-09-02T13:50:38.000Z</time>
      </trkpt>
      <trkpt lat="48.14252" lon="6.86307">
        <ele>677.80004882812</ele>
        <time>2026-09-02T13:50:39.000Z</time>
      </trkpt>
      <trkpt lat="48.14252" lon="6.86307">
        <ele>677.80004882812</ele>
        <time>2026-09-02T13:50:40.000Z</time>
      </trkpt>
      <trkpt lat="48.14252" lon="6.86307">
        <ele>677.80004882812</ele>
        <time>2026-09-02T13:50:41.000Z</time>
      </trkpt>
      <trkpt lat="48.14252" lon="6.86307">
        <ele>677.59997558594</ele>
        <time>2026-09-02T13:50:42.000Z</time>
      </trkpt>
      <trkpt lat="48.14252" lon="6.86307">
        <ele>677.59997558594</ele>
        <time>2026-09-02T13:50:43.000Z</time>
      </trkpt>
      <trkpt lat="48.14252" lon="6.86307">
        <ele>677.80004882812</ele>
        <time>2026-09-02T13:50:44.000Z</time>
      </trkpt>
      <trkpt lat="48.14252" lon="6.86306">
        <ele>677.80004882812</ele>
        <time>2026-09-02T13:50:45.000Z</time>
      </trkpt>
      <trkpt lat="48.14253" lon="6.86306">
        <ele>678</ele>
        <time>2026-09-02T13:50:46.000Z</time>
      </trkpt>
      <trkpt lat="48.14252" lon="6.86307">
        <ele>678</ele>
        <time>2026-09-02T13:50:47.000Z</time>
      </trkpt>
      <trkpt lat="48.14252" lon="6.86307">
        <ele>678</ele>
        <time>2026-09-02T13:50:48.000Z</time>
      </trkpt>
      <trkpt lat="48.14252" lon="6.86307">
        <ele>678.19995117188</ele>
        <time>2026-09-02T13:50:49.000Z</time>
      </trkpt>
      <trkpt lat="48.14252" lon="6.86307">
        <ele>678.19995117188</ele>
        <time>2026-09-02T13:50:50.000Z</time>
      </trkpt>
      <trkpt lat="48.14252" lon="6.86307">
        <ele>678.19995117188</ele>
        <time>2026-09-02T13:50:51.000Z</time>
      </trkpt>
      <trkpt lat="48.14252" lon="6.86307">
        <ele>678</ele>
        <time>2026-09-02T13:50:52.000Z</time>
      </trkpt>
      <trkpt lat="48.14252" lon="6.86307">
        <ele>677.80004882812</ele>
        <time>2026-09-02T13:50:53.000Z</time>
      </trkpt>
      <trkpt lat="48.14252" lon="6.86307">
        <ele>677.80004882812</ele>
        <time>2026-09-02T13:50:54.000Z</time>
      </trkpt>
      <trkpt lat="48.14252" lon="6.86307">
        <ele>677.59997558594</ele>
        <time>2026-09-02T13:50:55.000Z</time>
      </trkpt>
      <trkpt lat="48.14252" lon="6.86307">
        <ele>677.59997558594</ele>
        <time>2026-09-02T13:50:56.000Z</time>
      </trkpt>
      <trkpt lat="48.14252" lon="6.86307">
        <ele>677.59997558594</ele>
        <time>2026-09-02T13:50:57.000Z</time>
      </trkpt>
      <trkpt lat="48.14252" lon="6.86307">
        <ele>677.59997558594</ele>
        <time>2026-09-02T13:50:58.000Z</time>
      </trkpt>
      <trkpt lat="48.14252" lon="6.86307">
        <ele>677.80004882812</ele>
        <time>2026-09-02T13:50:59.000Z</time>
      </trkpt>
      <trkpt lat="48.14252" lon="6.86307">
        <ele>677.80004882812</ele>
        <time>2026-09-02T13:51:00.000Z</time>
      </trkpt>
      <trkpt lat="48.14252" lon="6.86307">
        <ele>677.80004882812</ele>
        <time>2026-09-02T13:51:01.000Z</time>
      </trkpt>
      <trkpt lat="48.14252" lon="6.86307">
        <ele>677.80004882812</ele>
        <time>2026-09-02T13:51:02.000Z</time>
      </trkpt>
      <trkpt lat="48.14252" lon="6.86307">
        <ele>677.80004882812</ele>
        <time>2026-09-02T13:51:03.000Z</time>
      </trkpt>
      <trkpt lat="48.14252" lon="6.86307">
        <ele>677.80004882812</ele>
        <time>2026-09-02T13:51:04.000Z</time>
      </trkpt>
      <trkpt lat="48.14252" lon="6.86307">
        <ele>677.80004882812</ele>
        <time>2026-09-02T13:51:05.000Z</time>
      </trkpt>
      <trkpt lat="48.14252" lon="6.86307">
        <ele>677.80004882812</ele>
        <time>2026-09-02T13:51:06.000Z</time>
      </trkpt>
      <trkpt lat="48.14252" lon="6.86307">
        <ele>677.80004882812</ele>
        <time>2026-09-02T13:51:07.000Z</time>
      </trkpt>
      <trkpt lat="48.14252" lon="6.86307">
        <ele>677.80004882812</ele>
        <time>2026-09-02T13:51:08.000Z</time>
      </trkpt>
      <trkpt lat="48.14252" lon="6.86307">
        <ele>677.80004882812</ele>
        <time>2026-09-02T13:51:09.000Z</time>
      </trkpt>
      <trkpt lat="48.14252" lon="6.86307">
        <ele>678</ele>
        <time>2026-09-02T13:51:10.000Z</time>
      </trkpt>
      <trkpt lat="48.14252" lon="6.86307">
        <ele>678</ele>
        <time>2026-09-02T13:51:11.000Z</time>
      </trkpt>
      <trkpt lat="48.14252" lon="6.86307">
        <ele>678.19995117188</ele>
        <time>2026-09-02T13:51:12.000Z</time>
      </trkpt>
      <trkpt lat="48.14252" lon="6.86307">
        <ele>678.40002441406</ele>
        <time>2026-09-02T13:51:13.000Z</time>
      </trkpt>
      <trkpt lat="48.14252" lon="6.86307">
        <ele>678.59997558594</ele>
        <time>2026-09-02T13:51:14.000Z</time>
      </trkpt>
      <trkpt lat="48.14252" lon="6.86307">
        <ele>678.59997558594</ele>
        <time>2026-09-02T13:51:15.000Z</time>
      </trkpt>
      <trkpt lat="48.14252" lon="6.86307">
        <ele>678.59997558594</ele>
        <time>2026-09-02T13:51:16.000Z</time>
      </trkpt>
      <trkpt lat="48.14252" lon="6.86307">
        <ele>678.59997558594</ele>
        <time>2026-09-02T13:51:17.000Z</time>
      </trkpt>
      <trkpt lat="48.14252" lon="6.86307">
        <ele>678.40002441406</ele>
        <time>2026-09-02T13:51:18.000Z</time>
      </trkpt>
      <trkpt lat="48.14252" lon="6.86307">
        <ele>678.40002441406</ele>
        <time>2026-09-02T13:51:19.000Z</time>
      </trkpt>
      <trkpt lat="48.14252" lon="6.86307">
        <ele>678.40002441406</ele>
        <time>2026-09-02T13:51:20.000Z</time>
      </trkpt>
      <trkpt lat="48.14252" lon="6.86307">
        <ele>678.40002441406</ele>
        <time>2026-09-02T13:51:21.000Z</time>
      </trkpt>
      <trkpt lat="48.14253" lon="6.86307">
        <ele>678.40002441406</ele>
        <time>2026-09-02T13:51:22.000Z</time>
      </trkpt>
      <trkpt lat="48.14253" lon="6.86308">
        <ele>678.40002441406</ele>
        <time>2026-09-02T13:51:23.000Z</time>
      </trkpt>
      <trkpt lat="48.14254" lon="6.86309">
        <ele>678.40002441406</ele>
        <time>2026-09-02T13:51:24.000Z</time>
      </trkpt>
      <trkpt lat="48.14254" lon="6.86311">
        <ele>678.40002441406</ele>
        <time>2026-09-02T13:51:25.000Z</time>
      </trkpt>
      <trkpt lat="48.14254" lon="6.86311">
        <ele>678.40002441406</ele>
        <time>2026-09-02T13:51:26.000Z</time>
      </trkpt>
      <trkpt lat="48.14254" lon="6.86312">
        <ele>678.40002441406</ele>
        <time>2026-09-02T13:51:27.000Z</time>
      </trkpt>
      <trkpt lat="48.14255" lon="6.86312">
        <ele>678.40002441406</ele>
        <time>2026-09-02T13:51:28.000Z</time>
      </trkpt>
      <trkpt lat="48.14255" lon="6.86312">
        <ele>678.19995117188</ele>
        <time>2026-09-02T13:51:29.000Z</time>
      </trkpt>
      <trkpt lat="48.14255" lon="6.86312">
        <ele>678</ele>
        <time>2026-09-02T13:51:30.000Z</time>
      </trkpt>
      <trkpt lat="48.14255" lon="6.86312">
        <ele>677.80004882812</ele>
        <time>2026-09-02T13:51:31.000Z</time>
      </trkpt>
      <trkpt lat="48.14255" lon="6.86312">
        <ele>677.80004882812</ele>
        <time>2026-09-02T13:51:32.000Z</time>
      </trkpt>
      <trkpt lat="48.14255" lon="6.86312">
        <ele>677.80004882812</ele>
        <time>2026-09-02T13:51:33.000Z</time>
      </trkpt>
      <trkpt lat="48.14255" lon="6.86312">
        <ele>677.80004882812</ele>
        <time>2026-09-02T13:51:34.000Z</time>
      </trkpt>
      <trkpt lat="48.14255" lon="6.86312">
        <ele>678</ele>
        <time>2026-09-02T13:51:35.000Z</time>
      </trkpt>
      <trkpt lat="48.14255" lon="6.86312">
        <ele>678</ele>
        <time>2026-09-02T13:51:36.000Z</time>
      </trkpt>
      <trkpt lat="48.14255" lon="6.86312">
        <ele>678</ele>
        <time>2026-09-02T13:51:37.000Z</time>
      </trkpt>
      <trkpt lat="48.14255" lon="6.86312">
        <ele>678</ele>
        <time>2026-09-02T13:51:38.000Z</time>
      </trkpt>
      <trkpt lat="48.14255" lon="6.86312">
        <ele>678</ele>
        <time>2026-09-02T13:51:39.000Z</time>
      </trkpt>
      <trkpt lat="48.14255" lon="6.86312">
        <ele>677.80004882812</ele>
        <time>2026-09-02T13:51:40.000Z</time>
      </trkpt>
      <trkpt lat="48.14255" lon="6.86312">
        <ele>677.80004882812</ele>
        <time>2026-09-02T13:51:41.000Z</time>
      </trkpt>
      <trkpt lat="48.14255" lon="6.86312">
        <ele>677.80004882812</ele>
        <time>2026-09-02T13:51:42.000Z</time>
      </trkpt>
      <trkpt lat="48.14255" lon="6.86312">
        <ele>677.80004882812</ele>
        <time>2026-09-02T13:51:43.000Z</time>
      </trkpt>
      <trkpt lat="48.14255" lon="6.86312">
        <ele>678</ele>
        <time>2026-09-02T13:51:44.000Z</time>
      </trkpt>
      <trkpt lat="48.14255" lon="6.86312">
        <ele>678.19995117188</ele>
        <time>2026-09-02T13:51:45.000Z</time>
      </trkpt>
      <trkpt lat="48.14255" lon="6.86312">
        <ele>678.40002441406</ele>
        <time>2026-09-02T13:51:46.000Z</time>
      </trkpt>
      <trkpt lat="48.14255" lon="6.86312">
        <ele>678.59997558594</ele>
        <time>2026-09-02T13:51:47.000Z</time>
      </trkpt>
      <trkpt lat="48.14255" lon="6.86313">
        <ele>678.80004882812</ele>
        <time>2026-09-02T13:51:48.000Z</time>
      </trkpt>
      <trkpt lat="48.14255" lon="6.86315">
        <ele>678.80004882812</ele>
        <time>2026-09-02T13:51:49.000Z</time>
      </trkpt>
      <trkpt lat="48.14255" lon="6.86316">
        <ele>678.80004882812</ele>
        <time>2026-09-02T13:51:50.000Z</time>
      </trkpt>
      <trkpt lat="48.14255" lon="6.86318">
        <ele>678.59997558594</ele>
        <time>2026-09-02T13:51:51.000Z</time>
      </trkpt>
      <trkpt lat="48.14254" lon="6.86319">
        <ele>678.59997558594</ele>
        <time>2026-09-02T13:51:52.000Z</time>
      </trkpt>
      <trkpt lat="48.14253" lon="6.86319">
        <ele>678.59997558594</ele>
        <time>2026-09-02T13:51:53.000Z</time>
      </trkpt>
      <trkpt lat="48.14251" lon="6.86319">
        <ele>678.59997558594</ele>
        <time>2026-09-02T13:51:54.000Z</time>
      </trkpt>
      <trkpt lat="48.14249" lon="6.86319">
        <ele>678.59997558594</ele>
        <time>2026-09-02T13:51:55.000Z</time>
      </trkpt>
      <trkpt lat="48.14247" lon="6.86319">
        <ele>678.59997558594</ele>
        <time>2026-09-02T13:51:56.000Z</time>
      </trkpt>
      <trkpt lat="48.14245" lon="6.86318">
        <ele>678.80004882812</ele>
        <time>2026-09-02T13:51:57.000Z</time>
      </trkpt>
      <trkpt lat="48.14242" lon="6.86318">
        <ele>679</ele>
        <time>2026-09-02T13:51:58.000Z</time>
      </trkpt>
      <trkpt lat="48.1424" lon="6.86319">
        <ele>679.40002441406</ele>
        <time>2026-09-02T13:51:59.000Z</time>
      </trkpt>
      <trkpt lat="48.14237" lon="6.86319">
        <ele>679.59997558594</ele>
        <time>2026-09-02T13:52:00.000Z</time>
      </trkpt>
      <trkpt lat="48.14235" lon="6.8632">
        <ele>679.59997558594</ele>
        <time>2026-09-02T13:52:01.000Z</time>
      </trkpt>
      <trkpt lat="48.14232" lon="6.86321">
        <ele>679.59997558594</ele>
        <time>2026-09-02T13:52:02.000Z</time>
      </trkpt>
      <trkpt lat="48.1423" lon="6.86321">
        <ele>679.80004882812</ele>
        <time>2026-09-02T13:52:03.000Z</time>
      </trkpt>
      <trkpt lat="48.14227" lon="6.86322">
        <ele>680</ele>
        <time>2026-09-02T13:52:04.000Z</time>
      </trkpt>
      <trkpt lat="48.14224" lon="6.86323">
        <ele>680</ele>
        <time>2026-09-02T13:52:05.000Z</time>
      </trkpt>
      <trkpt lat="48.14221" lon="6.86323">
        <ele>680.19995117188</ele>
        <time>2026-09-02T13:52:06.000Z</time>
      </trkpt>
      <trkpt lat="48.14218" lon="6.86324">
        <ele>680.19995117188</ele>
        <time>2026-09-02T13:52:07.000Z</time>
      </trkpt>
      <trkpt lat="48.14216" lon="6.86326">
        <ele>680.19995117188</ele>
        <time>2026-09-02T13:52:08.000Z</time>
      </trkpt>
      <trkpt lat="48.14213" lon="6.86327">
        <ele>680.19995117188</ele>
        <time>2026-09-02T13:52:09.000Z</time>
      </trkpt>
      <trkpt lat="48.14211" lon="6.86328">
        <ele>680.19995117188</ele>
        <time>2026-09-02T13:52:10.000Z</time>
      </trkpt>
      <trkpt lat="48.14209" lon="6.8633">
        <ele>680</ele>
        <time>2026-09-02T13:52:11.000Z</time>
      </trkpt>
      <trkpt lat="48.14207" lon="6.86331">
        <ele>680</ele>
        <time>2026-09-02T13:52:12.000Z</time>
      </trkpt>
      <trkpt lat="48.14205" lon="6.86332">
        <ele>680</ele>
        <time>2026-09-02T13:52:13.000Z</time>
      </trkpt>
      <trkpt lat="48.14202" lon="6.86334">
        <ele>680.19995117188</ele>
        <time>2026-09-02T13:52:14.000Z</time>
      </trkpt>
      <trkpt lat="48.142" lon="6.86335">
        <ele>680.40002441406</ele>
        <time>2026-09-02T13:52:15.000Z</time>
      </trkpt>
      <trkpt lat="48.14198" lon="6.86337">
        <ele>680.40002441406</ele>
        <time>2026-09-02T13:52:16.000Z</time>
      </trkpt>
      <trkpt lat="48.14196" lon="6.86339">
        <ele>680.40002441406</ele>
        <time>2026-09-02T13:52:17.000Z</time>
      </trkpt>
      <trkpt lat="48.14194" lon="6.86341">
        <ele>680.40002441406</ele>
        <time>2026-09-02T13:52:18.000Z</time>
      </trkpt>
      <trkpt lat="48.14193" lon="6.86344">
        <ele>680.19995117188</ele>
        <time>2026-09-02T13:52:19.000Z</time>
      </trkpt>
      <trkpt lat="48.14191" lon="6.86346">
        <ele>680.19995117188</ele>
        <time>2026-09-02T13:52:20.000Z</time>
      </trkpt>
      <trkpt lat="48.14188" lon="6.86348">
        <ele>680</ele>
        <time>2026-09-02T13:52:21.000Z</time>
      </trkpt>
      <trkpt lat="48.14187" lon="6.86351">
        <ele>680</ele>
        <time>2026-09-02T13:52:22.000Z</time>
      </trkpt>
      <trkpt lat="48.14185" lon="6.86353">
        <ele>680.19995117188</ele>
        <time>2026-09-02T13:52:23.000Z</time>
      </trkpt>
      <trkpt lat="48.14183" lon="6.86356">
        <ele>680.40002441406</ele>
        <time>2026-09-02T13:52:24.000Z</time>
      </trkpt>
      <trkpt lat="48.14181" lon="6.86358">
        <ele>680.40002441406</ele>
        <time>2026-09-02T13:52:25.000Z</time>
      </trkpt>
      <trkpt lat="48.14179" lon="6.86361">
        <ele>680.40002441406</ele>
        <time>2026-09-02T13:52:26.000Z</time>
      </trkpt>
      <trkpt lat="48.14178" lon="6.86363">
        <ele>680.40002441406</ele>
        <time>2026-09-02T13:52:27.000Z</time>
      </trkpt>
      <trkpt lat="48.14176" lon="6.86366">
        <ele>680.19995117188</ele>
        <time>2026-09-02T13:52:28.000Z</time>
      </trkpt>
      <trkpt lat="48.14174" lon="6.86368">
        <ele>680</ele>
        <time>2026-09-02T13:52:29.000Z</time>
      </trkpt>
      <trkpt lat="48.14172" lon="6.86371">
        <ele>680</ele>
        <time>2026-09-02T13:52:30.000Z</time>
      </trkpt>
      <trkpt lat="48.1417" lon="6.86374">
        <ele>680</ele>
        <time>2026-09-02T13:52:31.000Z</time>
      </trkpt>
      <trkpt lat="48.14168" lon="6.86377">
        <ele>680</ele>
        <time>2026-09-02T13:52:32.000Z</time>
      </trkpt>
      <trkpt lat="48.14167" lon="6.8638">
        <ele>680.19995117188</ele>
        <time>2026-09-02T13:52:33.000Z</time>
      </trkpt>
      <trkpt lat="48.14165" lon="6.86383">
        <ele>680.40002441406</ele>
        <time>2026-09-02T13:52:34.000Z</time>
      </trkpt>
      <trkpt lat="48.14164" lon="6.86386">
        <ele>680.59997558594</ele>
        <time>2026-09-02T13:52:35.000Z</time>
      </trkpt>
      <trkpt lat="48.14162" lon="6.86388">
        <ele>680.59997558594</ele>
        <time>2026-09-02T13:52:36.000Z</time>
      </trkpt>
      <trkpt lat="48.14161" lon="6.8639">
        <ele>680.80004882812</ele>
        <time>2026-09-02T13:52:37.000Z</time>
      </trkpt>
      <trkpt lat="48.14158" lon="6.86392">
        <ele>680.59997558594</ele>
        <time>2026-09-02T13:52:38.000Z</time>
      </trkpt>
      <trkpt lat="48.14157" lon="6.86394">
        <ele>680.40002441406</ele>
        <time>2026-09-02T13:52:39.000Z</time>
      </trkpt>
      <trkpt lat="48.14155" lon="6.86396">
        <ele>680.40002441406</ele>
        <time>2026-09-02T13:52:40.000Z</time>
      </trkpt>
      <trkpt lat="48.14154" lon="6.86397">
        <ele>680.40002441406</ele>
        <time>2026-09-02T13:52:41.000Z</time>
      </trkpt>
      <trkpt lat="48.14153" lon="6.86399">
        <ele>680.40002441406</ele>
        <time>2026-09-02T13:52:42.000Z</time>
      </trkpt>
      <trkpt lat="48.14152" lon="6.864">
        <ele>680.59997558594</ele>
        <time>2026-09-02T13:52:43.000Z</time>
      </trkpt>
      <trkpt lat="48.14151" lon="6.86401">
        <ele>681</ele>
        <time>2026-09-02T13:52:44.000Z</time>
      </trkpt>
      <trkpt lat="48.1415" lon="6.86401">
        <ele>681.19995117188</ele>
        <time>2026-09-02T13:52:45.000Z</time>
      </trkpt>
      <trkpt lat="48.14149" lon="6.86402">
        <ele>681.40002441406</ele>
        <time>2026-09-02T13:52:46.000Z</time>
      </trkpt>
      <trkpt lat="48.14147" lon="6.86402">
        <ele>681.59997558594</ele>
        <time>2026-09-02T13:52:47.000Z</time>
      </trkpt>
      <trkpt lat="48.14146" lon="6.86404">
        <ele>681.59997558594</ele>
        <time>2026-09-02T13:52:48.000Z</time>
      </trkpt>
      <trkpt lat="48.14146" lon="6.86405">
        <ele>681.59997558594</ele>
        <time>2026-09-02T13:52:49.000Z</time>
      </trkpt>
      <trkpt lat="48.14145" lon="6.86406">
        <ele>681.59997558594</ele>
        <time>2026-09-02T13:52:50.000Z</time>
      </trkpt>
      <trkpt lat="48.14144" lon="6.86406">
        <ele>681.59997558594</ele>
        <time>2026-09-02T13:52:51.000Z</time>
      </trkpt>
      <trkpt lat="48.14144" lon="6.86407">
        <ele>681.59997558594</ele>
        <time>2026-09-02T13:52:52.000Z</time>
      </trkpt>
      <trkpt lat="48.14144" lon="6.86407">
        <ele>681.59997558594</ele>
        <time>2026-09-02T13:52:53.000Z</time>
      </trkpt>
      <trkpt lat="48.14144" lon="6.86406">
        <ele>681.80004882812</ele>
        <time>2026-09-02T13:52:54.000Z</time>
      </trkpt>
      <trkpt lat="48.14144" lon="6.86405">
        <ele>681.80004882812</ele>
        <time>2026-09-02T13:52:55.000Z</time>
      </trkpt>
      <trkpt lat="48.14144" lon="6.86406">
        <ele>681.80004882812</ele>
        <time>2026-09-02T13:52:56.000Z</time>
      </trkpt>
      <trkpt lat="48.14144" lon="6.86406">
        <ele>681.80004882812</ele>
        <time>2026-09-02T13:52:57.000Z</time>
      </trkpt>
      <trkpt lat="48.14144" lon="6.86406">
        <ele>681.80004882812</ele>
        <time>2026-09-02T13:52:58.000Z</time>
      </trkpt>
      <trkpt lat="48.14144" lon="6.86406">
        <ele>681.80004882812</ele>
        <time>2026-09-02T13:52:59.000Z</time>
      </trkpt>
      <trkpt lat="48.14143" lon="6.86407">
        <ele>681.59997558594</ele>
        <time>2026-09-02T13:53:00.000Z</time>
      </trkpt>
      <trkpt lat="48.14142" lon="6.86407">
        <ele>681.59997558594</ele>
        <time>2026-09-02T13:53:01.000Z</time>
      </trkpt>
      <trkpt lat="48.14142" lon="6.86407">
        <ele>681.59997558594</ele>
        <time>2026-09-02T13:53:02.000Z</time>
      </trkpt>
      <trkpt lat="48.14142" lon="6.86406">
        <ele>681.59997558594</ele>
        <time>2026-09-02T13:53:03.000Z</time>
      </trkpt>
      <trkpt lat="48.14143" lon="6.86406">
        <ele>681.59997558594</ele>
        <time>2026-09-02T13:53:04.000Z</time>
      </trkpt>
      <trkpt lat="48.14143" lon="6.86405">
        <ele>681.59997558594</ele>
        <time>2026-09-02T13:53:05.000Z</time>
      </trkpt>
      <trkpt lat="48.14144" lon="6.86405">
        <ele>681.80004882812</ele>
        <time>2026-09-02T13:53:06.000Z</time>
      </trkpt>
      <trkpt lat="48.14145" lon="6.86404">
        <ele>681.59997558594</ele>
        <time>2026-09-02T13:53:07.000Z</time>
      </trkpt>
      <trkpt lat="48.14146" lon="6.86403">
        <ele>681.59997558594</ele>
        <time>2026-09-02T13:53:08.000Z</time>
      </trkpt>
      <trkpt lat="48.14147" lon="6.86402">
        <ele>681.59997558594</ele>
        <time>2026-09-02T13:53:09.000Z</time>
      </trkpt>
      <trkpt lat="48.14148" lon="6.86401">
        <ele>681.59997558594</ele>
        <time>2026-09-02T13:53:10.000Z</time>
      </trkpt>
      <trkpt lat="48.14148" lon="6.86401">
        <ele>681.40002441406</ele>
        <time>2026-09-02T13:53:11.000Z</time>
      </trkpt>
      <trkpt lat="48.14149" lon="6.864">
        <ele>681.40002441406</ele>
        <time>2026-09-02T13:53:12.000Z</time>
      </trkpt>
      <trkpt lat="48.14148" lon="6.86398">
        <ele>681.40002441406</ele>
        <time>2026-09-02T13:53:13.000Z</time>
      </trkpt>
      <trkpt lat="48.1415" lon="6.86397">
        <ele>681.40002441406</ele>
        <time>2026-09-02T13:53:14.000Z</time>
      </trkpt>
      <trkpt lat="48.14151" lon="6.86395">
        <ele>681.40002441406</ele>
        <time>2026-09-02T13:53:15.000Z</time>
      </trkpt>
      <trkpt lat="48.14153" lon="6.86392">
        <ele>681.40002441406</ele>
        <time>2026-09-02T13:53:16.000Z</time>
      </trkpt>
      <trkpt lat="48.14154" lon="6.8639">
        <ele>681.19995117188</ele>
        <time>2026-09-02T13:53:17.000Z</time>
      </trkpt>
      <trkpt lat="48.14156" lon="6.86386">
        <ele>681.19995117188</ele>
        <time>2026-09-02T13:53:18.000Z</time>
      </trkpt>
      <trkpt lat="48.14159" lon="6.86383">
        <ele>681.19995117188</ele>
        <time>2026-09-02T13:53:19.000Z</time>
      </trkpt>
      <trkpt lat="48.1416" lon="6.8638">
        <ele>681.19995117188</ele>
        <time>2026-09-02T13:53:20.000Z</time>
      </trkpt>
      <trkpt lat="48.14162" lon="6.86376">
        <ele>681</ele>
        <time>2026-09-02T13:53:21.000Z</time>
      </trkpt>
      <trkpt lat="48.14164" lon="6.86373">
        <ele>680.80004882812</ele>
        <time>2026-09-02T13:53:22.000Z</time>
      </trkpt>
      <trkpt lat="48.14167" lon="6.8637">
        <ele>680.40002441406</ele>
        <time>2026-09-02T13:53:23.000Z</time>
      </trkpt>
      <trkpt lat="48.14169" lon="6.86367">
        <ele>680.19995117188</ele>
        <time>2026-09-02T13:53:24.000Z</time>
      </trkpt>
      <trkpt lat="48.14171" lon="6.86364">
        <ele>680.19995117188</ele>
        <time>2026-09-02T13:53:25.000Z</time>
      </trkpt>
      <trkpt lat="48.14173" lon="6.86361">
        <ele>680.40002441406</ele>
        <time>2026-09-02T13:53:26.000Z</time>
      </trkpt>
      <trkpt lat="48.14175" lon="6.86358">
        <ele>680.40002441406</ele>
        <time>2026-09-02T13:53:27.000Z</time>
      </trkpt>
      <trkpt lat="48.14177" lon="6.86355">
        <ele>680.59997558594</ele>
        <time>2026-09-02T13:53:28.000Z</time>
      </trkpt>
      <trkpt lat="48.14179" lon="6.86352">
        <ele>680.59997558594</ele>
        <time>2026-09-02T13:53:29.000Z</time>
      </trkpt>
      <trkpt lat="48.14181" lon="6.8635">
        <ele>680.59997558594</ele>
        <time>2026-09-02T13:53:30.000Z</time>
      </trkpt>
      <trkpt lat="48.14183" lon="6.86347">
        <ele>680.59997558594</ele>
        <time>2026-09-02T13:53:31.000Z</time>
      </trkpt>
      <trkpt lat="48.14185" lon="6.86346">
        <ele>680.40002441406</ele>
        <time>2026-09-02T13:53:32.000Z</time>
      </trkpt>
      <trkpt lat="48.14186" lon="6.86345">
        <ele>680.19995117188</ele>
        <time>2026-09-02T13:53:33.000Z</time>
      </trkpt>
      <trkpt lat="48.14188" lon="6.86343">
        <ele>679.59997558594</ele>
        <time>2026-09-02T13:53:34.000Z</time>
      </trkpt>
      <trkpt lat="48.14189" lon="6.86342">
        <ele>679.19995117188</ele>
        <time>2026-09-02T13:53:35.000Z</time>
      </trkpt>
      <trkpt lat="48.1419" lon="6.86341">
        <ele>678.80004882812</ele>
        <time>2026-09-02T13:53:36.000Z</time>
      </trkpt>
      <trkpt lat="48.14191" lon="6.8634">
        <ele>678.40002441406</ele>
        <time>2026-09-02T13:53:37.000Z</time>
      </trkpt>
      <trkpt lat="48.14192" lon="6.86339">
        <ele>678.40002441406</ele>
        <time>2026-09-02T13:53:38.000Z</time>
      </trkpt>
      <trkpt lat="48.14194" lon="6.86337">
        <ele>678.40002441406</ele>
        <time>2026-09-02T13:53:39.000Z</time>
      </trkpt>
      <trkpt lat="48.14195" lon="6.86336">
        <ele>678.59997558594</ele>
        <time>2026-09-02T13:53:40.000Z</time>
      </trkpt>
      <trkpt lat="48.14196" lon="6.86335">
        <ele>678.80004882812</ele>
        <time>2026-09-02T13:53:41.000Z</time>
      </trkpt>
      <trkpt lat="48.14197" lon="6.86334">
        <ele>679</ele>
        <time>2026-09-02T13:53:42.000Z</time>
      </trkpt>
      <trkpt lat="48.14198" lon="6.86333">
        <ele>679.19995117188</ele>
        <time>2026-09-02T13:53:43.000Z</time>
      </trkpt>
      <trkpt lat="48.14199" lon="6.86332">
        <ele>679.40002441406</ele>
        <time>2026-09-02T13:53:44.000Z</time>
      </trkpt>
      <trkpt lat="48.14201" lon="6.86332">
        <ele>679.80004882812</ele>
        <time>2026-09-02T13:53:45.000Z</time>
      </trkpt>
      <trkpt lat="48.14201" lon="6.86331">
        <ele>679.80004882812</ele>
        <time>2026-09-02T13:53:46.000Z</time>
      </trkpt>
      <trkpt lat="48.14202" lon="6.8633">
        <ele>680</ele>
        <time>2026-09-02T13:53:47.000Z</time>
      </trkpt>
      <trkpt lat="48.14203" lon="6.86329">
        <ele>680.19995117188</ele>
        <time>2026-09-02T13:53:48.000Z</time>
      </trkpt>
      <trkpt lat="48.14204" lon="6.86329">
        <ele>680.19995117188</ele>
        <time>2026-09-02T13:53:49.000Z</time>
      </trkpt>
      <trkpt lat="48.14205" lon="6.86328">
        <ele>680.19995117188</ele>
        <time>2026-09-02T13:53:50.000Z</time>
      </trkpt>
      <trkpt lat="48.14206" lon="6.86327">
        <ele>680.19995117188</ele>
        <time>2026-09-02T13:53:51.000Z</time>
      </trkpt>
      <trkpt lat="48.14208" lon="6.86326">
        <ele>680</ele>
        <time>2026-09-02T13:53:52.000Z</time>
      </trkpt>
      <trkpt lat="48.14209" lon="6.86326">
        <ele>679.80004882812</ele>
        <time>2026-09-02T13:53:53.000Z</time>
      </trkpt>
      <trkpt lat="48.1421" lon="6.86325">
        <ele>679.59997558594</ele>
        <time>2026-09-02T13:53:54.000Z</time>
      </trkpt>
      <trkpt lat="48.14211" lon="6.86325">
        <ele>679.59997558594</ele>
        <time>2026-09-02T13:53:55.000Z</time>
      </trkpt>
      <trkpt lat="48.14212" lon="6.86325">
        <ele>679.40002441406</ele>
        <time>2026-09-02T13:53:56.000Z</time>
      </trkpt>
      <trkpt lat="48.14213" lon="6.86324">
        <ele>679.59997558594</ele>
        <time>2026-09-02T13:53:57.000Z</time>
      </trkpt>
      <trkpt lat="48.14213" lon="6.86324">
        <ele>679.59997558594</ele>
        <time>2026-09-02T13:53:58.000Z</time>
      </trkpt>
      <trkpt lat="48.14214" lon="6.86323">
        <ele>679.59997558594</ele>
        <time>2026-09-02T13:53:59.000Z</time>
      </trkpt>
      <trkpt lat="48.14216" lon="6.86322">
        <ele>679.59997558594</ele>
        <time>2026-09-02T13:54:00.000Z</time>
      </trkpt>
      <trkpt lat="48.14217" lon="6.86322">
        <ele>679.40002441406</ele>
        <time>2026-09-02T13:54:01.000Z</time>
      </trkpt>
      <trkpt lat="48.14217" lon="6.86322">
        <ele>679.40002441406</ele>
        <time>2026-09-02T13:54:02.000Z</time>
      </trkpt>
      <trkpt lat="48.14219" lon="6.86322">
        <ele>679.40002441406</ele>
        <time>2026-09-02T13:54:03.000Z</time>
      </trkpt>
      <trkpt lat="48.14219" lon="6.86321">
        <ele>679.40002441406</ele>
        <time>2026-09-02T13:54:04.000Z</time>
      </trkpt>
      <trkpt lat="48.14219" lon="6.8632">
        <ele>679.40002441406</ele>
        <time>2026-09-02T13:54:05.000Z</time>
      </trkpt>
      <trkpt lat="48.1422" lon="6.8632">
        <ele>679.19995117188</ele>
        <time>2026-09-02T13:54:06.000Z</time>
      </trkpt>
      <trkpt lat="48.14222" lon="6.8632">
        <ele>679.19995117188</ele>
        <time>2026-09-02T13:54:07.000Z</time>
      </trkpt>
      <trkpt lat="48.14223" lon="6.8632">
        <ele>679.19995117188</ele>
        <time>2026-09-02T13:54:08.000Z</time>
      </trkpt>
      <trkpt lat="48.14223" lon="6.8632">
        <ele>679.19995117188</ele>
        <time>2026-09-02T13:54:09.000Z</time>
      </trkpt>
      <trkpt lat="48.14225" lon="6.86319">
        <ele>679.19995117188</ele>
        <time>2026-09-02T13:54:10.000Z</time>
      </trkpt>
      <trkpt lat="48.14226" lon="6.86319">
        <ele>679.19995117188</ele>
        <time>2026-09-02T13:54:11.000Z</time>
      </trkpt>
      <trkpt lat="48.14227" lon="6.86318">
        <ele>679.19995117188</ele>
        <time>2026-09-02T13:54:12.000Z</time>
      </trkpt>
      <trkpt lat="48.14229" lon="6.86318">
        <ele>679.19995117188</ele>
        <time>2026-09-02T13:54:13.000Z</time>
      </trkpt>
      <trkpt lat="48.1423" lon="6.86318">
        <ele>679.19995117188</ele>
        <time>2026-09-02T13:54:14.000Z</time>
      </trkpt>
      <trkpt lat="48.14232" lon="6.86318">
        <ele>679.19995117188</ele>
        <time>2026-09-02T13:54:15.000Z</time>
      </trkpt>
      <trkpt lat="48.14233" lon="6.86317">
        <ele>679.19995117188</ele>
        <time>2026-09-02T13:54:16.000Z</time>
      </trkpt>
      <trkpt lat="48.14233" lon="6.86317">
        <ele>679.19995117188</ele>
        <time>2026-09-02T13:54:17.000Z</time>
      </trkpt>
      <trkpt lat="48.14234" lon="6.86316">
        <ele>679.19995117188</ele>
        <time>2026-09-02T13:54:18.000Z</time>
      </trkpt>
      <trkpt lat="48.14235" lon="6.86316">
        <ele>679.19995117188</ele>
        <time>2026-09-02T13:54:19.000Z</time>
      </trkpt>
      <trkpt lat="48.14237" lon="6.86315">
        <ele>679.19995117188</ele>
        <time>2026-09-02T13:54:20.000Z</time>
      </trkpt>
      <trkpt lat="48.14238" lon="6.86315">
        <ele>679.19995117188</ele>
        <time>2026-09-02T13:54:21.000Z</time>
      </trkpt>
      <trkpt lat="48.1424" lon="6.86315">
        <ele>679</ele>
        <time>2026-09-02T13:54:22.000Z</time>
      </trkpt>
      <trkpt lat="48.14241" lon="6.86314">
        <ele>679</ele>
        <time>2026-09-02T13:54:23.000Z</time>
      </trkpt>
      <trkpt lat="48.14242" lon="6.86314">
        <ele>679</ele>
        <time>2026-09-02T13:54:24.000Z</time>
      </trkpt>
      <trkpt lat="48.14244" lon="6.86313">
        <ele>679</ele>
        <time>2026-09-02T13:54:25.000Z</time>
      </trkpt>
      <trkpt lat="48.14245" lon="6.86313">
        <ele>679.19995117188</ele>
        <time>2026-09-02T13:54:26.000Z</time>
      </trkpt>
      <trkpt lat="48.14246" lon="6.86314">
        <ele>679.19995117188</ele>
        <time>2026-09-02T13:54:27.000Z</time>
      </trkpt>
      <trkpt lat="48.14248" lon="6.86315">
        <ele>679</ele>
        <time>2026-09-02T13:54:28.000Z</time>
      </trkpt>
      <trkpt lat="48.14248" lon="6.86315">
        <ele>679</ele>
        <time>2026-09-02T13:54:29.000Z</time>
      </trkpt>
      <trkpt lat="48.14249" lon="6.86316">
        <ele>678.80004882812</ele>
        <time>2026-09-02T13:54:30.000Z</time>
      </trkpt>
      <trkpt lat="48.1425" lon="6.86314">
        <ele>678.59997558594</ele>
        <time>2026-09-02T13:54:31.000Z</time>
      </trkpt>
      <trkpt lat="48.1425" lon="6.86313">
        <ele>678.40002441406</ele>
        <time>2026-09-02T13:54:32.000Z</time>
      </trkpt>
      <trkpt lat="48.1425" lon="6.86313">
        <ele>678.19995117188</ele>
        <time>2026-09-02T13:54:33.000Z</time>
      </trkpt>
      <trkpt lat="48.14251" lon="6.86313">
        <ele>678</ele>
        <time>2026-09-02T13:54:34.000Z</time>
      </trkpt>
      <trkpt lat="48.14251" lon="6.86314">
        <ele>677.80004882812</ele>
        <time>2026-09-02T13:54:35.000Z</time>
      </trkpt>
      <trkpt lat="48.14251" lon="6.86314">
        <ele>677.59997558594</ele>
        <time>2026-09-02T13:54:36.000Z</time>
      </trkpt>
      <trkpt lat="48.14251" lon="6.86314">
        <ele>677.59997558594</ele>
        <time>2026-09-02T13:54:37.000Z</time>
      </trkpt>
      <trkpt lat="48.14251" lon="6.86314">
        <ele>677.59997558594</ele>
        <time>2026-09-02T13:54:38.000Z</time>
      </trkpt>
      <trkpt lat="48.14251" lon="6.86314">
        <ele>677.80004882812</ele>
        <time>2026-09-02T13:54:39.000Z</time>
      </trkpt>
      <trkpt lat="48.14251" lon="6.86314">
        <ele>678</ele>
        <time>2026-09-02T13:54:40.000Z</time>
      </trkpt>
      <trkpt lat="48.14252" lon="6.86314">
        <ele>678</ele>
        <time>2026-09-02T13:54:41.000Z</time>
      </trkpt>
      <trkpt lat="48.14251" lon="6.86314">
        <ele>678.19995117188</ele>
        <time>2026-09-02T13:54:42.000Z</time>
      </trkpt>
      <trkpt lat="48.14251" lon="6.86314">
        <ele>678.19995117188</ele>
        <time>2026-09-02T13:54:43.000Z</time>
      </trkpt>
      <trkpt lat="48.14251" lon="6.86314">
        <ele>678.40002441406</ele>
        <time>2026-09-02T13:54:44.000Z</time>
      </trkpt>
      <trkpt lat="48.14253" lon="6.86314">
        <ele>678.59997558594</ele>
        <time>2026-09-02T13:54:45.000Z</time>
      </trkpt>
      <trkpt lat="48.14254" lon="6.86315">
        <ele>678.59997558594</ele>
        <time>2026-09-02T13:54:46.000Z</time>
      </trkpt>
      <trkpt lat="48.14255" lon="6.86315">
        <ele>678.59997558594</ele>
        <time>2026-09-02T13:54:47.000Z</time>
      </trkpt>
      <trkpt lat="48.14256" lon="6.86316">
        <ele>678.80004882812</ele>
        <time>2026-09-02T13:54:48.000Z</time>
      </trkpt>
      <trkpt lat="48.14257" lon="6.86316">
        <ele>678.59997558594</ele>
        <time>2026-09-02T13:54:49.000Z</time>
      </trkpt>
      <trkpt lat="48.14258" lon="6.86317">
        <ele>678.59997558594</ele>
        <time>2026-09-02T13:54:50.000Z</time>
      </trkpt>
      <trkpt lat="48.14259" lon="6.86317">
        <ele>678.59997558594</ele>
        <time>2026-09-02T13:54:51.000Z</time>
      </trkpt>
      <trkpt lat="48.14261" lon="6.86317">
        <ele>678.59997558594</ele>
        <time>2026-09-02T13:54:52.000Z</time>
      </trkpt>
      <trkpt lat="48.14262" lon="6.86317">
        <ele>678.59997558594</ele>
        <time>2026-09-02T13:54:53.000Z</time>
      </trkpt>
      <trkpt lat="48.14264" lon="6.86317">
        <ele>678.59997558594</ele>
        <time>2026-09-02T13:54:54.000Z</time>
      </trkpt>
      <trkpt lat="48.14265" lon="6.86317">
        <ele>678.59997558594</ele>
        <time>2026-09-02T13:54:55.000Z</time>
      </trkpt>
      <trkpt lat="48.14266" lon="6.86317">
        <ele>678.80004882812</ele>
        <time>2026-09-02T13:54:56.000Z</time>
      </trkpt>
      <trkpt lat="48.14267" lon="6.86318">
        <ele>678.80004882812</ele>
        <time>2026-09-02T13:54:57.000Z</time>
      </trkpt>
      <trkpt lat="48.14268" lon="6.86319">
        <ele>678.59997558594</ele>
        <time>2026-09-02T13:54:58.000Z</time>
      </trkpt>
      <trkpt lat="48.14269" lon="6.8632">
        <ele>678.59997558594</ele>
        <time>2026-09-02T13:54:59.000Z</time>
      </trkpt>
      <trkpt lat="48.14271" lon="6.86321">
        <ele>678.59997558594</ele>
        <time>2026-09-02T13:55:00.000Z</time>
      </trkpt>
      <trkpt lat="48.14272" lon="6.86321">
        <ele>678.59997558594</ele>
        <time>2026-09-02T13:55:01.000Z</time>
      </trkpt>
      <trkpt lat="48.14272" lon="6.86322">
        <ele>678.59997558594</ele>
        <time>2026-09-02T13:55:02.000Z</time>
      </trkpt>
      <trkpt lat="48.14273" lon="6.86322">
        <ele>678.80004882812</ele>
        <time>2026-09-02T13:55:03.000Z</time>
      </trkpt>
      <trkpt lat="48.14274" lon="6.86322">
        <ele>678.80004882812</ele>
        <time>2026-09-02T13:55:04.000Z</time>
      </trkpt>
      <trkpt lat="48.14275" lon="6.86323">
        <ele>679</ele>
        <time>2026-09-02T13:55:05.000Z</time>
      </trkpt>
      <trkpt lat="48.14277" lon="6.86323">
        <ele>679</ele>
        <time>2026-09-02T13:55:06.000Z</time>
      </trkpt>
      <trkpt lat="48.14278" lon="6.86323">
        <ele>679</ele>
        <time>2026-09-02T13:55:07.000Z</time>
      </trkpt>
      <trkpt lat="48.14279" lon="6.86323">
        <ele>679.19995117188</ele>
        <time>2026-09-02T13:55:08.000Z</time>
      </trkpt>
      <trkpt lat="48.1428" lon="6.86323">
        <ele>679.19995117188</ele>
        <time>2026-09-02T13:55:09.000Z</time>
      </trkpt>
      <trkpt lat="48.14281" lon="6.86324">
        <ele>679.19995117188</ele>
        <time>2026-09-02T13:55:10.000Z</time>
      </trkpt>
      <trkpt lat="48.14282" lon="6.86325">
        <ele>679.19995117188</ele>
        <time>2026-09-02T13:55:11.000Z</time>
      </trkpt>
      <trkpt lat="48.14282" lon="6.86326">
        <ele>679.19995117188</ele>
        <time>2026-09-02T13:55:12.000Z</time>
      </trkpt>
      <trkpt lat="48.14283" lon="6.86327">
        <ele>679.19995117188</ele>
        <time>2026-09-02T13:55:13.000Z</time>
      </trkpt>
      <trkpt lat="48.14283" lon="6.86328">
        <ele>679.19995117188</ele>
        <time>2026-09-02T13:55:14.000Z</time>
      </trkpt>
      <trkpt lat="48.14283" lon="6.86328">
        <ele>679.40002441406</ele>
        <time>2026-09-02T13:55:15.000Z</time>
      </trkpt>
      <trkpt lat="48.14282" lon="6.86328">
        <ele>679.40002441406</ele>
        <time>2026-09-02T13:55:16.000Z</time>
      </trkpt>
      <trkpt lat="48.14282" lon="6.86328">
        <ele>679.40002441406</ele>
        <time>2026-09-02T13:55:17.000Z</time>
      </trkpt>
      <trkpt lat="48.14281" lon="6.86328">
        <ele>679.40002441406</ele>
        <time>2026-09-02T13:55:18.000Z</time>
      </trkpt>
      <trkpt lat="48.14281" lon="6.86328">
        <ele>679.19995117188</ele>
        <time>2026-09-02T13:55:19.000Z</time>
      </trkpt>
      <trkpt lat="48.14281" lon="6.86328">
        <ele>679</ele>
        <time>2026-09-02T13:55:20.000Z</time>
      </trkpt>
      <trkpt lat="48.14281" lon="6.86329">
        <ele>679</ele>
        <time>2026-09-02T13:55:21.000Z</time>
      </trkpt>
      <trkpt lat="48.14281" lon="6.86328">
        <ele>678.80004882812</ele>
        <time>2026-09-02T13:55:22.000Z</time>
      </trkpt>
      <trkpt lat="48.1428" lon="6.86328">
        <ele>678.59997558594</ele>
        <time>2026-09-02T13:55:23.000Z</time>
      </trkpt>
      <trkpt lat="48.1428" lon="6.86328">
        <ele>678.40002441406</ele>
        <time>2026-09-02T13:55:24.000Z</time>
      </trkpt>
      <trkpt lat="48.1428" lon="6.86328">
        <ele>678.40002441406</ele>
        <time>2026-09-02T13:55:25.000Z</time>
      </trkpt>
      <trkpt lat="48.1428" lon="6.86328">
        <ele>678.40002441406</ele>
        <time>2026-09-02T13:55:26.000Z</time>
      </trkpt>
      <trkpt lat="48.1428" lon="6.86328">
        <ele>678.40002441406</ele>
        <time>2026-09-02T13:55:27.000Z</time>
      </trkpt>
      <trkpt lat="48.1428" lon="6.86328">
        <ele>678.40002441406</ele>
        <time>2026-09-02T13:55:28.000Z</time>
      </trkpt>
      <trkpt lat="48.1428" lon="6.86328">
        <ele>678.40002441406</ele>
        <time>2026-09-02T13:55:29.000Z</time>
      </trkpt>
      <trkpt lat="48.1428" lon="6.86328">
        <ele>678.40002441406</ele>
        <time>2026-09-02T13:55:30.000Z</time>
      </trkpt>
      <trkpt lat="48.1428" lon="6.86328">
        <ele>678.40002441406</ele>
        <time>2026-09-02T13:55:31.000Z</time>
      </trkpt>
      <trkpt lat="48.14278" lon="6.86328">
        <ele>678.19995117188</ele>
        <time>2026-09-02T13:55:32.000Z</time>
      </trkpt>
      <trkpt lat="48.14277" lon="6.86327">
        <ele>678.19995117188</ele>
        <time>2026-09-02T13:55:33.000Z</time>
      </trkpt>
      <trkpt lat="48.14277" lon="6.86327">
        <ele>678.19995117188</ele>
        <time>2026-09-02T13:55:34.000Z</time>
      </trkpt>
      <trkpt lat="48.14277" lon="6.86326">
        <ele>678</ele>
        <time>2026-09-02T13:55:35.000Z</time>
      </trkpt>
      <trkpt lat="48.14277" lon="6.86325">
        <ele>678</ele>
        <time>2026-09-02T13:55:36.000Z</time>
      </trkpt>
      <trkpt lat="48.14277" lon="6.86324">
        <ele>678</ele>
        <time>2026-09-02T13:55:37.000Z</time>
      </trkpt>
      <trkpt lat="48.14278" lon="6.86324">
        <ele>678</ele>
        <time>2026-09-02T13:55:38.000Z</time>
      </trkpt>
      <trkpt lat="48.14278" lon="6.86323">
        <ele>677.80004882812</ele>
        <time>2026-09-02T13:55:39.000Z</time>
      </trkpt>
      <trkpt lat="48.14278" lon="6.86324">
        <ele>677.80004882812</ele>
        <time>2026-09-02T13:55:40.000Z</time>
      </trkpt>
      <trkpt lat="48.14278" lon="6.86325">
        <ele>678</ele>
        <time>2026-09-02T13:55:41.000Z</time>
      </trkpt>
      <trkpt lat="48.14278" lon="6.86325">
        <ele>678</ele>
        <time>2026-09-02T13:55:42.000Z</time>
      </trkpt>
      <trkpt lat="48.14278" lon="6.86325">
        <ele>678</ele>
        <time>2026-09-02T13:55:43.000Z</time>
      </trkpt>
      <trkpt lat="48.14278" lon="6.86325">
        <ele>678.19995117188</ele>
        <time>2026-09-02T13:55:44.000Z</time>
      </trkpt>
      <trkpt lat="48.14278" lon="6.86325">
        <ele>678.19995117188</ele>
        <time>2026-09-02T13:55:45.000Z</time>
      </trkpt>
      <trkpt lat="48.14278" lon="6.86325">
        <ele>678.19995117188</ele>
        <time>2026-09-02T13:55:46.000Z</time>
      </trkpt>
      <trkpt lat="48.14278" lon="6.86325">
        <ele>678.19995117188</ele>
        <time>2026-09-02T13:55:47.000Z</time>
      </trkpt>
      <trkpt lat="48.14278" lon="6.86326">
        <ele>678.19995117188</ele>
        <time>2026-09-02T13:55:48.000Z</time>
      </trkpt>
      <trkpt lat="48.14278" lon="6.86327">
        <ele>678.40002441406</ele>
        <time>2026-09-02T13:55:49.000Z</time>
      </trkpt>
      <trkpt lat="48.14278" lon="6.86325">
        <ele>678.59997558594</ele>
        <time>2026-09-02T13:55:50.000Z</time>
      </trkpt>
      <trkpt lat="48.14277" lon="6.86327">
        <ele>678.80004882812</ele>
        <time>2026-09-02T13:55:51.000Z</time>
      </trkpt>
      <trkpt lat="48.14277" lon="6.86327">
        <ele>678.80004882812</ele>
        <time>2026-09-02T13:55:52.000Z</time>
      </trkpt>
      <trkpt lat="48.14277" lon="6.86327">
        <ele>678.80004882812</ele>
        <time>2026-09-02T13:55:53.000Z</time>
      </trkpt>
      <trkpt lat="48.14277" lon="6.86327">
        <ele>678.80004882812</ele>
        <time>2026-09-02T13:55:54.000Z</time>
      </trkpt>
      <trkpt lat="48.14277" lon="6.86327">
        <ele>678.80004882812</ele>
        <time>2026-09-02T13:55:55.000Z</time>
      </trkpt>
      <trkpt lat="48.14277" lon="6.86327">
        <ele>678.59997558594</ele>
        <time>2026-09-02T13:55:56.000Z</time>
      </trkpt>
      <trkpt lat="48.14278" lon="6.86326">
        <ele>678.59997558594</ele>
        <time>2026-09-02T13:55:57.000Z</time>
      </trkpt>
      <trkpt lat="48.14277" lon="6.86327">
        <ele>678.59997558594</ele>
        <time>2026-09-02T13:55:58.000Z</time>
      </trkpt>
      <trkpt lat="48.14277" lon="6.86327">
        <ele>678.80004882812</ele>
        <time>2026-09-02T13:55:59.000Z</time>
      </trkpt>
      <trkpt lat="48.14277" lon="6.86327">
        <ele>678.80004882812</ele>
        <time>2026-09-02T13:56:00.000Z</time>
      </trkpt>
      <trkpt lat="48.14277" lon="6.86327">
        <ele>678.80004882812</ele>
        <time>2026-09-02T13:56:01.000Z</time>
      </trkpt>
      <trkpt lat="48.14277" lon="6.86327">
        <ele>678.80004882812</ele>
        <time>2026-09-02T13:56:02.000Z</time>
      </trkpt>
      <trkpt lat="48.14277" lon="6.86327">
        <ele>678.80004882812</ele>
        <time>2026-09-02T13:56:03.000Z</time>
      </trkpt>
      <trkpt lat="48.14278" lon="6.86326">
        <ele>678.80004882812</ele>
        <time>2026-09-02T13:56:04.000Z</time>
      </trkpt>
      <trkpt lat="48.14277" lon="6.86326">
        <ele>678.80004882812</ele>
        <time>2026-09-02T13:56:05.000Z</time>
      </trkpt>
      <trkpt lat="48.14277" lon="6.86326">
        <ele>678.80004882812</ele>
        <time>2026-09-02T13:56:06.000Z</time>
      </trkpt>
      <trkpt lat="48.14277" lon="6.86327">
        <ele>678.80004882812</ele>
        <time>2026-09-02T13:56:07.000Z</time>
      </trkpt>
      <trkpt lat="48.14278" lon="6.86326">
        <ele>679</ele>
        <time>2026-09-02T13:56:08.000Z</time>
      </trkpt>
      <trkpt lat="48.14278" lon="6.86325">
        <ele>679</ele>
        <time>2026-09-02T13:56:09.000Z</time>
      </trkpt>
      <trkpt lat="48.14277" lon="6.86327">
        <ele>679.19995117188</ele>
        <time>2026-09-02T13:56:10.000Z</time>
      </trkpt>
      <trkpt lat="48.14278" lon="6.86325">
        <ele>679.19995117188</ele>
        <time>2026-09-02T13:56:11.000Z</time>
      </trkpt>
      <trkpt lat="48.14278" lon="6.86326">
        <ele>679.19995117188</ele>
        <time>2026-09-02T13:56:12.000Z</time>
      </trkpt>
      <trkpt lat="48.14278" lon="6.86326">
        <ele>679</ele>
        <time>2026-09-02T13:56:13.000Z</time>
      </trkpt>
      <trkpt lat="48.14277" lon="6.86325">
        <ele>679</ele>
        <time>2026-09-02T13:56:14.000Z</time>
      </trkpt>
      <trkpt lat="48.14277" lon="6.86325">
        <ele>678.59997558594</ele>
        <time>2026-09-02T13:56:15.000Z</time>
      </trkpt>
      <trkpt lat="48.14277" lon="6.86324">
        <ele>678.59997558594</ele>
        <time>2026-09-02T13:56:16.000Z</time>
      </trkpt>
      <trkpt lat="48.14278" lon="6.86323">
        <ele>678.59997558594</ele>
        <time>2026-09-02T13:56:17.000Z</time>
      </trkpt>
      <trkpt lat="48.14278" lon="6.86323">
        <ele>678.80004882812</ele>
        <time>2026-09-02T13:56:18.000Z</time>
      </trkpt>
      <trkpt lat="48.14278" lon="6.86323">
        <ele>678.80004882812</ele>
        <time>2026-09-02T13:56:19.000Z</time>
      </trkpt>
      <trkpt lat="48.14278" lon="6.86323">
        <ele>678.80004882812</ele>
        <time>2026-09-02T13:56:20.000Z</time>
      </trkpt>
      <trkpt lat="48.14278" lon="6.86323">
        <ele>678.80004882812</ele>
        <time>2026-09-02T13:56:21.000Z</time>
      </trkpt>
      <trkpt lat="48.14278" lon="6.86323">
        <ele>678.59997558594</ele>
        <time>2026-09-02T13:56:22.000Z</time>
      </trkpt>
      <trkpt lat="48.14278" lon="6.86323">
        <ele>678.59997558594</ele>
        <time>2026-09-02T13:56:23.000Z</time>
      </trkpt>
      <trkpt lat="48.14278" lon="6.86323">
        <ele>678.59997558594</ele>
        <time>2026-09-02T13:56:24.000Z</time>
      </trkpt>
      <trkpt lat="48.14278" lon="6.86323">
        <ele>678.59997558594</ele>
        <time>2026-09-02T13:56:25.000Z</time>
      </trkpt>
      <trkpt lat="48.14278" lon="6.86323">
        <ele>678.59997558594</ele>
        <time>2026-09-02T13:56:26.000Z</time>
      </trkpt>
      <trkpt lat="48.14278" lon="6.86323">
        <ele>678.59997558594</ele>
        <time>2026-09-02T13:56:27.000Z</time>
      </trkpt>
      <trkpt lat="48.14278" lon="6.86323">
        <ele>678.59997558594</ele>
        <time>2026-09-02T13:56:28.000Z</time>
      </trkpt>
      <trkpt lat="48.14278" lon="6.86323">
        <ele>678.59997558594</ele>
        <time>2026-09-02T13:56:29.000Z</time>
      </trkpt>
      <trkpt lat="48.14278" lon="6.86323">
        <ele>678.59997558594</ele>
        <time>2026-09-02T13:56:30.000Z</time>
      </trkpt>
      <trkpt lat="48.14278" lon="6.86323">
        <ele>678.59997558594</ele>
        <time>2026-09-02T13:56:31.000Z</time>
      </trkpt>
      <trkpt lat="48.14278" lon="6.86323">
        <ele>678.59997558594</ele>
        <time>2026-09-02T13:56:32.000Z</time>
      </trkpt>
      <trkpt lat="48.14278" lon="6.86323">
        <ele>678.59997558594</ele>
        <time>2026-09-02T13:56:33.000Z</time>
      </trkpt>
      <trkpt lat="48.14278" lon="6.86323">
        <ele>678.40002441406</ele>
        <time>2026-09-02T13:56:34.000Z</time>
      </trkpt>
      <trkpt lat="48.14278" lon="6.86323">
        <ele>678.19995117188</ele>
        <time>2026-09-02T13:56:35.000Z</time>
      </trkpt>
      <trkpt lat="48.14278" lon="6.86323">
        <ele>678</ele>
        <time>2026-09-02T13:56:36.000Z</time>
      </trkpt>
      <trkpt lat="48.14278" lon="6.86323">
        <ele>677.80004882812</ele>
        <time>2026-09-02T13:56:37.000Z</time>
      </trkpt>
      <trkpt lat="48.14278" lon="6.86323">
        <ele>677.80004882812</ele>
        <time>2026-09-02T13:56:38.000Z</time>
      </trkpt>
      <trkpt lat="48.14279" lon="6.86323">
        <ele>677.59997558594</ele>
        <time>2026-09-02T13:56:39.000Z</time>
      </trkpt>
      <trkpt lat="48.14279" lon="6.86325">
        <ele>677.59997558594</ele>
        <time>2026-09-02T13:56:40.000Z</time>
      </trkpt>
      <trkpt lat="48.1428" lon="6.86326">
        <ele>677.80004882812</ele>
        <time>2026-09-02T13:56:41.000Z</time>
      </trkpt>
      <trkpt lat="48.14281" lon="6.86327">
        <ele>677.80004882812</ele>
        <time>2026-09-02T13:56:42.000Z</time>
      </trkpt>
      <trkpt lat="48.14282" lon="6.86328">
        <ele>677.80004882812</ele>
        <time>2026-09-02T13:56:43.000Z</time>
      </trkpt>
      <trkpt lat="48.14282" lon="6.86328">
        <ele>678</ele>
        <time>2026-09-02T13:56:44.000Z</time>
      </trkpt>
      <trkpt lat="48.14283" lon="6.86328">
        <ele>678</ele>
        <time>2026-09-02T13:56:45.000Z</time>
      </trkpt>
      <trkpt lat="48.14284" lon="6.86328">
        <ele>678</ele>
        <time>2026-09-02T13:56:46.000Z</time>
      </trkpt>
      <trkpt lat="48.14285" lon="6.86329">
        <ele>678</ele>
        <time>2026-09-02T13:56:47.000Z</time>
      </trkpt>
      <trkpt lat="48.14286" lon="6.8633">
        <ele>678</ele>
        <time>2026-09-02T13:56:48.000Z</time>
      </trkpt>
      <trkpt lat="48.14287" lon="6.8633">
        <ele>678</ele>
        <time>2026-09-02T13:56:49.000Z</time>
      </trkpt>
      <trkpt lat="48.14288" lon="6.86331">
        <ele>677.80004882812</ele>
        <time>2026-09-02T13:56:50.000Z</time>
      </trkpt>
      <trkpt lat="48.14289" lon="6.86331">
        <ele>677.80004882812</ele>
        <time>2026-09-02T13:56:51.000Z</time>
      </trkpt>
      <trkpt lat="48.1429" lon="6.86332">
        <ele>677.80004882812</ele>
        <time>2026-09-02T13:56:52.000Z</time>
      </trkpt>
      <trkpt lat="48.1429" lon="6.86332">
        <ele>678</ele>
        <time>2026-09-02T13:56:53.000Z</time>
      </trkpt>
      <trkpt lat="48.14291" lon="6.86333">
        <ele>678</ele>
        <time>2026-09-02T13:56:54.000Z</time>
      </trkpt>
      <trkpt lat="48.14292" lon="6.86334">
        <ele>678</ele>
        <time>2026-09-02T13:56:55.000Z</time>
      </trkpt>
      <trkpt lat="48.14293" lon="6.86335">
        <ele>678</ele>
        <time>2026-09-02T13:56:56.000Z</time>
      </trkpt>
      <trkpt lat="48.14294" lon="6.86335">
        <ele>678</ele>
        <time>2026-09-02T13:56:57.000Z</time>
      </trkpt>
      <trkpt lat="48.14295" lon="6.86336">
        <ele>678</ele>
        <time>2026-09-02T13:56:58.000Z</time>
      </trkpt>
      <trkpt lat="48.14295" lon="6.86336">
        <ele>678</ele>
        <time>2026-09-02T13:56:59.000Z</time>
      </trkpt>
      <trkpt lat="48.14296" lon="6.86337">
        <ele>678</ele>
        <time>2026-09-02T13:57:00.000Z</time>
      </trkpt>
      <trkpt lat="48.14297" lon="6.86338">
        <ele>678.19995117188</ele>
        <time>2026-09-02T13:57:01.000Z</time>
      </trkpt>
      <trkpt lat="48.14298" lon="6.86338">
        <ele>678.19995117188</ele>
        <time>2026-09-02T13:57:02.000Z</time>
      </trkpt>
      <trkpt lat="48.14299" lon="6.86339">
        <ele>678.19995117188</ele>
        <time>2026-09-02T13:57:03.000Z</time>
      </trkpt>
      <trkpt lat="48.14299" lon="6.86339">
        <ele>678.40002441406</ele>
        <time>2026-09-02T13:57:04.000Z</time>
      </trkpt>
      <trkpt lat="48.143" lon="6.86339">
        <ele>678.59997558594</ele>
        <time>2026-09-02T13:57:05.000Z</time>
      </trkpt>
      <trkpt lat="48.14301" lon="6.8634">
        <ele>678.59997558594</ele>
        <time>2026-09-02T13:57:06.000Z</time>
      </trkpt>
      <trkpt lat="48.14302" lon="6.8634">
        <ele>678.80004882812</ele>
        <time>2026-09-02T13:57:07.000Z</time>
      </trkpt>
      <trkpt lat="48.14303" lon="6.86341">
        <ele>678.80004882812</ele>
        <time>2026-09-02T13:57:08.000Z</time>
      </trkpt>
      <trkpt lat="48.14303" lon="6.86342">
        <ele>678.80004882812</ele>
        <time>2026-09-02T13:57:09.000Z</time>
      </trkpt>
      <trkpt lat="48.14304" lon="6.86342">
        <ele>678.59997558594</ele>
        <time>2026-09-02T13:57:10.000Z</time>
      </trkpt>
      <trkpt lat="48.14305" lon="6.86343">
        <ele>678.59997558594</ele>
        <time>2026-09-02T13:57:11.000Z</time>
      </trkpt>
      <trkpt lat="48.14306" lon="6.86343">
        <ele>678.59997558594</ele>
        <time>2026-09-02T13:57:12.000Z</time>
      </trkpt>
      <trkpt lat="48.14307" lon="6.86344">
        <ele>678.40002441406</ele>
        <time>2026-09-02T13:57:13.000Z</time>
      </trkpt>
      <trkpt lat="48.14308" lon="6.86344">
        <ele>678.40002441406</ele>
        <time>2026-09-02T13:57:14.000Z</time>
      </trkpt>
      <trkpt lat="48.14309" lon="6.86345">
        <ele>678.40002441406</ele>
        <time>2026-09-02T13:57:15.000Z</time>
      </trkpt>
      <trkpt lat="48.14309" lon="6.86346">
        <ele>678.40002441406</ele>
        <time>2026-09-02T13:57:16.000Z</time>
      </trkpt>
      <trkpt lat="48.1431" lon="6.86346">
        <ele>678.40002441406</ele>
        <time>2026-09-02T13:57:17.000Z</time>
      </trkpt>
      <trkpt lat="48.14311" lon="6.86347">
        <ele>678.59997558594</ele>
        <time>2026-09-02T13:57:18.000Z</time>
      </trkpt>
      <trkpt lat="48.14312" lon="6.86348">
        <ele>678.59997558594</ele>
        <time>2026-09-02T13:57:19.000Z</time>
      </trkpt>
      <trkpt lat="48.14313" lon="6.86348">
        <ele>678.59997558594</ele>
        <time>2026-09-02T13:57:20.000Z</time>
      </trkpt>
      <trkpt lat="48.14314" lon="6.86349">
        <ele>678.59997558594</ele>
        <time>2026-09-02T13:57:21.000Z</time>
      </trkpt>
      <trkpt lat="48.14315" lon="6.8635">
        <ele>678.59997558594</ele>
        <time>2026-09-02T13:57:22.000Z</time>
      </trkpt>
      <trkpt lat="48.14316" lon="6.86351">
        <ele>678.59997558594</ele>
        <time>2026-09-02T13:57:23.000Z</time>
      </trkpt>
      <trkpt lat="48.14317" lon="6.86352">
        <ele>678.59997558594</ele>
        <time>2026-09-02T13:57:24.000Z</time>
      </trkpt>
      <trkpt lat="48.14318" lon="6.86352">
        <ele>678.80004882812</ele>
        <time>2026-09-02T13:57:25.000Z</time>
      </trkpt>
      <trkpt lat="48.14319" lon="6.86353">
        <ele>679</ele>
        <time>2026-09-02T13:57:26.000Z</time>
      </trkpt>
      <trkpt lat="48.1432" lon="6.86354">
        <ele>679.40002441406</ele>
        <time>2026-09-02T13:57:27.000Z</time>
      </trkpt>
      <trkpt lat="48.14321" lon="6.86355">
        <ele>679.40002441406</ele>
        <time>2026-09-02T13:57:28.000Z</time>
      </trkpt>
      <trkpt lat="48.14322" lon="6.86355">
        <ele>679.40002441406</ele>
        <time>2026-09-02T13:57:29.000Z</time>
      </trkpt>
      <trkpt lat="48.14323" lon="6.86355">
        <ele>679.40002441406</ele>
        <time>2026-09-02T13:57:30.000Z</time>
      </trkpt>
      <trkpt lat="48.14324" lon="6.86356">
        <ele>679.40002441406</ele>
        <time>2026-09-02T13:57:31.000Z</time>
      </trkpt>
      <trkpt lat="48.14325" lon="6.86357">
        <ele>679.19995117188</ele>
        <time>2026-09-02T13:57:32.000Z</time>
      </trkpt>
      <trkpt lat="48.14326" lon="6.86359">
        <ele>679.19995117188</ele>
        <time>2026-09-02T13:57:33.000Z</time>
      </trkpt>
      <trkpt lat="48.14327" lon="6.86359">
        <ele>679.19995117188</ele>
        <time>2026-09-02T13:57:34.000Z</time>
      </trkpt>
      <trkpt lat="48.14327" lon="6.8636">
        <ele>679.19995117188</ele>
        <time>2026-09-02T13:57:35.000Z</time>
      </trkpt>
      <trkpt lat="48.14328" lon="6.86361">
        <ele>679.40002441406</ele>
        <time>2026-09-02T13:57:36.000Z</time>
      </trkpt>
      <trkpt lat="48.14329" lon="6.86362">
        <ele>679.40002441406</ele>
        <time>2026-09-02T13:57:37.000Z</time>
      </trkpt>
      <trkpt lat="48.1433" lon="6.86364">
        <ele>679.40002441406</ele>
        <time>2026-09-02T13:57:38.000Z</time>
      </trkpt>
      <trkpt lat="48.1433" lon="6.86364">
        <ele>679.40002441406</ele>
        <time>2026-09-02T13:57:39.000Z</time>
      </trkpt>
      <trkpt lat="48.14331" lon="6.86365">
        <ele>679.40002441406</ele>
        <time>2026-09-02T13:57:40.000Z</time>
      </trkpt>
      <trkpt lat="48.14332" lon="6.86367">
        <ele>679.40002441406</ele>
        <time>2026-09-02T13:57:41.000Z</time>
      </trkpt>
      <trkpt lat="48.14332" lon="6.86367">
        <ele>679.19995117188</ele>
        <time>2026-09-02T13:57:42.000Z</time>
      </trkpt>
      <trkpt lat="48.14333" lon="6.86368">
        <ele>679.19995117188</ele>
        <time>2026-09-02T13:57:43.000Z</time>
      </trkpt>
      <trkpt lat="48.14334" lon="6.86369">
        <ele>679.19995117188</ele>
        <time>2026-09-02T13:57:44.000Z</time>
      </trkpt>
      <trkpt lat="48.14334" lon="6.8637">
        <ele>679.19995117188</ele>
        <time>2026-09-02T13:57:45.000Z</time>
      </trkpt>
      <trkpt lat="48.14335" lon="6.86371">
        <ele>679.40002441406</ele>
        <time>2026-09-02T13:57:46.000Z</time>
      </trkpt>
      <trkpt lat="48.14336" lon="6.86372">
        <ele>679.40002441406</ele>
        <time>2026-09-02T13:57:47.000Z</time>
      </trkpt>
      <trkpt lat="48.14337" lon="6.86373">
        <ele>679.40002441406</ele>
        <time>2026-09-02T13:57:48.000Z</time>
      </trkpt>
      <trkpt lat="48.14338" lon="6.86375">
        <ele>679.40002441406</ele>
        <time>2026-09-02T13:57:49.000Z</time>
      </trkpt>
      <trkpt lat="48.14339" lon="6.86376">
        <ele>679.59997558594</ele>
        <time>2026-09-02T13:57:50.000Z</time>
      </trkpt>
      <trkpt lat="48.14339" lon="6.86377">
        <ele>679.59997558594</ele>
        <time>2026-09-02T13:57:51.000Z</time>
      </trkpt>
      <trkpt lat="48.1434" lon="6.86378">
        <ele>679.59997558594</ele>
        <time>2026-09-02T13:57:52.000Z</time>
      </trkpt>
      <trkpt lat="48.14341" lon="6.86379">
        <ele>679.59997558594</ele>
        <time>2026-09-02T13:57:53.000Z</time>
      </trkpt>
      <trkpt lat="48.14342" lon="6.8638">
        <ele>679.59997558594</ele>
        <time>2026-09-02T13:57:54.000Z</time>
      </trkpt>
      <trkpt lat="48.14342" lon="6.86381">
        <ele>679.59997558594</ele>
        <time>2026-09-02T13:57:55.000Z</time>
      </trkpt>
      <trkpt lat="48.14343" lon="6.86382">
        <ele>679.80004882812</ele>
        <time>2026-09-02T13:57:56.000Z</time>
      </trkpt>
      <trkpt lat="48.14343" lon="6.86383">
        <ele>679.80004882812</ele>
        <time>2026-09-02T13:57:57.000Z</time>
      </trkpt>
      <trkpt lat="48.14344" lon="6.86384">
        <ele>679.80004882812</ele>
        <time>2026-09-02T13:57:58.000Z</time>
      </trkpt>
      <trkpt lat="48.14344" lon="6.86385">
        <ele>679.80004882812</ele>
        <time>2026-09-02T13:57:59.000Z</time>
      </trkpt>
      <trkpt lat="48.14345" lon="6.86386">
        <ele>679.80004882812</ele>
        <time>2026-09-02T13:58:00.000Z</time>
      </trkpt>
      <trkpt lat="48.14346" lon="6.86387">
        <ele>680</ele>
        <time>2026-09-02T13:58:01.000Z</time>
      </trkpt>
      <trkpt lat="48.14347" lon="6.86389">
        <ele>680</ele>
        <time>2026-09-02T13:58:02.000Z</time>
      </trkpt>
      <trkpt lat="48.14347" lon="6.86389">
        <ele>680</ele>
        <time>2026-09-02T13:58:03.000Z</time>
      </trkpt>
      <trkpt lat="48.14347" lon="6.86391">
        <ele>680</ele>
        <time>2026-09-02T13:58:04.000Z</time>
      </trkpt>
      <trkpt lat="48.14348" lon="6.86393">
        <ele>680</ele>
        <time>2026-09-02T13:58:05.000Z</time>
      </trkpt>
      <trkpt lat="48.14349" lon="6.86394">
        <ele>680</ele>
        <time>2026-09-02T13:58:06.000Z</time>
      </trkpt>
      <trkpt lat="48.14349" lon="6.86395">
        <ele>680</ele>
        <time>2026-09-02T13:58:07.000Z</time>
      </trkpt>
      <trkpt lat="48.1435" lon="6.86396">
        <ele>680</ele>
        <time>2026-09-02T13:58:08.000Z</time>
      </trkpt>
      <trkpt lat="48.1435" lon="6.86397">
        <ele>680.19995117188</ele>
        <time>2026-09-02T13:58:09.000Z</time>
      </trkpt>
      <trkpt lat="48.14351" lon="6.86399">
        <ele>680.40002441406</ele>
        <time>2026-09-02T13:58:10.000Z</time>
      </trkpt>
      <trkpt lat="48.14352" lon="6.864">
        <ele>680.59997558594</ele>
        <time>2026-09-02T13:58:11.000Z</time>
      </trkpt>
      <trkpt lat="48.14352" lon="6.86401">
        <ele>680.80004882812</ele>
        <time>2026-09-02T13:58:12.000Z</time>
      </trkpt>
      <trkpt lat="48.14352" lon="6.86402">
        <ele>680.80004882812</ele>
        <time>2026-09-02T13:58:13.000Z</time>
      </trkpt>
      <trkpt lat="48.14353" lon="6.86404">
        <ele>680.80004882812</ele>
        <time>2026-09-02T13:58:14.000Z</time>
      </trkpt>
      <trkpt lat="48.14352" lon="6.86406">
        <ele>680.80004882812</ele>
        <time>2026-09-02T13:58:15.000Z</time>
      </trkpt>
      <trkpt lat="48.14352" lon="6.86408">
        <ele>680.80004882812</ele>
        <time>2026-09-02T13:58:16.000Z</time>
      </trkpt>
      <trkpt lat="48.14351" lon="6.86409">
        <ele>680.80004882812</ele>
        <time>2026-09-02T13:58:17.000Z</time>
      </trkpt>
      <trkpt lat="48.1435" lon="6.86409">
        <ele>680.80004882812</ele>
        <time>2026-09-02T13:58:18.000Z</time>
      </trkpt>
      <trkpt lat="48.14349" lon="6.8641">
        <ele>681</ele>
        <time>2026-09-02T13:58:19.000Z</time>
      </trkpt>
      <trkpt lat="48.14348" lon="6.8641">
        <ele>681</ele>
        <time>2026-09-02T13:58:20.000Z</time>
      </trkpt>
      <trkpt lat="48.14347" lon="6.8641">
        <ele>681.19995117188</ele>
        <time>2026-09-02T13:58:21.000Z</time>
      </trkpt>
      <trkpt lat="48.14346" lon="6.8641">
        <ele>681.40002441406</ele>
        <time>2026-09-02T13:58:22.000Z</time>
      </trkpt>
      <trkpt lat="48.14345" lon="6.8641">
        <ele>681.40002441406</ele>
        <time>2026-09-02T13:58:23.000Z</time>
      </trkpt>
      <trkpt lat="48.14344" lon="6.86409">
        <ele>681.40002441406</ele>
        <time>2026-09-02T13:58:24.000Z</time>
      </trkpt>
      <trkpt lat="48.14343" lon="6.86409">
        <ele>681.40002441406</ele>
        <time>2026-09-02T13:58:25.000Z</time>
      </trkpt>
      <trkpt lat="48.14342" lon="6.86408">
        <ele>681.40002441406</ele>
        <time>2026-09-02T13:58:26.000Z</time>
      </trkpt>
      <trkpt lat="48.14341" lon="6.86408">
        <ele>681.40002441406</ele>
        <time>2026-09-02T13:58:27.000Z</time>
      </trkpt>
      <trkpt lat="48.1434" lon="6.86408">
        <ele>681.59997558594</ele>
        <time>2026-09-02T13:58:28.000Z</time>
      </trkpt>
      <trkpt lat="48.14339" lon="6.86407">
        <ele>681.59997558594</ele>
        <time>2026-09-02T13:58:29.000Z</time>
      </trkpt>
      <trkpt lat="48.14339" lon="6.86406">
        <ele>681.59997558594</ele>
        <time>2026-09-02T13:58:30.000Z</time>
      </trkpt>
      <trkpt lat="48.14338" lon="6.86405">
        <ele>681.80004882812</ele>
        <time>2026-09-02T13:58:31.000Z</time>
      </trkpt>
      <trkpt lat="48.14337" lon="6.86405">
        <ele>682</ele>
        <time>2026-09-02T13:58:32.000Z</time>
      </trkpt>
      <trkpt lat="48.14336" lon="6.86404">
        <ele>682</ele>
        <time>2026-09-02T13:58:33.000Z</time>
      </trkpt>
      <trkpt lat="48.14336" lon="6.86404">
        <ele>682.19995117188</ele>
        <time>2026-09-02T13:58:34.000Z</time>
      </trkpt>
      <trkpt lat="48.14335" lon="6.86403">
        <ele>682.40002441406</ele>
        <time>2026-09-02T13:58:35.000Z</time>
      </trkpt>
      <trkpt lat="48.14334" lon="6.86402">
        <ele>682.40002441406</ele>
        <time>2026-09-02T13:58:36.000Z</time>
      </trkpt>
      <trkpt lat="48.14333" lon="6.86402">
        <ele>682.40002441406</ele>
        <time>2026-09-02T13:58:37.000Z</time>
      </trkpt>
      <trkpt lat="48.14332" lon="6.86402">
        <ele>682.59997558594</ele>
        <time>2026-09-02T13:58:38.000Z</time>
      </trkpt>
      <trkpt lat="48.14331" lon="6.86401">
        <ele>682.59997558594</ele>
        <time>2026-09-02T13:58:39.000Z</time>
      </trkpt>
      <trkpt lat="48.1433" lon="6.86401">
        <ele>682.80004882812</ele>
        <time>2026-09-02T13:58:40.000Z</time>
      </trkpt>
      <trkpt lat="48.1433" lon="6.86401">
        <ele>682.80004882812</ele>
        <time>2026-09-02T13:58:41.000Z</time>
      </trkpt>
      <trkpt lat="48.14329" lon="6.864">
        <ele>683</ele>
        <time>2026-09-02T13:58:42.000Z</time>
      </trkpt>
      <trkpt lat="48.14327" lon="6.86399">
        <ele>683</ele>
        <time>2026-09-02T13:58:43.000Z</time>
      </trkpt>
      <trkpt lat="48.14327" lon="6.86398">
        <ele>683</ele>
        <time>2026-09-02T13:58:44.000Z</time>
      </trkpt>
      <trkpt lat="48.14326" lon="6.86398">
        <ele>682.80004882812</ele>
        <time>2026-09-02T13:58:45.000Z</time>
      </trkpt>
      <trkpt lat="48.14325" lon="6.86397">
        <ele>682.80004882812</ele>
        <time>2026-09-02T13:58:46.000Z</time>
      </trkpt>
      <trkpt lat="48.14325" lon="6.86397">
        <ele>682.59997558594</ele>
        <time>2026-09-02T13:58:47.000Z</time>
      </trkpt>
      <trkpt lat="48.14324" lon="6.86397">
        <ele>682.59997558594</ele>
        <time>2026-09-02T13:58:48.000Z</time>
      </trkpt>
      <trkpt lat="48.14323" lon="6.86397">
        <ele>682.59997558594</ele>
        <time>2026-09-02T13:58:49.000Z</time>
      </trkpt>
      <trkpt lat="48.14322" lon="6.86396">
        <ele>682.59997558594</ele>
        <time>2026-09-02T13:58:50.000Z</time>
      </trkpt>
      <trkpt lat="48.14322" lon="6.86396">
        <ele>682.80004882812</ele>
        <time>2026-09-02T13:58:51.000Z</time>
      </trkpt>
      <trkpt lat="48.14321" lon="6.86395">
        <ele>682.80004882812</ele>
        <time>2026-09-02T13:58:52.000Z</time>
      </trkpt>
      <trkpt lat="48.1432" lon="6.86394">
        <ele>682.80004882812</ele>
        <time>2026-09-02T13:58:53.000Z</time>
      </trkpt>
      <trkpt lat="48.1432" lon="6.86394">
        <ele>683</ele>
        <time>2026-09-02T13:58:54.000Z</time>
      </trkpt>
      <trkpt lat="48.14319" lon="6.86394">
        <ele>682.80004882812</ele>
        <time>2026-09-02T13:58:55.000Z</time>
      </trkpt>
      <trkpt lat="48.14318" lon="6.86393">
        <ele>683</ele>
        <time>2026-09-02T13:58:56.000Z</time>
      </trkpt>
      <trkpt lat="48.14317" lon="6.86393">
        <ele>683</ele>
        <time>2026-09-02T13:58:57.000Z</time>
      </trkpt>
      <trkpt lat="48.14317" lon="6.86392">
        <ele>683.19995117188</ele>
        <time>2026-09-02T13:58:58.000Z</time>
      </trkpt>
      <trkpt lat="48.14316" lon="6.86392">
        <ele>683.40002441406</ele>
        <time>2026-09-02T13:58:59.000Z</time>
      </trkpt>
      <trkpt lat="48.14315" lon="6.86391">
        <ele>683.40002441406</ele>
        <time>2026-09-02T13:59:00.000Z</time>
      </trkpt>
      <trkpt lat="48.14314" lon="6.86391">
        <ele>683.59997558594</ele>
        <time>2026-09-02T13:59:01.000Z</time>
      </trkpt>
      <trkpt lat="48.14314" lon="6.86391">
        <ele>683.59997558594</ele>
        <time>2026-09-02T13:59:02.000Z</time>
      </trkpt>
      <trkpt lat="48.14313" lon="6.86391">
        <ele>683.59997558594</ele>
        <time>2026-09-02T13:59:03.000Z</time>
      </trkpt>
      <trkpt lat="48.14312" lon="6.8639">
        <ele>683.59997558594</ele>
        <time>2026-09-02T13:59:04.000Z</time>
      </trkpt>
      <trkpt lat="48.14311" lon="6.86389">
        <ele>683.80004882812</ele>
        <time>2026-09-02T13:59:05.000Z</time>
      </trkpt>
      <trkpt lat="48.14311" lon="6.86389">
        <ele>684</ele>
        <time>2026-09-02T13:59:06.000Z</time>
      </trkpt>
      <trkpt lat="48.1431" lon="6.86388">
        <ele>684.19995117188</ele>
        <time>2026-09-02T13:59:07.000Z</time>
      </trkpt>
      <trkpt lat="48.14309" lon="6.86388">
        <ele>684.40002441406</ele>
        <time>2026-09-02T13:59:08.000Z</time>
      </trkpt>
      <trkpt lat="48.14308" lon="6.86387">
        <ele>684.40002441406</ele>
        <time>2026-09-02T13:59:09.000Z</time>
      </trkpt>
      <trkpt lat="48.14307" lon="6.86387">
        <ele>684.59997558594</ele>
        <time>2026-09-02T13:59:10.000Z</time>
      </trkpt>
      <trkpt lat="48.14306" lon="6.86386">
        <ele>684.59997558594</ele>
        <time>2026-09-02T13:59:11.000Z</time>
      </trkpt>
      <trkpt lat="48.14305" lon="6.86386">
        <ele>684.59997558594</ele>
        <time>2026-09-02T13:59:12.000Z</time>
      </trkpt>
      <trkpt lat="48.14304" lon="6.86386">
        <ele>684.59997558594</ele>
        <time>2026-09-02T13:59:13.000Z</time>
      </trkpt>
      <trkpt lat="48.14303" lon="6.86386">
        <ele>684.59997558594</ele>
        <time>2026-09-02T13:59:14.000Z</time>
      </trkpt>
      <trkpt lat="48.14302" lon="6.86385">
        <ele>684.59997558594</ele>
        <time>2026-09-02T13:59:15.000Z</time>
      </trkpt>
      <trkpt lat="48.14301" lon="6.86384">
        <ele>684.59997558594</ele>
        <time>2026-09-02T13:59:16.000Z</time>
      </trkpt>
      <trkpt lat="48.143" lon="6.86384">
        <ele>684.80004882812</ele>
        <time>2026-09-02T13:59:17.000Z</time>
      </trkpt>
      <trkpt lat="48.14299" lon="6.86383">
        <ele>684.80004882812</ele>
        <time>2026-09-02T13:59:18.000Z</time>
      </trkpt>
      <trkpt lat="48.14298" lon="6.86382">
        <ele>684.80004882812</ele>
        <time>2026-09-02T13:59:19.000Z</time>
      </trkpt>
      <trkpt lat="48.14297" lon="6.86382">
        <ele>685</ele>
        <time>2026-09-02T13:59:20.000Z</time>
      </trkpt>
      <trkpt lat="48.14296" lon="6.86381">
        <ele>685</ele>
        <time>2026-09-02T13:59:21.000Z</time>
      </trkpt>
      <trkpt lat="48.14295" lon="6.86381">
        <ele>685.19995117188</ele>
        <time>2026-09-02T13:59:22.000Z</time>
      </trkpt>
      <trkpt lat="48.14294" lon="6.8638">
        <ele>685.19995117188</ele>
        <time>2026-09-02T13:59:23.000Z</time>
      </trkpt>
      <trkpt lat="48.14294" lon="6.8638">
        <ele>685.19995117188</ele>
        <time>2026-09-02T13:59:24.000Z</time>
      </trkpt>
      <trkpt lat="48.14293" lon="6.86379">
        <ele>685.19995117188</ele>
        <time>2026-09-02T13:59:25.000Z</time>
      </trkpt>
      <trkpt lat="48.14292" lon="6.86378">
        <ele>685.19995117188</ele>
        <time>2026-09-02T13:59:26.000Z</time>
      </trkpt>
      <trkpt lat="48.14291" lon="6.86378">
        <ele>685.19995117188</ele>
        <time>2026-09-02T13:59:27.000Z</time>
      </trkpt>
      <trkpt lat="48.1429" lon="6.86377">
        <ele>685.40002441406</ele>
        <time>2026-09-02T13:59:28.000Z</time>
      </trkpt>
      <trkpt lat="48.14289" lon="6.86377">
        <ele>685.59997558594</ele>
        <time>2026-09-02T13:59:29.000Z</time>
      </trkpt>
      <trkpt lat="48.14288" lon="6.86376">
        <ele>685.59997558594</ele>
        <time>2026-09-02T13:59:30.000Z</time>
      </trkpt>
      <trkpt lat="48.14287" lon="6.86376">
        <ele>685.59997558594</ele>
        <time>2026-09-02T13:59:31.000Z</time>
      </trkpt>
      <trkpt lat="48.14286" lon="6.86375">
        <ele>685.80004882812</ele>
        <time>2026-09-02T13:59:32.000Z</time>
      </trkpt>
      <trkpt lat="48.14285" lon="6.86376">
        <ele>685.80004882812</ele>
        <time>2026-09-02T13:59:33.000Z</time>
      </trkpt>
      <trkpt lat="48.14284" lon="6.86376">
        <ele>685.80004882812</ele>
        <time>2026-09-02T13:59:34.000Z</time>
      </trkpt>
      <trkpt lat="48.14283" lon="6.86375">
        <ele>685.80004882812</ele>
        <time>2026-09-02T13:59:35.000Z</time>
      </trkpt>
      <trkpt lat="48.14282" lon="6.86375">
        <ele>685.80004882812</ele>
        <time>2026-09-02T13:59:36.000Z</time>
      </trkpt>
      <trkpt lat="48.14281" lon="6.86375">
        <ele>686</ele>
        <time>2026-09-02T13:59:37.000Z</time>
      </trkpt>
      <trkpt lat="48.1428" lon="6.86374">
        <ele>686.19995117188</ele>
        <time>2026-09-02T13:59:38.000Z</time>
      </trkpt>
      <trkpt lat="48.14279" lon="6.86374">
        <ele>686.19995117188</ele>
        <time>2026-09-02T13:59:39.000Z</time>
      </trkpt>
      <trkpt lat="48.14278" lon="6.86374">
        <ele>686.19995117188</ele>
        <time>2026-09-02T13:59:40.000Z</time>
      </trkpt>
      <trkpt lat="48.14278" lon="6.86374">
        <ele>686.19995117188</ele>
        <time>2026-09-02T13:59:41.000Z</time>
      </trkpt>
      <trkpt lat="48.14276" lon="6.86373">
        <ele>686.19995117188</ele>
        <time>2026-09-02T13:59:42.000Z</time>
      </trkpt>
      <trkpt lat="48.14275" lon="6.86374">
        <ele>686.40002441406</ele>
        <time>2026-09-02T13:59:43.000Z</time>
      </trkpt>
      <trkpt lat="48.14274" lon="6.86373">
        <ele>686.40002441406</ele>
        <time>2026-09-02T13:59:44.000Z</time>
      </trkpt>
      <trkpt lat="48.14273" lon="6.86373">
        <ele>686.40002441406</ele>
        <time>2026-09-02T13:59:45.000Z</time>
      </trkpt>
      <trkpt lat="48.14272" lon="6.86373">
        <ele>686.59997558594</ele>
        <time>2026-09-02T13:59:46.000Z</time>
      </trkpt>
      <trkpt lat="48.14271" lon="6.86373">
        <ele>686.80004882812</ele>
        <time>2026-09-02T13:59:47.000Z</time>
      </trkpt>
      <trkpt lat="48.1427" lon="6.86373">
        <ele>686.80004882812</ele>
        <time>2026-09-02T13:59:48.000Z</time>
      </trkpt>
      <trkpt lat="48.1427" lon="6.86372">
        <ele>686.80004882812</ele>
        <time>2026-09-02T13:59:49.000Z</time>
      </trkpt>
      <trkpt lat="48.14269" lon="6.86372">
        <ele>686.80004882812</ele>
        <time>2026-09-02T13:59:50.000Z</time>
      </trkpt>
      <trkpt lat="48.14268" lon="6.86372">
        <ele>686.80004882812</ele>
        <time>2026-09-02T13:59:51.000Z</time>
      </trkpt>
      <trkpt lat="48.14267" lon="6.86372">
        <ele>686.80004882812</ele>
        <time>2026-09-02T13:59:52.000Z</time>
      </trkpt>
      <trkpt lat="48.14266" lon="6.86372">
        <ele>686.80004882812</ele>
        <time>2026-09-02T13:59:53.000Z</time>
      </trkpt>
      <trkpt lat="48.14265" lon="6.86372">
        <ele>686.59997558594</ele>
        <time>2026-09-02T13:59:54.000Z</time>
      </trkpt>
      <trkpt lat="48.14264" lon="6.86372">
        <ele>686.59997558594</ele>
        <time>2026-09-02T13:59:55.000Z</time>
      </trkpt>
      <trkpt lat="48.14263" lon="6.86371">
        <ele>686.59997558594</ele>
        <time>2026-09-02T13:59:56.000Z</time>
      </trkpt>
      <trkpt lat="48.14262" lon="6.86371">
        <ele>686.59997558594</ele>
        <time>2026-09-02T13:59:57.000Z</time>
      </trkpt>
      <trkpt lat="48.1426" lon="6.86371">
        <ele>686.59997558594</ele>
        <time>2026-09-02T13:59:58.000Z</time>
      </trkpt>
      <trkpt lat="48.14259" lon="6.86371">
        <ele>686.80004882812</ele>
        <time>2026-09-02T13:59:59.000Z</time>
      </trkpt>
      <trkpt lat="48.14258" lon="6.86371">
        <ele>686.80004882812</ele>
        <time>2026-09-02T14:00:00.000Z</time>
      </trkpt>
      <trkpt lat="48.14257" lon="6.86371">
        <ele>686.80004882812</ele>
        <time>2026-09-02T14:00:01.000Z</time>
      </trkpt>
      <trkpt lat="48.14256" lon="6.86371">
        <ele>686.59997558594</ele>
        <time>2026-09-02T14:00:02.000Z</time>
      </trkpt>
      <trkpt lat="48.14255" lon="6.86372">
        <ele>686.59997558594</ele>
        <time>2026-09-02T14:00:03.000Z</time>
      </trkpt>
      <trkpt lat="48.14254" lon="6.86371">
        <ele>686.59997558594</ele>
        <time>2026-09-02T14:00:04.000Z</time>
      </trkpt>
      <trkpt lat="48.14253" lon="6.86371">
        <ele>686.59997558594</ele>
        <time>2026-09-02T14:00:05.000Z</time>
      </trkpt>
      <trkpt lat="48.14252" lon="6.86372">
        <ele>686.59997558594</ele>
        <time>2026-09-02T14:00:06.000Z</time>
      </trkpt>
      <trkpt lat="48.14251" lon="6.86372">
        <ele>686.59997558594</ele>
        <time>2026-09-02T14:00:07.000Z</time>
      </trkpt>
      <trkpt lat="48.14249" lon="6.86372">
        <ele>686.59997558594</ele>
        <time>2026-09-02T14:00:08.000Z</time>
      </trkpt>
      <trkpt lat="48.14249" lon="6.86372">
        <ele>686.59997558594</ele>
        <time>2026-09-02T14:00:09.000Z</time>
      </trkpt>
      <trkpt lat="48.14247" lon="6.86372">
        <ele>686.80004882812</ele>
        <time>2026-09-02T14:00:10.000Z</time>
      </trkpt>
      <trkpt lat="48.14246" lon="6.86372">
        <ele>686.80004882812</ele>
        <time>2026-09-02T14:00:11.000Z</time>
      </trkpt>
      <trkpt lat="48.14245" lon="6.86372">
        <ele>687</ele>
        <time>2026-09-02T14:00:12.000Z</time>
      </trkpt>
      <trkpt lat="48.14244" lon="6.86372">
        <ele>687</ele>
        <time>2026-09-02T14:00:13.000Z</time>
      </trkpt>
      <trkpt lat="48.14243" lon="6.86372">
        <ele>687.19995117188</ele>
        <time>2026-09-02T14:00:14.000Z</time>
      </trkpt>
      <trkpt lat="48.14242" lon="6.86373">
        <ele>687.19995117188</ele>
        <time>2026-09-02T14:00:15.000Z</time>
      </trkpt>
      <trkpt lat="48.14241" lon="6.86373">
        <ele>687</ele>
        <time>2026-09-02T14:00:16.000Z</time>
      </trkpt>
      <trkpt lat="48.1424" lon="6.86373">
        <ele>687</ele>
        <time>2026-09-02T14:00:17.000Z</time>
      </trkpt>
      <trkpt lat="48.14239" lon="6.86373">
        <ele>687</ele>
        <time>2026-09-02T14:00:18.000Z</time>
      </trkpt>
      <trkpt lat="48.14238" lon="6.86373">
        <ele>687</ele>
        <time>2026-09-02T14:00:19.000Z</time>
      </trkpt>
      <trkpt lat="48.14237" lon="6.86374">
        <ele>687.19995117188</ele>
        <time>2026-09-02T14:00:20.000Z</time>
      </trkpt>
      <trkpt lat="48.14236" lon="6.86373">
        <ele>687.19995117188</ele>
        <time>2026-09-02T14:00:21.000Z</time>
      </trkpt>
      <trkpt lat="48.14235" lon="6.86372">
        <ele>687.19995117188</ele>
        <time>2026-09-02T14:00:22.000Z</time>
      </trkpt>
      <trkpt lat="48.14234" lon="6.86373">
        <ele>687</ele>
        <time>2026-09-02T14:00:23.000Z</time>
      </trkpt>
      <trkpt lat="48.14233" lon="6.86373">
        <ele>686.80004882812</ele>
        <time>2026-09-02T14:00:24.000Z</time>
      </trkpt>
      <trkpt lat="48.14232" lon="6.86373">
        <ele>686.59997558594</ele>
        <time>2026-09-02T14:00:25.000Z</time>
      </trkpt>
      <trkpt lat="48.14231" lon="6.86374">
        <ele>686.59997558594</ele>
        <time>2026-09-02T14:00:26.000Z</time>
      </trkpt>
      <trkpt lat="48.1423" lon="6.86375">
        <ele>686.59997558594</ele>
        <time>2026-09-02T14:00:27.000Z</time>
      </trkpt>
      <trkpt lat="48.14229" lon="6.86375">
        <ele>686.80004882812</ele>
        <time>2026-09-02T14:00:28.000Z</time>
      </trkpt>
      <trkpt lat="48.14228" lon="6.86375">
        <ele>687</ele>
        <time>2026-09-02T14:00:29.000Z</time>
      </trkpt>
      <trkpt lat="48.14227" lon="6.86375">
        <ele>687.19995117188</ele>
        <time>2026-09-02T14:00:30.000Z</time>
      </trkpt>
      <trkpt lat="48.14226" lon="6.86376">
        <ele>687.59997558594</ele>
        <time>2026-09-02T14:00:31.000Z</time>
      </trkpt>
      <trkpt lat="48.14226" lon="6.86377">
        <ele>687.80004882812</ele>
        <time>2026-09-02T14:00:32.000Z</time>
      </trkpt>
      <trkpt lat="48.14225" lon="6.86378">
        <ele>687.80004882812</ele>
        <time>2026-09-02T14:00:33.000Z</time>
      </trkpt>
      <trkpt lat="48.14225" lon="6.86379">
        <ele>687.80004882812</ele>
        <time>2026-09-02T14:00:34.000Z</time>
      </trkpt>
      <trkpt lat="48.14224" lon="6.8638">
        <ele>687.80004882812</ele>
        <time>2026-09-02T14:00:35.000Z</time>
      </trkpt>
      <trkpt lat="48.14223" lon="6.8638">
        <ele>687.59997558594</ele>
        <time>2026-09-02T14:00:36.000Z</time>
      </trkpt>
      <trkpt lat="48.14222" lon="6.8638">
        <ele>687.59997558594</ele>
        <time>2026-09-02T14:00:37.000Z</time>
      </trkpt>
      <trkpt lat="48.14221" lon="6.86381">
        <ele>687.59997558594</ele>
        <time>2026-09-02T14:00:38.000Z</time>
      </trkpt>
      <trkpt lat="48.1422" lon="6.86382">
        <ele>687.40002441406</ele>
        <time>2026-09-02T14:00:39.000Z</time>
      </trkpt>
      <trkpt lat="48.14219" lon="6.86382">
        <ele>687.40002441406</ele>
        <time>2026-09-02T14:00:40.000Z</time>
      </trkpt>
      <trkpt lat="48.14218" lon="6.86382">
        <ele>687.40002441406</ele>
        <time>2026-09-02T14:00:41.000Z</time>
      </trkpt>
      <trkpt lat="48.14218" lon="6.86383">
        <ele>687.40002441406</ele>
        <time>2026-09-02T14:00:42.000Z</time>
      </trkpt>
      <trkpt lat="48.14217" lon="6.86384">
        <ele>687.40002441406</ele>
        <time>2026-09-02T14:00:43.000Z</time>
      </trkpt>
      <trkpt lat="48.14216" lon="6.86385">
        <ele>687.59997558594</ele>
        <time>2026-09-02T14:00:44.000Z</time>
      </trkpt>
      <trkpt lat="48.14215" lon="6.86386">
        <ele>687.59997558594</ele>
        <time>2026-09-02T14:00:45.000Z</time>
      </trkpt>
      <trkpt lat="48.14214" lon="6.86386">
        <ele>687.80004882812</ele>
        <time>2026-09-02T14:00:46.000Z</time>
      </trkpt>
      <trkpt lat="48.14213" lon="6.86387">
        <ele>687.80004882812</ele>
        <time>2026-09-02T14:00:47.000Z</time>
      </trkpt>
      <trkpt lat="48.14211" lon="6.86387">
        <ele>687.80004882812</ele>
        <time>2026-09-02T14:00:48.000Z</time>
      </trkpt>
      <trkpt lat="48.1421" lon="6.86387">
        <ele>687.80004882812</ele>
        <time>2026-09-02T14:00:49.000Z</time>
      </trkpt>
      <trkpt lat="48.1421" lon="6.86388">
        <ele>687.80004882812</ele>
        <time>2026-09-02T14:00:50.000Z</time>
      </trkpt>
      <trkpt lat="48.14209" lon="6.8639">
        <ele>687.80004882812</ele>
        <time>2026-09-02T14:00:51.000Z</time>
      </trkpt>
      <trkpt lat="48.14209" lon="6.8639">
        <ele>687.80004882812</ele>
        <time>2026-09-02T14:00:52.000Z</time>
      </trkpt>
      <trkpt lat="48.14208" lon="6.86391">
        <ele>687.80004882812</ele>
        <time>2026-09-02T14:00:53.000Z</time>
      </trkpt>
      <trkpt lat="48.14207" lon="6.86392">
        <ele>688</ele>
        <time>2026-09-02T14:00:54.000Z</time>
      </trkpt>
      <trkpt lat="48.14206" lon="6.86392">
        <ele>688</ele>
        <time>2026-09-02T14:00:55.000Z</time>
      </trkpt>
      <trkpt lat="48.14205" lon="6.86393">
        <ele>688</ele>
        <time>2026-09-02T14:00:56.000Z</time>
      </trkpt>
      <trkpt lat="48.14204" lon="6.86393">
        <ele>688</ele>
        <time>2026-09-02T14:00:57.000Z</time>
      </trkpt>
      <trkpt lat="48.14204" lon="6.86394">
        <ele>688</ele>
        <time>2026-09-02T14:00:58.000Z</time>
      </trkpt>
      <trkpt lat="48.14203" lon="6.86395">
        <ele>688</ele>
        <time>2026-09-02T14:00:59.000Z</time>
      </trkpt>
      <trkpt lat="48.14202" lon="6.86396">
        <ele>688</ele>
        <time>2026-09-02T14:01:00.000Z</time>
      </trkpt>
      <trkpt lat="48.14201" lon="6.86397">
        <ele>688</ele>
        <time>2026-09-02T14:01:01.000Z</time>
      </trkpt>
      <trkpt lat="48.142" lon="6.86398">
        <ele>688</ele>
        <time>2026-09-02T14:01:02.000Z</time>
      </trkpt>
      <trkpt lat="48.14199" lon="6.86399">
        <ele>688</ele>
        <time>2026-09-02T14:01:03.000Z</time>
      </trkpt>
      <trkpt lat="48.14199" lon="6.86401">
        <ele>688</ele>
        <time>2026-09-02T14:01:04.000Z</time>
      </trkpt>
      <trkpt lat="48.14198" lon="6.86401">
        <ele>688</ele>
        <time>2026-09-02T14:01:05.000Z</time>
      </trkpt>
      <trkpt lat="48.14197" lon="6.86401">
        <ele>688</ele>
        <time>2026-09-02T14:01:06.000Z</time>
      </trkpt>
      <trkpt lat="48.14196" lon="6.86402">
        <ele>688</ele>
        <time>2026-09-02T14:01:07.000Z</time>
      </trkpt>
      <trkpt lat="48.14196" lon="6.86403">
        <ele>688</ele>
        <time>2026-09-02T14:01:08.000Z</time>
      </trkpt>
      <trkpt lat="48.14194" lon="6.86404">
        <ele>688</ele>
        <time>2026-09-02T14:01:09.000Z</time>
      </trkpt>
      <trkpt lat="48.14193" lon="6.86405">
        <ele>687.80004882812</ele>
        <time>2026-09-02T14:01:10.000Z</time>
      </trkpt>
      <trkpt lat="48.14192" lon="6.86406">
        <ele>687.59997558594</ele>
        <time>2026-09-02T14:01:11.000Z</time>
      </trkpt>
      <trkpt lat="48.14191" lon="6.86406">
        <ele>687.40002441406</ele>
        <time>2026-09-02T14:01:12.000Z</time>
      </trkpt>
      <trkpt lat="48.1419" lon="6.86407">
        <ele>687.19995117188</ele>
        <time>2026-09-02T14:01:13.000Z</time>
      </trkpt>
      <trkpt lat="48.14189" lon="6.86408">
        <ele>687.19995117188</ele>
        <time>2026-09-02T14:01:14.000Z</time>
      </trkpt>
      <trkpt lat="48.14189" lon="6.86409">
        <ele>687.40002441406</ele>
        <time>2026-09-02T14:01:15.000Z</time>
      </trkpt>
      <trkpt lat="48.14188" lon="6.8641">
        <ele>687.59997558594</ele>
        <time>2026-09-02T14:01:16.000Z</time>
      </trkpt>
      <trkpt lat="48.14188" lon="6.86411">
        <ele>687.80004882812</ele>
        <time>2026-09-02T14:01:17.000Z</time>
      </trkpt>
      <trkpt lat="48.14188" lon="6.86412">
        <ele>688</ele>
        <time>2026-09-02T14:01:18.000Z</time>
      </trkpt>
      <trkpt lat="48.14187" lon="6.86413">
        <ele>688</ele>
        <time>2026-09-02T14:01:19.000Z</time>
      </trkpt>
      <trkpt lat="48.14186" lon="6.86414">
        <ele>688</ele>
        <time>2026-09-02T14:01:20.000Z</time>
      </trkpt>
      <trkpt lat="48.14186" lon="6.86416">
        <ele>688</ele>
        <time>2026-09-02T14:01:21.000Z</time>
      </trkpt>
      <trkpt lat="48.14185" lon="6.86416">
        <ele>688</ele>
        <time>2026-09-02T14:01:22.000Z</time>
      </trkpt>
      <trkpt lat="48.14184" lon="6.86417">
        <ele>688.19995117188</ele>
        <time>2026-09-02T14:01:23.000Z</time>
      </trkpt>
      <trkpt lat="48.14182" lon="6.86417">
        <ele>688.19995117188</ele>
        <time>2026-09-02T14:01:24.000Z</time>
      </trkpt>
      <trkpt lat="48.14182" lon="6.86418">
        <ele>688.19995117188</ele>
        <time>2026-09-02T14:01:25.000Z</time>
      </trkpt>
      <trkpt lat="48.14181" lon="6.8642">
        <ele>688.19995117188</ele>
        <time>2026-09-02T14:01:26.000Z</time>
      </trkpt>
      <trkpt lat="48.1418" lon="6.86421">
        <ele>688.19995117188</ele>
        <time>2026-09-02T14:01:27.000Z</time>
      </trkpt>
      <trkpt lat="48.1418" lon="6.86422">
        <ele>688.19995117188</ele>
        <time>2026-09-02T14:01:28.000Z</time>
      </trkpt>
      <trkpt lat="48.14179" lon="6.86423">
        <ele>688.19995117188</ele>
        <time>2026-09-02T14:01:29.000Z</time>
      </trkpt>
      <trkpt lat="48.14178" lon="6.86423">
        <ele>688.19995117188</ele>
        <time>2026-09-02T14:01:30.000Z</time>
      </trkpt>
      <trkpt lat="48.14177" lon="6.86424">
        <ele>688.19995117188</ele>
        <time>2026-09-02T14:01:31.000Z</time>
      </trkpt>
      <trkpt lat="48.14176" lon="6.86425">
        <ele>688.40002441406</ele>
        <time>2026-09-02T14:01:32.000Z</time>
      </trkpt>
      <trkpt lat="48.14175" lon="6.86425">
        <ele>688.40002441406</ele>
        <time>2026-09-02T14:01:33.000Z</time>
      </trkpt>
      <trkpt lat="48.14175" lon="6.86426">
        <ele>688.40002441406</ele>
        <time>2026-09-02T14:01:34.000Z</time>
      </trkpt>
      <trkpt lat="48.14174" lon="6.86427">
        <ele>688.40002441406</ele>
        <time>2026-09-02T14:01:35.000Z</time>
      </trkpt>
      <trkpt lat="48.14173" lon="6.86427">
        <ele>688.40002441406</ele>
        <time>2026-09-02T14:01:36.000Z</time>
      </trkpt>
      <trkpt lat="48.14173" lon="6.86429">
        <ele>688.40002441406</ele>
        <time>2026-09-02T14:01:37.000Z</time>
      </trkpt>
      <trkpt lat="48.14172" lon="6.8643">
        <ele>688.59997558594</ele>
        <time>2026-09-02T14:01:38.000Z</time>
      </trkpt>
      <trkpt lat="48.14172" lon="6.86431">
        <ele>688.59997558594</ele>
        <time>2026-09-02T14:01:39.000Z</time>
      </trkpt>
      <trkpt lat="48.14171" lon="6.86432">
        <ele>688.59997558594</ele>
        <time>2026-09-02T14:01:40.000Z</time>
      </trkpt>
      <trkpt lat="48.1417" lon="6.86432">
        <ele>688.59997558594</ele>
        <time>2026-09-02T14:01:41.000Z</time>
      </trkpt>
      <trkpt lat="48.14169" lon="6.86433">
        <ele>688.59997558594</ele>
        <time>2026-09-02T14:01:42.000Z</time>
      </trkpt>
      <trkpt lat="48.14169" lon="6.86434">
        <ele>688.59997558594</ele>
        <time>2026-09-02T14:01:43.000Z</time>
      </trkpt>
      <trkpt lat="48.14168" lon="6.86435">
        <ele>688.59997558594</ele>
        <time>2026-09-02T14:01:44.000Z</time>
      </trkpt>
      <trkpt lat="48.14167" lon="6.86435">
        <ele>688.59997558594</ele>
        <time>2026-09-02T14:01:45.000Z</time>
      </trkpt>
      <trkpt lat="48.14166" lon="6.86436">
        <ele>688.59997558594</ele>
        <time>2026-09-02T14:01:46.000Z</time>
      </trkpt>
      <trkpt lat="48.14165" lon="6.86438">
        <ele>688.59997558594</ele>
        <time>2026-09-02T14:01:47.000Z</time>
      </trkpt>
      <trkpt lat="48.14164" lon="6.86439">
        <ele>688.59997558594</ele>
        <time>2026-09-02T14:01:48.000Z</time>
      </trkpt>
      <trkpt lat="48.14163" lon="6.8644">
        <ele>688.80004882812</ele>
        <time>2026-09-02T14:01:49.000Z</time>
      </trkpt>
      <trkpt lat="48.14162" lon="6.86441">
        <ele>688.80004882812</ele>
        <time>2026-09-02T14:01:50.000Z</time>
      </trkpt>
      <trkpt lat="48.14161" lon="6.86441">
        <ele>688.80004882812</ele>
        <time>2026-09-02T14:01:51.000Z</time>
      </trkpt>
      <trkpt lat="48.1416" lon="6.86442">
        <ele>688.80004882812</ele>
        <time>2026-09-02T14:01:52.000Z</time>
      </trkpt>
      <trkpt lat="48.14159" lon="6.86443">
        <ele>689</ele>
        <time>2026-09-02T14:01:53.000Z</time>
      </trkpt>
      <trkpt lat="48.14159" lon="6.86445">
        <ele>689</ele>
        <time>2026-09-02T14:01:54.000Z</time>
      </trkpt>
      <trkpt lat="48.14158" lon="6.86445">
        <ele>689</ele>
        <time>2026-09-02T14:01:55.000Z</time>
      </trkpt>
      <trkpt lat="48.14157" lon="6.86446">
        <ele>689</ele>
        <time>2026-09-02T14:01:56.000Z</time>
      </trkpt>
      <trkpt lat="48.14157" lon="6.86447">
        <ele>689</ele>
        <time>2026-09-02T14:01:57.000Z</time>
      </trkpt>
      <trkpt lat="48.14156" lon="6.86448">
        <ele>689</ele>
        <time>2026-09-02T14:01:58.000Z</time>
      </trkpt>
      <trkpt lat="48.14155" lon="6.86449">
        <ele>689</ele>
        <time>2026-09-02T14:01:59.000Z</time>
      </trkpt>
      <trkpt lat="48.14154" lon="6.86449">
        <ele>689</ele>
        <time>2026-09-02T14:02:00.000Z</time>
      </trkpt>
      <trkpt lat="48.14153" lon="6.8645">
        <ele>689.19995117188</ele>
        <time>2026-09-02T14:02:01.000Z</time>
      </trkpt>
      <trkpt lat="48.14152" lon="6.86451">
        <ele>689.19995117188</ele>
        <time>2026-09-02T14:02:02.000Z</time>
      </trkpt>
      <trkpt lat="48.14151" lon="6.86452">
        <ele>689.19995117188</ele>
        <time>2026-09-02T14:02:03.000Z</time>
      </trkpt>
      <trkpt lat="48.14151" lon="6.86453">
        <ele>689.40002441406</ele>
        <time>2026-09-02T14:02:04.000Z</time>
      </trkpt>
      <trkpt lat="48.1415" lon="6.86454">
        <ele>689.40002441406</ele>
        <time>2026-09-02T14:02:05.000Z</time>
      </trkpt>
      <trkpt lat="48.1415" lon="6.86454">
        <ele>689.40002441406</ele>
        <time>2026-09-02T14:02:06.000Z</time>
      </trkpt>
      <trkpt lat="48.14149" lon="6.86455">
        <ele>689.40002441406</ele>
        <time>2026-09-02T14:02:07.000Z</time>
      </trkpt>
      <trkpt lat="48.14149" lon="6.86456">
        <ele>689.40002441406</ele>
        <time>2026-09-02T14:02:08.000Z</time>
      </trkpt>
      <trkpt lat="48.14148" lon="6.86456">
        <ele>689.40002441406</ele>
        <time>2026-09-02T14:02:09.000Z</time>
      </trkpt>
      <trkpt lat="48.14147" lon="6.86457">
        <ele>689.40002441406</ele>
        <time>2026-09-02T14:02:10.000Z</time>
      </trkpt>
      <trkpt lat="48.14146" lon="6.86458">
        <ele>689.59997558594</ele>
        <time>2026-09-02T14:02:11.000Z</time>
      </trkpt>
      <trkpt lat="48.14145" lon="6.86458">
        <ele>689.59997558594</ele>
        <time>2026-09-02T14:02:12.000Z</time>
      </trkpt>
      <trkpt lat="48.14144" lon="6.86459">
        <ele>689.59997558594</ele>
        <time>2026-09-02T14:02:13.000Z</time>
      </trkpt>
      <trkpt lat="48.14143" lon="6.8646">
        <ele>689.59997558594</ele>
        <time>2026-09-02T14:02:14.000Z</time>
      </trkpt>
      <trkpt lat="48.14143" lon="6.8646">
        <ele>689.59997558594</ele>
        <time>2026-09-02T14:02:15.000Z</time>
      </trkpt>
      <trkpt lat="48.14142" lon="6.86461">
        <ele>689.59997558594</ele>
        <time>2026-09-02T14:02:16.000Z</time>
      </trkpt>
      <trkpt lat="48.14141" lon="6.86463">
        <ele>689.80004882812</ele>
        <time>2026-09-02T14:02:17.000Z</time>
      </trkpt>
      <trkpt lat="48.1414" lon="6.86463">
        <ele>689.80004882812</ele>
        <time>2026-09-02T14:02:18.000Z</time>
      </trkpt>
      <trkpt lat="48.14139" lon="6.86464">
        <ele>689.80004882812</ele>
        <time>2026-09-02T14:02:19.000Z</time>
      </trkpt>
      <trkpt lat="48.14138" lon="6.86465">
        <ele>689.80004882812</ele>
        <time>2026-09-02T14:02:20.000Z</time>
      </trkpt>
      <trkpt lat="48.14137" lon="6.86466">
        <ele>689.80004882812</ele>
        <time>2026-09-02T14:02:21.000Z</time>
      </trkpt>
      <trkpt lat="48.14136" lon="6.86467">
        <ele>689.80004882812</ele>
        <time>2026-09-02T14:02:22.000Z</time>
      </trkpt>
      <trkpt lat="48.14135" lon="6.86468">
        <ele>689.80004882812</ele>
        <time>2026-09-02T14:02:23.000Z</time>
      </trkpt>
      <trkpt lat="48.14135" lon="6.86469">
        <ele>689.80004882812</ele>
        <time>2026-09-02T14:02:24.000Z</time>
      </trkpt>
      <trkpt lat="48.14134" lon="6.86469">
        <ele>689.80004882812</ele>
        <time>2026-09-02T14:02:25.000Z</time>
      </trkpt>
      <trkpt lat="48.14133" lon="6.8647">
        <ele>690</ele>
        <time>2026-09-02T14:02:26.000Z</time>
      </trkpt>
      <trkpt lat="48.14132" lon="6.86472">
        <ele>690</ele>
        <time>2026-09-02T14:02:27.000Z</time>
      </trkpt>
      <trkpt lat="48.14132" lon="6.86473">
        <ele>690.19995117188</ele>
        <time>2026-09-02T14:02:28.000Z</time>
      </trkpt>
      <trkpt lat="48.14131" lon="6.86474">
        <ele>690.19995117188</ele>
        <time>2026-09-02T14:02:29.000Z</time>
      </trkpt>
      <trkpt lat="48.1413" lon="6.86474">
        <ele>690.19995117188</ele>
        <time>2026-09-02T14:02:30.000Z</time>
      </trkpt>
      <trkpt lat="48.14129" lon="6.86476">
        <ele>690.19995117188</ele>
        <time>2026-09-02T14:02:31.000Z</time>
      </trkpt>
      <trkpt lat="48.14128" lon="6.86477">
        <ele>690.19995117188</ele>
        <time>2026-09-02T14:02:32.000Z</time>
      </trkpt>
      <trkpt lat="48.14128" lon="6.86478">
        <ele>690.19995117188</ele>
        <time>2026-09-02T14:02:33.000Z</time>
      </trkpt>
      <trkpt lat="48.14127" lon="6.86478">
        <ele>690.40002441406</ele>
        <time>2026-09-02T14:02:34.000Z</time>
      </trkpt>
      <trkpt lat="48.14126" lon="6.86479">
        <ele>690.40002441406</ele>
        <time>2026-09-02T14:02:35.000Z</time>
      </trkpt>
      <trkpt lat="48.14125" lon="6.86479">
        <ele>690.40002441406</ele>
        <time>2026-09-02T14:02:36.000Z</time>
      </trkpt>
      <trkpt lat="48.14124" lon="6.8648">
        <ele>690.40002441406</ele>
        <time>2026-09-02T14:02:37.000Z</time>
      </trkpt>
      <trkpt lat="48.14123" lon="6.86481">
        <ele>690.40002441406</ele>
        <time>2026-09-02T14:02:38.000Z</time>
      </trkpt>
      <trkpt lat="48.14123" lon="6.86482">
        <ele>690.40002441406</ele>
        <time>2026-09-02T14:02:39.000Z</time>
      </trkpt>
      <trkpt lat="48.14122" lon="6.86482">
        <ele>690.40002441406</ele>
        <time>2026-09-02T14:02:40.000Z</time>
      </trkpt>
      <trkpt lat="48.14121" lon="6.86483">
        <ele>690.59997558594</ele>
        <time>2026-09-02T14:02:41.000Z</time>
      </trkpt>
      <trkpt lat="48.14121" lon="6.86484">
        <ele>690.59997558594</ele>
        <time>2026-09-02T14:02:42.000Z</time>
      </trkpt>
      <trkpt lat="48.1412" lon="6.86485">
        <ele>690.59997558594</ele>
        <time>2026-09-02T14:02:43.000Z</time>
      </trkpt>
      <trkpt lat="48.14119" lon="6.86486">
        <ele>690.59997558594</ele>
        <time>2026-09-02T14:02:44.000Z</time>
      </trkpt>
      <trkpt lat="48.14118" lon="6.86487">
        <ele>690.80004882812</ele>
        <time>2026-09-02T14:02:45.000Z</time>
      </trkpt>
      <trkpt lat="48.14118" lon="6.86488">
        <ele>690.80004882812</ele>
        <time>2026-09-02T14:02:46.000Z</time>
      </trkpt>
      <trkpt lat="48.14117" lon="6.86489">
        <ele>690.80004882812</ele>
        <time>2026-09-02T14:02:47.000Z</time>
      </trkpt>
      <trkpt lat="48.14117" lon="6.8649">
        <ele>690.80004882812</ele>
        <time>2026-09-02T14:02:48.000Z</time>
      </trkpt>
      <trkpt lat="48.14116" lon="6.8649">
        <ele>690.80004882812</ele>
        <time>2026-09-02T14:02:49.000Z</time>
      </trkpt>
      <trkpt lat="48.14115" lon="6.86491">
        <ele>690.80004882812</ele>
        <time>2026-09-02T14:02:50.000Z</time>
      </trkpt>
      <trkpt lat="48.14115" lon="6.86493">
        <ele>690.80004882812</ele>
        <time>2026-09-02T14:02:51.000Z</time>
      </trkpt>
      <trkpt lat="48.14114" lon="6.86493">
        <ele>691</ele>
        <time>2026-09-02T14:02:52.000Z</time>
      </trkpt>
      <trkpt lat="48.14113" lon="6.86494">
        <ele>691</ele>
        <time>2026-09-02T14:02:53.000Z</time>
      </trkpt>
      <trkpt lat="48.14113" lon="6.86494">
        <ele>691.19995117188</ele>
        <time>2026-09-02T14:02:54.000Z</time>
      </trkpt>
      <trkpt lat="48.14112" lon="6.86495">
        <ele>691.19995117188</ele>
        <time>2026-09-02T14:02:55.000Z</time>
      </trkpt>
      <trkpt lat="48.14111" lon="6.86496">
        <ele>691</ele>
        <time>2026-09-02T14:02:56.000Z</time>
      </trkpt>
      <trkpt lat="48.1411" lon="6.86497">
        <ele>691</ele>
        <time>2026-09-02T14:02:57.000Z</time>
      </trkpt>
      <trkpt lat="48.14109" lon="6.86498">
        <ele>690.80004882812</ele>
        <time>2026-09-02T14:02:58.000Z</time>
      </trkpt>
      <trkpt lat="48.14109" lon="6.86499">
        <ele>690.80004882812</ele>
        <time>2026-09-02T14:02:59.000Z</time>
      </trkpt>
      <trkpt lat="48.14108" lon="6.865">
        <ele>690.80004882812</ele>
        <time>2026-09-02T14:03:00.000Z</time>
      </trkpt>
      <trkpt lat="48.14108" lon="6.86501">
        <ele>691</ele>
        <time>2026-09-02T14:03:01.000Z</time>
      </trkpt>
      <trkpt lat="48.14107" lon="6.86501">
        <ele>691</ele>
        <time>2026-09-02T14:03:02.000Z</time>
      </trkpt>
      <trkpt lat="48.14107" lon="6.86502">
        <ele>691.19995117188</ele>
        <time>2026-09-02T14:03:03.000Z</time>
      </trkpt>
      <trkpt lat="48.14106" lon="6.86503">
        <ele>691.19995117188</ele>
        <time>2026-09-02T14:03:04.000Z</time>
      </trkpt>
      <trkpt lat="48.14105" lon="6.86504">
        <ele>691.19995117188</ele>
        <time>2026-09-02T14:03:05.000Z</time>
      </trkpt>
      <trkpt lat="48.14104" lon="6.86506">
        <ele>691.19995117188</ele>
        <time>2026-09-02T14:03:06.000Z</time>
      </trkpt>
      <trkpt lat="48.14103" lon="6.86507">
        <ele>691.19995117188</ele>
        <time>2026-09-02T14:03:07.000Z</time>
      </trkpt>
      <trkpt lat="48.14103" lon="6.86507">
        <ele>691.19995117188</ele>
        <time>2026-09-02T14:03:08.000Z</time>
      </trkpt>
      <trkpt lat="48.14102" lon="6.86507">
        <ele>691.19995117188</ele>
        <time>2026-09-02T14:03:09.000Z</time>
      </trkpt>
      <trkpt lat="48.14101" lon="6.86509">
        <ele>691.19995117188</ele>
        <time>2026-09-02T14:03:10.000Z</time>
      </trkpt>
      <trkpt lat="48.14101" lon="6.8651">
        <ele>691.40002441406</ele>
        <time>2026-09-02T14:03:11.000Z</time>
      </trkpt>
      <trkpt lat="48.141" lon="6.8651">
        <ele>691.40002441406</ele>
        <time>2026-09-02T14:03:12.000Z</time>
      </trkpt>
      <trkpt lat="48.141" lon="6.8651">
        <ele>691.40002441406</ele>
        <time>2026-09-02T14:03:13.000Z</time>
      </trkpt>
      <trkpt lat="48.141" lon="6.86509">
        <ele>691.40002441406</ele>
        <time>2026-09-02T14:03:14.000Z</time>
      </trkpt>
      <trkpt lat="48.14099" lon="6.86509">
        <ele>691.40002441406</ele>
        <time>2026-09-02T14:03:15.000Z</time>
      </trkpt>
      <trkpt lat="48.141" lon="6.86508">
        <ele>691.40002441406</ele>
        <time>2026-09-02T14:03:16.000Z</time>
      </trkpt>
      <trkpt lat="48.141" lon="6.86508">
        <ele>691.40002441406</ele>
        <time>2026-09-02T14:03:17.000Z</time>
      </trkpt>
      <trkpt lat="48.141" lon="6.86508">
        <ele>691.59997558594</ele>
        <time>2026-09-02T14:03:18.000Z</time>
      </trkpt>
      <trkpt lat="48.141" lon="6.86508">
        <ele>691.59997558594</ele>
        <time>2026-09-02T14:03:19.000Z</time>
      </trkpt>
      <trkpt lat="48.141" lon="6.86508">
        <ele>691.59997558594</ele>
        <time>2026-09-02T14:03:20.000Z</time>
      </trkpt>
      <trkpt lat="48.141" lon="6.86508">
        <ele>691.40002441406</ele>
        <time>2026-09-02T14:03:21.000Z</time>
      </trkpt>
      <trkpt lat="48.141" lon="6.86508">
        <ele>691.40002441406</ele>
        <time>2026-09-02T14:03:22.000Z</time>
      </trkpt>
      <trkpt lat="48.141" lon="6.86508">
        <ele>691.40002441406</ele>
        <time>2026-09-02T14:03:23.000Z</time>
      </trkpt>
      <trkpt lat="48.141" lon="6.86508">
        <ele>691.19995117188</ele>
        <time>2026-09-02T14:03:24.000Z</time>
      </trkpt>
      <trkpt lat="48.141" lon="6.86508">
        <ele>691.19995117188</ele>
        <time>2026-09-02T14:03:25.000Z</time>
      </trkpt>
      <trkpt lat="48.141" lon="6.86508">
        <ele>691.19995117188</ele>
        <time>2026-09-02T14:03:26.000Z</time>
      </trkpt>
      <trkpt lat="48.141" lon="6.86508">
        <ele>691.19995117188</ele>
        <time>2026-09-02T14:03:27.000Z</time>
      </trkpt>
      <trkpt lat="48.141" lon="6.86508">
        <ele>691.40002441406</ele>
        <time>2026-09-02T14:03:28.000Z</time>
      </trkpt>
      <trkpt lat="48.141" lon="6.86508">
        <ele>691.40002441406</ele>
        <time>2026-09-02T14:03:29.000Z</time>
      </trkpt>
      <trkpt lat="48.14101" lon="6.86507">
        <ele>691.40002441406</ele>
        <time>2026-09-02T14:03:30.000Z</time>
      </trkpt>
      <trkpt lat="48.14102" lon="6.86507">
        <ele>691.40002441406</ele>
        <time>2026-09-02T14:03:31.000Z</time>
      </trkpt>
      <trkpt lat="48.14102" lon="6.86506">
        <ele>691.19995117188</ele>
        <time>2026-09-02T14:03:32.000Z</time>
      </trkpt>
      <trkpt lat="48.14102" lon="6.86506">
        <ele>691</ele>
        <time>2026-09-02T14:03:33.000Z</time>
      </trkpt>
      <trkpt lat="48.14103" lon="6.86506">
        <ele>690.80004882812</ele>
        <time>2026-09-02T14:03:34.000Z</time>
      </trkpt>
      <trkpt lat="48.14103" lon="6.86506">
        <ele>690.59997558594</ele>
        <time>2026-09-02T14:03:35.000Z</time>
      </trkpt>
      <trkpt lat="48.14104" lon="6.86506">
        <ele>690.40002441406</ele>
        <time>2026-09-02T14:03:36.000Z</time>
      </trkpt>
      <trkpt lat="48.14104" lon="6.86506">
        <ele>690.40002441406</ele>
        <time>2026-09-02T14:03:37.000Z</time>
      </trkpt>
      <trkpt lat="48.14104" lon="6.86506">
        <ele>690.19995117188</ele>
        <time>2026-09-02T14:03:38.000Z</time>
      </trkpt>
      <trkpt lat="48.14104" lon="6.86506">
        <ele>690.40002441406</ele>
        <time>2026-09-02T14:03:39.000Z</time>
      </trkpt>
      <trkpt lat="48.14104" lon="6.86506">
        <ele>690.40002441406</ele>
        <time>2026-09-02T14:03:40.000Z</time>
      </trkpt>
      <trkpt lat="48.14104" lon="6.86506">
        <ele>690.40002441406</ele>
        <time>2026-09-02T14:03:41.000Z</time>
      </trkpt>
      <trkpt lat="48.14104" lon="6.86506">
        <ele>690.40002441406</ele>
        <time>2026-09-02T14:03:42.000Z</time>
      </trkpt>
      <trkpt lat="48.14104" lon="6.86506">
        <ele>690.40002441406</ele>
        <time>2026-09-02T14:03:43.000Z</time>
      </trkpt>
      <trkpt lat="48.14104" lon="6.86506">
        <ele>690.40002441406</ele>
        <time>2026-09-02T14:03:44.000Z</time>
      </trkpt>
      <trkpt lat="48.14104" lon="6.86506">
        <ele>690.40002441406</ele>
        <time>2026-09-02T14:03:45.000Z</time>
      </trkpt>
      <trkpt lat="48.14104" lon="6.86506">
        <ele>690.40002441406</ele>
        <time>2026-09-02T14:03:46.000Z</time>
      </trkpt>
      <trkpt lat="48.14104" lon="6.86506">
        <ele>690.59997558594</ele>
        <time>2026-09-02T14:03:47.000Z</time>
      </trkpt>
      <trkpt lat="48.14104" lon="6.86506">
        <ele>690.59997558594</ele>
        <time>2026-09-02T14:03:48.000Z</time>
      </trkpt>
      <trkpt lat="48.14104" lon="6.86506">
        <ele>690.59997558594</ele>
        <time>2026-09-02T14:03:49.000Z</time>
      </trkpt>
      <trkpt lat="48.14104" lon="6.86506">
        <ele>690.40002441406</ele>
        <time>2026-09-02T14:03:50.000Z</time>
      </trkpt>
      <trkpt lat="48.14104" lon="6.86506">
        <ele>690.40002441406</ele>
        <time>2026-09-02T14:03:51.000Z</time>
      </trkpt>
      <trkpt lat="48.14104" lon="6.86506">
        <ele>690.19995117188</ele>
        <time>2026-09-02T14:03:52.000Z</time>
      </trkpt>
      <trkpt lat="48.14104" lon="6.86506">
        <ele>690.19995117188</ele>
        <time>2026-09-02T14:03:53.000Z</time>
      </trkpt>
      <trkpt lat="48.14104" lon="6.86506">
        <ele>690.19995117188</ele>
        <time>2026-09-02T14:03:54.000Z</time>
      </trkpt>
      <trkpt lat="48.14104" lon="6.86506">
        <ele>690.19995117188</ele>
        <time>2026-09-02T14:03:55.000Z</time>
      </trkpt>
      <trkpt lat="48.14104" lon="6.86506">
        <ele>690.40002441406</ele>
        <time>2026-09-02T14:03:56.000Z</time>
      </trkpt>
      <trkpt lat="48.14104" lon="6.86506">
        <ele>690.40002441406</ele>
        <time>2026-09-02T14:03:57.000Z</time>
      </trkpt>
      <trkpt lat="48.14104" lon="6.86506">
        <ele>690.40002441406</ele>
        <time>2026-09-02T14:03:58.000Z</time>
      </trkpt>
      <trkpt lat="48.14104" lon="6.86506">
        <ele>690.40002441406</ele>
        <time>2026-09-02T14:03:59.000Z</time>
      </trkpt>
      <trkpt lat="48.14104" lon="6.86506">
        <ele>690.40002441406</ele>
        <time>2026-09-02T14:04:00.000Z</time>
      </trkpt>
      <trkpt lat="48.14104" lon="6.86506">
        <ele>690.40002441406</ele>
        <time>2026-09-02T14:04:01.000Z</time>
      </trkpt>
      <trkpt lat="48.14104" lon="6.86506">
        <ele>690.40002441406</ele>
        <time>2026-09-02T14:04:02.000Z</time>
      </trkpt>
      <trkpt lat="48.14104" lon="6.86506">
        <ele>690.40002441406</ele>
        <time>2026-09-02T14:04:03.000Z</time>
      </trkpt>
      <trkpt lat="48.14104" lon="6.86506">
        <ele>690.40002441406</ele>
        <time>2026-09-02T14:04:04.000Z</time>
      </trkpt>
      <trkpt lat="48.14104" lon="6.86506">
        <ele>690.40002441406</ele>
        <time>2026-09-02T14:04:05.000Z</time>
      </trkpt>
      <trkpt lat="48.14104" lon="6.86506">
        <ele>690.40002441406</ele>
        <time>2026-09-02T14:04:06.000Z</time>
      </trkpt>
      <trkpt lat="48.14104" lon="6.86506">
        <ele>690.40002441406</ele>
        <time>2026-09-02T14:04:07.000Z</time>
      </trkpt>
      <trkpt lat="48.14104" lon="6.86506">
        <ele>690.40002441406</ele>
        <time>2026-09-02T14:04:08.000Z</time>
      </trkpt>
      <trkpt lat="48.14104" lon="6.86506">
        <ele>690.40002441406</ele>
        <time>2026-09-02T14:04:09.000Z</time>
      </trkpt>
      <trkpt lat="48.14104" lon="6.86506">
        <ele>690.19995117188</ele>
        <time>2026-09-02T14:04:10.000Z</time>
      </trkpt>
      <trkpt lat="48.14104" lon="6.86506">
        <ele>690.19995117188</ele>
        <time>2026-09-02T14:04:11.000Z</time>
      </trkpt>
      <trkpt lat="48.14104" lon="6.86506">
        <ele>690.40002441406</ele>
        <time>2026-09-02T14:04:12.000Z</time>
      </trkpt>
      <trkpt lat="48.14104" lon="6.86506">
        <ele>690.40002441406</ele>
        <time>2026-09-02T14:04:13.000Z</time>
      </trkpt>
      <trkpt lat="48.14104" lon="6.86506">
        <ele>690.59997558594</ele>
        <time>2026-09-02T14:04:14.000Z</time>
      </trkpt>
      <trkpt lat="48.14104" lon="6.86506">
        <ele>690.59997558594</ele>
        <time>2026-09-02T14:04:15.000Z</time>
      </trkpt>
      <trkpt lat="48.14104" lon="6.86506">
        <ele>690.59997558594</ele>
        <time>2026-09-02T14:04:16.000Z</time>
      </trkpt>
      <trkpt lat="48.14104" lon="6.86506">
        <ele>690.40002441406</ele>
        <time>2026-09-02T14:04:17.000Z</time>
      </trkpt>
      <trkpt lat="48.14104" lon="6.86506">
        <ele>690.40002441406</ele>
        <time>2026-09-02T14:04:18.000Z</time>
      </trkpt>
      <trkpt lat="48.14104" lon="6.86506">
        <ele>690.19995117188</ele>
        <time>2026-09-02T14:04:19.000Z</time>
      </trkpt>
      <trkpt lat="48.14104" lon="6.86506">
        <ele>690</ele>
        <time>2026-09-02T14:04:20.000Z</time>
      </trkpt>
      <trkpt lat="48.14104" lon="6.86506">
        <ele>690</ele>
        <time>2026-09-02T14:04:21.000Z</time>
      </trkpt>
      <trkpt lat="48.14104" lon="6.86506">
        <ele>690</ele>
        <time>2026-09-02T14:04:22.000Z</time>
      </trkpt>
      <trkpt lat="48.14104" lon="6.86506">
        <ele>690</ele>
        <time>2026-09-02T14:04:23.000Z</time>
      </trkpt>
      <trkpt lat="48.14104" lon="6.86506">
        <ele>690</ele>
        <time>2026-09-02T14:04:24.000Z</time>
      </trkpt>
      <trkpt lat="48.14104" lon="6.86506">
        <ele>690</ele>
        <time>2026-09-02T14:04:25.000Z</time>
      </trkpt>
      <trkpt lat="48.14104" lon="6.86506">
        <ele>690</ele>
        <time>2026-09-02T14:04:26.000Z</time>
      </trkpt>
      <trkpt lat="48.14104" lon="6.86506">
        <ele>690</ele>
        <time>2026-09-02T14:04:27.000Z</time>
      </trkpt>
      <trkpt lat="48.14104" lon="6.86506">
        <ele>690</ele>
        <time>2026-09-02T14:04:28.000Z</time>
      </trkpt>
      <trkpt lat="48.14104" lon="6.86506">
        <ele>690.19995117188</ele>
        <time>2026-09-02T14:04:29.000Z</time>
      </trkpt>
      <trkpt lat="48.14104" lon="6.86506">
        <ele>690.19995117188</ele>
        <time>2026-09-02T14:04:30.000Z</time>
      </trkpt>
      <trkpt lat="48.14104" lon="6.86506">
        <ele>690.19995117188</ele>
        <time>2026-09-02T14:04:31.000Z</time>
      </trkpt>
      <trkpt lat="48.14104" lon="6.86506">
        <ele>690.19995117188</ele>
        <time>2026-09-02T14:04:32.000Z</time>
      </trkpt>
      <trkpt lat="48.14104" lon="6.86506">
        <ele>690.40002441406</ele>
        <time>2026-09-02T14:04:33.000Z</time>
      </trkpt>
      <trkpt lat="48.14104" lon="6.86506">
        <ele>690.40002441406</ele>
        <time>2026-09-02T14:04:34.000Z</time>
      </trkpt>
      <trkpt lat="48.14104" lon="6.86506">
        <ele>690.40002441406</ele>
        <time>2026-09-02T14:04:35.000Z</time>
      </trkpt>
      <trkpt lat="48.14104" lon="6.86506">
        <ele>690.40002441406</ele>
        <time>2026-09-02T14:04:36.000Z</time>
      </trkpt>
      <trkpt lat="48.14104" lon="6.86506">
        <ele>690.40002441406</ele>
        <time>2026-09-02T14:04:37.000Z</time>
      </trkpt>
      <trkpt lat="48.14104" lon="6.86506">
        <ele>690.40002441406</ele>
        <time>2026-09-02T14:04:38.000Z</time>
      </trkpt>
      <trkpt lat="48.14104" lon="6.86506">
        <ele>690.40002441406</ele>
        <time>2026-09-02T14:04:39.000Z</time>
      </trkpt>
      <trkpt lat="48.14104" lon="6.86506">
        <ele>690.40002441406</ele>
        <time>2026-09-02T14:04:40.000Z</time>
      </trkpt>
      <trkpt lat="48.14104" lon="6.86506">
        <ele>690.40002441406</ele>
        <time>2026-09-02T14:04:41.000Z</time>
      </trkpt>
      <trkpt lat="48.14104" lon="6.86506">
        <ele>690.40002441406</ele>
        <time>2026-09-02T14:04:42.000Z</time>
      </trkpt>
      <trkpt lat="48.14105" lon="6.86506">
        <ele>690.59997558594</ele>
        <time>2026-09-02T14:04:43.000Z</time>
      </trkpt>
      <trkpt lat="48.14106" lon="6.86506">
        <ele>690.40002441406</ele>
        <time>2026-09-02T14:04:44.000Z</time>
      </trkpt>
      <trkpt lat="48.14106" lon="6.86507">
        <ele>690.40002441406</ele>
        <time>2026-09-02T14:04:45.000Z</time>
      </trkpt>
      <trkpt lat="48.14107" lon="6.86507">
        <ele>690.40002441406</ele>
        <time>2026-09-02T14:04:46.000Z</time>
      </trkpt>
      <trkpt lat="48.14107" lon="6.86507">
        <ele>690.40002441406</ele>
        <time>2026-09-02T14:04:47.000Z</time>
      </trkpt>
      <trkpt lat="48.14107" lon="6.86507">
        <ele>690.40002441406</ele>
        <time>2026-09-02T14:04:48.000Z</time>
      </trkpt>
      <trkpt lat="48.14107" lon="6.86507">
        <ele>690.40002441406</ele>
        <time>2026-09-02T14:04:49.000Z</time>
      </trkpt>
      <trkpt lat="48.14107" lon="6.86507">
        <ele>690.19995117188</ele>
        <time>2026-09-02T14:04:50.000Z</time>
      </trkpt>
      <trkpt lat="48.14107" lon="6.86507">
        <ele>690.19995117188</ele>
        <time>2026-09-02T14:04:51.000Z</time>
      </trkpt>
      <trkpt lat="48.14107" lon="6.86507">
        <ele>690.19995117188</ele>
        <time>2026-09-02T14:04:52.000Z</time>
      </trkpt>
      <trkpt lat="48.14107" lon="6.86507">
        <ele>690.19995117188</ele>
        <time>2026-09-02T14:04:53.000Z</time>
      </trkpt>
      <trkpt lat="48.14107" lon="6.86507">
        <ele>690.19995117188</ele>
        <time>2026-09-02T14:04:54.000Z</time>
      </trkpt>
      <trkpt lat="48.14107" lon="6.86507">
        <ele>690.40002441406</ele>
        <time>2026-09-02T14:04:55.000Z</time>
      </trkpt>
      <trkpt lat="48.14107" lon="6.86507">
        <ele>690.40002441406</ele>
        <time>2026-09-02T14:04:56.000Z</time>
      </trkpt>
      <trkpt lat="48.14107" lon="6.86507">
        <ele>690.40002441406</ele>
        <time>2026-09-02T14:04:57.000Z</time>
      </trkpt>
      <trkpt lat="48.14107" lon="6.86507">
        <ele>690.59997558594</ele>
        <time>2026-09-02T14:04:58.000Z</time>
      </trkpt>
      <trkpt lat="48.14107" lon="6.86507">
        <ele>690.40002441406</ele>
        <time>2026-09-02T14:04:59.000Z</time>
      </trkpt>
      <trkpt lat="48.14107" lon="6.86507">
        <ele>690.40002441406</ele>
        <time>2026-09-02T14:05:00.000Z</time>
      </trkpt>
      <trkpt lat="48.14107" lon="6.86507">
        <ele>690.40002441406</ele>
        <time>2026-09-02T14:05:01.000Z</time>
      </trkpt>
      <trkpt lat="48.14107" lon="6.86507">
        <ele>690.40002441406</ele>
        <time>2026-09-02T14:05:02.000Z</time>
      </trkpt>
      <trkpt lat="48.14107" lon="6.86507">
        <ele>690.40002441406</ele>
        <time>2026-09-02T14:05:03.000Z</time>
      </trkpt>
      <trkpt lat="48.14107" lon="6.86507">
        <ele>690.40002441406</ele>
        <time>2026-09-02T14:05:04.000Z</time>
      </trkpt>
      <trkpt lat="48.14107" lon="6.86507">
        <ele>690.59997558594</ele>
        <time>2026-09-02T14:05:05.000Z</time>
      </trkpt>
      <trkpt lat="48.14107" lon="6.86507">
        <ele>690.80004882812</ele>
        <time>2026-09-02T14:05:06.000Z</time>
      </trkpt>
      <trkpt lat="48.14107" lon="6.86507">
        <ele>690.80004882812</ele>
        <time>2026-09-02T14:05:07.000Z</time>
      </trkpt>
      <trkpt lat="48.14107" lon="6.86507">
        <ele>690.59997558594</ele>
        <time>2026-09-02T14:05:08.000Z</time>
      </trkpt>
      <trkpt lat="48.14107" lon="6.86507">
        <ele>690.59997558594</ele>
        <time>2026-09-02T14:05:09.000Z</time>
      </trkpt>
      <trkpt lat="48.14107" lon="6.86507">
        <ele>690.59997558594</ele>
        <time>2026-09-02T14:05:10.000Z</time>
      </trkpt>
      <trkpt lat="48.14107" lon="6.86507">
        <ele>690.59997558594</ele>
        <time>2026-09-02T14:05:11.000Z</time>
      </trkpt>
      <trkpt lat="48.14107" lon="6.86507">
        <ele>690.59997558594</ele>
        <time>2026-09-02T14:05:12.000Z</time>
      </trkpt>
      <trkpt lat="48.14107" lon="6.86507">
        <ele>690.59997558594</ele>
        <time>2026-09-02T14:05:13.000Z</time>
      </trkpt>
      <trkpt lat="48.14107" lon="6.86506">
        <ele>690.40002441406</ele>
        <time>2026-09-02T14:05:14.000Z</time>
      </trkpt>
      <trkpt lat="48.14108" lon="6.86506">
        <ele>690.40002441406</ele>
        <time>2026-09-02T14:05:15.000Z</time>
      </trkpt>
      <trkpt lat="48.14108" lon="6.86506">
        <ele>690.40002441406</ele>
        <time>2026-09-02T14:05:16.000Z</time>
      </trkpt>
      <trkpt lat="48.14108" lon="6.86506">
        <ele>690.40002441406</ele>
        <time>2026-09-02T14:05:17.000Z</time>
      </trkpt>
      <trkpt lat="48.14108" lon="6.86506">
        <ele>690.59997558594</ele>
        <time>2026-09-02T14:05:18.000Z</time>
      </trkpt>
      <trkpt lat="48.14108" lon="6.86506">
        <ele>690.59997558594</ele>
        <time>2026-09-02T14:05:19.000Z</time>
      </trkpt>
      <trkpt lat="48.14108" lon="6.86506">
        <ele>690.59997558594</ele>
        <time>2026-09-02T14:05:20.000Z</time>
      </trkpt>
      <trkpt lat="48.14108" lon="6.86506">
        <ele>690.80004882812</ele>
        <time>2026-09-02T14:05:21.000Z</time>
      </trkpt>
      <trkpt lat="48.14108" lon="6.86506">
        <ele>690.80004882812</ele>
        <time>2026-09-02T14:05:22.000Z</time>
      </trkpt>
      <trkpt lat="48.14108" lon="6.86506">
        <ele>690.80004882812</ele>
        <time>2026-09-02T14:05:23.000Z</time>
      </trkpt>
      <trkpt lat="48.14108" lon="6.86506">
        <ele>690.80004882812</ele>
        <time>2026-09-02T14:05:24.000Z</time>
      </trkpt>
      <trkpt lat="48.14108" lon="6.86506">
        <ele>690.59997558594</ele>
        <time>2026-09-02T14:05:25.000Z</time>
      </trkpt>
      <trkpt lat="48.14108" lon="6.86506">
        <ele>690.59997558594</ele>
        <time>2026-09-02T14:05:26.000Z</time>
      </trkpt>
      <trkpt lat="48.14108" lon="6.86506">
        <ele>690.59997558594</ele>
        <time>2026-09-02T14:05:27.000Z</time>
      </trkpt>
      <trkpt lat="48.14108" lon="6.86506">
        <ele>690.59997558594</ele>
        <time>2026-09-02T14:05:28.000Z</time>
      </trkpt>
      <trkpt lat="48.14108" lon="6.86506">
        <ele>690.59997558594</ele>
        <time>2026-09-02T14:05:29.000Z</time>
      </trkpt>
      <trkpt lat="48.14108" lon="6.86506">
        <ele>690.59997558594</ele>
        <time>2026-09-02T14:05:30.000Z</time>
      </trkpt>
      <trkpt lat="48.14108" lon="6.86506">
        <ele>690.80004882812</ele>
        <time>2026-09-02T14:05:31.000Z</time>
      </trkpt>
      <trkpt lat="48.14108" lon="6.86506">
        <ele>690.80004882812</ele>
        <time>2026-09-02T14:05:32.000Z</time>
      </trkpt>
      <trkpt lat="48.14108" lon="6.86506">
        <ele>690.80004882812</ele>
        <time>2026-09-02T14:05:33.000Z</time>
      </trkpt>
      <trkpt lat="48.14108" lon="6.86506">
        <ele>690.80004882812</ele>
        <time>2026-09-02T14:05:34.000Z</time>
      </trkpt>
      <trkpt lat="48.14108" lon="6.86506">
        <ele>690.80004882812</ele>
        <time>2026-09-02T14:05:35.000Z</time>
      </trkpt>
      <trkpt lat="48.14108" lon="6.86506">
        <ele>690.80004882812</ele>
        <time>2026-09-02T14:05:36.000Z</time>
      </trkpt>
      <trkpt lat="48.14108" lon="6.86506">
        <ele>690.80004882812</ele>
        <time>2026-09-02T14:05:37.000Z</time>
      </trkpt>
      <trkpt lat="48.14108" lon="6.86506">
        <ele>690.80004882812</ele>
        <time>2026-09-02T14:05:38.000Z</time>
      </trkpt>
      <trkpt lat="48.14108" lon="6.86506">
        <ele>690.80004882812</ele>
        <time>2026-09-02T14:05:39.000Z</time>
      </trkpt>
      <trkpt lat="48.14108" lon="6.86506">
        <ele>691</ele>
        <time>2026-09-02T14:05:40.000Z</time>
      </trkpt>
      <trkpt lat="48.14108" lon="6.86506">
        <ele>691</ele>
        <time>2026-09-02T14:05:41.000Z</time>
      </trkpt>
      <trkpt lat="48.14108" lon="6.86506">
        <ele>691</ele>
        <time>2026-09-02T14:05:42.000Z</time>
      </trkpt>
      <trkpt lat="48.14108" lon="6.86506">
        <ele>691</ele>
        <time>2026-09-02T14:05:43.000Z</time>
      </trkpt>
      <trkpt lat="48.14108" lon="6.86506">
        <ele>691</ele>
        <time>2026-09-02T14:05:44.000Z</time>
      </trkpt>
      <trkpt lat="48.14108" lon="6.86506">
        <ele>691</ele>
        <time>2026-09-02T14:05:45.000Z</time>
      </trkpt>
      <trkpt lat="48.14108" lon="6.86506">
        <ele>691</ele>
        <time>2026-09-02T14:05:46.000Z</time>
      </trkpt>
      <trkpt lat="48.14108" lon="6.86506">
        <ele>690.80004882812</ele>
        <time>2026-09-02T14:05:47.000Z</time>
      </trkpt>
      <trkpt lat="48.14108" lon="6.86506">
        <ele>690.80004882812</ele>
        <time>2026-09-02T14:05:48.000Z</time>
      </trkpt>
      <trkpt lat="48.14108" lon="6.86506">
        <ele>691</ele>
        <time>2026-09-02T14:05:49.000Z</time>
      </trkpt>
      <trkpt lat="48.14108" lon="6.86506">
        <ele>691</ele>
        <time>2026-09-02T14:05:50.000Z</time>
      </trkpt>
      <trkpt lat="48.14108" lon="6.86506">
        <ele>691</ele>
        <time>2026-09-02T14:05:51.000Z</time>
      </trkpt>
      <trkpt lat="48.14108" lon="6.86506">
        <ele>691</ele>
        <time>2026-09-02T14:05:52.000Z</time>
      </trkpt>
      <trkpt lat="48.14108" lon="6.86506">
        <ele>691</ele>
        <time>2026-09-02T14:05:53.000Z</time>
      </trkpt>
      <trkpt lat="48.14108" lon="6.86506">
        <ele>691</ele>
        <time>2026-09-02T14:05:54.000Z</time>
      </trkpt>
      <trkpt lat="48.14108" lon="6.86506">
        <ele>691</ele>
        <time>2026-09-02T14:05:55.000Z</time>
      </trkpt>
      <trkpt lat="48.14108" lon="6.86506">
        <ele>691</ele>
        <time>2026-09-02T14:05:56.000Z</time>
      </trkpt>
      <trkpt lat="48.14108" lon="6.86506">
        <ele>691</ele>
        <time>2026-09-02T14:05:57.000Z</time>
      </trkpt>
      <trkpt lat="48.14108" lon="6.86506">
        <ele>691</ele>
        <time>2026-09-02T14:05:58.000Z</time>
      </trkpt>
      <trkpt lat="48.14108" lon="6.86506">
        <ele>691</ele>
        <time>2026-09-02T14:05:59.000Z</time>
      </trkpt>
      <trkpt lat="48.14108" lon="6.86506">
        <ele>691</ele>
        <time>2026-09-02T14:06:00.000Z</time>
      </trkpt>
      <trkpt lat="48.14108" lon="6.86506">
        <ele>691</ele>
        <time>2026-09-02T14:06:01.000Z</time>
      </trkpt>
      <trkpt lat="48.14108" lon="6.86506">
        <ele>691</ele>
        <time>2026-09-02T14:06:02.000Z</time>
      </trkpt>
      <trkpt lat="48.14108" lon="6.86506">
        <ele>691.40002441406</ele>
        <time>2026-09-02T14:06:03.000Z</time>
      </trkpt>
      <trkpt lat="48.14108" lon="6.86506">
        <ele>691.59997558594</ele>
        <time>2026-09-02T14:06:04.000Z</time>
      </trkpt>
      <trkpt lat="48.14109" lon="6.86506">
        <ele>692</ele>
        <time>2026-09-02T14:06:05.000Z</time>
      </trkpt>
      <trkpt lat="48.1411" lon="6.86506">
        <ele>692.19995117188</ele>
        <time>2026-09-02T14:06:06.000Z</time>
      </trkpt>
      <trkpt lat="48.1411" lon="6.86505">
        <ele>692.40002441406</ele>
        <time>2026-09-02T14:06:07.000Z</time>
      </trkpt>
      <trkpt lat="48.1411" lon="6.86505">
        <ele>692.40002441406</ele>
        <time>2026-09-02T14:06:08.000Z</time>
      </trkpt>
      <trkpt lat="48.14108" lon="6.86506">
        <ele>692.19995117188</ele>
        <time>2026-09-02T14:06:09.000Z</time>
      </trkpt>
      <trkpt lat="48.14108" lon="6.86506">
        <ele>692.19995117188</ele>
        <time>2026-09-02T14:06:10.000Z</time>
      </trkpt>
      <trkpt lat="48.14108" lon="6.86506">
        <ele>692</ele>
        <time>2026-09-02T14:06:11.000Z</time>
      </trkpt>
      <trkpt lat="48.14108" lon="6.86506">
        <ele>692</ele>
        <time>2026-09-02T14:06:12.000Z</time>
      </trkpt>
      <trkpt lat="48.14108" lon="6.86506">
        <ele>692</ele>
        <time>2026-09-02T14:06:13.000Z</time>
      </trkpt>
      <trkpt lat="48.14108" lon="6.86506">
        <ele>692</ele>
        <time>2026-09-02T14:06:14.000Z</time>
      </trkpt>
      <trkpt lat="48.14108" lon="6.86506">
        <ele>692</ele>
        <time>2026-09-02T14:06:15.000Z</time>
      </trkpt>
      <trkpt lat="48.14109" lon="6.86505">
        <ele>692</ele>
        <time>2026-09-02T14:06:16.000Z</time>
      </trkpt>
      <trkpt lat="48.14109" lon="6.86504">
        <ele>692</ele>
        <time>2026-09-02T14:06:17.000Z</time>
      </trkpt>
      <trkpt lat="48.1411" lon="6.86504">
        <ele>692</ele>
        <time>2026-09-02T14:06:18.000Z</time>
      </trkpt>
      <trkpt lat="48.1411" lon="6.86504">
        <ele>692</ele>
        <time>2026-09-02T14:06:19.000Z</time>
      </trkpt>
      <trkpt lat="48.1411" lon="6.86504">
        <ele>692</ele>
        <time>2026-09-02T14:06:20.000Z</time>
      </trkpt>
      <trkpt lat="48.1411" lon="6.86504">
        <ele>692</ele>
        <time>2026-09-02T14:06:21.000Z</time>
      </trkpt>
      <trkpt lat="48.1411" lon="6.86504">
        <ele>691.80004882812</ele>
        <time>2026-09-02T14:06:22.000Z</time>
      </trkpt>
      <trkpt lat="48.1411" lon="6.86504">
        <ele>691.80004882812</ele>
        <time>2026-09-02T14:06:23.000Z</time>
      </trkpt>
      <trkpt lat="48.14111" lon="6.86504">
        <ele>691.80004882812</ele>
        <time>2026-09-02T14:06:24.000Z</time>
      </trkpt>
      <trkpt lat="48.1411" lon="6.86504">
        <ele>691.59997558594</ele>
        <time>2026-09-02T14:06:25.000Z</time>
      </trkpt>
      <trkpt lat="48.1411" lon="6.86503">
        <ele>691.59997558594</ele>
        <time>2026-09-02T14:06:26.000Z</time>
      </trkpt>
      <trkpt lat="48.1411" lon="6.86504">
        <ele>691.40002441406</ele>
        <time>2026-09-02T14:06:27.000Z</time>
      </trkpt>
      <trkpt lat="48.1411" lon="6.86504">
        <ele>691.19995117188</ele>
        <time>2026-09-02T14:06:28.000Z</time>
      </trkpt>
      <trkpt lat="48.1411" lon="6.86504">
        <ele>691</ele>
        <time>2026-09-02T14:06:29.000Z</time>
      </trkpt>
      <trkpt lat="48.1411" lon="6.86504">
        <ele>691</ele>
        <time>2026-09-02T14:06:30.000Z</time>
      </trkpt>
      <trkpt lat="48.1411" lon="6.86504">
        <ele>690.80004882812</ele>
        <time>2026-09-02T14:06:31.000Z</time>
      </trkpt>
      <trkpt lat="48.1411" lon="6.86504">
        <ele>690.80004882812</ele>
        <time>2026-09-02T14:06:32.000Z</time>
      </trkpt>
      <trkpt lat="48.1411" lon="6.86504">
        <ele>691</ele>
        <time>2026-09-02T14:06:33.000Z</time>
      </trkpt>
      <trkpt lat="48.1411" lon="6.86504">
        <ele>691</ele>
        <time>2026-09-02T14:06:34.000Z</time>
      </trkpt>
      <trkpt lat="48.1411" lon="6.86504">
        <ele>691</ele>
        <time>2026-09-02T14:06:35.000Z</time>
      </trkpt>
      <trkpt lat="48.1411" lon="6.86504">
        <ele>691</ele>
        <time>2026-09-02T14:06:36.000Z</time>
      </trkpt>
      <trkpt lat="48.1411" lon="6.86504">
        <ele>691</ele>
        <time>2026-09-02T14:06:37.000Z</time>
      </trkpt>
      <trkpt lat="48.1411" lon="6.86504">
        <ele>691</ele>
        <time>2026-09-02T14:06:38.000Z</time>
      </trkpt>
      <trkpt lat="48.1411" lon="6.86504">
        <ele>691</ele>
        <time>2026-09-02T14:06:39.000Z</time>
      </trkpt>
      <trkpt lat="48.1411" lon="6.86504">
        <ele>691</ele>
        <time>2026-09-02T14:06:40.000Z</time>
      </trkpt>
      <trkpt lat="48.1411" lon="6.86504">
        <ele>690.80004882812</ele>
        <time>2026-09-02T14:06:41.000Z</time>
      </trkpt>
      <trkpt lat="48.1411" lon="6.86504">
        <ele>690.80004882812</ele>
        <time>2026-09-02T14:06:42.000Z</time>
      </trkpt>
      <trkpt lat="48.1411" lon="6.86504">
        <ele>690.59997558594</ele>
        <time>2026-09-02T14:06:43.000Z</time>
      </trkpt>
      <trkpt lat="48.1411" lon="6.86504">
        <ele>690.59997558594</ele>
        <time>2026-09-02T14:06:44.000Z</time>
      </trkpt>
      <trkpt lat="48.1411" lon="6.86504">
        <ele>690.59997558594</ele>
        <time>2026-09-02T14:06:45.000Z</time>
      </trkpt>
      <trkpt lat="48.1411" lon="6.86504">
        <ele>690.80004882812</ele>
        <time>2026-09-02T14:06:46.000Z</time>
      </trkpt>
      <trkpt lat="48.1411" lon="6.86504">
        <ele>690.80004882812</ele>
        <time>2026-09-02T14:06:47.000Z</time>
      </trkpt>
      <trkpt lat="48.1411" lon="6.86504">
        <ele>691</ele>
        <time>2026-09-02T14:06:48.000Z</time>
      </trkpt>
      <trkpt lat="48.1411" lon="6.86504">
        <ele>691</ele>
        <time>2026-09-02T14:06:49.000Z</time>
      </trkpt>
      <trkpt lat="48.1411" lon="6.86504">
        <ele>691</ele>
        <time>2026-09-02T14:06:50.000Z</time>
      </trkpt>
      <trkpt lat="48.1411" lon="6.86504">
        <ele>691.19995117188</ele>
        <time>2026-09-02T14:06:51.000Z</time>
      </trkpt>
      <trkpt lat="48.1411" lon="6.86504">
        <ele>691</ele>
        <time>2026-09-02T14:06:52.000Z</time>
      </trkpt>
      <trkpt lat="48.1411" lon="6.86504">
        <ele>691</ele>
        <time>2026-09-02T14:06:53.000Z</time>
      </trkpt>
      <trkpt lat="48.1411" lon="6.86504">
        <ele>691</ele>
        <time>2026-09-02T14:06:54.000Z</time>
      </trkpt>
      <trkpt lat="48.1411" lon="6.86504">
        <ele>691</ele>
        <time>2026-09-02T14:06:55.000Z</time>
      </trkpt>
      <trkpt lat="48.1411" lon="6.86504">
        <ele>691</ele>
        <time>2026-09-02T14:06:56.000Z</time>
      </trkpt>
      <trkpt lat="48.1411" lon="6.86504">
        <ele>691</ele>
        <time>2026-09-02T14:06:57.000Z</time>
      </trkpt>
      <trkpt lat="48.1411" lon="6.86504">
        <ele>691</ele>
        <time>2026-09-02T14:06:58.000Z</time>
      </trkpt>
      <trkpt lat="48.1411" lon="6.86504">
        <ele>691</ele>
        <time>2026-09-02T14:06:59.000Z</time>
      </trkpt>
      <trkpt lat="48.1411" lon="6.86504">
        <ele>691</ele>
        <time>2026-09-02T14:07:00.000Z</time>
      </trkpt>
      <trkpt lat="48.1411" lon="6.86504">
        <ele>691</ele>
        <time>2026-09-02T14:07:01.000Z</time>
      </trkpt>
      <trkpt lat="48.1411" lon="6.86504">
        <ele>691</ele>
        <time>2026-09-02T14:07:02.000Z</time>
      </trkpt>
      <trkpt lat="48.1411" lon="6.86504">
        <ele>691</ele>
        <time>2026-09-02T14:07:03.000Z</time>
      </trkpt>
      <trkpt lat="48.1411" lon="6.86504">
        <ele>691</ele>
        <time>2026-09-02T14:07:04.000Z</time>
      </trkpt>
      <trkpt lat="48.1411" lon="6.86504">
        <ele>691</ele>
        <time>2026-09-02T14:07:05.000Z</time>
      </trkpt>
      <trkpt lat="48.1411" lon="6.86504">
        <ele>691</ele>
        <time>2026-09-02T14:07:06.000Z</time>
      </trkpt>
      <trkpt lat="48.1411" lon="6.86504">
        <ele>691</ele>
        <time>2026-09-02T14:07:07.000Z</time>
      </trkpt>
      <trkpt lat="48.1411" lon="6.86504">
        <ele>691</ele>
        <time>2026-09-02T14:07:08.000Z</time>
      </trkpt>
      <trkpt lat="48.1411" lon="6.86504">
        <ele>691</ele>
        <time>2026-09-02T14:07:09.000Z</time>
      </trkpt>
      <trkpt lat="48.1411" lon="6.86504">
        <ele>691.19995117188</ele>
        <time>2026-09-02T14:07:10.000Z</time>
      </trkpt>
      <trkpt lat="48.1411" lon="6.86504">
        <ele>691.19995117188</ele>
        <time>2026-09-02T14:07:11.000Z</time>
      </trkpt>
      <trkpt lat="48.1411" lon="6.86504">
        <ele>691.19995117188</ele>
        <time>2026-09-02T14:07:12.000Z</time>
      </trkpt>
      <trkpt lat="48.1411" lon="6.86504">
        <ele>691.19995117188</ele>
        <time>2026-09-02T14:07:13.000Z</time>
      </trkpt>
      <trkpt lat="48.1411" lon="6.86504">
        <ele>691.19995117188</ele>
        <time>2026-09-02T14:07:14.000Z</time>
      </trkpt>
      <trkpt lat="48.1411" lon="6.86504">
        <ele>691.40002441406</ele>
        <time>2026-09-02T14:07:15.000Z</time>
      </trkpt>
      <trkpt lat="48.1411" lon="6.86504">
        <ele>691.40002441406</ele>
        <time>2026-09-02T14:07:16.000Z</time>
      </trkpt>
      <trkpt lat="48.1411" lon="6.86504">
        <ele>691.40002441406</ele>
        <time>2026-09-02T14:07:17.000Z</time>
      </trkpt>
      <trkpt lat="48.1411" lon="6.86504">
        <ele>691.40002441406</ele>
        <time>2026-09-02T14:07:18.000Z</time>
      </trkpt>
      <trkpt lat="48.1411" lon="6.86504">
        <ele>691.19995117188</ele>
        <time>2026-09-02T14:07:19.000Z</time>
      </trkpt>
      <trkpt lat="48.1411" lon="6.86504">
        <ele>691.19995117188</ele>
        <time>2026-09-02T14:07:20.000Z</time>
      </trkpt>
      <trkpt lat="48.1411" lon="6.86504">
        <ele>691.19995117188</ele>
        <time>2026-09-02T14:07:21.000Z</time>
      </trkpt>
      <trkpt lat="48.1411" lon="6.86504">
        <ele>691.19995117188</ele>
        <time>2026-09-02T14:07:22.000Z</time>
      </trkpt>
      <trkpt lat="48.1411" lon="6.86504">
        <ele>691.19995117188</ele>
        <time>2026-09-02T14:07:23.000Z</time>
      </trkpt>
      <trkpt lat="48.1411" lon="6.86504">
        <ele>691.19995117188</ele>
        <time>2026-09-02T14:07:24.000Z</time>
      </trkpt>
      <trkpt lat="48.1411" lon="6.86504">
        <ele>691.19995117188</ele>
        <time>2026-09-02T14:07:25.000Z</time>
      </trkpt>
      <trkpt lat="48.1411" lon="6.86504">
        <ele>691.19995117188</ele>
        <time>2026-09-02T14:07:26.000Z</time>
      </trkpt>
      <trkpt lat="48.1411" lon="6.86504">
        <ele>691.19995117188</ele>
        <time>2026-09-02T14:07:27.000Z</time>
      </trkpt>
      <trkpt lat="48.1411" lon="6.86504">
        <ele>691.19995117188</ele>
        <time>2026-09-02T14:07:28.000Z</time>
      </trkpt>
      <trkpt lat="48.1411" lon="6.86504">
        <ele>691.19995117188</ele>
        <time>2026-09-02T14:07:29.000Z</time>
      </trkpt>
      <trkpt lat="48.1411" lon="6.86504">
        <ele>691.19995117188</ele>
        <time>2026-09-02T14:07:30.000Z</time>
      </trkpt>
      <trkpt lat="48.1411" lon="6.86504">
        <ele>691</ele>
        <time>2026-09-02T14:07:31.000Z</time>
      </trkpt>
      <trkpt lat="48.1411" lon="6.86504">
        <ele>691</ele>
        <time>2026-09-02T14:07:32.000Z</time>
      </trkpt>
      <trkpt lat="48.1411" lon="6.86504">
        <ele>691</ele>
        <time>2026-09-02T14:07:33.000Z</time>
      </trkpt>
      <trkpt lat="48.1411" lon="6.86504">
        <ele>691</ele>
        <time>2026-09-02T14:07:34.000Z</time>
      </trkpt>
      <trkpt lat="48.1411" lon="6.86504">
        <ele>691</ele>
        <time>2026-09-02T14:07:35.000Z</time>
      </trkpt>
      <trkpt lat="48.1411" lon="6.86504">
        <ele>691</ele>
        <time>2026-09-02T14:07:36.000Z</time>
      </trkpt>
      <trkpt lat="48.1411" lon="6.86504">
        <ele>691</ele>
        <time>2026-09-02T14:07:37.000Z</time>
      </trkpt>
      <trkpt lat="48.1411" lon="6.86504">
        <ele>690.80004882812</ele>
        <time>2026-09-02T14:07:38.000Z</time>
      </trkpt>
      <trkpt lat="48.1411" lon="6.86504">
        <ele>690.80004882812</ele>
        <time>2026-09-02T14:07:39.000Z</time>
      </trkpt>
      <trkpt lat="48.1411" lon="6.86504">
        <ele>691</ele>
        <time>2026-09-02T14:07:40.000Z</time>
      </trkpt>
      <trkpt lat="48.1411" lon="6.86504">
        <ele>691</ele>
        <time>2026-09-02T14:07:41.000Z</time>
      </trkpt>
      <trkpt lat="48.1411" lon="6.86504">
        <ele>691</ele>
        <time>2026-09-02T14:07:42.000Z</time>
      </trkpt>
      <trkpt lat="48.1411" lon="6.86504">
        <ele>691.19995117188</ele>
        <time>2026-09-02T14:07:43.000Z</time>
      </trkpt>
      <trkpt lat="48.1411" lon="6.86504">
        <ele>691.19995117188</ele>
        <time>2026-09-02T14:07:44.000Z</time>
      </trkpt>
      <trkpt lat="48.1411" lon="6.86504">
        <ele>691.19995117188</ele>
        <time>2026-09-02T14:07:45.000Z</time>
      </trkpt>
      <trkpt lat="48.1411" lon="6.86504">
        <ele>691</ele>
        <time>2026-09-02T14:07:46.000Z</time>
      </trkpt>
      <trkpt lat="48.1411" lon="6.86504">
        <ele>691</ele>
        <time>2026-09-02T14:07:47.000Z</time>
      </trkpt>
      <trkpt lat="48.1411" lon="6.86504">
        <ele>691</ele>
        <time>2026-09-02T14:07:48.000Z</time>
      </trkpt>
      <trkpt lat="48.1411" lon="6.86504">
        <ele>691</ele>
        <time>2026-09-02T14:07:49.000Z</time>
      </trkpt>
      <trkpt lat="48.1411" lon="6.86504">
        <ele>691</ele>
        <time>2026-09-02T14:07:50.000Z</time>
      </trkpt>
      <trkpt lat="48.1411" lon="6.86504">
        <ele>691</ele>
        <time>2026-09-02T14:07:51.000Z</time>
      </trkpt>
      <trkpt lat="48.1411" lon="6.86504">
        <ele>691</ele>
        <time>2026-09-02T14:07:52.000Z</time>
      </trkpt>
      <trkpt lat="48.1411" lon="6.86504">
        <ele>690.80004882812</ele>
        <time>2026-09-02T14:07:53.000Z</time>
      </trkpt>
      <trkpt lat="48.1411" lon="6.86504">
        <ele>690.80004882812</ele>
        <time>2026-09-02T14:07:54.000Z</time>
      </trkpt>
      <trkpt lat="48.1411" lon="6.86504">
        <ele>690.80004882812</ele>
        <time>2026-09-02T14:07:55.000Z</time>
      </trkpt>
      <trkpt lat="48.1411" lon="6.86504">
        <ele>690.80004882812</ele>
        <time>2026-09-02T14:07:56.000Z</time>
      </trkpt>
      <trkpt lat="48.1411" lon="6.86504">
        <ele>691</ele>
        <time>2026-09-02T14:07:57.000Z</time>
      </trkpt>
      <trkpt lat="48.1411" lon="6.86504">
        <ele>691</ele>
        <time>2026-09-02T14:07:58.000Z</time>
      </trkpt>
      <trkpt lat="48.1411" lon="6.86504">
        <ele>691</ele>
        <time>2026-09-02T14:07:59.000Z</time>
      </trkpt>
      <trkpt lat="48.1411" lon="6.86504">
        <ele>691.19995117188</ele>
        <time>2026-09-02T14:08:00.000Z</time>
      </trkpt>
      <trkpt lat="48.1411" lon="6.86504">
        <ele>691.19995117188</ele>
        <time>2026-09-02T14:08:01.000Z</time>
      </trkpt>
      <trkpt lat="48.1411" lon="6.86504">
        <ele>691.19995117188</ele>
        <time>2026-09-02T14:08:02.000Z</time>
      </trkpt>
      <trkpt lat="48.1411" lon="6.86504">
        <ele>691.19995117188</ele>
        <time>2026-09-02T14:08:03.000Z</time>
      </trkpt>
      <trkpt lat="48.1411" lon="6.86504">
        <ele>691.40002441406</ele>
        <time>2026-09-02T14:08:04.000Z</time>
      </trkpt>
      <trkpt lat="48.1411" lon="6.86504">
        <ele>691.40002441406</ele>
        <time>2026-09-02T14:08:05.000Z</time>
      </trkpt>
      <trkpt lat="48.1411" lon="6.86504">
        <ele>691.40002441406</ele>
        <time>2026-09-02T14:08:06.000Z</time>
      </trkpt>
      <trkpt lat="48.1411" lon="6.86504">
        <ele>691.40002441406</ele>
        <time>2026-09-02T14:08:07.000Z</time>
      </trkpt>
      <trkpt lat="48.1411" lon="6.86504">
        <ele>691.40002441406</ele>
        <time>2026-09-02T14:08:08.000Z</time>
      </trkpt>
      <trkpt lat="48.1411" lon="6.86504">
        <ele>691.40002441406</ele>
        <time>2026-09-02T14:08:09.000Z</time>
      </trkpt>
      <trkpt lat="48.1411" lon="6.86504">
        <ele>691.40002441406</ele>
        <time>2026-09-02T14:08:10.000Z</time>
      </trkpt>
      <trkpt lat="48.1411" lon="6.86504">
        <ele>691.40002441406</ele>
        <time>2026-09-02T14:08:11.000Z</time>
      </trkpt>
      <trkpt lat="48.1411" lon="6.86504">
        <ele>691.40002441406</ele>
        <time>2026-09-02T14:08:12.000Z</time>
      </trkpt>
      <trkpt lat="48.1411" lon="6.86504">
        <ele>691.40002441406</ele>
        <time>2026-09-02T14:08:13.000Z</time>
      </trkpt>
      <trkpt lat="48.1411" lon="6.86504">
        <ele>691.40002441406</ele>
        <time>2026-09-02T14:08:14.000Z</time>
      </trkpt>
      <trkpt lat="48.1411" lon="6.86504">
        <ele>691.40002441406</ele>
        <time>2026-09-02T14:08:15.000Z</time>
      </trkpt>
      <trkpt lat="48.1411" lon="6.86504">
        <ele>691.40002441406</ele>
        <time>2026-09-02T14:08:16.000Z</time>
      </trkpt>
      <trkpt lat="48.1411" lon="6.86504">
        <ele>691.40002441406</ele>
        <time>2026-09-02T14:08:17.000Z</time>
      </trkpt>
      <trkpt lat="48.1411" lon="6.86504">
        <ele>691.19995117188</ele>
        <time>2026-09-02T14:08:18.000Z</time>
      </trkpt>
      <trkpt lat="48.1411" lon="6.86504">
        <ele>691.19995117188</ele>
        <time>2026-09-02T14:08:19.000Z</time>
      </trkpt>
      <trkpt lat="48.1411" lon="6.86504">
        <ele>691</ele>
        <time>2026-09-02T14:08:20.000Z</time>
      </trkpt>
      <trkpt lat="48.1411" lon="6.86504">
        <ele>691</ele>
        <time>2026-09-02T14:08:21.000Z</time>
      </trkpt>
      <trkpt lat="48.1411" lon="6.86504">
        <ele>690.80004882812</ele>
        <time>2026-09-02T14:08:22.000Z</time>
      </trkpt>
      <trkpt lat="48.1411" lon="6.86504">
        <ele>690.80004882812</ele>
        <time>2026-09-02T14:08:23.000Z</time>
      </trkpt>
      <trkpt lat="48.1411" lon="6.86504">
        <ele>690.80004882812</ele>
        <time>2026-09-02T14:08:24.000Z</time>
      </trkpt>
      <trkpt lat="48.1411" lon="6.86504">
        <ele>690.80004882812</ele>
        <time>2026-09-02T14:08:25.000Z</time>
      </trkpt>
      <trkpt lat="48.1411" lon="6.86504">
        <ele>690.80004882812</ele>
        <time>2026-09-02T14:08:26.000Z</time>
      </trkpt>
      <trkpt lat="48.1411" lon="6.86504">
        <ele>690.80004882812</ele>
        <time>2026-09-02T14:08:27.000Z</time>
      </trkpt>
      <trkpt lat="48.1411" lon="6.86504">
        <ele>690.80004882812</ele>
        <time>2026-09-02T14:08:28.000Z</time>
      </trkpt>
      <trkpt lat="48.1411" lon="6.86504">
        <ele>690.80004882812</ele>
        <time>2026-09-02T14:08:29.000Z</time>
      </trkpt>
      <trkpt lat="48.1411" lon="6.86504">
        <ele>690.80004882812</ele>
        <time>2026-09-02T14:08:30.000Z</time>
      </trkpt>
      <trkpt lat="48.1411" lon="6.86504">
        <ele>690.80004882812</ele>
        <time>2026-09-02T14:08:31.000Z</time>
      </trkpt>
      <trkpt lat="48.1411" lon="6.86504">
        <ele>690.80004882812</ele>
        <time>2026-09-02T14:08:32.000Z</time>
      </trkpt>
      <trkpt lat="48.1411" lon="6.86504">
        <ele>690.80004882812</ele>
        <time>2026-09-02T14:08:33.000Z</time>
      </trkpt>
      <trkpt lat="48.1411" lon="6.86504">
        <ele>690.80004882812</ele>
        <time>2026-09-02T14:08:34.000Z</time>
      </trkpt>
      <trkpt lat="48.1411" lon="6.86504">
        <ele>690.80004882812</ele>
        <time>2026-09-02T14:08:35.000Z</time>
      </trkpt>
      <trkpt lat="48.1411" lon="6.86504">
        <ele>690.80004882812</ele>
        <time>2026-09-02T14:08:36.000Z</time>
      </trkpt>
      <trkpt lat="48.1411" lon="6.86504">
        <ele>690.80004882812</ele>
        <time>2026-09-02T14:08:37.000Z</time>
      </trkpt>
      <trkpt lat="48.1411" lon="6.86504">
        <ele>690.80004882812</ele>
        <time>2026-09-02T14:08:38.000Z</time>
      </trkpt>
      <trkpt lat="48.1411" lon="6.86504">
        <ele>690.59997558594</ele>
        <time>2026-09-02T14:08:39.000Z</time>
      </trkpt>
      <trkpt lat="48.1411" lon="6.86504">
        <ele>690.59997558594</ele>
        <time>2026-09-02T14:08:40.000Z</time>
      </trkpt>
      <trkpt lat="48.1411" lon="6.86504">
        <ele>690.59997558594</ele>
        <time>2026-09-02T14:08:41.000Z</time>
      </trkpt>
      <trkpt lat="48.1411" lon="6.86504">
        <ele>690.59997558594</ele>
        <time>2026-09-02T14:08:42.000Z</time>
      </trkpt>
      <trkpt lat="48.1411" lon="6.86504">
        <ele>690.59997558594</ele>
        <time>2026-09-02T14:08:43.000Z</time>
      </trkpt>
      <trkpt lat="48.1411" lon="6.86504">
        <ele>690.80004882812</ele>
        <time>2026-09-02T14:08:44.000Z</time>
      </trkpt>
      <trkpt lat="48.1411" lon="6.86504">
        <ele>690.80004882812</ele>
        <time>2026-09-02T14:08:45.000Z</time>
      </trkpt>
      <trkpt lat="48.1411" lon="6.86504">
        <ele>690.80004882812</ele>
        <time>2026-09-02T14:08:46.000Z</time>
      </trkpt>
      <trkpt lat="48.1411" lon="6.86504">
        <ele>690.80004882812</ele>
        <time>2026-09-02T14:08:47.000Z</time>
      </trkpt>
      <trkpt lat="48.1411" lon="6.86504">
        <ele>690.80004882812</ele>
        <time>2026-09-02T14:08:48.000Z</time>
      </trkpt>
      <trkpt lat="48.1411" lon="6.86504">
        <ele>690.80004882812</ele>
        <time>2026-09-02T14:08:49.000Z</time>
      </trkpt>
      <trkpt lat="48.1411" lon="6.86504">
        <ele>690.80004882812</ele>
        <time>2026-09-02T14:08:50.000Z</time>
      </trkpt>
      <trkpt lat="48.1411" lon="6.86504">
        <ele>690.80004882812</ele>
        <time>2026-09-02T14:08:51.000Z</time>
      </trkpt>
      <trkpt lat="48.1411" lon="6.86504">
        <ele>690.80004882812</ele>
        <time>2026-09-02T14:08:52.000Z</time>
      </trkpt>
      <trkpt lat="48.1411" lon="6.86504">
        <ele>690.59997558594</ele>
        <time>2026-09-02T14:08:53.000Z</time>
      </trkpt>
      <trkpt lat="48.1411" lon="6.86504">
        <ele>690.80004882812</ele>
        <time>2026-09-02T14:08:54.000Z</time>
      </trkpt>
      <trkpt lat="48.1411" lon="6.86504">
        <ele>690.80004882812</ele>
        <time>2026-09-02T14:08:55.000Z</time>
      </trkpt>
      <trkpt lat="48.1411" lon="6.86504">
        <ele>690.80004882812</ele>
        <time>2026-09-02T14:08:56.000Z</time>
      </trkpt>
      <trkpt lat="48.1411" lon="6.86504">
        <ele>691</ele>
        <time>2026-09-02T14:08:57.000Z</time>
      </trkpt>
      <trkpt lat="48.1411" lon="6.86504">
        <ele>691</ele>
        <time>2026-09-02T14:08:58.000Z</time>
      </trkpt>
      <trkpt lat="48.1411" lon="6.86504">
        <ele>691.19995117188</ele>
        <time>2026-09-02T14:08:59.000Z</time>
      </trkpt>
      <trkpt lat="48.1411" lon="6.86504">
        <ele>691</ele>
        <time>2026-09-02T14:09:00.000Z</time>
      </trkpt>
      <trkpt lat="48.1411" lon="6.86504">
        <ele>691</ele>
        <time>2026-09-02T14:09:01.000Z</time>
      </trkpt>
      <trkpt lat="48.1411" lon="6.86504">
        <ele>691</ele>
        <time>2026-09-02T14:09:02.000Z</time>
      </trkpt>
      <trkpt lat="48.1411" lon="6.86504">
        <ele>691</ele>
        <time>2026-09-02T14:09:03.000Z</time>
      </trkpt>
      <trkpt lat="48.1411" lon="6.86504">
        <ele>691</ele>
        <time>2026-09-02T14:09:04.000Z</time>
      </trkpt>
      <trkpt lat="48.1411" lon="6.86504">
        <ele>690.80004882812</ele>
        <time>2026-09-02T14:09:05.000Z</time>
      </trkpt>
      <trkpt lat="48.1411" lon="6.86504">
        <ele>690.80004882812</ele>
        <time>2026-09-02T14:09:06.000Z</time>
      </trkpt>
      <trkpt lat="48.1411" lon="6.86504">
        <ele>691</ele>
        <time>2026-09-02T14:09:07.000Z</time>
      </trkpt>
      <trkpt lat="48.1411" lon="6.86504">
        <ele>691</ele>
        <time>2026-09-02T14:09:08.000Z</time>
      </trkpt>
      <trkpt lat="48.1411" lon="6.86504">
        <ele>691</ele>
        <time>2026-09-02T14:09:09.000Z</time>
      </trkpt>
      <trkpt lat="48.1411" lon="6.86504">
        <ele>691</ele>
        <time>2026-09-02T14:09:10.000Z</time>
      </trkpt>
      <trkpt lat="48.1411" lon="6.86504">
        <ele>691</ele>
        <time>2026-09-02T14:09:11.000Z</time>
      </trkpt>
      <trkpt lat="48.1411" lon="6.86504">
        <ele>691</ele>
        <time>2026-09-02T14:09:12.000Z</time>
      </trkpt>
      <trkpt lat="48.1411" lon="6.86504">
        <ele>691</ele>
        <time>2026-09-02T14:09:13.000Z</time>
      </trkpt>
      <trkpt lat="48.1411" lon="6.86504">
        <ele>691</ele>
        <time>2026-09-02T14:09:14.000Z</time>
      </trkpt>
      <trkpt lat="48.1411" lon="6.86504">
        <ele>691</ele>
        <time>2026-09-02T14:09:15.000Z</time>
      </trkpt>
      <trkpt lat="48.1411" lon="6.86504">
        <ele>691</ele>
        <time>2026-09-02T14:09:16.000Z</time>
      </trkpt>
      <trkpt lat="48.1411" lon="6.86504">
        <ele>691</ele>
        <time>2026-09-02T14:09:17.000Z</time>
      </trkpt>
      <trkpt lat="48.1411" lon="6.86504">
        <ele>691</ele>
        <time>2026-09-02T14:09:18.000Z</time>
      </trkpt>
      <trkpt lat="48.1411" lon="6.86504">
        <ele>691</ele>
        <time>2026-09-02T14:09:19.000Z</time>
      </trkpt>
      <trkpt lat="48.1411" lon="6.86504">
        <ele>691</ele>
        <time>2026-09-02T14:09:20.000Z</time>
      </trkpt>
      <trkpt lat="48.1411" lon="6.86504">
        <ele>691</ele>
        <time>2026-09-02T14:09:21.000Z</time>
      </trkpt>
      <trkpt lat="48.1411" lon="6.86504">
        <ele>691.19995117188</ele>
        <time>2026-09-02T14:09:22.000Z</time>
      </trkpt>
      <trkpt lat="48.1411" lon="6.86504">
        <ele>691.19995117188</ele>
        <time>2026-09-02T14:09:23.000Z</time>
      </trkpt>
      <trkpt lat="48.1411" lon="6.86504">
        <ele>691.19995117188</ele>
        <time>2026-09-02T14:09:24.000Z</time>
      </trkpt>
      <trkpt lat="48.1411" lon="6.86504">
        <ele>691.19995117188</ele>
        <time>2026-09-02T14:09:25.000Z</time>
      </trkpt>
      <trkpt lat="48.1411" lon="6.86504">
        <ele>691.19995117188</ele>
        <time>2026-09-02T14:09:26.000Z</time>
      </trkpt>
      <trkpt lat="48.1411" lon="6.86504">
        <ele>691.40002441406</ele>
        <time>2026-09-02T14:09:27.000Z</time>
      </trkpt>
      <trkpt lat="48.1411" lon="6.86504">
        <ele>691.40002441406</ele>
        <time>2026-09-02T14:09:28.000Z</time>
      </trkpt>
      <trkpt lat="48.1411" lon="6.86504">
        <ele>691.40002441406</ele>
        <time>2026-09-02T14:09:29.000Z</time>
      </trkpt>
      <trkpt lat="48.1411" lon="6.86504">
        <ele>691.40002441406</ele>
        <time>2026-09-02T14:09:30.000Z</time>
      </trkpt>
      <trkpt lat="48.1411" lon="6.86504">
        <ele>691.40002441406</ele>
        <time>2026-09-02T14:09:31.000Z</time>
      </trkpt>
      <trkpt lat="48.1411" lon="6.86504">
        <ele>691.40002441406</ele>
        <time>2026-09-02T14:09:32.000Z</time>
      </trkpt>
      <trkpt lat="48.1411" lon="6.86504">
        <ele>691.40002441406</ele>
        <time>2026-09-02T14:09:33.000Z</time>
      </trkpt>
      <trkpt lat="48.1411" lon="6.86504">
        <ele>691.40002441406</ele>
        <time>2026-09-02T14:09:34.000Z</time>
      </trkpt>
      <trkpt lat="48.1411" lon="6.86504">
        <ele>691.19995117188</ele>
        <time>2026-09-02T14:09:35.000Z</time>
      </trkpt>
      <trkpt lat="48.1411" lon="6.86504">
        <ele>691.19995117188</ele>
        <time>2026-09-02T14:09:36.000Z</time>
      </trkpt>
      <trkpt lat="48.1411" lon="6.86504">
        <ele>691.19995117188</ele>
        <time>2026-09-02T14:09:37.000Z</time>
      </trkpt>
      <trkpt lat="48.1411" lon="6.86504">
        <ele>691.40002441406</ele>
        <time>2026-09-02T14:09:38.000Z</time>
      </trkpt>
      <trkpt lat="48.1411" lon="6.86504">
        <ele>691.40002441406</ele>
        <time>2026-09-02T14:09:39.000Z</time>
      </trkpt>
      <trkpt lat="48.1411" lon="6.86504">
        <ele>691.40002441406</ele>
        <time>2026-09-02T14:09:40.000Z</time>
      </trkpt>
      <trkpt lat="48.1411" lon="6.86504">
        <ele>691.40002441406</ele>
        <time>2026-09-02T14:09:41.000Z</time>
      </trkpt>
      <trkpt lat="48.1411" lon="6.86504">
        <ele>691.19995117188</ele>
        <time>2026-09-02T14:09:42.000Z</time>
      </trkpt>
      <trkpt lat="48.1411" lon="6.86504">
        <ele>691.19995117188</ele>
        <time>2026-09-02T14:09:43.000Z</time>
      </trkpt>
      <trkpt lat="48.1411" lon="6.86504">
        <ele>691.19995117188</ele>
        <time>2026-09-02T14:09:44.000Z</time>
      </trkpt>
      <trkpt lat="48.1411" lon="6.86504">
        <ele>691.19995117188</ele>
        <time>2026-09-02T14:09:45.000Z</time>
      </trkpt>
      <trkpt lat="48.1411" lon="6.86504">
        <ele>691.19995117188</ele>
        <time>2026-09-02T14:09:46.000Z</time>
      </trkpt>
      <trkpt lat="48.1411" lon="6.86504">
        <ele>691.19995117188</ele>
        <time>2026-09-02T14:09:47.000Z</time>
      </trkpt>
      <trkpt lat="48.1411" lon="6.86504">
        <ele>691.19995117188</ele>
        <time>2026-09-02T14:09:48.000Z</time>
      </trkpt>
      <trkpt lat="48.1411" lon="6.86504">
        <ele>691.19995117188</ele>
        <time>2026-09-02T14:09:49.000Z</time>
      </trkpt>
      <trkpt lat="48.1411" lon="6.86504">
        <ele>691</ele>
        <time>2026-09-02T14:09:50.000Z</time>
      </trkpt>
      <trkpt lat="48.1411" lon="6.86504">
        <ele>691.19995117188</ele>
        <time>2026-09-02T14:09:51.000Z</time>
      </trkpt>
      <trkpt lat="48.1411" lon="6.86504">
        <ele>691.19995117188</ele>
        <time>2026-09-02T14:09:52.000Z</time>
      </trkpt>
      <trkpt lat="48.1411" lon="6.86504">
        <ele>691.19995117188</ele>
        <time>2026-09-02T14:09:53.000Z</time>
      </trkpt>
      <trkpt lat="48.1411" lon="6.86504">
        <ele>691.19995117188</ele>
        <time>2026-09-02T14:09:54.000Z</time>
      </trkpt>
      <trkpt lat="48.1411" lon="6.86504">
        <ele>691.19995117188</ele>
        <time>2026-09-02T14:09:55.000Z</time>
      </trkpt>
      <trkpt lat="48.1411" lon="6.86504">
        <ele>691.19995117188</ele>
        <time>2026-09-02T14:09:56.000Z</time>
      </trkpt>
      <trkpt lat="48.1411" lon="6.86504">
        <ele>691.19995117188</ele>
        <time>2026-09-02T14:09:57.000Z</time>
      </trkpt>
      <trkpt lat="48.1411" lon="6.86504">
        <ele>691.19995117188</ele>
        <time>2026-09-02T14:09:58.000Z</time>
      </trkpt>
      <trkpt lat="48.1411" lon="6.86504">
        <ele>691.19995117188</ele>
        <time>2026-09-02T14:09:59.000Z</time>
      </trkpt>
      <trkpt lat="48.1411" lon="6.86504">
        <ele>691.19995117188</ele>
        <time>2026-09-02T14:10:00.000Z</time>
      </trkpt>
      <trkpt lat="48.1411" lon="6.86504">
        <ele>691.19995117188</ele>
        <time>2026-09-02T14:10:01.000Z</time>
      </trkpt>
      <trkpt lat="48.1411" lon="6.86504">
        <ele>691</ele>
        <time>2026-09-02T14:10:02.000Z</time>
      </trkpt>
      <trkpt lat="48.1411" lon="6.86504">
        <ele>691</ele>
        <time>2026-09-02T14:10:03.000Z</time>
      </trkpt>
      <trkpt lat="48.1411" lon="6.86504">
        <ele>690.80004882812</ele>
        <time>2026-09-02T14:10:04.000Z</time>
      </trkpt>
      <trkpt lat="48.1411" lon="6.86504">
        <ele>690.80004882812</ele>
        <time>2026-09-02T14:10:05.000Z</time>
      </trkpt>
      <trkpt lat="48.1411" lon="6.86504">
        <ele>690.80004882812</ele>
        <time>2026-09-02T14:10:06.000Z</time>
      </trkpt>
      <trkpt lat="48.1411" lon="6.86504">
        <ele>690.80004882812</ele>
        <time>2026-09-02T14:10:07.000Z</time>
      </trkpt>
      <trkpt lat="48.1411" lon="6.86504">
        <ele>691</ele>
        <time>2026-09-02T14:10:08.000Z</time>
      </trkpt>
      <trkpt lat="48.1411" lon="6.86504">
        <ele>691.19995117188</ele>
        <time>2026-09-02T14:10:09.000Z</time>
      </trkpt>
      <trkpt lat="48.1411" lon="6.86504">
        <ele>691.19995117188</ele>
        <time>2026-09-02T14:10:10.000Z</time>
      </trkpt>
      <trkpt lat="48.1411" lon="6.86504">
        <ele>691.19995117188</ele>
        <time>2026-09-02T14:10:11.000Z</time>
      </trkpt>
      <trkpt lat="48.1411" lon="6.86504">
        <ele>691.19995117188</ele>
        <time>2026-09-02T14:10:12.000Z</time>
      </trkpt>
      <trkpt lat="48.1411" lon="6.86504">
        <ele>691.19995117188</ele>
        <time>2026-09-02T14:10:13.000Z</time>
      </trkpt>
      <trkpt lat="48.1411" lon="6.86504">
        <ele>691.19995117188</ele>
        <time>2026-09-02T14:10:14.000Z</time>
      </trkpt>
      <trkpt lat="48.1411" lon="6.86504">
        <ele>691.19995117188</ele>
        <time>2026-09-02T14:10:15.000Z</time>
      </trkpt>
      <trkpt lat="48.1411" lon="6.86504">
        <ele>691.19995117188</ele>
        <time>2026-09-02T14:10:16.000Z</time>
      </trkpt>
      <trkpt lat="48.1411" lon="6.86504">
        <ele>691.19995117188</ele>
        <time>2026-09-02T14:10:17.000Z</time>
      </trkpt>
      <trkpt lat="48.1411" lon="6.86504">
        <ele>691.40002441406</ele>
        <time>2026-09-02T14:10:18.000Z</time>
      </trkpt>
      <trkpt lat="48.1411" lon="6.86504">
        <ele>691.40002441406</ele>
        <time>2026-09-02T14:10:19.000Z</time>
      </trkpt>
      <trkpt lat="48.1411" lon="6.86504">
        <ele>691.40002441406</ele>
        <time>2026-09-02T14:10:20.000Z</time>
      </trkpt>
      <trkpt lat="48.1411" lon="6.86504">
        <ele>691.59997558594</ele>
        <time>2026-09-02T14:10:21.000Z</time>
      </trkpt>
      <trkpt lat="48.1411" lon="6.86504">
        <ele>691.59997558594</ele>
        <time>2026-09-02T14:10:22.000Z</time>
      </trkpt>
      <trkpt lat="48.1411" lon="6.86504">
        <ele>691.59997558594</ele>
        <time>2026-09-02T14:10:23.000Z</time>
      </trkpt>
      <trkpt lat="48.1411" lon="6.86504">
        <ele>691.40002441406</ele>
        <time>2026-09-02T14:10:24.000Z</time>
      </trkpt>
      <trkpt lat="48.1411" lon="6.86504">
        <ele>691.40002441406</ele>
        <time>2026-09-02T14:10:25.000Z</time>
      </trkpt>
      <trkpt lat="48.1411" lon="6.86504">
        <ele>691.40002441406</ele>
        <time>2026-09-02T14:10:26.000Z</time>
      </trkpt>
      <trkpt lat="48.1411" lon="6.86504">
        <ele>691.40002441406</ele>
        <time>2026-09-02T14:10:27.000Z</time>
      </trkpt>
      <trkpt lat="48.1411" lon="6.86504">
        <ele>691.40002441406</ele>
        <time>2026-09-02T14:10:28.000Z</time>
      </trkpt>
      <trkpt lat="48.1411" lon="6.86504">
        <ele>691.40002441406</ele>
        <time>2026-09-02T14:10:29.000Z</time>
      </trkpt>
      <trkpt lat="48.1411" lon="6.86504">
        <ele>691.40002441406</ele>
        <time>2026-09-02T14:10:30.000Z</time>
      </trkpt>
      <trkpt lat="48.1411" lon="6.86504">
        <ele>691.40002441406</ele>
        <time>2026-09-02T14:10:31.000Z</time>
      </trkpt>
      <trkpt lat="48.1411" lon="6.86503">
        <ele>691.40002441406</ele>
        <time>2026-09-02T14:10:32.000Z</time>
      </trkpt>
      <trkpt lat="48.1411" lon="6.86503">
        <ele>691.40002441406</ele>
        <time>2026-09-02T14:10:33.000Z</time>
      </trkpt>
      <trkpt lat="48.1411" lon="6.86504">
        <ele>691.59997558594</ele>
        <time>2026-09-02T14:10:34.000Z</time>
      </trkpt>
      <trkpt lat="48.1411" lon="6.86504">
        <ele>691.59997558594</ele>
        <time>2026-09-02T14:10:35.000Z</time>
      </trkpt>
      <trkpt lat="48.1411" lon="6.86504">
        <ele>691.80004882812</ele>
        <time>2026-09-02T14:10:36.000Z</time>
      </trkpt>
      <trkpt lat="48.1411" lon="6.86504">
        <ele>692</ele>
        <time>2026-09-02T14:10:37.000Z</time>
      </trkpt>
      <trkpt lat="48.1411" lon="6.86503">
        <ele>692</ele>
        <time>2026-09-02T14:10:38.000Z</time>
      </trkpt>
      <trkpt lat="48.1411" lon="6.86504">
        <ele>692</ele>
        <time>2026-09-02T14:10:39.000Z</time>
      </trkpt>
      <trkpt lat="48.1411" lon="6.86504">
        <ele>692</ele>
        <time>2026-09-02T14:10:40.000Z</time>
      </trkpt>
      <trkpt lat="48.1411" lon="6.86504">
        <ele>691.80004882812</ele>
        <time>2026-09-02T14:10:41.000Z</time>
      </trkpt>
      <trkpt lat="48.1411" lon="6.86504">
        <ele>691.80004882812</ele>
        <time>2026-09-02T14:10:42.000Z</time>
      </trkpt>
      <trkpt lat="48.1411" lon="6.86504">
        <ele>691.59997558594</ele>
        <time>2026-09-02T14:10:43.000Z</time>
      </trkpt>
      <trkpt lat="48.1411" lon="6.86504">
        <ele>691.40002441406</ele>
        <time>2026-09-02T14:10:44.000Z</time>
      </trkpt>
      <trkpt lat="48.1411" lon="6.86504">
        <ele>691.40002441406</ele>
        <time>2026-09-02T14:10:45.000Z</time>
      </trkpt>
      <trkpt lat="48.1411" lon="6.86504">
        <ele>691.40002441406</ele>
        <time>2026-09-02T14:10:46.000Z</time>
      </trkpt>
      <trkpt lat="48.1411" lon="6.86504">
        <ele>691.40002441406</ele>
        <time>2026-09-02T14:10:47.000Z</time>
      </trkpt>
      <trkpt lat="48.1411" lon="6.86504">
        <ele>691.40002441406</ele>
        <time>2026-09-02T14:10:48.000Z</time>
      </trkpt>
      <trkpt lat="48.1411" lon="6.86504">
        <ele>691.40002441406</ele>
        <time>2026-09-02T14:10:49.000Z</time>
      </trkpt>
      <trkpt lat="48.1411" lon="6.86504">
        <ele>691.40002441406</ele>
        <time>2026-09-02T14:10:50.000Z</time>
      </trkpt>
      <trkpt lat="48.1411" lon="6.86504">
        <ele>691.40002441406</ele>
        <time>2026-09-02T14:10:51.000Z</time>
      </trkpt>
      <trkpt lat="48.1411" lon="6.86504">
        <ele>691.40002441406</ele>
        <time>2026-09-02T14:10:52.000Z</time>
      </trkpt>
      <trkpt lat="48.1411" lon="6.86504">
        <ele>691.40002441406</ele>
        <time>2026-09-02T14:10:53.000Z</time>
      </trkpt>
      <trkpt lat="48.1411" lon="6.86504">
        <ele>691.40002441406</ele>
        <time>2026-09-02T14:10:54.000Z</time>
      </trkpt>
      <trkpt lat="48.1411" lon="6.86504">
        <ele>691.40002441406</ele>
        <time>2026-09-02T14:10:55.000Z</time>
      </trkpt>
      <trkpt lat="48.1411" lon="6.86504">
        <ele>691.40002441406</ele>
        <time>2026-09-02T14:10:56.000Z</time>
      </trkpt>
      <trkpt lat="48.1411" lon="6.86504">
        <ele>691.40002441406</ele>
        <time>2026-09-02T14:10:57.000Z</time>
      </trkpt>
      <trkpt lat="48.1411" lon="6.86504">
        <ele>691.40002441406</ele>
        <time>2026-09-02T14:10:58.000Z</time>
      </trkpt>
      <trkpt lat="48.1411" lon="6.86504">
        <ele>691.40002441406</ele>
        <time>2026-09-02T14:10:59.000Z</time>
      </trkpt>
      <trkpt lat="48.1411" lon="6.86504">
        <ele>691.40002441406</ele>
        <time>2026-09-02T14:11:00.000Z</time>
      </trkpt>
      <trkpt lat="48.1411" lon="6.86504">
        <ele>691.40002441406</ele>
        <time>2026-09-02T14:11:01.000Z</time>
      </trkpt>
      <trkpt lat="48.1411" lon="6.86504">
        <ele>691.40002441406</ele>
        <time>2026-09-02T14:11:02.000Z</time>
      </trkpt>
      <trkpt lat="48.1411" lon="6.86504">
        <ele>691.40002441406</ele>
        <time>2026-09-02T14:11:03.000Z</time>
      </trkpt>
      <trkpt lat="48.1411" lon="6.86504">
        <ele>691.40002441406</ele>
        <time>2026-09-02T14:11:04.000Z</time>
      </trkpt>
      <trkpt lat="48.1411" lon="6.86504">
        <ele>691.40002441406</ele>
        <time>2026-09-02T14:11:05.000Z</time>
      </trkpt>
      <trkpt lat="48.1411" lon="6.86504">
        <ele>691.19995117188</ele>
        <time>2026-09-02T14:11:06.000Z</time>
      </trkpt>
      <trkpt lat="48.1411" lon="6.86504">
        <ele>691.19995117188</ele>
        <time>2026-09-02T14:11:07.000Z</time>
      </trkpt>
      <trkpt lat="48.1411" lon="6.86504">
        <ele>691.19995117188</ele>
        <time>2026-09-02T14:11:08.000Z</time>
      </trkpt>
      <trkpt lat="48.1411" lon="6.86504">
        <ele>691.19995117188</ele>
        <time>2026-09-02T14:11:09.000Z</time>
      </trkpt>
      <trkpt lat="48.1411" lon="6.86504">
        <ele>691.40002441406</ele>
        <time>2026-09-02T14:11:10.000Z</time>
      </trkpt>
      <trkpt lat="48.1411" lon="6.86504">
        <ele>691.40002441406</ele>
        <time>2026-09-02T14:11:11.000Z</time>
      </trkpt>
      <trkpt lat="48.1411" lon="6.86504">
        <ele>691.40002441406</ele>
        <time>2026-09-02T14:11:12.000Z</time>
      </trkpt>
      <trkpt lat="48.1411" lon="6.86504">
        <ele>691.40002441406</ele>
        <time>2026-09-02T14:11:13.000Z</time>
      </trkpt>
      <trkpt lat="48.1411" lon="6.86504">
        <ele>691.40002441406</ele>
        <time>2026-09-02T14:11:14.000Z</time>
      </trkpt>
      <trkpt lat="48.1411" lon="6.86504">
        <ele>691.19995117188</ele>
        <time>2026-09-02T14:11:15.000Z</time>
      </trkpt>
      <trkpt lat="48.1411" lon="6.86504">
        <ele>691.19995117188</ele>
        <time>2026-09-02T14:11:16.000Z</time>
      </trkpt>
      <trkpt lat="48.1411" lon="6.86504">
        <ele>691.19995117188</ele>
        <time>2026-09-02T14:11:17.000Z</time>
      </trkpt>
      <trkpt lat="48.1411" lon="6.86504">
        <ele>691.19995117188</ele>
        <time>2026-09-02T14:11:18.000Z</time>
      </trkpt>
      <trkpt lat="48.1411" lon="6.86504">
        <ele>691.19995117188</ele>
        <time>2026-09-02T14:11:19.000Z</time>
      </trkpt>
      <trkpt lat="48.1411" lon="6.86504">
        <ele>691.19995117188</ele>
        <time>2026-09-02T14:11:20.000Z</time>
      </trkpt>
      <trkpt lat="48.1411" lon="6.86504">
        <ele>691.19995117188</ele>
        <time>2026-09-02T14:11:21.000Z</time>
      </trkpt>
      <trkpt lat="48.1411" lon="6.86504">
        <ele>691.40002441406</ele>
        <time>2026-09-02T14:11:22.000Z</time>
      </trkpt>
      <trkpt lat="48.1411" lon="6.86504">
        <ele>691.40002441406</ele>
        <time>2026-09-02T14:11:23.000Z</time>
      </trkpt>
      <trkpt lat="48.1411" lon="6.86504">
        <ele>691.59997558594</ele>
        <time>2026-09-02T14:11:24.000Z</time>
      </trkpt>
      <trkpt lat="48.1411" lon="6.86504">
        <ele>691.59997558594</ele>
        <time>2026-09-02T14:11:25.000Z</time>
      </trkpt>
      <trkpt lat="48.1411" lon="6.86504">
        <ele>691.59997558594</ele>
        <time>2026-09-02T14:11:26.000Z</time>
      </trkpt>
      <trkpt lat="48.1411" lon="6.86504">
        <ele>691.59997558594</ele>
        <time>2026-09-02T14:11:27.000Z</time>
      </trkpt>
      <trkpt lat="48.1411" lon="6.86504">
        <ele>691.40002441406</ele>
        <time>2026-09-02T14:11:28.000Z</time>
      </trkpt>
      <trkpt lat="48.1411" lon="6.86504">
        <ele>691.40002441406</ele>
        <time>2026-09-02T14:11:29.000Z</time>
      </trkpt>
      <trkpt lat="48.1411" lon="6.86504">
        <ele>691.40002441406</ele>
        <time>2026-09-02T14:11:30.000Z</time>
      </trkpt>
      <trkpt lat="48.1411" lon="6.86504">
        <ele>691.40002441406</ele>
        <time>2026-09-02T14:11:31.000Z</time>
      </trkpt>
      <trkpt lat="48.1411" lon="6.86504">
        <ele>691.59997558594</ele>
        <time>2026-09-02T14:11:32.000Z</time>
      </trkpt>
      <trkpt lat="48.1411" lon="6.86504">
        <ele>691.40002441406</ele>
        <time>2026-09-02T14:11:33.000Z</time>
      </trkpt>
      <trkpt lat="48.1411" lon="6.86504">
        <ele>691.40002441406</ele>
        <time>2026-09-02T14:11:34.000Z</time>
      </trkpt>
      <trkpt lat="48.1411" lon="6.86504">
        <ele>691.40002441406</ele>
        <time>2026-09-02T14:11:35.000Z</time>
      </trkpt>
      <trkpt lat="48.1411" lon="6.86504">
        <ele>691.40002441406</ele>
        <time>2026-09-02T14:11:36.000Z</time>
      </trkpt>
      <trkpt lat="48.1411" lon="6.86504">
        <ele>691.40002441406</ele>
        <time>2026-09-02T14:11:37.000Z</time>
      </trkpt>
      <trkpt lat="48.14109" lon="6.86504">
        <ele>691.40002441406</ele>
        <time>2026-09-02T14:11:38.000Z</time>
      </trkpt>
      <trkpt lat="48.14109" lon="6.86504">
        <ele>691.40002441406</ele>
        <time>2026-09-02T14:11:39.000Z</time>
      </trkpt>
      <trkpt lat="48.1411" lon="6.86504">
        <ele>691.40002441406</ele>
        <time>2026-09-02T14:11:40.000Z</time>
      </trkpt>
      <trkpt lat="48.1411" lon="6.86504">
        <ele>691.40002441406</ele>
        <time>2026-09-02T14:11:41.000Z</time>
      </trkpt>
      <trkpt lat="48.1411" lon="6.86504">
        <ele>691.40002441406</ele>
        <time>2026-09-02T14:11:42.000Z</time>
      </trkpt>
      <trkpt lat="48.1411" lon="6.86504">
        <ele>691.40002441406</ele>
        <time>2026-09-02T14:11:43.000Z</time>
      </trkpt>
      <trkpt lat="48.1411" lon="6.86504">
        <ele>691.40002441406</ele>
        <time>2026-09-02T14:11:44.000Z</time>
      </trkpt>
      <trkpt lat="48.1411" lon="6.86504">
        <ele>691.40002441406</ele>
        <time>2026-09-02T14:11:45.000Z</time>
      </trkpt>
      <trkpt lat="48.1411" lon="6.86504">
        <ele>691.40002441406</ele>
        <time>2026-09-02T14:11:46.000Z</time>
      </trkpt>
      <trkpt lat="48.1411" lon="6.86504">
        <ele>691.40002441406</ele>
        <time>2026-09-02T14:11:47.000Z</time>
      </trkpt>
      <trkpt lat="48.1411" lon="6.86504">
        <ele>691.40002441406</ele>
        <time>2026-09-02T14:11:48.000Z</time>
      </trkpt>
      <trkpt lat="48.1411" lon="6.86504">
        <ele>691.59997558594</ele>
        <time>2026-09-02T14:11:49.000Z</time>
      </trkpt>
      <trkpt lat="48.1411" lon="6.86504">
        <ele>691.59997558594</ele>
        <time>2026-09-02T14:11:50.000Z</time>
      </trkpt>
      <trkpt lat="48.1411" lon="6.86504">
        <ele>691.59997558594</ele>
        <time>2026-09-02T14:11:51.000Z</time>
      </trkpt>
      <trkpt lat="48.1411" lon="6.86504">
        <ele>691.59997558594</ele>
        <time>2026-09-02T14:11:52.000Z</time>
      </trkpt>
      <trkpt lat="48.1411" lon="6.86504">
        <ele>691.59997558594</ele>
        <time>2026-09-02T14:11:53.000Z</time>
      </trkpt>
      <trkpt lat="48.1411" lon="6.86504">
        <ele>691.59997558594</ele>
        <time>2026-09-02T14:11:54.000Z</time>
      </trkpt>
      <trkpt lat="48.1411" lon="6.86504">
        <ele>691.40002441406</ele>
        <time>2026-09-02T14:11:55.000Z</time>
      </trkpt>
      <trkpt lat="48.1411" lon="6.86504">
        <ele>691.40002441406</ele>
        <time>2026-09-02T14:11:56.000Z</time>
      </trkpt>
      <trkpt lat="48.1411" lon="6.86504">
        <ele>691.40002441406</ele>
        <time>2026-09-02T14:11:57.000Z</time>
      </trkpt>
      <trkpt lat="48.1411" lon="6.86504">
        <ele>691.40002441406</ele>
        <time>2026-09-02T14:11:58.000Z</time>
      </trkpt>
      <trkpt lat="48.1411" lon="6.86504">
        <ele>691.40002441406</ele>
        <time>2026-09-02T14:11:59.000Z</time>
      </trkpt>
      <trkpt lat="48.1411" lon="6.86504">
        <ele>691.40002441406</ele>
        <time>2026-09-02T14:12:00.000Z</time>
      </trkpt>
      <trkpt lat="48.1411" lon="6.86504">
        <ele>691.40002441406</ele>
        <time>2026-09-02T14:12:01.000Z</time>
      </trkpt>
      <trkpt lat="48.1411" lon="6.86504">
        <ele>691.40002441406</ele>
        <time>2026-09-02T14:12:02.000Z</time>
      </trkpt>
      <trkpt lat="48.1411" lon="6.86504">
        <ele>691.19995117188</ele>
        <time>2026-09-02T14:12:03.000Z</time>
      </trkpt>
      <trkpt lat="48.1411" lon="6.86504">
        <ele>691.40002441406</ele>
        <time>2026-09-02T14:12:04.000Z</time>
      </trkpt>
      <trkpt lat="48.1411" lon="6.86504">
        <ele>691.40002441406</ele>
        <time>2026-09-02T14:12:05.000Z</time>
      </trkpt>
      <trkpt lat="48.1411" lon="6.86504">
        <ele>691.40002441406</ele>
        <time>2026-09-02T14:12:06.000Z</time>
      </trkpt>
      <trkpt lat="48.1411" lon="6.86504">
        <ele>691.40002441406</ele>
        <time>2026-09-02T14:12:07.000Z</time>
      </trkpt>
      <trkpt lat="48.1411" lon="6.86504">
        <ele>691.40002441406</ele>
        <time>2026-09-02T14:12:08.000Z</time>
      </trkpt>
      <trkpt lat="48.1411" lon="6.86504">
        <ele>691.40002441406</ele>
        <time>2026-09-02T14:12:09.000Z</time>
      </trkpt>
      <trkpt lat="48.1411" lon="6.86504">
        <ele>691.19995117188</ele>
        <time>2026-09-02T14:12:10.000Z</time>
      </trkpt>
      <trkpt lat="48.1411" lon="6.86504">
        <ele>691.19995117188</ele>
        <time>2026-09-02T14:12:11.000Z</time>
      </trkpt>
      <trkpt lat="48.1411" lon="6.86504">
        <ele>691.19995117188</ele>
        <time>2026-09-02T14:12:12.000Z</time>
      </trkpt>
      <trkpt lat="48.1411" lon="6.86504">
        <ele>691.19995117188</ele>
        <time>2026-09-02T14:12:13.000Z</time>
      </trkpt>
      <trkpt lat="48.1411" lon="6.86504">
        <ele>691.19995117188</ele>
        <time>2026-09-02T14:12:14.000Z</time>
      </trkpt>
      <trkpt lat="48.1411" lon="6.86504">
        <ele>691.19995117188</ele>
        <time>2026-09-02T14:12:15.000Z</time>
      </trkpt>
      <trkpt lat="48.1411" lon="6.86504">
        <ele>691.19995117188</ele>
        <time>2026-09-02T14:12:16.000Z</time>
      </trkpt>
      <trkpt lat="48.1411" lon="6.86504">
        <ele>691.40002441406</ele>
        <time>2026-09-02T14:12:17.000Z</time>
      </trkpt>
      <trkpt lat="48.14109" lon="6.86504">
        <ele>691.59997558594</ele>
        <time>2026-09-02T14:12:18.000Z</time>
      </trkpt>
      <trkpt lat="48.1411" lon="6.86504">
        <ele>691.59997558594</ele>
        <time>2026-09-02T14:12:19.000Z</time>
      </trkpt>
      <trkpt lat="48.1411" lon="6.86504">
        <ele>691.80004882812</ele>
        <time>2026-09-02T14:12:20.000Z</time>
      </trkpt>
      <trkpt lat="48.1411" lon="6.86504">
        <ele>692</ele>
        <time>2026-09-02T14:12:21.000Z</time>
      </trkpt>
      <trkpt lat="48.1411" lon="6.86504">
        <ele>692</ele>
        <time>2026-09-02T14:12:22.000Z</time>
      </trkpt>
      <trkpt lat="48.1411" lon="6.86504">
        <ele>692</ele>
        <time>2026-09-02T14:12:23.000Z</time>
      </trkpt>
      <trkpt lat="48.1411" lon="6.86504">
        <ele>691.80004882812</ele>
        <time>2026-09-02T14:12:24.000Z</time>
      </trkpt>
      <trkpt lat="48.1411" lon="6.86504">
        <ele>691.80004882812</ele>
        <time>2026-09-02T14:12:25.000Z</time>
      </trkpt>
      <trkpt lat="48.1411" lon="6.86504">
        <ele>691.80004882812</ele>
        <time>2026-09-02T14:12:26.000Z</time>
      </trkpt>
      <trkpt lat="48.1411" lon="6.86504">
        <ele>691.80004882812</ele>
        <time>2026-09-02T14:12:27.000Z</time>
      </trkpt>
      <trkpt lat="48.1411" lon="6.86504">
        <ele>691.80004882812</ele>
        <time>2026-09-02T14:12:28.000Z</time>
      </trkpt>
      <trkpt lat="48.1411" lon="6.86504">
        <ele>691.80004882812</ele>
        <time>2026-09-02T14:12:29.000Z</time>
      </trkpt>
      <trkpt lat="48.1411" lon="6.86504">
        <ele>691.80004882812</ele>
        <time>2026-09-02T14:12:30.000Z</time>
      </trkpt>
      <trkpt lat="48.1411" lon="6.86504">
        <ele>691.80004882812</ele>
        <time>2026-09-02T14:12:31.000Z</time>
      </trkpt>
      <trkpt lat="48.1411" lon="6.86504">
        <ele>691.80004882812</ele>
        <time>2026-09-02T14:12:32.000Z</time>
      </trkpt>
      <trkpt lat="48.1411" lon="6.86504">
        <ele>691.80004882812</ele>
        <time>2026-09-02T14:12:33.000Z</time>
      </trkpt>
      <trkpt lat="48.1411" lon="6.86504">
        <ele>692</ele>
        <time>2026-09-02T14:12:34.000Z</time>
      </trkpt>
      <trkpt lat="48.1411" lon="6.86504">
        <ele>692</ele>
        <time>2026-09-02T14:12:35.000Z</time>
      </trkpt>
      <trkpt lat="48.1411" lon="6.86504">
        <ele>692</ele>
        <time>2026-09-02T14:12:36.000Z</time>
      </trkpt>
      <trkpt lat="48.1411" lon="6.86504">
        <ele>691.80004882812</ele>
        <time>2026-09-02T14:12:37.000Z</time>
      </trkpt>
      <trkpt lat="48.1411" lon="6.86504">
        <ele>691.80004882812</ele>
        <time>2026-09-02T14:12:38.000Z</time>
      </trkpt>
      <trkpt lat="48.1411" lon="6.86504">
        <ele>691.80004882812</ele>
        <time>2026-09-02T14:12:39.000Z</time>
      </trkpt>
      <trkpt lat="48.1411" lon="6.86504">
        <ele>691.80004882812</ele>
        <time>2026-09-02T14:12:40.000Z</time>
      </trkpt>
      <trkpt lat="48.1411" lon="6.86504">
        <ele>691.80004882812</ele>
        <time>2026-09-02T14:12:41.000Z</time>
      </trkpt>
      <trkpt lat="48.1411" lon="6.86504">
        <ele>691.59997558594</ele>
        <time>2026-09-02T14:12:42.000Z</time>
      </trkpt>
      <trkpt lat="48.1411" lon="6.86504">
        <ele>691.59997558594</ele>
        <time>2026-09-02T14:12:43.000Z</time>
      </trkpt>
      <trkpt lat="48.1411" lon="6.86504">
        <ele>691.59997558594</ele>
        <time>2026-09-02T14:12:44.000Z</time>
      </trkpt>
      <trkpt lat="48.1411" lon="6.86504">
        <ele>691.59997558594</ele>
        <time>2026-09-02T14:12:45.000Z</time>
      </trkpt>
      <trkpt lat="48.1411" lon="6.86504">
        <ele>691.40002441406</ele>
        <time>2026-09-02T14:12:46.000Z</time>
      </trkpt>
      <trkpt lat="48.1411" lon="6.86504">
        <ele>691.40002441406</ele>
        <time>2026-09-02T14:12:47.000Z</time>
      </trkpt>
      <trkpt lat="48.1411" lon="6.86504">
        <ele>691.40002441406</ele>
        <time>2026-09-02T14:12:48.000Z</time>
      </trkpt>
      <trkpt lat="48.1411" lon="6.86504">
        <ele>691.19995117188</ele>
        <time>2026-09-02T14:12:49.000Z</time>
      </trkpt>
      <trkpt lat="48.1411" lon="6.86504">
        <ele>691.19995117188</ele>
        <time>2026-09-02T14:12:50.000Z</time>
      </trkpt>
      <trkpt lat="48.1411" lon="6.86504">
        <ele>691.19995117188</ele>
        <time>2026-09-02T14:12:51.000Z</time>
      </trkpt>
      <trkpt lat="48.1411" lon="6.86504">
        <ele>691.19995117188</ele>
        <time>2026-09-02T14:12:52.000Z</time>
      </trkpt>
      <trkpt lat="48.1411" lon="6.86504">
        <ele>691.19995117188</ele>
        <time>2026-09-02T14:12:53.000Z</time>
      </trkpt>
      <trkpt lat="48.1411" lon="6.86504">
        <ele>691.19995117188</ele>
        <time>2026-09-02T14:12:54.000Z</time>
      </trkpt>
      <trkpt lat="48.1411" lon="6.86504">
        <ele>691.40002441406</ele>
        <time>2026-09-02T14:12:55.000Z</time>
      </trkpt>
      <trkpt lat="48.1411" lon="6.86504">
        <ele>691.40002441406</ele>
        <time>2026-09-02T14:12:56.000Z</time>
      </trkpt>
      <trkpt lat="48.1411" lon="6.86504">
        <ele>691.40002441406</ele>
        <time>2026-09-02T14:12:57.000Z</time>
      </trkpt>
      <trkpt lat="48.1411" lon="6.86504">
        <ele>691.59997558594</ele>
        <time>2026-09-02T14:12:58.000Z</time>
      </trkpt>
      <trkpt lat="48.1411" lon="6.86504">
        <ele>691.59997558594</ele>
        <time>2026-09-02T14:12:59.000Z</time>
      </trkpt>
      <trkpt lat="48.1411" lon="6.86504">
        <ele>691.59997558594</ele>
        <time>2026-09-02T14:13:00.000Z</time>
      </trkpt>
      <trkpt lat="48.1411" lon="6.86504">
        <ele>691.40002441406</ele>
        <time>2026-09-02T14:13:01.000Z</time>
      </trkpt>
      <trkpt lat="48.1411" lon="6.86504">
        <ele>691.40002441406</ele>
        <time>2026-09-02T14:13:02.000Z</time>
      </trkpt>
      <trkpt lat="48.1411" lon="6.86504">
        <ele>691.40002441406</ele>
        <time>2026-09-02T14:13:03.000Z</time>
      </trkpt>
      <trkpt lat="48.1411" lon="6.86504">
        <ele>691.19995117188</ele>
        <time>2026-09-02T14:13:04.000Z</time>
      </trkpt>
      <trkpt lat="48.1411" lon="6.86504">
        <ele>691.19995117188</ele>
        <time>2026-09-02T14:13:05.000Z</time>
      </trkpt>
      <trkpt lat="48.1411" lon="6.86504">
        <ele>691.19995117188</ele>
        <time>2026-09-02T14:13:06.000Z</time>
      </trkpt>
      <trkpt lat="48.1411" lon="6.86504">
        <ele>691.19995117188</ele>
        <time>2026-09-02T14:13:07.000Z</time>
      </trkpt>
      <trkpt lat="48.1411" lon="6.86504">
        <ele>691.19995117188</ele>
        <time>2026-09-02T14:13:08.000Z</time>
      </trkpt>
      <trkpt lat="48.1411" lon="6.86504">
        <ele>691.19995117188</ele>
        <time>2026-09-02T14:13:09.000Z</time>
      </trkpt>
      <trkpt lat="48.1411" lon="6.86504">
        <ele>691.19995117188</ele>
        <time>2026-09-02T14:13:10.000Z</time>
      </trkpt>
      <trkpt lat="48.1411" lon="6.86504">
        <ele>691.19995117188</ele>
        <time>2026-09-02T14:13:11.000Z</time>
      </trkpt>
      <trkpt lat="48.1411" lon="6.86504">
        <ele>691</ele>
        <time>2026-09-02T14:13:12.000Z</time>
      </trkpt>
      <trkpt lat="48.14109" lon="6.86504">
        <ele>691</ele>
        <time>2026-09-02T14:13:13.000Z</time>
      </trkpt>
      <trkpt lat="48.1411" lon="6.86504">
        <ele>691.19995117188</ele>
        <time>2026-09-02T14:13:14.000Z</time>
      </trkpt>
      <trkpt lat="48.1411" lon="6.86504">
        <ele>691.40002441406</ele>
        <time>2026-09-02T14:13:15.000Z</time>
      </trkpt>
      <trkpt lat="48.1411" lon="6.86504">
        <ele>691.59997558594</ele>
        <time>2026-09-02T14:13:16.000Z</time>
      </trkpt>
      <trkpt lat="48.1411" lon="6.86504">
        <ele>691.80004882812</ele>
        <time>2026-09-02T14:13:17.000Z</time>
      </trkpt>
      <trkpt lat="48.1411" lon="6.86504">
        <ele>691.80004882812</ele>
        <time>2026-09-02T14:13:18.000Z</time>
      </trkpt>
      <trkpt lat="48.1411" lon="6.86504">
        <ele>691.80004882812</ele>
        <time>2026-09-02T14:13:19.000Z</time>
      </trkpt>
      <trkpt lat="48.1411" lon="6.86504">
        <ele>691.80004882812</ele>
        <time>2026-09-02T14:13:20.000Z</time>
      </trkpt>
      <trkpt lat="48.1411" lon="6.86504">
        <ele>691.59997558594</ele>
        <time>2026-09-02T14:13:21.000Z</time>
      </trkpt>
      <trkpt lat="48.1411" lon="6.86504">
        <ele>691.59997558594</ele>
        <time>2026-09-02T14:13:22.000Z</time>
      </trkpt>
      <trkpt lat="48.1411" lon="6.86504">
        <ele>691.40002441406</ele>
        <time>2026-09-02T14:13:23.000Z</time>
      </trkpt>
      <trkpt lat="48.1411" lon="6.86504">
        <ele>691.40002441406</ele>
        <time>2026-09-02T14:13:24.000Z</time>
      </trkpt>
      <trkpt lat="48.1411" lon="6.86504">
        <ele>691.40002441406</ele>
        <time>2026-09-02T14:13:25.000Z</time>
      </trkpt>
      <trkpt lat="48.1411" lon="6.86504">
        <ele>691.19995117188</ele>
        <time>2026-09-02T14:13:26.000Z</time>
      </trkpt>
      <trkpt lat="48.1411" lon="6.86504">
        <ele>691.40002441406</ele>
        <time>2026-09-02T14:13:27.000Z</time>
      </trkpt>
      <trkpt lat="48.1411" lon="6.86504">
        <ele>691.40002441406</ele>
        <time>2026-09-02T14:13:28.000Z</time>
      </trkpt>
      <trkpt lat="48.1411" lon="6.86504">
        <ele>691.40002441406</ele>
        <time>2026-09-02T14:13:29.000Z</time>
      </trkpt>
      <trkpt lat="48.1411" lon="6.86504">
        <ele>691.40002441406</ele>
        <time>2026-09-02T14:13:30.000Z</time>
      </trkpt>
      <trkpt lat="48.1411" lon="6.86504">
        <ele>691.40002441406</ele>
        <time>2026-09-02T14:13:31.000Z</time>
      </trkpt>
      <trkpt lat="48.1411" lon="6.86504">
        <ele>691.40002441406</ele>
        <time>2026-09-02T14:13:32.000Z</time>
      </trkpt>
      <trkpt lat="48.1411" lon="6.86504">
        <ele>691.59997558594</ele>
        <time>2026-09-02T14:13:33.000Z</time>
      </trkpt>
      <trkpt lat="48.1411" lon="6.86504">
        <ele>691.59997558594</ele>
        <time>2026-09-02T14:13:34.000Z</time>
      </trkpt>
      <trkpt lat="48.1411" lon="6.86504">
        <ele>691.80004882812</ele>
        <time>2026-09-02T14:13:35.000Z</time>
      </trkpt>
      <trkpt lat="48.1411" lon="6.86504">
        <ele>691.80004882812</ele>
        <time>2026-09-02T14:13:36.000Z</time>
      </trkpt>
      <trkpt lat="48.1411" lon="6.86504">
        <ele>692</ele>
        <time>2026-09-02T14:13:37.000Z</time>
      </trkpt>
      <trkpt lat="48.1411" lon="6.86504">
        <ele>692</ele>
        <time>2026-09-02T14:13:38.000Z</time>
      </trkpt>
      <trkpt lat="48.1411" lon="6.86504">
        <ele>692</ele>
        <time>2026-09-02T14:13:39.000Z</time>
      </trkpt>
      <trkpt lat="48.1411" lon="6.86504">
        <ele>692</ele>
        <time>2026-09-02T14:13:40.000Z</time>
      </trkpt>
      <trkpt lat="48.1411" lon="6.86504">
        <ele>692</ele>
        <time>2026-09-02T14:13:41.000Z</time>
      </trkpt>
      <trkpt lat="48.1411" lon="6.86504">
        <ele>692</ele>
        <time>2026-09-02T14:13:42.000Z</time>
      </trkpt>
      <trkpt lat="48.1411" lon="6.86504">
        <ele>692</ele>
        <time>2026-09-02T14:13:43.000Z</time>
      </trkpt>
      <trkpt lat="48.14111" lon="6.86504">
        <ele>692</ele>
        <time>2026-09-02T14:13:44.000Z</time>
      </trkpt>
      <trkpt lat="48.14111" lon="6.86503">
        <ele>692</ele>
        <time>2026-09-02T14:13:45.000Z</time>
      </trkpt>
      <trkpt lat="48.14111" lon="6.86502">
        <ele>692</ele>
        <time>2026-09-02T14:13:46.000Z</time>
      </trkpt>
      <trkpt lat="48.14111" lon="6.86502">
        <ele>692</ele>
        <time>2026-09-02T14:13:47.000Z</time>
      </trkpt>
      <trkpt lat="48.14111" lon="6.86502">
        <ele>692</ele>
        <time>2026-09-02T14:13:48.000Z</time>
      </trkpt>
      <trkpt lat="48.14111" lon="6.86502">
        <ele>692.19995117188</ele>
        <time>2026-09-02T14:13:49.000Z</time>
      </trkpt>
      <trkpt lat="48.14111" lon="6.86502">
        <ele>692.19995117188</ele>
        <time>2026-09-02T14:13:50.000Z</time>
      </trkpt>
      <trkpt lat="48.14111" lon="6.86502">
        <ele>692.19995117188</ele>
        <time>2026-09-02T14:13:51.000Z</time>
      </trkpt>
      <trkpt lat="48.14111" lon="6.86502">
        <ele>692.19995117188</ele>
        <time>2026-09-02T14:13:52.000Z</time>
      </trkpt>
      <trkpt lat="48.14111" lon="6.86502">
        <ele>692</ele>
        <time>2026-09-02T14:13:53.000Z</time>
      </trkpt>
      <trkpt lat="48.14111" lon="6.86502">
        <ele>692</ele>
        <time>2026-09-02T14:13:54.000Z</time>
      </trkpt>
      <trkpt lat="48.14111" lon="6.86502">
        <ele>692</ele>
        <time>2026-09-02T14:13:55.000Z</time>
      </trkpt>
      <trkpt lat="48.14111" lon="6.86502">
        <ele>692</ele>
        <time>2026-09-02T14:13:56.000Z</time>
      </trkpt>
      <trkpt lat="48.14111" lon="6.86502">
        <ele>692</ele>
        <time>2026-09-02T14:13:57.000Z</time>
      </trkpt>
      <trkpt lat="48.14111" lon="6.86502">
        <ele>692</ele>
        <time>2026-09-02T14:13:58.000Z</time>
      </trkpt>
      <trkpt lat="48.14111" lon="6.86502">
        <ele>692</ele>
        <time>2026-09-02T14:13:59.000Z</time>
      </trkpt>
      <trkpt lat="48.14111" lon="6.86502">
        <ele>692</ele>
        <time>2026-09-02T14:14:00.000Z</time>
      </trkpt>
      <trkpt lat="48.14111" lon="6.86502">
        <ele>691.80004882812</ele>
        <time>2026-09-02T14:14:01.000Z</time>
      </trkpt>
      <trkpt lat="48.14111" lon="6.86502">
        <ele>691.80004882812</ele>
        <time>2026-09-02T14:14:02.000Z</time>
      </trkpt>
      <trkpt lat="48.14111" lon="6.86502">
        <ele>691.80004882812</ele>
        <time>2026-09-02T14:14:03.000Z</time>
      </trkpt>
      <trkpt lat="48.14111" lon="6.86502">
        <ele>691.80004882812</ele>
        <time>2026-09-02T14:14:04.000Z</time>
      </trkpt>
      <trkpt lat="48.14111" lon="6.86502">
        <ele>691.80004882812</ele>
        <time>2026-09-02T14:14:05.000Z</time>
      </trkpt>
      <trkpt lat="48.14111" lon="6.86502">
        <ele>692</ele>
        <time>2026-09-02T14:14:06.000Z</time>
      </trkpt>
      <trkpt lat="48.14111" lon="6.86502">
        <ele>692</ele>
        <time>2026-09-02T14:14:07.000Z</time>
      </trkpt>
      <trkpt lat="48.14111" lon="6.86502">
        <ele>691.80004882812</ele>
        <time>2026-09-02T14:14:08.000Z</time>
      </trkpt>
      <trkpt lat="48.14111" lon="6.86502">
        <ele>691.80004882812</ele>
        <time>2026-09-02T14:14:09.000Z</time>
      </trkpt>
      <trkpt lat="48.14111" lon="6.86502">
        <ele>691.80004882812</ele>
        <time>2026-09-02T14:14:10.000Z</time>
      </trkpt>
      <trkpt lat="48.14111" lon="6.86502">
        <ele>691.59997558594</ele>
        <time>2026-09-02T14:14:11.000Z</time>
      </trkpt>
      <trkpt lat="48.14111" lon="6.86502">
        <ele>691.59997558594</ele>
        <time>2026-09-02T14:14:12.000Z</time>
      </trkpt>
      <trkpt lat="48.14112" lon="6.86502">
        <ele>691.59997558594</ele>
        <time>2026-09-02T14:14:13.000Z</time>
      </trkpt>
      <trkpt lat="48.14111" lon="6.86502">
        <ele>691.80004882812</ele>
        <time>2026-09-02T14:14:14.000Z</time>
      </trkpt>
      <trkpt lat="48.14111" lon="6.86502">
        <ele>691.80004882812</ele>
        <time>2026-09-02T14:14:15.000Z</time>
      </trkpt>
      <trkpt lat="48.14111" lon="6.86502">
        <ele>692</ele>
        <time>2026-09-02T14:14:16.000Z</time>
      </trkpt>
      <trkpt lat="48.14111" lon="6.86502">
        <ele>692</ele>
        <time>2026-09-02T14:14:17.000Z</time>
      </trkpt>
      <trkpt lat="48.14111" lon="6.86502">
        <ele>692.19995117188</ele>
        <time>2026-09-02T14:14:18.000Z</time>
      </trkpt>
      <trkpt lat="48.14111" lon="6.86502">
        <ele>692.19995117188</ele>
        <time>2026-09-02T14:14:19.000Z</time>
      </trkpt>
      <trkpt lat="48.14111" lon="6.86502">
        <ele>692.19995117188</ele>
        <time>2026-09-02T14:14:20.000Z</time>
      </trkpt>
      <trkpt lat="48.14111" lon="6.86502">
        <ele>692.19995117188</ele>
        <time>2026-09-02T14:14:21.000Z</time>
      </trkpt>
      <trkpt lat="48.14111" lon="6.86502">
        <ele>692.19995117188</ele>
        <time>2026-09-02T14:14:22.000Z</time>
      </trkpt>
      <trkpt lat="48.14111" lon="6.86502">
        <ele>692</ele>
        <time>2026-09-02T14:14:23.000Z</time>
      </trkpt>
      <trkpt lat="48.14111" lon="6.86502">
        <ele>692</ele>
        <time>2026-09-02T14:14:24.000Z</time>
      </trkpt>
      <trkpt lat="48.14111" lon="6.86502">
        <ele>692</ele>
        <time>2026-09-02T14:14:25.000Z</time>
      </trkpt>
      <trkpt lat="48.14111" lon="6.86502">
        <ele>692</ele>
        <time>2026-09-02T14:14:26.000Z</time>
      </trkpt>
      <trkpt lat="48.14111" lon="6.86502">
        <ele>692</ele>
        <time>2026-09-02T14:14:27.000Z</time>
      </trkpt>
      <trkpt lat="48.14111" lon="6.86502">
        <ele>692</ele>
        <time>2026-09-02T14:14:28.000Z</time>
      </trkpt>
      <trkpt lat="48.14111" lon="6.86502">
        <ele>692</ele>
        <time>2026-09-02T14:14:29.000Z</time>
      </trkpt>
      <trkpt lat="48.14111" lon="6.86502">
        <ele>692</ele>
        <time>2026-09-02T14:14:30.000Z</time>
      </trkpt>
      <trkpt lat="48.14111" lon="6.86502">
        <ele>692</ele>
        <time>2026-09-02T14:14:31.000Z</time>
      </trkpt>
      <trkpt lat="48.14112" lon="6.86502">
        <ele>692</ele>
        <time>2026-09-02T14:14:32.000Z</time>
      </trkpt>
      <trkpt lat="48.14113" lon="6.86503">
        <ele>692.19995117188</ele>
        <time>2026-09-02T14:14:33.000Z</time>
      </trkpt>
      <trkpt lat="48.14114" lon="6.86503">
        <ele>692</ele>
        <time>2026-09-02T14:14:34.000Z</time>
      </trkpt>
      <trkpt lat="48.14114" lon="6.86504">
        <ele>692</ele>
        <time>2026-09-02T14:14:35.000Z</time>
      </trkpt>
      <trkpt lat="48.14115" lon="6.86505">
        <ele>691.80004882812</ele>
        <time>2026-09-02T14:14:36.000Z</time>
      </trkpt>
      <trkpt lat="48.14116" lon="6.86505">
        <ele>691.80004882812</ele>
        <time>2026-09-02T14:14:37.000Z</time>
      </trkpt>
      <trkpt lat="48.14116" lon="6.86507">
        <ele>691.40002441406</ele>
        <time>2026-09-02T14:14:42.000Z</time>
      </trkpt>
      <trkpt lat="48.14116" lon="6.86507">
        <ele>691.40002441406</ele>
        <time>2026-09-02T14:14:43.000Z</time>
      </trkpt>
      <trkpt lat="48.14116" lon="6.86507">
        <ele>691.59997558594</ele>
        <time>2026-09-02T14:14:44.000Z</time>
      </trkpt>
      <trkpt lat="48.14116" lon="6.86507">
        <ele>691.59997558594</ele>
        <time>2026-09-02T14:14:45.000Z</time>
      </trkpt>
      <trkpt lat="48.14116" lon="6.86507">
        <ele>691.80004882812</ele>
        <time>2026-09-02T14:14:46.000Z</time>
      </trkpt>
      <trkpt lat="48.14116" lon="6.86507">
        <ele>691.80004882812</ele>
        <time>2026-09-02T14:14:47.000Z</time>
      </trkpt>
      <trkpt lat="48.14116" lon="6.86507">
        <ele>692</ele>
        <time>2026-09-02T14:14:48.000Z</time>
      </trkpt>
      <trkpt lat="48.14116" lon="6.86507">
        <ele>692</ele>
        <time>2026-09-02T14:14:49.000Z</time>
      </trkpt>
      <trkpt lat="48.14116" lon="6.86507">
        <ele>692</ele>
        <time>2026-09-02T14:14:50.000Z</time>
      </trkpt>
      <trkpt lat="48.14116" lon="6.86507">
        <ele>691.80004882812</ele>
        <time>2026-09-02T14:14:51.000Z</time>
      </trkpt>
      <trkpt lat="48.14116" lon="6.86507">
        <ele>691.80004882812</ele>
        <time>2026-09-02T14:14:52.000Z</time>
      </trkpt>
      <trkpt lat="48.14116" lon="6.86507">
        <ele>691.80004882812</ele>
        <time>2026-09-02T14:14:53.000Z</time>
      </trkpt>
      <trkpt lat="48.14116" lon="6.86507">
        <ele>691.59997558594</ele>
        <time>2026-09-02T14:14:54.000Z</time>
      </trkpt>
      <trkpt lat="48.14116" lon="6.86507">
        <ele>691.59997558594</ele>
        <time>2026-09-02T14:14:55.000Z</time>
      </trkpt>
      <trkpt lat="48.14116" lon="6.86507">
        <ele>691.80004882812</ele>
        <time>2026-09-02T14:14:56.000Z</time>
      </trkpt>
      <trkpt lat="48.14116" lon="6.86507">
        <ele>691.80004882812</ele>
        <time>2026-09-02T14:14:57.000Z</time>
      </trkpt>
      <trkpt lat="48.14116" lon="6.86507">
        <ele>691.80004882812</ele>
        <time>2026-09-02T14:14:58.000Z</time>
      </trkpt>
      <trkpt lat="48.14116" lon="6.86508">
        <ele>691.59997558594</ele>
        <time>2026-09-02T14:14:59.000Z</time>
      </trkpt>
      <trkpt lat="48.14116" lon="6.86509">
        <ele>691.59997558594</ele>
        <time>2026-09-02T14:15:00.000Z</time>
      </trkpt>
      <trkpt lat="48.14116" lon="6.86509">
        <ele>691.40002441406</ele>
        <time>2026-09-02T14:15:01.000Z</time>
      </trkpt>
      <trkpt lat="48.14116" lon="6.86509">
        <ele>691.40002441406</ele>
        <time>2026-09-02T14:15:02.000Z</time>
      </trkpt>
      <trkpt lat="48.14116" lon="6.86507">
        <ele>691.40002441406</ele>
        <time>2026-09-02T14:15:03.000Z</time>
      </trkpt>
      <trkpt lat="48.14116" lon="6.86507">
        <ele>691.59997558594</ele>
        <time>2026-09-02T14:15:04.000Z</time>
      </trkpt>
      <trkpt lat="48.14116" lon="6.86507">
        <ele>691.59997558594</ele>
        <time>2026-09-02T14:15:05.000Z</time>
      </trkpt>
      <trkpt lat="48.14116" lon="6.86507">
        <ele>691.59997558594</ele>
        <time>2026-09-02T14:15:06.000Z</time>
      </trkpt>
      <trkpt lat="48.14116" lon="6.86507">
        <ele>691.59997558594</ele>
        <time>2026-09-02T14:15:07.000Z</time>
      </trkpt>
      <trkpt lat="48.14116" lon="6.86507">
        <ele>691.59997558594</ele>
        <time>2026-09-02T14:15:08.000Z</time>
      </trkpt>
      <trkpt lat="48.14116" lon="6.86507">
        <ele>691.40002441406</ele>
        <time>2026-09-02T14:15:09.000Z</time>
      </trkpt>
      <trkpt lat="48.14116" lon="6.86507">
        <ele>691.40002441406</ele>
        <time>2026-09-02T14:15:10.000Z</time>
      </trkpt>
      <trkpt lat="48.14116" lon="6.86507">
        <ele>691.19995117188</ele>
        <time>2026-09-02T14:15:11.000Z</time>
      </trkpt>
      <trkpt lat="48.14116" lon="6.86507">
        <ele>691.19995117188</ele>
        <time>2026-09-02T14:15:12.000Z</time>
      </trkpt>
      <trkpt lat="48.14116" lon="6.86507">
        <ele>691</ele>
        <time>2026-09-02T14:15:13.000Z</time>
      </trkpt>
      <trkpt lat="48.14116" lon="6.86507">
        <ele>691</ele>
        <time>2026-09-02T14:15:14.000Z</time>
      </trkpt>
      <trkpt lat="48.14116" lon="6.86507">
        <ele>691</ele>
        <time>2026-09-02T14:15:15.000Z</time>
      </trkpt>
      <trkpt lat="48.14116" lon="6.86507">
        <ele>691</ele>
        <time>2026-09-02T14:15:16.000Z</time>
      </trkpt>
      <trkpt lat="48.14116" lon="6.86507">
        <ele>691</ele>
        <time>2026-09-02T14:15:17.000Z</time>
      </trkpt>
      <trkpt lat="48.14116" lon="6.86507">
        <ele>691.19995117188</ele>
        <time>2026-09-02T14:15:18.000Z</time>
      </trkpt>
      <trkpt lat="48.14116" lon="6.86507">
        <ele>691.40002441406</ele>
        <time>2026-09-02T14:15:19.000Z</time>
      </trkpt>
      <trkpt lat="48.14116" lon="6.86507">
        <ele>691.59997558594</ele>
        <time>2026-09-02T14:15:20.000Z</time>
      </trkpt>
      <trkpt lat="48.14116" lon="6.86507">
        <ele>691.59997558594</ele>
        <time>2026-09-02T14:15:21.000Z</time>
      </trkpt>
      <trkpt lat="48.14116" lon="6.86507">
        <ele>691.59997558594</ele>
        <time>2026-09-02T14:15:22.000Z</time>
      </trkpt>
      <trkpt lat="48.14116" lon="6.86507">
        <ele>691.40002441406</ele>
        <time>2026-09-02T14:15:23.000Z</time>
      </trkpt>
      <trkpt lat="48.14116" lon="6.86507">
        <ele>691.40002441406</ele>
        <time>2026-09-02T14:15:24.000Z</time>
      </trkpt>
      <trkpt lat="48.14116" lon="6.86507">
        <ele>691.40002441406</ele>
        <time>2026-09-02T14:15:25.000Z</time>
      </trkpt>
      <trkpt lat="48.14116" lon="6.86507">
        <ele>691.40002441406</ele>
        <time>2026-09-02T14:15:26.000Z</time>
      </trkpt>
      <trkpt lat="48.14116" lon="6.86507">
        <ele>691.40002441406</ele>
        <time>2026-09-02T14:15:27.000Z</time>
      </trkpt>
      <trkpt lat="48.14115" lon="6.86508">
        <ele>691.59997558594</ele>
        <time>2026-09-02T14:15:28.000Z</time>
      </trkpt>
      <trkpt lat="48.14114" lon="6.86508">
        <ele>691.59997558594</ele>
        <time>2026-09-02T14:15:29.000Z</time>
      </trkpt>
      <trkpt lat="48.14113" lon="6.86507">
        <ele>691.59997558594</ele>
        <time>2026-09-02T14:15:30.000Z</time>
      </trkpt>
      <trkpt lat="48.14113" lon="6.86506">
        <ele>691.59997558594</ele>
        <time>2026-09-02T14:15:31.000Z</time>
      </trkpt>
      <trkpt lat="48.14112" lon="6.86506">
        <ele>691.19995117188</ele>
        <time>2026-09-02T14:15:32.000Z</time>
      </trkpt>
      <trkpt lat="48.14111" lon="6.86506">
        <ele>691</ele>
        <time>2026-09-02T14:15:33.000Z</time>
      </trkpt>
      <trkpt lat="48.14111" lon="6.86505">
        <ele>690.80004882812</ele>
        <time>2026-09-02T14:15:34.000Z</time>
      </trkpt>
      <trkpt lat="48.1411" lon="6.86504">
        <ele>690.80004882812</ele>
        <time>2026-09-02T14:15:35.000Z</time>
      </trkpt>
      <trkpt lat="48.14109" lon="6.86504">
        <ele>690.80004882812</ele>
        <time>2026-09-02T14:15:36.000Z</time>
      </trkpt>
      <trkpt lat="48.14109" lon="6.86503">
        <ele>690.80004882812</ele>
        <time>2026-09-02T14:15:37.000Z</time>
      </trkpt>
      <trkpt lat="48.14108" lon="6.86504">
        <ele>690.80004882812</ele>
        <time>2026-09-02T14:15:38.000Z</time>
      </trkpt>
      <trkpt lat="48.14108" lon="6.86504">
        <ele>690.80004882812</ele>
        <time>2026-09-02T14:15:39.000Z</time>
      </trkpt>
      <trkpt lat="48.14107" lon="6.86505">
        <ele>690.80004882812</ele>
        <time>2026-09-02T14:15:40.000Z</time>
      </trkpt>
      <trkpt lat="48.14107" lon="6.86505">
        <ele>690.80004882812</ele>
        <time>2026-09-02T14:15:41.000Z</time>
      </trkpt>
      <trkpt lat="48.14106" lon="6.86505">
        <ele>691</ele>
        <time>2026-09-02T14:15:42.000Z</time>
      </trkpt>
      <trkpt lat="48.14106" lon="6.86506">
        <ele>691</ele>
        <time>2026-09-02T14:15:43.000Z</time>
      </trkpt>
      <trkpt lat="48.14105" lon="6.86506">
        <ele>691</ele>
        <time>2026-09-02T14:15:44.000Z</time>
      </trkpt>
      <trkpt lat="48.14104" lon="6.86507">
        <ele>691</ele>
        <time>2026-09-02T14:15:45.000Z</time>
      </trkpt>
      <trkpt lat="48.14104" lon="6.86507">
        <ele>691</ele>
        <time>2026-09-02T14:15:46.000Z</time>
      </trkpt>
      <trkpt lat="48.14104" lon="6.86508">
        <ele>691</ele>
        <time>2026-09-02T14:15:47.000Z</time>
      </trkpt>
      <trkpt lat="48.14103" lon="6.8651">
        <ele>691.19995117188</ele>
        <time>2026-09-02T14:15:48.000Z</time>
      </trkpt>
      <trkpt lat="48.14102" lon="6.8651">
        <ele>691.40002441406</ele>
        <time>2026-09-02T14:15:49.000Z</time>
      </trkpt>
      <trkpt lat="48.14101" lon="6.86512">
        <ele>691.59997558594</ele>
        <time>2026-09-02T14:15:50.000Z</time>
      </trkpt>
      <trkpt lat="48.14101" lon="6.86513">
        <ele>691.80004882812</ele>
        <time>2026-09-02T14:15:51.000Z</time>
      </trkpt>
      <trkpt lat="48.141" lon="6.86514">
        <ele>692</ele>
        <time>2026-09-02T14:15:52.000Z</time>
      </trkpt>
      <trkpt lat="48.14099" lon="6.86515">
        <ele>692</ele>
        <time>2026-09-02T14:15:53.000Z</time>
      </trkpt>
      <trkpt lat="48.14098" lon="6.86515">
        <ele>691.80004882812</ele>
        <time>2026-09-02T14:15:54.000Z</time>
      </trkpt>
      <trkpt lat="48.14098" lon="6.86516">
        <ele>691.80004882812</ele>
        <time>2026-09-02T14:15:55.000Z</time>
      </trkpt>
      <trkpt lat="48.14097" lon="6.86518">
        <ele>691.80004882812</ele>
        <time>2026-09-02T14:15:56.000Z</time>
      </trkpt>
      <trkpt lat="48.14096" lon="6.86519">
        <ele>691.80004882812</ele>
        <time>2026-09-02T14:15:57.000Z</time>
      </trkpt>
      <trkpt lat="48.14095" lon="6.86519">
        <ele>691.80004882812</ele>
        <time>2026-09-02T14:15:58.000Z</time>
      </trkpt>
      <trkpt lat="48.14094" lon="6.86521">
        <ele>692</ele>
        <time>2026-09-02T14:15:59.000Z</time>
      </trkpt>
      <trkpt lat="48.14093" lon="6.86522">
        <ele>692</ele>
        <time>2026-09-02T14:16:00.000Z</time>
      </trkpt>
      <trkpt lat="48.14092" lon="6.86522">
        <ele>692</ele>
        <time>2026-09-02T14:16:01.000Z</time>
      </trkpt>
      <trkpt lat="48.14091" lon="6.86522">
        <ele>691.80004882812</ele>
        <time>2026-09-02T14:16:02.000Z</time>
      </trkpt>
      <trkpt lat="48.1409" lon="6.86523">
        <ele>691.59997558594</ele>
        <time>2026-09-02T14:16:03.000Z</time>
      </trkpt>
      <trkpt lat="48.1409" lon="6.86523">
        <ele>691.40002441406</ele>
        <time>2026-09-02T14:16:04.000Z</time>
      </trkpt>
      <trkpt lat="48.14089" lon="6.86524">
        <ele>691.19995117188</ele>
        <time>2026-09-02T14:16:05.000Z</time>
      </trkpt>
      <trkpt lat="48.14088" lon="6.86525">
        <ele>691.19995117188</ele>
        <time>2026-09-02T14:16:06.000Z</time>
      </trkpt>
      <trkpt lat="48.14088" lon="6.86526">
        <ele>691.19995117188</ele>
        <time>2026-09-02T14:16:07.000Z</time>
      </trkpt>
      <trkpt lat="48.14088" lon="6.86527">
        <ele>691.40002441406</ele>
        <time>2026-09-02T14:16:08.000Z</time>
      </trkpt>
      <trkpt lat="48.14087" lon="6.86527">
        <ele>691.40002441406</ele>
        <time>2026-09-02T14:16:09.000Z</time>
      </trkpt>
      <trkpt lat="48.14087" lon="6.86527">
        <ele>691.59997558594</ele>
        <time>2026-09-02T14:16:10.000Z</time>
      </trkpt>
      <trkpt lat="48.14086" lon="6.86528">
        <ele>691.80004882812</ele>
        <time>2026-09-02T14:16:11.000Z</time>
      </trkpt>
      <trkpt lat="48.14085" lon="6.86528">
        <ele>692.19995117188</ele>
        <time>2026-09-02T14:16:12.000Z</time>
      </trkpt>
      <trkpt lat="48.14084" lon="6.86528">
        <ele>692.40002441406</ele>
        <time>2026-09-02T14:16:13.000Z</time>
      </trkpt>
      <trkpt lat="48.14083" lon="6.8653">
        <ele>692.59997558594</ele>
        <time>2026-09-02T14:16:14.000Z</time>
      </trkpt>
      <trkpt lat="48.14083" lon="6.86531">
        <ele>692.80004882812</ele>
        <time>2026-09-02T14:16:15.000Z</time>
      </trkpt>
      <trkpt lat="48.14082" lon="6.86532">
        <ele>692.80004882812</ele>
        <time>2026-09-02T14:16:16.000Z</time>
      </trkpt>
      <trkpt lat="48.14081" lon="6.86533">
        <ele>692.80004882812</ele>
        <time>2026-09-02T14:16:17.000Z</time>
      </trkpt>
      <trkpt lat="48.1408" lon="6.86534">
        <ele>692.80004882812</ele>
        <time>2026-09-02T14:16:18.000Z</time>
      </trkpt>
      <trkpt lat="48.14079" lon="6.86534">
        <ele>692.80004882812</ele>
        <time>2026-09-02T14:16:19.000Z</time>
      </trkpt>
      <trkpt lat="48.14079" lon="6.86535">
        <ele>692.80004882812</ele>
        <time>2026-09-02T14:16:20.000Z</time>
      </trkpt>
      <trkpt lat="48.14079" lon="6.86535">
        <ele>692.80004882812</ele>
        <time>2026-09-02T14:16:21.000Z</time>
      </trkpt>
      <trkpt lat="48.14077" lon="6.86537">
        <ele>692.80004882812</ele>
        <time>2026-09-02T14:16:22.000Z</time>
      </trkpt>
      <trkpt lat="48.14076" lon="6.86537">
        <ele>692.80004882812</ele>
        <time>2026-09-02T14:16:23.000Z</time>
      </trkpt>
      <trkpt lat="48.14075" lon="6.86539">
        <ele>692.80004882812</ele>
        <time>2026-09-02T14:16:24.000Z</time>
      </trkpt>
      <trkpt lat="48.14074" lon="6.86539">
        <ele>692.80004882812</ele>
        <time>2026-09-02T14:16:25.000Z</time>
      </trkpt>
      <trkpt lat="48.14073" lon="6.8654">
        <ele>692.59997558594</ele>
        <time>2026-09-02T14:16:26.000Z</time>
      </trkpt>
      <trkpt lat="48.14073" lon="6.86541">
        <ele>692.59997558594</ele>
        <time>2026-09-02T14:16:27.000Z</time>
      </trkpt>
      <trkpt lat="48.14072" lon="6.86542">
        <ele>692.59997558594</ele>
        <time>2026-09-02T14:16:28.000Z</time>
      </trkpt>
      <trkpt lat="48.14071" lon="6.86544">
        <ele>692.59997558594</ele>
        <time>2026-09-02T14:16:29.000Z</time>
      </trkpt>
      <trkpt lat="48.14071" lon="6.86544">
        <ele>692.80004882812</ele>
        <time>2026-09-02T14:16:30.000Z</time>
      </trkpt>
      <trkpt lat="48.1407" lon="6.86545">
        <ele>693</ele>
        <time>2026-09-02T14:16:31.000Z</time>
      </trkpt>
      <trkpt lat="48.1407" lon="6.86546">
        <ele>693</ele>
        <time>2026-09-02T14:16:32.000Z</time>
      </trkpt>
      <trkpt lat="48.14069" lon="6.86547">
        <ele>693.19995117188</ele>
        <time>2026-09-02T14:16:33.000Z</time>
      </trkpt>
      <trkpt lat="48.14069" lon="6.86548">
        <ele>693.19995117188</ele>
        <time>2026-09-02T14:16:34.000Z</time>
      </trkpt>
      <trkpt lat="48.14068" lon="6.86549">
        <ele>693.40002441406</ele>
        <time>2026-09-02T14:16:35.000Z</time>
      </trkpt>
      <trkpt lat="48.14067" lon="6.86549">
        <ele>693.40002441406</ele>
        <time>2026-09-02T14:16:36.000Z</time>
      </trkpt>
      <trkpt lat="48.14067" lon="6.8655">
        <ele>693.40002441406</ele>
        <time>2026-09-02T14:16:37.000Z</time>
      </trkpt>
      <trkpt lat="48.14066" lon="6.86552">
        <ele>693.40002441406</ele>
        <time>2026-09-02T14:16:38.000Z</time>
      </trkpt>
      <trkpt lat="48.14065" lon="6.86553">
        <ele>693.40002441406</ele>
        <time>2026-09-02T14:16:39.000Z</time>
      </trkpt>
      <trkpt lat="48.14064" lon="6.86553">
        <ele>693.40002441406</ele>
        <time>2026-09-02T14:16:40.000Z</time>
      </trkpt>
      <trkpt lat="48.14063" lon="6.86554">
        <ele>693.40002441406</ele>
        <time>2026-09-02T14:16:41.000Z</time>
      </trkpt>
      <trkpt lat="48.14063" lon="6.86555">
        <ele>693.40002441406</ele>
        <time>2026-09-02T14:16:42.000Z</time>
      </trkpt>
      <trkpt lat="48.14062" lon="6.86556">
        <ele>693.59997558594</ele>
        <time>2026-09-02T14:16:43.000Z</time>
      </trkpt>
      <trkpt lat="48.14061" lon="6.86555">
        <ele>693.59997558594</ele>
        <time>2026-09-02T14:16:44.000Z</time>
      </trkpt>
      <trkpt lat="48.14062" lon="6.86554">
        <ele>693.80004882812</ele>
        <time>2026-09-02T14:16:45.000Z</time>
      </trkpt>
      <trkpt lat="48.14062" lon="6.86553">
        <ele>693.80004882812</ele>
        <time>2026-09-02T14:16:46.000Z</time>
      </trkpt>
      <trkpt lat="48.14062" lon="6.86553">
        <ele>693.80004882812</ele>
        <time>2026-09-02T14:16:47.000Z</time>
      </trkpt>
      <trkpt lat="48.14063" lon="6.86553">
        <ele>693.80004882812</ele>
        <time>2026-09-02T14:16:48.000Z</time>
      </trkpt>
      <trkpt lat="48.14063" lon="6.86553">
        <ele>693.59997558594</ele>
        <time>2026-09-02T14:16:49.000Z</time>
      </trkpt>
      <trkpt lat="48.14063" lon="6.86553">
        <ele>693.40002441406</ele>
        <time>2026-09-02T14:16:50.000Z</time>
      </trkpt>
      <trkpt lat="48.14063" lon="6.86553">
        <ele>693.40002441406</ele>
        <time>2026-09-02T14:16:51.000Z</time>
      </trkpt>
      <trkpt lat="48.14063" lon="6.86553">
        <ele>693.19995117188</ele>
        <time>2026-09-02T14:16:52.000Z</time>
      </trkpt>
      <trkpt lat="48.14063" lon="6.86553">
        <ele>693</ele>
        <time>2026-09-02T14:16:53.000Z</time>
      </trkpt>
      <trkpt lat="48.14063" lon="6.86553">
        <ele>693</ele>
        <time>2026-09-02T14:16:54.000Z</time>
      </trkpt>
      <trkpt lat="48.14063" lon="6.86553">
        <ele>693</ele>
        <time>2026-09-02T14:16:55.000Z</time>
      </trkpt>
      <trkpt lat="48.14063" lon="6.86553">
        <ele>693</ele>
        <time>2026-09-02T14:16:56.000Z</time>
      </trkpt>
      <trkpt lat="48.14063" lon="6.86553">
        <ele>693</ele>
        <time>2026-09-02T14:16:57.000Z</time>
      </trkpt>
      <trkpt lat="48.14063" lon="6.86553">
        <ele>693</ele>
        <time>2026-09-02T14:16:58.000Z</time>
      </trkpt>
      <trkpt lat="48.14063" lon="6.86553">
        <ele>693</ele>
        <time>2026-09-02T14:16:59.000Z</time>
      </trkpt>
      <trkpt lat="48.14063" lon="6.86553">
        <ele>693</ele>
        <time>2026-09-02T14:17:00.000Z</time>
      </trkpt>
      <trkpt lat="48.14063" lon="6.86553">
        <ele>693</ele>
        <time>2026-09-02T14:17:01.000Z</time>
      </trkpt>
      <trkpt lat="48.14063" lon="6.86553">
        <ele>692.80004882812</ele>
        <time>2026-09-02T14:17:02.000Z</time>
      </trkpt>
      <trkpt lat="48.14063" lon="6.86553">
        <ele>692.80004882812</ele>
        <time>2026-09-02T14:17:03.000Z</time>
      </trkpt>
      <trkpt lat="48.14063" lon="6.86553">
        <ele>692.80004882812</ele>
        <time>2026-09-02T14:17:04.000Z</time>
      </trkpt>
      <trkpt lat="48.14063" lon="6.86553">
        <ele>693</ele>
        <time>2026-09-02T14:17:05.000Z</time>
      </trkpt>
      <trkpt lat="48.14063" lon="6.86553">
        <ele>693</ele>
        <time>2026-09-02T14:17:06.000Z</time>
      </trkpt>
      <trkpt lat="48.14063" lon="6.86553">
        <ele>693</ele>
        <time>2026-09-02T14:17:07.000Z</time>
      </trkpt>
      <trkpt lat="48.14063" lon="6.86553">
        <ele>693</ele>
        <time>2026-09-02T14:17:08.000Z</time>
      </trkpt>
      <trkpt lat="48.14063" lon="6.86553">
        <ele>693.19995117188</ele>
        <time>2026-09-02T14:17:09.000Z</time>
      </trkpt>
      <trkpt lat="48.14063" lon="6.86553">
        <ele>693.19995117188</ele>
        <time>2026-09-02T14:17:10.000Z</time>
      </trkpt>
      <trkpt lat="48.14063" lon="6.86553">
        <ele>693</ele>
        <time>2026-09-02T14:17:11.000Z</time>
      </trkpt>
      <trkpt lat="48.14063" lon="6.86553">
        <ele>693</ele>
        <time>2026-09-02T14:17:12.000Z</time>
      </trkpt>
      <trkpt lat="48.14063" lon="6.86553">
        <ele>692.80004882812</ele>
        <time>2026-09-02T14:17:13.000Z</time>
      </trkpt>
      <trkpt lat="48.14063" lon="6.86553">
        <ele>692.80004882812</ele>
        <time>2026-09-02T14:17:14.000Z</time>
      </trkpt>
      <trkpt lat="48.14063" lon="6.86553">
        <ele>692.80004882812</ele>
        <time>2026-09-02T14:17:15.000Z</time>
      </trkpt>
      <trkpt lat="48.14063" lon="6.86553">
        <ele>692.80004882812</ele>
        <time>2026-09-02T14:17:16.000Z</time>
      </trkpt>
      <trkpt lat="48.14063" lon="6.86553">
        <ele>692.80004882812</ele>
        <time>2026-09-02T14:17:17.000Z</time>
      </trkpt>
      <trkpt lat="48.14063" lon="6.86553">
        <ele>693</ele>
        <time>2026-09-02T14:17:18.000Z</time>
      </trkpt>
      <trkpt lat="48.14063" lon="6.86553">
        <ele>693</ele>
        <time>2026-09-02T14:17:19.000Z</time>
      </trkpt>
      <trkpt lat="48.14063" lon="6.86553">
        <ele>693</ele>
        <time>2026-09-02T14:17:20.000Z</time>
      </trkpt>
      <trkpt lat="48.14063" lon="6.86553">
        <ele>693</ele>
        <time>2026-09-02T14:17:21.000Z</time>
      </trkpt>
      <trkpt lat="48.14063" lon="6.86553">
        <ele>693</ele>
        <time>2026-09-02T14:17:22.000Z</time>
      </trkpt>
      <trkpt lat="48.14063" lon="6.86553">
        <ele>692.80004882812</ele>
        <time>2026-09-02T14:17:23.000Z</time>
      </trkpt>
      <trkpt lat="48.14063" lon="6.86553">
        <ele>692.80004882812</ele>
        <time>2026-09-02T14:17:24.000Z</time>
      </trkpt>
      <trkpt lat="48.14063" lon="6.86553">
        <ele>692.80004882812</ele>
        <time>2026-09-02T14:17:25.000Z</time>
      </trkpt>
      <trkpt lat="48.14063" lon="6.86553">
        <ele>692.80004882812</ele>
        <time>2026-09-02T14:17:26.000Z</time>
      </trkpt>
      <trkpt lat="48.14063" lon="6.86553">
        <ele>692.80004882812</ele>
        <time>2026-09-02T14:17:27.000Z</time>
      </trkpt>
      <trkpt lat="48.14063" lon="6.86553">
        <ele>692.80004882812</ele>
        <time>2026-09-02T14:17:28.000Z</time>
      </trkpt>
      <trkpt lat="48.14063" lon="6.86553">
        <ele>692.80004882812</ele>
        <time>2026-09-02T14:17:29.000Z</time>
      </trkpt>
      <trkpt lat="48.14063" lon="6.86553">
        <ele>692.80004882812</ele>
        <time>2026-09-02T14:17:30.000Z</time>
      </trkpt>
      <trkpt lat="48.14063" lon="6.86553">
        <ele>692.80004882812</ele>
        <time>2026-09-02T14:17:31.000Z</time>
      </trkpt>
      <trkpt lat="48.14063" lon="6.86553">
        <ele>692.80004882812</ele>
        <time>2026-09-02T14:17:32.000Z</time>
      </trkpt>
      <trkpt lat="48.14063" lon="6.86553">
        <ele>693</ele>
        <time>2026-09-02T14:17:33.000Z</time>
      </trkpt>
      <trkpt lat="48.14063" lon="6.86553">
        <ele>692.80004882812</ele>
        <time>2026-09-02T14:17:34.000Z</time>
      </trkpt>
      <trkpt lat="48.14063" lon="6.86553">
        <ele>692.80004882812</ele>
        <time>2026-09-02T14:17:35.000Z</time>
      </trkpt>
      <trkpt lat="48.14063" lon="6.86553">
        <ele>692.80004882812</ele>
        <time>2026-09-02T14:17:36.000Z</time>
      </trkpt>
      <trkpt lat="48.14063" lon="6.86553">
        <ele>692.80004882812</ele>
        <time>2026-09-02T14:17:37.000Z</time>
      </trkpt>
      <trkpt lat="48.14063" lon="6.86553">
        <ele>692.80004882812</ele>
        <time>2026-09-02T14:17:38.000Z</time>
      </trkpt>
      <trkpt lat="48.14063" lon="6.86553">
        <ele>692.80004882812</ele>
        <time>2026-09-02T14:17:39.000Z</time>
      </trkpt>
      <trkpt lat="48.14063" lon="6.86553">
        <ele>692.80004882812</ele>
        <time>2026-09-02T14:17:40.000Z</time>
      </trkpt>
      <trkpt lat="48.14063" lon="6.86553">
        <ele>692.80004882812</ele>
        <time>2026-09-02T14:17:41.000Z</time>
      </trkpt>
      <trkpt lat="48.14063" lon="6.86553">
        <ele>692.80004882812</ele>
        <time>2026-09-02T14:17:42.000Z</time>
      </trkpt>
      <trkpt lat="48.14063" lon="6.86553">
        <ele>692.80004882812</ele>
        <time>2026-09-02T14:17:43.000Z</time>
      </trkpt>
      <trkpt lat="48.14063" lon="6.86553">
        <ele>692.80004882812</ele>
        <time>2026-09-02T14:17:44.000Z</time>
      </trkpt>
      <trkpt lat="48.14063" lon="6.86553">
        <ele>692.80004882812</ele>
        <time>2026-09-02T14:17:45.000Z</time>
      </trkpt>
      <trkpt lat="48.14063" lon="6.86553">
        <ele>692.59997558594</ele>
        <time>2026-09-02T14:17:46.000Z</time>
      </trkpt>
      <trkpt lat="48.14063" lon="6.86553">
        <ele>692.80004882812</ele>
        <time>2026-09-02T14:17:47.000Z</time>
      </trkpt>
      <trkpt lat="48.14063" lon="6.86553">
        <ele>692.80004882812</ele>
        <time>2026-09-02T14:17:48.000Z</time>
      </trkpt>
      <trkpt lat="48.14063" lon="6.86553">
        <ele>692.80004882812</ele>
        <time>2026-09-02T14:17:49.000Z</time>
      </trkpt>
      <trkpt lat="48.14063" lon="6.86553">
        <ele>692.80004882812</ele>
        <time>2026-09-02T14:17:50.000Z</time>
      </trkpt>
      <trkpt lat="48.14063" lon="6.86553">
        <ele>692.80004882812</ele>
        <time>2026-09-02T14:17:51.000Z</time>
      </trkpt>
      <trkpt lat="48.14063" lon="6.86553">
        <ele>692.80004882812</ele>
        <time>2026-09-02T14:17:52.000Z</time>
      </trkpt>
      <trkpt lat="48.14063" lon="6.86553">
        <ele>692.80004882812</ele>
        <time>2026-09-02T14:17:53.000Z</time>
      </trkpt>
      <trkpt lat="48.14063" lon="6.86554">
        <ele>692.80004882812</ele>
        <time>2026-09-02T14:17:54.000Z</time>
      </trkpt>
      <trkpt lat="48.14062" lon="6.86555">
        <ele>692.80004882812</ele>
        <time>2026-09-02T14:17:55.000Z</time>
      </trkpt>
      <trkpt lat="48.14061" lon="6.86555">
        <ele>692.80004882812</ele>
        <time>2026-09-02T14:17:56.000Z</time>
      </trkpt>
      <trkpt lat="48.1406" lon="6.86556">
        <ele>692.80004882812</ele>
        <time>2026-09-02T14:17:57.000Z</time>
      </trkpt>
      <trkpt lat="48.14059" lon="6.86556">
        <ele>692.80004882812</ele>
        <time>2026-09-02T14:17:58.000Z</time>
      </trkpt>
      <trkpt lat="48.14059" lon="6.86556">
        <ele>692.80004882812</ele>
        <time>2026-09-02T14:17:59.000Z</time>
      </trkpt>
      <trkpt lat="48.14059" lon="6.86556">
        <ele>692.80004882812</ele>
        <time>2026-09-02T14:18:00.000Z</time>
      </trkpt>
      <trkpt lat="48.14058" lon="6.86557">
        <ele>692.59997558594</ele>
        <time>2026-09-02T14:18:01.000Z</time>
      </trkpt>
      <trkpt lat="48.14056" lon="6.86559">
        <ele>692.59997558594</ele>
        <time>2026-09-02T14:18:02.000Z</time>
      </trkpt>
      <trkpt lat="48.14055" lon="6.8656">
        <ele>692.59997558594</ele>
        <time>2026-09-02T14:18:03.000Z</time>
      </trkpt>
      <trkpt lat="48.14054" lon="6.86562">
        <ele>692.59997558594</ele>
        <time>2026-09-02T14:18:04.000Z</time>
      </trkpt>
      <trkpt lat="48.14053" lon="6.86563">
        <ele>692.59997558594</ele>
        <time>2026-09-02T14:18:05.000Z</time>
      </trkpt>
      <trkpt lat="48.14053" lon="6.86564">
        <ele>692.59997558594</ele>
        <time>2026-09-02T14:18:06.000Z</time>
      </trkpt>
      <trkpt lat="48.14052" lon="6.86565">
        <ele>692.80004882812</ele>
        <time>2026-09-02T14:18:07.000Z</time>
      </trkpt>
      <trkpt lat="48.14051" lon="6.86566">
        <ele>692.80004882812</ele>
        <time>2026-09-02T14:18:08.000Z</time>
      </trkpt>
      <trkpt lat="48.1405" lon="6.86567">
        <ele>693</ele>
        <time>2026-09-02T14:18:09.000Z</time>
      </trkpt>
      <trkpt lat="48.14049" lon="6.86568">
        <ele>693</ele>
        <time>2026-09-02T14:18:10.000Z</time>
      </trkpt>
      <trkpt lat="48.14049" lon="6.86569">
        <ele>693.19995117188</ele>
        <time>2026-09-02T14:18:11.000Z</time>
      </trkpt>
      <trkpt lat="48.14048" lon="6.8657">
        <ele>693.19995117188</ele>
        <time>2026-09-02T14:18:12.000Z</time>
      </trkpt>
      <trkpt lat="48.14048" lon="6.86571">
        <ele>693.40002441406</ele>
        <time>2026-09-02T14:18:13.000Z</time>
      </trkpt>
      <trkpt lat="48.14047" lon="6.86571">
        <ele>693.40002441406</ele>
        <time>2026-09-02T14:18:14.000Z</time>
      </trkpt>
      <trkpt lat="48.14046" lon="6.86572">
        <ele>693.40002441406</ele>
        <time>2026-09-02T14:18:15.000Z</time>
      </trkpt>
      <trkpt lat="48.14046" lon="6.86573">
        <ele>693.40002441406</ele>
        <time>2026-09-02T14:18:16.000Z</time>
      </trkpt>
      <trkpt lat="48.14045" lon="6.86574">
        <ele>693.40002441406</ele>
        <time>2026-09-02T14:18:17.000Z</time>
      </trkpt>
      <trkpt lat="48.14045" lon="6.86575">
        <ele>693.59997558594</ele>
        <time>2026-09-02T14:18:18.000Z</time>
      </trkpt>
      <trkpt lat="48.14044" lon="6.86576">
        <ele>693.59997558594</ele>
        <time>2026-09-02T14:18:19.000Z</time>
      </trkpt>
      <trkpt lat="48.14043" lon="6.86577">
        <ele>693.59997558594</ele>
        <time>2026-09-02T14:18:20.000Z</time>
      </trkpt>
      <trkpt lat="48.14043" lon="6.86578">
        <ele>693.59997558594</ele>
        <time>2026-09-02T14:18:21.000Z</time>
      </trkpt>
      <trkpt lat="48.14042" lon="6.8658">
        <ele>693.80004882812</ele>
        <time>2026-09-02T14:18:22.000Z</time>
      </trkpt>
      <trkpt lat="48.14042" lon="6.86581">
        <ele>693.80004882812</ele>
        <time>2026-09-02T14:18:23.000Z</time>
      </trkpt>
      <trkpt lat="48.14041" lon="6.86582">
        <ele>693.80004882812</ele>
        <time>2026-09-02T14:18:24.000Z</time>
      </trkpt>
      <trkpt lat="48.14041" lon="6.86582">
        <ele>694</ele>
        <time>2026-09-02T14:18:25.000Z</time>
      </trkpt>
      <trkpt lat="48.1404" lon="6.86583">
        <ele>694</ele>
        <time>2026-09-02T14:18:26.000Z</time>
      </trkpt>
      <trkpt lat="48.14039" lon="6.86583">
        <ele>694</ele>
        <time>2026-09-02T14:18:27.000Z</time>
      </trkpt>
      <trkpt lat="48.14039" lon="6.86585">
        <ele>694</ele>
        <time>2026-09-02T14:18:28.000Z</time>
      </trkpt>
      <trkpt lat="48.14038" lon="6.86585">
        <ele>694</ele>
        <time>2026-09-02T14:18:29.000Z</time>
      </trkpt>
      <trkpt lat="48.14038" lon="6.86586">
        <ele>694.19995117188</ele>
        <time>2026-09-02T14:18:30.000Z</time>
      </trkpt>
      <trkpt lat="48.14037" lon="6.86587">
        <ele>694.19995117188</ele>
        <time>2026-09-02T14:18:31.000Z</time>
      </trkpt>
      <trkpt lat="48.14036" lon="6.86588">
        <ele>694.19995117188</ele>
        <time>2026-09-02T14:18:32.000Z</time>
      </trkpt>
      <trkpt lat="48.14036" lon="6.86589">
        <ele>694.19995117188</ele>
        <time>2026-09-02T14:18:33.000Z</time>
      </trkpt>
      <trkpt lat="48.14035" lon="6.86589">
        <ele>694.19995117188</ele>
        <time>2026-09-02T14:18:34.000Z</time>
      </trkpt>
      <trkpt lat="48.14034" lon="6.8659">
        <ele>694.40002441406</ele>
        <time>2026-09-02T14:18:35.000Z</time>
      </trkpt>
      <trkpt lat="48.14034" lon="6.86591">
        <ele>694.40002441406</ele>
        <time>2026-09-02T14:18:36.000Z</time>
      </trkpt>
      <trkpt lat="48.14033" lon="6.86592">
        <ele>694.40002441406</ele>
        <time>2026-09-02T14:18:37.000Z</time>
      </trkpt>
      <trkpt lat="48.14032" lon="6.86593">
        <ele>694.59997558594</ele>
        <time>2026-09-02T14:18:38.000Z</time>
      </trkpt>
      <trkpt lat="48.14031" lon="6.86594">
        <ele>694.59997558594</ele>
        <time>2026-09-02T14:18:39.000Z</time>
      </trkpt>
      <trkpt lat="48.14031" lon="6.86595">
        <ele>694.59997558594</ele>
        <time>2026-09-02T14:18:40.000Z</time>
      </trkpt>
      <trkpt lat="48.1403" lon="6.86595">
        <ele>694.80004882812</ele>
        <time>2026-09-02T14:18:41.000Z</time>
      </trkpt>
      <trkpt lat="48.14029" lon="6.86596">
        <ele>694.80004882812</ele>
        <time>2026-09-02T14:18:42.000Z</time>
      </trkpt>
      <trkpt lat="48.14029" lon="6.86596">
        <ele>694.80004882812</ele>
        <time>2026-09-02T14:18:43.000Z</time>
      </trkpt>
      <trkpt lat="48.14028" lon="6.86597">
        <ele>695</ele>
        <time>2026-09-02T14:18:44.000Z</time>
      </trkpt>
      <trkpt lat="48.14028" lon="6.86598">
        <ele>695</ele>
        <time>2026-09-02T14:18:45.000Z</time>
      </trkpt>
      <trkpt lat="48.14027" lon="6.86599">
        <ele>695</ele>
        <time>2026-09-02T14:18:46.000Z</time>
      </trkpt>
      <trkpt lat="48.14027" lon="6.866">
        <ele>695</ele>
        <time>2026-09-02T14:18:47.000Z</time>
      </trkpt>
      <trkpt lat="48.14026" lon="6.86601">
        <ele>695.19995117188</ele>
        <time>2026-09-02T14:18:48.000Z</time>
      </trkpt>
      <trkpt lat="48.14026" lon="6.86601">
        <ele>695.19995117188</ele>
        <time>2026-09-02T14:18:49.000Z</time>
      </trkpt>
      <trkpt lat="48.14025" lon="6.86602">
        <ele>695.40002441406</ele>
        <time>2026-09-02T14:18:50.000Z</time>
      </trkpt>
      <trkpt lat="48.14024" lon="6.86603">
        <ele>695.40002441406</ele>
        <time>2026-09-02T14:18:51.000Z</time>
      </trkpt>
      <trkpt lat="48.14024" lon="6.86604">
        <ele>695.59997558594</ele>
        <time>2026-09-02T14:18:52.000Z</time>
      </trkpt>
      <trkpt lat="48.14023" lon="6.86605">
        <ele>695.59997558594</ele>
        <time>2026-09-02T14:18:53.000Z</time>
      </trkpt>
      <trkpt lat="48.14022" lon="6.86605">
        <ele>695.59997558594</ele>
        <time>2026-09-02T14:18:54.000Z</time>
      </trkpt>
      <trkpt lat="48.14022" lon="6.86606">
        <ele>695.59997558594</ele>
        <time>2026-09-02T14:18:55.000Z</time>
      </trkpt>
      <trkpt lat="48.14021" lon="6.86607">
        <ele>695.59997558594</ele>
        <time>2026-09-02T14:18:56.000Z</time>
      </trkpt>
      <trkpt lat="48.1402" lon="6.86608">
        <ele>695.80004882812</ele>
        <time>2026-09-02T14:18:57.000Z</time>
      </trkpt>
      <trkpt lat="48.1402" lon="6.86609">
        <ele>695.80004882812</ele>
        <time>2026-09-02T14:18:58.000Z</time>
      </trkpt>
      <trkpt lat="48.14019" lon="6.86611">
        <ele>696</ele>
        <time>2026-09-02T14:18:59.000Z</time>
      </trkpt>
      <trkpt lat="48.14018" lon="6.86612">
        <ele>696</ele>
        <time>2026-09-02T14:19:00.000Z</time>
      </trkpt>
      <trkpt lat="48.14018" lon="6.86613">
        <ele>696</ele>
        <time>2026-09-02T14:19:01.000Z</time>
      </trkpt>
      <trkpt lat="48.14017" lon="6.86614">
        <ele>696</ele>
        <time>2026-09-02T14:19:02.000Z</time>
      </trkpt>
      <trkpt lat="48.14017" lon="6.86615">
        <ele>696.19995117188</ele>
        <time>2026-09-02T14:19:03.000Z</time>
      </trkpt>
      <trkpt lat="48.14016" lon="6.86616">
        <ele>696.19995117188</ele>
        <time>2026-09-02T14:19:04.000Z</time>
      </trkpt>
      <trkpt lat="48.14016" lon="6.86617">
        <ele>696.19995117188</ele>
        <time>2026-09-02T14:19:05.000Z</time>
      </trkpt>
      <trkpt lat="48.14015" lon="6.86618">
        <ele>696.40002441406</ele>
        <time>2026-09-02T14:19:06.000Z</time>
      </trkpt>
      <trkpt lat="48.14015" lon="6.86618">
        <ele>696.40002441406</ele>
        <time>2026-09-02T14:19:07.000Z</time>
      </trkpt>
      <trkpt lat="48.14014" lon="6.86619">
        <ele>696.59997558594</ele>
        <time>2026-09-02T14:19:08.000Z</time>
      </trkpt>
      <trkpt lat="48.14014" lon="6.8662">
        <ele>696.59997558594</ele>
        <time>2026-09-02T14:19:09.000Z</time>
      </trkpt>
      <trkpt lat="48.14013" lon="6.86621">
        <ele>696.80004882812</ele>
        <time>2026-09-02T14:19:10.000Z</time>
      </trkpt>
      <trkpt lat="48.14012" lon="6.86622">
        <ele>696.80004882812</ele>
        <time>2026-09-02T14:19:11.000Z</time>
      </trkpt>
      <trkpt lat="48.14012" lon="6.86623">
        <ele>697</ele>
        <time>2026-09-02T14:19:12.000Z</time>
      </trkpt>
      <trkpt lat="48.14011" lon="6.86624">
        <ele>697.19995117188</ele>
        <time>2026-09-02T14:19:13.000Z</time>
      </trkpt>
      <trkpt lat="48.1401" lon="6.86624">
        <ele>697.19995117188</ele>
        <time>2026-09-02T14:19:14.000Z</time>
      </trkpt>
      <trkpt lat="48.1401" lon="6.86625">
        <ele>697.19995117188</ele>
        <time>2026-09-02T14:19:15.000Z</time>
      </trkpt>
      <trkpt lat="48.14009" lon="6.86627">
        <ele>697.19995117188</ele>
        <time>2026-09-02T14:19:16.000Z</time>
      </trkpt>
      <trkpt lat="48.14008" lon="6.86627">
        <ele>697.40002441406</ele>
        <time>2026-09-02T14:19:17.000Z</time>
      </trkpt>
      <trkpt lat="48.14008" lon="6.86628">
        <ele>697.19995117188</ele>
        <time>2026-09-02T14:19:18.000Z</time>
      </trkpt>
      <trkpt lat="48.14007" lon="6.86629">
        <ele>697.19995117188</ele>
        <time>2026-09-02T14:19:19.000Z</time>
      </trkpt>
      <trkpt lat="48.14007" lon="6.86629">
        <ele>697.19995117188</ele>
        <time>2026-09-02T14:19:20.000Z</time>
      </trkpt>
      <trkpt lat="48.14006" lon="6.8663">
        <ele>697.19995117188</ele>
        <time>2026-09-02T14:19:21.000Z</time>
      </trkpt>
      <trkpt lat="48.14006" lon="6.86631">
        <ele>697</ele>
        <time>2026-09-02T14:19:22.000Z</time>
      </trkpt>
      <trkpt lat="48.14005" lon="6.86632">
        <ele>697.19995117188</ele>
        <time>2026-09-02T14:19:23.000Z</time>
      </trkpt>
      <trkpt lat="48.14005" lon="6.86632">
        <ele>697.19995117188</ele>
        <time>2026-09-02T14:19:24.000Z</time>
      </trkpt>
      <trkpt lat="48.14004" lon="6.86633">
        <ele>697.40002441406</ele>
        <time>2026-09-02T14:19:25.000Z</time>
      </trkpt>
      <trkpt lat="48.14004" lon="6.86634">
        <ele>697.40002441406</ele>
        <time>2026-09-02T14:19:26.000Z</time>
      </trkpt>
      <trkpt lat="48.14003" lon="6.86635">
        <ele>697.59997558594</ele>
        <time>2026-09-02T14:19:27.000Z</time>
      </trkpt>
      <trkpt lat="48.14002" lon="6.86636">
        <ele>697.59997558594</ele>
        <time>2026-09-02T14:19:28.000Z</time>
      </trkpt>
      <trkpt lat="48.14002" lon="6.86637">
        <ele>697.80004882812</ele>
        <time>2026-09-02T14:19:29.000Z</time>
      </trkpt>
      <trkpt lat="48.14001" lon="6.86638">
        <ele>698</ele>
        <time>2026-09-02T14:19:30.000Z</time>
      </trkpt>
      <trkpt lat="48.14" lon="6.86639">
        <ele>698</ele>
        <time>2026-09-02T14:19:31.000Z</time>
      </trkpt>
      <trkpt lat="48.13999" lon="6.8664">
        <ele>698</ele>
        <time>2026-09-02T14:19:32.000Z</time>
      </trkpt>
      <trkpt lat="48.13999" lon="6.8664">
        <ele>698</ele>
        <time>2026-09-02T14:19:33.000Z</time>
      </trkpt>
      <trkpt lat="48.13998" lon="6.86641">
        <ele>698</ele>
        <time>2026-09-02T14:19:34.000Z</time>
      </trkpt>
      <trkpt lat="48.13998" lon="6.86642">
        <ele>698</ele>
        <time>2026-09-02T14:19:35.000Z</time>
      </trkpt>
      <trkpt lat="48.13997" lon="6.86642">
        <ele>698</ele>
        <time>2026-09-02T14:19:36.000Z</time>
      </trkpt>
      <trkpt lat="48.13997" lon="6.86643">
        <ele>698</ele>
        <time>2026-09-02T14:19:37.000Z</time>
      </trkpt>
      <trkpt lat="48.13996" lon="6.86644">
        <ele>698.19995117188</ele>
        <time>2026-09-02T14:19:38.000Z</time>
      </trkpt>
      <trkpt lat="48.13995" lon="6.86644">
        <ele>698.19995117188</ele>
        <time>2026-09-02T14:19:39.000Z</time>
      </trkpt>
      <trkpt lat="48.13994" lon="6.86645">
        <ele>698.40002441406</ele>
        <time>2026-09-02T14:19:40.000Z</time>
      </trkpt>
      <trkpt lat="48.13994" lon="6.86646">
        <ele>698.40002441406</ele>
        <time>2026-09-02T14:19:41.000Z</time>
      </trkpt>
      <trkpt lat="48.13993" lon="6.86647">
        <ele>698.40002441406</ele>
        <time>2026-09-02T14:19:42.000Z</time>
      </trkpt>
      <trkpt lat="48.13992" lon="6.86648">
        <ele>698.40002441406</ele>
        <time>2026-09-02T14:19:43.000Z</time>
      </trkpt>
      <trkpt lat="48.13991" lon="6.86648">
        <ele>698.40002441406</ele>
        <time>2026-09-02T14:19:44.000Z</time>
      </trkpt>
      <trkpt lat="48.1399" lon="6.86649">
        <ele>698.40002441406</ele>
        <time>2026-09-02T14:19:45.000Z</time>
      </trkpt>
      <trkpt lat="48.13989" lon="6.8665">
        <ele>698.40002441406</ele>
        <time>2026-09-02T14:19:46.000Z</time>
      </trkpt>
      <trkpt lat="48.13988" lon="6.86652">
        <ele>698.40002441406</ele>
        <time>2026-09-02T14:19:47.000Z</time>
      </trkpt>
      <trkpt lat="48.13987" lon="6.86652">
        <ele>698.40002441406</ele>
        <time>2026-09-02T14:19:48.000Z</time>
      </trkpt>
      <trkpt lat="48.13987" lon="6.86653">
        <ele>698.19995117188</ele>
        <time>2026-09-02T14:19:49.000Z</time>
      </trkpt>
      <trkpt lat="48.13986" lon="6.86654">
        <ele>698.40002441406</ele>
        <time>2026-09-02T14:19:50.000Z</time>
      </trkpt>
      <trkpt lat="48.13985" lon="6.86655">
        <ele>698.40002441406</ele>
        <time>2026-09-02T14:19:51.000Z</time>
      </trkpt>
      <trkpt lat="48.13985" lon="6.86655">
        <ele>698.40002441406</ele>
        <time>2026-09-02T14:19:52.000Z</time>
      </trkpt>
      <trkpt lat="48.13985" lon="6.86656">
        <ele>698.59997558594</ele>
        <time>2026-09-02T14:19:53.000Z</time>
      </trkpt>
      <trkpt lat="48.13985" lon="6.86657">
        <ele>698.80004882812</ele>
        <time>2026-09-02T14:19:54.000Z</time>
      </trkpt>
      <trkpt lat="48.13984" lon="6.86658">
        <ele>699</ele>
        <time>2026-09-02T14:19:55.000Z</time>
      </trkpt>
      <trkpt lat="48.13984" lon="6.86658">
        <ele>699.19995117188</ele>
        <time>2026-09-02T14:19:56.000Z</time>
      </trkpt>
      <trkpt lat="48.13982" lon="6.8666">
        <ele>699.40002441406</ele>
        <time>2026-09-02T14:19:57.000Z</time>
      </trkpt>
      <trkpt lat="48.13982" lon="6.8666">
        <ele>699.40002441406</ele>
        <time>2026-09-02T14:19:58.000Z</time>
      </trkpt>
      <trkpt lat="48.13981" lon="6.86661">
        <ele>699.19995117188</ele>
        <time>2026-09-02T14:19:59.000Z</time>
      </trkpt>
      <trkpt lat="48.13981" lon="6.86662">
        <ele>699</ele>
        <time>2026-09-02T14:20:00.000Z</time>
      </trkpt>
      <trkpt lat="48.1398" lon="6.86662">
        <ele>698.80004882812</ele>
        <time>2026-09-02T14:20:01.000Z</time>
      </trkpt>
      <trkpt lat="48.13979" lon="6.86663">
        <ele>698.59997558594</ele>
        <time>2026-09-02T14:20:02.000Z</time>
      </trkpt>
      <trkpt lat="48.13978" lon="6.86664">
        <ele>698.59997558594</ele>
        <time>2026-09-02T14:20:03.000Z</time>
      </trkpt>
      <trkpt lat="48.13977" lon="6.86665">
        <ele>698.80004882812</ele>
        <time>2026-09-02T14:20:04.000Z</time>
      </trkpt>
      <trkpt lat="48.13976" lon="6.86666">
        <ele>698.80004882812</ele>
        <time>2026-09-02T14:20:05.000Z</time>
      </trkpt>
      <trkpt lat="48.13975" lon="6.86666">
        <ele>699</ele>
        <time>2026-09-02T14:20:06.000Z</time>
      </trkpt>
      <trkpt lat="48.13975" lon="6.86667">
        <ele>699</ele>
        <time>2026-09-02T14:20:07.000Z</time>
      </trkpt>
      <trkpt lat="48.13974" lon="6.86667">
        <ele>699.19995117188</ele>
        <time>2026-09-02T14:20:08.000Z</time>
      </trkpt>
      <trkpt lat="48.13973" lon="6.86668">
        <ele>699.19995117188</ele>
        <time>2026-09-02T14:20:09.000Z</time>
      </trkpt>
      <trkpt lat="48.13972" lon="6.86668">
        <ele>699.19995117188</ele>
        <time>2026-09-02T14:20:10.000Z</time>
      </trkpt>
      <trkpt lat="48.13971" lon="6.86669">
        <ele>699.40002441406</ele>
        <time>2026-09-02T14:20:11.000Z</time>
      </trkpt>
      <trkpt lat="48.1397" lon="6.86669">
        <ele>699.40002441406</ele>
        <time>2026-09-02T14:20:12.000Z</time>
      </trkpt>
      <trkpt lat="48.1397" lon="6.8667">
        <ele>699.40002441406</ele>
        <time>2026-09-02T14:20:13.000Z</time>
      </trkpt>
      <trkpt lat="48.13969" lon="6.86671">
        <ele>699.40002441406</ele>
        <time>2026-09-02T14:20:14.000Z</time>
      </trkpt>
      <trkpt lat="48.13969" lon="6.86671">
        <ele>699.40002441406</ele>
        <time>2026-09-02T14:20:15.000Z</time>
      </trkpt>
      <trkpt lat="48.13968" lon="6.86671">
        <ele>699.59997558594</ele>
        <time>2026-09-02T14:20:16.000Z</time>
      </trkpt>
      <trkpt lat="48.13968" lon="6.86672">
        <ele>699.80004882812</ele>
        <time>2026-09-02T14:20:17.000Z</time>
      </trkpt>
      <trkpt lat="48.13966" lon="6.86672">
        <ele>700</ele>
        <time>2026-09-02T14:20:18.000Z</time>
      </trkpt>
      <trkpt lat="48.13965" lon="6.86673">
        <ele>700</ele>
        <time>2026-09-02T14:20:19.000Z</time>
      </trkpt>
      <trkpt lat="48.13964" lon="6.86673">
        <ele>700</ele>
        <time>2026-09-02T14:20:20.000Z</time>
      </trkpt>
      <trkpt lat="48.13963" lon="6.86674">
        <ele>700</ele>
        <time>2026-09-02T14:20:21.000Z</time>
      </trkpt>
      <trkpt lat="48.13962" lon="6.86675">
        <ele>700</ele>
        <time>2026-09-02T14:20:22.000Z</time>
      </trkpt>
      <trkpt lat="48.13962" lon="6.86676">
        <ele>700.19995117188</ele>
        <time>2026-09-02T14:20:23.000Z</time>
      </trkpt>
      <trkpt lat="48.13961" lon="6.86677">
        <ele>700.19995117188</ele>
        <time>2026-09-02T14:20:24.000Z</time>
      </trkpt>
      <trkpt lat="48.1396" lon="6.86678">
        <ele>700.40002441406</ele>
        <time>2026-09-02T14:20:25.000Z</time>
      </trkpt>
      <trkpt lat="48.13959" lon="6.86679">
        <ele>700.40002441406</ele>
        <time>2026-09-02T14:20:26.000Z</time>
      </trkpt>
      <trkpt lat="48.13958" lon="6.86679">
        <ele>700.40002441406</ele>
        <time>2026-09-02T14:20:27.000Z</time>
      </trkpt>
      <trkpt lat="48.13957" lon="6.8668">
        <ele>700.40002441406</ele>
        <time>2026-09-02T14:20:28.000Z</time>
      </trkpt>
      <trkpt lat="48.13956" lon="6.86681">
        <ele>700.40002441406</ele>
        <time>2026-09-02T14:20:29.000Z</time>
      </trkpt>
      <trkpt lat="48.13955" lon="6.86681">
        <ele>700.59997558594</ele>
        <time>2026-09-02T14:20:30.000Z</time>
      </trkpt>
      <trkpt lat="48.13955" lon="6.86681">
        <ele>700.59997558594</ele>
        <time>2026-09-02T14:20:31.000Z</time>
      </trkpt>
      <trkpt lat="48.13954" lon="6.86681">
        <ele>700.80004882812</ele>
        <time>2026-09-02T14:20:32.000Z</time>
      </trkpt>
      <trkpt lat="48.13954" lon="6.86681">
        <ele>700.80004882812</ele>
        <time>2026-09-02T14:20:33.000Z</time>
      </trkpt>
      <trkpt lat="48.13953" lon="6.86682">
        <ele>701</ele>
        <time>2026-09-02T14:20:34.000Z</time>
      </trkpt>
      <trkpt lat="48.13952" lon="6.86682">
        <ele>701</ele>
        <time>2026-09-02T14:20:35.000Z</time>
      </trkpt>
      <trkpt lat="48.13951" lon="6.86682">
        <ele>701</ele>
        <time>2026-09-02T14:20:36.000Z</time>
      </trkpt>
      <trkpt lat="48.13951" lon="6.86682">
        <ele>701</ele>
        <time>2026-09-02T14:20:37.000Z</time>
      </trkpt>
      <trkpt lat="48.1395" lon="6.86683">
        <ele>701</ele>
        <time>2026-09-02T14:20:38.000Z</time>
      </trkpt>
      <trkpt lat="48.13948" lon="6.86684">
        <ele>701</ele>
        <time>2026-09-02T14:20:39.000Z</time>
      </trkpt>
      <trkpt lat="48.13948" lon="6.86684">
        <ele>701</ele>
        <time>2026-09-02T14:20:40.000Z</time>
      </trkpt>
      <trkpt lat="48.13947" lon="6.86685">
        <ele>701.19995117188</ele>
        <time>2026-09-02T14:20:41.000Z</time>
      </trkpt>
      <trkpt lat="48.13946" lon="6.86685">
        <ele>701.19995117188</ele>
        <time>2026-09-02T14:20:42.000Z</time>
      </trkpt>
      <trkpt lat="48.13945" lon="6.86686">
        <ele>701.19995117188</ele>
        <time>2026-09-02T14:20:43.000Z</time>
      </trkpt>
      <trkpt lat="48.13944" lon="6.86686">
        <ele>701.19995117188</ele>
        <time>2026-09-02T14:20:44.000Z</time>
      </trkpt>
      <trkpt lat="48.13943" lon="6.86687">
        <ele>701.19995117188</ele>
        <time>2026-09-02T14:20:45.000Z</time>
      </trkpt>
      <trkpt lat="48.13942" lon="6.86688">
        <ele>701.19995117188</ele>
        <time>2026-09-02T14:20:46.000Z</time>
      </trkpt>
      <trkpt lat="48.13942" lon="6.86689">
        <ele>701.40002441406</ele>
        <time>2026-09-02T14:20:47.000Z</time>
      </trkpt>
      <trkpt lat="48.13941" lon="6.8669">
        <ele>701.40002441406</ele>
        <time>2026-09-02T14:20:48.000Z</time>
      </trkpt>
      <trkpt lat="48.1394" lon="6.8669">
        <ele>701.19995117188</ele>
        <time>2026-09-02T14:20:49.000Z</time>
      </trkpt>
      <trkpt lat="48.13939" lon="6.86691">
        <ele>701.19995117188</ele>
        <time>2026-09-02T14:20:50.000Z</time>
      </trkpt>
      <trkpt lat="48.13939" lon="6.86692">
        <ele>701.19995117188</ele>
        <time>2026-09-02T14:20:51.000Z</time>
      </trkpt>
      <trkpt lat="48.13938" lon="6.86693">
        <ele>701.19995117188</ele>
        <time>2026-09-02T14:20:52.000Z</time>
      </trkpt>
      <trkpt lat="48.13937" lon="6.86693">
        <ele>701.19995117188</ele>
        <time>2026-09-02T14:20:53.000Z</time>
      </trkpt>
      <trkpt lat="48.13936" lon="6.86694">
        <ele>701.19995117188</ele>
        <time>2026-09-02T14:20:54.000Z</time>
      </trkpt>
      <trkpt lat="48.13936" lon="6.86694">
        <ele>701.19995117188</ele>
        <time>2026-09-02T14:20:55.000Z</time>
      </trkpt>
      <trkpt lat="48.13935" lon="6.86695">
        <ele>701.40002441406</ele>
        <time>2026-09-02T14:20:56.000Z</time>
      </trkpt>
      <trkpt lat="48.13934" lon="6.86695">
        <ele>701.40002441406</ele>
        <time>2026-09-02T14:20:57.000Z</time>
      </trkpt>
      <trkpt lat="48.13934" lon="6.86696">
        <ele>701.40002441406</ele>
        <time>2026-09-02T14:20:58.000Z</time>
      </trkpt>
      <trkpt lat="48.13933" lon="6.86697">
        <ele>701.59997558594</ele>
        <time>2026-09-02T14:20:59.000Z</time>
      </trkpt>
      <trkpt lat="48.13932" lon="6.86697">
        <ele>701.59997558594</ele>
        <time>2026-09-02T14:21:00.000Z</time>
      </trkpt>
      <trkpt lat="48.13931" lon="6.86698">
        <ele>701.59997558594</ele>
        <time>2026-09-02T14:21:01.000Z</time>
      </trkpt>
      <trkpt lat="48.13929" lon="6.86699">
        <ele>701.59997558594</ele>
        <time>2026-09-02T14:21:02.000Z</time>
      </trkpt>
      <trkpt lat="48.13928" lon="6.86699">
        <ele>701.59997558594</ele>
        <time>2026-09-02T14:21:03.000Z</time>
      </trkpt>
      <trkpt lat="48.13927" lon="6.867">
        <ele>701.40002441406</ele>
        <time>2026-09-02T14:21:04.000Z</time>
      </trkpt>
      <trkpt lat="48.13927" lon="6.86701">
        <ele>701.40002441406</ele>
        <time>2026-09-02T14:21:05.000Z</time>
      </trkpt>
      <trkpt lat="48.13925" lon="6.86701">
        <ele>701.40002441406</ele>
        <time>2026-09-02T14:21:06.000Z</time>
      </trkpt>
      <trkpt lat="48.13925" lon="6.86702">
        <ele>701.59997558594</ele>
        <time>2026-09-02T14:21:07.000Z</time>
      </trkpt>
      <trkpt lat="48.13924" lon="6.86702">
        <ele>701.59997558594</ele>
        <time>2026-09-02T14:21:08.000Z</time>
      </trkpt>
      <trkpt lat="48.13924" lon="6.86703">
        <ele>701.59997558594</ele>
        <time>2026-09-02T14:21:09.000Z</time>
      </trkpt>
      <trkpt lat="48.13923" lon="6.86704">
        <ele>701.80004882812</ele>
        <time>2026-09-02T14:21:10.000Z</time>
      </trkpt>
      <trkpt lat="48.13922" lon="6.86705">
        <ele>701.80004882812</ele>
        <time>2026-09-02T14:21:11.000Z</time>
      </trkpt>
      <trkpt lat="48.13921" lon="6.86705">
        <ele>701.80004882812</ele>
        <time>2026-09-02T14:21:12.000Z</time>
      </trkpt>
      <trkpt lat="48.1392" lon="6.86706">
        <ele>701.80004882812</ele>
        <time>2026-09-02T14:21:13.000Z</time>
      </trkpt>
      <trkpt lat="48.13919" lon="6.86707">
        <ele>701.80004882812</ele>
        <time>2026-09-02T14:21:14.000Z</time>
      </trkpt>
      <trkpt lat="48.13918" lon="6.86708">
        <ele>701.80004882812</ele>
        <time>2026-09-02T14:21:15.000Z</time>
      </trkpt>
      <trkpt lat="48.13917" lon="6.86709">
        <ele>701.80004882812</ele>
        <time>2026-09-02T14:21:16.000Z</time>
      </trkpt>
      <trkpt lat="48.13916" lon="6.8671">
        <ele>702</ele>
        <time>2026-09-02T14:21:17.000Z</time>
      </trkpt>
      <trkpt lat="48.13915" lon="6.8671">
        <ele>702</ele>
        <time>2026-09-02T14:21:18.000Z</time>
      </trkpt>
      <trkpt lat="48.13914" lon="6.8671">
        <ele>702</ele>
        <time>2026-09-02T14:21:19.000Z</time>
      </trkpt>
      <trkpt lat="48.13913" lon="6.86711">
        <ele>702.19995117188</ele>
        <time>2026-09-02T14:21:20.000Z</time>
      </trkpt>
      <trkpt lat="48.13913" lon="6.86712">
        <ele>702.19995117188</ele>
        <time>2026-09-02T14:21:21.000Z</time>
      </trkpt>
      <trkpt lat="48.13912" lon="6.86712">
        <ele>702.19995117188</ele>
        <time>2026-09-02T14:21:22.000Z</time>
      </trkpt>
      <trkpt lat="48.13911" lon="6.86712">
        <ele>702.19995117188</ele>
        <time>2026-09-02T14:21:23.000Z</time>
      </trkpt>
      <trkpt lat="48.1391" lon="6.86713">
        <ele>702.19995117188</ele>
        <time>2026-09-02T14:21:24.000Z</time>
      </trkpt>
      <trkpt lat="48.13909" lon="6.86714">
        <ele>702.19995117188</ele>
        <time>2026-09-02T14:21:25.000Z</time>
      </trkpt>
      <trkpt lat="48.13908" lon="6.86714">
        <ele>702</ele>
        <time>2026-09-02T14:21:26.000Z</time>
      </trkpt>
      <trkpt lat="48.13907" lon="6.86715">
        <ele>702.19995117188</ele>
        <time>2026-09-02T14:21:27.000Z</time>
      </trkpt>
      <trkpt lat="48.13907" lon="6.86715">
        <ele>702.19995117188</ele>
        <time>2026-09-02T14:21:28.000Z</time>
      </trkpt>
      <trkpt lat="48.13906" lon="6.86716">
        <ele>702.19995117188</ele>
        <time>2026-09-02T14:21:29.000Z</time>
      </trkpt>
      <trkpt lat="48.13905" lon="6.86716">
        <ele>702.19995117188</ele>
        <time>2026-09-02T14:21:30.000Z</time>
      </trkpt>
      <trkpt lat="48.13904" lon="6.86716">
        <ele>702.19995117188</ele>
        <time>2026-09-02T14:21:31.000Z</time>
      </trkpt>
      <trkpt lat="48.13903" lon="6.86717">
        <ele>702.19995117188</ele>
        <time>2026-09-02T14:21:32.000Z</time>
      </trkpt>
      <trkpt lat="48.13902" lon="6.86717">
        <ele>702.19995117188</ele>
        <time>2026-09-02T14:21:33.000Z</time>
      </trkpt>
      <trkpt lat="48.13901" lon="6.86717">
        <ele>702.19995117188</ele>
        <time>2026-09-02T14:21:34.000Z</time>
      </trkpt>
      <trkpt lat="48.139" lon="6.86718">
        <ele>702.19995117188</ele>
        <time>2026-09-02T14:21:35.000Z</time>
      </trkpt>
      <trkpt lat="48.139" lon="6.86718">
        <ele>702.19995117188</ele>
        <time>2026-09-02T14:21:36.000Z</time>
      </trkpt>
      <trkpt lat="48.13899" lon="6.86719">
        <ele>702.40002441406</ele>
        <time>2026-09-02T14:21:37.000Z</time>
      </trkpt>
      <trkpt lat="48.13898" lon="6.86719">
        <ele>702.40002441406</ele>
        <time>2026-09-02T14:21:38.000Z</time>
      </trkpt>
      <trkpt lat="48.13898" lon="6.8672">
        <ele>702.40002441406</ele>
        <time>2026-09-02T14:21:39.000Z</time>
      </trkpt>
      <trkpt lat="48.13897" lon="6.8672">
        <ele>702.19995117188</ele>
        <time>2026-09-02T14:21:40.000Z</time>
      </trkpt>
      <trkpt lat="48.13896" lon="6.86721">
        <ele>702.19995117188</ele>
        <time>2026-09-02T14:21:41.000Z</time>
      </trkpt>
      <trkpt lat="48.13896" lon="6.86721">
        <ele>702.19995117188</ele>
        <time>2026-09-02T14:21:42.000Z</time>
      </trkpt>
      <trkpt lat="48.13895" lon="6.86722">
        <ele>702.19995117188</ele>
        <time>2026-09-02T14:21:43.000Z</time>
      </trkpt>
      <trkpt lat="48.13894" lon="6.86723">
        <ele>702.19995117188</ele>
        <time>2026-09-02T14:21:44.000Z</time>
      </trkpt>
      <trkpt lat="48.13893" lon="6.86724">
        <ele>702.19995117188</ele>
        <time>2026-09-02T14:21:45.000Z</time>
      </trkpt>
      <trkpt lat="48.13893" lon="6.86724">
        <ele>702.19995117188</ele>
        <time>2026-09-02T14:21:46.000Z</time>
      </trkpt>
      <trkpt lat="48.13891" lon="6.86725">
        <ele>702.19995117188</ele>
        <time>2026-09-02T14:21:47.000Z</time>
      </trkpt>
      <trkpt lat="48.13891" lon="6.86726">
        <ele>702.19995117188</ele>
        <time>2026-09-02T14:21:48.000Z</time>
      </trkpt>
      <trkpt lat="48.1389" lon="6.86727">
        <ele>702</ele>
        <time>2026-09-02T14:21:49.000Z</time>
      </trkpt>
      <trkpt lat="48.13889" lon="6.86728">
        <ele>702</ele>
        <time>2026-09-02T14:21:50.000Z</time>
      </trkpt>
      <trkpt lat="48.13888" lon="6.86728">
        <ele>702</ele>
        <time>2026-09-02T14:21:51.000Z</time>
      </trkpt>
      <trkpt lat="48.13887" lon="6.86729">
        <ele>702</ele>
        <time>2026-09-02T14:21:52.000Z</time>
      </trkpt>
      <trkpt lat="48.13886" lon="6.86729">
        <ele>702.19995117188</ele>
        <time>2026-09-02T14:21:53.000Z</time>
      </trkpt>
      <trkpt lat="48.13885" lon="6.8673">
        <ele>702.19995117188</ele>
        <time>2026-09-02T14:21:54.000Z</time>
      </trkpt>
      <trkpt lat="48.13884" lon="6.8673">
        <ele>702.19995117188</ele>
        <time>2026-09-02T14:21:55.000Z</time>
      </trkpt>
      <trkpt lat="48.13884" lon="6.8673">
        <ele>702.19995117188</ele>
        <time>2026-09-02T14:21:56.000Z</time>
      </trkpt>
      <trkpt lat="48.13883" lon="6.86731">
        <ele>702.19995117188</ele>
        <time>2026-09-02T14:21:57.000Z</time>
      </trkpt>
      <trkpt lat="48.13883" lon="6.86732">
        <ele>702.40002441406</ele>
        <time>2026-09-02T14:21:58.000Z</time>
      </trkpt>
      <trkpt lat="48.13881" lon="6.86733">
        <ele>702.40002441406</ele>
        <time>2026-09-02T14:21:59.000Z</time>
      </trkpt>
      <trkpt lat="48.1388" lon="6.86734">
        <ele>702.40002441406</ele>
        <time>2026-09-02T14:22:00.000Z</time>
      </trkpt>
      <trkpt lat="48.1388" lon="6.86734">
        <ele>702.40002441406</ele>
        <time>2026-09-02T14:22:01.000Z</time>
      </trkpt>
      <trkpt lat="48.13879" lon="6.86735">
        <ele>702.59997558594</ele>
        <time>2026-09-02T14:22:02.000Z</time>
      </trkpt>
      <trkpt lat="48.13878" lon="6.86735">
        <ele>702.59997558594</ele>
        <time>2026-09-02T14:22:03.000Z</time>
      </trkpt>
      <trkpt lat="48.13877" lon="6.86737">
        <ele>702.59997558594</ele>
        <time>2026-09-02T14:22:04.000Z</time>
      </trkpt>
      <trkpt lat="48.13876" lon="6.86737">
        <ele>702.59997558594</ele>
        <time>2026-09-02T14:22:05.000Z</time>
      </trkpt>
      <trkpt lat="48.13875" lon="6.86738">
        <ele>702.59997558594</ele>
        <time>2026-09-02T14:22:06.000Z</time>
      </trkpt>
      <trkpt lat="48.13875" lon="6.86738">
        <ele>702.59997558594</ele>
        <time>2026-09-02T14:22:07.000Z</time>
      </trkpt>
      <trkpt lat="48.13874" lon="6.86739">
        <ele>702.59997558594</ele>
        <time>2026-09-02T14:22:08.000Z</time>
      </trkpt>
      <trkpt lat="48.13873" lon="6.8674">
        <ele>702.59997558594</ele>
        <time>2026-09-02T14:22:09.000Z</time>
      </trkpt>
      <trkpt lat="48.13873" lon="6.86741">
        <ele>702.40002441406</ele>
        <time>2026-09-02T14:22:10.000Z</time>
      </trkpt>
      <trkpt lat="48.13872" lon="6.86741">
        <ele>702.40002441406</ele>
        <time>2026-09-02T14:22:11.000Z</time>
      </trkpt>
      <trkpt lat="48.13871" lon="6.86742">
        <ele>702.40002441406</ele>
        <time>2026-09-02T14:22:12.000Z</time>
      </trkpt>
      <trkpt lat="48.1387" lon="6.86743">
        <ele>702.59997558594</ele>
        <time>2026-09-02T14:22:13.000Z</time>
      </trkpt>
      <trkpt lat="48.13869" lon="6.86744">
        <ele>702.59997558594</ele>
        <time>2026-09-02T14:22:14.000Z</time>
      </trkpt>
      <trkpt lat="48.13868" lon="6.86745">
        <ele>702.59997558594</ele>
        <time>2026-09-02T14:22:15.000Z</time>
      </trkpt>
      <trkpt lat="48.13867" lon="6.86745">
        <ele>702.80004882812</ele>
        <time>2026-09-02T14:22:16.000Z</time>
      </trkpt>
      <trkpt lat="48.13867" lon="6.86745">
        <ele>702.80004882812</ele>
        <time>2026-09-02T14:22:17.000Z</time>
      </trkpt>
      <trkpt lat="48.13866" lon="6.86746">
        <ele>702.80004882812</ele>
        <time>2026-09-02T14:22:18.000Z</time>
      </trkpt>
      <trkpt lat="48.13865" lon="6.86747">
        <ele>702.80004882812</ele>
        <time>2026-09-02T14:22:19.000Z</time>
      </trkpt>
      <trkpt lat="48.13865" lon="6.86748">
        <ele>702.80004882812</ele>
        <time>2026-09-02T14:22:20.000Z</time>
      </trkpt>
      <trkpt lat="48.13864" lon="6.86749">
        <ele>702.80004882812</ele>
        <time>2026-09-02T14:22:21.000Z</time>
      </trkpt>
      <trkpt lat="48.13863" lon="6.8675">
        <ele>702.80004882812</ele>
        <time>2026-09-02T14:22:22.000Z</time>
      </trkpt>
      <trkpt lat="48.13863" lon="6.8675">
        <ele>702.59997558594</ele>
        <time>2026-09-02T14:22:23.000Z</time>
      </trkpt>
      <trkpt lat="48.13862" lon="6.86751">
        <ele>702.80004882812</ele>
        <time>2026-09-02T14:22:24.000Z</time>
      </trkpt>
      <trkpt lat="48.13861" lon="6.86753">
        <ele>702.80004882812</ele>
        <time>2026-09-02T14:22:25.000Z</time>
      </trkpt>
      <trkpt lat="48.1386" lon="6.86753">
        <ele>702.80004882812</ele>
        <time>2026-09-02T14:22:26.000Z</time>
      </trkpt>
      <trkpt lat="48.13859" lon="6.86754">
        <ele>703</ele>
        <time>2026-09-02T14:22:27.000Z</time>
      </trkpt>
      <trkpt lat="48.13859" lon="6.86755">
        <ele>703</ele>
        <time>2026-09-02T14:22:28.000Z</time>
      </trkpt>
      <trkpt lat="48.13858" lon="6.86756">
        <ele>702.80004882812</ele>
        <time>2026-09-02T14:22:29.000Z</time>
      </trkpt>
      <trkpt lat="48.13857" lon="6.86756">
        <ele>702.80004882812</ele>
        <time>2026-09-02T14:22:30.000Z</time>
      </trkpt>
      <trkpt lat="48.13856" lon="6.86757">
        <ele>702.80004882812</ele>
        <time>2026-09-02T14:22:31.000Z</time>
      </trkpt>
      <trkpt lat="48.13855" lon="6.86758">
        <ele>702.80004882812</ele>
        <time>2026-09-02T14:22:32.000Z</time>
      </trkpt>
      <trkpt lat="48.13854" lon="6.86759">
        <ele>702.59997558594</ele>
        <time>2026-09-02T14:22:33.000Z</time>
      </trkpt>
      <trkpt lat="48.13854" lon="6.8676">
        <ele>702.59997558594</ele>
        <time>2026-09-02T14:22:34.000Z</time>
      </trkpt>
      <trkpt lat="48.13853" lon="6.86761">
        <ele>702.80004882812</ele>
        <time>2026-09-02T14:22:35.000Z</time>
      </trkpt>
      <trkpt lat="48.13852" lon="6.86762">
        <ele>702.80004882812</ele>
        <time>2026-09-02T14:22:36.000Z</time>
      </trkpt>
      <trkpt lat="48.13851" lon="6.86762">
        <ele>703</ele>
        <time>2026-09-02T14:22:37.000Z</time>
      </trkpt>
      <trkpt lat="48.13851" lon="6.86763">
        <ele>703</ele>
        <time>2026-09-02T14:22:38.000Z</time>
      </trkpt>
      <trkpt lat="48.1385" lon="6.86764">
        <ele>703</ele>
        <time>2026-09-02T14:22:39.000Z</time>
      </trkpt>
      <trkpt lat="48.13849" lon="6.86765">
        <ele>703</ele>
        <time>2026-09-02T14:22:40.000Z</time>
      </trkpt>
      <trkpt lat="48.13849" lon="6.86766">
        <ele>703.19995117188</ele>
        <time>2026-09-02T14:22:41.000Z</time>
      </trkpt>
      <trkpt lat="48.13848" lon="6.86766">
        <ele>703.19995117188</ele>
        <time>2026-09-02T14:22:42.000Z</time>
      </trkpt>
      <trkpt lat="48.13848" lon="6.86767">
        <ele>703.19995117188</ele>
        <time>2026-09-02T14:22:43.000Z</time>
      </trkpt>
      <trkpt lat="48.13847" lon="6.86768">
        <ele>703.19995117188</ele>
        <time>2026-09-02T14:22:44.000Z</time>
      </trkpt>
      <trkpt lat="48.13846" lon="6.8677">
        <ele>703.19995117188</ele>
        <time>2026-09-02T14:22:45.000Z</time>
      </trkpt>
      <trkpt lat="48.13845" lon="6.86771">
        <ele>703.19995117188</ele>
        <time>2026-09-02T14:22:46.000Z</time>
      </trkpt>
      <trkpt lat="48.13845" lon="6.86772">
        <ele>703.40002441406</ele>
        <time>2026-09-02T14:22:47.000Z</time>
      </trkpt>
      <trkpt lat="48.13844" lon="6.86772">
        <ele>703.40002441406</ele>
        <time>2026-09-02T14:22:48.000Z</time>
      </trkpt>
      <trkpt lat="48.13843" lon="6.86773">
        <ele>703.40002441406</ele>
        <time>2026-09-02T14:22:49.000Z</time>
      </trkpt>
      <trkpt lat="48.13842" lon="6.86774">
        <ele>703.40002441406</ele>
        <time>2026-09-02T14:22:50.000Z</time>
      </trkpt>
      <trkpt lat="48.13842" lon="6.86776">
        <ele>703.40002441406</ele>
        <time>2026-09-02T14:22:51.000Z</time>
      </trkpt>
      <trkpt lat="48.13841" lon="6.86777">
        <ele>703.40002441406</ele>
        <time>2026-09-02T14:22:52.000Z</time>
      </trkpt>
      <trkpt lat="48.1384" lon="6.86778">
        <ele>703.40002441406</ele>
        <time>2026-09-02T14:22:53.000Z</time>
      </trkpt>
      <trkpt lat="48.1384" lon="6.86779">
        <ele>703.59997558594</ele>
        <time>2026-09-02T14:22:54.000Z</time>
      </trkpt>
      <trkpt lat="48.13839" lon="6.8678">
        <ele>703.59997558594</ele>
        <time>2026-09-02T14:22:55.000Z</time>
      </trkpt>
      <trkpt lat="48.13838" lon="6.86782">
        <ele>703.59997558594</ele>
        <time>2026-09-02T14:22:56.000Z</time>
      </trkpt>
      <trkpt lat="48.13837" lon="6.86782">
        <ele>703.59997558594</ele>
        <time>2026-09-02T14:22:57.000Z</time>
      </trkpt>
      <trkpt lat="48.13837" lon="6.86783">
        <ele>703.80004882812</ele>
        <time>2026-09-02T14:22:58.000Z</time>
      </trkpt>
      <trkpt lat="48.13836" lon="6.86783">
        <ele>703.80004882812</ele>
        <time>2026-09-02T14:22:59.000Z</time>
      </trkpt>
      <trkpt lat="48.13835" lon="6.86784">
        <ele>703.80004882812</ele>
        <time>2026-09-02T14:23:00.000Z</time>
      </trkpt>
      <trkpt lat="48.13834" lon="6.86785">
        <ele>703.80004882812</ele>
        <time>2026-09-02T14:23:01.000Z</time>
      </trkpt>
      <trkpt lat="48.13833" lon="6.86787">
        <ele>703.80004882812</ele>
        <time>2026-09-02T14:23:02.000Z</time>
      </trkpt>
      <trkpt lat="48.13833" lon="6.86788">
        <ele>703.80004882812</ele>
        <time>2026-09-02T14:23:03.000Z</time>
      </trkpt>
      <trkpt lat="48.13832" lon="6.8679">
        <ele>703.80004882812</ele>
        <time>2026-09-02T14:23:04.000Z</time>
      </trkpt>
      <trkpt lat="48.13832" lon="6.8679">
        <ele>704</ele>
        <time>2026-09-02T14:23:05.000Z</time>
      </trkpt>
      <trkpt lat="48.13831" lon="6.86791">
        <ele>704</ele>
        <time>2026-09-02T14:23:06.000Z</time>
      </trkpt>
      <trkpt lat="48.1383" lon="6.86792">
        <ele>704.19995117188</ele>
        <time>2026-09-02T14:23:07.000Z</time>
      </trkpt>
      <trkpt lat="48.1383" lon="6.86793">
        <ele>704.19995117188</ele>
        <time>2026-09-02T14:23:08.000Z</time>
      </trkpt>
      <trkpt lat="48.13829" lon="6.86794">
        <ele>704.19995117188</ele>
        <time>2026-09-02T14:23:09.000Z</time>
      </trkpt>
      <trkpt lat="48.13828" lon="6.86795">
        <ele>704.19995117188</ele>
        <time>2026-09-02T14:23:10.000Z</time>
      </trkpt>
      <trkpt lat="48.13828" lon="6.86796">
        <ele>704</ele>
        <time>2026-09-02T14:23:11.000Z</time>
      </trkpt>
      <trkpt lat="48.13827" lon="6.86797">
        <ele>704</ele>
        <time>2026-09-02T14:23:12.000Z</time>
      </trkpt>
      <trkpt lat="48.13826" lon="6.86798">
        <ele>703.80004882812</ele>
        <time>2026-09-02T14:23:13.000Z</time>
      </trkpt>
      <trkpt lat="48.13826" lon="6.86799">
        <ele>703.80004882812</ele>
        <time>2026-09-02T14:23:14.000Z</time>
      </trkpt>
      <trkpt lat="48.13825" lon="6.86799">
        <ele>703.80004882812</ele>
        <time>2026-09-02T14:23:15.000Z</time>
      </trkpt>
      <trkpt lat="48.13824" lon="6.868">
        <ele>703.59997558594</ele>
        <time>2026-09-02T14:23:16.000Z</time>
      </trkpt>
      <trkpt lat="48.13823" lon="6.86802">
        <ele>703.59997558594</ele>
        <time>2026-09-02T14:23:17.000Z</time>
      </trkpt>
      <trkpt lat="48.13822" lon="6.86803">
        <ele>703.80004882812</ele>
        <time>2026-09-02T14:23:18.000Z</time>
      </trkpt>
      <trkpt lat="48.13822" lon="6.86804">
        <ele>703.80004882812</ele>
        <time>2026-09-02T14:23:19.000Z</time>
      </trkpt>
      <trkpt lat="48.13821" lon="6.86805">
        <ele>703.80004882812</ele>
        <time>2026-09-02T14:23:20.000Z</time>
      </trkpt>
      <trkpt lat="48.13821" lon="6.86805">
        <ele>703.80004882812</ele>
        <time>2026-09-02T14:23:21.000Z</time>
      </trkpt>
      <trkpt lat="48.1382" lon="6.86807">
        <ele>703.80004882812</ele>
        <time>2026-09-02T14:23:22.000Z</time>
      </trkpt>
      <trkpt lat="48.13819" lon="6.86808">
        <ele>703.80004882812</ele>
        <time>2026-09-02T14:23:23.000Z</time>
      </trkpt>
      <trkpt lat="48.13818" lon="6.86809">
        <ele>703.80004882812</ele>
        <time>2026-09-02T14:23:24.000Z</time>
      </trkpt>
      <trkpt lat="48.13818" lon="6.8681">
        <ele>703.80004882812</ele>
        <time>2026-09-02T14:23:25.000Z</time>
      </trkpt>
      <trkpt lat="48.13817" lon="6.8681">
        <ele>704</ele>
        <time>2026-09-02T14:23:26.000Z</time>
      </trkpt>
      <trkpt lat="48.13816" lon="6.86812">
        <ele>704</ele>
        <time>2026-09-02T14:23:27.000Z</time>
      </trkpt>
      <trkpt lat="48.13815" lon="6.86814">
        <ele>704</ele>
        <time>2026-09-02T14:23:28.000Z</time>
      </trkpt>
      <trkpt lat="48.13815" lon="6.86815">
        <ele>704</ele>
        <time>2026-09-02T14:23:29.000Z</time>
      </trkpt>
      <trkpt lat="48.13814" lon="6.86816">
        <ele>703.80004882812</ele>
        <time>2026-09-02T14:23:30.000Z</time>
      </trkpt>
      <trkpt lat="48.13813" lon="6.86816">
        <ele>703.80004882812</ele>
        <time>2026-09-02T14:23:31.000Z</time>
      </trkpt>
      <trkpt lat="48.13813" lon="6.86817">
        <ele>703.80004882812</ele>
        <time>2026-09-02T14:23:32.000Z</time>
      </trkpt>
      <trkpt lat="48.13812" lon="6.86818">
        <ele>703.80004882812</ele>
        <time>2026-09-02T14:23:33.000Z</time>
      </trkpt>
      <trkpt lat="48.13811" lon="6.8682">
        <ele>703.80004882812</ele>
        <time>2026-09-02T14:23:34.000Z</time>
      </trkpt>
      <trkpt lat="48.1381" lon="6.8682">
        <ele>703.80004882812</ele>
        <time>2026-09-02T14:23:35.000Z</time>
      </trkpt>
      <trkpt lat="48.13809" lon="6.86821">
        <ele>704</ele>
        <time>2026-09-02T14:23:36.000Z</time>
      </trkpt>
      <trkpt lat="48.13809" lon="6.86821">
        <ele>704</ele>
        <time>2026-09-02T14:23:37.000Z</time>
      </trkpt>
      <trkpt lat="48.13808" lon="6.86823">
        <ele>704</ele>
        <time>2026-09-02T14:23:38.000Z</time>
      </trkpt>
      <trkpt lat="48.13807" lon="6.86824">
        <ele>704.19995117188</ele>
        <time>2026-09-02T14:23:39.000Z</time>
      </trkpt>
      <trkpt lat="48.13806" lon="6.86825">
        <ele>704.19995117188</ele>
        <time>2026-09-02T14:23:40.000Z</time>
      </trkpt>
      <trkpt lat="48.13806" lon="6.86826">
        <ele>704.19995117188</ele>
        <time>2026-09-02T14:23:41.000Z</time>
      </trkpt>
      <trkpt lat="48.13805" lon="6.86826">
        <ele>704.19995117188</ele>
        <time>2026-09-02T14:23:42.000Z</time>
      </trkpt>
      <trkpt lat="48.13804" lon="6.86827">
        <ele>704</ele>
        <time>2026-09-02T14:23:43.000Z</time>
      </trkpt>
      <trkpt lat="48.13803" lon="6.86828">
        <ele>704.19995117188</ele>
        <time>2026-09-02T14:23:44.000Z</time>
      </trkpt>
      <trkpt lat="48.13803" lon="6.8683">
        <ele>704.19995117188</ele>
        <time>2026-09-02T14:23:45.000Z</time>
      </trkpt>
      <trkpt lat="48.13802" lon="6.86831">
        <ele>704.19995117188</ele>
        <time>2026-09-02T14:23:46.000Z</time>
      </trkpt>
      <trkpt lat="48.13802" lon="6.86832">
        <ele>704.40002441406</ele>
        <time>2026-09-02T14:23:47.000Z</time>
      </trkpt>
      <trkpt lat="48.13801" lon="6.86833">
        <ele>704.40002441406</ele>
        <time>2026-09-02T14:23:48.000Z</time>
      </trkpt>
      <trkpt lat="48.138" lon="6.86834">
        <ele>704.40002441406</ele>
        <time>2026-09-02T14:23:49.000Z</time>
      </trkpt>
      <trkpt lat="48.138" lon="6.86835">
        <ele>704.40002441406</ele>
        <time>2026-09-02T14:23:50.000Z</time>
      </trkpt>
      <trkpt lat="48.13799" lon="6.86836">
        <ele>704.40002441406</ele>
        <time>2026-09-02T14:23:51.000Z</time>
      </trkpt>
      <trkpt lat="48.13798" lon="6.86837">
        <ele>704.59997558594</ele>
        <time>2026-09-02T14:23:52.000Z</time>
      </trkpt>
      <trkpt lat="48.13798" lon="6.86838">
        <ele>704.59997558594</ele>
        <time>2026-09-02T14:23:53.000Z</time>
      </trkpt>
      <trkpt lat="48.13797" lon="6.86838">
        <ele>704.59997558594</ele>
        <time>2026-09-02T14:23:54.000Z</time>
      </trkpt>
      <trkpt lat="48.13797" lon="6.8684">
        <ele>704.59997558594</ele>
        <time>2026-09-02T14:23:55.000Z</time>
      </trkpt>
      <trkpt lat="48.13796" lon="6.86841">
        <ele>704.59997558594</ele>
        <time>2026-09-02T14:23:56.000Z</time>
      </trkpt>
      <trkpt lat="48.13796" lon="6.86841">
        <ele>704.59997558594</ele>
        <time>2026-09-02T14:23:57.000Z</time>
      </trkpt>
      <trkpt lat="48.13795" lon="6.86843">
        <ele>704.59997558594</ele>
        <time>2026-09-02T14:23:58.000Z</time>
      </trkpt>
      <trkpt lat="48.13795" lon="6.86844">
        <ele>704.59997558594</ele>
        <time>2026-09-02T14:23:59.000Z</time>
      </trkpt>
      <trkpt lat="48.13793" lon="6.86845">
        <ele>704.59997558594</ele>
        <time>2026-09-02T14:24:00.000Z</time>
      </trkpt>
      <trkpt lat="48.13792" lon="6.86844">
        <ele>704.59997558594</ele>
        <time>2026-09-02T14:24:01.000Z</time>
      </trkpt>
      <trkpt lat="48.13791" lon="6.86845">
        <ele>704.59997558594</ele>
        <time>2026-09-02T14:24:02.000Z</time>
      </trkpt>
      <trkpt lat="48.13791" lon="6.86847">
        <ele>704.59997558594</ele>
        <time>2026-09-02T14:24:03.000Z</time>
      </trkpt>
      <trkpt lat="48.1379" lon="6.86849">
        <ele>704.59997558594</ele>
        <time>2026-09-02T14:24:04.000Z</time>
      </trkpt>
      <trkpt lat="48.1379" lon="6.8685">
        <ele>704.59997558594</ele>
        <time>2026-09-02T14:24:05.000Z</time>
      </trkpt>
      <trkpt lat="48.13789" lon="6.86851">
        <ele>704.80004882812</ele>
        <time>2026-09-02T14:24:06.000Z</time>
      </trkpt>
      <trkpt lat="48.13788" lon="6.86851">
        <ele>704.80004882812</ele>
        <time>2026-09-02T14:24:07.000Z</time>
      </trkpt>
      <trkpt lat="48.13788" lon="6.86853">
        <ele>704.80004882812</ele>
        <time>2026-09-02T14:24:08.000Z</time>
      </trkpt>
      <trkpt lat="48.13787" lon="6.86854">
        <ele>704.80004882812</ele>
        <time>2026-09-02T14:24:09.000Z</time>
      </trkpt>
      <trkpt lat="48.13786" lon="6.86855">
        <ele>704.80004882812</ele>
        <time>2026-09-02T14:24:10.000Z</time>
      </trkpt>
      <trkpt lat="48.13785" lon="6.86856">
        <ele>704.80004882812</ele>
        <time>2026-09-02T14:24:11.000Z</time>
      </trkpt>
      <trkpt lat="48.13784" lon="6.86856">
        <ele>704.80004882812</ele>
        <time>2026-09-02T14:24:12.000Z</time>
      </trkpt>
      <trkpt lat="48.13783" lon="6.86857">
        <ele>705</ele>
        <time>2026-09-02T14:24:13.000Z</time>
      </trkpt>
      <trkpt lat="48.13782" lon="6.86858">
        <ele>705</ele>
        <time>2026-09-02T14:24:14.000Z</time>
      </trkpt>
      <trkpt lat="48.13782" lon="6.8686">
        <ele>705</ele>
        <time>2026-09-02T14:24:15.000Z</time>
      </trkpt>
      <trkpt lat="48.13782" lon="6.86862">
        <ele>705</ele>
        <time>2026-09-02T14:24:16.000Z</time>
      </trkpt>
      <trkpt lat="48.13781" lon="6.86863">
        <ele>705</ele>
        <time>2026-09-02T14:24:17.000Z</time>
      </trkpt>
      <trkpt lat="48.1378" lon="6.86865">
        <ele>705</ele>
        <time>2026-09-02T14:24:18.000Z</time>
      </trkpt>
      <trkpt lat="48.13779" lon="6.86866">
        <ele>705</ele>
        <time>2026-09-02T14:24:19.000Z</time>
      </trkpt>
      <trkpt lat="48.13779" lon="6.86867">
        <ele>705</ele>
        <time>2026-09-02T14:24:20.000Z</time>
      </trkpt>
      <trkpt lat="48.13778" lon="6.86868">
        <ele>705</ele>
        <time>2026-09-02T14:24:21.000Z</time>
      </trkpt>
      <trkpt lat="48.13777" lon="6.86869">
        <ele>705</ele>
        <time>2026-09-02T14:24:22.000Z</time>
      </trkpt>
      <trkpt lat="48.13777" lon="6.86869">
        <ele>705</ele>
        <time>2026-09-02T14:24:23.000Z</time>
      </trkpt>
      <trkpt lat="48.13775" lon="6.8687">
        <ele>705</ele>
        <time>2026-09-02T14:24:24.000Z</time>
      </trkpt>
      <trkpt lat="48.13775" lon="6.86871">
        <ele>705</ele>
        <time>2026-09-02T14:24:25.000Z</time>
      </trkpt>
      <trkpt lat="48.13774" lon="6.86872">
        <ele>705</ele>
        <time>2026-09-02T14:24:26.000Z</time>
      </trkpt>
      <trkpt lat="48.13773" lon="6.86873">
        <ele>705.19995117188</ele>
        <time>2026-09-02T14:24:27.000Z</time>
      </trkpt>
      <trkpt lat="48.13772" lon="6.86874">
        <ele>705.19995117188</ele>
        <time>2026-09-02T14:24:28.000Z</time>
      </trkpt>
      <trkpt lat="48.13771" lon="6.86875">
        <ele>705.19995117188</ele>
        <time>2026-09-02T14:24:29.000Z</time>
      </trkpt>
      <trkpt lat="48.1377" lon="6.86876">
        <ele>705.19995117188</ele>
        <time>2026-09-02T14:24:30.000Z</time>
      </trkpt>
      <trkpt lat="48.13769" lon="6.86877">
        <ele>705.19995117188</ele>
        <time>2026-09-02T14:24:31.000Z</time>
      </trkpt>
      <trkpt lat="48.13768" lon="6.86878">
        <ele>705.19995117188</ele>
        <time>2026-09-02T14:24:32.000Z</time>
      </trkpt>
      <trkpt lat="48.13768" lon="6.86879">
        <ele>705.19995117188</ele>
        <time>2026-09-02T14:24:33.000Z</time>
      </trkpt>
      <trkpt lat="48.13767" lon="6.86879">
        <ele>705.19995117188</ele>
        <time>2026-09-02T14:24:34.000Z</time>
      </trkpt>
      <trkpt lat="48.13766" lon="6.8688">
        <ele>705.19995117188</ele>
        <time>2026-09-02T14:24:35.000Z</time>
      </trkpt>
      <trkpt lat="48.13765" lon="6.86881">
        <ele>705.19995117188</ele>
        <time>2026-09-02T14:24:36.000Z</time>
      </trkpt>
      <trkpt lat="48.13764" lon="6.86882">
        <ele>705.19995117188</ele>
        <time>2026-09-02T14:24:37.000Z</time>
      </trkpt>
      <trkpt lat="48.13763" lon="6.86882">
        <ele>705.19995117188</ele>
        <time>2026-09-02T14:24:38.000Z</time>
      </trkpt>
      <trkpt lat="48.13763" lon="6.86883">
        <ele>705.19995117188</ele>
        <time>2026-09-02T14:24:39.000Z</time>
      </trkpt>
      <trkpt lat="48.13762" lon="6.86885">
        <ele>705.19995117188</ele>
        <time>2026-09-02T14:24:40.000Z</time>
      </trkpt>
      <trkpt lat="48.13761" lon="6.86886">
        <ele>705.19995117188</ele>
        <time>2026-09-02T14:24:41.000Z</time>
      </trkpt>
      <trkpt lat="48.1376" lon="6.86887">
        <ele>705.40002441406</ele>
        <time>2026-09-02T14:24:42.000Z</time>
      </trkpt>
      <trkpt lat="48.1376" lon="6.86887">
        <ele>705.40002441406</ele>
        <time>2026-09-02T14:24:43.000Z</time>
      </trkpt>
      <trkpt lat="48.13759" lon="6.86887">
        <ele>705.40002441406</ele>
        <time>2026-09-02T14:24:44.000Z</time>
      </trkpt>
      <trkpt lat="48.13758" lon="6.86888">
        <ele>705.40002441406</ele>
        <time>2026-09-02T14:24:45.000Z</time>
      </trkpt>
      <trkpt lat="48.13757" lon="6.86889">
        <ele>705.40002441406</ele>
        <time>2026-09-02T14:24:46.000Z</time>
      </trkpt>
      <trkpt lat="48.13757" lon="6.8689">
        <ele>705.40002441406</ele>
        <time>2026-09-02T14:24:47.000Z</time>
      </trkpt>
      <trkpt lat="48.13756" lon="6.86891">
        <ele>705.40002441406</ele>
        <time>2026-09-02T14:24:48.000Z</time>
      </trkpt>
      <trkpt lat="48.13755" lon="6.86892">
        <ele>705.40002441406</ele>
        <time>2026-09-02T14:24:49.000Z</time>
      </trkpt>
      <trkpt lat="48.13755" lon="6.86893">
        <ele>705.40002441406</ele>
        <time>2026-09-02T14:24:50.000Z</time>
      </trkpt>
      <trkpt lat="48.13754" lon="6.86894">
        <ele>705.40002441406</ele>
        <time>2026-09-02T14:24:51.000Z</time>
      </trkpt>
      <trkpt lat="48.13753" lon="6.86896">
        <ele>705.40002441406</ele>
        <time>2026-09-02T14:24:52.000Z</time>
      </trkpt>
      <trkpt lat="48.13752" lon="6.86897">
        <ele>705.40002441406</ele>
        <time>2026-09-02T14:24:53.000Z</time>
      </trkpt>
      <trkpt lat="48.13752" lon="6.86897">
        <ele>705.59997558594</ele>
        <time>2026-09-02T14:24:54.000Z</time>
      </trkpt>
      <trkpt lat="48.13751" lon="6.86897">
        <ele>705.59997558594</ele>
        <time>2026-09-02T14:24:55.000Z</time>
      </trkpt>
      <trkpt lat="48.1375" lon="6.86897">
        <ele>705.59997558594</ele>
        <time>2026-09-02T14:24:56.000Z</time>
      </trkpt>
      <trkpt lat="48.13748" lon="6.86899">
        <ele>705.80004882812</ele>
        <time>2026-09-02T14:24:57.000Z</time>
      </trkpt>
      <trkpt lat="48.13747" lon="6.869">
        <ele>705.59997558594</ele>
        <time>2026-09-02T14:24:58.000Z</time>
      </trkpt>
      <trkpt lat="48.13747" lon="6.86901">
        <ele>705.59997558594</ele>
        <time>2026-09-02T14:24:59.000Z</time>
      </trkpt>
      <trkpt lat="48.13747" lon="6.86901">
        <ele>705.59997558594</ele>
        <time>2026-09-02T14:25:00.000Z</time>
      </trkpt>
      <trkpt lat="48.13746" lon="6.86902">
        <ele>705.59997558594</ele>
        <time>2026-09-02T14:25:01.000Z</time>
      </trkpt>
      <trkpt lat="48.13745" lon="6.86903">
        <ele>705.59997558594</ele>
        <time>2026-09-02T14:25:02.000Z</time>
      </trkpt>
      <trkpt lat="48.13745" lon="6.86904">
        <ele>705.80004882812</ele>
        <time>2026-09-02T14:25:03.000Z</time>
      </trkpt>
      <trkpt lat="48.13744" lon="6.86905">
        <ele>705.80004882812</ele>
        <time>2026-09-02T14:25:04.000Z</time>
      </trkpt>
      <trkpt lat="48.13743" lon="6.86905">
        <ele>705.80004882812</ele>
        <time>2026-09-02T14:25:05.000Z</time>
      </trkpt>
      <trkpt lat="48.13742" lon="6.86906">
        <ele>705.80004882812</ele>
        <time>2026-09-02T14:25:06.000Z</time>
      </trkpt>
      <trkpt lat="48.13741" lon="6.86907">
        <ele>705.80004882812</ele>
        <time>2026-09-02T14:25:07.000Z</time>
      </trkpt>
      <trkpt lat="48.1374" lon="6.86908">
        <ele>705.80004882812</ele>
        <time>2026-09-02T14:25:08.000Z</time>
      </trkpt>
      <trkpt lat="48.13739" lon="6.86908">
        <ele>705.80004882812</ele>
        <time>2026-09-02T14:25:09.000Z</time>
      </trkpt>
      <trkpt lat="48.13738" lon="6.86909">
        <ele>705.80004882812</ele>
        <time>2026-09-02T14:25:10.000Z</time>
      </trkpt>
      <trkpt lat="48.13737" lon="6.86909">
        <ele>706</ele>
        <time>2026-09-02T14:25:11.000Z</time>
      </trkpt>
      <trkpt lat="48.13736" lon="6.8691">
        <ele>706</ele>
        <time>2026-09-02T14:25:12.000Z</time>
      </trkpt>
      <trkpt lat="48.13735" lon="6.86911">
        <ele>706</ele>
        <time>2026-09-02T14:25:13.000Z</time>
      </trkpt>
      <trkpt lat="48.13735" lon="6.86912">
        <ele>705.80004882812</ele>
        <time>2026-09-02T14:25:14.000Z</time>
      </trkpt>
      <trkpt lat="48.13734" lon="6.86914">
        <ele>705.80004882812</ele>
        <time>2026-09-02T14:25:15.000Z</time>
      </trkpt>
      <trkpt lat="48.13733" lon="6.86914">
        <ele>705.80004882812</ele>
        <time>2026-09-02T14:25:16.000Z</time>
      </trkpt>
      <trkpt lat="48.13733" lon="6.86914">
        <ele>706</ele>
        <time>2026-09-02T14:25:17.000Z</time>
      </trkpt>
      <trkpt lat="48.13732" lon="6.86915">
        <ele>706</ele>
        <time>2026-09-02T14:25:18.000Z</time>
      </trkpt>
      <trkpt lat="48.13731" lon="6.86916">
        <ele>706</ele>
        <time>2026-09-02T14:25:19.000Z</time>
      </trkpt>
      <trkpt lat="48.1373" lon="6.86917">
        <ele>706.19995117188</ele>
        <time>2026-09-02T14:25:20.000Z</time>
      </trkpt>
      <trkpt lat="48.1373" lon="6.86917">
        <ele>706.19995117188</ele>
        <time>2026-09-02T14:25:21.000Z</time>
      </trkpt>
      <trkpt lat="48.13729" lon="6.86918">
        <ele>706.19995117188</ele>
        <time>2026-09-02T14:25:22.000Z</time>
      </trkpt>
      <trkpt lat="48.13728" lon="6.86918">
        <ele>706.40002441406</ele>
        <time>2026-09-02T14:25:23.000Z</time>
      </trkpt>
      <trkpt lat="48.13728" lon="6.86919">
        <ele>706.19995117188</ele>
        <time>2026-09-02T14:25:24.000Z</time>
      </trkpt>
      <trkpt lat="48.13727" lon="6.8692">
        <ele>706.19995117188</ele>
        <time>2026-09-02T14:25:25.000Z</time>
      </trkpt>
      <trkpt lat="48.13726" lon="6.86921">
        <ele>706.19995117188</ele>
        <time>2026-09-02T14:25:26.000Z</time>
      </trkpt>
      <trkpt lat="48.13725" lon="6.86922">
        <ele>706.19995117188</ele>
        <time>2026-09-02T14:25:27.000Z</time>
      </trkpt>
      <trkpt lat="48.13725" lon="6.86923">
        <ele>706</ele>
        <time>2026-09-02T14:25:28.000Z</time>
      </trkpt>
      <trkpt lat="48.13723" lon="6.86924">
        <ele>706</ele>
        <time>2026-09-02T14:25:29.000Z</time>
      </trkpt>
      <trkpt lat="48.13722" lon="6.86925">
        <ele>706</ele>
        <time>2026-09-02T14:25:30.000Z</time>
      </trkpt>
      <trkpt lat="48.13721" lon="6.86927">
        <ele>706</ele>
        <time>2026-09-02T14:25:31.000Z</time>
      </trkpt>
      <trkpt lat="48.1372" lon="6.86928">
        <ele>706</ele>
        <time>2026-09-02T14:25:32.000Z</time>
      </trkpt>
      <trkpt lat="48.1372" lon="6.86929">
        <ele>706</ele>
        <time>2026-09-02T14:25:33.000Z</time>
      </trkpt>
      <trkpt lat="48.13719" lon="6.8693">
        <ele>706</ele>
        <time>2026-09-02T14:25:34.000Z</time>
      </trkpt>
      <trkpt lat="48.13719" lon="6.86931">
        <ele>706</ele>
        <time>2026-09-02T14:25:35.000Z</time>
      </trkpt>
      <trkpt lat="48.13718" lon="6.86932">
        <ele>706</ele>
        <time>2026-09-02T14:25:36.000Z</time>
      </trkpt>
      <trkpt lat="48.13717" lon="6.86932">
        <ele>706</ele>
        <time>2026-09-02T14:25:37.000Z</time>
      </trkpt>
      <trkpt lat="48.13717" lon="6.86933">
        <ele>706</ele>
        <time>2026-09-02T14:25:38.000Z</time>
      </trkpt>
      <trkpt lat="48.13716" lon="6.86934">
        <ele>706</ele>
        <time>2026-09-02T14:25:39.000Z</time>
      </trkpt>
      <trkpt lat="48.13715" lon="6.86935">
        <ele>706</ele>
        <time>2026-09-02T14:25:40.000Z</time>
      </trkpt>
      <trkpt lat="48.13714" lon="6.86935">
        <ele>706</ele>
        <time>2026-09-02T14:25:41.000Z</time>
      </trkpt>
      <trkpt lat="48.13713" lon="6.86936">
        <ele>706</ele>
        <time>2026-09-02T14:25:42.000Z</time>
      </trkpt>
      <trkpt lat="48.13712" lon="6.86937">
        <ele>706</ele>
        <time>2026-09-02T14:25:43.000Z</time>
      </trkpt>
      <trkpt lat="48.13711" lon="6.86938">
        <ele>706</ele>
        <time>2026-09-02T14:25:44.000Z</time>
      </trkpt>
      <trkpt lat="48.1371" lon="6.86938">
        <ele>706</ele>
        <time>2026-09-02T14:25:45.000Z</time>
      </trkpt>
      <trkpt lat="48.13709" lon="6.86939">
        <ele>706.19995117188</ele>
        <time>2026-09-02T14:25:46.000Z</time>
      </trkpt>
      <trkpt lat="48.13708" lon="6.8694">
        <ele>706.19995117188</ele>
        <time>2026-09-02T14:25:47.000Z</time>
      </trkpt>
      <trkpt lat="48.13706" lon="6.86941">
        <ele>706</ele>
        <time>2026-09-02T14:25:48.000Z</time>
      </trkpt>
      <trkpt lat="48.13705" lon="6.86942">
        <ele>706</ele>
        <time>2026-09-02T14:25:49.000Z</time>
      </trkpt>
      <trkpt lat="48.13704" lon="6.86943">
        <ele>706</ele>
        <time>2026-09-02T14:25:50.000Z</time>
      </trkpt>
      <trkpt lat="48.13704" lon="6.86943">
        <ele>706</ele>
        <time>2026-09-02T14:25:51.000Z</time>
      </trkpt>
      <trkpt lat="48.13703" lon="6.86944">
        <ele>706</ele>
        <time>2026-09-02T14:25:52.000Z</time>
      </trkpt>
      <trkpt lat="48.13702" lon="6.86944">
        <ele>706</ele>
        <time>2026-09-02T14:25:53.000Z</time>
      </trkpt>
      <trkpt lat="48.13701" lon="6.86945">
        <ele>706</ele>
        <time>2026-09-02T14:25:54.000Z</time>
      </trkpt>
      <trkpt lat="48.137" lon="6.86946">
        <ele>706</ele>
        <time>2026-09-02T14:25:55.000Z</time>
      </trkpt>
      <trkpt lat="48.13699" lon="6.86946">
        <ele>706</ele>
        <time>2026-09-02T14:25:56.000Z</time>
      </trkpt>
      <trkpt lat="48.13698" lon="6.86948">
        <ele>706</ele>
        <time>2026-09-02T14:25:57.000Z</time>
      </trkpt>
      <trkpt lat="48.13698" lon="6.86949">
        <ele>706</ele>
        <time>2026-09-02T14:25:58.000Z</time>
      </trkpt>
      <trkpt lat="48.13697" lon="6.8695">
        <ele>706</ele>
        <time>2026-09-02T14:25:59.000Z</time>
      </trkpt>
      <trkpt lat="48.13696" lon="6.86951">
        <ele>706</ele>
        <time>2026-09-02T14:26:00.000Z</time>
      </trkpt>
      <trkpt lat="48.13695" lon="6.86952">
        <ele>705.80004882812</ele>
        <time>2026-09-02T14:26:01.000Z</time>
      </trkpt>
      <trkpt lat="48.13695" lon="6.86952">
        <ele>705.80004882812</ele>
        <time>2026-09-02T14:26:02.000Z</time>
      </trkpt>
      <trkpt lat="48.13694" lon="6.86953">
        <ele>705.80004882812</ele>
        <time>2026-09-02T14:26:03.000Z</time>
      </trkpt>
      <trkpt lat="48.13693" lon="6.86953">
        <ele>705.80004882812</ele>
        <time>2026-09-02T14:26:04.000Z</time>
      </trkpt>
      <trkpt lat="48.13692" lon="6.86954">
        <ele>705.80004882812</ele>
        <time>2026-09-02T14:26:05.000Z</time>
      </trkpt>
      <trkpt lat="48.13691" lon="6.86955">
        <ele>706</ele>
        <time>2026-09-02T14:26:06.000Z</time>
      </trkpt>
      <trkpt lat="48.13691" lon="6.86956">
        <ele>706</ele>
        <time>2026-09-02T14:26:07.000Z</time>
      </trkpt>
      <trkpt lat="48.1369" lon="6.86956">
        <ele>706</ele>
        <time>2026-09-02T14:26:08.000Z</time>
      </trkpt>
      <trkpt lat="48.13689" lon="6.86957">
        <ele>706</ele>
        <time>2026-09-02T14:26:09.000Z</time>
      </trkpt>
      <trkpt lat="48.13688" lon="6.86958">
        <ele>706</ele>
        <time>2026-09-02T14:26:10.000Z</time>
      </trkpt>
      <trkpt lat="48.13687" lon="6.86959">
        <ele>705.80004882812</ele>
        <time>2026-09-02T14:26:11.000Z</time>
      </trkpt>
      <trkpt lat="48.13686" lon="6.8696">
        <ele>705.80004882812</ele>
        <time>2026-09-02T14:26:12.000Z</time>
      </trkpt>
      <trkpt lat="48.13686" lon="6.86961">
        <ele>705.80004882812</ele>
        <time>2026-09-02T14:26:13.000Z</time>
      </trkpt>
      <trkpt lat="48.13685" lon="6.86962">
        <ele>705.80004882812</ele>
        <time>2026-09-02T14:26:14.000Z</time>
      </trkpt>
      <trkpt lat="48.13684" lon="6.86963">
        <ele>705.80004882812</ele>
        <time>2026-09-02T14:26:15.000Z</time>
      </trkpt>
      <trkpt lat="48.13684" lon="6.86964">
        <ele>705.80004882812</ele>
        <time>2026-09-02T14:26:16.000Z</time>
      </trkpt>
      <trkpt lat="48.13683" lon="6.86965">
        <ele>705.80004882812</ele>
        <time>2026-09-02T14:26:17.000Z</time>
      </trkpt>
      <trkpt lat="48.13682" lon="6.86966">
        <ele>705.80004882812</ele>
        <time>2026-09-02T14:26:18.000Z</time>
      </trkpt>
      <trkpt lat="48.13682" lon="6.86966">
        <ele>705.80004882812</ele>
        <time>2026-09-02T14:26:19.000Z</time>
      </trkpt>
      <trkpt lat="48.13681" lon="6.86967">
        <ele>705.80004882812</ele>
        <time>2026-09-02T14:26:20.000Z</time>
      </trkpt>
      <trkpt lat="48.1368" lon="6.86968">
        <ele>705.80004882812</ele>
        <time>2026-09-02T14:26:21.000Z</time>
      </trkpt>
      <trkpt lat="48.13679" lon="6.86969">
        <ele>706</ele>
        <time>2026-09-02T14:26:22.000Z</time>
      </trkpt>
      <trkpt lat="48.13678" lon="6.8697">
        <ele>706</ele>
        <time>2026-09-02T14:26:23.000Z</time>
      </trkpt>
      <trkpt lat="48.13677" lon="6.86971">
        <ele>706</ele>
        <time>2026-09-02T14:26:24.000Z</time>
      </trkpt>
      <trkpt lat="48.13677" lon="6.86972">
        <ele>706</ele>
        <time>2026-09-02T14:26:25.000Z</time>
      </trkpt>
      <trkpt lat="48.13676" lon="6.86974">
        <ele>706</ele>
        <time>2026-09-02T14:26:26.000Z</time>
      </trkpt>
      <trkpt lat="48.13675" lon="6.86975">
        <ele>706</ele>
        <time>2026-09-02T14:26:27.000Z</time>
      </trkpt>
      <trkpt lat="48.13675" lon="6.86976">
        <ele>705.80004882812</ele>
        <time>2026-09-02T14:26:28.000Z</time>
      </trkpt>
      <trkpt lat="48.13674" lon="6.86977">
        <ele>705.80004882812</ele>
        <time>2026-09-02T14:26:29.000Z</time>
      </trkpt>
      <trkpt lat="48.13673" lon="6.86978">
        <ele>705.80004882812</ele>
        <time>2026-09-02T14:26:30.000Z</time>
      </trkpt>
      <trkpt lat="48.13673" lon="6.86978">
        <ele>705.59997558594</ele>
        <time>2026-09-02T14:26:31.000Z</time>
      </trkpt>
      <trkpt lat="48.13672" lon="6.86979">
        <ele>705.59997558594</ele>
        <time>2026-09-02T14:26:32.000Z</time>
      </trkpt>
      <trkpt lat="48.13672" lon="6.8698">
        <ele>705.59997558594</ele>
        <time>2026-09-02T14:26:33.000Z</time>
      </trkpt>
      <trkpt lat="48.1367" lon="6.8698">
        <ele>705.59997558594</ele>
        <time>2026-09-02T14:26:34.000Z</time>
      </trkpt>
      <trkpt lat="48.1367" lon="6.86982">
        <ele>705.59997558594</ele>
        <time>2026-09-02T14:26:35.000Z</time>
      </trkpt>
      <trkpt lat="48.13669" lon="6.86983">
        <ele>705.59997558594</ele>
        <time>2026-09-02T14:26:36.000Z</time>
      </trkpt>
      <trkpt lat="48.13668" lon="6.86983">
        <ele>705.80004882812</ele>
        <time>2026-09-02T14:26:37.000Z</time>
      </trkpt>
      <trkpt lat="48.13667" lon="6.86984">
        <ele>705.80004882812</ele>
        <time>2026-09-02T14:26:38.000Z</time>
      </trkpt>
      <trkpt lat="48.13667" lon="6.86984">
        <ele>705.80004882812</ele>
        <time>2026-09-02T14:26:39.000Z</time>
      </trkpt>
      <trkpt lat="48.13666" lon="6.86985">
        <ele>705.59997558594</ele>
        <time>2026-09-02T14:26:40.000Z</time>
      </trkpt>
      <trkpt lat="48.13664" lon="6.86987">
        <ele>705.59997558594</ele>
        <time>2026-09-02T14:26:41.000Z</time>
      </trkpt>
      <trkpt lat="48.13664" lon="6.86988">
        <ele>705.80004882812</ele>
        <time>2026-09-02T14:26:42.000Z</time>
      </trkpt>
      <trkpt lat="48.13663" lon="6.86989">
        <ele>705.80004882812</ele>
        <time>2026-09-02T14:26:43.000Z</time>
      </trkpt>
      <trkpt lat="48.13662" lon="6.8699">
        <ele>705.80004882812</ele>
        <time>2026-09-02T14:26:44.000Z</time>
      </trkpt>
      <trkpt lat="48.13661" lon="6.8699">
        <ele>706</ele>
        <time>2026-09-02T14:26:45.000Z</time>
      </trkpt>
      <trkpt lat="48.13661" lon="6.86991">
        <ele>706</ele>
        <time>2026-09-02T14:26:46.000Z</time>
      </trkpt>
      <trkpt lat="48.1366" lon="6.86992">
        <ele>706</ele>
        <time>2026-09-02T14:26:47.000Z</time>
      </trkpt>
      <trkpt lat="48.13659" lon="6.86992">
        <ele>706</ele>
        <time>2026-09-02T14:26:48.000Z</time>
      </trkpt>
      <trkpt lat="48.13658" lon="6.86993">
        <ele>705.80004882812</ele>
        <time>2026-09-02T14:26:49.000Z</time>
      </trkpt>
      <trkpt lat="48.13658" lon="6.86993">
        <ele>705.80004882812</ele>
        <time>2026-09-02T14:26:50.000Z</time>
      </trkpt>
      <trkpt lat="48.13657" lon="6.86994">
        <ele>705.80004882812</ele>
        <time>2026-09-02T14:26:51.000Z</time>
      </trkpt>
      <trkpt lat="48.13656" lon="6.86995">
        <ele>705.80004882812</ele>
        <time>2026-09-02T14:26:52.000Z</time>
      </trkpt>
      <trkpt lat="48.13656" lon="6.86996">
        <ele>706</ele>
        <time>2026-09-02T14:26:53.000Z</time>
      </trkpt>
      <trkpt lat="48.13654" lon="6.86997">
        <ele>706</ele>
        <time>2026-09-02T14:26:54.000Z</time>
      </trkpt>
      <trkpt lat="48.13654" lon="6.86998">
        <ele>706</ele>
        <time>2026-09-02T14:26:55.000Z</time>
      </trkpt>
      <trkpt lat="48.13654" lon="6.86999">
        <ele>706</ele>
        <time>2026-09-02T14:26:56.000Z</time>
      </trkpt>
      <trkpt lat="48.13653" lon="6.87">
        <ele>706</ele>
        <time>2026-09-02T14:26:57.000Z</time>
      </trkpt>
      <trkpt lat="48.13652" lon="6.87001">
        <ele>706</ele>
        <time>2026-09-02T14:26:58.000Z</time>
      </trkpt>
      <trkpt lat="48.13652" lon="6.87002">
        <ele>706</ele>
        <time>2026-09-02T14:26:59.000Z</time>
      </trkpt>
      <trkpt lat="48.13651" lon="6.87004">
        <ele>706</ele>
        <time>2026-09-02T14:27:00.000Z</time>
      </trkpt>
      <trkpt lat="48.1365" lon="6.87005">
        <ele>706.19995117188</ele>
        <time>2026-09-02T14:27:01.000Z</time>
      </trkpt>
      <trkpt lat="48.1365" lon="6.87006">
        <ele>706.19995117188</ele>
        <time>2026-09-02T14:27:02.000Z</time>
      </trkpt>
      <trkpt lat="48.13648" lon="6.87007">
        <ele>706.19995117188</ele>
        <time>2026-09-02T14:27:03.000Z</time>
      </trkpt>
      <trkpt lat="48.13648" lon="6.87008">
        <ele>706.19995117188</ele>
        <time>2026-09-02T14:27:04.000Z</time>
      </trkpt>
      <trkpt lat="48.13647" lon="6.87009">
        <ele>706.19995117188</ele>
        <time>2026-09-02T14:27:05.000Z</time>
      </trkpt>
      <trkpt lat="48.13646" lon="6.87009">
        <ele>706</ele>
        <time>2026-09-02T14:27:06.000Z</time>
      </trkpt>
      <trkpt lat="48.13645" lon="6.8701">
        <ele>706</ele>
        <time>2026-09-02T14:27:07.000Z</time>
      </trkpt>
      <trkpt lat="48.13644" lon="6.87011">
        <ele>706</ele>
        <time>2026-09-02T14:27:08.000Z</time>
      </trkpt>
      <trkpt lat="48.13644" lon="6.87012">
        <ele>706</ele>
        <time>2026-09-02T14:27:09.000Z</time>
      </trkpt>
      <trkpt lat="48.13642" lon="6.87014">
        <ele>705.80004882812</ele>
        <time>2026-09-02T14:27:10.000Z</time>
      </trkpt>
      <trkpt lat="48.13642" lon="6.87015">
        <ele>705.80004882812</ele>
        <time>2026-09-02T14:27:11.000Z</time>
      </trkpt>
      <trkpt lat="48.13641" lon="6.87016">
        <ele>706</ele>
        <time>2026-09-02T14:27:12.000Z</time>
      </trkpt>
      <trkpt lat="48.1364" lon="6.87018">
        <ele>705.80004882812</ele>
        <time>2026-09-02T14:27:13.000Z</time>
      </trkpt>
      <trkpt lat="48.13639" lon="6.87019">
        <ele>705.80004882812</ele>
        <time>2026-09-02T14:27:14.000Z</time>
      </trkpt>
      <trkpt lat="48.13638" lon="6.8702">
        <ele>705.80004882812</ele>
        <time>2026-09-02T14:27:15.000Z</time>
      </trkpt>
      <trkpt lat="48.13637" lon="6.87021">
        <ele>705.80004882812</ele>
        <time>2026-09-02T14:27:16.000Z</time>
      </trkpt>
      <trkpt lat="48.13636" lon="6.87022">
        <ele>705.80004882812</ele>
        <time>2026-09-02T14:27:17.000Z</time>
      </trkpt>
      <trkpt lat="48.13636" lon="6.87023">
        <ele>705.80004882812</ele>
        <time>2026-09-02T14:27:18.000Z</time>
      </trkpt>
      <trkpt lat="48.13635" lon="6.87024">
        <ele>705.80004882812</ele>
        <time>2026-09-02T14:27:19.000Z</time>
      </trkpt>
      <trkpt lat="48.13634" lon="6.87025">
        <ele>705.80004882812</ele>
        <time>2026-09-02T14:27:20.000Z</time>
      </trkpt>
      <trkpt lat="48.13633" lon="6.87025">
        <ele>705.80004882812</ele>
        <time>2026-09-02T14:27:21.000Z</time>
      </trkpt>
      <trkpt lat="48.13632" lon="6.87025">
        <ele>705.80004882812</ele>
        <time>2026-09-02T14:27:22.000Z</time>
      </trkpt>
      <trkpt lat="48.13632" lon="6.87026">
        <ele>705.80004882812</ele>
        <time>2026-09-02T14:27:23.000Z</time>
      </trkpt>
      <trkpt lat="48.13631" lon="6.87027">
        <ele>705.80004882812</ele>
        <time>2026-09-02T14:27:24.000Z</time>
      </trkpt>
      <trkpt lat="48.1363" lon="6.87028">
        <ele>705.80004882812</ele>
        <time>2026-09-02T14:27:25.000Z</time>
      </trkpt>
      <trkpt lat="48.1363" lon="6.87029">
        <ele>705.80004882812</ele>
        <time>2026-09-02T14:27:26.000Z</time>
      </trkpt>
      <trkpt lat="48.13629" lon="6.87029">
        <ele>705.80004882812</ele>
        <time>2026-09-02T14:27:27.000Z</time>
      </trkpt>
      <trkpt lat="48.13628" lon="6.87029">
        <ele>705.80004882812</ele>
        <time>2026-09-02T14:27:28.000Z</time>
      </trkpt>
      <trkpt lat="48.13627" lon="6.8703">
        <ele>705.59997558594</ele>
        <time>2026-09-02T14:27:29.000Z</time>
      </trkpt>
      <trkpt lat="48.13627" lon="6.87031">
        <ele>705.59997558594</ele>
        <time>2026-09-02T14:27:30.000Z</time>
      </trkpt>
      <trkpt lat="48.13625" lon="6.87032">
        <ele>705.59997558594</ele>
        <time>2026-09-02T14:27:31.000Z</time>
      </trkpt>
      <trkpt lat="48.13625" lon="6.87033">
        <ele>705.59997558594</ele>
        <time>2026-09-02T14:27:32.000Z</time>
      </trkpt>
      <trkpt lat="48.13624" lon="6.87033">
        <ele>705.59997558594</ele>
        <time>2026-09-02T14:27:33.000Z</time>
      </trkpt>
      <trkpt lat="48.13623" lon="6.87035">
        <ele>705.59997558594</ele>
        <time>2026-09-02T14:27:34.000Z</time>
      </trkpt>
      <trkpt lat="48.13623" lon="6.87035">
        <ele>705.59997558594</ele>
        <time>2026-09-02T14:27:35.000Z</time>
      </trkpt>
      <trkpt lat="48.13622" lon="6.87036">
        <ele>705.59997558594</ele>
        <time>2026-09-02T14:27:36.000Z</time>
      </trkpt>
      <trkpt lat="48.13622" lon="6.87037">
        <ele>705.59997558594</ele>
        <time>2026-09-02T14:27:37.000Z</time>
      </trkpt>
      <trkpt lat="48.13621" lon="6.87038">
        <ele>705.59997558594</ele>
        <time>2026-09-02T14:27:38.000Z</time>
      </trkpt>
      <trkpt lat="48.13621" lon="6.87039">
        <ele>705.59997558594</ele>
        <time>2026-09-02T14:27:39.000Z</time>
      </trkpt>
      <trkpt lat="48.13621" lon="6.8704">
        <ele>705.59997558594</ele>
        <time>2026-09-02T14:27:40.000Z</time>
      </trkpt>
      <trkpt lat="48.1362" lon="6.87042">
        <ele>705.80004882812</ele>
        <time>2026-09-02T14:27:41.000Z</time>
      </trkpt>
      <trkpt lat="48.13619" lon="6.87043">
        <ele>705.80004882812</ele>
        <time>2026-09-02T14:27:42.000Z</time>
      </trkpt>
      <trkpt lat="48.13618" lon="6.87043">
        <ele>705.80004882812</ele>
        <time>2026-09-02T14:27:43.000Z</time>
      </trkpt>
      <trkpt lat="48.13618" lon="6.87044">
        <ele>705.80004882812</ele>
        <time>2026-09-02T14:27:44.000Z</time>
      </trkpt>
      <trkpt lat="48.13617" lon="6.87046">
        <ele>705.80004882812</ele>
        <time>2026-09-02T14:27:45.000Z</time>
      </trkpt>
      <trkpt lat="48.13616" lon="6.87047">
        <ele>705.59997558594</ele>
        <time>2026-09-02T14:27:46.000Z</time>
      </trkpt>
      <trkpt lat="48.13615" lon="6.87048">
        <ele>705.59997558594</ele>
        <time>2026-09-02T14:27:47.000Z</time>
      </trkpt>
      <trkpt lat="48.13615" lon="6.87049">
        <ele>705.59997558594</ele>
        <time>2026-09-02T14:27:48.000Z</time>
      </trkpt>
      <trkpt lat="48.13615" lon="6.87049">
        <ele>705.59997558594</ele>
        <time>2026-09-02T14:27:49.000Z</time>
      </trkpt>
      <trkpt lat="48.13614" lon="6.8705">
        <ele>705.59997558594</ele>
        <time>2026-09-02T14:27:50.000Z</time>
      </trkpt>
      <trkpt lat="48.13613" lon="6.87052">
        <ele>705.59997558594</ele>
        <time>2026-09-02T14:27:51.000Z</time>
      </trkpt>
      <trkpt lat="48.13613" lon="6.87053">
        <ele>705.59997558594</ele>
        <time>2026-09-02T14:27:52.000Z</time>
      </trkpt>
      <trkpt lat="48.13612" lon="6.87054">
        <ele>705.59997558594</ele>
        <time>2026-09-02T14:27:53.000Z</time>
      </trkpt>
      <trkpt lat="48.13611" lon="6.87055">
        <ele>705.59997558594</ele>
        <time>2026-09-02T14:27:54.000Z</time>
      </trkpt>
      <trkpt lat="48.13611" lon="6.87056">
        <ele>705.59997558594</ele>
        <time>2026-09-02T14:27:55.000Z</time>
      </trkpt>
      <trkpt lat="48.1361" lon="6.87057">
        <ele>705.59997558594</ele>
        <time>2026-09-02T14:27:56.000Z</time>
      </trkpt>
      <trkpt lat="48.13609" lon="6.87058">
        <ele>705.59997558594</ele>
        <time>2026-09-02T14:27:57.000Z</time>
      </trkpt>
      <trkpt lat="48.13609" lon="6.8706">
        <ele>705.59997558594</ele>
        <time>2026-09-02T14:27:58.000Z</time>
      </trkpt>
      <trkpt lat="48.13609" lon="6.87061">
        <ele>705.59997558594</ele>
        <time>2026-09-02T14:27:59.000Z</time>
      </trkpt>
      <trkpt lat="48.13608" lon="6.87062">
        <ele>705.59997558594</ele>
        <time>2026-09-02T14:28:00.000Z</time>
      </trkpt>
      <trkpt lat="48.13608" lon="6.87064">
        <ele>705.59997558594</ele>
        <time>2026-09-02T14:28:01.000Z</time>
      </trkpt>
      <trkpt lat="48.13608" lon="6.87066">
        <ele>705.59997558594</ele>
        <time>2026-09-02T14:28:02.000Z</time>
      </trkpt>
      <trkpt lat="48.13608" lon="6.87067">
        <ele>705.59997558594</ele>
        <time>2026-09-02T14:28:03.000Z</time>
      </trkpt>
      <trkpt lat="48.13607" lon="6.87068">
        <ele>705.59997558594</ele>
        <time>2026-09-02T14:28:04.000Z</time>
      </trkpt>
      <trkpt lat="48.13607" lon="6.87068">
        <ele>705.59997558594</ele>
        <time>2026-09-02T14:28:05.000Z</time>
      </trkpt>
      <trkpt lat="48.13606" lon="6.8707">
        <ele>705.59997558594</ele>
        <time>2026-09-02T14:28:06.000Z</time>
      </trkpt>
      <trkpt lat="48.13605" lon="6.87071">
        <ele>705.59997558594</ele>
        <time>2026-09-02T14:28:07.000Z</time>
      </trkpt>
      <trkpt lat="48.13605" lon="6.87073">
        <ele>705.59997558594</ele>
        <time>2026-09-02T14:28:08.000Z</time>
      </trkpt>
      <trkpt lat="48.13605" lon="6.87073">
        <ele>705.59997558594</ele>
        <time>2026-09-02T14:28:09.000Z</time>
      </trkpt>
      <trkpt lat="48.13604" lon="6.87074">
        <ele>705.59997558594</ele>
        <time>2026-09-02T14:28:10.000Z</time>
      </trkpt>
      <trkpt lat="48.13604" lon="6.87074">
        <ele>705.59997558594</ele>
        <time>2026-09-02T14:28:11.000Z</time>
      </trkpt>
      <trkpt lat="48.13603" lon="6.87074">
        <ele>705.59997558594</ele>
        <time>2026-09-02T14:28:12.000Z</time>
      </trkpt>
      <trkpt lat="48.13603" lon="6.87073">
        <ele>705.59997558594</ele>
        <time>2026-09-02T14:28:13.000Z</time>
      </trkpt>
      <trkpt lat="48.13603" lon="6.87073">
        <ele>705.59997558594</ele>
        <time>2026-09-02T14:28:14.000Z</time>
      </trkpt>
      <trkpt lat="48.13603" lon="6.87072">
        <ele>705.40002441406</ele>
        <time>2026-09-02T14:28:15.000Z</time>
      </trkpt>
      <trkpt lat="48.13603" lon="6.87072">
        <ele>705.40002441406</ele>
        <time>2026-09-02T14:28:16.000Z</time>
      </trkpt>
      <trkpt lat="48.13602" lon="6.87072">
        <ele>705.40002441406</ele>
        <time>2026-09-02T14:28:17.000Z</time>
      </trkpt>
      <trkpt lat="48.13602" lon="6.87073">
        <ele>705.40002441406</ele>
        <time>2026-09-02T14:28:18.000Z</time>
      </trkpt>
      <trkpt lat="48.13602" lon="6.87074">
        <ele>705.40002441406</ele>
        <time>2026-09-02T14:28:19.000Z</time>
      </trkpt>
      <trkpt lat="48.13601" lon="6.87074">
        <ele>705.40002441406</ele>
        <time>2026-09-02T14:28:20.000Z</time>
      </trkpt>
      <trkpt lat="48.13601" lon="6.87074">
        <ele>705.19995117188</ele>
        <time>2026-09-02T14:28:21.000Z</time>
      </trkpt>
      <trkpt lat="48.13601" lon="6.87074">
        <ele>705.19995117188</ele>
        <time>2026-09-02T14:28:22.000Z</time>
      </trkpt>
      <trkpt lat="48.13601" lon="6.87074">
        <ele>705.19995117188</ele>
        <time>2026-09-02T14:28:23.000Z</time>
      </trkpt>
      <trkpt lat="48.13601" lon="6.87074">
        <ele>705.19995117188</ele>
        <time>2026-09-02T14:28:24.000Z</time>
      </trkpt>
      <trkpt lat="48.13601" lon="6.87074">
        <ele>705.40002441406</ele>
        <time>2026-09-02T14:28:25.000Z</time>
      </trkpt>
      <trkpt lat="48.13601" lon="6.87074">
        <ele>705.40002441406</ele>
        <time>2026-09-02T14:28:26.000Z</time>
      </trkpt>
      <trkpt lat="48.13601" lon="6.87074">
        <ele>705.40002441406</ele>
        <time>2026-09-02T14:28:27.000Z</time>
      </trkpt>
      <trkpt lat="48.13601" lon="6.87074">
        <ele>705.59997558594</ele>
        <time>2026-09-02T14:28:28.000Z</time>
      </trkpt>
      <trkpt lat="48.13601" lon="6.87074">
        <ele>705.40002441406</ele>
        <time>2026-09-02T14:28:29.000Z</time>
      </trkpt>
      <trkpt lat="48.136" lon="6.87075">
        <ele>705.40002441406</ele>
        <time>2026-09-02T14:28:30.000Z</time>
      </trkpt>
      <trkpt lat="48.13599" lon="6.87076">
        <ele>705.40002441406</ele>
        <time>2026-09-02T14:28:31.000Z</time>
      </trkpt>
      <trkpt lat="48.13598" lon="6.87078">
        <ele>705.19995117188</ele>
        <time>2026-09-02T14:28:32.000Z</time>
      </trkpt>
      <trkpt lat="48.13598" lon="6.87079">
        <ele>705.19995117188</ele>
        <time>2026-09-02T14:28:33.000Z</time>
      </trkpt>
      <trkpt lat="48.13598" lon="6.87079">
        <ele>705.19995117188</ele>
        <time>2026-09-02T14:28:34.000Z</time>
      </trkpt>
      <trkpt lat="48.13598" lon="6.8708">
        <ele>705.19995117188</ele>
        <time>2026-09-02T14:28:35.000Z</time>
      </trkpt>
      <trkpt lat="48.13598" lon="6.87081">
        <ele>705.19995117188</ele>
        <time>2026-09-02T14:28:36.000Z</time>
      </trkpt>
      <trkpt lat="48.13598" lon="6.87083">
        <ele>705.19995117188</ele>
        <time>2026-09-02T14:28:37.000Z</time>
      </trkpt>
      <trkpt lat="48.13597" lon="6.87084">
        <ele>705.19995117188</ele>
        <time>2026-09-02T14:28:38.000Z</time>
      </trkpt>
      <trkpt lat="48.13597" lon="6.87085">
        <ele>705.19995117188</ele>
        <time>2026-09-02T14:28:39.000Z</time>
      </trkpt>
      <trkpt lat="48.13597" lon="6.87087">
        <ele>705</ele>
        <time>2026-09-02T14:28:40.000Z</time>
      </trkpt>
      <trkpt lat="48.13596" lon="6.87088">
        <ele>704.80004882812</ele>
        <time>2026-09-02T14:28:41.000Z</time>
      </trkpt>
      <trkpt lat="48.13596" lon="6.8709">
        <ele>704.59997558594</ele>
        <time>2026-09-02T14:28:42.000Z</time>
      </trkpt>
      <trkpt lat="48.13595" lon="6.87091">
        <ele>704.40002441406</ele>
        <time>2026-09-02T14:28:43.000Z</time>
      </trkpt>
      <trkpt lat="48.13595" lon="6.87092">
        <ele>704.40002441406</ele>
        <time>2026-09-02T14:28:44.000Z</time>
      </trkpt>
      <trkpt lat="48.13594" lon="6.87093">
        <ele>704.40002441406</ele>
        <time>2026-09-02T14:28:45.000Z</time>
      </trkpt>
      <trkpt lat="48.13594" lon="6.87095">
        <ele>704.40002441406</ele>
        <time>2026-09-02T14:28:46.000Z</time>
      </trkpt>
      <trkpt lat="48.13593" lon="6.87096">
        <ele>704.40002441406</ele>
        <time>2026-09-02T14:28:47.000Z</time>
      </trkpt>
      <trkpt lat="48.13593" lon="6.87097">
        <ele>704.40002441406</ele>
        <time>2026-09-02T14:28:48.000Z</time>
      </trkpt>
      <trkpt lat="48.13592" lon="6.87098">
        <ele>704.59997558594</ele>
        <time>2026-09-02T14:28:49.000Z</time>
      </trkpt>
      <trkpt lat="48.13592" lon="6.87099">
        <ele>704.80004882812</ele>
        <time>2026-09-02T14:28:50.000Z</time>
      </trkpt>
      <trkpt lat="48.13591" lon="6.871">
        <ele>704.80004882812</ele>
        <time>2026-09-02T14:28:51.000Z</time>
      </trkpt>
      <trkpt lat="48.13591" lon="6.871">
        <ele>704.80004882812</ele>
        <time>2026-09-02T14:28:52.000Z</time>
      </trkpt>
      <trkpt lat="48.13591" lon="6.871">
        <ele>704.80004882812</ele>
        <time>2026-09-02T14:28:53.000Z</time>
      </trkpt>
      <trkpt lat="48.13591" lon="6.871">
        <ele>704.80004882812</ele>
        <time>2026-09-02T14:28:54.000Z</time>
      </trkpt>
      <trkpt lat="48.13591" lon="6.871">
        <ele>704.59997558594</ele>
        <time>2026-09-02T14:28:55.000Z</time>
      </trkpt>
      <trkpt lat="48.13591" lon="6.871">
        <ele>704.59997558594</ele>
        <time>2026-09-02T14:28:56.000Z</time>
      </trkpt>
      <trkpt lat="48.13591" lon="6.871">
        <ele>704.40002441406</ele>
        <time>2026-09-02T14:28:57.000Z</time>
      </trkpt>
      <trkpt lat="48.13591" lon="6.871">
        <ele>704.40002441406</ele>
        <time>2026-09-02T14:28:58.000Z</time>
      </trkpt>
      <trkpt lat="48.13591" lon="6.871">
        <ele>704.59997558594</ele>
        <time>2026-09-02T14:28:59.000Z</time>
      </trkpt>
      <trkpt lat="48.13591" lon="6.871">
        <ele>704.59997558594</ele>
        <time>2026-09-02T14:29:00.000Z</time>
      </trkpt>
      <trkpt lat="48.13591" lon="6.871">
        <ele>704.80004882812</ele>
        <time>2026-09-02T14:29:01.000Z</time>
      </trkpt>
      <trkpt lat="48.13591" lon="6.871">
        <ele>704.80004882812</ele>
        <time>2026-09-02T14:29:02.000Z</time>
      </trkpt>
      <trkpt lat="48.13591" lon="6.871">
        <ele>704.80004882812</ele>
        <time>2026-09-02T14:29:03.000Z</time>
      </trkpt>
      <trkpt lat="48.13591" lon="6.871">
        <ele>704.80004882812</ele>
        <time>2026-09-02T14:29:04.000Z</time>
      </trkpt>
      <trkpt lat="48.13591" lon="6.871">
        <ele>704.80004882812</ele>
        <time>2026-09-02T14:29:05.000Z</time>
      </trkpt>
      <trkpt lat="48.13591" lon="6.87102">
        <ele>704.80004882812</ele>
        <time>2026-09-02T14:29:06.000Z</time>
      </trkpt>
      <trkpt lat="48.1359" lon="6.87103">
        <ele>705</ele>
        <time>2026-09-02T14:29:07.000Z</time>
      </trkpt>
      <trkpt lat="48.1359" lon="6.87104">
        <ele>705</ele>
        <time>2026-09-02T14:29:08.000Z</time>
      </trkpt>
      <trkpt lat="48.13589" lon="6.87106">
        <ele>705.19995117188</ele>
        <time>2026-09-02T14:29:09.000Z</time>
      </trkpt>
      <trkpt lat="48.13589" lon="6.87107">
        <ele>705.19995117188</ele>
        <time>2026-09-02T14:29:10.000Z</time>
      </trkpt>
      <trkpt lat="48.13589" lon="6.87109">
        <ele>705.19995117188</ele>
        <time>2026-09-02T14:29:11.000Z</time>
      </trkpt>
      <trkpt lat="48.13589" lon="6.8711">
        <ele>705</ele>
        <time>2026-09-02T14:29:12.000Z</time>
      </trkpt>
      <trkpt lat="48.13589" lon="6.87111">
        <ele>705</ele>
        <time>2026-09-02T14:29:13.000Z</time>
      </trkpt>
      <trkpt lat="48.13588" lon="6.87112">
        <ele>705</ele>
        <time>2026-09-02T14:29:14.000Z</time>
      </trkpt>
      <trkpt lat="48.13587" lon="6.87113">
        <ele>705</ele>
        <time>2026-09-02T14:29:15.000Z</time>
      </trkpt>
      <trkpt lat="48.13587" lon="6.87114">
        <ele>705</ele>
        <time>2026-09-02T14:29:16.000Z</time>
      </trkpt>
      <trkpt lat="48.13586" lon="6.87115">
        <ele>705</ele>
        <time>2026-09-02T14:29:17.000Z</time>
      </trkpt>
      <trkpt lat="48.13586" lon="6.87116">
        <ele>705</ele>
        <time>2026-09-02T14:29:18.000Z</time>
      </trkpt>
      <trkpt lat="48.13585" lon="6.87118">
        <ele>705</ele>
        <time>2026-09-02T14:29:19.000Z</time>
      </trkpt>
      <trkpt lat="48.13585" lon="6.87119">
        <ele>705</ele>
        <time>2026-09-02T14:29:20.000Z</time>
      </trkpt>
      <trkpt lat="48.13584" lon="6.8712">
        <ele>705</ele>
        <time>2026-09-02T14:29:21.000Z</time>
      </trkpt>
      <trkpt lat="48.13584" lon="6.87122">
        <ele>705</ele>
        <time>2026-09-02T14:29:22.000Z</time>
      </trkpt>
      <trkpt lat="48.13583" lon="6.87122">
        <ele>705</ele>
        <time>2026-09-02T14:29:23.000Z</time>
      </trkpt>
      <trkpt lat="48.13582" lon="6.87123">
        <ele>705</ele>
        <time>2026-09-02T14:29:24.000Z</time>
      </trkpt>
      <trkpt lat="48.13581" lon="6.87124">
        <ele>704.80004882812</ele>
        <time>2026-09-02T14:29:25.000Z</time>
      </trkpt>
      <trkpt lat="48.13581" lon="6.87125">
        <ele>704.80004882812</ele>
        <time>2026-09-02T14:29:26.000Z</time>
      </trkpt>
      <trkpt lat="48.1358" lon="6.87126">
        <ele>705</ele>
        <time>2026-09-02T14:29:27.000Z</time>
      </trkpt>
      <trkpt lat="48.13579" lon="6.87128">
        <ele>705</ele>
        <time>2026-09-02T14:29:28.000Z</time>
      </trkpt>
      <trkpt lat="48.13578" lon="6.87129">
        <ele>705</ele>
        <time>2026-09-02T14:29:29.000Z</time>
      </trkpt>
      <trkpt lat="48.13576" lon="6.8713">
        <ele>704.80004882812</ele>
        <time>2026-09-02T14:29:30.000Z</time>
      </trkpt>
      <trkpt lat="48.13576" lon="6.87132">
        <ele>704.80004882812</ele>
        <time>2026-09-02T14:29:31.000Z</time>
      </trkpt>
      <trkpt lat="48.13574" lon="6.87133">
        <ele>704.40002441406</ele>
        <time>2026-09-02T14:29:32.000Z</time>
      </trkpt>
      <trkpt lat="48.13573" lon="6.87134">
        <ele>704.19995117188</ele>
        <time>2026-09-02T14:29:33.000Z</time>
      </trkpt>
      <trkpt lat="48.13573" lon="6.87135">
        <ele>704</ele>
        <time>2026-09-02T14:29:34.000Z</time>
      </trkpt>
      <trkpt lat="48.13572" lon="6.87136">
        <ele>704</ele>
        <time>2026-09-02T14:29:35.000Z</time>
      </trkpt>
      <trkpt lat="48.13572" lon="6.87137">
        <ele>704</ele>
        <time>2026-09-02T14:29:36.000Z</time>
      </trkpt>
      <trkpt lat="48.13571" lon="6.87138">
        <ele>704</ele>
        <time>2026-09-02T14:29:37.000Z</time>
      </trkpt>
      <trkpt lat="48.13571" lon="6.87139">
        <ele>704</ele>
        <time>2026-09-02T14:29:38.000Z</time>
      </trkpt>
      <trkpt lat="48.1357" lon="6.87139">
        <ele>704.19995117188</ele>
        <time>2026-09-02T14:29:39.000Z</time>
      </trkpt>
      <trkpt lat="48.13569" lon="6.8714">
        <ele>704.19995117188</ele>
        <time>2026-09-02T14:29:40.000Z</time>
      </trkpt>
      <trkpt lat="48.13569" lon="6.87141">
        <ele>704.19995117188</ele>
        <time>2026-09-02T14:29:41.000Z</time>
      </trkpt>
      <trkpt lat="48.13568" lon="6.87142">
        <ele>704.19995117188</ele>
        <time>2026-09-02T14:29:42.000Z</time>
      </trkpt>
      <trkpt lat="48.13567" lon="6.87143">
        <ele>704.19995117188</ele>
        <time>2026-09-02T14:29:43.000Z</time>
      </trkpt>
      <trkpt lat="48.13566" lon="6.87143">
        <ele>704.19995117188</ele>
        <time>2026-09-02T14:29:44.000Z</time>
      </trkpt>
      <trkpt lat="48.13566" lon="6.87144">
        <ele>704</ele>
        <time>2026-09-02T14:29:45.000Z</time>
      </trkpt>
      <trkpt lat="48.13565" lon="6.87144">
        <ele>704</ele>
        <time>2026-09-02T14:29:46.000Z</time>
      </trkpt>
      <trkpt lat="48.13564" lon="6.87145">
        <ele>704</ele>
        <time>2026-09-02T14:29:47.000Z</time>
      </trkpt>
      <trkpt lat="48.13564" lon="6.87146">
        <ele>704</ele>
        <time>2026-09-02T14:29:48.000Z</time>
      </trkpt>
      <trkpt lat="48.13563" lon="6.87147">
        <ele>704</ele>
        <time>2026-09-02T14:29:49.000Z</time>
      </trkpt>
      <trkpt lat="48.13562" lon="6.87147">
        <ele>704</ele>
        <time>2026-09-02T14:29:50.000Z</time>
      </trkpt>
      <trkpt lat="48.13562" lon="6.87148">
        <ele>704</ele>
        <time>2026-09-02T14:29:51.000Z</time>
      </trkpt>
      <trkpt lat="48.13561" lon="6.87149">
        <ele>704</ele>
        <time>2026-09-02T14:29:52.000Z</time>
      </trkpt>
      <trkpt lat="48.1356" lon="6.87149">
        <ele>704.19995117188</ele>
        <time>2026-09-02T14:29:53.000Z</time>
      </trkpt>
      <trkpt lat="48.13559" lon="6.8715">
        <ele>704.19995117188</ele>
        <time>2026-09-02T14:29:54.000Z</time>
      </trkpt>
      <trkpt lat="48.13558" lon="6.8715">
        <ele>704.19995117188</ele>
        <time>2026-09-02T14:29:55.000Z</time>
      </trkpt>
      <trkpt lat="48.13557" lon="6.8715">
        <ele>704.19995117188</ele>
        <time>2026-09-02T14:29:56.000Z</time>
      </trkpt>
      <trkpt lat="48.13556" lon="6.8715">
        <ele>704.19995117188</ele>
        <time>2026-09-02T14:29:57.000Z</time>
      </trkpt>
      <trkpt lat="48.13555" lon="6.87151">
        <ele>704.19995117188</ele>
        <time>2026-09-02T14:29:58.000Z</time>
      </trkpt>
      <trkpt lat="48.13554" lon="6.87151">
        <ele>704</ele>
        <time>2026-09-02T14:29:59.000Z</time>
      </trkpt>
      <trkpt lat="48.13553" lon="6.87151">
        <ele>704</ele>
        <time>2026-09-02T14:30:00.000Z</time>
      </trkpt>
      <trkpt lat="48.13551" lon="6.87151">
        <ele>704</ele>
        <time>2026-09-02T14:30:01.000Z</time>
      </trkpt>
      <trkpt lat="48.1355" lon="6.87151">
        <ele>704</ele>
        <time>2026-09-02T14:30:02.000Z</time>
      </trkpt>
      <trkpt lat="48.13549" lon="6.87151">
        <ele>704.19995117188</ele>
        <time>2026-09-02T14:30:03.000Z</time>
      </trkpt>
      <trkpt lat="48.13548" lon="6.87151">
        <ele>704.19995117188</ele>
        <time>2026-09-02T14:30:04.000Z</time>
      </trkpt>
      <trkpt lat="48.13547" lon="6.87151">
        <ele>704.19995117188</ele>
        <time>2026-09-02T14:30:05.000Z</time>
      </trkpt>
      <trkpt lat="48.13546" lon="6.8715">
        <ele>704.19995117188</ele>
        <time>2026-09-02T14:30:06.000Z</time>
      </trkpt>
      <trkpt lat="48.13545" lon="6.8715">
        <ele>704.19995117188</ele>
        <time>2026-09-02T14:30:07.000Z</time>
      </trkpt>
      <trkpt lat="48.13545" lon="6.87149">
        <ele>704</ele>
        <time>2026-09-02T14:30:08.000Z</time>
      </trkpt>
      <trkpt lat="48.13544" lon="6.87149">
        <ele>704</ele>
        <time>2026-09-02T14:30:09.000Z</time>
      </trkpt>
      <trkpt lat="48.13543" lon="6.87148">
        <ele>704</ele>
        <time>2026-09-02T14:30:10.000Z</time>
      </trkpt>
      <trkpt lat="48.13542" lon="6.87148">
        <ele>704.19995117188</ele>
        <time>2026-09-02T14:30:11.000Z</time>
      </trkpt>
      <trkpt lat="48.13541" lon="6.87147">
        <ele>704.19995117188</ele>
        <time>2026-09-02T14:30:12.000Z</time>
      </trkpt>
      <trkpt lat="48.1354" lon="6.87147">
        <ele>704.19995117188</ele>
        <time>2026-09-02T14:30:13.000Z</time>
      </trkpt>
      <trkpt lat="48.13539" lon="6.87146">
        <ele>704.19995117188</ele>
        <time>2026-09-02T14:30:14.000Z</time>
      </trkpt>
      <trkpt lat="48.13539" lon="6.87146">
        <ele>704.19995117188</ele>
        <time>2026-09-02T14:30:15.000Z</time>
      </trkpt>
      <trkpt lat="48.13538" lon="6.87145">
        <ele>704.19995117188</ele>
        <time>2026-09-02T14:30:16.000Z</time>
      </trkpt>
      <trkpt lat="48.13537" lon="6.87144">
        <ele>704.19995117188</ele>
        <time>2026-09-02T14:30:17.000Z</time>
      </trkpt>
      <trkpt lat="48.13536" lon="6.87143">
        <ele>704.19995117188</ele>
        <time>2026-09-02T14:30:18.000Z</time>
      </trkpt>
      <trkpt lat="48.13535" lon="6.87143">
        <ele>704.19995117188</ele>
        <time>2026-09-02T14:30:19.000Z</time>
      </trkpt>
      <trkpt lat="48.13534" lon="6.87142">
        <ele>704.19995117188</ele>
        <time>2026-09-02T14:30:20.000Z</time>
      </trkpt>
      <trkpt lat="48.13533" lon="6.87141">
        <ele>704.19995117188</ele>
        <time>2026-09-02T14:30:21.000Z</time>
      </trkpt>
      <trkpt lat="48.13532" lon="6.87141">
        <ele>704.19995117188</ele>
        <time>2026-09-02T14:30:22.000Z</time>
      </trkpt>
      <trkpt lat="48.13531" lon="6.8714">
        <ele>704.40002441406</ele>
        <time>2026-09-02T14:30:23.000Z</time>
      </trkpt>
      <trkpt lat="48.1353" lon="6.87139">
        <ele>704.40002441406</ele>
        <time>2026-09-02T14:30:24.000Z</time>
      </trkpt>
      <trkpt lat="48.13529" lon="6.87139">
        <ele>704.40002441406</ele>
        <time>2026-09-02T14:30:25.000Z</time>
      </trkpt>
      <trkpt lat="48.13528" lon="6.87138">
        <ele>704.40002441406</ele>
        <time>2026-09-02T14:30:26.000Z</time>
      </trkpt>
      <trkpt lat="48.13527" lon="6.87137">
        <ele>704.40002441406</ele>
        <time>2026-09-02T14:30:27.000Z</time>
      </trkpt>
      <trkpt lat="48.13526" lon="6.87137">
        <ele>704.40002441406</ele>
        <time>2026-09-02T14:30:28.000Z</time>
      </trkpt>
      <trkpt lat="48.13525" lon="6.87136">
        <ele>704.40002441406</ele>
        <time>2026-09-02T14:30:29.000Z</time>
      </trkpt>
      <trkpt lat="48.13524" lon="6.87135">
        <ele>704.19995117188</ele>
        <time>2026-09-02T14:30:30.000Z</time>
      </trkpt>
      <trkpt lat="48.13523" lon="6.87135">
        <ele>704.19995117188</ele>
        <time>2026-09-02T14:30:31.000Z</time>
      </trkpt>
      <trkpt lat="48.13522" lon="6.87134">
        <ele>704</ele>
        <time>2026-09-02T14:30:32.000Z</time>
      </trkpt>
      <trkpt lat="48.13521" lon="6.87134">
        <ele>704</ele>
        <time>2026-09-02T14:30:33.000Z</time>
      </trkpt>
      <trkpt lat="48.1352" lon="6.87134">
        <ele>704</ele>
        <time>2026-09-02T14:30:34.000Z</time>
      </trkpt>
      <trkpt lat="48.13519" lon="6.87134">
        <ele>704</ele>
        <time>2026-09-02T14:30:35.000Z</time>
      </trkpt>
      <trkpt lat="48.13518" lon="6.87134">
        <ele>704</ele>
        <time>2026-09-02T14:30:36.000Z</time>
      </trkpt>
      <trkpt lat="48.13517" lon="6.87134">
        <ele>704</ele>
        <time>2026-09-02T14:30:37.000Z</time>
      </trkpt>
      <trkpt lat="48.13516" lon="6.87134">
        <ele>704</ele>
        <time>2026-09-02T14:30:38.000Z</time>
      </trkpt>
      <trkpt lat="48.13515" lon="6.87134">
        <ele>703.80004882812</ele>
        <time>2026-09-02T14:30:39.000Z</time>
      </trkpt>
      <trkpt lat="48.13514" lon="6.87134">
        <ele>703.80004882812</ele>
        <time>2026-09-02T14:30:40.000Z</time>
      </trkpt>
      <trkpt lat="48.13513" lon="6.87134">
        <ele>703.80004882812</ele>
        <time>2026-09-02T14:30:41.000Z</time>
      </trkpt>
      <trkpt lat="48.13512" lon="6.87134">
        <ele>703.80004882812</ele>
        <time>2026-09-02T14:30:42.000Z</time>
      </trkpt>
      <trkpt lat="48.13511" lon="6.87134">
        <ele>703.80004882812</ele>
        <time>2026-09-02T14:30:43.000Z</time>
      </trkpt>
      <trkpt lat="48.1351" lon="6.87135">
        <ele>703.80004882812</ele>
        <time>2026-09-02T14:30:44.000Z</time>
      </trkpt>
      <trkpt lat="48.13509" lon="6.87135">
        <ele>703.80004882812</ele>
        <time>2026-09-02T14:30:45.000Z</time>
      </trkpt>
      <trkpt lat="48.13508" lon="6.87135">
        <ele>703.80004882812</ele>
        <time>2026-09-02T14:30:46.000Z</time>
      </trkpt>
      <trkpt lat="48.13507" lon="6.87136">
        <ele>703.80004882812</ele>
        <time>2026-09-02T14:30:47.000Z</time>
      </trkpt>
      <trkpt lat="48.13506" lon="6.87136">
        <ele>703.80004882812</ele>
        <time>2026-09-02T14:30:48.000Z</time>
      </trkpt>
      <trkpt lat="48.13506" lon="6.87136">
        <ele>703.80004882812</ele>
        <time>2026-09-02T14:30:49.000Z</time>
      </trkpt>
      <trkpt lat="48.13505" lon="6.87137">
        <ele>703.80004882812</ele>
        <time>2026-09-02T14:30:50.000Z</time>
      </trkpt>
      <trkpt lat="48.13505" lon="6.87137">
        <ele>703.80004882812</ele>
        <time>2026-09-02T14:30:51.000Z</time>
      </trkpt>
      <trkpt lat="48.13504" lon="6.87138">
        <ele>703.80004882812</ele>
        <time>2026-09-02T14:30:52.000Z</time>
      </trkpt>
      <trkpt lat="48.13503" lon="6.87138">
        <ele>703.80004882812</ele>
        <time>2026-09-02T14:30:53.000Z</time>
      </trkpt>
      <trkpt lat="48.13502" lon="6.87139">
        <ele>703.80004882812</ele>
        <time>2026-09-02T14:30:54.000Z</time>
      </trkpt>
      <trkpt lat="48.13501" lon="6.8714">
        <ele>703.80004882812</ele>
        <time>2026-09-02T14:30:55.000Z</time>
      </trkpt>
      <trkpt lat="48.135" lon="6.8714">
        <ele>703.80004882812</ele>
        <time>2026-09-02T14:30:56.000Z</time>
      </trkpt>
      <trkpt lat="48.13499" lon="6.87141">
        <ele>703.80004882812</ele>
        <time>2026-09-02T14:30:57.000Z</time>
      </trkpt>
      <trkpt lat="48.13498" lon="6.87142">
        <ele>703.80004882812</ele>
        <time>2026-09-02T14:30:58.000Z</time>
      </trkpt>
      <trkpt lat="48.13498" lon="6.87143">
        <ele>703.80004882812</ele>
        <time>2026-09-02T14:30:59.000Z</time>
      </trkpt>
      <trkpt lat="48.13497" lon="6.87143">
        <ele>703.80004882812</ele>
        <time>2026-09-02T14:31:00.000Z</time>
      </trkpt>
      <trkpt lat="48.13496" lon="6.87144">
        <ele>703.80004882812</ele>
        <time>2026-09-02T14:31:01.000Z</time>
      </trkpt>
      <trkpt lat="48.13495" lon="6.87145">
        <ele>703.80004882812</ele>
        <time>2026-09-02T14:31:02.000Z</time>
      </trkpt>
      <trkpt lat="48.13494" lon="6.87146">
        <ele>703.80004882812</ele>
        <time>2026-09-02T14:31:03.000Z</time>
      </trkpt>
      <trkpt lat="48.13494" lon="6.87147">
        <ele>703.80004882812</ele>
        <time>2026-09-02T14:31:04.000Z</time>
      </trkpt>
      <trkpt lat="48.13493" lon="6.87148">
        <ele>703.80004882812</ele>
        <time>2026-09-02T14:31:05.000Z</time>
      </trkpt>
      <trkpt lat="48.13492" lon="6.87149">
        <ele>703.80004882812</ele>
        <time>2026-09-02T14:31:06.000Z</time>
      </trkpt>
      <trkpt lat="48.13492" lon="6.8715">
        <ele>703.59997558594</ele>
        <time>2026-09-02T14:31:07.000Z</time>
      </trkpt>
      <trkpt lat="48.13491" lon="6.87151">
        <ele>703.80004882812</ele>
        <time>2026-09-02T14:31:08.000Z</time>
      </trkpt>
      <trkpt lat="48.1349" lon="6.87152">
        <ele>703.80004882812</ele>
        <time>2026-09-02T14:31:09.000Z</time>
      </trkpt>
      <trkpt lat="48.1349" lon="6.87153">
        <ele>703.80004882812</ele>
        <time>2026-09-02T14:31:10.000Z</time>
      </trkpt>
      <trkpt lat="48.13489" lon="6.87154">
        <ele>704</ele>
        <time>2026-09-02T14:31:11.000Z</time>
      </trkpt>
      <trkpt lat="48.13489" lon="6.87155">
        <ele>704</ele>
        <time>2026-09-02T14:31:12.000Z</time>
      </trkpt>
      <trkpt lat="48.13488" lon="6.87156">
        <ele>704</ele>
        <time>2026-09-02T14:31:13.000Z</time>
      </trkpt>
      <trkpt lat="48.13487" lon="6.87157">
        <ele>704.19995117188</ele>
        <time>2026-09-02T14:31:14.000Z</time>
      </trkpt>
      <trkpt lat="48.13487" lon="6.87158">
        <ele>704.19995117188</ele>
        <time>2026-09-02T14:31:15.000Z</time>
      </trkpt>
      <trkpt lat="48.13486" lon="6.87159">
        <ele>704.19995117188</ele>
        <time>2026-09-02T14:31:16.000Z</time>
      </trkpt>
      <trkpt lat="48.13486" lon="6.8716">
        <ele>704.19995117188</ele>
        <time>2026-09-02T14:31:17.000Z</time>
      </trkpt>
      <trkpt lat="48.13485" lon="6.87161">
        <ele>704.19995117188</ele>
        <time>2026-09-02T14:31:18.000Z</time>
      </trkpt>
      <trkpt lat="48.13484" lon="6.87162">
        <ele>704</ele>
        <time>2026-09-02T14:31:19.000Z</time>
      </trkpt>
      <trkpt lat="48.13484" lon="6.87163">
        <ele>704</ele>
        <time>2026-09-02T14:31:20.000Z</time>
      </trkpt>
      <trkpt lat="48.13483" lon="6.87164">
        <ele>704</ele>
        <time>2026-09-02T14:31:21.000Z</time>
      </trkpt>
      <trkpt lat="48.13483" lon="6.87165">
        <ele>703.80004882812</ele>
        <time>2026-09-02T14:31:22.000Z</time>
      </trkpt>
      <trkpt lat="48.13482" lon="6.87167">
        <ele>703.80004882812</ele>
        <time>2026-09-02T14:31:23.000Z</time>
      </trkpt>
      <trkpt lat="48.13481" lon="6.87168">
        <ele>703.80004882812</ele>
        <time>2026-09-02T14:31:24.000Z</time>
      </trkpt>
      <trkpt lat="48.13481" lon="6.87169">
        <ele>703.80004882812</ele>
        <time>2026-09-02T14:31:25.000Z</time>
      </trkpt>
      <trkpt lat="48.1348" lon="6.8717">
        <ele>704</ele>
        <time>2026-09-02T14:31:26.000Z</time>
      </trkpt>
      <trkpt lat="48.13479" lon="6.87171">
        <ele>704</ele>
        <time>2026-09-02T14:31:27.000Z</time>
      </trkpt>
      <trkpt lat="48.13478" lon="6.87172">
        <ele>704.19995117188</ele>
        <time>2026-09-02T14:31:28.000Z</time>
      </trkpt>
      <trkpt lat="48.13478" lon="6.87174">
        <ele>704.19995117188</ele>
        <time>2026-09-02T14:31:29.000Z</time>
      </trkpt>
      <trkpt lat="48.13477" lon="6.87175">
        <ele>704.40002441406</ele>
        <time>2026-09-02T14:31:30.000Z</time>
      </trkpt>
      <trkpt lat="48.13476" lon="6.87176">
        <ele>704.19995117188</ele>
        <time>2026-09-02T14:31:31.000Z</time>
      </trkpt>
      <trkpt lat="48.13475" lon="6.87177">
        <ele>704.19995117188</ele>
        <time>2026-09-02T14:31:32.000Z</time>
      </trkpt>
      <trkpt lat="48.13475" lon="6.87178">
        <ele>704.19995117188</ele>
        <time>2026-09-02T14:31:33.000Z</time>
      </trkpt>
      <trkpt lat="48.13474" lon="6.8718">
        <ele>704.19995117188</ele>
        <time>2026-09-02T14:31:34.000Z</time>
      </trkpt>
      <trkpt lat="48.13473" lon="6.87181">
        <ele>704.19995117188</ele>
        <time>2026-09-02T14:31:35.000Z</time>
      </trkpt>
      <trkpt lat="48.13472" lon="6.87182">
        <ele>704.19995117188</ele>
        <time>2026-09-02T14:31:36.000Z</time>
      </trkpt>
      <trkpt lat="48.13471" lon="6.87183">
        <ele>704.19995117188</ele>
        <time>2026-09-02T14:31:37.000Z</time>
      </trkpt>
      <trkpt lat="48.13471" lon="6.87184">
        <ele>704</ele>
        <time>2026-09-02T14:31:38.000Z</time>
      </trkpt>
      <trkpt lat="48.1347" lon="6.87186">
        <ele>704</ele>
        <time>2026-09-02T14:31:39.000Z</time>
      </trkpt>
      <trkpt lat="48.13469" lon="6.87186">
        <ele>704.19995117188</ele>
        <time>2026-09-02T14:31:40.000Z</time>
      </trkpt>
      <trkpt lat="48.13468" lon="6.87187">
        <ele>704.19995117188</ele>
        <time>2026-09-02T14:31:41.000Z</time>
      </trkpt>
      <trkpt lat="48.13468" lon="6.87188">
        <ele>704.19995117188</ele>
        <time>2026-09-02T14:31:42.000Z</time>
      </trkpt>
      <trkpt lat="48.13467" lon="6.87189">
        <ele>704.40002441406</ele>
        <time>2026-09-02T14:31:43.000Z</time>
      </trkpt>
      <trkpt lat="48.13466" lon="6.8719">
        <ele>704.19995117188</ele>
        <time>2026-09-02T14:31:44.000Z</time>
      </trkpt>
      <trkpt lat="48.13465" lon="6.87192">
        <ele>704.19995117188</ele>
        <time>2026-09-02T14:31:45.000Z</time>
      </trkpt>
      <trkpt lat="48.13465" lon="6.87193">
        <ele>704.19995117188</ele>
        <time>2026-09-02T14:31:46.000Z</time>
      </trkpt>
      <trkpt lat="48.13464" lon="6.87194">
        <ele>704.19995117188</ele>
        <time>2026-09-02T14:31:47.000Z</time>
      </trkpt>
      <trkpt lat="48.13463" lon="6.87195">
        <ele>704.19995117188</ele>
        <time>2026-09-02T14:31:48.000Z</time>
      </trkpt>
      <trkpt lat="48.13462" lon="6.87196">
        <ele>704</ele>
        <time>2026-09-02T14:31:49.000Z</time>
      </trkpt>
      <trkpt lat="48.13461" lon="6.87197">
        <ele>704</ele>
        <time>2026-09-02T14:31:50.000Z</time>
      </trkpt>
      <trkpt lat="48.1346" lon="6.87198">
        <ele>704.19995117188</ele>
        <time>2026-09-02T14:31:51.000Z</time>
      </trkpt>
      <trkpt lat="48.13459" lon="6.87199">
        <ele>704.19995117188</ele>
        <time>2026-09-02T14:31:52.000Z</time>
      </trkpt>
      <trkpt lat="48.13459" lon="6.872">
        <ele>704.19995117188</ele>
        <time>2026-09-02T14:31:53.000Z</time>
      </trkpt>
      <trkpt lat="48.13458" lon="6.87201">
        <ele>704.19995117188</ele>
        <time>2026-09-02T14:31:54.000Z</time>
      </trkpt>
      <trkpt lat="48.13457" lon="6.87202">
        <ele>704.40002441406</ele>
        <time>2026-09-02T14:31:55.000Z</time>
      </trkpt>
      <trkpt lat="48.13456" lon="6.87203">
        <ele>704.19995117188</ele>
        <time>2026-09-02T14:31:56.000Z</time>
      </trkpt>
      <trkpt lat="48.13455" lon="6.87204">
        <ele>704.19995117188</ele>
        <time>2026-09-02T14:31:57.000Z</time>
      </trkpt>
      <trkpt lat="48.13454" lon="6.87205">
        <ele>704</ele>
        <time>2026-09-02T14:31:58.000Z</time>
      </trkpt>
      <trkpt lat="48.13453" lon="6.87206">
        <ele>704</ele>
        <time>2026-09-02T14:31:59.000Z</time>
      </trkpt>
      <trkpt lat="48.13452" lon="6.87206">
        <ele>704</ele>
        <time>2026-09-02T14:32:00.000Z</time>
      </trkpt>
      <trkpt lat="48.13451" lon="6.87207">
        <ele>704</ele>
        <time>2026-09-02T14:32:01.000Z</time>
      </trkpt>
      <trkpt lat="48.13451" lon="6.87208">
        <ele>704</ele>
        <time>2026-09-02T14:32:02.000Z</time>
      </trkpt>
      <trkpt lat="48.1345" lon="6.87209">
        <ele>704</ele>
        <time>2026-09-02T14:32:03.000Z</time>
      </trkpt>
      <trkpt lat="48.13449" lon="6.8721">
        <ele>704.19995117188</ele>
        <time>2026-09-02T14:32:04.000Z</time>
      </trkpt>
      <trkpt lat="48.13448" lon="6.87211">
        <ele>704.19995117188</ele>
        <time>2026-09-02T14:32:05.000Z</time>
      </trkpt>
      <trkpt lat="48.13447" lon="6.87212">
        <ele>704.19995117188</ele>
        <time>2026-09-02T14:32:06.000Z</time>
      </trkpt>
      <trkpt lat="48.13446" lon="6.87213">
        <ele>704.19995117188</ele>
        <time>2026-09-02T14:32:07.000Z</time>
      </trkpt>
      <trkpt lat="48.13445" lon="6.87213">
        <ele>704.19995117188</ele>
        <time>2026-09-02T14:32:08.000Z</time>
      </trkpt>
      <trkpt lat="48.13444" lon="6.87214">
        <ele>704</ele>
        <time>2026-09-02T14:32:09.000Z</time>
      </trkpt>
      <trkpt lat="48.13443" lon="6.87215">
        <ele>704</ele>
        <time>2026-09-02T14:32:10.000Z</time>
      </trkpt>
      <trkpt lat="48.13442" lon="6.87216">
        <ele>704</ele>
        <time>2026-09-02T14:32:11.000Z</time>
      </trkpt>
      <trkpt lat="48.13441" lon="6.87217">
        <ele>704</ele>
        <time>2026-09-02T14:32:12.000Z</time>
      </trkpt>
      <trkpt lat="48.13441" lon="6.87218">
        <ele>704.19995117188</ele>
        <time>2026-09-02T14:32:13.000Z</time>
      </trkpt>
      <trkpt lat="48.1344" lon="6.87219">
        <ele>704.19995117188</ele>
        <time>2026-09-02T14:32:14.000Z</time>
      </trkpt>
      <trkpt lat="48.13439" lon="6.87219">
        <ele>704.19995117188</ele>
        <time>2026-09-02T14:32:15.000Z</time>
      </trkpt>
      <trkpt lat="48.13439" lon="6.8722">
        <ele>704.19995117188</ele>
        <time>2026-09-02T14:32:16.000Z</time>
      </trkpt>
      <trkpt lat="48.13438" lon="6.87221">
        <ele>704.40002441406</ele>
        <time>2026-09-02T14:32:17.000Z</time>
      </trkpt>
      <trkpt lat="48.13437" lon="6.87222">
        <ele>704.40002441406</ele>
        <time>2026-09-02T14:32:18.000Z</time>
      </trkpt>
      <trkpt lat="48.13436" lon="6.87222">
        <ele>704.59997558594</ele>
        <time>2026-09-02T14:32:19.000Z</time>
      </trkpt>
      <trkpt lat="48.13435" lon="6.87223">
        <ele>704.59997558594</ele>
        <time>2026-09-02T14:32:20.000Z</time>
      </trkpt>
      <trkpt lat="48.13435" lon="6.87224">
        <ele>704.59997558594</ele>
        <time>2026-09-02T14:32:21.000Z</time>
      </trkpt>
      <trkpt lat="48.13434" lon="6.87225">
        <ele>704.80004882812</ele>
        <time>2026-09-02T14:32:22.000Z</time>
      </trkpt>
      <trkpt lat="48.13433" lon="6.87225">
        <ele>704.80004882812</ele>
        <time>2026-09-02T14:32:23.000Z</time>
      </trkpt>
      <trkpt lat="48.13432" lon="6.87225">
        <ele>704.59997558594</ele>
        <time>2026-09-02T14:32:24.000Z</time>
      </trkpt>
      <trkpt lat="48.13431" lon="6.87226">
        <ele>704.59997558594</ele>
        <time>2026-09-02T14:32:25.000Z</time>
      </trkpt>
      <trkpt lat="48.1343" lon="6.87226">
        <ele>704.59997558594</ele>
        <time>2026-09-02T14:32:26.000Z</time>
      </trkpt>
      <trkpt lat="48.1343" lon="6.87227">
        <ele>704.59997558594</ele>
        <time>2026-09-02T14:32:27.000Z</time>
      </trkpt>
      <trkpt lat="48.13429" lon="6.87227">
        <ele>704.59997558594</ele>
        <time>2026-09-02T14:32:28.000Z</time>
      </trkpt>
      <trkpt lat="48.13428" lon="6.87228">
        <ele>704.59997558594</ele>
        <time>2026-09-02T14:32:29.000Z</time>
      </trkpt>
      <trkpt lat="48.13428" lon="6.87228">
        <ele>704.59997558594</ele>
        <time>2026-09-02T14:32:30.000Z</time>
      </trkpt>
      <trkpt lat="48.13428" lon="6.87228">
        <ele>704.59997558594</ele>
        <time>2026-09-02T14:32:31.000Z</time>
      </trkpt>
      <trkpt lat="48.13428" lon="6.87228">
        <ele>704.59997558594</ele>
        <time>2026-09-02T14:32:32.000Z</time>
      </trkpt>
      <trkpt lat="48.13428" lon="6.87228">
        <ele>704.59997558594</ele>
        <time>2026-09-02T14:32:33.000Z</time>
      </trkpt>
      <trkpt lat="48.13428" lon="6.87228">
        <ele>704.59997558594</ele>
        <time>2026-09-02T14:32:34.000Z</time>
      </trkpt>
      <trkpt lat="48.13428" lon="6.87228">
        <ele>704.59997558594</ele>
        <time>2026-09-02T14:32:35.000Z</time>
      </trkpt>
      <trkpt lat="48.13428" lon="6.87228">
        <ele>704.80004882812</ele>
        <time>2026-09-02T14:32:36.000Z</time>
      </trkpt>
      <trkpt lat="48.13428" lon="6.87228">
        <ele>704.80004882812</ele>
        <time>2026-09-02T14:32:37.000Z</time>
      </trkpt>
      <trkpt lat="48.13428" lon="6.87228">
        <ele>704.80004882812</ele>
        <time>2026-09-02T14:32:38.000Z</time>
      </trkpt>
      <trkpt lat="48.13428" lon="6.87228">
        <ele>704.80004882812</ele>
        <time>2026-09-02T14:32:39.000Z</time>
      </trkpt>
      <trkpt lat="48.13428" lon="6.87228">
        <ele>704.80004882812</ele>
        <time>2026-09-02T14:32:40.000Z</time>
      </trkpt>
      <trkpt lat="48.13428" lon="6.87228">
        <ele>704.80004882812</ele>
        <time>2026-09-02T14:32:41.000Z</time>
      </trkpt>
      <trkpt lat="48.13428" lon="6.87228">
        <ele>704.59997558594</ele>
        <time>2026-09-02T14:32:42.000Z</time>
      </trkpt>
      <trkpt lat="48.13428" lon="6.87228">
        <ele>704.59997558594</ele>
        <time>2026-09-02T14:32:43.000Z</time>
      </trkpt>
      <trkpt lat="48.13428" lon="6.87228">
        <ele>704.59997558594</ele>
        <time>2026-09-02T14:32:44.000Z</time>
      </trkpt>
      <trkpt lat="48.13428" lon="6.87228">
        <ele>704.80004882812</ele>
        <time>2026-09-02T14:32:45.000Z</time>
      </trkpt>
      <trkpt lat="48.13428" lon="6.87228">
        <ele>704.80004882812</ele>
        <time>2026-09-02T14:32:46.000Z</time>
      </trkpt>
      <trkpt lat="48.13428" lon="6.87228">
        <ele>704.59997558594</ele>
        <time>2026-09-02T14:32:47.000Z</time>
      </trkpt>
      <trkpt lat="48.13428" lon="6.87228">
        <ele>704.59997558594</ele>
        <time>2026-09-02T14:32:48.000Z</time>
      </trkpt>
      <trkpt lat="48.13428" lon="6.87228">
        <ele>704.59997558594</ele>
        <time>2026-09-02T14:32:49.000Z</time>
      </trkpt>
      <trkpt lat="48.13428" lon="6.87228">
        <ele>704.80004882812</ele>
        <time>2026-09-02T14:32:50.000Z</time>
      </trkpt>
      <trkpt lat="48.13428" lon="6.87228">
        <ele>704.80004882812</ele>
        <time>2026-09-02T14:32:51.000Z</time>
      </trkpt>
      <trkpt lat="48.13428" lon="6.87228">
        <ele>704.80004882812</ele>
        <time>2026-09-02T14:32:52.000Z</time>
      </trkpt>
      <trkpt lat="48.13428" lon="6.87228">
        <ele>705</ele>
        <time>2026-09-02T14:32:53.000Z</time>
      </trkpt>
      <trkpt lat="48.13428" lon="6.87228">
        <ele>705</ele>
        <time>2026-09-02T14:32:54.000Z</time>
      </trkpt>
      <trkpt lat="48.13428" lon="6.87228">
        <ele>705</ele>
        <time>2026-09-02T14:32:55.000Z</time>
      </trkpt>
      <trkpt lat="48.13428" lon="6.87228">
        <ele>705</ele>
        <time>2026-09-02T14:32:56.000Z</time>
      </trkpt>
      <trkpt lat="48.13428" lon="6.87228">
        <ele>705</ele>
        <time>2026-09-02T14:32:57.000Z</time>
      </trkpt>
      <trkpt lat="48.13428" lon="6.87228">
        <ele>705</ele>
        <time>2026-09-02T14:32:58.000Z</time>
      </trkpt>
      <trkpt lat="48.13428" lon="6.87228">
        <ele>704.80004882812</ele>
        <time>2026-09-02T14:32:59.000Z</time>
      </trkpt>
      <trkpt lat="48.13428" lon="6.87228">
        <ele>704.59997558594</ele>
        <time>2026-09-02T14:33:00.000Z</time>
      </trkpt>
      <trkpt lat="48.13428" lon="6.87228">
        <ele>704.59997558594</ele>
        <time>2026-09-02T14:33:01.000Z</time>
      </trkpt>
      <trkpt lat="48.13428" lon="6.87228">
        <ele>704.59997558594</ele>
        <time>2026-09-02T14:33:02.000Z</time>
      </trkpt>
      <trkpt lat="48.13428" lon="6.87228">
        <ele>704.40002441406</ele>
        <time>2026-09-02T14:33:03.000Z</time>
      </trkpt>
      <trkpt lat="48.13428" lon="6.87228">
        <ele>704.59997558594</ele>
        <time>2026-09-02T14:33:04.000Z</time>
      </trkpt>
      <trkpt lat="48.13428" lon="6.87228">
        <ele>704.59997558594</ele>
        <time>2026-09-02T14:33:05.000Z</time>
      </trkpt>
      <trkpt lat="48.13428" lon="6.87228">
        <ele>704.59997558594</ele>
        <time>2026-09-02T14:33:06.000Z</time>
      </trkpt>
      <trkpt lat="48.13428" lon="6.87228">
        <ele>704.59997558594</ele>
        <time>2026-09-02T14:33:07.000Z</time>
      </trkpt>
      <trkpt lat="48.13428" lon="6.87228">
        <ele>704.80004882812</ele>
        <time>2026-09-02T14:33:08.000Z</time>
      </trkpt>
      <trkpt lat="48.13428" lon="6.87228">
        <ele>704.80004882812</ele>
        <time>2026-09-02T14:33:09.000Z</time>
      </trkpt>
      <trkpt lat="48.13428" lon="6.87228">
        <ele>704.80004882812</ele>
        <time>2026-09-02T14:33:10.000Z</time>
      </trkpt>
      <trkpt lat="48.13428" lon="6.87228">
        <ele>704.80004882812</ele>
        <time>2026-09-02T14:33:11.000Z</time>
      </trkpt>
      <trkpt lat="48.13428" lon="6.87228">
        <ele>704.80004882812</ele>
        <time>2026-09-02T14:33:12.000Z</time>
      </trkpt>
      <trkpt lat="48.13428" lon="6.87228">
        <ele>704.80004882812</ele>
        <time>2026-09-02T14:33:13.000Z</time>
      </trkpt>
      <trkpt lat="48.13428" lon="6.87228">
        <ele>704.80004882812</ele>
        <time>2026-09-02T14:33:14.000Z</time>
      </trkpt>
      <trkpt lat="48.13428" lon="6.87228">
        <ele>704.80004882812</ele>
        <time>2026-09-02T14:33:15.000Z</time>
      </trkpt>
      <trkpt lat="48.13428" lon="6.87228">
        <ele>704.80004882812</ele>
        <time>2026-09-02T14:33:16.000Z</time>
      </trkpt>
      <trkpt lat="48.13428" lon="6.87228">
        <ele>705</ele>
        <time>2026-09-02T14:33:17.000Z</time>
      </trkpt>
      <trkpt lat="48.13428" lon="6.87228">
        <ele>705</ele>
        <time>2026-09-02T14:33:18.000Z</time>
      </trkpt>
      <trkpt lat="48.13428" lon="6.87228">
        <ele>705</ele>
        <time>2026-09-02T14:33:19.000Z</time>
      </trkpt>
      <trkpt lat="48.13428" lon="6.87228">
        <ele>705</ele>
        <time>2026-09-02T14:33:20.000Z</time>
      </trkpt>
      <trkpt lat="48.13428" lon="6.87228">
        <ele>704.80004882812</ele>
        <time>2026-09-02T14:33:21.000Z</time>
      </trkpt>
      <trkpt lat="48.13428" lon="6.87228">
        <ele>704.80004882812</ele>
        <time>2026-09-02T14:33:22.000Z</time>
      </trkpt>
      <trkpt lat="48.13428" lon="6.87228">
        <ele>704.80004882812</ele>
        <time>2026-09-02T14:33:23.000Z</time>
      </trkpt>
      <trkpt lat="48.13428" lon="6.87228">
        <ele>704.80004882812</ele>
        <time>2026-09-02T14:33:24.000Z</time>
      </trkpt>
      <trkpt lat="48.13428" lon="6.87228">
        <ele>704.59997558594</ele>
        <time>2026-09-02T14:33:25.000Z</time>
      </trkpt>
      <trkpt lat="48.13428" lon="6.87228">
        <ele>704.59997558594</ele>
        <time>2026-09-02T14:33:26.000Z</time>
      </trkpt>
      <trkpt lat="48.13428" lon="6.87228">
        <ele>704.59997558594</ele>
        <time>2026-09-02T14:33:27.000Z</time>
      </trkpt>
      <trkpt lat="48.13428" lon="6.87228">
        <ele>704.59997558594</ele>
        <time>2026-09-02T14:33:28.000Z</time>
      </trkpt>
      <trkpt lat="48.13428" lon="6.87228">
        <ele>704.59997558594</ele>
        <time>2026-09-02T14:33:29.000Z</time>
      </trkpt>
      <trkpt lat="48.13428" lon="6.87228">
        <ele>704.40002441406</ele>
        <time>2026-09-02T14:33:30.000Z</time>
      </trkpt>
      <trkpt lat="48.13428" lon="6.87228">
        <ele>704.40002441406</ele>
        <time>2026-09-02T14:33:31.000Z</time>
      </trkpt>
      <trkpt lat="48.13428" lon="6.87228">
        <ele>704.40002441406</ele>
        <time>2026-09-02T14:33:32.000Z</time>
      </trkpt>
      <trkpt lat="48.13428" lon="6.87228">
        <ele>704.40002441406</ele>
        <time>2026-09-02T14:33:33.000Z</time>
      </trkpt>
      <trkpt lat="48.13428" lon="6.87228">
        <ele>704.40002441406</ele>
        <time>2026-09-02T14:33:34.000Z</time>
      </trkpt>
      <trkpt lat="48.13428" lon="6.87228">
        <ele>704.40002441406</ele>
        <time>2026-09-02T14:33:35.000Z</time>
      </trkpt>
      <trkpt lat="48.13428" lon="6.87228">
        <ele>704.59997558594</ele>
        <time>2026-09-02T14:33:36.000Z</time>
      </trkpt>
      <trkpt lat="48.13428" lon="6.87228">
        <ele>704.59997558594</ele>
        <time>2026-09-02T14:33:37.000Z</time>
      </trkpt>
      <trkpt lat="48.13428" lon="6.87228">
        <ele>704.80004882812</ele>
        <time>2026-09-02T14:33:38.000Z</time>
      </trkpt>
      <trkpt lat="48.13428" lon="6.87228">
        <ele>704.80004882812</ele>
        <time>2026-09-02T14:33:39.000Z</time>
      </trkpt>
      <trkpt lat="48.13428" lon="6.87228">
        <ele>704.59997558594</ele>
        <time>2026-09-02T14:33:40.000Z</time>
      </trkpt>
      <trkpt lat="48.13428" lon="6.87228">
        <ele>704.59997558594</ele>
        <time>2026-09-02T14:33:41.000Z</time>
      </trkpt>
      <trkpt lat="48.13428" lon="6.87228">
        <ele>704.59997558594</ele>
        <time>2026-09-02T14:33:42.000Z</time>
      </trkpt>
      <trkpt lat="48.13428" lon="6.87228">
        <ele>704.59997558594</ele>
        <time>2026-09-02T14:33:43.000Z</time>
      </trkpt>
      <trkpt lat="48.13428" lon="6.87228">
        <ele>704.59997558594</ele>
        <time>2026-09-02T14:33:44.000Z</time>
      </trkpt>
      <trkpt lat="48.13428" lon="6.87228">
        <ele>704.59997558594</ele>
        <time>2026-09-02T14:33:45.000Z</time>
      </trkpt>
      <trkpt lat="48.13428" lon="6.87228">
        <ele>704.59997558594</ele>
        <time>2026-09-02T14:33:46.000Z</time>
      </trkpt>
      <trkpt lat="48.13428" lon="6.87228">
        <ele>704.59997558594</ele>
        <time>2026-09-02T14:33:47.000Z</time>
      </trkpt>
      <trkpt lat="48.13428" lon="6.87228">
        <ele>704.59997558594</ele>
        <time>2026-09-02T14:33:48.000Z</time>
      </trkpt>
      <trkpt lat="48.13428" lon="6.87228">
        <ele>704.59997558594</ele>
        <time>2026-09-02T14:33:49.000Z</time>
      </trkpt>
      <trkpt lat="48.13428" lon="6.87228">
        <ele>704.59997558594</ele>
        <time>2026-09-02T14:33:50.000Z</time>
      </trkpt>
      <trkpt lat="48.13428" lon="6.87228">
        <ele>704.59997558594</ele>
        <time>2026-09-02T14:33:51.000Z</time>
      </trkpt>
      <trkpt lat="48.13428" lon="6.87228">
        <ele>704.59997558594</ele>
        <time>2026-09-02T14:33:52.000Z</time>
      </trkpt>
      <trkpt lat="48.13428" lon="6.87228">
        <ele>704.80004882812</ele>
        <time>2026-09-02T14:33:53.000Z</time>
      </trkpt>
      <trkpt lat="48.13428" lon="6.87228">
        <ele>704.80004882812</ele>
        <time>2026-09-02T14:33:54.000Z</time>
      </trkpt>
      <trkpt lat="48.13428" lon="6.87228">
        <ele>705</ele>
        <time>2026-09-02T14:33:55.000Z</time>
      </trkpt>
      <trkpt lat="48.13428" lon="6.87228">
        <ele>705</ele>
        <time>2026-09-02T14:33:56.000Z</time>
      </trkpt>
      <trkpt lat="48.13428" lon="6.87228">
        <ele>705</ele>
        <time>2026-09-02T14:33:57.000Z</time>
      </trkpt>
      <trkpt lat="48.13428" lon="6.87228">
        <ele>705</ele>
        <time>2026-09-02T14:33:58.000Z</time>
      </trkpt>
      <trkpt lat="48.13428" lon="6.87228">
        <ele>705</ele>
        <time>2026-09-02T14:33:59.000Z</time>
      </trkpt>
      <trkpt lat="48.13428" lon="6.87228">
        <ele>705</ele>
        <time>2026-09-02T14:34:00.000Z</time>
      </trkpt>
      <trkpt lat="48.13428" lon="6.87228">
        <ele>705</ele>
        <time>2026-09-02T14:34:01.000Z</time>
      </trkpt>
      <trkpt lat="48.13428" lon="6.87228">
        <ele>705</ele>
        <time>2026-09-02T14:34:02.000Z</time>
      </trkpt>
      <trkpt lat="48.13428" lon="6.87228">
        <ele>705</ele>
        <time>2026-09-02T14:34:03.000Z</time>
      </trkpt>
      <trkpt lat="48.13428" lon="6.87228">
        <ele>705</ele>
        <time>2026-09-02T14:34:04.000Z</time>
      </trkpt>
      <trkpt lat="48.13428" lon="6.87228">
        <ele>705</ele>
        <time>2026-09-02T14:34:05.000Z</time>
      </trkpt>
      <trkpt lat="48.13428" lon="6.87228">
        <ele>705</ele>
        <time>2026-09-02T14:34:06.000Z</time>
      </trkpt>
      <trkpt lat="48.13428" lon="6.87228">
        <ele>705</ele>
        <time>2026-09-02T14:34:07.000Z</time>
      </trkpt>
      <trkpt lat="48.13428" lon="6.87228">
        <ele>705</ele>
        <time>2026-09-02T14:34:08.000Z</time>
      </trkpt>
      <trkpt lat="48.13427" lon="6.87228">
        <ele>705</ele>
        <time>2026-09-02T14:34:09.000Z</time>
      </trkpt>
      <trkpt lat="48.13427" lon="6.87228">
        <ele>705</ele>
        <time>2026-09-02T14:34:10.000Z</time>
      </trkpt>
      <trkpt lat="48.13427" lon="6.87229">
        <ele>705.19995117188</ele>
        <time>2026-09-02T14:34:11.000Z</time>
      </trkpt>
      <trkpt lat="48.13426" lon="6.87229">
        <ele>705.19995117188</ele>
        <time>2026-09-02T14:34:12.000Z</time>
      </trkpt>
      <trkpt lat="48.13426" lon="6.8723">
        <ele>705.19995117188</ele>
        <time>2026-09-02T14:34:13.000Z</time>
      </trkpt>
      <trkpt lat="48.13425" lon="6.8723">
        <ele>705.19995117188</ele>
        <time>2026-09-02T14:34:14.000Z</time>
      </trkpt>
      <trkpt lat="48.13425" lon="6.87231">
        <ele>705.19995117188</ele>
        <time>2026-09-02T14:34:15.000Z</time>
      </trkpt>
      <trkpt lat="48.13424" lon="6.87232">
        <ele>705.19995117188</ele>
        <time>2026-09-02T14:34:16.000Z</time>
      </trkpt>
      <trkpt lat="48.13423" lon="6.87233">
        <ele>705.19995117188</ele>
        <time>2026-09-02T14:34:17.000Z</time>
      </trkpt>
      <trkpt lat="48.13422" lon="6.87233">
        <ele>705.19995117188</ele>
        <time>2026-09-02T14:34:18.000Z</time>
      </trkpt>
      <trkpt lat="48.13422" lon="6.87234">
        <ele>705.19995117188</ele>
        <time>2026-09-02T14:34:19.000Z</time>
      </trkpt>
      <trkpt lat="48.13421" lon="6.87235">
        <ele>705.19995117188</ele>
        <time>2026-09-02T14:34:20.000Z</time>
      </trkpt>
      <trkpt lat="48.1342" lon="6.87235">
        <ele>705.19995117188</ele>
        <time>2026-09-02T14:34:21.000Z</time>
      </trkpt>
      <trkpt lat="48.13419" lon="6.87236">
        <ele>705.19995117188</ele>
        <time>2026-09-02T14:34:22.000Z</time>
      </trkpt>
      <trkpt lat="48.13419" lon="6.87237">
        <ele>705.19995117188</ele>
        <time>2026-09-02T14:34:23.000Z</time>
      </trkpt>
      <trkpt lat="48.13418" lon="6.87237">
        <ele>705.19995117188</ele>
        <time>2026-09-02T14:34:24.000Z</time>
      </trkpt>
      <trkpt lat="48.13417" lon="6.87238">
        <ele>705.19995117188</ele>
        <time>2026-09-02T14:34:25.000Z</time>
      </trkpt>
      <trkpt lat="48.13417" lon="6.87238">
        <ele>705.19995117188</ele>
        <time>2026-09-02T14:34:26.000Z</time>
      </trkpt>
      <trkpt lat="48.13416" lon="6.87239">
        <ele>705.19995117188</ele>
        <time>2026-09-02T14:34:27.000Z</time>
      </trkpt>
      <trkpt lat="48.13415" lon="6.8724">
        <ele>705.19995117188</ele>
        <time>2026-09-02T14:34:28.000Z</time>
      </trkpt>
      <trkpt lat="48.13415" lon="6.8724">
        <ele>705.19995117188</ele>
        <time>2026-09-02T14:34:29.000Z</time>
      </trkpt>
      <trkpt lat="48.13414" lon="6.87241">
        <ele>705.19995117188</ele>
        <time>2026-09-02T14:34:30.000Z</time>
      </trkpt>
      <trkpt lat="48.13413" lon="6.87242">
        <ele>705.19995117188</ele>
        <time>2026-09-02T14:34:31.000Z</time>
      </trkpt>
      <trkpt lat="48.13412" lon="6.87242">
        <ele>705.19995117188</ele>
        <time>2026-09-02T14:34:32.000Z</time>
      </trkpt>
      <trkpt lat="48.13411" lon="6.87243">
        <ele>705.19995117188</ele>
        <time>2026-09-02T14:34:33.000Z</time>
      </trkpt>
      <trkpt lat="48.1341" lon="6.87244">
        <ele>705.40002441406</ele>
        <time>2026-09-02T14:34:34.000Z</time>
      </trkpt>
      <trkpt lat="48.13409" lon="6.87245">
        <ele>705.40002441406</ele>
        <time>2026-09-02T14:34:35.000Z</time>
      </trkpt>
      <trkpt lat="48.13408" lon="6.87246">
        <ele>705.40002441406</ele>
        <time>2026-09-02T14:34:36.000Z</time>
      </trkpt>
      <trkpt lat="48.13408" lon="6.87247">
        <ele>705.40002441406</ele>
        <time>2026-09-02T14:34:37.000Z</time>
      </trkpt>
      <trkpt lat="48.13407" lon="6.87247">
        <ele>705.40002441406</ele>
        <time>2026-09-02T14:34:38.000Z</time>
      </trkpt>
      <trkpt lat="48.13407" lon="6.87248">
        <ele>705.40002441406</ele>
        <time>2026-09-02T14:34:39.000Z</time>
      </trkpt>
      <trkpt lat="48.13406" lon="6.87249">
        <ele>705.40002441406</ele>
        <time>2026-09-02T14:34:40.000Z</time>
      </trkpt>
      <trkpt lat="48.13405" lon="6.87249">
        <ele>705.40002441406</ele>
        <time>2026-09-02T14:34:41.000Z</time>
      </trkpt>
      <trkpt lat="48.13404" lon="6.8725">
        <ele>705.40002441406</ele>
        <time>2026-09-02T14:34:42.000Z</time>
      </trkpt>
      <trkpt lat="48.13403" lon="6.87251">
        <ele>705.40002441406</ele>
        <time>2026-09-02T14:34:43.000Z</time>
      </trkpt>
      <trkpt lat="48.13403" lon="6.87251">
        <ele>705.40002441406</ele>
        <time>2026-09-02T14:34:44.000Z</time>
      </trkpt>
      <trkpt lat="48.13402" lon="6.87252">
        <ele>705.40002441406</ele>
        <time>2026-09-02T14:34:45.000Z</time>
      </trkpt>
      <trkpt lat="48.13401" lon="6.87252">
        <ele>705.40002441406</ele>
        <time>2026-09-02T14:34:46.000Z</time>
      </trkpt>
      <trkpt lat="48.13401" lon="6.87253">
        <ele>705.40002441406</ele>
        <time>2026-09-02T14:34:47.000Z</time>
      </trkpt>
      <trkpt lat="48.13401" lon="6.87254">
        <ele>705.40002441406</ele>
        <time>2026-09-02T14:34:48.000Z</time>
      </trkpt>
      <trkpt lat="48.134" lon="6.87255">
        <ele>705.59997558594</ele>
        <time>2026-09-02T14:34:49.000Z</time>
      </trkpt>
      <trkpt lat="48.13399" lon="6.87255">
        <ele>705.59997558594</ele>
        <time>2026-09-02T14:34:50.000Z</time>
      </trkpt>
      <trkpt lat="48.13399" lon="6.87256">
        <ele>705.59997558594</ele>
        <time>2026-09-02T14:34:51.000Z</time>
      </trkpt>
      <trkpt lat="48.13398" lon="6.87257">
        <ele>705.59997558594</ele>
        <time>2026-09-02T14:34:52.000Z</time>
      </trkpt>
      <trkpt lat="48.13397" lon="6.87257">
        <ele>705.80004882812</ele>
        <time>2026-09-02T14:34:53.000Z</time>
      </trkpt>
      <trkpt lat="48.13396" lon="6.87258">
        <ele>705.80004882812</ele>
        <time>2026-09-02T14:34:54.000Z</time>
      </trkpt>
      <trkpt lat="48.13396" lon="6.87258">
        <ele>706</ele>
        <time>2026-09-02T14:34:55.000Z</time>
      </trkpt>
      <trkpt lat="48.13395" lon="6.87259">
        <ele>706</ele>
        <time>2026-09-02T14:34:56.000Z</time>
      </trkpt>
      <trkpt lat="48.13394" lon="6.8726">
        <ele>706</ele>
        <time>2026-09-02T14:34:57.000Z</time>
      </trkpt>
      <trkpt lat="48.13393" lon="6.8726">
        <ele>706</ele>
        <time>2026-09-02T14:34:58.000Z</time>
      </trkpt>
      <trkpt lat="48.13393" lon="6.87261">
        <ele>706</ele>
        <time>2026-09-02T14:34:59.000Z</time>
      </trkpt>
      <trkpt lat="48.13392" lon="6.87262">
        <ele>706</ele>
        <time>2026-09-02T14:35:00.000Z</time>
      </trkpt>
      <trkpt lat="48.13392" lon="6.87262">
        <ele>706</ele>
        <time>2026-09-02T14:35:01.000Z</time>
      </trkpt>
      <trkpt lat="48.13391" lon="6.87263">
        <ele>706</ele>
        <time>2026-09-02T14:35:02.000Z</time>
      </trkpt>
      <trkpt lat="48.1339" lon="6.87264">
        <ele>706</ele>
        <time>2026-09-02T14:35:03.000Z</time>
      </trkpt>
      <trkpt lat="48.13389" lon="6.87264">
        <ele>706</ele>
        <time>2026-09-02T14:35:04.000Z</time>
      </trkpt>
      <trkpt lat="48.13388" lon="6.87265">
        <ele>706</ele>
        <time>2026-09-02T14:35:05.000Z</time>
      </trkpt>
      <trkpt lat="48.13387" lon="6.87265">
        <ele>706</ele>
        <time>2026-09-02T14:35:06.000Z</time>
      </trkpt>
      <trkpt lat="48.13386" lon="6.87266">
        <ele>706</ele>
        <time>2026-09-02T14:35:07.000Z</time>
      </trkpt>
      <trkpt lat="48.13385" lon="6.87267">
        <ele>706.19995117188</ele>
        <time>2026-09-02T14:35:08.000Z</time>
      </trkpt>
      <trkpt lat="48.13384" lon="6.87268">
        <ele>706.19995117188</ele>
        <time>2026-09-02T14:35:09.000Z</time>
      </trkpt>
      <trkpt lat="48.13383" lon="6.87268">
        <ele>706.40002441406</ele>
        <time>2026-09-02T14:35:10.000Z</time>
      </trkpt>
      <trkpt lat="48.13382" lon="6.87269">
        <ele>706.40002441406</ele>
        <time>2026-09-02T14:35:11.000Z</time>
      </trkpt>
      <trkpt lat="48.13381" lon="6.87269">
        <ele>706.40002441406</ele>
        <time>2026-09-02T14:35:12.000Z</time>
      </trkpt>
      <trkpt lat="48.1338" lon="6.8727">
        <ele>706.40002441406</ele>
        <time>2026-09-02T14:35:13.000Z</time>
      </trkpt>
      <trkpt lat="48.1338" lon="6.87271">
        <ele>706.40002441406</ele>
        <time>2026-09-02T14:35:14.000Z</time>
      </trkpt>
      <trkpt lat="48.13379" lon="6.87271">
        <ele>706.19995117188</ele>
        <time>2026-09-02T14:35:15.000Z</time>
      </trkpt>
      <trkpt lat="48.13378" lon="6.87272">
        <ele>706.19995117188</ele>
        <time>2026-09-02T14:35:16.000Z</time>
      </trkpt>
      <trkpt lat="48.13377" lon="6.87272">
        <ele>706.40002441406</ele>
        <time>2026-09-02T14:35:17.000Z</time>
      </trkpt>
      <trkpt lat="48.13376" lon="6.87272">
        <ele>706.59997558594</ele>
        <time>2026-09-02T14:35:18.000Z</time>
      </trkpt>
      <trkpt lat="48.13375" lon="6.87273">
        <ele>706.59997558594</ele>
        <time>2026-09-02T14:35:19.000Z</time>
      </trkpt>
      <trkpt lat="48.13375" lon="6.87274">
        <ele>706.59997558594</ele>
        <time>2026-09-02T14:35:20.000Z</time>
      </trkpt>
      <trkpt lat="48.13374" lon="6.87274">
        <ele>706.59997558594</ele>
        <time>2026-09-02T14:35:21.000Z</time>
      </trkpt>
      <trkpt lat="48.13374" lon="6.87275">
        <ele>706.59997558594</ele>
        <time>2026-09-02T14:35:22.000Z</time>
      </trkpt>
      <trkpt lat="48.13373" lon="6.87275">
        <ele>706.40002441406</ele>
        <time>2026-09-02T14:35:23.000Z</time>
      </trkpt>
      <trkpt lat="48.13372" lon="6.87275">
        <ele>706.40002441406</ele>
        <time>2026-09-02T14:35:24.000Z</time>
      </trkpt>
      <trkpt lat="48.13371" lon="6.87276">
        <ele>706.19995117188</ele>
        <time>2026-09-02T14:35:25.000Z</time>
      </trkpt>
      <trkpt lat="48.13371" lon="6.87277">
        <ele>706.40002441406</ele>
        <time>2026-09-02T14:35:26.000Z</time>
      </trkpt>
      <trkpt lat="48.1337" lon="6.87277">
        <ele>706.40002441406</ele>
        <time>2026-09-02T14:35:27.000Z</time>
      </trkpt>
      <trkpt lat="48.13369" lon="6.87277">
        <ele>706.59997558594</ele>
        <time>2026-09-02T14:35:28.000Z</time>
      </trkpt>
      <trkpt lat="48.13368" lon="6.87278">
        <ele>706.59997558594</ele>
        <time>2026-09-02T14:35:29.000Z</time>
      </trkpt>
      <trkpt lat="48.13367" lon="6.87278">
        <ele>706.59997558594</ele>
        <time>2026-09-02T14:35:30.000Z</time>
      </trkpt>
      <trkpt lat="48.13367" lon="6.87279">
        <ele>706.59997558594</ele>
        <time>2026-09-02T14:35:31.000Z</time>
      </trkpt>
      <trkpt lat="48.13366" lon="6.8728">
        <ele>706.59997558594</ele>
        <time>2026-09-02T14:35:32.000Z</time>
      </trkpt>
      <trkpt lat="48.13365" lon="6.87281">
        <ele>706.59997558594</ele>
        <time>2026-09-02T14:35:33.000Z</time>
      </trkpt>
      <trkpt lat="48.13364" lon="6.87281">
        <ele>706.59997558594</ele>
        <time>2026-09-02T14:35:34.000Z</time>
      </trkpt>
      <trkpt lat="48.13363" lon="6.87282">
        <ele>706.59997558594</ele>
        <time>2026-09-02T14:35:35.000Z</time>
      </trkpt>
      <trkpt lat="48.13361" lon="6.87282">
        <ele>706.59997558594</ele>
        <time>2026-09-02T14:35:36.000Z</time>
      </trkpt>
      <trkpt lat="48.1336" lon="6.87283">
        <ele>706.59997558594</ele>
        <time>2026-09-02T14:35:37.000Z</time>
      </trkpt>
      <trkpt lat="48.13359" lon="6.87284">
        <ele>706.59997558594</ele>
        <time>2026-09-02T14:35:38.000Z</time>
      </trkpt>
      <trkpt lat="48.13358" lon="6.87285">
        <ele>706.59997558594</ele>
        <time>2026-09-02T14:35:39.000Z</time>
      </trkpt>
      <trkpt lat="48.13358" lon="6.87285">
        <ele>706.59997558594</ele>
        <time>2026-09-02T14:35:40.000Z</time>
      </trkpt>
      <trkpt lat="48.13357" lon="6.87286">
        <ele>706.59997558594</ele>
        <time>2026-09-02T14:35:41.000Z</time>
      </trkpt>
      <trkpt lat="48.13356" lon="6.87287">
        <ele>706.59997558594</ele>
        <time>2026-09-02T14:35:42.000Z</time>
      </trkpt>
      <trkpt lat="48.13355" lon="6.87287">
        <ele>706.59997558594</ele>
        <time>2026-09-02T14:35:43.000Z</time>
      </trkpt>
      <trkpt lat="48.13354" lon="6.87288">
        <ele>706.59997558594</ele>
        <time>2026-09-02T14:35:44.000Z</time>
      </trkpt>
      <trkpt lat="48.13353" lon="6.87289">
        <ele>706.80004882812</ele>
        <time>2026-09-02T14:35:45.000Z</time>
      </trkpt>
      <trkpt lat="48.13353" lon="6.87289">
        <ele>706.80004882812</ele>
        <time>2026-09-02T14:35:46.000Z</time>
      </trkpt>
      <trkpt lat="48.13351" lon="6.87289">
        <ele>706.80004882812</ele>
        <time>2026-09-02T14:35:47.000Z</time>
      </trkpt>
      <trkpt lat="48.13351" lon="6.8729">
        <ele>706.80004882812</ele>
        <time>2026-09-02T14:35:48.000Z</time>
      </trkpt>
      <trkpt lat="48.1335" lon="6.8729">
        <ele>706.80004882812</ele>
        <time>2026-09-02T14:35:49.000Z</time>
      </trkpt>
      <trkpt lat="48.1335" lon="6.87291">
        <ele>706.80004882812</ele>
        <time>2026-09-02T14:35:50.000Z</time>
      </trkpt>
      <trkpt lat="48.13349" lon="6.87291">
        <ele>706.59997558594</ele>
        <time>2026-09-02T14:35:51.000Z</time>
      </trkpt>
      <trkpt lat="48.13348" lon="6.87291">
        <ele>706.59997558594</ele>
        <time>2026-09-02T14:35:52.000Z</time>
      </trkpt>
      <trkpt lat="48.13347" lon="6.87292">
        <ele>706.59997558594</ele>
        <time>2026-09-02T14:35:53.000Z</time>
      </trkpt>
      <trkpt lat="48.13346" lon="6.87293">
        <ele>706.59997558594</ele>
        <time>2026-09-02T14:35:54.000Z</time>
      </trkpt>
      <trkpt lat="48.13345" lon="6.87294">
        <ele>706.80004882812</ele>
        <time>2026-09-02T14:35:55.000Z</time>
      </trkpt>
      <trkpt lat="48.13344" lon="6.87294">
        <ele>706.80004882812</ele>
        <time>2026-09-02T14:35:56.000Z</time>
      </trkpt>
      <trkpt lat="48.13343" lon="6.87295">
        <ele>707</ele>
        <time>2026-09-02T14:35:57.000Z</time>
      </trkpt>
      <trkpt lat="48.13343" lon="6.87295">
        <ele>707</ele>
        <time>2026-09-02T14:35:58.000Z</time>
      </trkpt>
      <trkpt lat="48.13343" lon="6.87294">
        <ele>707</ele>
        <time>2026-09-02T14:35:59.000Z</time>
      </trkpt>
      <trkpt lat="48.13343" lon="6.87294">
        <ele>706.80004882812</ele>
        <time>2026-09-02T14:36:00.000Z</time>
      </trkpt>
      <trkpt lat="48.13343" lon="6.87294">
        <ele>706.80004882812</ele>
        <time>2026-09-02T14:36:01.000Z</time>
      </trkpt>
      <trkpt lat="48.13343" lon="6.87294">
        <ele>707</ele>
        <time>2026-09-02T14:36:02.000Z</time>
      </trkpt>
      <trkpt lat="48.13343" lon="6.87294">
        <ele>707</ele>
        <time>2026-09-02T14:36:03.000Z</time>
      </trkpt>
      <trkpt lat="48.13343" lon="6.87294">
        <ele>707</ele>
        <time>2026-09-02T14:36:04.000Z</time>
      </trkpt>
      <trkpt lat="48.13343" lon="6.87294">
        <ele>707</ele>
        <time>2026-09-02T14:36:05.000Z</time>
      </trkpt>
      <trkpt lat="48.13343" lon="6.87294">
        <ele>706.80004882812</ele>
        <time>2026-09-02T14:36:06.000Z</time>
      </trkpt>
      <trkpt lat="48.13343" lon="6.87294">
        <ele>706.80004882812</ele>
        <time>2026-09-02T14:36:07.000Z</time>
      </trkpt>
      <trkpt lat="48.13343" lon="6.87294">
        <ele>706.59997558594</ele>
        <time>2026-09-02T14:36:08.000Z</time>
      </trkpt>
      <trkpt lat="48.13343" lon="6.87294">
        <ele>706.59997558594</ele>
        <time>2026-09-02T14:36:09.000Z</time>
      </trkpt>
      <trkpt lat="48.13343" lon="6.87294">
        <ele>706.59997558594</ele>
        <time>2026-09-02T14:36:10.000Z</time>
      </trkpt>
      <trkpt lat="48.13343" lon="6.87294">
        <ele>706.59997558594</ele>
        <time>2026-09-02T14:36:11.000Z</time>
      </trkpt>
      <trkpt lat="48.13343" lon="6.87294">
        <ele>706.59997558594</ele>
        <time>2026-09-02T14:36:12.000Z</time>
      </trkpt>
      <trkpt lat="48.13343" lon="6.87294">
        <ele>706.80004882812</ele>
        <time>2026-09-02T14:36:13.000Z</time>
      </trkpt>
      <trkpt lat="48.13343" lon="6.87294">
        <ele>706.80004882812</ele>
        <time>2026-09-02T14:36:14.000Z</time>
      </trkpt>
      <trkpt lat="48.13343" lon="6.87294">
        <ele>706.80004882812</ele>
        <time>2026-09-02T14:36:15.000Z</time>
      </trkpt>
      <trkpt lat="48.13343" lon="6.87294">
        <ele>707</ele>
        <time>2026-09-02T14:36:16.000Z</time>
      </trkpt>
      <trkpt lat="48.13343" lon="6.87294">
        <ele>707</ele>
        <time>2026-09-02T14:36:17.000Z</time>
      </trkpt>
      <trkpt lat="48.13343" lon="6.87294">
        <ele>706.80004882812</ele>
        <time>2026-09-02T14:36:18.000Z</time>
      </trkpt>
      <trkpt lat="48.13343" lon="6.87294">
        <ele>706.80004882812</ele>
        <time>2026-09-02T14:36:19.000Z</time>
      </trkpt>
      <trkpt lat="48.13343" lon="6.87294">
        <ele>706.80004882812</ele>
        <time>2026-09-02T14:36:20.000Z</time>
      </trkpt>
      <trkpt lat="48.13343" lon="6.87294">
        <ele>706.80004882812</ele>
        <time>2026-09-02T14:36:21.000Z</time>
      </trkpt>
      <trkpt lat="48.13343" lon="6.87294">
        <ele>706.80004882812</ele>
        <time>2026-09-02T14:36:22.000Z</time>
      </trkpt>
      <trkpt lat="48.13343" lon="6.87294">
        <ele>707</ele>
        <time>2026-09-02T14:36:23.000Z</time>
      </trkpt>
      <trkpt lat="48.13343" lon="6.87294">
        <ele>706.80004882812</ele>
        <time>2026-09-02T14:36:24.000Z</time>
      </trkpt>
      <trkpt lat="48.13343" lon="6.87294">
        <ele>706.80004882812</ele>
        <time>2026-09-02T14:36:25.000Z</time>
      </trkpt>
      <trkpt lat="48.13343" lon="6.87294">
        <ele>706.80004882812</ele>
        <time>2026-09-02T14:36:26.000Z</time>
      </trkpt>
      <trkpt lat="48.13343" lon="6.87294">
        <ele>706.80004882812</ele>
        <time>2026-09-02T14:36:27.000Z</time>
      </trkpt>
      <trkpt lat="48.13343" lon="6.87294">
        <ele>706.80004882812</ele>
        <time>2026-09-02T14:36:28.000Z</time>
      </trkpt>
      <trkpt lat="48.13343" lon="6.87294">
        <ele>706.80004882812</ele>
        <time>2026-09-02T14:36:29.000Z</time>
      </trkpt>
      <trkpt lat="48.13343" lon="6.87294">
        <ele>706.80004882812</ele>
        <time>2026-09-02T14:36:30.000Z</time>
      </trkpt>
      <trkpt lat="48.13343" lon="6.87294">
        <ele>706.80004882812</ele>
        <time>2026-09-02T14:36:31.000Z</time>
      </trkpt>
      <trkpt lat="48.13343" lon="6.87294">
        <ele>706.80004882812</ele>
        <time>2026-09-02T14:36:32.000Z</time>
      </trkpt>
      <trkpt lat="48.13343" lon="6.87294">
        <ele>706.80004882812</ele>
        <time>2026-09-02T14:36:33.000Z</time>
      </trkpt>
      <trkpt lat="48.13343" lon="6.87294">
        <ele>707</ele>
        <time>2026-09-02T14:36:34.000Z</time>
      </trkpt>
      <trkpt lat="48.13343" lon="6.87295">
        <ele>706.80004882812</ele>
        <time>2026-09-02T14:36:35.000Z</time>
      </trkpt>
      <trkpt lat="48.13342" lon="6.87296">
        <ele>706.80004882812</ele>
        <time>2026-09-02T14:36:36.000Z</time>
      </trkpt>
      <trkpt lat="48.13342" lon="6.87297">
        <ele>706.80004882812</ele>
        <time>2026-09-02T14:36:37.000Z</time>
      </trkpt>
      <trkpt lat="48.13341" lon="6.87298">
        <ele>706.80004882812</ele>
        <time>2026-09-02T14:36:38.000Z</time>
      </trkpt>
      <trkpt lat="48.1334" lon="6.87299">
        <ele>706.80004882812</ele>
        <time>2026-09-02T14:36:39.000Z</time>
      </trkpt>
      <trkpt lat="48.1334" lon="6.87299">
        <ele>707</ele>
        <time>2026-09-02T14:36:40.000Z</time>
      </trkpt>
      <trkpt lat="48.13339" lon="6.873">
        <ele>707</ele>
        <time>2026-09-02T14:36:41.000Z</time>
      </trkpt>
      <trkpt lat="48.13338" lon="6.87301">
        <ele>707</ele>
        <time>2026-09-02T14:36:42.000Z</time>
      </trkpt>
      <trkpt lat="48.13337" lon="6.87301">
        <ele>706.80004882812</ele>
        <time>2026-09-02T14:36:43.000Z</time>
      </trkpt>
      <trkpt lat="48.13336" lon="6.87302">
        <ele>706.80004882812</ele>
        <time>2026-09-02T14:36:44.000Z</time>
      </trkpt>
      <trkpt lat="48.13335" lon="6.87303">
        <ele>706.80004882812</ele>
        <time>2026-09-02T14:36:45.000Z</time>
      </trkpt>
      <trkpt lat="48.13334" lon="6.87304">
        <ele>706.80004882812</ele>
        <time>2026-09-02T14:36:46.000Z</time>
      </trkpt>
      <trkpt lat="48.13333" lon="6.87304">
        <ele>706.80004882812</ele>
        <time>2026-09-02T14:36:47.000Z</time>
      </trkpt>
      <trkpt lat="48.13333" lon="6.87305">
        <ele>706.80004882812</ele>
        <time>2026-09-02T14:36:48.000Z</time>
      </trkpt>
      <trkpt lat="48.13332" lon="6.87305">
        <ele>706.80004882812</ele>
        <time>2026-09-02T14:36:49.000Z</time>
      </trkpt>
      <trkpt lat="48.13331" lon="6.87306">
        <ele>706.80004882812</ele>
        <time>2026-09-02T14:36:50.000Z</time>
      </trkpt>
      <trkpt lat="48.1333" lon="6.87307">
        <ele>706.80004882812</ele>
        <time>2026-09-02T14:36:51.000Z</time>
      </trkpt>
      <trkpt lat="48.13329" lon="6.87307">
        <ele>706.80004882812</ele>
        <time>2026-09-02T14:36:52.000Z</time>
      </trkpt>
      <trkpt lat="48.13328" lon="6.87308">
        <ele>706.80004882812</ele>
        <time>2026-09-02T14:36:53.000Z</time>
      </trkpt>
      <trkpt lat="48.13327" lon="6.87308">
        <ele>706.80004882812</ele>
        <time>2026-09-02T14:36:54.000Z</time>
      </trkpt>
      <trkpt lat="48.13327" lon="6.87309">
        <ele>707</ele>
        <time>2026-09-02T14:36:55.000Z</time>
      </trkpt>
      <trkpt lat="48.13326" lon="6.87309">
        <ele>707</ele>
        <time>2026-09-02T14:36:56.000Z</time>
      </trkpt>
      <trkpt lat="48.13325" lon="6.8731">
        <ele>707.19995117188</ele>
        <time>2026-09-02T14:36:57.000Z</time>
      </trkpt>
      <trkpt lat="48.13324" lon="6.8731">
        <ele>707.40002441406</ele>
        <time>2026-09-02T14:36:58.000Z</time>
      </trkpt>
      <trkpt lat="48.13324" lon="6.87311">
        <ele>707.59997558594</ele>
        <time>2026-09-02T14:36:59.000Z</time>
      </trkpt>
      <trkpt lat="48.13323" lon="6.87312">
        <ele>707.59997558594</ele>
        <time>2026-09-02T14:37:00.000Z</time>
      </trkpt>
      <trkpt lat="48.13322" lon="6.87313">
        <ele>707.80004882812</ele>
        <time>2026-09-02T14:37:01.000Z</time>
      </trkpt>
      <trkpt lat="48.13321" lon="6.87313">
        <ele>708</ele>
        <time>2026-09-02T14:37:02.000Z</time>
      </trkpt>
      <trkpt lat="48.13321" lon="6.87314">
        <ele>708</ele>
        <time>2026-09-02T14:37:03.000Z</time>
      </trkpt>
      <trkpt lat="48.1332" lon="6.87314">
        <ele>708.19995117188</ele>
        <time>2026-09-02T14:37:04.000Z</time>
      </trkpt>
      <trkpt lat="48.13319" lon="6.87316">
        <ele>708.19995117188</ele>
        <time>2026-09-02T14:37:05.000Z</time>
      </trkpt>
      <trkpt lat="48.13317" lon="6.87316">
        <ele>708.19995117188</ele>
        <time>2026-09-02T14:37:06.000Z</time>
      </trkpt>
      <trkpt lat="48.13316" lon="6.87317">
        <ele>708.19995117188</ele>
        <time>2026-09-02T14:37:07.000Z</time>
      </trkpt>
      <trkpt lat="48.13316" lon="6.87317">
        <ele>708</ele>
        <time>2026-09-02T14:37:08.000Z</time>
      </trkpt>
      <trkpt lat="48.13315" lon="6.87318">
        <ele>708</ele>
        <time>2026-09-02T14:37:09.000Z</time>
      </trkpt>
      <trkpt lat="48.13315" lon="6.87318">
        <ele>708</ele>
        <time>2026-09-02T14:37:10.000Z</time>
      </trkpt>
      <trkpt lat="48.13315" lon="6.87318">
        <ele>708</ele>
        <time>2026-09-02T14:37:11.000Z</time>
      </trkpt>
      <trkpt lat="48.13315" lon="6.87318">
        <ele>708</ele>
        <time>2026-09-02T14:37:12.000Z</time>
      </trkpt>
      <trkpt lat="48.13315" lon="6.87318">
        <ele>707.80004882812</ele>
        <time>2026-09-02T14:37:13.000Z</time>
      </trkpt>
      <trkpt lat="48.13315" lon="6.87318">
        <ele>707.80004882812</ele>
        <time>2026-09-02T14:37:14.000Z</time>
      </trkpt>
      <trkpt lat="48.13315" lon="6.87318">
        <ele>707.80004882812</ele>
        <time>2026-09-02T14:37:15.000Z</time>
      </trkpt>
      <trkpt lat="48.13314" lon="6.87319">
        <ele>708</ele>
        <time>2026-09-02T14:37:16.000Z</time>
      </trkpt>
      <trkpt lat="48.13313" lon="6.8732">
        <ele>708</ele>
        <time>2026-09-02T14:37:17.000Z</time>
      </trkpt>
      <trkpt lat="48.13311" lon="6.87322">
        <ele>708.19995117188</ele>
        <time>2026-09-02T14:37:18.000Z</time>
      </trkpt>
      <trkpt lat="48.1331" lon="6.87323">
        <ele>708.40002441406</ele>
        <time>2026-09-02T14:37:19.000Z</time>
      </trkpt>
      <trkpt lat="48.13309" lon="6.87324">
        <ele>708.40002441406</ele>
        <time>2026-09-02T14:37:20.000Z</time>
      </trkpt>
      <trkpt lat="48.13307" lon="6.87326">
        <ele>708.40002441406</ele>
        <time>2026-09-02T14:37:21.000Z</time>
      </trkpt>
      <trkpt lat="48.13306" lon="6.87325">
        <ele>708.40002441406</ele>
        <time>2026-09-02T14:37:22.000Z</time>
      </trkpt>
      <trkpt lat="48.13305" lon="6.87326">
        <ele>708.40002441406</ele>
        <time>2026-09-02T14:37:23.000Z</time>
      </trkpt>
      <trkpt lat="48.13304" lon="6.87326">
        <ele>708.19995117188</ele>
        <time>2026-09-02T14:37:24.000Z</time>
      </trkpt>
      <trkpt lat="48.13303" lon="6.87327">
        <ele>707.80004882812</ele>
        <time>2026-09-02T14:37:25.000Z</time>
      </trkpt>
      <trkpt lat="48.13303" lon="6.87328">
        <ele>707.80004882812</ele>
        <time>2026-09-02T14:37:26.000Z</time>
      </trkpt>
      <trkpt lat="48.13302" lon="6.87329">
        <ele>707.80004882812</ele>
        <time>2026-09-02T14:37:27.000Z</time>
      </trkpt>
      <trkpt lat="48.13301" lon="6.8733">
        <ele>708</ele>
        <time>2026-09-02T14:37:28.000Z</time>
      </trkpt>
      <trkpt lat="48.133" lon="6.8733">
        <ele>708.19995117188</ele>
        <time>2026-09-02T14:37:29.000Z</time>
      </trkpt>
      <trkpt lat="48.13299" lon="6.87331">
        <ele>708.19995117188</ele>
        <time>2026-09-02T14:37:30.000Z</time>
      </trkpt>
      <trkpt lat="48.13298" lon="6.87331">
        <ele>708.40002441406</ele>
        <time>2026-09-02T14:37:31.000Z</time>
      </trkpt>
      <trkpt lat="48.13298" lon="6.87331">
        <ele>708.40002441406</ele>
        <time>2026-09-02T14:37:32.000Z</time>
      </trkpt>
      <trkpt lat="48.13297" lon="6.87331">
        <ele>708.40002441406</ele>
        <time>2026-09-02T14:37:33.000Z</time>
      </trkpt>
      <trkpt lat="48.13297" lon="6.87331">
        <ele>708.19995117188</ele>
        <time>2026-09-02T14:37:34.000Z</time>
      </trkpt>
      <trkpt lat="48.13295" lon="6.87331">
        <ele>708.19995117188</ele>
        <time>2026-09-02T14:37:35.000Z</time>
      </trkpt>
      <trkpt lat="48.13294" lon="6.87331">
        <ele>708</ele>
        <time>2026-09-02T14:37:36.000Z</time>
      </trkpt>
      <trkpt lat="48.13294" lon="6.87331">
        <ele>707.80004882812</ele>
        <time>2026-09-02T14:37:37.000Z</time>
      </trkpt>
      <trkpt lat="48.13293" lon="6.87331">
        <ele>707.80004882812</ele>
        <time>2026-09-02T14:37:38.000Z</time>
      </trkpt>
      <trkpt lat="48.13291" lon="6.87331">
        <ele>707.80004882812</ele>
        <time>2026-09-02T14:37:39.000Z</time>
      </trkpt>
      <trkpt lat="48.1329" lon="6.87332">
        <ele>707.80004882812</ele>
        <time>2026-09-02T14:37:40.000Z</time>
      </trkpt>
      <trkpt lat="48.13289" lon="6.87332">
        <ele>707.59997558594</ele>
        <time>2026-09-02T14:37:41.000Z</time>
      </trkpt>
      <trkpt lat="48.13288" lon="6.87332">
        <ele>707.59997558594</ele>
        <time>2026-09-02T14:37:42.000Z</time>
      </trkpt>
      <trkpt lat="48.13287" lon="6.87332">
        <ele>707.59997558594</ele>
        <time>2026-09-02T14:37:43.000Z</time>
      </trkpt>
      <trkpt lat="48.13286" lon="6.87333">
        <ele>707.40002441406</ele>
        <time>2026-09-02T14:37:44.000Z</time>
      </trkpt>
      <trkpt lat="48.13285" lon="6.87333">
        <ele>707.40002441406</ele>
        <time>2026-09-02T14:37:45.000Z</time>
      </trkpt>
      <trkpt lat="48.13284" lon="6.87334">
        <ele>707.19995117188</ele>
        <time>2026-09-02T14:37:46.000Z</time>
      </trkpt>
      <trkpt lat="48.13283" lon="6.87335">
        <ele>707.19995117188</ele>
        <time>2026-09-02T14:37:47.000Z</time>
      </trkpt>
      <trkpt lat="48.13282" lon="6.87336">
        <ele>707.19995117188</ele>
        <time>2026-09-02T14:37:48.000Z</time>
      </trkpt>
      <trkpt lat="48.13281" lon="6.87335">
        <ele>707.19995117188</ele>
        <time>2026-09-02T14:37:49.000Z</time>
      </trkpt>
      <trkpt lat="48.13279" lon="6.87335">
        <ele>707</ele>
        <time>2026-09-02T14:37:50.000Z</time>
      </trkpt>
      <trkpt lat="48.13278" lon="6.87336">
        <ele>707</ele>
        <time>2026-09-02T14:37:51.000Z</time>
      </trkpt>
      <trkpt lat="48.13277" lon="6.87336">
        <ele>706.80004882812</ele>
        <time>2026-09-02T14:37:52.000Z</time>
      </trkpt>
      <trkpt lat="48.13276" lon="6.87337">
        <ele>706.59997558594</ele>
        <time>2026-09-02T14:37:53.000Z</time>
      </trkpt>
      <trkpt lat="48.13275" lon="6.87337">
        <ele>706.19995117188</ele>
        <time>2026-09-02T14:37:54.000Z</time>
      </trkpt>
      <trkpt lat="48.13274" lon="6.87338">
        <ele>706</ele>
        <time>2026-09-02T14:37:55.000Z</time>
      </trkpt>
      <trkpt lat="48.13273" lon="6.87338">
        <ele>706</ele>
        <time>2026-09-02T14:37:56.000Z</time>
      </trkpt>
      <trkpt lat="48.13272" lon="6.87339">
        <ele>705.80004882812</ele>
        <time>2026-09-02T14:37:57.000Z</time>
      </trkpt>
      <trkpt lat="48.13271" lon="6.87339">
        <ele>705.80004882812</ele>
        <time>2026-09-02T14:37:58.000Z</time>
      </trkpt>
      <trkpt lat="48.1327" lon="6.87339">
        <ele>705.80004882812</ele>
        <time>2026-09-02T14:37:59.000Z</time>
      </trkpt>
      <trkpt lat="48.1327" lon="6.8734">
        <ele>705.80004882812</ele>
        <time>2026-09-02T14:38:00.000Z</time>
      </trkpt>
      <trkpt lat="48.13269" lon="6.8734">
        <ele>705.59997558594</ele>
        <time>2026-09-02T14:38:01.000Z</time>
      </trkpt>
      <trkpt lat="48.13268" lon="6.8734">
        <ele>705.59997558594</ele>
        <time>2026-09-02T14:38:02.000Z</time>
      </trkpt>
      <trkpt lat="48.13267" lon="6.87341">
        <ele>705.59997558594</ele>
        <time>2026-09-02T14:38:03.000Z</time>
      </trkpt>
      <trkpt lat="48.13266" lon="6.87341">
        <ele>705.59997558594</ele>
        <time>2026-09-02T14:38:04.000Z</time>
      </trkpt>
      <trkpt lat="48.13265" lon="6.87342">
        <ele>705.59997558594</ele>
        <time>2026-09-02T14:38:05.000Z</time>
      </trkpt>
      <trkpt lat="48.13264" lon="6.87342">
        <ele>705.59997558594</ele>
        <time>2026-09-02T14:38:06.000Z</time>
      </trkpt>
      <trkpt lat="48.13263" lon="6.87342">
        <ele>705.59997558594</ele>
        <time>2026-09-02T14:38:07.000Z</time>
      </trkpt>
      <trkpt lat="48.13262" lon="6.87342">
        <ele>705.40002441406</ele>
        <time>2026-09-02T14:38:08.000Z</time>
      </trkpt>
      <trkpt lat="48.13262" lon="6.87343">
        <ele>705.40002441406</ele>
        <time>2026-09-02T14:38:09.000Z</time>
      </trkpt>
      <trkpt lat="48.13261" lon="6.87343">
        <ele>705.40002441406</ele>
        <time>2026-09-02T14:38:10.000Z</time>
      </trkpt>
      <trkpt lat="48.13261" lon="6.87344">
        <ele>705.40002441406</ele>
        <time>2026-09-02T14:38:11.000Z</time>
      </trkpt>
      <trkpt lat="48.13259" lon="6.87344">
        <ele>705.59997558594</ele>
        <time>2026-09-02T14:38:12.000Z</time>
      </trkpt>
      <trkpt lat="48.13258" lon="6.87345">
        <ele>705.80004882812</ele>
        <time>2026-09-02T14:38:13.000Z</time>
      </trkpt>
      <trkpt lat="48.13257" lon="6.87345">
        <ele>705.80004882812</ele>
        <time>2026-09-02T14:38:14.000Z</time>
      </trkpt>
      <trkpt lat="48.13257" lon="6.87346">
        <ele>705.80004882812</ele>
        <time>2026-09-02T14:38:15.000Z</time>
      </trkpt>
      <trkpt lat="48.13257" lon="6.87346">
        <ele>705.80004882812</ele>
        <time>2026-09-02T14:38:16.000Z</time>
      </trkpt>
      <trkpt lat="48.13256" lon="6.87347">
        <ele>705.59997558594</ele>
        <time>2026-09-02T14:38:17.000Z</time>
      </trkpt>
      <trkpt lat="48.13255" lon="6.87348">
        <ele>705.59997558594</ele>
        <time>2026-09-02T14:38:18.000Z</time>
      </trkpt>
      <trkpt lat="48.13254" lon="6.87348">
        <ele>705.40002441406</ele>
        <time>2026-09-02T14:38:19.000Z</time>
      </trkpt>
      <trkpt lat="48.13253" lon="6.87349">
        <ele>705.40002441406</ele>
        <time>2026-09-02T14:38:20.000Z</time>
      </trkpt>
      <trkpt lat="48.13252" lon="6.8735">
        <ele>705.40002441406</ele>
        <time>2026-09-02T14:38:21.000Z</time>
      </trkpt>
      <trkpt lat="48.1325" lon="6.8735">
        <ele>705.40002441406</ele>
        <time>2026-09-02T14:38:22.000Z</time>
      </trkpt>
      <trkpt lat="48.13249" lon="6.87351">
        <ele>705.19995117188</ele>
        <time>2026-09-02T14:38:23.000Z</time>
      </trkpt>
      <trkpt lat="48.13248" lon="6.87351">
        <ele>705.19995117188</ele>
        <time>2026-09-02T14:38:24.000Z</time>
      </trkpt>
      <trkpt lat="48.13247" lon="6.87351">
        <ele>705</ele>
        <time>2026-09-02T14:38:25.000Z</time>
      </trkpt>
      <trkpt lat="48.13247" lon="6.87352">
        <ele>705</ele>
        <time>2026-09-02T14:38:26.000Z</time>
      </trkpt>
      <trkpt lat="48.13246" lon="6.87353">
        <ele>704.80004882812</ele>
        <time>2026-09-02T14:38:27.000Z</time>
      </trkpt>
      <trkpt lat="48.13245" lon="6.87354">
        <ele>704.80004882812</ele>
        <time>2026-09-02T14:38:28.000Z</time>
      </trkpt>
      <trkpt lat="48.13244" lon="6.87355">
        <ele>704.59997558594</ele>
        <time>2026-09-02T14:38:29.000Z</time>
      </trkpt>
      <trkpt lat="48.13243" lon="6.87356">
        <ele>704.40002441406</ele>
        <time>2026-09-02T14:38:30.000Z</time>
      </trkpt>
      <trkpt lat="48.13242" lon="6.87357">
        <ele>704</ele>
        <time>2026-09-02T14:38:31.000Z</time>
      </trkpt>
      <trkpt lat="48.1324" lon="6.87357">
        <ele>703.80004882812</ele>
        <time>2026-09-02T14:38:32.000Z</time>
      </trkpt>
      <trkpt lat="48.13239" lon="6.87358">
        <ele>703.80004882812</ele>
        <time>2026-09-02T14:38:33.000Z</time>
      </trkpt>
      <trkpt lat="48.13239" lon="6.87358">
        <ele>703.80004882812</ele>
        <time>2026-09-02T14:38:34.000Z</time>
      </trkpt>
      <trkpt lat="48.13238" lon="6.87358">
        <ele>703.80004882812</ele>
        <time>2026-09-02T14:38:35.000Z</time>
      </trkpt>
      <trkpt lat="48.13237" lon="6.87359">
        <ele>704</ele>
        <time>2026-09-02T14:38:36.000Z</time>
      </trkpt>
      <trkpt lat="48.13236" lon="6.8736">
        <ele>704.19995117188</ele>
        <time>2026-09-02T14:38:37.000Z</time>
      </trkpt>
      <trkpt lat="48.13236" lon="6.8736">
        <ele>704.19995117188</ele>
        <time>2026-09-02T14:38:38.000Z</time>
      </trkpt>
      <trkpt lat="48.13235" lon="6.87361">
        <ele>704.19995117188</ele>
        <time>2026-09-02T14:38:39.000Z</time>
      </trkpt>
      <trkpt lat="48.13234" lon="6.87361">
        <ele>704.19995117188</ele>
        <time>2026-09-02T14:38:40.000Z</time>
      </trkpt>
      <trkpt lat="48.13233" lon="6.87361">
        <ele>704</ele>
        <time>2026-09-02T14:38:41.000Z</time>
      </trkpt>
      <trkpt lat="48.13232" lon="6.87361">
        <ele>703.80004882812</ele>
        <time>2026-09-02T14:38:42.000Z</time>
      </trkpt>
      <trkpt lat="48.13232" lon="6.87361">
        <ele>703.80004882812</ele>
        <time>2026-09-02T14:38:43.000Z</time>
      </trkpt>
      <trkpt lat="48.13231" lon="6.87361">
        <ele>703.80004882812</ele>
        <time>2026-09-02T14:38:44.000Z</time>
      </trkpt>
      <trkpt lat="48.13229" lon="6.87362">
        <ele>703.80004882812</ele>
        <time>2026-09-02T14:38:45.000Z</time>
      </trkpt>
      <trkpt lat="48.13228" lon="6.87363">
        <ele>703.59997558594</ele>
        <time>2026-09-02T14:38:46.000Z</time>
      </trkpt>
      <trkpt lat="48.13227" lon="6.87364">
        <ele>703.59997558594</ele>
        <time>2026-09-02T14:38:47.000Z</time>
      </trkpt>
      <trkpt lat="48.13226" lon="6.87364">
        <ele>703.59997558594</ele>
        <time>2026-09-02T14:38:48.000Z</time>
      </trkpt>
      <trkpt lat="48.13225" lon="6.87364">
        <ele>703.40002441406</ele>
        <time>2026-09-02T14:38:49.000Z</time>
      </trkpt>
      <trkpt lat="48.13224" lon="6.87365">
        <ele>703.40002441406</ele>
        <time>2026-09-02T14:38:50.000Z</time>
      </trkpt>
      <trkpt lat="48.13224" lon="6.87366">
        <ele>703.40002441406</ele>
        <time>2026-09-02T14:38:51.000Z</time>
      </trkpt>
      <trkpt lat="48.13222" lon="6.87367">
        <ele>703.40002441406</ele>
        <time>2026-09-02T14:38:52.000Z</time>
      </trkpt>
      <trkpt lat="48.13221" lon="6.87367">
        <ele>703.19995117188</ele>
        <time>2026-09-02T14:38:53.000Z</time>
      </trkpt>
      <trkpt lat="48.13221" lon="6.87368">
        <ele>703.19995117188</ele>
        <time>2026-09-02T14:38:54.000Z</time>
      </trkpt>
      <trkpt lat="48.1322" lon="6.87369">
        <ele>703.19995117188</ele>
        <time>2026-09-02T14:38:55.000Z</time>
      </trkpt>
      <trkpt lat="48.1322" lon="6.8737">
        <ele>703</ele>
        <time>2026-09-02T14:38:56.000Z</time>
      </trkpt>
      <trkpt lat="48.13219" lon="6.87371">
        <ele>703</ele>
        <time>2026-09-02T14:38:57.000Z</time>
      </trkpt>
      <trkpt lat="48.13218" lon="6.87371">
        <ele>702.80004882812</ele>
        <time>2026-09-02T14:38:58.000Z</time>
      </trkpt>
      <trkpt lat="48.13217" lon="6.87372">
        <ele>702.80004882812</ele>
        <time>2026-09-02T14:38:59.000Z</time>
      </trkpt>
      <trkpt lat="48.13216" lon="6.87373">
        <ele>702.59997558594</ele>
        <time>2026-09-02T14:39:00.000Z</time>
      </trkpt>
      <trkpt lat="48.13216" lon="6.87373">
        <ele>702.59997558594</ele>
        <time>2026-09-02T14:39:01.000Z</time>
      </trkpt>
      <trkpt lat="48.13215" lon="6.87374">
        <ele>702.59997558594</ele>
        <time>2026-09-02T14:39:02.000Z</time>
      </trkpt>
      <trkpt lat="48.13214" lon="6.87375">
        <ele>702.40002441406</ele>
        <time>2026-09-02T14:39:03.000Z</time>
      </trkpt>
      <trkpt lat="48.13213" lon="6.87375">
        <ele>702.40002441406</ele>
        <time>2026-09-02T14:39:04.000Z</time>
      </trkpt>
      <trkpt lat="48.13212" lon="6.87376">
        <ele>702.40002441406</ele>
        <time>2026-09-02T14:39:05.000Z</time>
      </trkpt>
      <trkpt lat="48.13211" lon="6.87376">
        <ele>702.40002441406</ele>
        <time>2026-09-02T14:39:06.000Z</time>
      </trkpt>
      <trkpt lat="48.1321" lon="6.87377">
        <ele>702.40002441406</ele>
        <time>2026-09-02T14:39:07.000Z</time>
      </trkpt>
      <trkpt lat="48.13209" lon="6.87377">
        <ele>702.19995117188</ele>
        <time>2026-09-02T14:39:08.000Z</time>
      </trkpt>
      <trkpt lat="48.13207" lon="6.87378">
        <ele>702.40002441406</ele>
        <time>2026-09-02T14:39:09.000Z</time>
      </trkpt>
      <trkpt lat="48.13207" lon="6.87378">
        <ele>702.19995117188</ele>
        <time>2026-09-02T14:39:10.000Z</time>
      </trkpt>
      <trkpt lat="48.13205" lon="6.87379">
        <ele>702.19995117188</ele>
        <time>2026-09-02T14:39:11.000Z</time>
      </trkpt>
      <trkpt lat="48.13205" lon="6.8738">
        <ele>702.19995117188</ele>
        <time>2026-09-02T14:39:12.000Z</time>
      </trkpt>
      <trkpt lat="48.13204" lon="6.87381">
        <ele>702</ele>
        <time>2026-09-02T14:39:13.000Z</time>
      </trkpt>
      <trkpt lat="48.13203" lon="6.87381">
        <ele>701.80004882812</ele>
        <time>2026-09-02T14:39:14.000Z</time>
      </trkpt>
      <trkpt lat="48.13202" lon="6.87381">
        <ele>701.80004882812</ele>
        <time>2026-09-02T14:39:15.000Z</time>
      </trkpt>
      <trkpt lat="48.13202" lon="6.87382">
        <ele>701.80004882812</ele>
        <time>2026-09-02T14:39:16.000Z</time>
      </trkpt>
      <trkpt lat="48.132" lon="6.87382">
        <ele>701.80004882812</ele>
        <time>2026-09-02T14:39:17.000Z</time>
      </trkpt>
      <trkpt lat="48.13199" lon="6.87383">
        <ele>701.80004882812</ele>
        <time>2026-09-02T14:39:18.000Z</time>
      </trkpt>
      <trkpt lat="48.13198" lon="6.87384">
        <ele>701.80004882812</ele>
        <time>2026-09-02T14:39:19.000Z</time>
      </trkpt>
      <trkpt lat="48.13197" lon="6.87384">
        <ele>701.80004882812</ele>
        <time>2026-09-02T14:39:20.000Z</time>
      </trkpt>
      <trkpt lat="48.13197" lon="6.87385">
        <ele>701.80004882812</ele>
        <time>2026-09-02T14:39:21.000Z</time>
      </trkpt>
      <trkpt lat="48.13196" lon="6.87385">
        <ele>701.59997558594</ele>
        <time>2026-09-02T14:39:22.000Z</time>
      </trkpt>
      <trkpt lat="48.13195" lon="6.87386">
        <ele>701.59997558594</ele>
        <time>2026-09-02T14:39:23.000Z</time>
      </trkpt>
      <trkpt lat="48.13194" lon="6.87387">
        <ele>701.40002441406</ele>
        <time>2026-09-02T14:39:24.000Z</time>
      </trkpt>
      <trkpt lat="48.13193" lon="6.87387">
        <ele>701.40002441406</ele>
        <time>2026-09-02T14:39:25.000Z</time>
      </trkpt>
      <trkpt lat="48.13193" lon="6.87388">
        <ele>701.40002441406</ele>
        <time>2026-09-02T14:39:26.000Z</time>
      </trkpt>
      <trkpt lat="48.13192" lon="6.87388">
        <ele>701.40002441406</ele>
        <time>2026-09-02T14:39:27.000Z</time>
      </trkpt>
      <trkpt lat="48.13191" lon="6.87389">
        <ele>701.40002441406</ele>
        <time>2026-09-02T14:39:28.000Z</time>
      </trkpt>
      <trkpt lat="48.1319" lon="6.87389">
        <ele>701.40002441406</ele>
        <time>2026-09-02T14:39:29.000Z</time>
      </trkpt>
      <trkpt lat="48.13189" lon="6.8739">
        <ele>701.40002441406</ele>
        <time>2026-09-02T14:39:30.000Z</time>
      </trkpt>
      <trkpt lat="48.13188" lon="6.87391">
        <ele>701.40002441406</ele>
        <time>2026-09-02T14:39:31.000Z</time>
      </trkpt>
      <trkpt lat="48.13187" lon="6.87392">
        <ele>701.40002441406</ele>
        <time>2026-09-02T14:39:32.000Z</time>
      </trkpt>
      <trkpt lat="48.13186" lon="6.87393">
        <ele>701.40002441406</ele>
        <time>2026-09-02T14:39:33.000Z</time>
      </trkpt>
      <trkpt lat="48.13185" lon="6.87393">
        <ele>701.19995117188</ele>
        <time>2026-09-02T14:39:34.000Z</time>
      </trkpt>
      <trkpt lat="48.13184" lon="6.87394">
        <ele>701</ele>
        <time>2026-09-02T14:39:35.000Z</time>
      </trkpt>
      <trkpt lat="48.13183" lon="6.87394">
        <ele>700.80004882812</ele>
        <time>2026-09-02T14:39:36.000Z</time>
      </trkpt>
      <trkpt lat="48.13182" lon="6.87394">
        <ele>700.59997558594</ele>
        <time>2026-09-02T14:39:37.000Z</time>
      </trkpt>
      <trkpt lat="48.13181" lon="6.87395">
        <ele>700.40002441406</ele>
        <time>2026-09-02T14:39:38.000Z</time>
      </trkpt>
      <trkpt lat="48.1318" lon="6.87396">
        <ele>700.19995117188</ele>
        <time>2026-09-02T14:39:39.000Z</time>
      </trkpt>
      <trkpt lat="48.13179" lon="6.87397">
        <ele>700.19995117188</ele>
        <time>2026-09-02T14:39:40.000Z</time>
      </trkpt>
      <trkpt lat="48.13178" lon="6.87397">
        <ele>700.59997558594</ele>
        <time>2026-09-02T14:39:41.000Z</time>
      </trkpt>
      <trkpt lat="48.13178" lon="6.87398">
        <ele>700.80004882812</ele>
        <time>2026-09-02T14:39:42.000Z</time>
      </trkpt>
      <trkpt lat="48.13177" lon="6.87398">
        <ele>701</ele>
        <time>2026-09-02T14:39:43.000Z</time>
      </trkpt>
      <trkpt lat="48.13176" lon="6.87399">
        <ele>701.19995117188</ele>
        <time>2026-09-02T14:39:44.000Z</time>
      </trkpt>
      <trkpt lat="48.13175" lon="6.87399">
        <ele>701.19995117188</ele>
        <time>2026-09-02T14:39:45.000Z</time>
      </trkpt>
      <trkpt lat="48.13173" lon="6.87401">
        <ele>701.19995117188</ele>
        <time>2026-09-02T14:39:46.000Z</time>
      </trkpt>
      <trkpt lat="48.13172" lon="6.87401">
        <ele>701</ele>
        <time>2026-09-02T14:39:47.000Z</time>
      </trkpt>
      <trkpt lat="48.13171" lon="6.87401">
        <ele>701</ele>
        <time>2026-09-02T14:39:48.000Z</time>
      </trkpt>
      <trkpt lat="48.13171" lon="6.87401">
        <ele>700.80004882812</ele>
        <time>2026-09-02T14:39:49.000Z</time>
      </trkpt>
      <trkpt lat="48.1317" lon="6.87401">
        <ele>700.59997558594</ele>
        <time>2026-09-02T14:39:50.000Z</time>
      </trkpt>
      <trkpt lat="48.13169" lon="6.87402">
        <ele>700.59997558594</ele>
        <time>2026-09-02T14:39:51.000Z</time>
      </trkpt>
      <trkpt lat="48.13168" lon="6.87403">
        <ele>700.59997558594</ele>
        <time>2026-09-02T14:39:52.000Z</time>
      </trkpt>
      <trkpt lat="48.13167" lon="6.87403">
        <ele>700.59997558594</ele>
        <time>2026-09-02T14:39:53.000Z</time>
      </trkpt>
      <trkpt lat="48.13166" lon="6.87403">
        <ele>700.59997558594</ele>
        <time>2026-09-02T14:39:54.000Z</time>
      </trkpt>
      <trkpt lat="48.13165" lon="6.87404">
        <ele>700.40002441406</ele>
        <time>2026-09-02T14:39:55.000Z</time>
      </trkpt>
      <trkpt lat="48.13164" lon="6.87404">
        <ele>700.59997558594</ele>
        <time>2026-09-02T14:39:56.000Z</time>
      </trkpt>
      <trkpt lat="48.13163" lon="6.87404">
        <ele>700.40002441406</ele>
        <time>2026-09-02T14:39:57.000Z</time>
      </trkpt>
      <trkpt lat="48.13162" lon="6.87405">
        <ele>700.40002441406</ele>
        <time>2026-09-02T14:39:58.000Z</time>
      </trkpt>
      <trkpt lat="48.13161" lon="6.87406">
        <ele>700.19995117188</ele>
        <time>2026-09-02T14:39:59.000Z</time>
      </trkpt>
      <trkpt lat="48.1316" lon="6.87406">
        <ele>700.19995117188</ele>
        <time>2026-09-02T14:40:00.000Z</time>
      </trkpt>
      <trkpt lat="48.1316" lon="6.87407">
        <ele>700</ele>
        <time>2026-09-02T14:40:01.000Z</time>
      </trkpt>
      <trkpt lat="48.13158" lon="6.87407">
        <ele>700</ele>
        <time>2026-09-02T14:40:02.000Z</time>
      </trkpt>
      <trkpt lat="48.13157" lon="6.87408">
        <ele>699.80004882812</ele>
        <time>2026-09-02T14:40:03.000Z</time>
      </trkpt>
      <trkpt lat="48.13156" lon="6.87408">
        <ele>699.80004882812</ele>
        <time>2026-09-02T14:40:04.000Z</time>
      </trkpt>
      <trkpt lat="48.13156" lon="6.87408">
        <ele>699.59997558594</ele>
        <time>2026-09-02T14:40:05.000Z</time>
      </trkpt>
      <trkpt lat="48.13154" lon="6.87409">
        <ele>699.40002441406</ele>
        <time>2026-09-02T14:40:06.000Z</time>
      </trkpt>
      <trkpt lat="48.13154" lon="6.87409">
        <ele>699.40002441406</ele>
        <time>2026-09-02T14:40:07.000Z</time>
      </trkpt>
      <trkpt lat="48.13152" lon="6.87409">
        <ele>699.19995117188</ele>
        <time>2026-09-02T14:40:08.000Z</time>
      </trkpt>
      <trkpt lat="48.13152" lon="6.87409">
        <ele>699.19995117188</ele>
        <time>2026-09-02T14:40:09.000Z</time>
      </trkpt>
      <trkpt lat="48.13151" lon="6.8741">
        <ele>699.40002441406</ele>
        <time>2026-09-02T14:40:10.000Z</time>
      </trkpt>
      <trkpt lat="48.1315" lon="6.87411">
        <ele>699.59997558594</ele>
        <time>2026-09-02T14:40:11.000Z</time>
      </trkpt>
      <trkpt lat="48.13149" lon="6.87411">
        <ele>699.59997558594</ele>
        <time>2026-09-02T14:40:12.000Z</time>
      </trkpt>
      <trkpt lat="48.13148" lon="6.87411">
        <ele>699.59997558594</ele>
        <time>2026-09-02T14:40:13.000Z</time>
      </trkpt>
      <trkpt lat="48.13147" lon="6.87411">
        <ele>699.40002441406</ele>
        <time>2026-09-02T14:40:14.000Z</time>
      </trkpt>
      <trkpt lat="48.13146" lon="6.87412">
        <ele>699</ele>
        <time>2026-09-02T14:40:15.000Z</time>
      </trkpt>
      <trkpt lat="48.13145" lon="6.87413">
        <ele>698.80004882812</ele>
        <time>2026-09-02T14:40:16.000Z</time>
      </trkpt>
      <trkpt lat="48.13144" lon="6.87413">
        <ele>698.19995117188</ele>
        <time>2026-09-02T14:40:17.000Z</time>
      </trkpt>
      <trkpt lat="48.13144" lon="6.87414">
        <ele>698.19995117188</ele>
        <time>2026-09-02T14:40:18.000Z</time>
      </trkpt>
      <trkpt lat="48.13143" lon="6.87414">
        <ele>698.19995117188</ele>
        <time>2026-09-02T14:40:19.000Z</time>
      </trkpt>
      <trkpt lat="48.13142" lon="6.87415">
        <ele>698.19995117188</ele>
        <time>2026-09-02T14:40:20.000Z</time>
      </trkpt>
      <trkpt lat="48.13141" lon="6.87415">
        <ele>698.40002441406</ele>
        <time>2026-09-02T14:40:21.000Z</time>
      </trkpt>
      <trkpt lat="48.1314" lon="6.87415">
        <ele>698.40002441406</ele>
        <time>2026-09-02T14:40:22.000Z</time>
      </trkpt>
      <trkpt lat="48.13139" lon="6.87416">
        <ele>698.40002441406</ele>
        <time>2026-09-02T14:40:23.000Z</time>
      </trkpt>
      <trkpt lat="48.13138" lon="6.87416">
        <ele>698.19995117188</ele>
        <time>2026-09-02T14:40:24.000Z</time>
      </trkpt>
      <trkpt lat="48.13136" lon="6.87416">
        <ele>698.19995117188</ele>
        <time>2026-09-02T14:40:25.000Z</time>
      </trkpt>
      <trkpt lat="48.13135" lon="6.87416">
        <ele>698.19995117188</ele>
        <time>2026-09-02T14:40:26.000Z</time>
      </trkpt>
      <trkpt lat="48.13134" lon="6.87416">
        <ele>698.19995117188</ele>
        <time>2026-09-02T14:40:27.000Z</time>
      </trkpt>
      <trkpt lat="48.13133" lon="6.87416">
        <ele>698.19995117188</ele>
        <time>2026-09-02T14:40:28.000Z</time>
      </trkpt>
      <trkpt lat="48.13132" lon="6.87416">
        <ele>698.19995117188</ele>
        <time>2026-09-02T14:40:29.000Z</time>
      </trkpt>
      <trkpt lat="48.13131" lon="6.87416">
        <ele>698.19995117188</ele>
        <time>2026-09-02T14:40:30.000Z</time>
      </trkpt>
      <trkpt lat="48.1313" lon="6.87417">
        <ele>698.19995117188</ele>
        <time>2026-09-02T14:40:31.000Z</time>
      </trkpt>
      <trkpt lat="48.13129" lon="6.87417">
        <ele>698.19995117188</ele>
        <time>2026-09-02T14:40:32.000Z</time>
      </trkpt>
      <trkpt lat="48.13128" lon="6.87417">
        <ele>698.19995117188</ele>
        <time>2026-09-02T14:40:33.000Z</time>
      </trkpt>
      <trkpt lat="48.13127" lon="6.87417">
        <ele>698.19995117188</ele>
        <time>2026-09-02T14:40:34.000Z</time>
      </trkpt>
      <trkpt lat="48.13126" lon="6.87418">
        <ele>698.19995117188</ele>
        <time>2026-09-02T14:40:35.000Z</time>
      </trkpt>
      <trkpt lat="48.13125" lon="6.87418">
        <ele>698</ele>
        <time>2026-09-02T14:40:36.000Z</time>
      </trkpt>
      <trkpt lat="48.13124" lon="6.87418">
        <ele>698</ele>
        <time>2026-09-02T14:40:37.000Z</time>
      </trkpt>
      <trkpt lat="48.13123" lon="6.87418">
        <ele>698</ele>
        <time>2026-09-02T14:40:38.000Z</time>
      </trkpt>
      <trkpt lat="48.13122" lon="6.87418">
        <ele>698.19995117188</ele>
        <time>2026-09-02T14:40:39.000Z</time>
      </trkpt>
      <trkpt lat="48.13121" lon="6.87418">
        <ele>698.19995117188</ele>
        <time>2026-09-02T14:40:40.000Z</time>
      </trkpt>
      <trkpt lat="48.1312" lon="6.87418">
        <ele>698.19995117188</ele>
        <time>2026-09-02T14:40:41.000Z</time>
      </trkpt>
      <trkpt lat="48.13119" lon="6.87418">
        <ele>698</ele>
        <time>2026-09-02T14:40:42.000Z</time>
      </trkpt>
      <trkpt lat="48.13118" lon="6.87418">
        <ele>698</ele>
        <time>2026-09-02T14:40:43.000Z</time>
      </trkpt>
      <trkpt lat="48.13117" lon="6.87418">
        <ele>698</ele>
        <time>2026-09-02T14:40:44.000Z</time>
      </trkpt>
      <trkpt lat="48.13116" lon="6.87417">
        <ele>698</ele>
        <time>2026-09-02T14:40:45.000Z</time>
      </trkpt>
      <trkpt lat="48.13115" lon="6.87418">
        <ele>698</ele>
        <time>2026-09-02T14:40:46.000Z</time>
      </trkpt>
      <trkpt lat="48.13114" lon="6.87418">
        <ele>698</ele>
        <time>2026-09-02T14:40:47.000Z</time>
      </trkpt>
      <trkpt lat="48.13112" lon="6.87418">
        <ele>698</ele>
        <time>2026-09-02T14:40:48.000Z</time>
      </trkpt>
      <trkpt lat="48.13111" lon="6.87417">
        <ele>698</ele>
        <time>2026-09-02T14:40:49.000Z</time>
      </trkpt>
      <trkpt lat="48.13111" lon="6.87417">
        <ele>698</ele>
        <time>2026-09-02T14:40:50.000Z</time>
      </trkpt>
      <trkpt lat="48.1311" lon="6.87417">
        <ele>697.80004882812</ele>
        <time>2026-09-02T14:40:51.000Z</time>
      </trkpt>
      <trkpt lat="48.13109" lon="6.87417">
        <ele>697.80004882812</ele>
        <time>2026-09-02T14:40:52.000Z</time>
      </trkpt>
      <trkpt lat="48.13108" lon="6.87416">
        <ele>697.80004882812</ele>
        <time>2026-09-02T14:40:53.000Z</time>
      </trkpt>
      <trkpt lat="48.13107" lon="6.87416">
        <ele>697.80004882812</ele>
        <time>2026-09-02T14:40:54.000Z</time>
      </trkpt>
      <trkpt lat="48.13106" lon="6.87416">
        <ele>697.80004882812</ele>
        <time>2026-09-02T14:40:55.000Z</time>
      </trkpt>
      <trkpt lat="48.13105" lon="6.87416">
        <ele>697.80004882812</ele>
        <time>2026-09-02T14:40:56.000Z</time>
      </trkpt>
      <trkpt lat="48.13104" lon="6.87416">
        <ele>697.80004882812</ele>
        <time>2026-09-02T14:40:57.000Z</time>
      </trkpt>
      <trkpt lat="48.13103" lon="6.87416">
        <ele>698</ele>
        <time>2026-09-02T14:40:58.000Z</time>
      </trkpt>
      <trkpt lat="48.13101" lon="6.87415">
        <ele>698</ele>
        <time>2026-09-02T14:40:59.000Z</time>
      </trkpt>
      <trkpt lat="48.131" lon="6.87415">
        <ele>698</ele>
        <time>2026-09-02T14:41:00.000Z</time>
      </trkpt>
      <trkpt lat="48.13099" lon="6.87415">
        <ele>697.80004882812</ele>
        <time>2026-09-02T14:41:01.000Z</time>
      </trkpt>
      <trkpt lat="48.13098" lon="6.87414">
        <ele>697.80004882812</ele>
        <time>2026-09-02T14:41:02.000Z</time>
      </trkpt>
      <trkpt lat="48.13097" lon="6.87414">
        <ele>697.80004882812</ele>
        <time>2026-09-02T14:41:03.000Z</time>
      </trkpt>
      <trkpt lat="48.13096" lon="6.87414">
        <ele>697.80004882812</ele>
        <time>2026-09-02T14:41:04.000Z</time>
      </trkpt>
      <trkpt lat="48.13095" lon="6.87414">
        <ele>697.80004882812</ele>
        <time>2026-09-02T14:41:05.000Z</time>
      </trkpt>
      <trkpt lat="48.13094" lon="6.87414">
        <ele>697.80004882812</ele>
        <time>2026-09-02T14:41:06.000Z</time>
      </trkpt>
      <trkpt lat="48.13093" lon="6.87414">
        <ele>697.80004882812</ele>
        <time>2026-09-02T14:41:07.000Z</time>
      </trkpt>
      <trkpt lat="48.13092" lon="6.87414">
        <ele>697.80004882812</ele>
        <time>2026-09-02T14:41:08.000Z</time>
      </trkpt>
      <trkpt lat="48.13091" lon="6.87414">
        <ele>697.80004882812</ele>
        <time>2026-09-02T14:41:09.000Z</time>
      </trkpt>
      <trkpt lat="48.13089" lon="6.87415">
        <ele>697.80004882812</ele>
        <time>2026-09-02T14:41:10.000Z</time>
      </trkpt>
      <trkpt lat="48.13089" lon="6.87415">
        <ele>697.80004882812</ele>
        <time>2026-09-02T14:41:11.000Z</time>
      </trkpt>
      <trkpt lat="48.13087" lon="6.87415">
        <ele>698</ele>
        <time>2026-09-02T14:41:12.000Z</time>
      </trkpt>
      <trkpt lat="48.13086" lon="6.87416">
        <ele>698</ele>
        <time>2026-09-02T14:41:13.000Z</time>
      </trkpt>
      <trkpt lat="48.13085" lon="6.87416">
        <ele>698.19995117188</ele>
        <time>2026-09-02T14:41:14.000Z</time>
      </trkpt>
      <trkpt lat="48.13084" lon="6.87416">
        <ele>698.19995117188</ele>
        <time>2026-09-02T14:41:15.000Z</time>
      </trkpt>
      <trkpt lat="48.13082" lon="6.87417">
        <ele>698</ele>
        <time>2026-09-02T14:41:16.000Z</time>
      </trkpt>
      <trkpt lat="48.13081" lon="6.87418">
        <ele>697.80004882812</ele>
        <time>2026-09-02T14:41:17.000Z</time>
      </trkpt>
      <trkpt lat="48.13081" lon="6.87418">
        <ele>697.80004882812</ele>
        <time>2026-09-02T14:41:18.000Z</time>
      </trkpt>
      <trkpt lat="48.1308" lon="6.87418">
        <ele>697.59997558594</ele>
        <time>2026-09-02T14:41:19.000Z</time>
      </trkpt>
      <trkpt lat="48.13079" lon="6.87418">
        <ele>697.59997558594</ele>
        <time>2026-09-02T14:41:20.000Z</time>
      </trkpt>
      <trkpt lat="48.13078" lon="6.87419">
        <ele>697.59997558594</ele>
        <time>2026-09-02T14:41:21.000Z</time>
      </trkpt>
      <trkpt lat="48.13077" lon="6.87419">
        <ele>697.40002441406</ele>
        <time>2026-09-02T14:41:22.000Z</time>
      </trkpt>
      <trkpt lat="48.13076" lon="6.8742">
        <ele>697.40002441406</ele>
        <time>2026-09-02T14:41:23.000Z</time>
      </trkpt>
      <trkpt lat="48.13075" lon="6.8742">
        <ele>697.40002441406</ele>
        <time>2026-09-02T14:41:24.000Z</time>
      </trkpt>
      <trkpt lat="48.13074" lon="6.8742">
        <ele>697.59997558594</ele>
        <time>2026-09-02T14:41:25.000Z</time>
      </trkpt>
      <trkpt lat="48.13073" lon="6.8742">
        <ele>697.59997558594</ele>
        <time>2026-09-02T14:41:26.000Z</time>
      </trkpt>
      <trkpt lat="48.13072" lon="6.8742">
        <ele>697.59997558594</ele>
        <time>2026-09-02T14:41:27.000Z</time>
      </trkpt>
      <trkpt lat="48.1307" lon="6.8742">
        <ele>697.59997558594</ele>
        <time>2026-09-02T14:41:28.000Z</time>
      </trkpt>
      <trkpt lat="48.13069" lon="6.87421">
        <ele>697.59997558594</ele>
        <time>2026-09-02T14:41:29.000Z</time>
      </trkpt>
      <trkpt lat="48.13068" lon="6.87421">
        <ele>697.59997558594</ele>
        <time>2026-09-02T14:41:30.000Z</time>
      </trkpt>
      <trkpt lat="48.13067" lon="6.87421">
        <ele>697.40002441406</ele>
        <time>2026-09-02T14:41:31.000Z</time>
      </trkpt>
      <trkpt lat="48.13066" lon="6.87421">
        <ele>697.40002441406</ele>
        <time>2026-09-02T14:41:32.000Z</time>
      </trkpt>
      <trkpt lat="48.13065" lon="6.87421">
        <ele>697.40002441406</ele>
        <time>2026-09-02T14:41:33.000Z</time>
      </trkpt>
      <trkpt lat="48.13065" lon="6.87421">
        <ele>697.40002441406</ele>
        <time>2026-09-02T14:41:34.000Z</time>
      </trkpt>
      <trkpt lat="48.13064" lon="6.8742">
        <ele>697.40002441406</ele>
        <time>2026-09-02T14:41:35.000Z</time>
      </trkpt>
      <trkpt lat="48.13063" lon="6.8742">
        <ele>697.40002441406</ele>
        <time>2026-09-02T14:41:36.000Z</time>
      </trkpt>
      <trkpt lat="48.13062" lon="6.8742">
        <ele>697.40002441406</ele>
        <time>2026-09-02T14:41:37.000Z</time>
      </trkpt>
      <trkpt lat="48.13062" lon="6.87419">
        <ele>697.40002441406</ele>
        <time>2026-09-02T14:41:38.000Z</time>
      </trkpt>
      <trkpt lat="48.13061" lon="6.87419">
        <ele>697.59997558594</ele>
        <time>2026-09-02T14:41:39.000Z</time>
      </trkpt>
      <trkpt lat="48.1306" lon="6.87418">
        <ele>697.80004882812</ele>
        <time>2026-09-02T14:41:40.000Z</time>
      </trkpt>
      <trkpt lat="48.13058" lon="6.87419">
        <ele>698</ele>
        <time>2026-09-02T14:41:41.000Z</time>
      </trkpt>
      <trkpt lat="48.13057" lon="6.87419">
        <ele>698.19995117188</ele>
        <time>2026-09-02T14:41:42.000Z</time>
      </trkpt>
      <trkpt lat="48.13057" lon="6.87418">
        <ele>698.40002441406</ele>
        <time>2026-09-02T14:41:43.000Z</time>
      </trkpt>
      <trkpt lat="48.13055" lon="6.87417">
        <ele>698.40002441406</ele>
        <time>2026-09-02T14:41:44.000Z</time>
      </trkpt>
      <trkpt lat="48.13054" lon="6.87417">
        <ele>698.59997558594</ele>
        <time>2026-09-02T14:41:45.000Z</time>
      </trkpt>
      <trkpt lat="48.13053" lon="6.87416">
        <ele>698.59997558594</ele>
        <time>2026-09-02T14:41:46.000Z</time>
      </trkpt>
      <trkpt lat="48.13052" lon="6.87416">
        <ele>698.40002441406</ele>
        <time>2026-09-02T14:41:47.000Z</time>
      </trkpt>
      <trkpt lat="48.13051" lon="6.87415">
        <ele>698.19995117188</ele>
        <time>2026-09-02T14:41:48.000Z</time>
      </trkpt>
      <trkpt lat="48.13051" lon="6.87415">
        <ele>698.19995117188</ele>
        <time>2026-09-02T14:41:49.000Z</time>
      </trkpt>
      <trkpt lat="48.1305" lon="6.87414">
        <ele>697.80004882812</ele>
        <time>2026-09-02T14:41:50.000Z</time>
      </trkpt>
      <trkpt lat="48.13049" lon="6.87413">
        <ele>697.59997558594</ele>
        <time>2026-09-02T14:41:51.000Z</time>
      </trkpt>
      <trkpt lat="48.13048" lon="6.87412">
        <ele>697.40002441406</ele>
        <time>2026-09-02T14:41:52.000Z</time>
      </trkpt>
      <trkpt lat="48.13047" lon="6.87411">
        <ele>697.40002441406</ele>
        <time>2026-09-02T14:41:53.000Z</time>
      </trkpt>
      <trkpt lat="48.13046" lon="6.8741">
        <ele>697.40002441406</ele>
        <time>2026-09-02T14:41:54.000Z</time>
      </trkpt>
      <trkpt lat="48.13046" lon="6.87409">
        <ele>697.40002441406</ele>
        <time>2026-09-02T14:41:55.000Z</time>
      </trkpt>
      <trkpt lat="48.13045" lon="6.87409">
        <ele>697.40002441406</ele>
        <time>2026-09-02T14:41:56.000Z</time>
      </trkpt>
      <trkpt lat="48.13044" lon="6.87408">
        <ele>697.59997558594</ele>
        <time>2026-09-02T14:41:57.000Z</time>
      </trkpt>
      <trkpt lat="48.13043" lon="6.87407">
        <ele>697.80004882812</ele>
        <time>2026-09-02T14:41:58.000Z</time>
      </trkpt>
      <trkpt lat="48.13043" lon="6.87406">
        <ele>698.19995117188</ele>
        <time>2026-09-02T14:41:59.000Z</time>
      </trkpt>
      <trkpt lat="48.13042" lon="6.87405">
        <ele>698.19995117188</ele>
        <time>2026-09-02T14:42:00.000Z</time>
      </trkpt>
      <trkpt lat="48.13041" lon="6.87404">
        <ele>698.40002441406</ele>
        <time>2026-09-02T14:42:01.000Z</time>
      </trkpt>
      <trkpt lat="48.1304" lon="6.87403">
        <ele>698.40002441406</ele>
        <time>2026-09-02T14:42:02.000Z</time>
      </trkpt>
      <trkpt lat="48.13039" lon="6.87403">
        <ele>698.40002441406</ele>
        <time>2026-09-02T14:42:03.000Z</time>
      </trkpt>
      <trkpt lat="48.13038" lon="6.87402">
        <ele>698.40002441406</ele>
        <time>2026-09-02T14:42:04.000Z</time>
      </trkpt>
      <trkpt lat="48.13038" lon="6.874">
        <ele>698.40002441406</ele>
        <time>2026-09-02T14:42:05.000Z</time>
      </trkpt>
      <trkpt lat="48.13037" lon="6.87399">
        <ele>698.40002441406</ele>
        <time>2026-09-02T14:42:06.000Z</time>
      </trkpt>
      <trkpt lat="48.13036" lon="6.87398">
        <ele>698.19995117188</ele>
        <time>2026-09-02T14:42:07.000Z</time>
      </trkpt>
      <trkpt lat="48.13035" lon="6.87397">
        <ele>698</ele>
        <time>2026-09-02T14:42:08.000Z</time>
      </trkpt>
      <trkpt lat="48.13034" lon="6.87396">
        <ele>697.80004882812</ele>
        <time>2026-09-02T14:42:09.000Z</time>
      </trkpt>
      <trkpt lat="48.13033" lon="6.87396">
        <ele>697.80004882812</ele>
        <time>2026-09-02T14:42:10.000Z</time>
      </trkpt>
      <trkpt lat="48.13032" lon="6.87395">
        <ele>697.59997558594</ele>
        <time>2026-09-02T14:42:11.000Z</time>
      </trkpt>
      <trkpt lat="48.13031" lon="6.87394">
        <ele>697.59997558594</ele>
        <time>2026-09-02T14:42:12.000Z</time>
      </trkpt>
      <trkpt lat="48.1303" lon="6.87394">
        <ele>697.59997558594</ele>
        <time>2026-09-02T14:42:13.000Z</time>
      </trkpt>
      <trkpt lat="48.1303" lon="6.87393">
        <ele>697.59997558594</ele>
        <time>2026-09-02T14:42:14.000Z</time>
      </trkpt>
      <trkpt lat="48.13029" lon="6.87392">
        <ele>697.59997558594</ele>
        <time>2026-09-02T14:42:15.000Z</time>
      </trkpt>
      <trkpt lat="48.13028" lon="6.87391">
        <ele>697.59997558594</ele>
        <time>2026-09-02T14:42:16.000Z</time>
      </trkpt>
      <trkpt lat="48.13028" lon="6.87391">
        <ele>697.59997558594</ele>
        <time>2026-09-02T14:42:17.000Z</time>
      </trkpt>
      <trkpt lat="48.13027" lon="6.8739">
        <ele>697.59997558594</ele>
        <time>2026-09-02T14:42:18.000Z</time>
      </trkpt>
      <trkpt lat="48.13026" lon="6.87389">
        <ele>697.59997558594</ele>
        <time>2026-09-02T14:42:19.000Z</time>
      </trkpt>
      <trkpt lat="48.13025" lon="6.87388">
        <ele>697.59997558594</ele>
        <time>2026-09-02T14:42:20.000Z</time>
      </trkpt>
      <trkpt lat="48.13024" lon="6.87388">
        <ele>697.59997558594</ele>
        <time>2026-09-02T14:42:21.000Z</time>
      </trkpt>
      <trkpt lat="48.13023" lon="6.87387">
        <ele>697.59997558594</ele>
        <time>2026-09-02T14:42:22.000Z</time>
      </trkpt>
      <trkpt lat="48.13022" lon="6.87386">
        <ele>697.59997558594</ele>
        <time>2026-09-02T14:42:23.000Z</time>
      </trkpt>
      <trkpt lat="48.13021" lon="6.87385">
        <ele>697.59997558594</ele>
        <time>2026-09-02T14:42:24.000Z</time>
      </trkpt>
      <trkpt lat="48.1302" lon="6.87385">
        <ele>697.59997558594</ele>
        <time>2026-09-02T14:42:25.000Z</time>
      </trkpt>
      <trkpt lat="48.13019" lon="6.87384">
        <ele>697.59997558594</ele>
        <time>2026-09-02T14:42:26.000Z</time>
      </trkpt>
      <trkpt lat="48.13018" lon="6.87383">
        <ele>697.59997558594</ele>
        <time>2026-09-02T14:42:27.000Z</time>
      </trkpt>
      <trkpt lat="48.13017" lon="6.87382">
        <ele>697.59997558594</ele>
        <time>2026-09-02T14:42:28.000Z</time>
      </trkpt>
      <trkpt lat="48.13017" lon="6.87381">
        <ele>697.59997558594</ele>
        <time>2026-09-02T14:42:29.000Z</time>
      </trkpt>
      <trkpt lat="48.13016" lon="6.8738">
        <ele>697.40002441406</ele>
        <time>2026-09-02T14:42:30.000Z</time>
      </trkpt>
      <trkpt lat="48.13015" lon="6.87379">
        <ele>697.40002441406</ele>
        <time>2026-09-02T14:42:31.000Z</time>
      </trkpt>
      <trkpt lat="48.13014" lon="6.87379">
        <ele>697.40002441406</ele>
        <time>2026-09-02T14:42:32.000Z</time>
      </trkpt>
      <trkpt lat="48.13013" lon="6.87378">
        <ele>697.59997558594</ele>
        <time>2026-09-02T14:42:33.000Z</time>
      </trkpt>
      <trkpt lat="48.13012" lon="6.87376">
        <ele>697.59997558594</ele>
        <time>2026-09-02T14:42:34.000Z</time>
      </trkpt>
      <trkpt lat="48.13011" lon="6.87375">
        <ele>697.59997558594</ele>
        <time>2026-09-02T14:42:35.000Z</time>
      </trkpt>
      <trkpt lat="48.1301" lon="6.87374">
        <ele>697.59997558594</ele>
        <time>2026-09-02T14:42:36.000Z</time>
      </trkpt>
      <trkpt lat="48.13009" lon="6.87374">
        <ele>697.59997558594</ele>
        <time>2026-09-02T14:42:37.000Z</time>
      </trkpt>
      <trkpt lat="48.13008" lon="6.87372">
        <ele>697.59997558594</ele>
        <time>2026-09-02T14:42:38.000Z</time>
      </trkpt>
      <trkpt lat="48.13007" lon="6.87372">
        <ele>697.59997558594</ele>
        <time>2026-09-02T14:42:39.000Z</time>
      </trkpt>
      <trkpt lat="48.13006" lon="6.87371">
        <ele>697.59997558594</ele>
        <time>2026-09-02T14:42:40.000Z</time>
      </trkpt>
      <trkpt lat="48.13005" lon="6.8737">
        <ele>697.59997558594</ele>
        <time>2026-09-02T14:42:41.000Z</time>
      </trkpt>
      <trkpt lat="48.13005" lon="6.87369">
        <ele>697.59997558594</ele>
        <time>2026-09-02T14:42:42.000Z</time>
      </trkpt>
      <trkpt lat="48.13004" lon="6.87368">
        <ele>697.59997558594</ele>
        <time>2026-09-02T14:42:43.000Z</time>
      </trkpt>
      <trkpt lat="48.13003" lon="6.87367">
        <ele>697.59997558594</ele>
        <time>2026-09-02T14:42:44.000Z</time>
      </trkpt>
      <trkpt lat="48.13003" lon="6.87366">
        <ele>697.59997558594</ele>
        <time>2026-09-02T14:42:45.000Z</time>
      </trkpt>
      <trkpt lat="48.13002" lon="6.87365">
        <ele>697.59997558594</ele>
        <time>2026-09-02T14:42:46.000Z</time>
      </trkpt>
      <trkpt lat="48.13001" lon="6.87364">
        <ele>697.40002441406</ele>
        <time>2026-09-02T14:42:47.000Z</time>
      </trkpt>
      <trkpt lat="48.13001" lon="6.87364">
        <ele>697.40002441406</ele>
        <time>2026-09-02T14:42:48.000Z</time>
      </trkpt>
      <trkpt lat="48.13" lon="6.87364">
        <ele>697.40002441406</ele>
        <time>2026-09-02T14:42:49.000Z</time>
      </trkpt>
      <trkpt lat="48.12999" lon="6.87363">
        <ele>697.40002441406</ele>
        <time>2026-09-02T14:42:50.000Z</time>
      </trkpt>
      <trkpt lat="48.12998" lon="6.87362">
        <ele>697.40002441406</ele>
        <time>2026-09-02T14:42:51.000Z</time>
      </trkpt>
      <trkpt lat="48.12998" lon="6.87361">
        <ele>697.40002441406</ele>
        <time>2026-09-02T14:42:52.000Z</time>
      </trkpt>
      <trkpt lat="48.12997" lon="6.8736">
        <ele>697.59997558594</ele>
        <time>2026-09-02T14:42:53.000Z</time>
      </trkpt>
      <trkpt lat="48.12996" lon="6.87359">
        <ele>697.59997558594</ele>
        <time>2026-09-02T14:42:54.000Z</time>
      </trkpt>
      <trkpt lat="48.12995" lon="6.87359">
        <ele>697.59997558594</ele>
        <time>2026-09-02T14:42:55.000Z</time>
      </trkpt>
      <trkpt lat="48.12994" lon="6.87358">
        <ele>697.59997558594</ele>
        <time>2026-09-02T14:42:56.000Z</time>
      </trkpt>
      <trkpt lat="48.12993" lon="6.87358">
        <ele>697.59997558594</ele>
        <time>2026-09-02T14:42:57.000Z</time>
      </trkpt>
      <trkpt lat="48.12993" lon="6.87357">
        <ele>697.59997558594</ele>
        <time>2026-09-02T14:42:58.000Z</time>
      </trkpt>
      <trkpt lat="48.12994" lon="6.87356">
        <ele>697.59997558594</ele>
        <time>2026-09-02T14:42:59.000Z</time>
      </trkpt>
      <trkpt lat="48.12993" lon="6.87355">
        <ele>697.59997558594</ele>
        <time>2026-09-02T14:43:00.000Z</time>
      </trkpt>
      <trkpt lat="48.12993" lon="6.87355">
        <ele>697.59997558594</ele>
        <time>2026-09-02T14:43:01.000Z</time>
      </trkpt>
      <trkpt lat="48.12992" lon="6.87354">
        <ele>697.59997558594</ele>
        <time>2026-09-02T14:43:02.000Z</time>
      </trkpt>
      <trkpt lat="48.12991" lon="6.87353">
        <ele>697.80004882812</ele>
        <time>2026-09-02T14:43:03.000Z</time>
      </trkpt>
      <trkpt lat="48.1299" lon="6.87352">
        <ele>697.80004882812</ele>
        <time>2026-09-02T14:43:04.000Z</time>
      </trkpt>
      <trkpt lat="48.12989" lon="6.8735">
        <ele>697.59997558594</ele>
        <time>2026-09-02T14:43:05.000Z</time>
      </trkpt>
      <trkpt lat="48.12988" lon="6.87348">
        <ele>697.59997558594</ele>
        <time>2026-09-02T14:43:06.000Z</time>
      </trkpt>
      <trkpt lat="48.12987" lon="6.87347">
        <ele>697.59997558594</ele>
        <time>2026-09-02T14:43:07.000Z</time>
      </trkpt>
      <trkpt lat="48.12987" lon="6.87346">
        <ele>697.59997558594</ele>
        <time>2026-09-02T14:43:08.000Z</time>
      </trkpt>
      <trkpt lat="48.12985" lon="6.87345">
        <ele>697.80004882812</ele>
        <time>2026-09-02T14:43:09.000Z</time>
      </trkpt>
      <trkpt lat="48.12985" lon="6.87344">
        <ele>698</ele>
        <time>2026-09-02T14:43:10.000Z</time>
      </trkpt>
      <trkpt lat="48.12984" lon="6.87343">
        <ele>698</ele>
        <time>2026-09-02T14:43:11.000Z</time>
      </trkpt>
      <trkpt lat="48.12983" lon="6.87342">
        <ele>698.19995117188</ele>
        <time>2026-09-02T14:43:12.000Z</time>
      </trkpt>
      <trkpt lat="48.12983" lon="6.87341">
        <ele>698.40002441406</ele>
        <time>2026-09-02T14:43:13.000Z</time>
      </trkpt>
      <trkpt lat="48.12982" lon="6.8734">
        <ele>698.40002441406</ele>
        <time>2026-09-02T14:43:14.000Z</time>
      </trkpt>
      <trkpt lat="48.12981" lon="6.87338">
        <ele>698.40002441406</ele>
        <time>2026-09-02T14:43:15.000Z</time>
      </trkpt>
      <trkpt lat="48.1298" lon="6.87337">
        <ele>698.40002441406</ele>
        <time>2026-09-02T14:43:16.000Z</time>
      </trkpt>
      <trkpt lat="48.12979" lon="6.87337">
        <ele>698.40002441406</ele>
        <time>2026-09-02T14:43:17.000Z</time>
      </trkpt>
      <trkpt lat="48.12979" lon="6.87336">
        <ele>698.40002441406</ele>
        <time>2026-09-02T14:43:18.000Z</time>
      </trkpt>
      <trkpt lat="48.12978" lon="6.87334">
        <ele>698.40002441406</ele>
        <time>2026-09-02T14:43:19.000Z</time>
      </trkpt>
      <trkpt lat="48.12978" lon="6.87333">
        <ele>698.40002441406</ele>
        <time>2026-09-02T14:43:20.000Z</time>
      </trkpt>
      <trkpt lat="48.12977" lon="6.87332">
        <ele>698.40002441406</ele>
        <time>2026-09-02T14:43:21.000Z</time>
      </trkpt>
      <trkpt lat="48.12976" lon="6.87331">
        <ele>698.40002441406</ele>
        <time>2026-09-02T14:43:22.000Z</time>
      </trkpt>
      <trkpt lat="48.12975" lon="6.8733">
        <ele>698.19995117188</ele>
        <time>2026-09-02T14:43:23.000Z</time>
      </trkpt>
      <trkpt lat="48.12974" lon="6.87329">
        <ele>698.19995117188</ele>
        <time>2026-09-02T14:43:24.000Z</time>
      </trkpt>
      <trkpt lat="48.12974" lon="6.87329">
        <ele>698.19995117188</ele>
        <time>2026-09-02T14:43:25.000Z</time>
      </trkpt>
      <trkpt lat="48.12973" lon="6.87328">
        <ele>698.19995117188</ele>
        <time>2026-09-02T14:43:26.000Z</time>
      </trkpt>
      <trkpt lat="48.12973" lon="6.87326">
        <ele>698.19995117188</ele>
        <time>2026-09-02T14:43:27.000Z</time>
      </trkpt>
      <trkpt lat="48.12973" lon="6.87325">
        <ele>698.19995117188</ele>
        <time>2026-09-02T14:43:28.000Z</time>
      </trkpt>
      <trkpt lat="48.12972" lon="6.87324">
        <ele>698.19995117188</ele>
        <time>2026-09-02T14:43:29.000Z</time>
      </trkpt>
      <trkpt lat="48.1297" lon="6.87322">
        <ele>698.19995117188</ele>
        <time>2026-09-02T14:43:30.000Z</time>
      </trkpt>
      <trkpt lat="48.1297" lon="6.87321">
        <ele>698.40002441406</ele>
        <time>2026-09-02T14:43:31.000Z</time>
      </trkpt>
      <trkpt lat="48.12969" lon="6.8732">
        <ele>698.40002441406</ele>
        <time>2026-09-02T14:43:32.000Z</time>
      </trkpt>
      <trkpt lat="48.12968" lon="6.87319">
        <ele>698.40002441406</ele>
        <time>2026-09-02T14:43:33.000Z</time>
      </trkpt>
      <trkpt lat="48.12968" lon="6.87318">
        <ele>698.40002441406</ele>
        <time>2026-09-02T14:43:34.000Z</time>
      </trkpt>
      <trkpt lat="48.12967" lon="6.87317">
        <ele>698.40002441406</ele>
        <time>2026-09-02T14:43:35.000Z</time>
      </trkpt>
      <trkpt lat="48.12966" lon="6.87316">
        <ele>698.40002441406</ele>
        <time>2026-09-02T14:43:36.000Z</time>
      </trkpt>
      <trkpt lat="48.12965" lon="6.87314">
        <ele>698.40002441406</ele>
        <time>2026-09-02T14:43:37.000Z</time>
      </trkpt>
      <trkpt lat="48.12964" lon="6.87312">
        <ele>698.40002441406</ele>
        <time>2026-09-02T14:43:38.000Z</time>
      </trkpt>
      <trkpt lat="48.12963" lon="6.87312">
        <ele>698.40002441406</ele>
        <time>2026-09-02T14:43:39.000Z</time>
      </trkpt>
      <trkpt lat="48.12964" lon="6.87311">
        <ele>698.40002441406</ele>
        <time>2026-09-02T14:43:40.000Z</time>
      </trkpt>
      <trkpt lat="48.12964" lon="6.87311">
        <ele>698.40002441406</ele>
        <time>2026-09-02T14:43:41.000Z</time>
      </trkpt>
      <trkpt lat="48.12964" lon="6.87312">
        <ele>698.19995117188</ele>
        <time>2026-09-02T14:43:42.000Z</time>
      </trkpt>
      <trkpt lat="48.12965" lon="6.87313">
        <ele>698.19995117188</ele>
        <time>2026-09-02T14:43:43.000Z</time>
      </trkpt>
      <trkpt lat="48.12965" lon="6.87313">
        <ele>698</ele>
        <time>2026-09-02T14:43:44.000Z</time>
      </trkpt>
      <trkpt lat="48.12965" lon="6.87312">
        <ele>697.80004882812</ele>
        <time>2026-09-02T14:43:45.000Z</time>
      </trkpt>
      <trkpt lat="48.12965" lon="6.87313">
        <ele>697.59997558594</ele>
        <time>2026-09-02T14:43:46.000Z</time>
      </trkpt>
      <trkpt lat="48.12965" lon="6.87313">
        <ele>697.80004882812</ele>
        <time>2026-09-02T14:43:47.000Z</time>
      </trkpt>
      <trkpt lat="48.12965" lon="6.87313">
        <ele>698</ele>
        <time>2026-09-02T14:43:48.000Z</time>
      </trkpt>
      <trkpt lat="48.12965" lon="6.87313">
        <ele>698</ele>
        <time>2026-09-02T14:43:49.000Z</time>
      </trkpt>
      <trkpt lat="48.12965" lon="6.87313">
        <ele>698.19995117188</ele>
        <time>2026-09-02T14:43:50.000Z</time>
      </trkpt>
      <trkpt lat="48.12965" lon="6.87313">
        <ele>698.40002441406</ele>
        <time>2026-09-02T14:43:51.000Z</time>
      </trkpt>
      <trkpt lat="48.12965" lon="6.87313">
        <ele>698.40002441406</ele>
        <time>2026-09-02T14:43:52.000Z</time>
      </trkpt>
      <trkpt lat="48.12965" lon="6.87313">
        <ele>698.40002441406</ele>
        <time>2026-09-02T14:43:53.000Z</time>
      </trkpt>
      <trkpt lat="48.12965" lon="6.87313">
        <ele>698.40002441406</ele>
        <time>2026-09-02T14:43:54.000Z</time>
      </trkpt>
      <trkpt lat="48.12965" lon="6.87313">
        <ele>698.40002441406</ele>
        <time>2026-09-02T14:43:55.000Z</time>
      </trkpt>
      <trkpt lat="48.12965" lon="6.87313">
        <ele>698.40002441406</ele>
        <time>2026-09-02T14:43:56.000Z</time>
      </trkpt>
      <trkpt lat="48.12965" lon="6.87313">
        <ele>698.19995117188</ele>
        <time>2026-09-02T14:43:57.000Z</time>
      </trkpt>
      <trkpt lat="48.12965" lon="6.87313">
        <ele>698.19995117188</ele>
        <time>2026-09-02T14:43:58.000Z</time>
      </trkpt>
      <trkpt lat="48.12965" lon="6.87313">
        <ele>698.19995117188</ele>
        <time>2026-09-02T14:43:59.000Z</time>
      </trkpt>
      <trkpt lat="48.12965" lon="6.87313">
        <ele>698</ele>
        <time>2026-09-02T14:44:00.000Z</time>
      </trkpt>
      <trkpt lat="48.12965" lon="6.87313">
        <ele>698</ele>
        <time>2026-09-02T14:44:01.000Z</time>
      </trkpt>
      <trkpt lat="48.12965" lon="6.87313">
        <ele>698.19995117188</ele>
        <time>2026-09-02T14:44:02.000Z</time>
      </trkpt>
      <trkpt lat="48.12965" lon="6.87313">
        <ele>698.19995117188</ele>
        <time>2026-09-02T14:44:03.000Z</time>
      </trkpt>
      <trkpt lat="48.12965" lon="6.87313">
        <ele>698.19995117188</ele>
        <time>2026-09-02T14:44:04.000Z</time>
      </trkpt>
      <trkpt lat="48.12965" lon="6.87313">
        <ele>698.19995117188</ele>
        <time>2026-09-02T14:44:05.000Z</time>
      </trkpt>
      <trkpt lat="48.12965" lon="6.87313">
        <ele>698</ele>
        <time>2026-09-02T14:44:06.000Z</time>
      </trkpt>
      <trkpt lat="48.12965" lon="6.87313">
        <ele>698</ele>
        <time>2026-09-02T14:44:07.000Z</time>
      </trkpt>
      <trkpt lat="48.12964" lon="6.87312">
        <ele>698</ele>
        <time>2026-09-02T14:44:08.000Z</time>
      </trkpt>
      <trkpt lat="48.12964" lon="6.87313">
        <ele>698</ele>
        <time>2026-09-02T14:44:09.000Z</time>
      </trkpt>
      <trkpt lat="48.12964" lon="6.87312">
        <ele>698</ele>
        <time>2026-09-02T14:44:10.000Z</time>
      </trkpt>
      <trkpt lat="48.12964" lon="6.87312">
        <ele>698</ele>
        <time>2026-09-02T14:44:11.000Z</time>
      </trkpt>
      <trkpt lat="48.12964" lon="6.87312">
        <ele>698</ele>
        <time>2026-09-02T14:44:12.000Z</time>
      </trkpt>
      <trkpt lat="48.12965" lon="6.87313">
        <ele>698</ele>
        <time>2026-09-02T14:44:13.000Z</time>
      </trkpt>
      <trkpt lat="48.12965" lon="6.87313">
        <ele>698.19995117188</ele>
        <time>2026-09-02T14:44:14.000Z</time>
      </trkpt>
      <trkpt lat="48.12965" lon="6.87313">
        <ele>698.19995117188</ele>
        <time>2026-09-02T14:44:15.000Z</time>
      </trkpt>
      <trkpt lat="48.12965" lon="6.87313">
        <ele>698</ele>
        <time>2026-09-02T14:44:16.000Z</time>
      </trkpt>
      <trkpt lat="48.12964" lon="6.87312">
        <ele>698</ele>
        <time>2026-09-02T14:44:17.000Z</time>
      </trkpt>
      <trkpt lat="48.12963" lon="6.87312">
        <ele>698</ele>
        <time>2026-09-02T14:44:18.000Z</time>
      </trkpt>
      <trkpt lat="48.12963" lon="6.87311">
        <ele>698</ele>
        <time>2026-09-02T14:44:19.000Z</time>
      </trkpt>
      <trkpt lat="48.12962" lon="6.8731">
        <ele>698</ele>
        <time>2026-09-02T14:44:20.000Z</time>
      </trkpt>
      <trkpt lat="48.12961" lon="6.87309">
        <ele>698.19995117188</ele>
        <time>2026-09-02T14:44:21.000Z</time>
      </trkpt>
      <trkpt lat="48.12961" lon="6.87308">
        <ele>698.19995117188</ele>
        <time>2026-09-02T14:44:22.000Z</time>
      </trkpt>
      <trkpt lat="48.1296" lon="6.87307">
        <ele>698.19995117188</ele>
        <time>2026-09-02T14:44:23.000Z</time>
      </trkpt>
      <trkpt lat="48.12959" lon="6.87305">
        <ele>698.19995117188</ele>
        <time>2026-09-02T14:44:24.000Z</time>
      </trkpt>
      <trkpt lat="48.12958" lon="6.87304">
        <ele>698.19995117188</ele>
        <time>2026-09-02T14:44:25.000Z</time>
      </trkpt>
      <trkpt lat="48.12957" lon="6.87303">
        <ele>698</ele>
        <time>2026-09-02T14:44:26.000Z</time>
      </trkpt>
      <trkpt lat="48.12956" lon="6.87302">
        <ele>697.80004882812</ele>
        <time>2026-09-02T14:44:27.000Z</time>
      </trkpt>
      <trkpt lat="48.12956" lon="6.873">
        <ele>697.80004882812</ele>
        <time>2026-09-02T14:44:28.000Z</time>
      </trkpt>
      <trkpt lat="48.12955" lon="6.873">
        <ele>697.80004882812</ele>
        <time>2026-09-02T14:44:29.000Z</time>
      </trkpt>
      <trkpt lat="48.12955" lon="6.87298">
        <ele>698</ele>
        <time>2026-09-02T14:44:30.000Z</time>
      </trkpt>
      <trkpt lat="48.12953" lon="6.87297">
        <ele>698</ele>
        <time>2026-09-02T14:44:31.000Z</time>
      </trkpt>
      <trkpt lat="48.12952" lon="6.87296">
        <ele>698.19995117188</ele>
        <time>2026-09-02T14:44:32.000Z</time>
      </trkpt>
      <trkpt lat="48.12951" lon="6.87295">
        <ele>698.19995117188</ele>
        <time>2026-09-02T14:44:33.000Z</time>
      </trkpt>
      <trkpt lat="48.1295" lon="6.87294">
        <ele>698.19995117188</ele>
        <time>2026-09-02T14:44:34.000Z</time>
      </trkpt>
      <trkpt lat="48.12949" lon="6.87293">
        <ele>698.40002441406</ele>
        <time>2026-09-02T14:44:35.000Z</time>
      </trkpt>
      <trkpt lat="48.12949" lon="6.87292">
        <ele>698.40002441406</ele>
        <time>2026-09-02T14:44:36.000Z</time>
      </trkpt>
      <trkpt lat="48.12949" lon="6.87291">
        <ele>698.40002441406</ele>
        <time>2026-09-02T14:44:37.000Z</time>
      </trkpt>
      <trkpt lat="48.12948" lon="6.8729">
        <ele>698.40002441406</ele>
        <time>2026-09-02T14:44:38.000Z</time>
      </trkpt>
      <trkpt lat="48.12947" lon="6.87289">
        <ele>698.40002441406</ele>
        <time>2026-09-02T14:44:39.000Z</time>
      </trkpt>
      <trkpt lat="48.12945" lon="6.87288">
        <ele>698.19995117188</ele>
        <time>2026-09-02T14:44:40.000Z</time>
      </trkpt>
      <trkpt lat="48.12944" lon="6.87287">
        <ele>698.19995117188</ele>
        <time>2026-09-02T14:44:41.000Z</time>
      </trkpt>
      <trkpt lat="48.12943" lon="6.87286">
        <ele>698.40002441406</ele>
        <time>2026-09-02T14:44:42.000Z</time>
      </trkpt>
      <trkpt lat="48.12942" lon="6.87285">
        <ele>698.19995117188</ele>
        <time>2026-09-02T14:44:43.000Z</time>
      </trkpt>
      <trkpt lat="48.12942" lon="6.87284">
        <ele>698.19995117188</ele>
        <time>2026-09-02T14:44:44.000Z</time>
      </trkpt>
      <trkpt lat="48.12941" lon="6.87283">
        <ele>698.19995117188</ele>
        <time>2026-09-02T14:44:45.000Z</time>
      </trkpt>
      <trkpt lat="48.1294" lon="6.87282">
        <ele>698.19995117188</ele>
        <time>2026-09-02T14:44:46.000Z</time>
      </trkpt>
      <trkpt lat="48.12939" lon="6.8728">
        <ele>698.19995117188</ele>
        <time>2026-09-02T14:44:47.000Z</time>
      </trkpt>
      <trkpt lat="48.12938" lon="6.87279">
        <ele>698.19995117188</ele>
        <time>2026-09-02T14:44:48.000Z</time>
      </trkpt>
      <trkpt lat="48.12937" lon="6.87278">
        <ele>698</ele>
        <time>2026-09-02T14:44:49.000Z</time>
      </trkpt>
      <trkpt lat="48.12936" lon="6.87277">
        <ele>697.80004882812</ele>
        <time>2026-09-02T14:44:50.000Z</time>
      </trkpt>
      <trkpt lat="48.12936" lon="6.87275">
        <ele>697.80004882812</ele>
        <time>2026-09-02T14:44:51.000Z</time>
      </trkpt>
      <trkpt lat="48.12935" lon="6.87274">
        <ele>697.59997558594</ele>
        <time>2026-09-02T14:44:52.000Z</time>
      </trkpt>
      <trkpt lat="48.12935" lon="6.87273">
        <ele>697.59997558594</ele>
        <time>2026-09-02T14:44:53.000Z</time>
      </trkpt>
      <trkpt lat="48.12934" lon="6.87272">
        <ele>697.59997558594</ele>
        <time>2026-09-02T14:44:54.000Z</time>
      </trkpt>
      <trkpt lat="48.12932" lon="6.87271">
        <ele>697.59997558594</ele>
        <time>2026-09-02T14:44:55.000Z</time>
      </trkpt>
      <trkpt lat="48.12932" lon="6.87269">
        <ele>697.59997558594</ele>
        <time>2026-09-02T14:44:56.000Z</time>
      </trkpt>
      <trkpt lat="48.12931" lon="6.87268">
        <ele>697.40002441406</ele>
        <time>2026-09-02T14:44:57.000Z</time>
      </trkpt>
      <trkpt lat="48.12931" lon="6.87267">
        <ele>697.40002441406</ele>
        <time>2026-09-02T14:44:58.000Z</time>
      </trkpt>
      <trkpt lat="48.1293" lon="6.87266">
        <ele>697.59997558594</ele>
        <time>2026-09-02T14:44:59.000Z</time>
      </trkpt>
      <trkpt lat="48.12929" lon="6.87265">
        <ele>697.59997558594</ele>
        <time>2026-09-02T14:45:00.000Z</time>
      </trkpt>
      <trkpt lat="48.12928" lon="6.87263">
        <ele>697.80004882812</ele>
        <time>2026-09-02T14:45:01.000Z</time>
      </trkpt>
      <trkpt lat="48.12928" lon="6.87262">
        <ele>698</ele>
        <time>2026-09-02T14:45:02.000Z</time>
      </trkpt>
      <trkpt lat="48.12927" lon="6.8726">
        <ele>698</ele>
        <time>2026-09-02T14:45:03.000Z</time>
      </trkpt>
      <trkpt lat="48.12926" lon="6.87259">
        <ele>698</ele>
        <time>2026-09-02T14:45:04.000Z</time>
      </trkpt>
      <trkpt lat="48.12926" lon="6.87258">
        <ele>698</ele>
        <time>2026-09-02T14:45:05.000Z</time>
      </trkpt>
      <trkpt lat="48.12925" lon="6.87257">
        <ele>698</ele>
        <time>2026-09-02T14:45:06.000Z</time>
      </trkpt>
      <trkpt lat="48.12925" lon="6.87255">
        <ele>698</ele>
        <time>2026-09-02T14:45:07.000Z</time>
      </trkpt>
      <trkpt lat="48.12924" lon="6.87254">
        <ele>698</ele>
        <time>2026-09-02T14:45:08.000Z</time>
      </trkpt>
      <trkpt lat="48.12923" lon="6.87252">
        <ele>698</ele>
        <time>2026-09-02T14:45:09.000Z</time>
      </trkpt>
      <trkpt lat="48.12922" lon="6.87252">
        <ele>698</ele>
        <time>2026-09-02T14:45:10.000Z</time>
      </trkpt>
      <trkpt lat="48.12922" lon="6.87251">
        <ele>698</ele>
        <time>2026-09-02T14:45:11.000Z</time>
      </trkpt>
      <trkpt lat="48.12921" lon="6.8725">
        <ele>698</ele>
        <time>2026-09-02T14:45:12.000Z</time>
      </trkpt>
      <trkpt lat="48.12921" lon="6.87249">
        <ele>697.80004882812</ele>
        <time>2026-09-02T14:45:13.000Z</time>
      </trkpt>
      <trkpt lat="48.1292" lon="6.87249">
        <ele>697.80004882812</ele>
        <time>2026-09-02T14:45:14.000Z</time>
      </trkpt>
      <trkpt lat="48.1292" lon="6.87248">
        <ele>697.80004882812</ele>
        <time>2026-09-02T14:45:15.000Z</time>
      </trkpt>
      <trkpt lat="48.12919" lon="6.87248">
        <ele>697.80004882812</ele>
        <time>2026-09-02T14:45:16.000Z</time>
      </trkpt>
      <trkpt lat="48.12918" lon="6.87247">
        <ele>698</ele>
        <time>2026-09-02T14:45:17.000Z</time>
      </trkpt>
      <trkpt lat="48.12918" lon="6.87246">
        <ele>698</ele>
        <time>2026-09-02T14:45:18.000Z</time>
      </trkpt>
      <trkpt lat="48.12918" lon="6.87245">
        <ele>698</ele>
        <time>2026-09-02T14:45:19.000Z</time>
      </trkpt>
      <trkpt lat="48.12917" lon="6.87244">
        <ele>698</ele>
        <time>2026-09-02T14:45:20.000Z</time>
      </trkpt>
      <trkpt lat="48.12917" lon="6.87244">
        <ele>698</ele>
        <time>2026-09-02T14:45:21.000Z</time>
      </trkpt>
      <trkpt lat="48.12916" lon="6.87243">
        <ele>698</ele>
        <time>2026-09-02T14:45:22.000Z</time>
      </trkpt>
      <trkpt lat="48.12916" lon="6.87243">
        <ele>698.19995117188</ele>
        <time>2026-09-02T14:45:23.000Z</time>
      </trkpt>
      <trkpt lat="48.12916" lon="6.87243">
        <ele>698.19995117188</ele>
        <time>2026-09-02T14:45:24.000Z</time>
      </trkpt>
      <trkpt lat="48.12916" lon="6.87243">
        <ele>698.19995117188</ele>
        <time>2026-09-02T14:45:25.000Z</time>
      </trkpt>
      <trkpt lat="48.12916" lon="6.87243">
        <ele>698.19995117188</ele>
        <time>2026-09-02T14:45:26.000Z</time>
      </trkpt>
      <trkpt lat="48.12916" lon="6.87243">
        <ele>698</ele>
        <time>2026-09-02T14:45:27.000Z</time>
      </trkpt>
      <trkpt lat="48.12915" lon="6.8724">
        <ele>698</ele>
        <time>2026-09-02T14:45:28.000Z</time>
      </trkpt>
      <trkpt lat="48.12914" lon="6.87239">
        <ele>698</ele>
        <time>2026-09-02T14:45:29.000Z</time>
      </trkpt>
      <trkpt lat="48.12913" lon="6.87237">
        <ele>698</ele>
        <time>2026-09-02T14:45:30.000Z</time>
      </trkpt>
      <trkpt lat="48.12912" lon="6.87236">
        <ele>697.80004882812</ele>
        <time>2026-09-02T14:45:31.000Z</time>
      </trkpt>
      <trkpt lat="48.12912" lon="6.87235">
        <ele>697.59997558594</ele>
        <time>2026-09-02T14:45:32.000Z</time>
      </trkpt>
      <trkpt lat="48.12911" lon="6.87234">
        <ele>697.19995117188</ele>
        <time>2026-09-02T14:45:33.000Z</time>
      </trkpt>
      <trkpt lat="48.1291" lon="6.87233">
        <ele>697</ele>
        <time>2026-09-02T14:45:34.000Z</time>
      </trkpt>
      <trkpt lat="48.1291" lon="6.87232">
        <ele>696.80004882812</ele>
        <time>2026-09-02T14:45:35.000Z</time>
      </trkpt>
      <trkpt lat="48.12909" lon="6.87231">
        <ele>696.80004882812</ele>
        <time>2026-09-02T14:45:36.000Z</time>
      </trkpt>
      <trkpt lat="48.12909" lon="6.8723">
        <ele>697</ele>
        <time>2026-09-02T14:45:37.000Z</time>
      </trkpt>
      <trkpt lat="48.12908" lon="6.87229">
        <ele>697</ele>
        <time>2026-09-02T14:45:38.000Z</time>
      </trkpt>
      <trkpt lat="48.12907" lon="6.87228">
        <ele>697</ele>
        <time>2026-09-02T14:45:39.000Z</time>
      </trkpt>
      <trkpt lat="48.12907" lon="6.87226">
        <ele>697.19995117188</ele>
        <time>2026-09-02T14:45:40.000Z</time>
      </trkpt>
      <trkpt lat="48.12907" lon="6.87225">
        <ele>697.19995117188</ele>
        <time>2026-09-02T14:45:41.000Z</time>
      </trkpt>
      <trkpt lat="48.12907" lon="6.87224">
        <ele>697.40002441406</ele>
        <time>2026-09-02T14:45:42.000Z</time>
      </trkpt>
      <trkpt lat="48.12906" lon="6.87222">
        <ele>697.59997558594</ele>
        <time>2026-09-02T14:45:43.000Z</time>
      </trkpt>
      <trkpt lat="48.12905" lon="6.87221">
        <ele>697.80004882812</ele>
        <time>2026-09-02T14:45:44.000Z</time>
      </trkpt>
      <trkpt lat="48.12905" lon="6.8722">
        <ele>698</ele>
        <time>2026-09-02T14:45:45.000Z</time>
      </trkpt>
      <trkpt lat="48.12906" lon="6.87219">
        <ele>698.19995117188</ele>
        <time>2026-09-02T14:45:46.000Z</time>
      </trkpt>
      <trkpt lat="48.12905" lon="6.87218">
        <ele>698.19995117188</ele>
        <time>2026-09-02T14:45:47.000Z</time>
      </trkpt>
      <trkpt lat="48.12904" lon="6.87217">
        <ele>698.40002441406</ele>
        <time>2026-09-02T14:45:48.000Z</time>
      </trkpt>
      <trkpt lat="48.12903" lon="6.87215">
        <ele>698.40002441406</ele>
        <time>2026-09-02T14:45:49.000Z</time>
      </trkpt>
      <trkpt lat="48.12904" lon="6.87213">
        <ele>698.59997558594</ele>
        <time>2026-09-02T14:45:50.000Z</time>
      </trkpt>
      <trkpt lat="48.12904" lon="6.87212">
        <ele>698.59997558594</ele>
        <time>2026-09-02T14:45:51.000Z</time>
      </trkpt>
      <trkpt lat="48.12904" lon="6.87211">
        <ele>698.59997558594</ele>
        <time>2026-09-02T14:45:52.000Z</time>
      </trkpt>
      <trkpt lat="48.12903" lon="6.87209">
        <ele>698.59997558594</ele>
        <time>2026-09-02T14:45:53.000Z</time>
      </trkpt>
      <trkpt lat="48.12903" lon="6.87208">
        <ele>698.59997558594</ele>
        <time>2026-09-02T14:45:54.000Z</time>
      </trkpt>
      <trkpt lat="48.12902" lon="6.87206">
        <ele>698.59997558594</ele>
        <time>2026-09-02T14:45:55.000Z</time>
      </trkpt>
      <trkpt lat="48.12902" lon="6.87204">
        <ele>698.59997558594</ele>
        <time>2026-09-02T14:45:56.000Z</time>
      </trkpt>
      <trkpt lat="48.12902" lon="6.87201">
        <ele>698.59997558594</ele>
        <time>2026-09-02T14:45:57.000Z</time>
      </trkpt>
      <trkpt lat="48.12901" lon="6.87199">
        <ele>698.40002441406</ele>
        <time>2026-09-02T14:45:58.000Z</time>
      </trkpt>
      <trkpt lat="48.12901" lon="6.87197">
        <ele>698.40002441406</ele>
        <time>2026-09-02T14:45:59.000Z</time>
      </trkpt>
      <trkpt lat="48.12901" lon="6.87195">
        <ele>698.40002441406</ele>
        <time>2026-09-02T14:46:00.000Z</time>
      </trkpt>
      <trkpt lat="48.12901" lon="6.87193">
        <ele>698.40002441406</ele>
        <time>2026-09-02T14:46:01.000Z</time>
      </trkpt>
      <trkpt lat="48.12901" lon="6.87192">
        <ele>698.40002441406</ele>
        <time>2026-09-02T14:46:02.000Z</time>
      </trkpt>
      <trkpt lat="48.12901" lon="6.87191">
        <ele>698.59997558594</ele>
        <time>2026-09-02T14:46:03.000Z</time>
      </trkpt>
      <trkpt lat="48.12901" lon="6.8719">
        <ele>699</ele>
        <time>2026-09-02T14:46:04.000Z</time>
      </trkpt>
      <trkpt lat="48.12901" lon="6.87189">
        <ele>699</ele>
        <time>2026-09-02T14:46:05.000Z</time>
      </trkpt>
      <trkpt lat="48.129" lon="6.87187">
        <ele>699</ele>
        <time>2026-09-02T14:46:06.000Z</time>
      </trkpt>
      <trkpt lat="48.12901" lon="6.87187">
        <ele>698.80004882812</ele>
        <time>2026-09-02T14:46:07.000Z</time>
      </trkpt>
      <trkpt lat="48.129" lon="6.87187">
        <ele>698.59997558594</ele>
        <time>2026-09-02T14:46:08.000Z</time>
      </trkpt>
      <trkpt lat="48.129" lon="6.87187">
        <ele>698.59997558594</ele>
        <time>2026-09-02T14:46:09.000Z</time>
      </trkpt>
      <trkpt lat="48.12899" lon="6.87186">
        <ele>698.59997558594</ele>
        <time>2026-09-02T14:46:10.000Z</time>
      </trkpt>
      <trkpt lat="48.12899" lon="6.87185">
        <ele>698.59997558594</ele>
        <time>2026-09-02T14:46:11.000Z</time>
      </trkpt>
      <trkpt lat="48.12899" lon="6.87184">
        <ele>698.59997558594</ele>
        <time>2026-09-02T14:46:12.000Z</time>
      </trkpt>
      <trkpt lat="48.12899" lon="6.87183">
        <ele>698.59997558594</ele>
        <time>2026-09-02T14:46:13.000Z</time>
      </trkpt>
      <trkpt lat="48.12899" lon="6.87182">
        <ele>698.59997558594</ele>
        <time>2026-09-02T14:46:14.000Z</time>
      </trkpt>
      <trkpt lat="48.12899" lon="6.87182">
        <ele>698.59997558594</ele>
        <time>2026-09-02T14:46:15.000Z</time>
      </trkpt>
      <trkpt lat="48.12899" lon="6.87182">
        <ele>698.40002441406</ele>
        <time>2026-09-02T14:46:16.000Z</time>
      </trkpt>
      <trkpt lat="48.12899" lon="6.87182">
        <ele>698.40002441406</ele>
        <time>2026-09-02T14:46:17.000Z</time>
      </trkpt>
      <trkpt lat="48.12899" lon="6.87182">
        <ele>698.40002441406</ele>
        <time>2026-09-02T14:46:18.000Z</time>
      </trkpt>
      <trkpt lat="48.12899" lon="6.87182">
        <ele>698.40002441406</ele>
        <time>2026-09-02T14:46:19.000Z</time>
      </trkpt>
      <trkpt lat="48.12899" lon="6.87182">
        <ele>698.40002441406</ele>
        <time>2026-09-02T14:46:20.000Z</time>
      </trkpt>
      <trkpt lat="48.12899" lon="6.87182">
        <ele>698.40002441406</ele>
        <time>2026-09-02T14:46:21.000Z</time>
      </trkpt>
      <trkpt lat="48.12899" lon="6.87182">
        <ele>698.40002441406</ele>
        <time>2026-09-02T14:46:22.000Z</time>
      </trkpt>
      <trkpt lat="48.12899" lon="6.87182">
        <ele>698.40002441406</ele>
        <time>2026-09-02T14:46:23.000Z</time>
      </trkpt>
      <trkpt lat="48.12899" lon="6.87182">
        <ele>698.40002441406</ele>
        <time>2026-09-02T14:46:24.000Z</time>
      </trkpt>
      <trkpt lat="48.12899" lon="6.87182">
        <ele>698.40002441406</ele>
        <time>2026-09-02T14:46:25.000Z</time>
      </trkpt>
      <trkpt lat="48.12899" lon="6.87182">
        <ele>698.40002441406</ele>
        <time>2026-09-02T14:46:26.000Z</time>
      </trkpt>
      <trkpt lat="48.12899" lon="6.87182">
        <ele>698.40002441406</ele>
        <time>2026-09-02T14:46:27.000Z</time>
      </trkpt>
      <trkpt lat="48.12899" lon="6.87182">
        <ele>698.40002441406</ele>
        <time>2026-09-02T14:46:28.000Z</time>
      </trkpt>
      <trkpt lat="48.12899" lon="6.87182">
        <ele>698.40002441406</ele>
        <time>2026-09-02T14:46:29.000Z</time>
      </trkpt>
      <trkpt lat="48.12899" lon="6.87182">
        <ele>698.19995117188</ele>
        <time>2026-09-02T14:46:30.000Z</time>
      </trkpt>
      <trkpt lat="48.12899" lon="6.87182">
        <ele>698.19995117188</ele>
        <time>2026-09-02T14:46:31.000Z</time>
      </trkpt>
      <trkpt lat="48.12899" lon="6.87182">
        <ele>698.19995117188</ele>
        <time>2026-09-02T14:46:32.000Z</time>
      </trkpt>
      <trkpt lat="48.12899" lon="6.87182">
        <ele>698.19995117188</ele>
        <time>2026-09-02T14:46:33.000Z</time>
      </trkpt>
      <trkpt lat="48.12899" lon="6.87182">
        <ele>698.19995117188</ele>
        <time>2026-09-02T14:46:34.000Z</time>
      </trkpt>
      <trkpt lat="48.12899" lon="6.87182">
        <ele>698.40002441406</ele>
        <time>2026-09-02T14:46:35.000Z</time>
      </trkpt>
      <trkpt lat="48.12899" lon="6.87182">
        <ele>698.40002441406</ele>
        <time>2026-09-02T14:46:36.000Z</time>
      </trkpt>
      <trkpt lat="48.12899" lon="6.87182">
        <ele>698.40002441406</ele>
        <time>2026-09-02T14:46:37.000Z</time>
      </trkpt>
      <trkpt lat="48.12899" lon="6.87182">
        <ele>698.40002441406</ele>
        <time>2026-09-02T14:46:38.000Z</time>
      </trkpt>
      <trkpt lat="48.12899" lon="6.87182">
        <ele>698.40002441406</ele>
        <time>2026-09-02T14:46:39.000Z</time>
      </trkpt>
      <trkpt lat="48.12899" lon="6.87182">
        <ele>698.40002441406</ele>
        <time>2026-09-02T14:46:40.000Z</time>
      </trkpt>
      <trkpt lat="48.12899" lon="6.87182">
        <ele>698.40002441406</ele>
        <time>2026-09-02T14:46:41.000Z</time>
      </trkpt>
      <trkpt lat="48.12899" lon="6.87182">
        <ele>698.40002441406</ele>
        <time>2026-09-02T14:46:42.000Z</time>
      </trkpt>
      <trkpt lat="48.12899" lon="6.87182">
        <ele>698.40002441406</ele>
        <time>2026-09-02T14:46:43.000Z</time>
      </trkpt>
      <trkpt lat="48.12899" lon="6.87182">
        <ele>698.19995117188</ele>
        <time>2026-09-02T14:46:44.000Z</time>
      </trkpt>
      <trkpt lat="48.12899" lon="6.87182">
        <ele>698.19995117188</ele>
        <time>2026-09-02T14:46:45.000Z</time>
      </trkpt>
      <trkpt lat="48.12899" lon="6.87182">
        <ele>698.40002441406</ele>
        <time>2026-09-02T14:46:46.000Z</time>
      </trkpt>
      <trkpt lat="48.12899" lon="6.87182">
        <ele>698.40002441406</ele>
        <time>2026-09-02T14:46:47.000Z</time>
      </trkpt>
      <trkpt lat="48.12899" lon="6.87182">
        <ele>698.40002441406</ele>
        <time>2026-09-02T14:46:48.000Z</time>
      </trkpt>
      <trkpt lat="48.12899" lon="6.87182">
        <ele>698.59997558594</ele>
        <time>2026-09-02T14:46:49.000Z</time>
      </trkpt>
      <trkpt lat="48.12899" lon="6.87182">
        <ele>698.59997558594</ele>
        <time>2026-09-02T14:46:50.000Z</time>
      </trkpt>
      <trkpt lat="48.12899" lon="6.87182">
        <ele>698.80004882812</ele>
        <time>2026-09-02T14:46:51.000Z</time>
      </trkpt>
      <trkpt lat="48.12899" lon="6.87182">
        <ele>698.80004882812</ele>
        <time>2026-09-02T14:46:52.000Z</time>
      </trkpt>
      <trkpt lat="48.12899" lon="6.87182">
        <ele>698.59997558594</ele>
        <time>2026-09-02T14:46:53.000Z</time>
      </trkpt>
      <trkpt lat="48.12899" lon="6.87182">
        <ele>698.59997558594</ele>
        <time>2026-09-02T14:46:54.000Z</time>
      </trkpt>
      <trkpt lat="48.12899" lon="6.87182">
        <ele>698.59997558594</ele>
        <time>2026-09-02T14:46:55.000Z</time>
      </trkpt>
      <trkpt lat="48.12899" lon="6.87182">
        <ele>698.59997558594</ele>
        <time>2026-09-02T14:46:56.000Z</time>
      </trkpt>
      <trkpt lat="48.12899" lon="6.87182">
        <ele>698.59997558594</ele>
        <time>2026-09-02T14:46:57.000Z</time>
      </trkpt>
      <trkpt lat="48.12899" lon="6.87182">
        <ele>698.59997558594</ele>
        <time>2026-09-02T14:46:58.000Z</time>
      </trkpt>
      <trkpt lat="48.12899" lon="6.87182">
        <ele>698.59997558594</ele>
        <time>2026-09-02T14:46:59.000Z</time>
      </trkpt>
      <trkpt lat="48.12899" lon="6.87182">
        <ele>698.80004882812</ele>
        <time>2026-09-02T14:47:00.000Z</time>
      </trkpt>
      <trkpt lat="48.12899" lon="6.87182">
        <ele>698.80004882812</ele>
        <time>2026-09-02T14:47:01.000Z</time>
      </trkpt>
      <trkpt lat="48.12899" lon="6.87182">
        <ele>698.80004882812</ele>
        <time>2026-09-02T14:47:02.000Z</time>
      </trkpt>
      <trkpt lat="48.12899" lon="6.87182">
        <ele>698.80004882812</ele>
        <time>2026-09-02T14:47:03.000Z</time>
      </trkpt>
      <trkpt lat="48.129" lon="6.87182">
        <ele>698.59997558594</ele>
        <time>2026-09-02T14:47:04.000Z</time>
      </trkpt>
      <trkpt lat="48.129" lon="6.87182">
        <ele>698.40002441406</ele>
        <time>2026-09-02T14:47:05.000Z</time>
      </trkpt>
      <trkpt lat="48.129" lon="6.87182">
        <ele>698.40002441406</ele>
        <time>2026-09-02T14:47:06.000Z</time>
      </trkpt>
      <trkpt lat="48.129" lon="6.87183">
        <ele>698.40002441406</ele>
        <time>2026-09-02T14:47:07.000Z</time>
      </trkpt>
      <trkpt lat="48.129" lon="6.87185">
        <ele>698.40002441406</ele>
        <time>2026-09-02T14:47:08.000Z</time>
      </trkpt>
      <trkpt lat="48.129" lon="6.87185">
        <ele>698.19995117188</ele>
        <time>2026-09-02T14:47:09.000Z</time>
      </trkpt>
      <trkpt lat="48.12901" lon="6.87185">
        <ele>698.19995117188</ele>
        <time>2026-09-02T14:47:10.000Z</time>
      </trkpt>
      <trkpt lat="48.12901" lon="6.87185">
        <ele>698</ele>
        <time>2026-09-02T14:47:11.000Z</time>
      </trkpt>
      <trkpt lat="48.12901" lon="6.87185">
        <ele>698</ele>
        <time>2026-09-02T14:47:12.000Z</time>
      </trkpt>
      <trkpt lat="48.12901" lon="6.87185">
        <ele>697.80004882812</ele>
        <time>2026-09-02T14:47:13.000Z</time>
      </trkpt>
      <trkpt lat="48.12901" lon="6.87185">
        <ele>697.80004882812</ele>
        <time>2026-09-02T14:47:14.000Z</time>
      </trkpt>
      <trkpt lat="48.12901" lon="6.87185">
        <ele>697.80004882812</ele>
        <time>2026-09-02T14:47:15.000Z</time>
      </trkpt>
      <trkpt lat="48.12901" lon="6.87185">
        <ele>697.80004882812</ele>
        <time>2026-09-02T14:47:16.000Z</time>
      </trkpt>
      <trkpt lat="48.12901" lon="6.87185">
        <ele>697.80004882812</ele>
        <time>2026-09-02T14:47:17.000Z</time>
      </trkpt>
      <trkpt lat="48.12901" lon="6.87185">
        <ele>697.80004882812</ele>
        <time>2026-09-02T14:47:18.000Z</time>
      </trkpt>
      <trkpt lat="48.12901" lon="6.87185">
        <ele>697.80004882812</ele>
        <time>2026-09-02T14:47:19.000Z</time>
      </trkpt>
      <trkpt lat="48.12901" lon="6.87185">
        <ele>697.59997558594</ele>
        <time>2026-09-02T14:47:20.000Z</time>
      </trkpt>
      <trkpt lat="48.12901" lon="6.87185">
        <ele>697.59997558594</ele>
        <time>2026-09-02T14:47:21.000Z</time>
      </trkpt>
      <trkpt lat="48.12901" lon="6.87185">
        <ele>697.59997558594</ele>
        <time>2026-09-02T14:47:22.000Z</time>
      </trkpt>
      <trkpt lat="48.12901" lon="6.87185">
        <ele>697.40002441406</ele>
        <time>2026-09-02T14:47:23.000Z</time>
      </trkpt>
      <trkpt lat="48.12901" lon="6.87185">
        <ele>697.40002441406</ele>
        <time>2026-09-02T14:47:24.000Z</time>
      </trkpt>
      <trkpt lat="48.12901" lon="6.87185">
        <ele>697.59997558594</ele>
        <time>2026-09-02T14:47:25.000Z</time>
      </trkpt>
      <trkpt lat="48.12901" lon="6.87185">
        <ele>697.59997558594</ele>
        <time>2026-09-02T14:47:26.000Z</time>
      </trkpt>
      <trkpt lat="48.12901" lon="6.87185">
        <ele>697.59997558594</ele>
        <time>2026-09-02T14:47:27.000Z</time>
      </trkpt>
      <trkpt lat="48.12901" lon="6.87185">
        <ele>697.80004882812</ele>
        <time>2026-09-02T14:47:28.000Z</time>
      </trkpt>
      <trkpt lat="48.12901" lon="6.87185">
        <ele>697.80004882812</ele>
        <time>2026-09-02T14:47:29.000Z</time>
      </trkpt>
      <trkpt lat="48.12901" lon="6.87185">
        <ele>697.80004882812</ele>
        <time>2026-09-02T14:47:30.000Z</time>
      </trkpt>
      <trkpt lat="48.12901" lon="6.87185">
        <ele>697.80004882812</ele>
        <time>2026-09-02T14:47:31.000Z</time>
      </trkpt>
      <trkpt lat="48.12901" lon="6.87185">
        <ele>697.59997558594</ele>
        <time>2026-09-02T14:47:32.000Z</time>
      </trkpt>
      <trkpt lat="48.12901" lon="6.87185">
        <ele>697.59997558594</ele>
        <time>2026-09-02T14:47:33.000Z</time>
      </trkpt>
      <trkpt lat="48.12901" lon="6.87185">
        <ele>697.59997558594</ele>
        <time>2026-09-02T14:47:34.000Z</time>
      </trkpt>
      <trkpt lat="48.12901" lon="6.87185">
        <ele>697.59997558594</ele>
        <time>2026-09-02T14:47:35.000Z</time>
      </trkpt>
      <trkpt lat="48.12901" lon="6.87185">
        <ele>697.80004882812</ele>
        <time>2026-09-02T14:47:36.000Z</time>
      </trkpt>
      <trkpt lat="48.12901" lon="6.87185">
        <ele>697.80004882812</ele>
        <time>2026-09-02T14:47:37.000Z</time>
      </trkpt>
      <trkpt lat="48.12901" lon="6.87185">
        <ele>697.80004882812</ele>
        <time>2026-09-02T14:47:38.000Z</time>
      </trkpt>
      <trkpt lat="48.12901" lon="6.87185">
        <ele>697.80004882812</ele>
        <time>2026-09-02T14:47:39.000Z</time>
      </trkpt>
      <trkpt lat="48.12901" lon="6.87185">
        <ele>697.80004882812</ele>
        <time>2026-09-02T14:47:40.000Z</time>
      </trkpt>
      <trkpt lat="48.12901" lon="6.87185">
        <ele>697.80004882812</ele>
        <time>2026-09-02T14:47:41.000Z</time>
      </trkpt>
      <trkpt lat="48.12901" lon="6.87185">
        <ele>697.80004882812</ele>
        <time>2026-09-02T14:47:42.000Z</time>
      </trkpt>
      <trkpt lat="48.12901" lon="6.87185">
        <ele>697.80004882812</ele>
        <time>2026-09-02T14:47:43.000Z</time>
      </trkpt>
      <trkpt lat="48.12901" lon="6.87185">
        <ele>697.80004882812</ele>
        <time>2026-09-02T14:47:44.000Z</time>
      </trkpt>
      <trkpt lat="48.12901" lon="6.87185">
        <ele>697.80004882812</ele>
        <time>2026-09-02T14:47:45.000Z</time>
      </trkpt>
      <trkpt lat="48.12901" lon="6.87185">
        <ele>697.80004882812</ele>
        <time>2026-09-02T14:47:46.000Z</time>
      </trkpt>
      <trkpt lat="48.12901" lon="6.87185">
        <ele>697.80004882812</ele>
        <time>2026-09-02T14:47:47.000Z</time>
      </trkpt>
      <trkpt lat="48.12901" lon="6.87185">
        <ele>697.80004882812</ele>
        <time>2026-09-02T14:47:48.000Z</time>
      </trkpt>
      <trkpt lat="48.12901" lon="6.87185">
        <ele>697.80004882812</ele>
        <time>2026-09-02T14:47:49.000Z</time>
      </trkpt>
      <trkpt lat="48.12901" lon="6.87185">
        <ele>698</ele>
        <time>2026-09-02T14:47:50.000Z</time>
      </trkpt>
      <trkpt lat="48.12901" lon="6.87185">
        <ele>698</ele>
        <time>2026-09-02T14:47:51.000Z</time>
      </trkpt>
      <trkpt lat="48.12901" lon="6.87185">
        <ele>698</ele>
        <time>2026-09-02T14:47:52.000Z</time>
      </trkpt>
      <trkpt lat="48.12901" lon="6.87185">
        <ele>698</ele>
        <time>2026-09-02T14:47:53.000Z</time>
      </trkpt>
      <trkpt lat="48.12901" lon="6.87185">
        <ele>698</ele>
        <time>2026-09-02T14:47:54.000Z</time>
      </trkpt>
      <trkpt lat="48.12901" lon="6.87185">
        <ele>698</ele>
        <time>2026-09-02T14:47:55.000Z</time>
      </trkpt>
      <trkpt lat="48.12901" lon="6.87185">
        <ele>698</ele>
        <time>2026-09-02T14:47:56.000Z</time>
      </trkpt>
      <trkpt lat="48.12901" lon="6.87185">
        <ele>698</ele>
        <time>2026-09-02T14:47:57.000Z</time>
      </trkpt>
      <trkpt lat="48.129" lon="6.87183">
        <ele>698</ele>
        <time>2026-09-02T14:47:58.000Z</time>
      </trkpt>
      <trkpt lat="48.129" lon="6.87183">
        <ele>698</ele>
        <time>2026-09-02T14:47:59.000Z</time>
      </trkpt>
      <trkpt lat="48.129" lon="6.87183">
        <ele>697.80004882812</ele>
        <time>2026-09-02T14:48:00.000Z</time>
      </trkpt>
      <trkpt lat="48.129" lon="6.87183">
        <ele>697.80004882812</ele>
        <time>2026-09-02T14:48:01.000Z</time>
      </trkpt>
      <trkpt lat="48.129" lon="6.87183">
        <ele>697.80004882812</ele>
        <time>2026-09-02T14:48:02.000Z</time>
      </trkpt>
      <trkpt lat="48.129" lon="6.87183">
        <ele>697.80004882812</ele>
        <time>2026-09-02T14:48:03.000Z</time>
      </trkpt>
      <trkpt lat="48.129" lon="6.87183">
        <ele>697.80004882812</ele>
        <time>2026-09-02T14:48:04.000Z</time>
      </trkpt>
      <trkpt lat="48.129" lon="6.87183">
        <ele>698</ele>
        <time>2026-09-02T14:48:05.000Z</time>
      </trkpt>
      <trkpt lat="48.129" lon="6.87183">
        <ele>698</ele>
        <time>2026-09-02T14:48:06.000Z</time>
      </trkpt>
      <trkpt lat="48.129" lon="6.87183">
        <ele>698</ele>
        <time>2026-09-02T14:48:07.000Z</time>
      </trkpt>
      <trkpt lat="48.129" lon="6.87183">
        <ele>698</ele>
        <time>2026-09-02T14:48:08.000Z</time>
      </trkpt>
      <trkpt lat="48.129" lon="6.87182">
        <ele>698</ele>
        <time>2026-09-02T14:48:09.000Z</time>
      </trkpt>
      <trkpt lat="48.129" lon="6.87179">
        <ele>698</ele>
        <time>2026-09-02T14:48:10.000Z</time>
      </trkpt>
      <trkpt lat="48.129" lon="6.87178">
        <ele>698</ele>
        <time>2026-09-02T14:48:11.000Z</time>
      </trkpt>
      <trkpt lat="48.129" lon="6.87177">
        <ele>698</ele>
        <time>2026-09-02T14:48:12.000Z</time>
      </trkpt>
      <trkpt lat="48.129" lon="6.87175">
        <ele>698</ele>
        <time>2026-09-02T14:48:13.000Z</time>
      </trkpt>
      <trkpt lat="48.129" lon="6.87174">
        <ele>698</ele>
        <time>2026-09-02T14:48:14.000Z</time>
      </trkpt>
      <trkpt lat="48.129" lon="6.87173">
        <ele>698</ele>
        <time>2026-09-02T14:48:15.000Z</time>
      </trkpt>
      <trkpt lat="48.129" lon="6.87171">
        <ele>698</ele>
        <time>2026-09-02T14:48:16.000Z</time>
      </trkpt>
      <trkpt lat="48.129" lon="6.87169">
        <ele>698.19995117188</ele>
        <time>2026-09-02T14:48:17.000Z</time>
      </trkpt>
      <trkpt lat="48.12899" lon="6.87168">
        <ele>698.19995117188</ele>
        <time>2026-09-02T14:48:18.000Z</time>
      </trkpt>
      <trkpt lat="48.12899" lon="6.87166">
        <ele>698.19995117188</ele>
        <time>2026-09-02T14:48:19.000Z</time>
      </trkpt>
      <trkpt lat="48.12899" lon="6.87165">
        <ele>698.19995117188</ele>
        <time>2026-09-02T14:48:20.000Z</time>
      </trkpt>
      <trkpt lat="48.12899" lon="6.87163">
        <ele>698.40002441406</ele>
        <time>2026-09-02T14:48:21.000Z</time>
      </trkpt>
      <trkpt lat="48.12899" lon="6.87161">
        <ele>698.40002441406</ele>
        <time>2026-09-02T14:48:22.000Z</time>
      </trkpt>
      <trkpt lat="48.12899" lon="6.8716">
        <ele>698.59997558594</ele>
        <time>2026-09-02T14:48:23.000Z</time>
      </trkpt>
      <trkpt lat="48.12899" lon="6.87159">
        <ele>698.59997558594</ele>
        <time>2026-09-02T14:48:24.000Z</time>
      </trkpt>
      <trkpt lat="48.12898" lon="6.87157">
        <ele>698.80004882812</ele>
        <time>2026-09-02T14:48:25.000Z</time>
      </trkpt>
      <trkpt lat="48.12899" lon="6.87155">
        <ele>698.80004882812</ele>
        <time>2026-09-02T14:48:26.000Z</time>
      </trkpt>
      <trkpt lat="48.12899" lon="6.87153">
        <ele>698.80004882812</ele>
        <time>2026-09-02T14:48:27.000Z</time>
      </trkpt>
      <trkpt lat="48.12899" lon="6.87151">
        <ele>698.80004882812</ele>
        <time>2026-09-02T14:48:28.000Z</time>
      </trkpt>
      <trkpt lat="48.12899" lon="6.87149">
        <ele>698.80004882812</ele>
        <time>2026-09-02T14:48:29.000Z</time>
      </trkpt>
      <trkpt lat="48.12899" lon="6.87148">
        <ele>699</ele>
        <time>2026-09-02T14:48:30.000Z</time>
      </trkpt>
      <trkpt lat="48.12899" lon="6.87147">
        <ele>699</ele>
        <time>2026-09-02T14:48:31.000Z</time>
      </trkpt>
      <trkpt lat="48.12899" lon="6.87146">
        <ele>699</ele>
        <time>2026-09-02T14:48:32.000Z</time>
      </trkpt>
      <trkpt lat="48.12899" lon="6.87144">
        <ele>699.19995117188</ele>
        <time>2026-09-02T14:48:33.000Z</time>
      </trkpt>
      <trkpt lat="48.12899" lon="6.87143">
        <ele>699.19995117188</ele>
        <time>2026-09-02T14:48:34.000Z</time>
      </trkpt>
      <trkpt lat="48.12899" lon="6.87141">
        <ele>699.19995117188</ele>
        <time>2026-09-02T14:48:35.000Z</time>
      </trkpt>
      <trkpt lat="48.12899" lon="6.8714">
        <ele>699.19995117188</ele>
        <time>2026-09-02T14:48:36.000Z</time>
      </trkpt>
      <trkpt lat="48.12899" lon="6.87138">
        <ele>699.19995117188</ele>
        <time>2026-09-02T14:48:37.000Z</time>
      </trkpt>
      <trkpt lat="48.12899" lon="6.87137">
        <ele>699.19995117188</ele>
        <time>2026-09-02T14:48:38.000Z</time>
      </trkpt>
      <trkpt lat="48.129" lon="6.87135">
        <ele>699.40002441406</ele>
        <time>2026-09-02T14:48:39.000Z</time>
      </trkpt>
      <trkpt lat="48.129" lon="6.87134">
        <ele>699.40002441406</ele>
        <time>2026-09-02T14:48:40.000Z</time>
      </trkpt>
      <trkpt lat="48.129" lon="6.87133">
        <ele>699.59997558594</ele>
        <time>2026-09-02T14:48:41.000Z</time>
      </trkpt>
      <trkpt lat="48.129" lon="6.87132">
        <ele>699.59997558594</ele>
        <time>2026-09-02T14:48:42.000Z</time>
      </trkpt>
      <trkpt lat="48.12901" lon="6.87131">
        <ele>699.80004882812</ele>
        <time>2026-09-02T14:48:43.000Z</time>
      </trkpt>
      <trkpt lat="48.12901" lon="6.87129">
        <ele>699.80004882812</ele>
        <time>2026-09-02T14:48:44.000Z</time>
      </trkpt>
      <trkpt lat="48.12901" lon="6.87128">
        <ele>700</ele>
        <time>2026-09-02T14:48:45.000Z</time>
      </trkpt>
      <trkpt lat="48.12901" lon="6.87126">
        <ele>700</ele>
        <time>2026-09-02T14:48:46.000Z</time>
      </trkpt>
      <trkpt lat="48.12901" lon="6.87125">
        <ele>700.19995117188</ele>
        <time>2026-09-02T14:48:47.000Z</time>
      </trkpt>
      <trkpt lat="48.12901" lon="6.87124">
        <ele>700</ele>
        <time>2026-09-02T14:48:48.000Z</time>
      </trkpt>
      <trkpt lat="48.12902" lon="6.87122">
        <ele>700</ele>
        <time>2026-09-02T14:48:49.000Z</time>
      </trkpt>
      <trkpt lat="48.12902" lon="6.87121">
        <ele>700</ele>
        <time>2026-09-02T14:48:50.000Z</time>
      </trkpt>
      <trkpt lat="48.12902" lon="6.8712">
        <ele>700</ele>
        <time>2026-09-02T14:48:51.000Z</time>
      </trkpt>
      <trkpt lat="48.12902" lon="6.87118">
        <ele>700</ele>
        <time>2026-09-02T14:48:52.000Z</time>
      </trkpt>
      <trkpt lat="48.12903" lon="6.87117">
        <ele>700.19995117188</ele>
        <time>2026-09-02T14:48:53.000Z</time>
      </trkpt>
      <trkpt lat="48.12903" lon="6.87116">
        <ele>700.19995117188</ele>
        <time>2026-09-02T14:48:54.000Z</time>
      </trkpt>
      <trkpt lat="48.12904" lon="6.87115">
        <ele>700.19995117188</ele>
        <time>2026-09-02T14:48:55.000Z</time>
      </trkpt>
      <trkpt lat="48.12904" lon="6.87114">
        <ele>700.40002441406</ele>
        <time>2026-09-02T14:48:56.000Z</time>
      </trkpt>
      <trkpt lat="48.12904" lon="6.87113">
        <ele>700.40002441406</ele>
        <time>2026-09-02T14:48:57.000Z</time>
      </trkpt>
      <trkpt lat="48.12904" lon="6.87111">
        <ele>700.40002441406</ele>
        <time>2026-09-02T14:48:58.000Z</time>
      </trkpt>
      <trkpt lat="48.12905" lon="6.8711">
        <ele>700.40002441406</ele>
        <time>2026-09-02T14:48:59.000Z</time>
      </trkpt>
      <trkpt lat="48.12905" lon="6.87109">
        <ele>700.59997558594</ele>
        <time>2026-09-02T14:49:00.000Z</time>
      </trkpt>
      <trkpt lat="48.12905" lon="6.87107">
        <ele>700.59997558594</ele>
        <time>2026-09-02T14:49:01.000Z</time>
      </trkpt>
      <trkpt lat="48.12906" lon="6.87106">
        <ele>700.80004882812</ele>
        <time>2026-09-02T14:49:02.000Z</time>
      </trkpt>
      <trkpt lat="48.12907" lon="6.87105">
        <ele>700.80004882812</ele>
        <time>2026-09-02T14:49:03.000Z</time>
      </trkpt>
      <trkpt lat="48.12907" lon="6.87104">
        <ele>700.80004882812</ele>
        <time>2026-09-02T14:49:04.000Z</time>
      </trkpt>
      <trkpt lat="48.12907" lon="6.87103">
        <ele>701</ele>
        <time>2026-09-02T14:49:05.000Z</time>
      </trkpt>
      <trkpt lat="48.12908" lon="6.87102">
        <ele>701</ele>
        <time>2026-09-02T14:49:06.000Z</time>
      </trkpt>
      <trkpt lat="48.12908" lon="6.871">
        <ele>701</ele>
        <time>2026-09-02T14:49:07.000Z</time>
      </trkpt>
      <trkpt lat="48.12909" lon="6.87099">
        <ele>701</ele>
        <time>2026-09-02T14:49:08.000Z</time>
      </trkpt>
      <trkpt lat="48.12909" lon="6.87098">
        <ele>701</ele>
        <time>2026-09-02T14:49:09.000Z</time>
      </trkpt>
      <trkpt lat="48.12909" lon="6.87097">
        <ele>701</ele>
        <time>2026-09-02T14:49:10.000Z</time>
      </trkpt>
      <trkpt lat="48.12909" lon="6.87096">
        <ele>701</ele>
        <time>2026-09-02T14:49:11.000Z</time>
      </trkpt>
      <trkpt lat="48.1291" lon="6.87095">
        <ele>701</ele>
        <time>2026-09-02T14:49:12.000Z</time>
      </trkpt>
      <trkpt lat="48.12911" lon="6.87094">
        <ele>701</ele>
        <time>2026-09-02T14:49:13.000Z</time>
      </trkpt>
      <trkpt lat="48.12911" lon="6.87093">
        <ele>701.19995117188</ele>
        <time>2026-09-02T14:49:14.000Z</time>
      </trkpt>
      <trkpt lat="48.12912" lon="6.87092">
        <ele>701.19995117188</ele>
        <time>2026-09-02T14:49:15.000Z</time>
      </trkpt>
      <trkpt lat="48.12912" lon="6.87091">
        <ele>701.19995117188</ele>
        <time>2026-09-02T14:49:16.000Z</time>
      </trkpt>
      <trkpt lat="48.12912" lon="6.8709">
        <ele>701.40002441406</ele>
        <time>2026-09-02T14:49:17.000Z</time>
      </trkpt>
      <trkpt lat="48.12912" lon="6.8709">
        <ele>701.40002441406</ele>
        <time>2026-09-02T14:49:18.000Z</time>
      </trkpt>
      <trkpt lat="48.12912" lon="6.8709">
        <ele>701.40002441406</ele>
        <time>2026-09-02T14:49:19.000Z</time>
      </trkpt>
      <trkpt lat="48.12912" lon="6.8709">
        <ele>701.40002441406</ele>
        <time>2026-09-02T14:49:20.000Z</time>
      </trkpt>
      <trkpt lat="48.12912" lon="6.8709">
        <ele>701.40002441406</ele>
        <time>2026-09-02T14:49:21.000Z</time>
      </trkpt>
      <trkpt lat="48.12913" lon="6.8709">
        <ele>701.40002441406</ele>
        <time>2026-09-02T14:49:22.000Z</time>
      </trkpt>
      <trkpt lat="48.12913" lon="6.87089">
        <ele>701.40002441406</ele>
        <time>2026-09-02T14:49:23.000Z</time>
      </trkpt>
      <trkpt lat="48.12912" lon="6.8709">
        <ele>701.59997558594</ele>
        <time>2026-09-02T14:49:24.000Z</time>
      </trkpt>
      <trkpt lat="48.12912" lon="6.8709">
        <ele>701.59997558594</ele>
        <time>2026-09-02T14:49:25.000Z</time>
      </trkpt>
      <trkpt lat="48.12912" lon="6.8709">
        <ele>701.59997558594</ele>
        <time>2026-09-02T14:49:26.000Z</time>
      </trkpt>
      <trkpt lat="48.12912" lon="6.8709">
        <ele>701.59997558594</ele>
        <time>2026-09-02T14:49:27.000Z</time>
      </trkpt>
      <trkpt lat="48.12912" lon="6.8709">
        <ele>701.59997558594</ele>
        <time>2026-09-02T14:49:28.000Z</time>
      </trkpt>
      <trkpt lat="48.12912" lon="6.8709">
        <ele>701.59997558594</ele>
        <time>2026-09-02T14:49:29.000Z</time>
      </trkpt>
      <trkpt lat="48.12913" lon="6.87089">
        <ele>701.40002441406</ele>
        <time>2026-09-02T14:49:30.000Z</time>
      </trkpt>
      <trkpt lat="48.12914" lon="6.87088">
        <ele>701.40002441406</ele>
        <time>2026-09-02T14:49:31.000Z</time>
      </trkpt>
      <trkpt lat="48.12914" lon="6.87087">
        <ele>701.40002441406</ele>
        <time>2026-09-02T14:49:32.000Z</time>
      </trkpt>
      <trkpt lat="48.12914" lon="6.87087">
        <ele>701.59997558594</ele>
        <time>2026-09-02T14:49:33.000Z</time>
      </trkpt>
      <trkpt lat="48.12914" lon="6.87087">
        <ele>701.59997558594</ele>
        <time>2026-09-02T14:49:34.000Z</time>
      </trkpt>
      <trkpt lat="48.12914" lon="6.87086">
        <ele>701.59997558594</ele>
        <time>2026-09-02T14:49:35.000Z</time>
      </trkpt>
      <trkpt lat="48.12914" lon="6.87086">
        <ele>701.59997558594</ele>
        <time>2026-09-02T14:49:36.000Z</time>
      </trkpt>
      <trkpt lat="48.12914" lon="6.87086">
        <ele>701.59997558594</ele>
        <time>2026-09-02T14:49:37.000Z</time>
      </trkpt>
      <trkpt lat="48.12914" lon="6.87086">
        <ele>701.59997558594</ele>
        <time>2026-09-02T14:49:38.000Z</time>
      </trkpt>
      <trkpt lat="48.12914" lon="6.87086">
        <ele>701.59997558594</ele>
        <time>2026-09-02T14:49:39.000Z</time>
      </trkpt>
      <trkpt lat="48.12914" lon="6.87086">
        <ele>701.40002441406</ele>
        <time>2026-09-02T14:49:40.000Z</time>
      </trkpt>
      <trkpt lat="48.12914" lon="6.87086">
        <ele>701.40002441406</ele>
        <time>2026-09-02T14:49:41.000Z</time>
      </trkpt>
      <trkpt lat="48.12914" lon="6.87086">
        <ele>701.40002441406</ele>
        <time>2026-09-02T14:49:42.000Z</time>
      </trkpt>
      <trkpt lat="48.12914" lon="6.87086">
        <ele>701.40002441406</ele>
        <time>2026-09-02T14:49:43.000Z</time>
      </trkpt>
      <trkpt lat="48.12914" lon="6.87086">
        <ele>701.40002441406</ele>
        <time>2026-09-02T14:49:44.000Z</time>
      </trkpt>
      <trkpt lat="48.12915" lon="6.87086">
        <ele>701.40002441406</ele>
        <time>2026-09-02T14:49:45.000Z</time>
      </trkpt>
      <trkpt lat="48.12915" lon="6.87085">
        <ele>701.59997558594</ele>
        <time>2026-09-02T14:49:46.000Z</time>
      </trkpt>
      <trkpt lat="48.12915" lon="6.87085">
        <ele>701.59997558594</ele>
        <time>2026-09-02T14:49:47.000Z</time>
      </trkpt>
      <trkpt lat="48.12915" lon="6.87085">
        <ele>701.59997558594</ele>
        <time>2026-09-02T14:49:48.000Z</time>
      </trkpt>
      <trkpt lat="48.12915" lon="6.87085">
        <ele>701.59997558594</ele>
        <time>2026-09-02T14:49:49.000Z</time>
      </trkpt>
      <trkpt lat="48.12916" lon="6.87084">
        <ele>701.80004882812</ele>
        <time>2026-09-02T14:49:50.000Z</time>
      </trkpt>
      <trkpt lat="48.12916" lon="6.87084">
        <ele>701.80004882812</ele>
        <time>2026-09-02T14:49:51.000Z</time>
      </trkpt>
      <trkpt lat="48.12916" lon="6.87084">
        <ele>701.80004882812</ele>
        <time>2026-09-02T14:49:52.000Z</time>
      </trkpt>
      <trkpt lat="48.12916" lon="6.87084">
        <ele>701.80004882812</ele>
        <time>2026-09-02T14:49:53.000Z</time>
      </trkpt>
      <trkpt lat="48.12915" lon="6.87084">
        <ele>701.80004882812</ele>
        <time>2026-09-02T14:49:54.000Z</time>
      </trkpt>
      <trkpt lat="48.12915" lon="6.87083">
        <ele>701.80004882812</ele>
        <time>2026-09-02T14:49:55.000Z</time>
      </trkpt>
      <trkpt lat="48.12916" lon="6.87081">
        <ele>701.80004882812</ele>
        <time>2026-09-02T14:49:56.000Z</time>
      </trkpt>
      <trkpt lat="48.12916" lon="6.8708">
        <ele>701.80004882812</ele>
        <time>2026-09-02T14:49:57.000Z</time>
      </trkpt>
      <trkpt lat="48.12917" lon="6.8708">
        <ele>701.80004882812</ele>
        <time>2026-09-02T14:49:58.000Z</time>
      </trkpt>
      <trkpt lat="48.12917" lon="6.87079">
        <ele>701.80004882812</ele>
        <time>2026-09-02T14:49:59.000Z</time>
      </trkpt>
      <trkpt lat="48.12918" lon="6.87078">
        <ele>701.80004882812</ele>
        <time>2026-09-02T14:50:00.000Z</time>
      </trkpt>
      <trkpt lat="48.12918" lon="6.87078">
        <ele>702</ele>
        <time>2026-09-02T14:50:01.000Z</time>
      </trkpt>
      <trkpt lat="48.12918" lon="6.87078">
        <ele>702</ele>
        <time>2026-09-02T14:50:02.000Z</time>
      </trkpt>
      <trkpt lat="48.12918" lon="6.87078">
        <ele>702.19995117188</ele>
        <time>2026-09-02T14:50:03.000Z</time>
      </trkpt>
      <trkpt lat="48.12918" lon="6.87078">
        <ele>702.19995117188</ele>
        <time>2026-09-02T14:50:04.000Z</time>
      </trkpt>
      <trkpt lat="48.12918" lon="6.87078">
        <ele>702.19995117188</ele>
        <time>2026-09-02T14:50:05.000Z</time>
      </trkpt>
      <trkpt lat="48.12918" lon="6.87078">
        <ele>702.19995117188</ele>
        <time>2026-09-02T14:50:06.000Z</time>
      </trkpt>
      <trkpt lat="48.12918" lon="6.87078">
        <ele>702.19995117188</ele>
        <time>2026-09-02T14:50:07.000Z</time>
      </trkpt>
      <trkpt lat="48.12918" lon="6.87078">
        <ele>702</ele>
        <time>2026-09-02T14:50:08.000Z</time>
      </trkpt>
      <trkpt lat="48.12918" lon="6.87078">
        <ele>702</ele>
        <time>2026-09-02T14:50:09.000Z</time>
      </trkpt>
      <trkpt lat="48.12918" lon="6.87078">
        <ele>702</ele>
        <time>2026-09-02T14:50:10.000Z</time>
      </trkpt>
      <trkpt lat="48.12918" lon="6.87078">
        <ele>702</ele>
        <time>2026-09-02T14:50:11.000Z</time>
      </trkpt>
      <trkpt lat="48.12918" lon="6.87078">
        <ele>702</ele>
        <time>2026-09-02T14:50:12.000Z</time>
      </trkpt>
      <trkpt lat="48.12918" lon="6.87078">
        <ele>702</ele>
        <time>2026-09-02T14:50:13.000Z</time>
      </trkpt>
      <trkpt lat="48.12918" lon="6.87078">
        <ele>702</ele>
        <time>2026-09-02T14:50:14.000Z</time>
      </trkpt>
      <trkpt lat="48.12918" lon="6.87078">
        <ele>702</ele>
        <time>2026-09-02T14:50:15.000Z</time>
      </trkpt>
      <trkpt lat="48.12918" lon="6.87078">
        <ele>702</ele>
        <time>2026-09-02T14:50:16.000Z</time>
      </trkpt>
      <trkpt lat="48.12918" lon="6.87078">
        <ele>702.19995117188</ele>
        <time>2026-09-02T14:50:17.000Z</time>
      </trkpt>
      <trkpt lat="48.12918" lon="6.87078">
        <ele>702.19995117188</ele>
        <time>2026-09-02T14:50:18.000Z</time>
      </trkpt>
      <trkpt lat="48.12918" lon="6.87078">
        <ele>702</ele>
        <time>2026-09-02T14:50:19.000Z</time>
      </trkpt>
      <trkpt lat="48.12918" lon="6.87078">
        <ele>702</ele>
        <time>2026-09-02T14:50:20.000Z</time>
      </trkpt>
      <trkpt lat="48.12918" lon="6.87078">
        <ele>702</ele>
        <time>2026-09-02T14:50:21.000Z</time>
      </trkpt>
      <trkpt lat="48.12918" lon="6.87078">
        <ele>702</ele>
        <time>2026-09-02T14:50:22.000Z</time>
      </trkpt>
      <trkpt lat="48.12918" lon="6.87078">
        <ele>702</ele>
        <time>2026-09-02T14:50:23.000Z</time>
      </trkpt>
      <trkpt lat="48.12918" lon="6.87078">
        <ele>702</ele>
        <time>2026-09-02T14:50:24.000Z</time>
      </trkpt>
      <trkpt lat="48.12918" lon="6.87078">
        <ele>702</ele>
        <time>2026-09-02T14:50:25.000Z</time>
      </trkpt>
      <trkpt lat="48.12918" lon="6.87078">
        <ele>702</ele>
        <time>2026-09-02T14:50:26.000Z</time>
      </trkpt>
      <trkpt lat="48.12918" lon="6.87078">
        <ele>702</ele>
        <time>2026-09-02T14:50:27.000Z</time>
      </trkpt>
      <trkpt lat="48.12918" lon="6.87078">
        <ele>702</ele>
        <time>2026-09-02T14:50:28.000Z</time>
      </trkpt>
      <trkpt lat="48.12918" lon="6.87078">
        <ele>702</ele>
        <time>2026-09-02T14:50:29.000Z</time>
      </trkpt>
      <trkpt lat="48.12918" lon="6.87078">
        <ele>702</ele>
        <time>2026-09-02T14:50:30.000Z</time>
      </trkpt>
      <trkpt lat="48.12918" lon="6.87078">
        <ele>702</ele>
        <time>2026-09-02T14:50:31.000Z</time>
      </trkpt>
      <trkpt lat="48.12918" lon="6.87078">
        <ele>702</ele>
        <time>2026-09-02T14:50:32.000Z</time>
      </trkpt>
      <trkpt lat="48.12918" lon="6.87078">
        <ele>702</ele>
        <time>2026-09-02T14:50:33.000Z</time>
      </trkpt>
      <trkpt lat="48.12918" lon="6.87078">
        <ele>702</ele>
        <time>2026-09-02T14:50:34.000Z</time>
      </trkpt>
      <trkpt lat="48.12918" lon="6.87078">
        <ele>702</ele>
        <time>2026-09-02T14:50:35.000Z</time>
      </trkpt>
      <trkpt lat="48.12918" lon="6.87078">
        <ele>702</ele>
        <time>2026-09-02T14:50:36.000Z</time>
      </trkpt>
      <trkpt lat="48.12918" lon="6.87078">
        <ele>702</ele>
        <time>2026-09-02T14:50:37.000Z</time>
      </trkpt>
      <trkpt lat="48.12918" lon="6.87078">
        <ele>702</ele>
        <time>2026-09-02T14:50:38.000Z</time>
      </trkpt>
      <trkpt lat="48.12918" lon="6.87078">
        <ele>702</ele>
        <time>2026-09-02T14:50:39.000Z</time>
      </trkpt>
      <trkpt lat="48.12918" lon="6.87078">
        <ele>701.80004882812</ele>
        <time>2026-09-02T14:50:40.000Z</time>
      </trkpt>
      <trkpt lat="48.12918" lon="6.87078">
        <ele>701.80004882812</ele>
        <time>2026-09-02T14:50:41.000Z</time>
      </trkpt>
      <trkpt lat="48.12918" lon="6.87078">
        <ele>701.80004882812</ele>
        <time>2026-09-02T14:50:42.000Z</time>
      </trkpt>
      <trkpt lat="48.12919" lon="6.87078">
        <ele>702</ele>
        <time>2026-09-02T14:50:43.000Z</time>
      </trkpt>
      <trkpt lat="48.12918" lon="6.87078">
        <ele>702</ele>
        <time>2026-09-02T14:50:44.000Z</time>
      </trkpt>
      <trkpt lat="48.12918" lon="6.87078">
        <ele>702.19995117188</ele>
        <time>2026-09-02T14:50:45.000Z</time>
      </trkpt>
      <trkpt lat="48.12918" lon="6.87078">
        <ele>702.19995117188</ele>
        <time>2026-09-02T14:50:46.000Z</time>
      </trkpt>
      <trkpt lat="48.12918" lon="6.87078">
        <ele>702.19995117188</ele>
        <time>2026-09-02T14:50:47.000Z</time>
      </trkpt>
      <trkpt lat="48.12918" lon="6.87078">
        <ele>702.19995117188</ele>
        <time>2026-09-02T14:50:48.000Z</time>
      </trkpt>
      <trkpt lat="48.12918" lon="6.87078">
        <ele>702</ele>
        <time>2026-09-02T14:50:49.000Z</time>
      </trkpt>
      <trkpt lat="48.12918" lon="6.87078">
        <ele>702</ele>
        <time>2026-09-02T14:50:50.000Z</time>
      </trkpt>
      <trkpt lat="48.12918" lon="6.87078">
        <ele>702</ele>
        <time>2026-09-02T14:50:51.000Z</time>
      </trkpt>
      <trkpt lat="48.12918" lon="6.87078">
        <ele>702</ele>
        <time>2026-09-02T14:50:52.000Z</time>
      </trkpt>
      <trkpt lat="48.12919" lon="6.87078">
        <ele>702</ele>
        <time>2026-09-02T14:50:53.000Z</time>
      </trkpt>
      <trkpt lat="48.12919" lon="6.87078">
        <ele>702</ele>
        <time>2026-09-02T14:50:54.000Z</time>
      </trkpt>
      <trkpt lat="48.12919" lon="6.87078">
        <ele>702</ele>
        <time>2026-09-02T14:50:55.000Z</time>
      </trkpt>
      <trkpt lat="48.12919" lon="6.87078">
        <ele>702</ele>
        <time>2026-09-02T14:50:56.000Z</time>
      </trkpt>
      <trkpt lat="48.12919" lon="6.87078">
        <ele>702</ele>
        <time>2026-09-02T14:50:57.000Z</time>
      </trkpt>
      <trkpt lat="48.12919" lon="6.87078">
        <ele>702</ele>
        <time>2026-09-02T14:50:58.000Z</time>
      </trkpt>
      <trkpt lat="48.1292" lon="6.87078">
        <ele>702</ele>
        <time>2026-09-02T14:50:59.000Z</time>
      </trkpt>
      <trkpt lat="48.12919" lon="6.87078">
        <ele>702</ele>
        <time>2026-09-02T14:51:00.000Z</time>
      </trkpt>
      <trkpt lat="48.12919" lon="6.87078">
        <ele>702</ele>
        <time>2026-09-02T14:51:01.000Z</time>
      </trkpt>
      <trkpt lat="48.12919" lon="6.87078">
        <ele>702</ele>
        <time>2026-09-02T14:51:02.000Z</time>
      </trkpt>
      <trkpt lat="48.12919" lon="6.87078">
        <ele>702</ele>
        <time>2026-09-02T14:51:03.000Z</time>
      </trkpt>
      <trkpt lat="48.12919" lon="6.87078">
        <ele>702</ele>
        <time>2026-09-02T14:51:04.000Z</time>
      </trkpt>
      <trkpt lat="48.12919" lon="6.87078">
        <ele>702.19995117188</ele>
        <time>2026-09-02T14:51:05.000Z</time>
      </trkpt>
      <trkpt lat="48.12919" lon="6.87078">
        <ele>702.19995117188</ele>
        <time>2026-09-02T14:51:06.000Z</time>
      </trkpt>
      <trkpt lat="48.12919" lon="6.87078">
        <ele>702.40002441406</ele>
        <time>2026-09-02T14:51:07.000Z</time>
      </trkpt>
      <trkpt lat="48.12919" lon="6.87078">
        <ele>702.40002441406</ele>
        <time>2026-09-02T14:51:08.000Z</time>
      </trkpt>
      <trkpt lat="48.12919" lon="6.87078">
        <ele>702.59997558594</ele>
        <time>2026-09-02T14:51:09.000Z</time>
      </trkpt>
      <trkpt lat="48.12919" lon="6.87078">
        <ele>702.40002441406</ele>
        <time>2026-09-02T14:51:10.000Z</time>
      </trkpt>
      <trkpt lat="48.12919" lon="6.87078">
        <ele>702.19995117188</ele>
        <time>2026-09-02T14:51:11.000Z</time>
      </trkpt>
      <trkpt lat="48.12919" lon="6.87078">
        <ele>702</ele>
        <time>2026-09-02T14:51:12.000Z</time>
      </trkpt>
      <trkpt lat="48.12919" lon="6.87078">
        <ele>702</ele>
        <time>2026-09-02T14:51:13.000Z</time>
      </trkpt>
      <trkpt lat="48.12919" lon="6.87078">
        <ele>701.80004882812</ele>
        <time>2026-09-02T14:51:14.000Z</time>
      </trkpt>
      <trkpt lat="48.12919" lon="6.87078">
        <ele>701.80004882812</ele>
        <time>2026-09-02T14:51:15.000Z</time>
      </trkpt>
      <trkpt lat="48.12919" lon="6.87078">
        <ele>701.80004882812</ele>
        <time>2026-09-02T14:51:16.000Z</time>
      </trkpt>
      <trkpt lat="48.12918" lon="6.87078">
        <ele>701.80004882812</ele>
        <time>2026-09-02T14:51:17.000Z</time>
      </trkpt>
      <trkpt lat="48.12918" lon="6.87078">
        <ele>701.80004882812</ele>
        <time>2026-09-02T14:51:18.000Z</time>
      </trkpt>
      <trkpt lat="48.12919" lon="6.87078">
        <ele>702</ele>
        <time>2026-09-02T14:51:19.000Z</time>
      </trkpt>
      <trkpt lat="48.12919" lon="6.87078">
        <ele>702.19995117188</ele>
        <time>2026-09-02T14:51:20.000Z</time>
      </trkpt>
      <trkpt lat="48.12919" lon="6.87078">
        <ele>702.40002441406</ele>
        <time>2026-09-02T14:51:21.000Z</time>
      </trkpt>
      <trkpt lat="48.12919" lon="6.87078">
        <ele>702.40002441406</ele>
        <time>2026-09-02T14:51:22.000Z</time>
      </trkpt>
      <trkpt lat="48.12919" lon="6.87078">
        <ele>702.40002441406</ele>
        <time>2026-09-02T14:51:23.000Z</time>
      </trkpt>
      <trkpt lat="48.12919" lon="6.87078">
        <ele>702.40002441406</ele>
        <time>2026-09-02T14:51:24.000Z</time>
      </trkpt>
      <trkpt lat="48.12919" lon="6.87078">
        <ele>702.40002441406</ele>
        <time>2026-09-02T14:51:25.000Z</time>
      </trkpt>
      <trkpt lat="48.12919" lon="6.87078">
        <ele>702.40002441406</ele>
        <time>2026-09-02T14:51:26.000Z</time>
      </trkpt>
      <trkpt lat="48.12919" lon="6.87078">
        <ele>702.19995117188</ele>
        <time>2026-09-02T14:51:27.000Z</time>
      </trkpt>
      <trkpt lat="48.12919" lon="6.87078">
        <ele>702.19995117188</ele>
        <time>2026-09-02T14:51:28.000Z</time>
      </trkpt>
      <trkpt lat="48.12919" lon="6.87078">
        <ele>702.19995117188</ele>
        <time>2026-09-02T14:51:29.000Z</time>
      </trkpt>
      <trkpt lat="48.12919" lon="6.87078">
        <ele>702.19995117188</ele>
        <time>2026-09-02T14:51:30.000Z</time>
      </trkpt>
      <trkpt lat="48.12919" lon="6.87078">
        <ele>702</ele>
        <time>2026-09-02T14:51:31.000Z</time>
      </trkpt>
      <trkpt lat="48.12919" lon="6.87078">
        <ele>702.19995117188</ele>
        <time>2026-09-02T14:51:32.000Z</time>
      </trkpt>
      <trkpt lat="48.1292" lon="6.87078">
        <ele>702.19995117188</ele>
        <time>2026-09-02T14:51:33.000Z</time>
      </trkpt>
      <trkpt lat="48.1292" lon="6.87078">
        <ele>702.19995117188</ele>
        <time>2026-09-02T14:51:34.000Z</time>
      </trkpt>
      <trkpt lat="48.1292" lon="6.87078">
        <ele>702.40002441406</ele>
        <time>2026-09-02T14:51:35.000Z</time>
      </trkpt>
      <trkpt lat="48.12921" lon="6.87078">
        <ele>702.59997558594</ele>
        <time>2026-09-02T14:51:36.000Z</time>
      </trkpt>
      <trkpt lat="48.12922" lon="6.87077">
        <ele>702.59997558594</ele>
        <time>2026-09-02T14:51:37.000Z</time>
      </trkpt>
      <trkpt lat="48.12922" lon="6.87076">
        <ele>702.80004882812</ele>
        <time>2026-09-02T14:51:38.000Z</time>
      </trkpt>
      <trkpt lat="48.12923" lon="6.87075">
        <ele>702.59997558594</ele>
        <time>2026-09-02T14:51:39.000Z</time>
      </trkpt>
      <trkpt lat="48.12923" lon="6.87074">
        <ele>702.59997558594</ele>
        <time>2026-09-02T14:51:40.000Z</time>
      </trkpt>
      <trkpt lat="48.12924" lon="6.87073">
        <ele>702.40002441406</ele>
        <time>2026-09-02T14:51:41.000Z</time>
      </trkpt>
      <trkpt lat="48.12925" lon="6.87071">
        <ele>702.40002441406</ele>
        <time>2026-09-02T14:51:42.000Z</time>
      </trkpt>
      <trkpt lat="48.12926" lon="6.8707">
        <ele>702.19995117188</ele>
        <time>2026-09-02T14:51:43.000Z</time>
      </trkpt>
      <trkpt lat="48.12927" lon="6.87068">
        <ele>702.19995117188</ele>
        <time>2026-09-02T14:51:44.000Z</time>
      </trkpt>
      <trkpt lat="48.12928" lon="6.87066">
        <ele>702.19995117188</ele>
        <time>2026-09-02T14:51:45.000Z</time>
      </trkpt>
      <trkpt lat="48.12929" lon="6.87065">
        <ele>702</ele>
        <time>2026-09-02T14:51:46.000Z</time>
      </trkpt>
      <trkpt lat="48.1293" lon="6.87064">
        <ele>702</ele>
        <time>2026-09-02T14:51:47.000Z</time>
      </trkpt>
      <trkpt lat="48.12932" lon="6.87062">
        <ele>702</ele>
        <time>2026-09-02T14:51:48.000Z</time>
      </trkpt>
      <trkpt lat="48.12933" lon="6.87061">
        <ele>702</ele>
        <time>2026-09-02T14:51:49.000Z</time>
      </trkpt>
      <trkpt lat="48.12933" lon="6.87059">
        <ele>701.80004882812</ele>
        <time>2026-09-02T14:51:50.000Z</time>
      </trkpt>
      <trkpt lat="48.12934" lon="6.87058">
        <ele>702</ele>
        <time>2026-09-02T14:51:51.000Z</time>
      </trkpt>
      <trkpt lat="48.12935" lon="6.87056">
        <ele>702</ele>
        <time>2026-09-02T14:51:52.000Z</time>
      </trkpt>
      <trkpt lat="48.12936" lon="6.87055">
        <ele>702</ele>
        <time>2026-09-02T14:51:53.000Z</time>
      </trkpt>
      <trkpt lat="48.12937" lon="6.87054">
        <ele>702</ele>
        <time>2026-09-02T14:51:54.000Z</time>
      </trkpt>
      <trkpt lat="48.12939" lon="6.87053">
        <ele>701.80004882812</ele>
        <time>2026-09-02T14:51:55.000Z</time>
      </trkpt>
      <trkpt lat="48.12939" lon="6.87051">
        <ele>701.80004882812</ele>
        <time>2026-09-02T14:51:56.000Z</time>
      </trkpt>
      <trkpt lat="48.1294" lon="6.87049">
        <ele>701.59997558594</ele>
        <time>2026-09-02T14:51:57.000Z</time>
      </trkpt>
      <trkpt lat="48.12941" lon="6.87047">
        <ele>701.59997558594</ele>
        <time>2026-09-02T14:51:58.000Z</time>
      </trkpt>
      <trkpt lat="48.12942" lon="6.87045">
        <ele>701.59997558594</ele>
        <time>2026-09-02T14:51:59.000Z</time>
      </trkpt>
      <trkpt lat="48.12942" lon="6.87043">
        <ele>701.59997558594</ele>
        <time>2026-09-02T14:52:00.000Z</time>
      </trkpt>
      <trkpt lat="48.12943" lon="6.87042">
        <ele>701.59997558594</ele>
        <time>2026-09-02T14:52:01.000Z</time>
      </trkpt>
      <trkpt lat="48.12944" lon="6.8704">
        <ele>701.40002441406</ele>
        <time>2026-09-02T14:52:02.000Z</time>
      </trkpt>
      <trkpt lat="48.12944" lon="6.87038">
        <ele>701.40002441406</ele>
        <time>2026-09-02T14:52:03.000Z</time>
      </trkpt>
      <trkpt lat="48.12945" lon="6.87037">
        <ele>701.40002441406</ele>
        <time>2026-09-02T14:52:04.000Z</time>
      </trkpt>
      <trkpt lat="48.12946" lon="6.87035">
        <ele>701.40002441406</ele>
        <time>2026-09-02T14:52:05.000Z</time>
      </trkpt>
      <trkpt lat="48.12947" lon="6.87034">
        <ele>701.40002441406</ele>
        <time>2026-09-02T14:52:06.000Z</time>
      </trkpt>
      <trkpt lat="48.12948" lon="6.87032">
        <ele>701.19995117188</ele>
        <time>2026-09-02T14:52:07.000Z</time>
      </trkpt>
      <trkpt lat="48.12949" lon="6.8703">
        <ele>701.19995117188</ele>
        <time>2026-09-02T14:52:08.000Z</time>
      </trkpt>
      <trkpt lat="48.1295" lon="6.87028">
        <ele>701.19995117188</ele>
        <time>2026-09-02T14:52:09.000Z</time>
      </trkpt>
      <trkpt lat="48.12951" lon="6.87026">
        <ele>701.19995117188</ele>
        <time>2026-09-02T14:52:10.000Z</time>
      </trkpt>
      <trkpt lat="48.12953" lon="6.87025">
        <ele>701</ele>
        <time>2026-09-02T14:52:11.000Z</time>
      </trkpt>
      <trkpt lat="48.12953" lon="6.87023">
        <ele>700.80004882812</ele>
        <time>2026-09-02T14:52:12.000Z</time>
      </trkpt>
      <trkpt lat="48.12955" lon="6.87021">
        <ele>700.80004882812</ele>
        <time>2026-09-02T14:52:13.000Z</time>
      </trkpt>
      <trkpt lat="48.12956" lon="6.8702">
        <ele>700.59997558594</ele>
        <time>2026-09-02T14:52:14.000Z</time>
      </trkpt>
      <trkpt lat="48.12957" lon="6.87019">
        <ele>700.40002441406</ele>
        <time>2026-09-02T14:52:15.000Z</time>
      </trkpt>
      <trkpt lat="48.12958" lon="6.87017">
        <ele>700.40002441406</ele>
        <time>2026-09-02T14:52:16.000Z</time>
      </trkpt>
      <trkpt lat="48.12959" lon="6.87016">
        <ele>700.40002441406</ele>
        <time>2026-09-02T14:52:17.000Z</time>
      </trkpt>
      <trkpt lat="48.1296" lon="6.87015">
        <ele>700.40002441406</ele>
        <time>2026-09-02T14:52:18.000Z</time>
      </trkpt>
      <trkpt lat="48.12961" lon="6.87013">
        <ele>700.40002441406</ele>
        <time>2026-09-02T14:52:19.000Z</time>
      </trkpt>
      <trkpt lat="48.12962" lon="6.87012">
        <ele>700.40002441406</ele>
        <time>2026-09-02T14:52:20.000Z</time>
      </trkpt>
      <trkpt lat="48.12962" lon="6.87012">
        <ele>700.40002441406</ele>
        <time>2026-09-02T14:52:21.000Z</time>
      </trkpt>
      <trkpt lat="48.12963" lon="6.8701">
        <ele>700.19995117188</ele>
        <time>2026-09-02T14:52:22.000Z</time>
      </trkpt>
      <trkpt lat="48.12964" lon="6.87008">
        <ele>700.19995117188</ele>
        <time>2026-09-02T14:52:23.000Z</time>
      </trkpt>
      <trkpt lat="48.12966" lon="6.87007">
        <ele>700.19995117188</ele>
        <time>2026-09-02T14:52:24.000Z</time>
      </trkpt>
      <trkpt lat="48.12967" lon="6.87005">
        <ele>700.19995117188</ele>
        <time>2026-09-02T14:52:25.000Z</time>
      </trkpt>
      <trkpt lat="48.12968" lon="6.87004">
        <ele>700.19995117188</ele>
        <time>2026-09-02T14:52:26.000Z</time>
      </trkpt>
      <trkpt lat="48.12969" lon="6.87003">
        <ele>700.19995117188</ele>
        <time>2026-09-02T14:52:27.000Z</time>
      </trkpt>
      <trkpt lat="48.1297" lon="6.87002">
        <ele>700.19995117188</ele>
        <time>2026-09-02T14:52:28.000Z</time>
      </trkpt>
      <trkpt lat="48.1297" lon="6.87001">
        <ele>700</ele>
        <time>2026-09-02T14:52:29.000Z</time>
      </trkpt>
      <trkpt lat="48.12971" lon="6.87">
        <ele>700</ele>
        <time>2026-09-02T14:52:30.000Z</time>
      </trkpt>
      <trkpt lat="48.12973" lon="6.87">
        <ele>700</ele>
        <time>2026-09-02T14:52:31.000Z</time>
      </trkpt>
      <trkpt lat="48.12973" lon="6.86999">
        <ele>699.80004882812</ele>
        <time>2026-09-02T14:52:32.000Z</time>
      </trkpt>
      <trkpt lat="48.12974" lon="6.86998">
        <ele>699.59997558594</ele>
        <time>2026-09-02T14:52:33.000Z</time>
      </trkpt>
      <trkpt lat="48.12974" lon="6.86997">
        <ele>699.40002441406</ele>
        <time>2026-09-02T14:52:34.000Z</time>
      </trkpt>
      <trkpt lat="48.12974" lon="6.86996">
        <ele>699.40002441406</ele>
        <time>2026-09-02T14:52:35.000Z</time>
      </trkpt>
      <trkpt lat="48.12974" lon="6.86995">
        <ele>699.19995117188</ele>
        <time>2026-09-02T14:52:36.000Z</time>
      </trkpt>
      <trkpt lat="48.12975" lon="6.86994">
        <ele>699.19995117188</ele>
        <time>2026-09-02T14:52:37.000Z</time>
      </trkpt>
      <trkpt lat="48.12976" lon="6.86993">
        <ele>699.40002441406</ele>
        <time>2026-09-02T14:52:38.000Z</time>
      </trkpt>
      <trkpt lat="48.12976" lon="6.86993">
        <ele>699.40002441406</ele>
        <time>2026-09-02T14:52:39.000Z</time>
      </trkpt>
      <trkpt lat="48.12977" lon="6.86993">
        <ele>699.40002441406</ele>
        <time>2026-09-02T14:52:40.000Z</time>
      </trkpt>
      <trkpt lat="48.12977" lon="6.86993">
        <ele>699.40002441406</ele>
        <time>2026-09-02T14:52:41.000Z</time>
      </trkpt>
      <trkpt lat="48.12977" lon="6.86993">
        <ele>699.40002441406</ele>
        <time>2026-09-02T14:52:42.000Z</time>
      </trkpt>
      <trkpt lat="48.12977" lon="6.86993">
        <ele>699.19995117188</ele>
        <time>2026-09-02T14:52:43.000Z</time>
      </trkpt>
      <trkpt lat="48.12977" lon="6.86993">
        <ele>699.19995117188</ele>
        <time>2026-09-02T14:52:44.000Z</time>
      </trkpt>
      <trkpt lat="48.12977" lon="6.86993">
        <ele>699.19995117188</ele>
        <time>2026-09-02T14:52:45.000Z</time>
      </trkpt>
      <trkpt lat="48.12977" lon="6.86993">
        <ele>699.19995117188</ele>
        <time>2026-09-02T14:52:46.000Z</time>
      </trkpt>
      <trkpt lat="48.12977" lon="6.86993">
        <ele>699.19995117188</ele>
        <time>2026-09-02T14:52:47.000Z</time>
      </trkpt>
      <trkpt lat="48.12977" lon="6.86993">
        <ele>699.19995117188</ele>
        <time>2026-09-02T14:52:48.000Z</time>
      </trkpt>
      <trkpt lat="48.12977" lon="6.86992">
        <ele>699.40002441406</ele>
        <time>2026-09-02T14:52:49.000Z</time>
      </trkpt>
      <trkpt lat="48.12978" lon="6.86992">
        <ele>699.40002441406</ele>
        <time>2026-09-02T14:52:50.000Z</time>
      </trkpt>
      <trkpt lat="48.12979" lon="6.86992">
        <ele>699.40002441406</ele>
        <time>2026-09-02T14:52:51.000Z</time>
      </trkpt>
      <trkpt lat="48.12979" lon="6.86993">
        <ele>699.40002441406</ele>
        <time>2026-09-02T14:52:52.000Z</time>
      </trkpt>
      <trkpt lat="48.1298" lon="6.86993">
        <ele>699.19995117188</ele>
        <time>2026-09-02T14:52:53.000Z</time>
      </trkpt>
      <trkpt lat="48.1298" lon="6.86994">
        <ele>699.19995117188</ele>
        <time>2026-09-02T14:52:54.000Z</time>
      </trkpt>
      <trkpt lat="48.1298" lon="6.86994">
        <ele>699</ele>
        <time>2026-09-02T14:52:55.000Z</time>
      </trkpt>
      <trkpt lat="48.1298" lon="6.86994">
        <ele>698.80004882812</ele>
        <time>2026-09-02T14:52:56.000Z</time>
      </trkpt>
      <trkpt lat="48.1298" lon="6.86994">
        <ele>698.80004882812</ele>
        <time>2026-09-02T14:52:57.000Z</time>
      </trkpt>
      <trkpt lat="48.1298" lon="6.86994">
        <ele>698.59997558594</ele>
        <time>2026-09-02T14:52:58.000Z</time>
      </trkpt>
      <trkpt lat="48.1298" lon="6.86994">
        <ele>698.40002441406</ele>
        <time>2026-09-02T14:52:59.000Z</time>
      </trkpt>
      <trkpt lat="48.1298" lon="6.86994">
        <ele>698.40002441406</ele>
        <time>2026-09-02T14:53:00.000Z</time>
      </trkpt>
      <trkpt lat="48.1298" lon="6.86994">
        <ele>698.40002441406</ele>
        <time>2026-09-02T14:53:01.000Z</time>
      </trkpt>
      <trkpt lat="48.1298" lon="6.86994">
        <ele>698.40002441406</ele>
        <time>2026-09-02T14:53:02.000Z</time>
      </trkpt>
      <trkpt lat="48.1298" lon="6.86994">
        <ele>698.59997558594</ele>
        <time>2026-09-02T14:53:03.000Z</time>
      </trkpt>
      <trkpt lat="48.1298" lon="6.86994">
        <ele>699</ele>
        <time>2026-09-02T14:53:04.000Z</time>
      </trkpt>
      <trkpt lat="48.1298" lon="6.86994">
        <ele>699.19995117188</ele>
        <time>2026-09-02T14:53:05.000Z</time>
      </trkpt>
      <trkpt lat="48.1298" lon="6.86994">
        <ele>699.40002441406</ele>
        <time>2026-09-02T14:53:06.000Z</time>
      </trkpt>
      <trkpt lat="48.1298" lon="6.86994">
        <ele>699.40002441406</ele>
        <time>2026-09-02T14:53:07.000Z</time>
      </trkpt>
      <trkpt lat="48.1298" lon="6.86994">
        <ele>699.40002441406</ele>
        <time>2026-09-02T14:53:08.000Z</time>
      </trkpt>
      <trkpt lat="48.1298" lon="6.86994">
        <ele>699.19995117188</ele>
        <time>2026-09-02T14:53:09.000Z</time>
      </trkpt>
      <trkpt lat="48.1298" lon="6.86994">
        <ele>699.19995117188</ele>
        <time>2026-09-02T14:53:10.000Z</time>
      </trkpt>
      <trkpt lat="48.1298" lon="6.86994">
        <ele>699.19995117188</ele>
        <time>2026-09-02T14:53:11.000Z</time>
      </trkpt>
      <trkpt lat="48.1298" lon="6.86994">
        <ele>699.19995117188</ele>
        <time>2026-09-02T14:53:12.000Z</time>
      </trkpt>
      <trkpt lat="48.1298" lon="6.86994">
        <ele>699.19995117188</ele>
        <time>2026-09-02T14:53:13.000Z</time>
      </trkpt>
      <trkpt lat="48.1298" lon="6.86994">
        <ele>699.19995117188</ele>
        <time>2026-09-02T14:53:14.000Z</time>
      </trkpt>
      <trkpt lat="48.1298" lon="6.86994">
        <ele>699.40002441406</ele>
        <time>2026-09-02T14:53:15.000Z</time>
      </trkpt>
      <trkpt lat="48.1298" lon="6.86994">
        <ele>699.40002441406</ele>
        <time>2026-09-02T14:53:16.000Z</time>
      </trkpt>
      <trkpt lat="48.1298" lon="6.86994">
        <ele>699.40002441406</ele>
        <time>2026-09-02T14:53:17.000Z</time>
      </trkpt>
      <trkpt lat="48.1298" lon="6.86994">
        <ele>699.40002441406</ele>
        <time>2026-09-02T14:53:18.000Z</time>
      </trkpt>
      <trkpt lat="48.1298" lon="6.86994">
        <ele>699.40002441406</ele>
        <time>2026-09-02T14:53:19.000Z</time>
      </trkpt>
      <trkpt lat="48.1298" lon="6.86994">
        <ele>699.40002441406</ele>
        <time>2026-09-02T14:53:20.000Z</time>
      </trkpt>
      <trkpt lat="48.1298" lon="6.86994">
        <ele>699.40002441406</ele>
        <time>2026-09-02T14:53:21.000Z</time>
      </trkpt>
      <trkpt lat="48.1298" lon="6.86994">
        <ele>699.19995117188</ele>
        <time>2026-09-02T14:53:22.000Z</time>
      </trkpt>
      <trkpt lat="48.1298" lon="6.86994">
        <ele>699.19995117188</ele>
        <time>2026-09-02T14:53:23.000Z</time>
      </trkpt>
      <trkpt lat="48.1298" lon="6.86994">
        <ele>699.19995117188</ele>
        <time>2026-09-02T14:53:24.000Z</time>
      </trkpt>
      <trkpt lat="48.12979" lon="6.86993">
        <ele>699.19995117188</ele>
        <time>2026-09-02T14:53:25.000Z</time>
      </trkpt>
      <trkpt lat="48.12979" lon="6.86993">
        <ele>699.19995117188</ele>
        <time>2026-09-02T14:53:26.000Z</time>
      </trkpt>
      <trkpt lat="48.1298" lon="6.86994">
        <ele>699.19995117188</ele>
        <time>2026-09-02T14:53:27.000Z</time>
      </trkpt>
      <trkpt lat="48.1298" lon="6.86994">
        <ele>699</ele>
        <time>2026-09-02T14:53:28.000Z</time>
      </trkpt>
      <trkpt lat="48.1298" lon="6.86994">
        <ele>698.80004882812</ele>
        <time>2026-09-02T14:53:29.000Z</time>
      </trkpt>
      <trkpt lat="48.1298" lon="6.86994">
        <ele>698.80004882812</ele>
        <time>2026-09-02T14:53:30.000Z</time>
      </trkpt>
      <trkpt lat="48.1298" lon="6.86994">
        <ele>698.80004882812</ele>
        <time>2026-09-02T14:53:31.000Z</time>
      </trkpt>
      <trkpt lat="48.1298" lon="6.86994">
        <ele>698.80004882812</ele>
        <time>2026-09-02T14:53:32.000Z</time>
      </trkpt>
      <trkpt lat="48.1298" lon="6.86993">
        <ele>698.59997558594</ele>
        <time>2026-09-02T14:53:33.000Z</time>
      </trkpt>
      <trkpt lat="48.1298" lon="6.86994">
        <ele>698.59997558594</ele>
        <time>2026-09-02T14:53:34.000Z</time>
      </trkpt>
      <trkpt lat="48.1298" lon="6.86994">
        <ele>698.59997558594</ele>
        <time>2026-09-02T14:53:35.000Z</time>
      </trkpt>
      <trkpt lat="48.1298" lon="6.86994">
        <ele>698.59997558594</ele>
        <time>2026-09-02T14:53:36.000Z</time>
      </trkpt>
      <trkpt lat="48.1298" lon="6.86994">
        <ele>698.40002441406</ele>
        <time>2026-09-02T14:53:37.000Z</time>
      </trkpt>
      <trkpt lat="48.1298" lon="6.86994">
        <ele>698.40002441406</ele>
        <time>2026-09-02T14:53:38.000Z</time>
      </trkpt>
      <trkpt lat="48.1298" lon="6.86994">
        <ele>698.40002441406</ele>
        <time>2026-09-02T14:53:39.000Z</time>
      </trkpt>
      <trkpt lat="48.1298" lon="6.86994">
        <ele>698.40002441406</ele>
        <time>2026-09-02T14:53:40.000Z</time>
      </trkpt>
      <trkpt lat="48.1298" lon="6.86994">
        <ele>698.40002441406</ele>
        <time>2026-09-02T14:53:41.000Z</time>
      </trkpt>
      <trkpt lat="48.1298" lon="6.86994">
        <ele>698.40002441406</ele>
        <time>2026-09-02T14:53:42.000Z</time>
      </trkpt>
      <trkpt lat="48.1298" lon="6.86994">
        <ele>698.40002441406</ele>
        <time>2026-09-02T14:53:43.000Z</time>
      </trkpt>
      <trkpt lat="48.1298" lon="6.86994">
        <ele>698.40002441406</ele>
        <time>2026-09-02T14:53:44.000Z</time>
      </trkpt>
      <trkpt lat="48.1298" lon="6.86994">
        <ele>698.40002441406</ele>
        <time>2026-09-02T14:53:45.000Z</time>
      </trkpt>
      <trkpt lat="48.1298" lon="6.86994">
        <ele>698.40002441406</ele>
        <time>2026-09-02T14:53:46.000Z</time>
      </trkpt>
      <trkpt lat="48.1298" lon="6.86994">
        <ele>698.40002441406</ele>
        <time>2026-09-02T14:53:47.000Z</time>
      </trkpt>
      <trkpt lat="48.1298" lon="6.86994">
        <ele>698.40002441406</ele>
        <time>2026-09-02T14:53:48.000Z</time>
      </trkpt>
      <trkpt lat="48.1298" lon="6.86994">
        <ele>698.40002441406</ele>
        <time>2026-09-02T14:53:49.000Z</time>
      </trkpt>
      <trkpt lat="48.1298" lon="6.86994">
        <ele>698.40002441406</ele>
        <time>2026-09-02T14:53:50.000Z</time>
      </trkpt>
      <trkpt lat="48.1298" lon="6.86994">
        <ele>698.40002441406</ele>
        <time>2026-09-02T14:53:51.000Z</time>
      </trkpt>
      <trkpt lat="48.1298" lon="6.86994">
        <ele>698.59997558594</ele>
        <time>2026-09-02T14:53:52.000Z</time>
      </trkpt>
      <trkpt lat="48.1298" lon="6.86994">
        <ele>698.59997558594</ele>
        <time>2026-09-02T14:53:53.000Z</time>
      </trkpt>
      <trkpt lat="48.1298" lon="6.86994">
        <ele>698.59997558594</ele>
        <time>2026-09-02T14:53:54.000Z</time>
      </trkpt>
      <trkpt lat="48.1298" lon="6.86994">
        <ele>698.59997558594</ele>
        <time>2026-09-02T14:53:55.000Z</time>
      </trkpt>
      <trkpt lat="48.1298" lon="6.86994">
        <ele>698.59997558594</ele>
        <time>2026-09-02T14:53:56.000Z</time>
      </trkpt>
      <trkpt lat="48.1298" lon="6.86994">
        <ele>698.80004882812</ele>
        <time>2026-09-02T14:53:57.000Z</time>
      </trkpt>
      <trkpt lat="48.1298" lon="6.86995">
        <ele>699</ele>
        <time>2026-09-02T14:53:58.000Z</time>
      </trkpt>
      <trkpt lat="48.12979" lon="6.86996">
        <ele>699.19995117188</ele>
        <time>2026-09-02T14:53:59.000Z</time>
      </trkpt>
      <trkpt lat="48.12978" lon="6.86998">
        <ele>699.19995117188</ele>
        <time>2026-09-02T14:54:00.000Z</time>
      </trkpt>
      <trkpt lat="48.12977" lon="6.87">
        <ele>699.40002441406</ele>
        <time>2026-09-02T14:54:01.000Z</time>
      </trkpt>
      <trkpt lat="48.12977" lon="6.87">
        <ele>699.59997558594</ele>
        <time>2026-09-02T14:54:02.000Z</time>
      </trkpt>
      <trkpt lat="48.12975" lon="6.87001">
        <ele>699.59997558594</ele>
        <time>2026-09-02T14:54:03.000Z</time>
      </trkpt>
      <trkpt lat="48.12974" lon="6.87003">
        <ele>699.40002441406</ele>
        <time>2026-09-02T14:54:04.000Z</time>
      </trkpt>
      <trkpt lat="48.12974" lon="6.87004">
        <ele>699.40002441406</ele>
        <time>2026-09-02T14:54:05.000Z</time>
      </trkpt>
      <trkpt lat="48.12973" lon="6.87006">
        <ele>699.19995117188</ele>
        <time>2026-09-02T14:54:06.000Z</time>
      </trkpt>
      <trkpt lat="48.12972" lon="6.87007">
        <ele>699.19995117188</ele>
        <time>2026-09-02T14:54:07.000Z</time>
      </trkpt>
      <trkpt lat="48.12971" lon="6.87009">
        <ele>699</ele>
        <time>2026-09-02T14:54:08.000Z</time>
      </trkpt>
      <trkpt lat="48.12969" lon="6.8701">
        <ele>699</ele>
        <time>2026-09-02T14:54:09.000Z</time>
      </trkpt>
      <trkpt lat="48.12967" lon="6.87012">
        <ele>699.19995117188</ele>
        <time>2026-09-02T14:54:10.000Z</time>
      </trkpt>
      <trkpt lat="48.12966" lon="6.87015">
        <ele>699.40002441406</ele>
        <time>2026-09-02T14:54:11.000Z</time>
      </trkpt>
      <trkpt lat="48.12965" lon="6.87017">
        <ele>699.40002441406</ele>
        <time>2026-09-02T14:54:12.000Z</time>
      </trkpt>
      <trkpt lat="48.12964" lon="6.87019">
        <ele>699.59997558594</ele>
        <time>2026-09-02T14:54:13.000Z</time>
      </trkpt>
      <trkpt lat="48.12963" lon="6.87022">
        <ele>699.80004882812</ele>
        <time>2026-09-02T14:54:14.000Z</time>
      </trkpt>
      <trkpt lat="48.12961" lon="6.87024">
        <ele>699.80004882812</ele>
        <time>2026-09-02T14:54:15.000Z</time>
      </trkpt>
      <trkpt lat="48.12959" lon="6.87027">
        <ele>700</ele>
        <time>2026-09-02T14:54:16.000Z</time>
      </trkpt>
      <trkpt lat="48.12957" lon="6.87031">
        <ele>700.19995117188</ele>
        <time>2026-09-02T14:54:17.000Z</time>
      </trkpt>
      <trkpt lat="48.12956" lon="6.87034">
        <ele>700.19995117188</ele>
        <time>2026-09-02T14:54:18.000Z</time>
      </trkpt>
      <trkpt lat="48.12954" lon="6.87038">
        <ele>700.40002441406</ele>
        <time>2026-09-02T14:54:19.000Z</time>
      </trkpt>
      <trkpt lat="48.12952" lon="6.87042">
        <ele>700.40002441406</ele>
        <time>2026-09-02T14:54:20.000Z</time>
      </trkpt>
      <trkpt lat="48.12951" lon="6.87045">
        <ele>700.59997558594</ele>
        <time>2026-09-02T14:54:21.000Z</time>
      </trkpt>
      <trkpt lat="48.12949" lon="6.87049">
        <ele>700.59997558594</ele>
        <time>2026-09-02T14:54:22.000Z</time>
      </trkpt>
      <trkpt lat="48.12947" lon="6.87053">
        <ele>700.80004882812</ele>
        <time>2026-09-02T14:54:23.000Z</time>
      </trkpt>
      <trkpt lat="48.12945" lon="6.87057">
        <ele>701</ele>
        <time>2026-09-02T14:54:24.000Z</time>
      </trkpt>
      <trkpt lat="48.12943" lon="6.8706">
        <ele>701</ele>
        <time>2026-09-02T14:54:25.000Z</time>
      </trkpt>
      <trkpt lat="48.12941" lon="6.87064">
        <ele>701.19995117188</ele>
        <time>2026-09-02T14:54:26.000Z</time>
      </trkpt>
      <trkpt lat="48.12938" lon="6.87067">
        <ele>701.40002441406</ele>
        <time>2026-09-02T14:54:27.000Z</time>
      </trkpt>
      <trkpt lat="48.12936" lon="6.87071">
        <ele>701.40002441406</ele>
        <time>2026-09-02T14:54:28.000Z</time>
      </trkpt>
      <trkpt lat="48.12934" lon="6.87074">
        <ele>701.40002441406</ele>
        <time>2026-09-02T14:54:29.000Z</time>
      </trkpt>
      <trkpt lat="48.12932" lon="6.87077">
        <ele>701.40002441406</ele>
        <time>2026-09-02T14:54:30.000Z</time>
      </trkpt>
      <trkpt lat="48.1293" lon="6.8708">
        <ele>701.59997558594</ele>
        <time>2026-09-02T14:54:31.000Z</time>
      </trkpt>
      <trkpt lat="48.12928" lon="6.87082">
        <ele>701.80004882812</ele>
        <time>2026-09-02T14:54:32.000Z</time>
      </trkpt>
      <trkpt lat="48.12926" lon="6.87083">
        <ele>702</ele>
        <time>2026-09-02T14:54:33.000Z</time>
      </trkpt>
      <trkpt lat="48.12924" lon="6.87083">
        <ele>702.19995117188</ele>
        <time>2026-09-02T14:54:34.000Z</time>
      </trkpt>
      <trkpt lat="48.12923" lon="6.87081">
        <ele>702.19995117188</ele>
        <time>2026-09-02T14:54:35.000Z</time>
      </trkpt>
      <trkpt lat="48.12922" lon="6.8708">
        <ele>702.19995117188</ele>
        <time>2026-09-02T14:54:36.000Z</time>
      </trkpt>
      <trkpt lat="48.12921" lon="6.87079">
        <ele>702.19995117188</ele>
        <time>2026-09-02T14:54:37.000Z</time>
      </trkpt>
      <trkpt lat="48.1292" lon="6.87078">
        <ele>702.19995117188</ele>
        <time>2026-09-02T14:54:38.000Z</time>
      </trkpt>
      <trkpt lat="48.12919" lon="6.87076">
        <ele>702.19995117188</ele>
        <time>2026-09-02T14:54:39.000Z</time>
      </trkpt>
      <trkpt lat="48.12919" lon="6.87075">
        <ele>702.19995117188</ele>
        <time>2026-09-02T14:54:40.000Z</time>
      </trkpt>
      <trkpt lat="48.12918" lon="6.87074">
        <ele>702.59997558594</ele>
        <time>2026-09-02T14:54:41.000Z</time>
      </trkpt>
      <trkpt lat="48.12917" lon="6.87072">
        <ele>702.80004882812</ele>
        <time>2026-09-02T14:54:42.000Z</time>
      </trkpt>
      <trkpt lat="48.12917" lon="6.87071">
        <ele>703.19995117188</ele>
        <time>2026-09-02T14:54:43.000Z</time>
      </trkpt>
      <trkpt lat="48.12916" lon="6.87069">
        <ele>703.40002441406</ele>
        <time>2026-09-02T14:54:44.000Z</time>
      </trkpt>
      <trkpt lat="48.12916" lon="6.87068">
        <ele>703.59997558594</ele>
        <time>2026-09-02T14:54:45.000Z</time>
      </trkpt>
      <trkpt lat="48.12915" lon="6.87067">
        <ele>703.80004882812</ele>
        <time>2026-09-02T14:54:46.000Z</time>
      </trkpt>
      <trkpt lat="48.12914" lon="6.87065">
        <ele>703.80004882812</ele>
        <time>2026-09-02T14:54:47.000Z</time>
      </trkpt>
      <trkpt lat="48.12913" lon="6.87063">
        <ele>704</ele>
        <time>2026-09-02T14:54:48.000Z</time>
      </trkpt>
      <trkpt lat="48.12913" lon="6.87064">
        <ele>704</ele>
        <time>2026-09-02T14:54:49.000Z</time>
      </trkpt>
      <trkpt lat="48.12913" lon="6.87063">
        <ele>703.80004882812</ele>
        <time>2026-09-02T14:54:50.000Z</time>
      </trkpt>
      <trkpt lat="48.12913" lon="6.87062">
        <ele>703.59997558594</ele>
        <time>2026-09-02T14:54:51.000Z</time>
      </trkpt>
      <trkpt lat="48.12913" lon="6.87061">
        <ele>703.40002441406</ele>
        <time>2026-09-02T14:54:52.000Z</time>
      </trkpt>
      <trkpt lat="48.12912" lon="6.87059">
        <ele>703.40002441406</ele>
        <time>2026-09-02T14:54:53.000Z</time>
      </trkpt>
      <trkpt lat="48.12912" lon="6.87058">
        <ele>703.40002441406</ele>
        <time>2026-09-02T14:54:54.000Z</time>
      </trkpt>
      <trkpt lat="48.12912" lon="6.87056">
        <ele>703.80004882812</ele>
        <time>2026-09-02T14:54:55.000Z</time>
      </trkpt>
      <trkpt lat="48.12911" lon="6.87055">
        <ele>704.19995117188</ele>
        <time>2026-09-02T14:54:56.000Z</time>
      </trkpt>
      <trkpt lat="48.12911" lon="6.87054">
        <ele>704.40002441406</ele>
        <time>2026-09-02T14:54:57.000Z</time>
      </trkpt>
      <trkpt lat="48.1291" lon="6.87053">
        <ele>704.80004882812</ele>
        <time>2026-09-02T14:54:58.000Z</time>
      </trkpt>
      <trkpt lat="48.1291" lon="6.87052">
        <ele>705</ele>
        <time>2026-09-02T14:54:59.000Z</time>
      </trkpt>
      <trkpt lat="48.1291" lon="6.87051">
        <ele>705</ele>
        <time>2026-09-02T14:55:00.000Z</time>
      </trkpt>
      <trkpt lat="48.12909" lon="6.8705">
        <ele>704.80004882812</ele>
        <time>2026-09-02T14:55:01.000Z</time>
      </trkpt>
      <trkpt lat="48.12909" lon="6.87049">
        <ele>704.80004882812</ele>
        <time>2026-09-02T14:55:02.000Z</time>
      </trkpt>
      <trkpt lat="48.12908" lon="6.87047">
        <ele>704.80004882812</ele>
        <time>2026-09-02T14:55:03.000Z</time>
      </trkpt>
      <trkpt lat="48.12907" lon="6.87046">
        <ele>704.80004882812</ele>
        <time>2026-09-02T14:55:04.000Z</time>
      </trkpt>
      <trkpt lat="48.12907" lon="6.87046">
        <ele>705</ele>
        <time>2026-09-02T14:55:05.000Z</time>
      </trkpt>
      <trkpt lat="48.12906" lon="6.87045">
        <ele>705.19995117188</ele>
        <time>2026-09-02T14:55:06.000Z</time>
      </trkpt>
      <trkpt lat="48.12905" lon="6.87044">
        <ele>705.40002441406</ele>
        <time>2026-09-02T14:55:07.000Z</time>
      </trkpt>
      <trkpt lat="48.12904" lon="6.87043">
        <ele>705.59997558594</ele>
        <time>2026-09-02T14:55:08.000Z</time>
      </trkpt>
      <trkpt lat="48.12903" lon="6.87042">
        <ele>705.59997558594</ele>
        <time>2026-09-02T14:55:09.000Z</time>
      </trkpt>
      <trkpt lat="48.12903" lon="6.87041">
        <ele>705.80004882812</ele>
        <time>2026-09-02T14:55:10.000Z</time>
      </trkpt>
      <trkpt lat="48.12902" lon="6.8704">
        <ele>706</ele>
        <time>2026-09-02T14:55:11.000Z</time>
      </trkpt>
      <trkpt lat="48.12902" lon="6.87039">
        <ele>706</ele>
        <time>2026-09-02T14:55:12.000Z</time>
      </trkpt>
      <trkpt lat="48.12901" lon="6.87038">
        <ele>706</ele>
        <time>2026-09-02T14:55:13.000Z</time>
      </trkpt>
      <trkpt lat="48.12901" lon="6.87037">
        <ele>706</ele>
        <time>2026-09-02T14:55:14.000Z</time>
      </trkpt>
      <trkpt lat="48.129" lon="6.87036">
        <ele>706.19995117188</ele>
        <time>2026-09-02T14:55:15.000Z</time>
      </trkpt>
      <trkpt lat="48.12899" lon="6.87035">
        <ele>706.19995117188</ele>
        <time>2026-09-02T14:55:16.000Z</time>
      </trkpt>
      <trkpt lat="48.12898" lon="6.87034">
        <ele>706.40002441406</ele>
        <time>2026-09-02T14:55:17.000Z</time>
      </trkpt>
      <trkpt lat="48.12898" lon="6.87033">
        <ele>706.40002441406</ele>
        <time>2026-09-02T14:55:18.000Z</time>
      </trkpt>
      <trkpt lat="48.12897" lon="6.87032">
        <ele>706.59997558594</ele>
        <time>2026-09-02T14:55:19.000Z</time>
      </trkpt>
      <trkpt lat="48.12896" lon="6.87031">
        <ele>706.80004882812</ele>
        <time>2026-09-02T14:55:20.000Z</time>
      </trkpt>
      <trkpt lat="48.12895" lon="6.8703">
        <ele>707</ele>
        <time>2026-09-02T14:55:21.000Z</time>
      </trkpt>
      <trkpt lat="48.12894" lon="6.87029">
        <ele>707</ele>
        <time>2026-09-02T14:55:22.000Z</time>
      </trkpt>
      <trkpt lat="48.12893" lon="6.87029">
        <ele>707</ele>
        <time>2026-09-02T14:55:23.000Z</time>
      </trkpt>
      <trkpt lat="48.12892" lon="6.87029">
        <ele>707.19995117188</ele>
        <time>2026-09-02T14:55:24.000Z</time>
      </trkpt>
      <trkpt lat="48.12892" lon="6.87028">
        <ele>707.19995117188</ele>
        <time>2026-09-02T14:55:25.000Z</time>
      </trkpt>
      <trkpt lat="48.12891" lon="6.87027">
        <ele>707.40002441406</ele>
        <time>2026-09-02T14:55:26.000Z</time>
      </trkpt>
      <trkpt lat="48.1289" lon="6.87026">
        <ele>707.80004882812</ele>
        <time>2026-09-02T14:55:27.000Z</time>
      </trkpt>
      <trkpt lat="48.12889" lon="6.87026">
        <ele>708</ele>
        <time>2026-09-02T14:55:28.000Z</time>
      </trkpt>
      <trkpt lat="48.12888" lon="6.87025">
        <ele>708</ele>
        <time>2026-09-02T14:55:29.000Z</time>
      </trkpt>
      <trkpt lat="48.12888" lon="6.87025">
        <ele>708.19995117188</ele>
        <time>2026-09-02T14:55:30.000Z</time>
      </trkpt>
      <trkpt lat="48.12886" lon="6.87024">
        <ele>708.19995117188</ele>
        <time>2026-09-02T14:55:31.000Z</time>
      </trkpt>
      <trkpt lat="48.12886" lon="6.87024">
        <ele>708.40002441406</ele>
        <time>2026-09-02T14:55:32.000Z</time>
      </trkpt>
      <trkpt lat="48.12885" lon="6.87023">
        <ele>708.40002441406</ele>
        <time>2026-09-02T14:55:33.000Z</time>
      </trkpt>
      <trkpt lat="48.12885" lon="6.87023">
        <ele>708.40002441406</ele>
        <time>2026-09-02T14:55:34.000Z</time>
      </trkpt>
      <trkpt lat="48.12884" lon="6.87022">
        <ele>708.40002441406</ele>
        <time>2026-09-02T14:55:35.000Z</time>
      </trkpt>
      <trkpt lat="48.12884" lon="6.87022">
        <ele>708.40002441406</ele>
        <time>2026-09-02T14:55:36.000Z</time>
      </trkpt>
      <trkpt lat="48.12883" lon="6.87021">
        <ele>708.19995117188</ele>
        <time>2026-09-02T14:55:37.000Z</time>
      </trkpt>
      <trkpt lat="48.12883" lon="6.8702">
        <ele>708.19995117188</ele>
        <time>2026-09-02T14:55:38.000Z</time>
      </trkpt>
      <trkpt lat="48.12882" lon="6.87019">
        <ele>708.19995117188</ele>
        <time>2026-09-02T14:55:39.000Z</time>
      </trkpt>
      <trkpt lat="48.12881" lon="6.87018">
        <ele>708.40002441406</ele>
        <time>2026-09-02T14:55:40.000Z</time>
      </trkpt>
      <trkpt lat="48.12881" lon="6.87016">
        <ele>708.40002441406</ele>
        <time>2026-09-02T14:55:41.000Z</time>
      </trkpt>
      <trkpt lat="48.12881" lon="6.87015">
        <ele>708.59997558594</ele>
        <time>2026-09-02T14:55:42.000Z</time>
      </trkpt>
      <trkpt lat="48.1288" lon="6.87014">
        <ele>708.59997558594</ele>
        <time>2026-09-02T14:55:43.000Z</time>
      </trkpt>
      <trkpt lat="48.1288" lon="6.87012">
        <ele>708.80004882812</ele>
        <time>2026-09-02T14:55:44.000Z</time>
      </trkpt>
      <trkpt lat="48.1288" lon="6.87011">
        <ele>708.80004882812</ele>
        <time>2026-09-02T14:55:45.000Z</time>
      </trkpt>
      <trkpt lat="48.12879" lon="6.87009">
        <ele>709</ele>
        <time>2026-09-02T14:55:46.000Z</time>
      </trkpt>
      <trkpt lat="48.12879" lon="6.87008">
        <ele>709.19995117188</ele>
        <time>2026-09-02T14:55:47.000Z</time>
      </trkpt>
      <trkpt lat="48.12878" lon="6.87008">
        <ele>709.19995117188</ele>
        <time>2026-09-02T14:55:48.000Z</time>
      </trkpt>
      <trkpt lat="48.12879" lon="6.87007">
        <ele>709.40002441406</ele>
        <time>2026-09-02T14:55:49.000Z</time>
      </trkpt>
      <trkpt lat="48.12879" lon="6.87006">
        <ele>709.40002441406</ele>
        <time>2026-09-02T14:55:50.000Z</time>
      </trkpt>
      <trkpt lat="48.1288" lon="6.87006">
        <ele>709.19995117188</ele>
        <time>2026-09-02T14:55:51.000Z</time>
      </trkpt>
      <trkpt lat="48.1288" lon="6.87005">
        <ele>709.19995117188</ele>
        <time>2026-09-02T14:55:52.000Z</time>
      </trkpt>
      <trkpt lat="48.12879" lon="6.87005">
        <ele>709.40002441406</ele>
        <time>2026-09-02T14:55:53.000Z</time>
      </trkpt>
      <trkpt lat="48.12879" lon="6.87005">
        <ele>709.40002441406</ele>
        <time>2026-09-02T14:55:54.000Z</time>
      </trkpt>
      <trkpt lat="48.12879" lon="6.87004">
        <ele>709.59997558594</ele>
        <time>2026-09-02T14:55:55.000Z</time>
      </trkpt>
      <trkpt lat="48.12878" lon="6.87003">
        <ele>709.80004882812</ele>
        <time>2026-09-02T14:55:56.000Z</time>
      </trkpt>
      <trkpt lat="48.12878" lon="6.87001">
        <ele>710.19995117188</ele>
        <time>2026-09-02T14:55:57.000Z</time>
      </trkpt>
      <trkpt lat="48.12878" lon="6.86999">
        <ele>710.19995117188</ele>
        <time>2026-09-02T14:55:58.000Z</time>
      </trkpt>
      <trkpt lat="48.12878" lon="6.86997">
        <ele>710.19995117188</ele>
        <time>2026-09-02T14:55:59.000Z</time>
      </trkpt>
      <trkpt lat="48.12878" lon="6.86996">
        <ele>710.19995117188</ele>
        <time>2026-09-02T14:56:00.000Z</time>
      </trkpt>
      <trkpt lat="48.12877" lon="6.86994">
        <ele>710.19995117188</ele>
        <time>2026-09-02T14:56:01.000Z</time>
      </trkpt>
      <trkpt lat="48.12877" lon="6.86992">
        <ele>710.19995117188</ele>
        <time>2026-09-02T14:56:02.000Z</time>
      </trkpt>
      <trkpt lat="48.12876" lon="6.8699">
        <ele>710.19995117188</ele>
        <time>2026-09-02T14:56:03.000Z</time>
      </trkpt>
      <trkpt lat="48.12876" lon="6.86988">
        <ele>710.19995117188</ele>
        <time>2026-09-02T14:56:04.000Z</time>
      </trkpt>
      <trkpt lat="48.12876" lon="6.86987">
        <ele>710.40002441406</ele>
        <time>2026-09-02T14:56:05.000Z</time>
      </trkpt>
      <trkpt lat="48.12876" lon="6.86986">
        <ele>710.40002441406</ele>
        <time>2026-09-02T14:56:06.000Z</time>
      </trkpt>
      <trkpt lat="48.12875" lon="6.86985">
        <ele>710.40002441406</ele>
        <time>2026-09-02T14:56:07.000Z</time>
      </trkpt>
      <trkpt lat="48.12875" lon="6.86983">
        <ele>710.19995117188</ele>
        <time>2026-09-02T14:56:08.000Z</time>
      </trkpt>
      <trkpt lat="48.12876" lon="6.86982">
        <ele>710.19995117188</ele>
        <time>2026-09-02T14:56:09.000Z</time>
      </trkpt>
      <trkpt lat="48.12875" lon="6.8698">
        <ele>710.40002441406</ele>
        <time>2026-09-02T14:56:10.000Z</time>
      </trkpt>
      <trkpt lat="48.12875" lon="6.8698">
        <ele>710.40002441406</ele>
        <time>2026-09-02T14:56:11.000Z</time>
      </trkpt>
      <trkpt lat="48.12875" lon="6.86979">
        <ele>710.59997558594</ele>
        <time>2026-09-02T14:56:12.000Z</time>
      </trkpt>
      <trkpt lat="48.12875" lon="6.86978">
        <ele>710.80004882812</ele>
        <time>2026-09-02T14:56:13.000Z</time>
      </trkpt>
      <trkpt lat="48.12875" lon="6.86977">
        <ele>711</ele>
        <time>2026-09-02T14:56:14.000Z</time>
      </trkpt>
      <trkpt lat="48.12875" lon="6.86976">
        <ele>711.19995117188</ele>
        <time>2026-09-02T14:56:15.000Z</time>
      </trkpt>
      <trkpt lat="48.12875" lon="6.86974">
        <ele>711.40002441406</ele>
        <time>2026-09-02T14:56:16.000Z</time>
      </trkpt>
      <trkpt lat="48.12875" lon="6.86973">
        <ele>711.40002441406</ele>
        <time>2026-09-02T14:56:17.000Z</time>
      </trkpt>
      <trkpt lat="48.12875" lon="6.86972">
        <ele>711.40002441406</ele>
        <time>2026-09-02T14:56:18.000Z</time>
      </trkpt>
      <trkpt lat="48.12875" lon="6.86971">
        <ele>711.59997558594</ele>
        <time>2026-09-02T14:56:19.000Z</time>
      </trkpt>
      <trkpt lat="48.12875" lon="6.86969">
        <ele>711.59997558594</ele>
        <time>2026-09-02T14:56:20.000Z</time>
      </trkpt>
      <trkpt lat="48.12875" lon="6.86968">
        <ele>711.40002441406</ele>
        <time>2026-09-02T14:56:21.000Z</time>
      </trkpt>
      <trkpt lat="48.12875" lon="6.86967">
        <ele>711.40002441406</ele>
        <time>2026-09-02T14:56:22.000Z</time>
      </trkpt>
      <trkpt lat="48.12875" lon="6.86965">
        <ele>711.40002441406</ele>
        <time>2026-09-02T14:56:23.000Z</time>
      </trkpt>
      <trkpt lat="48.12875" lon="6.86963">
        <ele>711.40002441406</ele>
        <time>2026-09-02T14:56:24.000Z</time>
      </trkpt>
      <trkpt lat="48.12875" lon="6.86962">
        <ele>711.59997558594</ele>
        <time>2026-09-02T14:56:25.000Z</time>
      </trkpt>
      <trkpt lat="48.12875" lon="6.86961">
        <ele>711.59997558594</ele>
        <time>2026-09-02T14:56:26.000Z</time>
      </trkpt>
      <trkpt lat="48.12875" lon="6.8696">
        <ele>711.80004882812</ele>
        <time>2026-09-02T14:56:27.000Z</time>
      </trkpt>
      <trkpt lat="48.12875" lon="6.86958">
        <ele>712</ele>
        <time>2026-09-02T14:56:28.000Z</time>
      </trkpt>
      <trkpt lat="48.12875" lon="6.86957">
        <ele>712</ele>
        <time>2026-09-02T14:56:29.000Z</time>
      </trkpt>
      <trkpt lat="48.12875" lon="6.86955">
        <ele>712.19995117188</ele>
        <time>2026-09-02T14:56:30.000Z</time>
      </trkpt>
      <trkpt lat="48.12874" lon="6.86954">
        <ele>712.19995117188</ele>
        <time>2026-09-02T14:56:31.000Z</time>
      </trkpt>
      <trkpt lat="48.12874" lon="6.86952">
        <ele>712.19995117188</ele>
        <time>2026-09-02T14:56:32.000Z</time>
      </trkpt>
      <trkpt lat="48.12874" lon="6.8695">
        <ele>712.19995117188</ele>
        <time>2026-09-02T14:56:33.000Z</time>
      </trkpt>
      <trkpt lat="48.12874" lon="6.86948">
        <ele>712.19995117188</ele>
        <time>2026-09-02T14:56:34.000Z</time>
      </trkpt>
      <trkpt lat="48.12874" lon="6.86946">
        <ele>712</ele>
        <time>2026-09-02T14:56:35.000Z</time>
      </trkpt>
      <trkpt lat="48.12874" lon="6.86945">
        <ele>712</ele>
        <time>2026-09-02T14:56:36.000Z</time>
      </trkpt>
      <trkpt lat="48.12873" lon="6.86944">
        <ele>712</ele>
        <time>2026-09-02T14:56:37.000Z</time>
      </trkpt>
      <trkpt lat="48.12874" lon="6.86943">
        <ele>712</ele>
        <time>2026-09-02T14:56:38.000Z</time>
      </trkpt>
      <trkpt lat="48.12873" lon="6.86942">
        <ele>712</ele>
        <time>2026-09-02T14:56:39.000Z</time>
      </trkpt>
      <trkpt lat="48.12873" lon="6.8694">
        <ele>712</ele>
        <time>2026-09-02T14:56:40.000Z</time>
      </trkpt>
      <trkpt lat="48.12873" lon="6.86939">
        <ele>712.19995117188</ele>
        <time>2026-09-02T14:56:41.000Z</time>
      </trkpt>
      <trkpt lat="48.12873" lon="6.86937">
        <ele>712.19995117188</ele>
        <time>2026-09-02T14:56:42.000Z</time>
      </trkpt>
      <trkpt lat="48.12873" lon="6.86936">
        <ele>712.19995117188</ele>
        <time>2026-09-02T14:56:43.000Z</time>
      </trkpt>
      <trkpt lat="48.12873" lon="6.86935">
        <ele>712.40002441406</ele>
        <time>2026-09-02T14:56:44.000Z</time>
      </trkpt>
      <trkpt lat="48.12873" lon="6.86935">
        <ele>712.59997558594</ele>
        <time>2026-09-02T14:56:45.000Z</time>
      </trkpt>
      <trkpt lat="48.12873" lon="6.86933">
        <ele>712.59997558594</ele>
        <time>2026-09-02T14:56:46.000Z</time>
      </trkpt>
      <trkpt lat="48.12873" lon="6.86932">
        <ele>713</ele>
        <time>2026-09-02T14:56:47.000Z</time>
      </trkpt>
      <trkpt lat="48.12873" lon="6.86932">
        <ele>713.19995117188</ele>
        <time>2026-09-02T14:56:48.000Z</time>
      </trkpt>
      <trkpt lat="48.12873" lon="6.86931">
        <ele>713.40002441406</ele>
        <time>2026-09-02T14:56:49.000Z</time>
      </trkpt>
      <trkpt lat="48.12873" lon="6.86929">
        <ele>713.59997558594</ele>
        <time>2026-09-02T14:56:50.000Z</time>
      </trkpt>
      <trkpt lat="48.12873" lon="6.86927">
        <ele>713.59997558594</ele>
        <time>2026-09-02T14:56:51.000Z</time>
      </trkpt>
      <trkpt lat="48.12873" lon="6.86925">
        <ele>713.59997558594</ele>
        <time>2026-09-02T14:56:52.000Z</time>
      </trkpt>
      <trkpt lat="48.12873" lon="6.86923">
        <ele>713.40002441406</ele>
        <time>2026-09-02T14:56:53.000Z</time>
      </trkpt>
      <trkpt lat="48.12873" lon="6.86921">
        <ele>713.40002441406</ele>
        <time>2026-09-02T14:56:54.000Z</time>
      </trkpt>
      <trkpt lat="48.12873" lon="6.8692">
        <ele>713.40002441406</ele>
        <time>2026-09-02T14:56:55.000Z</time>
      </trkpt>
      <trkpt lat="48.12873" lon="6.86919">
        <ele>713.40002441406</ele>
        <time>2026-09-02T14:56:56.000Z</time>
      </trkpt>
      <trkpt lat="48.12873" lon="6.86918">
        <ele>713.59997558594</ele>
        <time>2026-09-02T14:56:57.000Z</time>
      </trkpt>
      <trkpt lat="48.12872" lon="6.86916">
        <ele>713.59997558594</ele>
        <time>2026-09-02T14:56:58.000Z</time>
      </trkpt>
      <trkpt lat="48.12872" lon="6.86915">
        <ele>713.80004882812</ele>
        <time>2026-09-02T14:56:59.000Z</time>
      </trkpt>
      <trkpt lat="48.12872" lon="6.86914">
        <ele>714</ele>
        <time>2026-09-02T14:57:00.000Z</time>
      </trkpt>
      <trkpt lat="48.12871" lon="6.86913">
        <ele>714</ele>
        <time>2026-09-02T14:57:01.000Z</time>
      </trkpt>
      <trkpt lat="48.12871" lon="6.86912">
        <ele>714</ele>
        <time>2026-09-02T14:57:02.000Z</time>
      </trkpt>
      <trkpt lat="48.12871" lon="6.86911">
        <ele>714</ele>
        <time>2026-09-02T14:57:03.000Z</time>
      </trkpt>
      <trkpt lat="48.12871" lon="6.8691">
        <ele>714</ele>
        <time>2026-09-02T14:57:04.000Z</time>
      </trkpt>
      <trkpt lat="48.12871" lon="6.86909">
        <ele>714</ele>
        <time>2026-09-02T14:57:05.000Z</time>
      </trkpt>
      <trkpt lat="48.12871" lon="6.86908">
        <ele>714</ele>
        <time>2026-09-02T14:57:06.000Z</time>
      </trkpt>
      <trkpt lat="48.12871" lon="6.86907">
        <ele>714.19995117188</ele>
        <time>2026-09-02T14:57:07.000Z</time>
      </trkpt>
      <trkpt lat="48.12871" lon="6.86907">
        <ele>714.19995117188</ele>
        <time>2026-09-02T14:57:08.000Z</time>
      </trkpt>
      <trkpt lat="48.1287" lon="6.86906">
        <ele>714.40002441406</ele>
        <time>2026-09-02T14:57:09.000Z</time>
      </trkpt>
      <trkpt lat="48.1287" lon="6.86905">
        <ele>714.40002441406</ele>
        <time>2026-09-02T14:57:10.000Z</time>
      </trkpt>
      <trkpt lat="48.1287" lon="6.86904">
        <ele>714.59997558594</ele>
        <time>2026-09-02T14:57:11.000Z</time>
      </trkpt>
      <trkpt lat="48.1287" lon="6.86903">
        <ele>714.59997558594</ele>
        <time>2026-09-02T14:57:12.000Z</time>
      </trkpt>
      <trkpt lat="48.1287" lon="6.86902">
        <ele>714.59997558594</ele>
        <time>2026-09-02T14:57:13.000Z</time>
      </trkpt>
      <trkpt lat="48.1287" lon="6.86901">
        <ele>714.59997558594</ele>
        <time>2026-09-02T14:57:14.000Z</time>
      </trkpt>
      <trkpt lat="48.1287" lon="6.869">
        <ele>714.80004882812</ele>
        <time>2026-09-02T14:57:15.000Z</time>
      </trkpt>
      <trkpt lat="48.1287" lon="6.86899">
        <ele>714.80004882812</ele>
        <time>2026-09-02T14:57:16.000Z</time>
      </trkpt>
      <trkpt lat="48.12869" lon="6.86898">
        <ele>714.80004882812</ele>
        <time>2026-09-02T14:57:17.000Z</time>
      </trkpt>
      <trkpt lat="48.12869" lon="6.86897">
        <ele>714.80004882812</ele>
        <time>2026-09-02T14:57:18.000Z</time>
      </trkpt>
      <trkpt lat="48.12869" lon="6.86897">
        <ele>715</ele>
        <time>2026-09-02T14:57:19.000Z</time>
      </trkpt>
      <trkpt lat="48.12869" lon="6.86896">
        <ele>715</ele>
        <time>2026-09-02T14:57:20.000Z</time>
      </trkpt>
      <trkpt lat="48.12868" lon="6.86895">
        <ele>715.19995117188</ele>
        <time>2026-09-02T14:57:21.000Z</time>
      </trkpt>
      <trkpt lat="48.12868" lon="6.86894">
        <ele>715.19995117188</ele>
        <time>2026-09-02T14:57:22.000Z</time>
      </trkpt>
      <trkpt lat="48.12868" lon="6.86893">
        <ele>715.19995117188</ele>
        <time>2026-09-02T14:57:23.000Z</time>
      </trkpt>
      <trkpt lat="48.12867" lon="6.86892">
        <ele>715.40002441406</ele>
        <time>2026-09-02T14:57:24.000Z</time>
      </trkpt>
      <trkpt lat="48.12867" lon="6.86891">
        <ele>715.59997558594</ele>
        <time>2026-09-02T14:57:25.000Z</time>
      </trkpt>
      <trkpt lat="48.12867" lon="6.86889">
        <ele>715.80004882812</ele>
        <time>2026-09-02T14:57:26.000Z</time>
      </trkpt>
      <trkpt lat="48.12867" lon="6.86889">
        <ele>715.80004882812</ele>
        <time>2026-09-02T14:57:27.000Z</time>
      </trkpt>
      <trkpt lat="48.12866" lon="6.86887">
        <ele>716</ele>
        <time>2026-09-02T14:57:28.000Z</time>
      </trkpt>
      <trkpt lat="48.12866" lon="6.86887">
        <ele>716</ele>
        <time>2026-09-02T14:57:29.000Z</time>
      </trkpt>
      <trkpt lat="48.12866" lon="6.86886">
        <ele>716</ele>
        <time>2026-09-02T14:57:30.000Z</time>
      </trkpt>
      <trkpt lat="48.12865" lon="6.86886">
        <ele>716</ele>
        <time>2026-09-02T14:57:31.000Z</time>
      </trkpt>
      <trkpt lat="48.12865" lon="6.86885">
        <ele>716.19995117188</ele>
        <time>2026-09-02T14:57:32.000Z</time>
      </trkpt>
      <trkpt lat="48.12864" lon="6.86885">
        <ele>716.19995117188</ele>
        <time>2026-09-02T14:57:33.000Z</time>
      </trkpt>
      <trkpt lat="48.12864" lon="6.86884">
        <ele>716.19995117188</ele>
        <time>2026-09-02T14:57:34.000Z</time>
      </trkpt>
      <trkpt lat="48.12864" lon="6.86884">
        <ele>716.40002441406</ele>
        <time>2026-09-02T14:57:35.000Z</time>
      </trkpt>
      <trkpt lat="48.12863" lon="6.86882">
        <ele>716.40002441406</ele>
        <time>2026-09-02T14:57:36.000Z</time>
      </trkpt>
      <trkpt lat="48.12863" lon="6.86881">
        <ele>716.59997558594</ele>
        <time>2026-09-02T14:57:37.000Z</time>
      </trkpt>
      <trkpt lat="48.12862" lon="6.86881">
        <ele>716.59997558594</ele>
        <time>2026-09-02T14:57:38.000Z</time>
      </trkpt>
      <trkpt lat="48.12861" lon="6.8688">
        <ele>716.80004882812</ele>
        <time>2026-09-02T14:57:39.000Z</time>
      </trkpt>
      <trkpt lat="48.12861" lon="6.86879">
        <ele>716.80004882812</ele>
        <time>2026-09-02T14:57:40.000Z</time>
      </trkpt>
      <trkpt lat="48.1286" lon="6.86879">
        <ele>717</ele>
        <time>2026-09-02T14:57:41.000Z</time>
      </trkpt>
      <trkpt lat="48.1286" lon="6.86878">
        <ele>717</ele>
        <time>2026-09-02T14:57:42.000Z</time>
      </trkpt>
      <trkpt lat="48.12859" lon="6.86878">
        <ele>717.19995117188</ele>
        <time>2026-09-02T14:57:43.000Z</time>
      </trkpt>
      <trkpt lat="48.12859" lon="6.86877">
        <ele>717.19995117188</ele>
        <time>2026-09-02T14:57:44.000Z</time>
      </trkpt>
      <trkpt lat="48.12858" lon="6.86876">
        <ele>717.40002441406</ele>
        <time>2026-09-02T14:57:45.000Z</time>
      </trkpt>
      <trkpt lat="48.12858" lon="6.86876">
        <ele>717.40002441406</ele>
        <time>2026-09-02T14:57:46.000Z</time>
      </trkpt>
      <trkpt lat="48.12857" lon="6.86876">
        <ele>717.59997558594</ele>
        <time>2026-09-02T14:57:47.000Z</time>
      </trkpt>
      <trkpt lat="48.12857" lon="6.86875">
        <ele>717.80004882812</ele>
        <time>2026-09-02T14:57:48.000Z</time>
      </trkpt>
      <trkpt lat="48.12856" lon="6.86875">
        <ele>717.80004882812</ele>
        <time>2026-09-02T14:57:49.000Z</time>
      </trkpt>
      <trkpt lat="48.12855" lon="6.86875">
        <ele>718</ele>
        <time>2026-09-02T14:57:50.000Z</time>
      </trkpt>
      <trkpt lat="48.12855" lon="6.86875">
        <ele>718</ele>
        <time>2026-09-02T14:57:51.000Z</time>
      </trkpt>
      <trkpt lat="48.12854" lon="6.86874">
        <ele>718</ele>
        <time>2026-09-02T14:57:52.000Z</time>
      </trkpt>
      <trkpt lat="48.12854" lon="6.86874">
        <ele>718.19995117188</ele>
        <time>2026-09-02T14:57:53.000Z</time>
      </trkpt>
      <trkpt lat="48.12853" lon="6.86874">
        <ele>718.19995117188</ele>
        <time>2026-09-02T14:57:54.000Z</time>
      </trkpt>
      <trkpt lat="48.12852" lon="6.86873">
        <ele>718.40002441406</ele>
        <time>2026-09-02T14:57:55.000Z</time>
      </trkpt>
      <trkpt lat="48.12852" lon="6.86872">
        <ele>718.59997558594</ele>
        <time>2026-09-02T14:57:56.000Z</time>
      </trkpt>
      <trkpt lat="48.12852" lon="6.86872">
        <ele>718.80004882812</ele>
        <time>2026-09-02T14:57:57.000Z</time>
      </trkpt>
      <trkpt lat="48.12851" lon="6.86871">
        <ele>718.80004882812</ele>
        <time>2026-09-02T14:57:58.000Z</time>
      </trkpt>
      <trkpt lat="48.1285" lon="6.8687">
        <ele>719</ele>
        <time>2026-09-02T14:57:59.000Z</time>
      </trkpt>
      <trkpt lat="48.1285" lon="6.8687">
        <ele>719.19995117188</ele>
        <time>2026-09-02T14:58:00.000Z</time>
      </trkpt>
      <trkpt lat="48.12849" lon="6.8687">
        <ele>719.19995117188</ele>
        <time>2026-09-02T14:58:01.000Z</time>
      </trkpt>
      <trkpt lat="48.12848" lon="6.8687">
        <ele>719.19995117188</ele>
        <time>2026-09-02T14:58:02.000Z</time>
      </trkpt>
      <trkpt lat="48.12848" lon="6.86869">
        <ele>719.40002441406</ele>
        <time>2026-09-02T14:58:03.000Z</time>
      </trkpt>
      <trkpt lat="48.12847" lon="6.86868">
        <ele>719.59997558594</ele>
        <time>2026-09-02T14:58:04.000Z</time>
      </trkpt>
      <trkpt lat="48.12846" lon="6.86867">
        <ele>719.80004882812</ele>
        <time>2026-09-02T14:58:05.000Z</time>
      </trkpt>
      <trkpt lat="48.12845" lon="6.86867">
        <ele>720</ele>
        <time>2026-09-02T14:58:06.000Z</time>
      </trkpt>
      <trkpt lat="48.12844" lon="6.86867">
        <ele>719.80004882812</ele>
        <time>2026-09-02T14:58:07.000Z</time>
      </trkpt>
      <trkpt lat="48.12843" lon="6.86866">
        <ele>720</ele>
        <time>2026-09-02T14:58:08.000Z</time>
      </trkpt>
      <trkpt lat="48.12842" lon="6.86865">
        <ele>720</ele>
        <time>2026-09-02T14:58:09.000Z</time>
      </trkpt>
      <trkpt lat="48.1284" lon="6.86865">
        <ele>720.19995117188</ele>
        <time>2026-09-02T14:58:10.000Z</time>
      </trkpt>
      <trkpt lat="48.1284" lon="6.86864">
        <ele>720.40002441406</ele>
        <time>2026-09-02T14:58:11.000Z</time>
      </trkpt>
      <trkpt lat="48.12839" lon="6.86864">
        <ele>720.59997558594</ele>
        <time>2026-09-02T14:58:12.000Z</time>
      </trkpt>
      <trkpt lat="48.12838" lon="6.86863">
        <ele>720.80004882812</ele>
        <time>2026-09-02T14:58:13.000Z</time>
      </trkpt>
      <trkpt lat="48.12838" lon="6.86862">
        <ele>720.80004882812</ele>
        <time>2026-09-02T14:58:14.000Z</time>
      </trkpt>
      <trkpt lat="48.12838" lon="6.86862">
        <ele>720.80004882812</ele>
        <time>2026-09-02T14:58:15.000Z</time>
      </trkpt>
      <trkpt lat="48.12837" lon="6.86862">
        <ele>720.80004882812</ele>
        <time>2026-09-02T14:58:16.000Z</time>
      </trkpt>
      <trkpt lat="48.12837" lon="6.86861">
        <ele>721</ele>
        <time>2026-09-02T14:58:17.000Z</time>
      </trkpt>
      <trkpt lat="48.12837" lon="6.86861">
        <ele>721</ele>
        <time>2026-09-02T14:58:18.000Z</time>
      </trkpt>
      <trkpt lat="48.12837" lon="6.8686">
        <ele>721</ele>
        <time>2026-09-02T14:58:19.000Z</time>
      </trkpt>
      <trkpt lat="48.12837" lon="6.8686">
        <ele>721.19995117188</ele>
        <time>2026-09-02T14:58:20.000Z</time>
      </trkpt>
      <trkpt lat="48.12837" lon="6.8686">
        <ele>721.19995117188</ele>
        <time>2026-09-02T14:58:21.000Z</time>
      </trkpt>
      <trkpt lat="48.12837" lon="6.8686">
        <ele>721.19995117188</ele>
        <time>2026-09-02T14:58:22.000Z</time>
      </trkpt>
      <trkpt lat="48.12837" lon="6.8686">
        <ele>721.19995117188</ele>
        <time>2026-09-02T14:58:23.000Z</time>
      </trkpt>
      <trkpt lat="48.12837" lon="6.8686">
        <ele>721.19995117188</ele>
        <time>2026-09-02T14:58:24.000Z</time>
      </trkpt>
      <trkpt lat="48.12837" lon="6.8686">
        <ele>721</ele>
        <time>2026-09-02T14:58:25.000Z</time>
      </trkpt>
      <trkpt lat="48.12837" lon="6.8686">
        <ele>721</ele>
        <time>2026-09-02T14:58:26.000Z</time>
      </trkpt>
      <trkpt lat="48.12837" lon="6.8686">
        <ele>721</ele>
        <time>2026-09-02T14:58:27.000Z</time>
      </trkpt>
      <trkpt lat="48.12837" lon="6.8686">
        <ele>721</ele>
        <time>2026-09-02T14:58:28.000Z</time>
      </trkpt>
      <trkpt lat="48.12837" lon="6.8686">
        <ele>721</ele>
        <time>2026-09-02T14:58:29.000Z</time>
      </trkpt>
      <trkpt lat="48.12837" lon="6.8686">
        <ele>721.19995117188</ele>
        <time>2026-09-02T14:58:30.000Z</time>
      </trkpt>
      <trkpt lat="48.12837" lon="6.8686">
        <ele>721.19995117188</ele>
        <time>2026-09-02T14:58:31.000Z</time>
      </trkpt>
      <trkpt lat="48.12837" lon="6.8686">
        <ele>721.19995117188</ele>
        <time>2026-09-02T14:58:32.000Z</time>
      </trkpt>
      <trkpt lat="48.12837" lon="6.8686">
        <ele>721.19995117188</ele>
        <time>2026-09-02T14:58:33.000Z</time>
      </trkpt>
      <trkpt lat="48.12837" lon="6.8686">
        <ele>721.19995117188</ele>
        <time>2026-09-02T14:58:34.000Z</time>
      </trkpt>
      <trkpt lat="48.12837" lon="6.8686">
        <ele>721.19995117188</ele>
        <time>2026-09-02T14:58:35.000Z</time>
      </trkpt>
      <trkpt lat="48.12837" lon="6.8686">
        <ele>721</ele>
        <time>2026-09-02T14:58:36.000Z</time>
      </trkpt>
      <trkpt lat="48.12837" lon="6.8686">
        <ele>721</ele>
        <time>2026-09-02T14:58:37.000Z</time>
      </trkpt>
      <trkpt lat="48.12838" lon="6.8686">
        <ele>720.80004882812</ele>
        <time>2026-09-02T14:58:38.000Z</time>
      </trkpt>
      <trkpt lat="48.12838" lon="6.8686">
        <ele>720.80004882812</ele>
        <time>2026-09-02T14:58:39.000Z</time>
      </trkpt>
      <trkpt lat="48.12838" lon="6.8686">
        <ele>720.59997558594</ele>
        <time>2026-09-02T14:58:40.000Z</time>
      </trkpt>
      <trkpt lat="48.12839" lon="6.86861">
        <ele>720.59997558594</ele>
        <time>2026-09-02T14:58:41.000Z</time>
      </trkpt>
      <trkpt lat="48.12839" lon="6.86861">
        <ele>720.59997558594</ele>
        <time>2026-09-02T14:58:42.000Z</time>
      </trkpt>
      <trkpt lat="48.12839" lon="6.86861">
        <ele>720.59997558594</ele>
        <time>2026-09-02T14:58:43.000Z</time>
      </trkpt>
      <trkpt lat="48.12839" lon="6.86861">
        <ele>720.59997558594</ele>
        <time>2026-09-02T14:58:44.000Z</time>
      </trkpt>
      <trkpt lat="48.12839" lon="6.86861">
        <ele>720.80004882812</ele>
        <time>2026-09-02T14:58:45.000Z</time>
      </trkpt>
      <trkpt lat="48.12839" lon="6.86861">
        <ele>720.80004882812</ele>
        <time>2026-09-02T14:58:46.000Z</time>
      </trkpt>
      <trkpt lat="48.12839" lon="6.86861">
        <ele>720.80004882812</ele>
        <time>2026-09-02T14:58:47.000Z</time>
      </trkpt>
      <trkpt lat="48.12839" lon="6.86861">
        <ele>720.80004882812</ele>
        <time>2026-09-02T14:58:48.000Z</time>
      </trkpt>
      <trkpt lat="48.12839" lon="6.86861">
        <ele>720.80004882812</ele>
        <time>2026-09-02T14:58:49.000Z</time>
      </trkpt>
      <trkpt lat="48.12838" lon="6.86862">
        <ele>720.80004882812</ele>
        <time>2026-09-02T14:58:50.000Z</time>
      </trkpt>
      <trkpt lat="48.12838" lon="6.86862">
        <ele>720.80004882812</ele>
        <time>2026-09-02T14:58:51.000Z</time>
      </trkpt>
      <trkpt lat="48.12838" lon="6.86862">
        <ele>720.80004882812</ele>
        <time>2026-09-02T14:58:52.000Z</time>
      </trkpt>
      <trkpt lat="48.12838" lon="6.86862">
        <ele>720.80004882812</ele>
        <time>2026-09-02T14:58:53.000Z</time>
      </trkpt>
      <trkpt lat="48.12838" lon="6.86862">
        <ele>720.80004882812</ele>
        <time>2026-09-02T14:58:54.000Z</time>
      </trkpt>
      <trkpt lat="48.12838" lon="6.86862">
        <ele>720.80004882812</ele>
        <time>2026-09-02T14:58:55.000Z</time>
      </trkpt>
      <trkpt lat="48.12837" lon="6.86862">
        <ele>720.80004882812</ele>
        <time>2026-09-02T14:58:56.000Z</time>
      </trkpt>
      <trkpt lat="48.12836" lon="6.86862">
        <ele>720.80004882812</ele>
        <time>2026-09-02T14:58:57.000Z</time>
      </trkpt>
      <trkpt lat="48.12835" lon="6.86862">
        <ele>721</ele>
        <time>2026-09-02T14:58:58.000Z</time>
      </trkpt>
      <trkpt lat="48.12834" lon="6.86861">
        <ele>721.19995117188</ele>
        <time>2026-09-02T14:58:59.000Z</time>
      </trkpt>
      <trkpt lat="48.12833" lon="6.86861">
        <ele>721.40002441406</ele>
        <time>2026-09-02T14:59:00.000Z</time>
      </trkpt>
      <trkpt lat="48.12832" lon="6.8686">
        <ele>721.40002441406</ele>
        <time>2026-09-02T14:59:01.000Z</time>
      </trkpt>
      <trkpt lat="48.12831" lon="6.8686">
        <ele>721.59997558594</ele>
        <time>2026-09-02T14:59:02.000Z</time>
      </trkpt>
      <trkpt lat="48.1283" lon="6.86859">
        <ele>721.59997558594</ele>
        <time>2026-09-02T14:59:03.000Z</time>
      </trkpt>
      <trkpt lat="48.12829" lon="6.86858">
        <ele>721.59997558594</ele>
        <time>2026-09-02T14:59:04.000Z</time>
      </trkpt>
      <trkpt lat="48.12828" lon="6.86858">
        <ele>721.80004882812</ele>
        <time>2026-09-02T14:59:05.000Z</time>
      </trkpt>
      <trkpt lat="48.12828" lon="6.86857">
        <ele>721.80004882812</ele>
        <time>2026-09-02T14:59:06.000Z</time>
      </trkpt>
      <trkpt lat="48.12827" lon="6.86857">
        <ele>722</ele>
        <time>2026-09-02T14:59:07.000Z</time>
      </trkpt>
      <trkpt lat="48.12826" lon="6.86857">
        <ele>722</ele>
        <time>2026-09-02T14:59:08.000Z</time>
      </trkpt>
      <trkpt lat="48.12825" lon="6.86856">
        <ele>722.19995117188</ele>
        <time>2026-09-02T14:59:09.000Z</time>
      </trkpt>
      <trkpt lat="48.12824" lon="6.86856">
        <ele>722.40002441406</ele>
        <time>2026-09-02T14:59:10.000Z</time>
      </trkpt>
      <trkpt lat="48.12823" lon="6.86856">
        <ele>722.59997558594</ele>
        <time>2026-09-02T14:59:11.000Z</time>
      </trkpt>
      <trkpt lat="48.12822" lon="6.86856">
        <ele>722.59997558594</ele>
        <time>2026-09-02T14:59:12.000Z</time>
      </trkpt>
      <trkpt lat="48.12822" lon="6.86856">
        <ele>722.80004882812</ele>
        <time>2026-09-02T14:59:13.000Z</time>
      </trkpt>
      <trkpt lat="48.12821" lon="6.86855">
        <ele>723</ele>
        <time>2026-09-02T14:59:14.000Z</time>
      </trkpt>
      <trkpt lat="48.1282" lon="6.86855">
        <ele>723</ele>
        <time>2026-09-02T14:59:15.000Z</time>
      </trkpt>
      <trkpt lat="48.12819" lon="6.86855">
        <ele>723.19995117188</ele>
        <time>2026-09-02T14:59:16.000Z</time>
      </trkpt>
      <trkpt lat="48.12818" lon="6.86854">
        <ele>723.19995117188</ele>
        <time>2026-09-02T14:59:17.000Z</time>
      </trkpt>
      <trkpt lat="48.12818" lon="6.86854">
        <ele>723.40002441406</ele>
        <time>2026-09-02T14:59:18.000Z</time>
      </trkpt>
      <trkpt lat="48.12817" lon="6.86854">
        <ele>723.40002441406</ele>
        <time>2026-09-02T14:59:19.000Z</time>
      </trkpt>
      <trkpt lat="48.12815" lon="6.86854">
        <ele>723.40002441406</ele>
        <time>2026-09-02T14:59:20.000Z</time>
      </trkpt>
      <trkpt lat="48.12814" lon="6.86854">
        <ele>723.59997558594</ele>
        <time>2026-09-02T14:59:21.000Z</time>
      </trkpt>
      <trkpt lat="48.12814" lon="6.86854">
        <ele>723.80004882812</ele>
        <time>2026-09-02T14:59:22.000Z</time>
      </trkpt>
      <trkpt lat="48.12813" lon="6.86853">
        <ele>724</ele>
        <time>2026-09-02T14:59:23.000Z</time>
      </trkpt>
      <trkpt lat="48.12812" lon="6.86853">
        <ele>724.19995117188</ele>
        <time>2026-09-02T14:59:24.000Z</time>
      </trkpt>
      <trkpt lat="48.12811" lon="6.86854">
        <ele>724.40002441406</ele>
        <time>2026-09-02T14:59:25.000Z</time>
      </trkpt>
      <trkpt lat="48.12812" lon="6.86853">
        <ele>724.40002441406</ele>
        <time>2026-09-02T14:59:26.000Z</time>
      </trkpt>
      <trkpt lat="48.12812" lon="6.86853">
        <ele>724.19995117188</ele>
        <time>2026-09-02T14:59:27.000Z</time>
      </trkpt>
      <trkpt lat="48.12813" lon="6.86852">
        <ele>724.19995117188</ele>
        <time>2026-09-02T14:59:28.000Z</time>
      </trkpt>
      <trkpt lat="48.12813" lon="6.86852">
        <ele>724.19995117188</ele>
        <time>2026-09-02T14:59:29.000Z</time>
      </trkpt>
      <trkpt lat="48.12813" lon="6.86852">
        <ele>724.19995117188</ele>
        <time>2026-09-02T14:59:30.000Z</time>
      </trkpt>
      <trkpt lat="48.12813" lon="6.86852">
        <ele>724.19995117188</ele>
        <time>2026-09-02T14:59:31.000Z</time>
      </trkpt>
      <trkpt lat="48.12813" lon="6.86852">
        <ele>724.19995117188</ele>
        <time>2026-09-02T14:59:32.000Z</time>
      </trkpt>
      <trkpt lat="48.12813" lon="6.86852">
        <ele>724.19995117188</ele>
        <time>2026-09-02T14:59:33.000Z</time>
      </trkpt>
      <trkpt lat="48.12813" lon="6.86852">
        <ele>724.19995117188</ele>
        <time>2026-09-02T14:59:34.000Z</time>
      </trkpt>
      <trkpt lat="48.12813" lon="6.86852">
        <ele>724.19995117188</ele>
        <time>2026-09-02T14:59:35.000Z</time>
      </trkpt>
      <trkpt lat="48.12813" lon="6.86852">
        <ele>724.40002441406</ele>
        <time>2026-09-02T14:59:36.000Z</time>
      </trkpt>
      <trkpt lat="48.12813" lon="6.86852">
        <ele>724.59997558594</ele>
        <time>2026-09-02T14:59:37.000Z</time>
      </trkpt>
      <trkpt lat="48.12813" lon="6.86852">
        <ele>724.59997558594</ele>
        <time>2026-09-02T14:59:38.000Z</time>
      </trkpt>
      <trkpt lat="48.12813" lon="6.86852">
        <ele>724.80004882812</ele>
        <time>2026-09-02T14:59:39.000Z</time>
      </trkpt>
      <trkpt lat="48.12814" lon="6.86851">
        <ele>725</ele>
        <time>2026-09-02T14:59:40.000Z</time>
      </trkpt>
      <trkpt lat="48.12814" lon="6.86849">
        <ele>725.19995117188</ele>
        <time>2026-09-02T14:59:41.000Z</time>
      </trkpt>
      <trkpt lat="48.12814" lon="6.86848">
        <ele>725.19995117188</ele>
        <time>2026-09-02T14:59:42.000Z</time>
      </trkpt>
      <trkpt lat="48.12814" lon="6.86849">
        <ele>725</ele>
        <time>2026-09-02T14:59:43.000Z</time>
      </trkpt>
      <trkpt lat="48.12814" lon="6.86849">
        <ele>725</ele>
        <time>2026-09-02T14:59:44.000Z</time>
      </trkpt>
      <trkpt lat="48.12813" lon="6.86849">
        <ele>724.80004882812</ele>
        <time>2026-09-02T14:59:45.000Z</time>
      </trkpt>
      <trkpt lat="48.12813" lon="6.8685">
        <ele>724.59997558594</ele>
        <time>2026-09-02T14:59:46.000Z</time>
      </trkpt>
      <trkpt lat="48.12813" lon="6.8685">
        <ele>724.59997558594</ele>
        <time>2026-09-02T14:59:47.000Z</time>
      </trkpt>
      <trkpt lat="48.12813" lon="6.8685">
        <ele>724.40002441406</ele>
        <time>2026-09-02T14:59:48.000Z</time>
      </trkpt>
      <trkpt lat="48.12813" lon="6.8685">
        <ele>724.40002441406</ele>
        <time>2026-09-02T14:59:49.000Z</time>
      </trkpt>
      <trkpt lat="48.12813" lon="6.8685">
        <ele>724.40002441406</ele>
        <time>2026-09-02T14:59:50.000Z</time>
      </trkpt>
      <trkpt lat="48.12813" lon="6.8685">
        <ele>724.40002441406</ele>
        <time>2026-09-02T14:59:51.000Z</time>
      </trkpt>
      <trkpt lat="48.12813" lon="6.8685">
        <ele>724.40002441406</ele>
        <time>2026-09-02T14:59:52.000Z</time>
      </trkpt>
      <trkpt lat="48.12813" lon="6.8685">
        <ele>724.40002441406</ele>
        <time>2026-09-02T14:59:53.000Z</time>
      </trkpt>
      <trkpt lat="48.12813" lon="6.8685">
        <ele>724.40002441406</ele>
        <time>2026-09-02T14:59:54.000Z</time>
      </trkpt>
      <trkpt lat="48.12813" lon="6.8685">
        <ele>724.40002441406</ele>
        <time>2026-09-02T14:59:55.000Z</time>
      </trkpt>
      <trkpt lat="48.12813" lon="6.8685">
        <ele>724.40002441406</ele>
        <time>2026-09-02T14:59:56.000Z</time>
      </trkpt>
      <trkpt lat="48.12813" lon="6.8685">
        <ele>724.19995117188</ele>
        <time>2026-09-02T14:59:57.000Z</time>
      </trkpt>
      <trkpt lat="48.12813" lon="6.8685">
        <ele>724.19995117188</ele>
        <time>2026-09-02T14:59:58.000Z</time>
      </trkpt>
      <trkpt lat="48.12813" lon="6.8685">
        <ele>724.40002441406</ele>
        <time>2026-09-02T14:59:59.000Z</time>
      </trkpt>
      <trkpt lat="48.12813" lon="6.8685">
        <ele>724.40002441406</ele>
        <time>2026-09-02T15:00:00.000Z</time>
      </trkpt>
      <trkpt lat="48.12813" lon="6.8685">
        <ele>724.40002441406</ele>
        <time>2026-09-02T15:00:01.000Z</time>
      </trkpt>
      <trkpt lat="48.12813" lon="6.8685">
        <ele>724.40002441406</ele>
        <time>2026-09-02T15:00:02.000Z</time>
      </trkpt>
      <trkpt lat="48.12813" lon="6.8685">
        <ele>724.19995117188</ele>
        <time>2026-09-02T15:00:03.000Z</time>
      </trkpt>
      <trkpt lat="48.12813" lon="6.8685">
        <ele>724.19995117188</ele>
        <time>2026-09-02T15:00:04.000Z</time>
      </trkpt>
      <trkpt lat="48.12813" lon="6.8685">
        <ele>724.19995117188</ele>
        <time>2026-09-02T15:00:05.000Z</time>
      </trkpt>
      <trkpt lat="48.12813" lon="6.8685">
        <ele>724.40002441406</ele>
        <time>2026-09-02T15:00:06.000Z</time>
      </trkpt>
      <trkpt lat="48.12813" lon="6.8685">
        <ele>724.40002441406</ele>
        <time>2026-09-02T15:00:07.000Z</time>
      </trkpt>
      <trkpt lat="48.12813" lon="6.8685">
        <ele>724.40002441406</ele>
        <time>2026-09-02T15:00:08.000Z</time>
      </trkpt>
      <trkpt lat="48.12813" lon="6.8685">
        <ele>724.40002441406</ele>
        <time>2026-09-02T15:00:09.000Z</time>
      </trkpt>
      <trkpt lat="48.12813" lon="6.8685">
        <ele>724.40002441406</ele>
        <time>2026-09-02T15:00:10.000Z</time>
      </trkpt>
      <trkpt lat="48.12813" lon="6.8685">
        <ele>724.40002441406</ele>
        <time>2026-09-02T15:00:11.000Z</time>
      </trkpt>
      <trkpt lat="48.12813" lon="6.8685">
        <ele>724.19995117188</ele>
        <time>2026-09-02T15:00:12.000Z</time>
      </trkpt>
      <trkpt lat="48.12813" lon="6.8685">
        <ele>724.40002441406</ele>
        <time>2026-09-02T15:00:13.000Z</time>
      </trkpt>
      <trkpt lat="48.12813" lon="6.8685">
        <ele>724.40002441406</ele>
        <time>2026-09-02T15:00:14.000Z</time>
      </trkpt>
      <trkpt lat="48.12812" lon="6.8685">
        <ele>724.40002441406</ele>
        <time>2026-09-02T15:00:15.000Z</time>
      </trkpt>
      <trkpt lat="48.12811" lon="6.8685">
        <ele>724.40002441406</ele>
        <time>2026-09-02T15:00:16.000Z</time>
      </trkpt>
      <trkpt lat="48.1281" lon="6.86851">
        <ele>724.59997558594</ele>
        <time>2026-09-02T15:00:17.000Z</time>
      </trkpt>
      <trkpt lat="48.12809" lon="6.86851">
        <ele>724.59997558594</ele>
        <time>2026-09-02T15:00:18.000Z</time>
      </trkpt>
      <trkpt lat="48.12809" lon="6.86851">
        <ele>724.80004882812</ele>
        <time>2026-09-02T15:00:19.000Z</time>
      </trkpt>
      <trkpt lat="48.12809" lon="6.86852">
        <ele>725</ele>
        <time>2026-09-02T15:00:20.000Z</time>
      </trkpt>
      <trkpt lat="48.12808" lon="6.86852">
        <ele>725.19995117188</ele>
        <time>2026-09-02T15:00:21.000Z</time>
      </trkpt>
      <trkpt lat="48.12807" lon="6.86852">
        <ele>725.40002441406</ele>
        <time>2026-09-02T15:00:22.000Z</time>
      </trkpt>
      <trkpt lat="48.12806" lon="6.86852">
        <ele>725.59997558594</ele>
        <time>2026-09-02T15:00:23.000Z</time>
      </trkpt>
      <trkpt lat="48.12804" lon="6.86853">
        <ele>725.80004882812</ele>
        <time>2026-09-02T15:00:24.000Z</time>
      </trkpt>
      <trkpt lat="48.12804" lon="6.86853">
        <ele>725.80004882812</ele>
        <time>2026-09-02T15:00:25.000Z</time>
      </trkpt>
      <trkpt lat="48.12803" lon="6.86853">
        <ele>726</ele>
        <time>2026-09-02T15:00:26.000Z</time>
      </trkpt>
      <trkpt lat="48.12802" lon="6.86853">
        <ele>726.40002441406</ele>
        <time>2026-09-02T15:00:27.000Z</time>
      </trkpt>
      <trkpt lat="48.12802" lon="6.86854">
        <ele>726.59997558594</ele>
        <time>2026-09-02T15:00:28.000Z</time>
      </trkpt>
      <trkpt lat="48.12801" lon="6.86855">
        <ele>726.80004882812</ele>
        <time>2026-09-02T15:00:29.000Z</time>
      </trkpt>
      <trkpt lat="48.128" lon="6.86856">
        <ele>727</ele>
        <time>2026-09-02T15:00:30.000Z</time>
      </trkpt>
      <trkpt lat="48.12799" lon="6.86856">
        <ele>727</ele>
        <time>2026-09-02T15:00:31.000Z</time>
      </trkpt>
      <trkpt lat="48.12798" lon="6.86857">
        <ele>727.19995117188</ele>
        <time>2026-09-02T15:00:32.000Z</time>
      </trkpt>
      <trkpt lat="48.12797" lon="6.86858">
        <ele>727.19995117188</ele>
        <time>2026-09-02T15:00:33.000Z</time>
      </trkpt>
      <trkpt lat="48.12797" lon="6.86858">
        <ele>727.19995117188</ele>
        <time>2026-09-02T15:00:34.000Z</time>
      </trkpt>
      <trkpt lat="48.12796" lon="6.86857">
        <ele>727.40002441406</ele>
        <time>2026-09-02T15:00:35.000Z</time>
      </trkpt>
      <trkpt lat="48.12796" lon="6.86857">
        <ele>727.40002441406</ele>
        <time>2026-09-02T15:00:36.000Z</time>
      </trkpt>
      <trkpt lat="48.12795" lon="6.86857">
        <ele>727.59997558594</ele>
        <time>2026-09-02T15:00:37.000Z</time>
      </trkpt>
      <trkpt lat="48.12795" lon="6.86857">
        <ele>727.80004882812</ele>
        <time>2026-09-02T15:00:38.000Z</time>
      </trkpt>
      <trkpt lat="48.12794" lon="6.86858">
        <ele>727.80004882812</ele>
        <time>2026-09-02T15:00:39.000Z</time>
      </trkpt>
      <trkpt lat="48.12793" lon="6.86858">
        <ele>728</ele>
        <time>2026-09-02T15:00:40.000Z</time>
      </trkpt>
      <trkpt lat="48.12792" lon="6.86858">
        <ele>728</ele>
        <time>2026-09-02T15:00:41.000Z</time>
      </trkpt>
      <trkpt lat="48.12791" lon="6.86858">
        <ele>728.19995117188</ele>
        <time>2026-09-02T15:00:42.000Z</time>
      </trkpt>
      <trkpt lat="48.12791" lon="6.86859">
        <ele>728.19995117188</ele>
        <time>2026-09-02T15:00:43.000Z</time>
      </trkpt>
      <trkpt lat="48.1279" lon="6.86859">
        <ele>728.40002441406</ele>
        <time>2026-09-02T15:00:44.000Z</time>
      </trkpt>
      <trkpt lat="48.1279" lon="6.8686">
        <ele>728.59997558594</ele>
        <time>2026-09-02T15:00:45.000Z</time>
      </trkpt>
      <trkpt lat="48.12789" lon="6.8686">
        <ele>728.59997558594</ele>
        <time>2026-09-02T15:00:46.000Z</time>
      </trkpt>
      <trkpt lat="48.12789" lon="6.86861">
        <ele>728.80004882812</ele>
        <time>2026-09-02T15:00:47.000Z</time>
      </trkpt>
      <trkpt lat="48.12788" lon="6.86862">
        <ele>729</ele>
        <time>2026-09-02T15:00:48.000Z</time>
      </trkpt>
      <trkpt lat="48.12787" lon="6.86862">
        <ele>729</ele>
        <time>2026-09-02T15:00:49.000Z</time>
      </trkpt>
      <trkpt lat="48.12787" lon="6.86862">
        <ele>729.19995117188</ele>
        <time>2026-09-02T15:00:50.000Z</time>
      </trkpt>
      <trkpt lat="48.12786" lon="6.86863">
        <ele>729.40002441406</ele>
        <time>2026-09-02T15:00:51.000Z</time>
      </trkpt>
      <trkpt lat="48.12785" lon="6.86863">
        <ele>729.40002441406</ele>
        <time>2026-09-02T15:00:52.000Z</time>
      </trkpt>
      <trkpt lat="48.12784" lon="6.86863">
        <ele>729.40002441406</ele>
        <time>2026-09-02T15:00:53.000Z</time>
      </trkpt>
      <trkpt lat="48.12784" lon="6.86864">
        <ele>729.59997558594</ele>
        <time>2026-09-02T15:00:54.000Z</time>
      </trkpt>
      <trkpt lat="48.12782" lon="6.86865">
        <ele>729.59997558594</ele>
        <time>2026-09-02T15:00:55.000Z</time>
      </trkpt>
      <trkpt lat="48.12782" lon="6.86865">
        <ele>729.80004882812</ele>
        <time>2026-09-02T15:00:56.000Z</time>
      </trkpt>
      <trkpt lat="48.12781" lon="6.86864">
        <ele>730</ele>
        <time>2026-09-02T15:00:57.000Z</time>
      </trkpt>
      <trkpt lat="48.1278" lon="6.86865">
        <ele>730.19995117188</ele>
        <time>2026-09-02T15:00:58.000Z</time>
      </trkpt>
      <trkpt lat="48.1278" lon="6.86865">
        <ele>730.40002441406</ele>
        <time>2026-09-02T15:00:59.000Z</time>
      </trkpt>
      <trkpt lat="48.1278" lon="6.86865">
        <ele>730.40002441406</ele>
        <time>2026-09-02T15:01:00.000Z</time>
      </trkpt>
      <trkpt lat="48.12778" lon="6.86865">
        <ele>730.59997558594</ele>
        <time>2026-09-02T15:01:01.000Z</time>
      </trkpt>
      <trkpt lat="48.12779" lon="6.86865">
        <ele>730.59997558594</ele>
        <time>2026-09-02T15:01:02.000Z</time>
      </trkpt>
      <trkpt lat="48.12779" lon="6.86864">
        <ele>730.59997558594</ele>
        <time>2026-09-02T15:01:03.000Z</time>
      </trkpt>
      <trkpt lat="48.12779" lon="6.86864">
        <ele>730.59997558594</ele>
        <time>2026-09-02T15:01:04.000Z</time>
      </trkpt>
      <trkpt lat="48.12779" lon="6.86864">
        <ele>730.59997558594</ele>
        <time>2026-09-02T15:01:05.000Z</time>
      </trkpt>
      <trkpt lat="48.12779" lon="6.86864">
        <ele>730.80004882812</ele>
        <time>2026-09-02T15:01:06.000Z</time>
      </trkpt>
      <trkpt lat="48.12778" lon="6.86865">
        <ele>730.80004882812</ele>
        <time>2026-09-02T15:01:07.000Z</time>
      </trkpt>
      <trkpt lat="48.12778" lon="6.86865">
        <ele>730.80004882812</ele>
        <time>2026-09-02T15:01:08.000Z</time>
      </trkpt>
      <trkpt lat="48.12778" lon="6.86865">
        <ele>730.80004882812</ele>
        <time>2026-09-02T15:01:09.000Z</time>
      </trkpt>
      <trkpt lat="48.12778" lon="6.86865">
        <ele>730.59997558594</ele>
        <time>2026-09-02T15:01:10.000Z</time>
      </trkpt>
      <trkpt lat="48.12778" lon="6.86865">
        <ele>730.59997558594</ele>
        <time>2026-09-02T15:01:11.000Z</time>
      </trkpt>
      <trkpt lat="48.12778" lon="6.86865">
        <ele>730.59997558594</ele>
        <time>2026-09-02T15:01:12.000Z</time>
      </trkpt>
      <trkpt lat="48.12778" lon="6.86865">
        <ele>730.40002441406</ele>
        <time>2026-09-02T15:01:13.000Z</time>
      </trkpt>
      <trkpt lat="48.12778" lon="6.86865">
        <ele>730.59997558594</ele>
        <time>2026-09-02T15:01:14.000Z</time>
      </trkpt>
      <trkpt lat="48.12778" lon="6.86865">
        <ele>730.59997558594</ele>
        <time>2026-09-02T15:01:15.000Z</time>
      </trkpt>
      <trkpt lat="48.12778" lon="6.86865">
        <ele>730.59997558594</ele>
        <time>2026-09-02T15:01:16.000Z</time>
      </trkpt>
      <trkpt lat="48.12778" lon="6.86865">
        <ele>730.59997558594</ele>
        <time>2026-09-02T15:01:17.000Z</time>
      </trkpt>
      <trkpt lat="48.12778" lon="6.86867">
        <ele>730.80004882812</ele>
        <time>2026-09-02T15:01:18.000Z</time>
      </trkpt>
      <trkpt lat="48.12776" lon="6.86868">
        <ele>730.80004882812</ele>
        <time>2026-09-02T15:01:19.000Z</time>
      </trkpt>
      <trkpt lat="48.12775" lon="6.86869">
        <ele>730.80004882812</ele>
        <time>2026-09-02T15:01:20.000Z</time>
      </trkpt>
      <trkpt lat="48.12773" lon="6.86871">
        <ele>731</ele>
        <time>2026-09-02T15:01:21.000Z</time>
      </trkpt>
      <trkpt lat="48.12773" lon="6.86872">
        <ele>731.19995117188</ele>
        <time>2026-09-02T15:01:22.000Z</time>
      </trkpt>
      <trkpt lat="48.12772" lon="6.86872">
        <ele>731.40002441406</ele>
        <time>2026-09-02T15:01:23.000Z</time>
      </trkpt>
      <trkpt lat="48.12771" lon="6.86873">
        <ele>731.59997558594</ele>
        <time>2026-09-02T15:01:24.000Z</time>
      </trkpt>
      <trkpt lat="48.1277" lon="6.86873">
        <ele>731.59997558594</ele>
        <time>2026-09-02T15:01:25.000Z</time>
      </trkpt>
      <trkpt lat="48.1277" lon="6.86873">
        <ele>731.59997558594</ele>
        <time>2026-09-02T15:01:26.000Z</time>
      </trkpt>
      <trkpt lat="48.12769" lon="6.86874">
        <ele>731.59997558594</ele>
        <time>2026-09-02T15:01:27.000Z</time>
      </trkpt>
      <trkpt lat="48.12769" lon="6.86874">
        <ele>731.59997558594</ele>
        <time>2026-09-02T15:01:28.000Z</time>
      </trkpt>
      <trkpt lat="48.12768" lon="6.86874">
        <ele>731.59997558594</ele>
        <time>2026-09-02T15:01:29.000Z</time>
      </trkpt>
      <trkpt lat="48.12767" lon="6.86875">
        <ele>731.59997558594</ele>
        <time>2026-09-02T15:01:30.000Z</time>
      </trkpt>
      <trkpt lat="48.12767" lon="6.86875">
        <ele>731.80004882812</ele>
        <time>2026-09-02T15:01:31.000Z</time>
      </trkpt>
      <trkpt lat="48.12766" lon="6.86876">
        <ele>732</ele>
        <time>2026-09-02T15:01:32.000Z</time>
      </trkpt>
      <trkpt lat="48.12766" lon="6.86876">
        <ele>732.19995117188</ele>
        <time>2026-09-02T15:01:33.000Z</time>
      </trkpt>
      <trkpt lat="48.12766" lon="6.86876">
        <ele>732.40002441406</ele>
        <time>2026-09-02T15:01:34.000Z</time>
      </trkpt>
      <trkpt lat="48.12765" lon="6.86876">
        <ele>732.59997558594</ele>
        <time>2026-09-02T15:01:35.000Z</time>
      </trkpt>
      <trkpt lat="48.12765" lon="6.86876">
        <ele>732.80004882812</ele>
        <time>2026-09-02T15:01:36.000Z</time>
      </trkpt>
      <trkpt lat="48.12764" lon="6.86876">
        <ele>732.80004882812</ele>
        <time>2026-09-02T15:01:37.000Z</time>
      </trkpt>
      <trkpt lat="48.12764" lon="6.86876">
        <ele>733</ele>
        <time>2026-09-02T15:01:38.000Z</time>
      </trkpt>
      <trkpt lat="48.12765" lon="6.86876">
        <ele>733.19995117188</ele>
        <time>2026-09-02T15:01:39.000Z</time>
      </trkpt>
      <trkpt lat="48.12766" lon="6.86875">
        <ele>733.19995117188</ele>
        <time>2026-09-02T15:01:40.000Z</time>
      </trkpt>
      <trkpt lat="48.12766" lon="6.86874">
        <ele>733</ele>
        <time>2026-09-02T15:01:41.000Z</time>
      </trkpt>
      <trkpt lat="48.12766" lon="6.86874">
        <ele>732.80004882812</ele>
        <time>2026-09-02T15:01:42.000Z</time>
      </trkpt>
      <trkpt lat="48.12766" lon="6.86874">
        <ele>732.80004882812</ele>
        <time>2026-09-02T15:01:43.000Z</time>
      </trkpt>
      <trkpt lat="48.12766" lon="6.86874">
        <ele>732.80004882812</ele>
        <time>2026-09-02T15:01:44.000Z</time>
      </trkpt>
      <trkpt lat="48.12766" lon="6.86874">
        <ele>732.80004882812</ele>
        <time>2026-09-02T15:01:45.000Z</time>
      </trkpt>
      <trkpt lat="48.12766" lon="6.86874">
        <ele>733</ele>
        <time>2026-09-02T15:01:46.000Z</time>
      </trkpt>
      <trkpt lat="48.12766" lon="6.86874">
        <ele>733.19995117188</ele>
        <time>2026-09-02T15:01:47.000Z</time>
      </trkpt>
      <trkpt lat="48.12766" lon="6.86874">
        <ele>733.40002441406</ele>
        <time>2026-09-02T15:01:48.000Z</time>
      </trkpt>
      <trkpt lat="48.12766" lon="6.86874">
        <ele>733.40002441406</ele>
        <time>2026-09-02T15:01:49.000Z</time>
      </trkpt>
      <trkpt lat="48.12767" lon="6.86874">
        <ele>733.19995117188</ele>
        <time>2026-09-02T15:01:50.000Z</time>
      </trkpt>
      <trkpt lat="48.12767" lon="6.86873">
        <ele>733</ele>
        <time>2026-09-02T15:01:51.000Z</time>
      </trkpt>
      <trkpt lat="48.12768" lon="6.86873">
        <ele>732.80004882812</ele>
        <time>2026-09-02T15:01:52.000Z</time>
      </trkpt>
      <trkpt lat="48.12767" lon="6.86873">
        <ele>732.59997558594</ele>
        <time>2026-09-02T15:01:53.000Z</time>
      </trkpt>
      <trkpt lat="48.12767" lon="6.86873">
        <ele>732.59997558594</ele>
        <time>2026-09-02T15:01:54.000Z</time>
      </trkpt>
      <trkpt lat="48.12767" lon="6.86873">
        <ele>732.80004882812</ele>
        <time>2026-09-02T15:01:55.000Z</time>
      </trkpt>
      <trkpt lat="48.12767" lon="6.86873">
        <ele>733</ele>
        <time>2026-09-02T15:01:56.000Z</time>
      </trkpt>
      <trkpt lat="48.12767" lon="6.86873">
        <ele>733.19995117188</ele>
        <time>2026-09-02T15:01:57.000Z</time>
      </trkpt>
      <trkpt lat="48.12767" lon="6.86873">
        <ele>733.40002441406</ele>
        <time>2026-09-02T15:01:58.000Z</time>
      </trkpt>
      <trkpt lat="48.12767" lon="6.86873">
        <ele>733.40002441406</ele>
        <time>2026-09-02T15:01:59.000Z</time>
      </trkpt>
      <trkpt lat="48.12767" lon="6.86873">
        <ele>733.19995117188</ele>
        <time>2026-09-02T15:02:00.000Z</time>
      </trkpt>
      <trkpt lat="48.12767" lon="6.86873">
        <ele>733.19995117188</ele>
        <time>2026-09-02T15:02:01.000Z</time>
      </trkpt>
      <trkpt lat="48.12767" lon="6.86873">
        <ele>733</ele>
        <time>2026-09-02T15:02:02.000Z</time>
      </trkpt>
      <trkpt lat="48.12766" lon="6.86875">
        <ele>733</ele>
        <time>2026-09-02T15:02:03.000Z</time>
      </trkpt>
      <trkpt lat="48.12766" lon="6.86875">
        <ele>733</ele>
        <time>2026-09-02T15:02:04.000Z</time>
      </trkpt>
      <trkpt lat="48.12766" lon="6.86875">
        <ele>733</ele>
        <time>2026-09-02T15:02:05.000Z</time>
      </trkpt>
      <trkpt lat="48.12766" lon="6.86875">
        <ele>733.19995117188</ele>
        <time>2026-09-02T15:02:06.000Z</time>
      </trkpt>
      <trkpt lat="48.12765" lon="6.86876">
        <ele>733.19995117188</ele>
        <time>2026-09-02T15:02:07.000Z</time>
      </trkpt>
      <trkpt lat="48.12764" lon="6.86877">
        <ele>733.40002441406</ele>
        <time>2026-09-02T15:02:08.000Z</time>
      </trkpt>
      <trkpt lat="48.12763" lon="6.86878">
        <ele>733.40002441406</ele>
        <time>2026-09-02T15:02:09.000Z</time>
      </trkpt>
      <trkpt lat="48.12761" lon="6.8688">
        <ele>733.59997558594</ele>
        <time>2026-09-02T15:02:10.000Z</time>
      </trkpt>
      <trkpt lat="48.1276" lon="6.8688">
        <ele>733.59997558594</ele>
        <time>2026-09-02T15:02:11.000Z</time>
      </trkpt>
      <trkpt lat="48.1276" lon="6.86881">
        <ele>733.80004882812</ele>
        <time>2026-09-02T15:02:12.000Z</time>
      </trkpt>
      <trkpt lat="48.12758" lon="6.86882">
        <ele>734</ele>
        <time>2026-09-02T15:02:13.000Z</time>
      </trkpt>
      <trkpt lat="48.12757" lon="6.86883">
        <ele>734</ele>
        <time>2026-09-02T15:02:14.000Z</time>
      </trkpt>
      <trkpt lat="48.12756" lon="6.86884">
        <ele>734.19995117188</ele>
        <time>2026-09-02T15:02:15.000Z</time>
      </trkpt>
      <trkpt lat="48.12755" lon="6.86884">
        <ele>734.19995117188</ele>
        <time>2026-09-02T15:02:16.000Z</time>
      </trkpt>
      <trkpt lat="48.12755" lon="6.86885">
        <ele>734.40002441406</ele>
        <time>2026-09-02T15:02:17.000Z</time>
      </trkpt>
      <trkpt lat="48.12754" lon="6.86886">
        <ele>734.59997558594</ele>
        <time>2026-09-02T15:02:18.000Z</time>
      </trkpt>
      <trkpt lat="48.12753" lon="6.86886">
        <ele>734.59997558594</ele>
        <time>2026-09-02T15:02:19.000Z</time>
      </trkpt>
      <trkpt lat="48.12751" lon="6.86887">
        <ele>734.80004882812</ele>
        <time>2026-09-02T15:02:20.000Z</time>
      </trkpt>
      <trkpt lat="48.12751" lon="6.86888">
        <ele>735</ele>
        <time>2026-09-02T15:02:21.000Z</time>
      </trkpt>
      <trkpt lat="48.12751" lon="6.86888">
        <ele>735</ele>
        <time>2026-09-02T15:02:22.000Z</time>
      </trkpt>
      <trkpt lat="48.1275" lon="6.86889">
        <ele>735.19995117188</ele>
        <time>2026-09-02T15:02:23.000Z</time>
      </trkpt>
      <trkpt lat="48.1275" lon="6.86889">
        <ele>735.19995117188</ele>
        <time>2026-09-02T15:02:24.000Z</time>
      </trkpt>
      <trkpt lat="48.12749" lon="6.8689">
        <ele>735.40002441406</ele>
        <time>2026-09-02T15:02:25.000Z</time>
      </trkpt>
      <trkpt lat="48.12749" lon="6.8689">
        <ele>735.40002441406</ele>
        <time>2026-09-02T15:02:26.000Z</time>
      </trkpt>
      <trkpt lat="48.12748" lon="6.8689">
        <ele>735.59997558594</ele>
        <time>2026-09-02T15:02:27.000Z</time>
      </trkpt>
      <trkpt lat="48.12748" lon="6.86891">
        <ele>735.59997558594</ele>
        <time>2026-09-02T15:02:28.000Z</time>
      </trkpt>
      <trkpt lat="48.12748" lon="6.86891">
        <ele>735.59997558594</ele>
        <time>2026-09-02T15:02:29.000Z</time>
      </trkpt>
      <trkpt lat="48.12748" lon="6.86891">
        <ele>735.59997558594</ele>
        <time>2026-09-02T15:02:30.000Z</time>
      </trkpt>
      <trkpt lat="48.12748" lon="6.86891">
        <ele>735.59997558594</ele>
        <time>2026-09-02T15:02:31.000Z</time>
      </trkpt>
      <trkpt lat="48.12748" lon="6.86892">
        <ele>735.59997558594</ele>
        <time>2026-09-02T15:02:32.000Z</time>
      </trkpt>
      <trkpt lat="48.12747" lon="6.86892">
        <ele>735.40002441406</ele>
        <time>2026-09-02T15:02:33.000Z</time>
      </trkpt>
      <trkpt lat="48.12747" lon="6.86892">
        <ele>735.19995117188</ele>
        <time>2026-09-02T15:02:34.000Z</time>
      </trkpt>
      <trkpt lat="48.12746" lon="6.86893">
        <ele>735.19995117188</ele>
        <time>2026-09-02T15:02:35.000Z</time>
      </trkpt>
      <trkpt lat="48.12746" lon="6.86893">
        <ele>735</ele>
        <time>2026-09-02T15:02:36.000Z</time>
      </trkpt>
      <trkpt lat="48.12746" lon="6.86893">
        <ele>735</ele>
        <time>2026-09-02T15:02:37.000Z</time>
      </trkpt>
      <trkpt lat="48.12746" lon="6.86893">
        <ele>735</ele>
        <time>2026-09-02T15:02:38.000Z</time>
      </trkpt>
      <trkpt lat="48.12745" lon="6.86894">
        <ele>735</ele>
        <time>2026-09-02T15:02:39.000Z</time>
      </trkpt>
      <trkpt lat="48.12743" lon="6.86895">
        <ele>735</ele>
        <time>2026-09-02T15:02:40.000Z</time>
      </trkpt>
      <trkpt lat="48.12743" lon="6.86895">
        <ele>735</ele>
        <time>2026-09-02T15:02:41.000Z</time>
      </trkpt>
      <trkpt lat="48.12742" lon="6.86896">
        <ele>735.19995117188</ele>
        <time>2026-09-02T15:02:42.000Z</time>
      </trkpt>
      <trkpt lat="48.12741" lon="6.86896">
        <ele>735.40002441406</ele>
        <time>2026-09-02T15:02:43.000Z</time>
      </trkpt>
      <trkpt lat="48.1274" lon="6.86896">
        <ele>735.59997558594</ele>
        <time>2026-09-02T15:02:44.000Z</time>
      </trkpt>
      <trkpt lat="48.12739" lon="6.86897">
        <ele>735.59997558594</ele>
        <time>2026-09-02T15:02:45.000Z</time>
      </trkpt>
      <trkpt lat="48.12739" lon="6.86897">
        <ele>735.80004882812</ele>
        <time>2026-09-02T15:02:46.000Z</time>
      </trkpt>
      <trkpt lat="48.12738" lon="6.86897">
        <ele>735.80004882812</ele>
        <time>2026-09-02T15:02:47.000Z</time>
      </trkpt>
      <trkpt lat="48.12738" lon="6.86897">
        <ele>736</ele>
        <time>2026-09-02T15:02:48.000Z</time>
      </trkpt>
      <trkpt lat="48.12738" lon="6.86898">
        <ele>736</ele>
        <time>2026-09-02T15:02:49.000Z</time>
      </trkpt>
      <trkpt lat="48.12737" lon="6.86898">
        <ele>736</ele>
        <time>2026-09-02T15:02:50.000Z</time>
      </trkpt>
      <trkpt lat="48.12737" lon="6.86898">
        <ele>736.19995117188</ele>
        <time>2026-09-02T15:02:51.000Z</time>
      </trkpt>
      <trkpt lat="48.12737" lon="6.86898">
        <ele>736.40002441406</ele>
        <time>2026-09-02T15:02:52.000Z</time>
      </trkpt>
      <trkpt lat="48.12737" lon="6.86898">
        <ele>736.59997558594</ele>
        <time>2026-09-02T15:02:53.000Z</time>
      </trkpt>
      <trkpt lat="48.12737" lon="6.86898">
        <ele>736.59997558594</ele>
        <time>2026-09-02T15:02:54.000Z</time>
      </trkpt>
      <trkpt lat="48.12737" lon="6.86898">
        <ele>736.80004882812</ele>
        <time>2026-09-02T15:02:55.000Z</time>
      </trkpt>
      <trkpt lat="48.12737" lon="6.86898">
        <ele>736.59997558594</ele>
        <time>2026-09-02T15:02:56.000Z</time>
      </trkpt>
      <trkpt lat="48.12737" lon="6.86898">
        <ele>736.59997558594</ele>
        <time>2026-09-02T15:02:57.000Z</time>
      </trkpt>
      <trkpt lat="48.12737" lon="6.86898">
        <ele>736.59997558594</ele>
        <time>2026-09-02T15:02:58.000Z</time>
      </trkpt>
      <trkpt lat="48.12737" lon="6.86898">
        <ele>736.40002441406</ele>
        <time>2026-09-02T15:02:59.000Z</time>
      </trkpt>
      <trkpt lat="48.12737" lon="6.86898">
        <ele>736.40002441406</ele>
        <time>2026-09-02T15:03:00.000Z</time>
      </trkpt>
      <trkpt lat="48.12737" lon="6.86898">
        <ele>736.40002441406</ele>
        <time>2026-09-02T15:03:01.000Z</time>
      </trkpt>
      <trkpt lat="48.12737" lon="6.86898">
        <ele>736.40002441406</ele>
        <time>2026-09-02T15:03:02.000Z</time>
      </trkpt>
      <trkpt lat="48.12737" lon="6.86898">
        <ele>736.40002441406</ele>
        <time>2026-09-02T15:03:03.000Z</time>
      </trkpt>
      <trkpt lat="48.12737" lon="6.86898">
        <ele>736.40002441406</ele>
        <time>2026-09-02T15:03:04.000Z</time>
      </trkpt>
      <trkpt lat="48.12737" lon="6.86898">
        <ele>736.19995117188</ele>
        <time>2026-09-02T15:03:05.000Z</time>
      </trkpt>
      <trkpt lat="48.12737" lon="6.86898">
        <ele>736.19995117188</ele>
        <time>2026-09-02T15:03:06.000Z</time>
      </trkpt>
      <trkpt lat="48.12737" lon="6.86898">
        <ele>736.19995117188</ele>
        <time>2026-09-02T15:03:07.000Z</time>
      </trkpt>
      <trkpt lat="48.12737" lon="6.86898">
        <ele>736.19995117188</ele>
        <time>2026-09-02T15:03:08.000Z</time>
      </trkpt>
      <trkpt lat="48.12737" lon="6.86898">
        <ele>736.19995117188</ele>
        <time>2026-09-02T15:03:09.000Z</time>
      </trkpt>
      <trkpt lat="48.12737" lon="6.86898">
        <ele>736.19995117188</ele>
        <time>2026-09-02T15:03:10.000Z</time>
      </trkpt>
      <trkpt lat="48.12737" lon="6.86898">
        <ele>736.19995117188</ele>
        <time>2026-09-02T15:03:11.000Z</time>
      </trkpt>
      <trkpt lat="48.12737" lon="6.86898">
        <ele>736.19995117188</ele>
        <time>2026-09-02T15:03:12.000Z</time>
      </trkpt>
      <trkpt lat="48.12737" lon="6.86898">
        <ele>736.40002441406</ele>
        <time>2026-09-02T15:03:13.000Z</time>
      </trkpt>
      <trkpt lat="48.12737" lon="6.86898">
        <ele>736.40002441406</ele>
        <time>2026-09-02T15:03:14.000Z</time>
      </trkpt>
      <trkpt lat="48.12737" lon="6.86898">
        <ele>736.40002441406</ele>
        <time>2026-09-02T15:03:15.000Z</time>
      </trkpt>
      <trkpt lat="48.12737" lon="6.86898">
        <ele>736.19995117188</ele>
        <time>2026-09-02T15:03:16.000Z</time>
      </trkpt>
      <trkpt lat="48.12737" lon="6.86898">
        <ele>736.19995117188</ele>
        <time>2026-09-02T15:03:17.000Z</time>
      </trkpt>
      <trkpt lat="48.12737" lon="6.86898">
        <ele>736.19995117188</ele>
        <time>2026-09-02T15:03:18.000Z</time>
      </trkpt>
      <trkpt lat="48.12737" lon="6.86898">
        <ele>736.19995117188</ele>
        <time>2026-09-02T15:03:19.000Z</time>
      </trkpt>
      <trkpt lat="48.12737" lon="6.86897">
        <ele>736.19995117188</ele>
        <time>2026-09-02T15:03:20.000Z</time>
      </trkpt>
      <trkpt lat="48.12736" lon="6.86896">
        <ele>736.19995117188</ele>
        <time>2026-09-02T15:03:21.000Z</time>
      </trkpt>
      <trkpt lat="48.12735" lon="6.86896">
        <ele>736.40002441406</ele>
        <time>2026-09-02T15:03:22.000Z</time>
      </trkpt>
      <trkpt lat="48.12734" lon="6.86895">
        <ele>736.59997558594</ele>
        <time>2026-09-02T15:03:23.000Z</time>
      </trkpt>
      <trkpt lat="48.12734" lon="6.86895">
        <ele>736.59997558594</ele>
        <time>2026-09-02T15:03:24.000Z</time>
      </trkpt>
      <trkpt lat="48.12733" lon="6.86895">
        <ele>736.80004882812</ele>
        <time>2026-09-02T15:03:25.000Z</time>
      </trkpt>
      <trkpt lat="48.12732" lon="6.86894">
        <ele>737</ele>
        <time>2026-09-02T15:03:26.000Z</time>
      </trkpt>
      <trkpt lat="48.12732" lon="6.86893">
        <ele>737</ele>
        <time>2026-09-02T15:03:27.000Z</time>
      </trkpt>
      <trkpt lat="48.12731" lon="6.86893">
        <ele>737.19995117188</ele>
        <time>2026-09-02T15:03:28.000Z</time>
      </trkpt>
      <trkpt lat="48.12731" lon="6.86893">
        <ele>737.19995117188</ele>
        <time>2026-09-02T15:03:29.000Z</time>
      </trkpt>
      <trkpt lat="48.1273" lon="6.86893">
        <ele>737.40002441406</ele>
        <time>2026-09-02T15:03:30.000Z</time>
      </trkpt>
      <trkpt lat="48.1273" lon="6.86893">
        <ele>737.40002441406</ele>
        <time>2026-09-02T15:03:31.000Z</time>
      </trkpt>
      <trkpt lat="48.12729" lon="6.86893">
        <ele>737.40002441406</ele>
        <time>2026-09-02T15:03:32.000Z</time>
      </trkpt>
      <trkpt lat="48.12729" lon="6.86893">
        <ele>737.59997558594</ele>
        <time>2026-09-02T15:03:33.000Z</time>
      </trkpt>
      <trkpt lat="48.12728" lon="6.86893">
        <ele>737.59997558594</ele>
        <time>2026-09-02T15:03:34.000Z</time>
      </trkpt>
      <trkpt lat="48.12728" lon="6.86893">
        <ele>737.59997558594</ele>
        <time>2026-09-02T15:03:35.000Z</time>
      </trkpt>
      <trkpt lat="48.12727" lon="6.86893">
        <ele>737.80004882812</ele>
        <time>2026-09-02T15:03:36.000Z</time>
      </trkpt>
      <trkpt lat="48.12727" lon="6.86893">
        <ele>737.80004882812</ele>
        <time>2026-09-02T15:03:37.000Z</time>
      </trkpt>
      <trkpt lat="48.12726" lon="6.86894">
        <ele>738</ele>
        <time>2026-09-02T15:03:38.000Z</time>
      </trkpt>
      <trkpt lat="48.12726" lon="6.86893">
        <ele>738.19995117188</ele>
        <time>2026-09-02T15:03:39.000Z</time>
      </trkpt>
      <trkpt lat="48.12725" lon="6.86893">
        <ele>738.40002441406</ele>
        <time>2026-09-02T15:03:40.000Z</time>
      </trkpt>
      <trkpt lat="48.12725" lon="6.86892">
        <ele>738.40002441406</ele>
        <time>2026-09-02T15:03:41.000Z</time>
      </trkpt>
      <trkpt lat="48.12725" lon="6.86893">
        <ele>738.80004882812</ele>
        <time>2026-09-02T15:03:42.000Z</time>
      </trkpt>
      <trkpt lat="48.12724" lon="6.86893">
        <ele>739</ele>
        <time>2026-09-02T15:03:43.000Z</time>
      </trkpt>
      <trkpt lat="48.12723" lon="6.86893">
        <ele>739.40002441406</ele>
        <time>2026-09-02T15:03:44.000Z</time>
      </trkpt>
      <trkpt lat="48.12722" lon="6.86893">
        <ele>739.80004882812</ele>
        <time>2026-09-02T15:03:45.000Z</time>
      </trkpt>
      <trkpt lat="48.12721" lon="6.86893">
        <ele>740.19995117188</ele>
        <time>2026-09-02T15:03:46.000Z</time>
      </trkpt>
      <trkpt lat="48.12721" lon="6.86894">
        <ele>740.19995117188</ele>
        <time>2026-09-02T15:03:47.000Z</time>
      </trkpt>
      <trkpt lat="48.1272" lon="6.86893">
        <ele>740.40002441406</ele>
        <time>2026-09-02T15:03:48.000Z</time>
      </trkpt>
      <trkpt lat="48.1272" lon="6.86893">
        <ele>740.40002441406</ele>
        <time>2026-09-02T15:03:49.000Z</time>
      </trkpt>
      <trkpt lat="48.12719" lon="6.86893">
        <ele>740.40002441406</ele>
        <time>2026-09-02T15:03:50.000Z</time>
      </trkpt>
      <trkpt lat="48.12719" lon="6.86893">
        <ele>740.40002441406</ele>
        <time>2026-09-02T15:03:51.000Z</time>
      </trkpt>
      <trkpt lat="48.12718" lon="6.86893">
        <ele>740.59997558594</ele>
        <time>2026-09-02T15:03:52.000Z</time>
      </trkpt>
      <trkpt lat="48.12718" lon="6.86893">
        <ele>740.59997558594</ele>
        <time>2026-09-02T15:03:53.000Z</time>
      </trkpt>
      <trkpt lat="48.12718" lon="6.86893">
        <ele>740.80004882812</ele>
        <time>2026-09-02T15:03:54.000Z</time>
      </trkpt>
      <trkpt lat="48.12718" lon="6.86893">
        <ele>740.80004882812</ele>
        <time>2026-09-02T15:03:55.000Z</time>
      </trkpt>
      <trkpt lat="48.12718" lon="6.86893">
        <ele>740.59997558594</ele>
        <time>2026-09-02T15:03:56.000Z</time>
      </trkpt>
      <trkpt lat="48.12718" lon="6.86893">
        <ele>740.59997558594</ele>
        <time>2026-09-02T15:03:57.000Z</time>
      </trkpt>
      <trkpt lat="48.12718" lon="6.86893">
        <ele>740.59997558594</ele>
        <time>2026-09-02T15:03:58.000Z</time>
      </trkpt>
      <trkpt lat="48.12718" lon="6.86893">
        <ele>740.59997558594</ele>
        <time>2026-09-02T15:03:59.000Z</time>
      </trkpt>
      <trkpt lat="48.12718" lon="6.86893">
        <ele>740.59997558594</ele>
        <time>2026-09-02T15:04:00.000Z</time>
      </trkpt>
      <trkpt lat="48.12718" lon="6.86893">
        <ele>740.59997558594</ele>
        <time>2026-09-02T15:04:01.000Z</time>
      </trkpt>
      <trkpt lat="48.12718" lon="6.86893">
        <ele>740.59997558594</ele>
        <time>2026-09-02T15:04:02.000Z</time>
      </trkpt>
      <trkpt lat="48.12718" lon="6.86893">
        <ele>740.59997558594</ele>
        <time>2026-09-02T15:04:03.000Z</time>
      </trkpt>
      <trkpt lat="48.12718" lon="6.86893">
        <ele>740.59997558594</ele>
        <time>2026-09-02T15:04:04.000Z</time>
      </trkpt>
      <trkpt lat="48.12717" lon="6.86893">
        <ele>740.59997558594</ele>
        <time>2026-09-02T15:04:05.000Z</time>
      </trkpt>
      <trkpt lat="48.12716" lon="6.86893">
        <ele>740.80004882812</ele>
        <time>2026-09-02T15:04:06.000Z</time>
      </trkpt>
      <trkpt lat="48.12715" lon="6.86893">
        <ele>741</ele>
        <time>2026-09-02T15:04:07.000Z</time>
      </trkpt>
      <trkpt lat="48.12715" lon="6.86893">
        <ele>741.19995117188</ele>
        <time>2026-09-02T15:04:08.000Z</time>
      </trkpt>
      <trkpt lat="48.12715" lon="6.86893">
        <ele>741.19995117188</ele>
        <time>2026-09-02T15:04:09.000Z</time>
      </trkpt>
      <trkpt lat="48.12714" lon="6.86893">
        <ele>741.40002441406</ele>
        <time>2026-09-02T15:04:10.000Z</time>
      </trkpt>
      <trkpt lat="48.12714" lon="6.86892">
        <ele>741.59997558594</ele>
        <time>2026-09-02T15:04:11.000Z</time>
      </trkpt>
      <trkpt lat="48.12713" lon="6.86892">
        <ele>741.59997558594</ele>
        <time>2026-09-02T15:04:12.000Z</time>
      </trkpt>
      <trkpt lat="48.12713" lon="6.86892">
        <ele>741.59997558594</ele>
        <time>2026-09-02T15:04:13.000Z</time>
      </trkpt>
      <trkpt lat="48.12712" lon="6.86892">
        <ele>741.80004882812</ele>
        <time>2026-09-02T15:04:14.000Z</time>
      </trkpt>
      <trkpt lat="48.12711" lon="6.86892">
        <ele>741.80004882812</ele>
        <time>2026-09-02T15:04:15.000Z</time>
      </trkpt>
      <trkpt lat="48.12711" lon="6.86891">
        <ele>741.80004882812</ele>
        <time>2026-09-02T15:04:16.000Z</time>
      </trkpt>
      <trkpt lat="48.1271" lon="6.86891">
        <ele>742</ele>
        <time>2026-09-02T15:04:17.000Z</time>
      </trkpt>
      <trkpt lat="48.12709" lon="6.86891">
        <ele>742</ele>
        <time>2026-09-02T15:04:18.000Z</time>
      </trkpt>
      <trkpt lat="48.12709" lon="6.86891">
        <ele>742.19995117188</ele>
        <time>2026-09-02T15:04:19.000Z</time>
      </trkpt>
      <trkpt lat="48.12709" lon="6.86891">
        <ele>742.40002441406</ele>
        <time>2026-09-02T15:04:20.000Z</time>
      </trkpt>
      <trkpt lat="48.12709" lon="6.86891">
        <ele>742.40002441406</ele>
        <time>2026-09-02T15:04:21.000Z</time>
      </trkpt>
      <trkpt lat="48.12709" lon="6.86891">
        <ele>742.59997558594</ele>
        <time>2026-09-02T15:04:22.000Z</time>
      </trkpt>
      <trkpt lat="48.12709" lon="6.86891">
        <ele>742.59997558594</ele>
        <time>2026-09-02T15:04:23.000Z</time>
      </trkpt>
      <trkpt lat="48.12709" lon="6.86891">
        <ele>742.59997558594</ele>
        <time>2026-09-02T15:04:24.000Z</time>
      </trkpt>
      <trkpt lat="48.12709" lon="6.86891">
        <ele>742.59997558594</ele>
        <time>2026-09-02T15:04:25.000Z</time>
      </trkpt>
      <trkpt lat="48.12709" lon="6.86891">
        <ele>742.59997558594</ele>
        <time>2026-09-02T15:04:26.000Z</time>
      </trkpt>
      <trkpt lat="48.12709" lon="6.86891">
        <ele>742.59997558594</ele>
        <time>2026-09-02T15:04:27.000Z</time>
      </trkpt>
      <trkpt lat="48.12709" lon="6.86891">
        <ele>742.40002441406</ele>
        <time>2026-09-02T15:04:28.000Z</time>
      </trkpt>
      <trkpt lat="48.12709" lon="6.86891">
        <ele>742.59997558594</ele>
        <time>2026-09-02T15:04:29.000Z</time>
      </trkpt>
      <trkpt lat="48.12709" lon="6.86891">
        <ele>742.59997558594</ele>
        <time>2026-09-02T15:04:30.000Z</time>
      </trkpt>
      <trkpt lat="48.12708" lon="6.86891">
        <ele>742.59997558594</ele>
        <time>2026-09-02T15:04:31.000Z</time>
      </trkpt>
      <trkpt lat="48.12707" lon="6.86891">
        <ele>742.59997558594</ele>
        <time>2026-09-02T15:04:32.000Z</time>
      </trkpt>
      <trkpt lat="48.12707" lon="6.86891">
        <ele>742.80004882812</ele>
        <time>2026-09-02T15:04:33.000Z</time>
      </trkpt>
      <trkpt lat="48.12706" lon="6.86891">
        <ele>742.80004882812</ele>
        <time>2026-09-02T15:04:34.000Z</time>
      </trkpt>
      <trkpt lat="48.12706" lon="6.86891">
        <ele>743</ele>
        <time>2026-09-02T15:04:35.000Z</time>
      </trkpt>
      <trkpt lat="48.12706" lon="6.86891">
        <ele>743</ele>
        <time>2026-09-02T15:04:36.000Z</time>
      </trkpt>
      <trkpt lat="48.12706" lon="6.86891">
        <ele>743</ele>
        <time>2026-09-02T15:04:37.000Z</time>
      </trkpt>
      <trkpt lat="48.12706" lon="6.86891">
        <ele>742.80004882812</ele>
        <time>2026-09-02T15:04:38.000Z</time>
      </trkpt>
      <trkpt lat="48.12706" lon="6.86891">
        <ele>742.80004882812</ele>
        <time>2026-09-02T15:04:39.000Z</time>
      </trkpt>
      <trkpt lat="48.12706" lon="6.86891">
        <ele>742.80004882812</ele>
        <time>2026-09-02T15:04:40.000Z</time>
      </trkpt>
      <trkpt lat="48.12706" lon="6.86891">
        <ele>742.80004882812</ele>
        <time>2026-09-02T15:04:41.000Z</time>
      </trkpt>
      <trkpt lat="48.12706" lon="6.86891">
        <ele>742.80004882812</ele>
        <time>2026-09-02T15:04:42.000Z</time>
      </trkpt>
      <trkpt lat="48.12706" lon="6.86891">
        <ele>742.80004882812</ele>
        <time>2026-09-02T15:04:43.000Z</time>
      </trkpt>
      <trkpt lat="48.12706" lon="6.86891">
        <ele>742.80004882812</ele>
        <time>2026-09-02T15:04:44.000Z</time>
      </trkpt>
      <trkpt lat="48.12706" lon="6.86891">
        <ele>742.80004882812</ele>
        <time>2026-09-02T15:04:45.000Z</time>
      </trkpt>
      <trkpt lat="48.12705" lon="6.86891">
        <ele>742.80004882812</ele>
        <time>2026-09-02T15:04:46.000Z</time>
      </trkpt>
      <trkpt lat="48.12704" lon="6.86891">
        <ele>743</ele>
        <time>2026-09-02T15:04:47.000Z</time>
      </trkpt>
      <trkpt lat="48.12703" lon="6.8689">
        <ele>743.19995117188</ele>
        <time>2026-09-02T15:04:48.000Z</time>
      </trkpt>
      <trkpt lat="48.12702" lon="6.86889">
        <ele>743.19995117188</ele>
        <time>2026-09-02T15:04:49.000Z</time>
      </trkpt>
      <trkpt lat="48.12701" lon="6.86888">
        <ele>743.40002441406</ele>
        <time>2026-09-02T15:04:50.000Z</time>
      </trkpt>
      <trkpt lat="48.127" lon="6.86888">
        <ele>743.59997558594</ele>
        <time>2026-09-02T15:04:51.000Z</time>
      </trkpt>
      <trkpt lat="48.127" lon="6.86888">
        <ele>743.59997558594</ele>
        <time>2026-09-02T15:04:52.000Z</time>
      </trkpt>
      <trkpt lat="48.12699" lon="6.86887">
        <ele>743.59997558594</ele>
        <time>2026-09-02T15:04:53.000Z</time>
      </trkpt>
      <trkpt lat="48.12698" lon="6.86887">
        <ele>743.59997558594</ele>
        <time>2026-09-02T15:04:54.000Z</time>
      </trkpt>
      <trkpt lat="48.12697" lon="6.86887">
        <ele>743.80004882812</ele>
        <time>2026-09-02T15:04:55.000Z</time>
      </trkpt>
      <trkpt lat="48.12697" lon="6.86886">
        <ele>743.80004882812</ele>
        <time>2026-09-02T15:04:56.000Z</time>
      </trkpt>
      <trkpt lat="48.12696" lon="6.86886">
        <ele>744</ele>
        <time>2026-09-02T15:04:57.000Z</time>
      </trkpt>
      <trkpt lat="48.12696" lon="6.86886">
        <ele>744.19995117188</ele>
        <time>2026-09-02T15:04:58.000Z</time>
      </trkpt>
      <trkpt lat="48.12696" lon="6.86886">
        <ele>744.19995117188</ele>
        <time>2026-09-02T15:04:59.000Z</time>
      </trkpt>
      <trkpt lat="48.12696" lon="6.86885">
        <ele>744.40002441406</ele>
        <time>2026-09-02T15:05:00.000Z</time>
      </trkpt>
      <trkpt lat="48.12696" lon="6.86885">
        <ele>744.40002441406</ele>
        <time>2026-09-02T15:05:01.000Z</time>
      </trkpt>
      <trkpt lat="48.12696" lon="6.86885">
        <ele>744.40002441406</ele>
        <time>2026-09-02T15:05:02.000Z</time>
      </trkpt>
      <trkpt lat="48.12696" lon="6.86885">
        <ele>744.59997558594</ele>
        <time>2026-09-02T15:05:03.000Z</time>
      </trkpt>
      <trkpt lat="48.12696" lon="6.86885">
        <ele>744.59997558594</ele>
        <time>2026-09-02T15:05:04.000Z</time>
      </trkpt>
      <trkpt lat="48.12696" lon="6.86885">
        <ele>744.59997558594</ele>
        <time>2026-09-02T15:05:05.000Z</time>
      </trkpt>
      <trkpt lat="48.12696" lon="6.86885">
        <ele>744.59997558594</ele>
        <time>2026-09-02T15:05:06.000Z</time>
      </trkpt>
      <trkpt lat="48.12696" lon="6.86885">
        <ele>744.80004882812</ele>
        <time>2026-09-02T15:05:07.000Z</time>
      </trkpt>
      <trkpt lat="48.12695" lon="6.86885">
        <ele>744.80004882812</ele>
        <time>2026-09-02T15:05:08.000Z</time>
      </trkpt>
      <trkpt lat="48.12695" lon="6.86884">
        <ele>744.80004882812</ele>
        <time>2026-09-02T15:05:09.000Z</time>
      </trkpt>
      <trkpt lat="48.12693" lon="6.86883">
        <ele>744.59997558594</ele>
        <time>2026-09-02T15:05:10.000Z</time>
      </trkpt>
      <trkpt lat="48.12693" lon="6.86883">
        <ele>744.59997558594</ele>
        <time>2026-09-02T15:05:11.000Z</time>
      </trkpt>
      <trkpt lat="48.12692" lon="6.86882">
        <ele>744.59997558594</ele>
        <time>2026-09-02T15:05:12.000Z</time>
      </trkpt>
      <trkpt lat="48.12691" lon="6.86882">
        <ele>744.80004882812</ele>
        <time>2026-09-02T15:05:13.000Z</time>
      </trkpt>
      <trkpt lat="48.1269" lon="6.86881">
        <ele>745</ele>
        <time>2026-09-02T15:05:14.000Z</time>
      </trkpt>
      <trkpt lat="48.1269" lon="6.86881">
        <ele>745.19995117188</ele>
        <time>2026-09-02T15:05:15.000Z</time>
      </trkpt>
      <trkpt lat="48.12689" lon="6.8688">
        <ele>745.19995117188</ele>
        <time>2026-09-02T15:05:16.000Z</time>
      </trkpt>
      <trkpt lat="48.12688" lon="6.86879">
        <ele>745.40002441406</ele>
        <time>2026-09-02T15:05:17.000Z</time>
      </trkpt>
      <trkpt lat="48.12687" lon="6.86879">
        <ele>745.59997558594</ele>
        <time>2026-09-02T15:05:18.000Z</time>
      </trkpt>
      <trkpt lat="48.12686" lon="6.86879">
        <ele>745.59997558594</ele>
        <time>2026-09-02T15:05:19.000Z</time>
      </trkpt>
      <trkpt lat="48.12685" lon="6.86878">
        <ele>745.59997558594</ele>
        <time>2026-09-02T15:05:20.000Z</time>
      </trkpt>
      <trkpt lat="48.12685" lon="6.86878">
        <ele>745.80004882812</ele>
        <time>2026-09-02T15:05:21.000Z</time>
      </trkpt>
      <trkpt lat="48.12684" lon="6.86877">
        <ele>746</ele>
        <time>2026-09-02T15:05:22.000Z</time>
      </trkpt>
      <trkpt lat="48.12683" lon="6.86876">
        <ele>746</ele>
        <time>2026-09-02T15:05:23.000Z</time>
      </trkpt>
      <trkpt lat="48.12683" lon="6.86876">
        <ele>746</ele>
        <time>2026-09-02T15:05:24.000Z</time>
      </trkpt>
      <trkpt lat="48.12682" lon="6.86876">
        <ele>746</ele>
        <time>2026-09-02T15:05:25.000Z</time>
      </trkpt>
      <trkpt lat="48.12682" lon="6.86875">
        <ele>746.19995117188</ele>
        <time>2026-09-02T15:05:26.000Z</time>
      </trkpt>
      <trkpt lat="48.12681" lon="6.86875">
        <ele>746.19995117188</ele>
        <time>2026-09-02T15:05:27.000Z</time>
      </trkpt>
      <trkpt lat="48.1268" lon="6.86874">
        <ele>746.40002441406</ele>
        <time>2026-09-02T15:05:28.000Z</time>
      </trkpt>
      <trkpt lat="48.1268" lon="6.86873">
        <ele>746.40002441406</ele>
        <time>2026-09-02T15:05:29.000Z</time>
      </trkpt>
      <trkpt lat="48.12679" lon="6.86873">
        <ele>746.59997558594</ele>
        <time>2026-09-02T15:05:30.000Z</time>
      </trkpt>
      <trkpt lat="48.12678" lon="6.86872">
        <ele>746.80004882812</ele>
        <time>2026-09-02T15:05:31.000Z</time>
      </trkpt>
      <trkpt lat="48.12678" lon="6.86871">
        <ele>747</ele>
        <time>2026-09-02T15:05:32.000Z</time>
      </trkpt>
      <trkpt lat="48.12677" lon="6.86871">
        <ele>747.19995117188</ele>
        <time>2026-09-02T15:05:33.000Z</time>
      </trkpt>
      <trkpt lat="48.12677" lon="6.8687">
        <ele>747.40002441406</ele>
        <time>2026-09-02T15:05:34.000Z</time>
      </trkpt>
      <trkpt lat="48.12676" lon="6.8687">
        <ele>747.40002441406</ele>
        <time>2026-09-02T15:05:35.000Z</time>
      </trkpt>
      <trkpt lat="48.12675" lon="6.86869">
        <ele>747.59997558594</ele>
        <time>2026-09-02T15:05:36.000Z</time>
      </trkpt>
      <trkpt lat="48.12675" lon="6.86868">
        <ele>747.59997558594</ele>
        <time>2026-09-02T15:05:37.000Z</time>
      </trkpt>
      <trkpt lat="48.12674" lon="6.86868">
        <ele>747.80004882812</ele>
        <time>2026-09-02T15:05:38.000Z</time>
      </trkpt>
      <trkpt lat="48.12673" lon="6.86868">
        <ele>747.80004882812</ele>
        <time>2026-09-02T15:05:39.000Z</time>
      </trkpt>
      <trkpt lat="48.12673" lon="6.86867">
        <ele>748</ele>
        <time>2026-09-02T15:05:40.000Z</time>
      </trkpt>
      <trkpt lat="48.12673" lon="6.86867">
        <ele>748</ele>
        <time>2026-09-02T15:05:41.000Z</time>
      </trkpt>
      <trkpt lat="48.12673" lon="6.86867">
        <ele>748.19995117188</ele>
        <time>2026-09-02T15:05:42.000Z</time>
      </trkpt>
      <trkpt lat="48.12673" lon="6.86867">
        <ele>748.40002441406</ele>
        <time>2026-09-02T15:05:43.000Z</time>
      </trkpt>
      <trkpt lat="48.12673" lon="6.86867">
        <ele>748.40002441406</ele>
        <time>2026-09-02T15:05:44.000Z</time>
      </trkpt>
      <trkpt lat="48.12673" lon="6.86867">
        <ele>748.40002441406</ele>
        <time>2026-09-02T15:05:45.000Z</time>
      </trkpt>
      <trkpt lat="48.12673" lon="6.86867">
        <ele>748.40002441406</ele>
        <time>2026-09-02T15:05:46.000Z</time>
      </trkpt>
      <trkpt lat="48.12671" lon="6.86866">
        <ele>748.40002441406</ele>
        <time>2026-09-02T15:05:47.000Z</time>
      </trkpt>
      <trkpt lat="48.1267" lon="6.86865">
        <ele>748.40002441406</ele>
        <time>2026-09-02T15:05:48.000Z</time>
      </trkpt>
      <trkpt lat="48.1267" lon="6.86864">
        <ele>748.59997558594</ele>
        <time>2026-09-02T15:05:49.000Z</time>
      </trkpt>
      <trkpt lat="48.1267" lon="6.86863">
        <ele>748.59997558594</ele>
        <time>2026-09-02T15:05:50.000Z</time>
      </trkpt>
      <trkpt lat="48.12669" lon="6.86863">
        <ele>748.80004882812</ele>
        <time>2026-09-02T15:05:51.000Z</time>
      </trkpt>
      <trkpt lat="48.12669" lon="6.86863">
        <ele>748.80004882812</ele>
        <time>2026-09-02T15:05:52.000Z</time>
      </trkpt>
      <trkpt lat="48.12668" lon="6.86862">
        <ele>749</ele>
        <time>2026-09-02T15:05:53.000Z</time>
      </trkpt>
      <trkpt lat="48.12667" lon="6.86861">
        <ele>749</ele>
        <time>2026-09-02T15:05:54.000Z</time>
      </trkpt>
      <trkpt lat="48.12666" lon="6.8686">
        <ele>749.19995117188</ele>
        <time>2026-09-02T15:05:55.000Z</time>
      </trkpt>
      <trkpt lat="48.12666" lon="6.8686">
        <ele>749.19995117188</ele>
        <time>2026-09-02T15:05:56.000Z</time>
      </trkpt>
      <trkpt lat="48.12665" lon="6.8686">
        <ele>749.40002441406</ele>
        <time>2026-09-02T15:05:57.000Z</time>
      </trkpt>
      <trkpt lat="48.12664" lon="6.86861">
        <ele>749.40002441406</ele>
        <time>2026-09-02T15:05:58.000Z</time>
      </trkpt>
      <trkpt lat="48.12664" lon="6.86861">
        <ele>749.59997558594</ele>
        <time>2026-09-02T15:05:59.000Z</time>
      </trkpt>
      <trkpt lat="48.12663" lon="6.86861">
        <ele>749.80004882812</ele>
        <time>2026-09-02T15:06:00.000Z</time>
      </trkpt>
      <trkpt lat="48.12663" lon="6.86861">
        <ele>749.80004882812</ele>
        <time>2026-09-02T15:06:01.000Z</time>
      </trkpt>
      <trkpt lat="48.12662" lon="6.86861">
        <ele>750</ele>
        <time>2026-09-02T15:06:02.000Z</time>
      </trkpt>
      <trkpt lat="48.12662" lon="6.86861">
        <ele>750</ele>
        <time>2026-09-02T15:06:03.000Z</time>
      </trkpt>
      <trkpt lat="48.12661" lon="6.86861">
        <ele>750</ele>
        <time>2026-09-02T15:06:04.000Z</time>
      </trkpt>
      <trkpt lat="48.12661" lon="6.86861">
        <ele>750</ele>
        <time>2026-09-02T15:06:05.000Z</time>
      </trkpt>
      <trkpt lat="48.1266" lon="6.8686">
        <ele>750.19995117188</ele>
        <time>2026-09-02T15:06:06.000Z</time>
      </trkpt>
      <trkpt lat="48.12659" lon="6.86861">
        <ele>750.19995117188</ele>
        <time>2026-09-02T15:06:07.000Z</time>
      </trkpt>
      <trkpt lat="48.12658" lon="6.86861">
        <ele>750.19995117188</ele>
        <time>2026-09-02T15:06:08.000Z</time>
      </trkpt>
      <trkpt lat="48.12658" lon="6.86861">
        <ele>750.40002441406</ele>
        <time>2026-09-02T15:06:09.000Z</time>
      </trkpt>
      <trkpt lat="48.12657" lon="6.86861">
        <ele>750.40002441406</ele>
        <time>2026-09-02T15:06:10.000Z</time>
      </trkpt>
      <trkpt lat="48.12657" lon="6.86861">
        <ele>750.59997558594</ele>
        <time>2026-09-02T15:06:11.000Z</time>
      </trkpt>
      <trkpt lat="48.12656" lon="6.86861">
        <ele>750.80004882812</ele>
        <time>2026-09-02T15:06:12.000Z</time>
      </trkpt>
      <trkpt lat="48.12656" lon="6.86861">
        <ele>750.80004882812</ele>
        <time>2026-09-02T15:06:13.000Z</time>
      </trkpt>
      <trkpt lat="48.12656" lon="6.86861">
        <ele>750.80004882812</ele>
        <time>2026-09-02T15:06:14.000Z</time>
      </trkpt>
      <trkpt lat="48.12656" lon="6.86861">
        <ele>750.80004882812</ele>
        <time>2026-09-02T15:06:15.000Z</time>
      </trkpt>
      <trkpt lat="48.12656" lon="6.86861">
        <ele>750.80004882812</ele>
        <time>2026-09-02T15:06:16.000Z</time>
      </trkpt>
      <trkpt lat="48.12656" lon="6.86861">
        <ele>750.80004882812</ele>
        <time>2026-09-02T15:06:17.000Z</time>
      </trkpt>
      <trkpt lat="48.12655" lon="6.8686">
        <ele>750.80004882812</ele>
        <time>2026-09-02T15:06:18.000Z</time>
      </trkpt>
      <trkpt lat="48.12654" lon="6.8686">
        <ele>751</ele>
        <time>2026-09-02T15:06:19.000Z</time>
      </trkpt>
      <trkpt lat="48.12652" lon="6.86859">
        <ele>751</ele>
        <time>2026-09-02T15:06:20.000Z</time>
      </trkpt>
      <trkpt lat="48.12652" lon="6.86859">
        <ele>751</ele>
        <time>2026-09-02T15:06:21.000Z</time>
      </trkpt>
      <trkpt lat="48.12651" lon="6.86858">
        <ele>751.19995117188</ele>
        <time>2026-09-02T15:06:22.000Z</time>
      </trkpt>
      <trkpt lat="48.1265" lon="6.86858">
        <ele>751.19995117188</ele>
        <time>2026-09-02T15:06:23.000Z</time>
      </trkpt>
      <trkpt lat="48.12649" lon="6.86857">
        <ele>751.19995117188</ele>
        <time>2026-09-02T15:06:24.000Z</time>
      </trkpt>
      <trkpt lat="48.12648" lon="6.86857">
        <ele>751.19995117188</ele>
        <time>2026-09-02T15:06:25.000Z</time>
      </trkpt>
      <trkpt lat="48.12647" lon="6.86857">
        <ele>751.40002441406</ele>
        <time>2026-09-02T15:06:26.000Z</time>
      </trkpt>
      <trkpt lat="48.12646" lon="6.86856">
        <ele>751.40002441406</ele>
        <time>2026-09-02T15:06:27.000Z</time>
      </trkpt>
      <trkpt lat="48.12645" lon="6.86856">
        <ele>751.40002441406</ele>
        <time>2026-09-02T15:06:28.000Z</time>
      </trkpt>
      <trkpt lat="48.12644" lon="6.86856">
        <ele>751.59997558594</ele>
        <time>2026-09-02T15:06:29.000Z</time>
      </trkpt>
      <trkpt lat="48.12643" lon="6.86856">
        <ele>751.59997558594</ele>
        <time>2026-09-02T15:06:30.000Z</time>
      </trkpt>
      <trkpt lat="48.12643" lon="6.86856">
        <ele>751.80004882812</ele>
        <time>2026-09-02T15:06:31.000Z</time>
      </trkpt>
      <trkpt lat="48.12642" lon="6.86855">
        <ele>751.80004882812</ele>
        <time>2026-09-02T15:06:32.000Z</time>
      </trkpt>
      <trkpt lat="48.12641" lon="6.86855">
        <ele>751.80004882812</ele>
        <time>2026-09-02T15:06:33.000Z</time>
      </trkpt>
      <trkpt lat="48.12641" lon="6.86856">
        <ele>751.80004882812</ele>
        <time>2026-09-02T15:06:34.000Z</time>
      </trkpt>
      <trkpt lat="48.1264" lon="6.86856">
        <ele>751.80004882812</ele>
        <time>2026-09-02T15:06:35.000Z</time>
      </trkpt>
      <trkpt lat="48.1264" lon="6.86856">
        <ele>752</ele>
        <time>2026-09-02T15:06:36.000Z</time>
      </trkpt>
      <trkpt lat="48.12639" lon="6.86856">
        <ele>752</ele>
        <time>2026-09-02T15:06:37.000Z</time>
      </trkpt>
      <trkpt lat="48.12639" lon="6.86856">
        <ele>752.19995117188</ele>
        <time>2026-09-02T15:06:38.000Z</time>
      </trkpt>
      <trkpt lat="48.12639" lon="6.86856">
        <ele>752.19995117188</ele>
        <time>2026-09-02T15:06:39.000Z</time>
      </trkpt>
      <trkpt lat="48.12638" lon="6.86856">
        <ele>752.19995117188</ele>
        <time>2026-09-02T15:06:40.000Z</time>
      </trkpt>
      <trkpt lat="48.12639" lon="6.86856">
        <ele>752.40002441406</ele>
        <time>2026-09-02T15:06:41.000Z</time>
      </trkpt>
      <trkpt lat="48.12639" lon="6.86856">
        <ele>752.40002441406</ele>
        <time>2026-09-02T15:06:42.000Z</time>
      </trkpt>
      <trkpt lat="48.12639" lon="6.86856">
        <ele>752.40002441406</ele>
        <time>2026-09-02T15:06:43.000Z</time>
      </trkpt>
      <trkpt lat="48.12639" lon="6.86856">
        <ele>752.40002441406</ele>
        <time>2026-09-02T15:06:44.000Z</time>
      </trkpt>
      <trkpt lat="48.12639" lon="6.86856">
        <ele>752.40002441406</ele>
        <time>2026-09-02T15:06:45.000Z</time>
      </trkpt>
      <trkpt lat="48.12639" lon="6.86856">
        <ele>752.40002441406</ele>
        <time>2026-09-02T15:06:46.000Z</time>
      </trkpt>
      <trkpt lat="48.12639" lon="6.86856">
        <ele>752.40002441406</ele>
        <time>2026-09-02T15:06:47.000Z</time>
      </trkpt>
      <trkpt lat="48.12639" lon="6.86856">
        <ele>752.40002441406</ele>
        <time>2026-09-02T15:06:48.000Z</time>
      </trkpt>
      <trkpt lat="48.12639" lon="6.86856">
        <ele>752.40002441406</ele>
        <time>2026-09-02T15:06:49.000Z</time>
      </trkpt>
      <trkpt lat="48.12639" lon="6.86856">
        <ele>752.19995117188</ele>
        <time>2026-09-02T15:06:50.000Z</time>
      </trkpt>
      <trkpt lat="48.12639" lon="6.86856">
        <ele>752.19995117188</ele>
        <time>2026-09-02T15:06:51.000Z</time>
      </trkpt>
      <trkpt lat="48.12639" lon="6.86856">
        <ele>752.19995117188</ele>
        <time>2026-09-02T15:06:52.000Z</time>
      </trkpt>
      <trkpt lat="48.12638" lon="6.86857">
        <ele>752.40002441406</ele>
        <time>2026-09-02T15:06:53.000Z</time>
      </trkpt>
      <trkpt lat="48.12637" lon="6.86856">
        <ele>752.40002441406</ele>
        <time>2026-09-02T15:06:54.000Z</time>
      </trkpt>
      <trkpt lat="48.12637" lon="6.86856">
        <ele>752.40002441406</ele>
        <time>2026-09-02T15:06:55.000Z</time>
      </trkpt>
      <trkpt lat="48.12636" lon="6.86856">
        <ele>752.40002441406</ele>
        <time>2026-09-02T15:06:56.000Z</time>
      </trkpt>
      <trkpt lat="48.12635" lon="6.86856">
        <ele>752.59997558594</ele>
        <time>2026-09-02T15:06:57.000Z</time>
      </trkpt>
      <trkpt lat="48.12634" lon="6.86856">
        <ele>752.59997558594</ele>
        <time>2026-09-02T15:06:58.000Z</time>
      </trkpt>
      <trkpt lat="48.12634" lon="6.86856">
        <ele>752.80004882812</ele>
        <time>2026-09-02T15:06:59.000Z</time>
      </trkpt>
      <trkpt lat="48.12633" lon="6.86855">
        <ele>753</ele>
        <time>2026-09-02T15:07:00.000Z</time>
      </trkpt>
      <trkpt lat="48.12633" lon="6.86855">
        <ele>753.19995117188</ele>
        <time>2026-09-02T15:07:01.000Z</time>
      </trkpt>
      <trkpt lat="48.12632" lon="6.86855">
        <ele>753.19995117188</ele>
        <time>2026-09-02T15:07:02.000Z</time>
      </trkpt>
      <trkpt lat="48.12632" lon="6.86855">
        <ele>753.40002441406</ele>
        <time>2026-09-02T15:07:03.000Z</time>
      </trkpt>
      <trkpt lat="48.12631" lon="6.86855">
        <ele>753.59997558594</ele>
        <time>2026-09-02T15:07:04.000Z</time>
      </trkpt>
      <trkpt lat="48.1263" lon="6.86856">
        <ele>753.59997558594</ele>
        <time>2026-09-02T15:07:05.000Z</time>
      </trkpt>
      <trkpt lat="48.1263" lon="6.86856">
        <ele>753.80004882812</ele>
        <time>2026-09-02T15:07:06.000Z</time>
      </trkpt>
      <trkpt lat="48.12629" lon="6.86856">
        <ele>753.80004882812</ele>
        <time>2026-09-02T15:07:07.000Z</time>
      </trkpt>
      <trkpt lat="48.12629" lon="6.86856">
        <ele>753.80004882812</ele>
        <time>2026-09-02T15:07:08.000Z</time>
      </trkpt>
      <trkpt lat="48.12628" lon="6.86856">
        <ele>753.80004882812</ele>
        <time>2026-09-02T15:07:09.000Z</time>
      </trkpt>
      <trkpt lat="48.12627" lon="6.86856">
        <ele>754</ele>
        <time>2026-09-02T15:07:10.000Z</time>
      </trkpt>
      <trkpt lat="48.12626" lon="6.86856">
        <ele>754</ele>
        <time>2026-09-02T15:07:11.000Z</time>
      </trkpt>
      <trkpt lat="48.12625" lon="6.86856">
        <ele>754.19995117188</ele>
        <time>2026-09-02T15:07:12.000Z</time>
      </trkpt>
      <trkpt lat="48.12625" lon="6.86856">
        <ele>754.19995117188</ele>
        <time>2026-09-02T15:07:13.000Z</time>
      </trkpt>
      <trkpt lat="48.12624" lon="6.86856">
        <ele>754.40002441406</ele>
        <time>2026-09-02T15:07:14.000Z</time>
      </trkpt>
      <trkpt lat="48.12623" lon="6.86855">
        <ele>754.40002441406</ele>
        <time>2026-09-02T15:07:15.000Z</time>
      </trkpt>
      <trkpt lat="48.12623" lon="6.86855">
        <ele>754.40002441406</ele>
        <time>2026-09-02T15:07:16.000Z</time>
      </trkpt>
      <trkpt lat="48.12623" lon="6.86856">
        <ele>754.59997558594</ele>
        <time>2026-09-02T15:07:17.000Z</time>
      </trkpt>
      <trkpt lat="48.12623" lon="6.86856">
        <ele>754.59997558594</ele>
        <time>2026-09-02T15:07:18.000Z</time>
      </trkpt>
      <trkpt lat="48.12623" lon="6.86856">
        <ele>754.59997558594</ele>
        <time>2026-09-02T15:07:19.000Z</time>
      </trkpt>
      <trkpt lat="48.12623" lon="6.86856">
        <ele>754.80004882812</ele>
        <time>2026-09-02T15:07:20.000Z</time>
      </trkpt>
      <trkpt lat="48.12623" lon="6.86856">
        <ele>754.80004882812</ele>
        <time>2026-09-02T15:07:21.000Z</time>
      </trkpt>
      <trkpt lat="48.12623" lon="6.86856">
        <ele>754.80004882812</ele>
        <time>2026-09-02T15:07:22.000Z</time>
      </trkpt>
      <trkpt lat="48.12623" lon="6.86856">
        <ele>754.80004882812</ele>
        <time>2026-09-02T15:07:23.000Z</time>
      </trkpt>
      <trkpt lat="48.12623" lon="6.86856">
        <ele>754.80004882812</ele>
        <time>2026-09-02T15:07:24.000Z</time>
      </trkpt>
      <trkpt lat="48.12623" lon="6.86856">
        <ele>754.80004882812</ele>
        <time>2026-09-02T15:07:25.000Z</time>
      </trkpt>
      <trkpt lat="48.12622" lon="6.86855">
        <ele>754.80004882812</ele>
        <time>2026-09-02T15:07:26.000Z</time>
      </trkpt>
      <trkpt lat="48.12621" lon="6.86855">
        <ele>754.80004882812</ele>
        <time>2026-09-02T15:07:27.000Z</time>
      </trkpt>
      <trkpt lat="48.12619" lon="6.86855">
        <ele>754.80004882812</ele>
        <time>2026-09-02T15:07:28.000Z</time>
      </trkpt>
      <trkpt lat="48.12619" lon="6.86855">
        <ele>755</ele>
        <time>2026-09-02T15:07:29.000Z</time>
      </trkpt>
      <trkpt lat="48.12617" lon="6.86855">
        <ele>755</ele>
        <time>2026-09-02T15:07:30.000Z</time>
      </trkpt>
      <trkpt lat="48.12616" lon="6.86855">
        <ele>755.19995117188</ele>
        <time>2026-09-02T15:07:31.000Z</time>
      </trkpt>
      <trkpt lat="48.12615" lon="6.86855">
        <ele>755.19995117188</ele>
        <time>2026-09-02T15:07:32.000Z</time>
      </trkpt>
      <trkpt lat="48.12614" lon="6.86855">
        <ele>755.40002441406</ele>
        <time>2026-09-02T15:07:33.000Z</time>
      </trkpt>
      <trkpt lat="48.12614" lon="6.86854">
        <ele>755.59997558594</ele>
        <time>2026-09-02T15:07:34.000Z</time>
      </trkpt>
      <trkpt lat="48.12613" lon="6.86854">
        <ele>755.59997558594</ele>
        <time>2026-09-02T15:07:35.000Z</time>
      </trkpt>
      <trkpt lat="48.12612" lon="6.86854">
        <ele>755.80004882812</ele>
        <time>2026-09-02T15:07:36.000Z</time>
      </trkpt>
      <trkpt lat="48.1261" lon="6.86853">
        <ele>755.80004882812</ele>
        <time>2026-09-02T15:07:37.000Z</time>
      </trkpt>
      <trkpt lat="48.1261" lon="6.86853">
        <ele>755.80004882812</ele>
        <time>2026-09-02T15:07:38.000Z</time>
      </trkpt>
      <trkpt lat="48.12609" lon="6.86854">
        <ele>756</ele>
        <time>2026-09-02T15:07:39.000Z</time>
      </trkpt>
      <trkpt lat="48.12608" lon="6.86853">
        <ele>756</ele>
        <time>2026-09-02T15:07:40.000Z</time>
      </trkpt>
      <trkpt lat="48.12607" lon="6.86853">
        <ele>756.19995117188</ele>
        <time>2026-09-02T15:07:41.000Z</time>
      </trkpt>
      <trkpt lat="48.12606" lon="6.86853">
        <ele>756.19995117188</ele>
        <time>2026-09-02T15:07:42.000Z</time>
      </trkpt>
      <trkpt lat="48.12606" lon="6.86852">
        <ele>756.40002441406</ele>
        <time>2026-09-02T15:07:43.000Z</time>
      </trkpt>
      <trkpt lat="48.12605" lon="6.86853">
        <ele>756.40002441406</ele>
        <time>2026-09-02T15:07:44.000Z</time>
      </trkpt>
      <trkpt lat="48.12605" lon="6.86853">
        <ele>756.59997558594</ele>
        <time>2026-09-02T15:07:45.000Z</time>
      </trkpt>
      <trkpt lat="48.12605" lon="6.86853">
        <ele>756.59997558594</ele>
        <time>2026-09-02T15:07:46.000Z</time>
      </trkpt>
      <trkpt lat="48.12604" lon="6.86853">
        <ele>756.59997558594</ele>
        <time>2026-09-02T15:07:47.000Z</time>
      </trkpt>
      <trkpt lat="48.12604" lon="6.86853">
        <ele>756.59997558594</ele>
        <time>2026-09-02T15:07:48.000Z</time>
      </trkpt>
      <trkpt lat="48.12604" lon="6.86853">
        <ele>756.80004882812</ele>
        <time>2026-09-02T15:07:49.000Z</time>
      </trkpt>
      <trkpt lat="48.12603" lon="6.86852">
        <ele>756.80004882812</ele>
        <time>2026-09-02T15:07:50.000Z</time>
      </trkpt>
      <trkpt lat="48.12603" lon="6.86852">
        <ele>757</ele>
        <time>2026-09-02T15:07:51.000Z</time>
      </trkpt>
      <trkpt lat="48.12603" lon="6.86852">
        <ele>757</ele>
        <time>2026-09-02T15:07:52.000Z</time>
      </trkpt>
      <trkpt lat="48.12604" lon="6.86853">
        <ele>757.19995117188</ele>
        <time>2026-09-02T15:07:53.000Z</time>
      </trkpt>
      <trkpt lat="48.12603" lon="6.86852">
        <ele>757.40002441406</ele>
        <time>2026-09-02T15:07:54.000Z</time>
      </trkpt>
      <trkpt lat="48.12603" lon="6.86852">
        <ele>757.40002441406</ele>
        <time>2026-09-02T15:07:55.000Z</time>
      </trkpt>
      <trkpt lat="48.12603" lon="6.86852">
        <ele>757.40002441406</ele>
        <time>2026-09-02T15:07:56.000Z</time>
      </trkpt>
      <trkpt lat="48.12603" lon="6.86852">
        <ele>757.40002441406</ele>
        <time>2026-09-02T15:07:57.000Z</time>
      </trkpt>
      <trkpt lat="48.12603" lon="6.86852">
        <ele>757.40002441406</ele>
        <time>2026-09-02T15:07:58.000Z</time>
      </trkpt>
      <trkpt lat="48.12603" lon="6.86852">
        <ele>757.40002441406</ele>
        <time>2026-09-02T15:07:59.000Z</time>
      </trkpt>
      <trkpt lat="48.12603" lon="6.86852">
        <ele>757.40002441406</ele>
        <time>2026-09-02T15:08:00.000Z</time>
      </trkpt>
      <trkpt lat="48.12603" lon="6.86852">
        <ele>757.59997558594</ele>
        <time>2026-09-02T15:08:01.000Z</time>
      </trkpt>
      <trkpt lat="48.12603" lon="6.86852">
        <ele>757.59997558594</ele>
        <time>2026-09-02T15:08:02.000Z</time>
      </trkpt>
      <trkpt lat="48.12603" lon="6.86852">
        <ele>757.59997558594</ele>
        <time>2026-09-02T15:08:03.000Z</time>
      </trkpt>
      <trkpt lat="48.12603" lon="6.86852">
        <ele>757.59997558594</ele>
        <time>2026-09-02T15:08:04.000Z</time>
      </trkpt>
      <trkpt lat="48.12603" lon="6.86852">
        <ele>757.59997558594</ele>
        <time>2026-09-02T15:08:05.000Z</time>
      </trkpt>
      <trkpt lat="48.12603" lon="6.86852">
        <ele>757.59997558594</ele>
        <time>2026-09-02T15:08:06.000Z</time>
      </trkpt>
      <trkpt lat="48.12602" lon="6.86852">
        <ele>757.59997558594</ele>
        <time>2026-09-02T15:08:07.000Z</time>
      </trkpt>
      <trkpt lat="48.12601" lon="6.86852">
        <ele>757.59997558594</ele>
        <time>2026-09-02T15:08:08.000Z</time>
      </trkpt>
      <trkpt lat="48.126" lon="6.86851">
        <ele>757.59997558594</ele>
        <time>2026-09-02T15:08:09.000Z</time>
      </trkpt>
      <trkpt lat="48.12599" lon="6.86851">
        <ele>757.59997558594</ele>
        <time>2026-09-02T15:08:10.000Z</time>
      </trkpt>
      <trkpt lat="48.12598" lon="6.86851">
        <ele>757.59997558594</ele>
        <time>2026-09-02T15:08:11.000Z</time>
      </trkpt>
      <trkpt lat="48.12598" lon="6.86851">
        <ele>757.80004882812</ele>
        <time>2026-09-02T15:08:12.000Z</time>
      </trkpt>
      <trkpt lat="48.12597" lon="6.86851">
        <ele>757.80004882812</ele>
        <time>2026-09-02T15:08:13.000Z</time>
      </trkpt>
      <trkpt lat="48.12596" lon="6.86851">
        <ele>758</ele>
        <time>2026-09-02T15:08:14.000Z</time>
      </trkpt>
      <trkpt lat="48.12595" lon="6.86851">
        <ele>758</ele>
        <time>2026-09-02T15:08:15.000Z</time>
      </trkpt>
      <trkpt lat="48.12594" lon="6.86851">
        <ele>758.19995117188</ele>
        <time>2026-09-02T15:08:16.000Z</time>
      </trkpt>
      <trkpt lat="48.12593" lon="6.86852">
        <ele>758.19995117188</ele>
        <time>2026-09-02T15:08:17.000Z</time>
      </trkpt>
      <trkpt lat="48.12592" lon="6.86851">
        <ele>758.19995117188</ele>
        <time>2026-09-02T15:08:18.000Z</time>
      </trkpt>
      <trkpt lat="48.12592" lon="6.86851">
        <ele>758.40002441406</ele>
        <time>2026-09-02T15:08:19.000Z</time>
      </trkpt>
      <trkpt lat="48.12592" lon="6.86851">
        <ele>758.40002441406</ele>
        <time>2026-09-02T15:08:20.000Z</time>
      </trkpt>
      <trkpt lat="48.12592" lon="6.86851">
        <ele>758.59997558594</ele>
        <time>2026-09-02T15:08:21.000Z</time>
      </trkpt>
      <trkpt lat="48.12592" lon="6.86851">
        <ele>758.59997558594</ele>
        <time>2026-09-02T15:08:22.000Z</time>
      </trkpt>
      <trkpt lat="48.12592" lon="6.86851">
        <ele>758.59997558594</ele>
        <time>2026-09-02T15:08:23.000Z</time>
      </trkpt>
      <trkpt lat="48.12592" lon="6.86851">
        <ele>758.59997558594</ele>
        <time>2026-09-02T15:08:24.000Z</time>
      </trkpt>
      <trkpt lat="48.12592" lon="6.86851">
        <ele>758.80004882812</ele>
        <time>2026-09-02T15:08:25.000Z</time>
      </trkpt>
      <trkpt lat="48.12592" lon="6.86851">
        <ele>758.59997558594</ele>
        <time>2026-09-02T15:08:26.000Z</time>
      </trkpt>
      <trkpt lat="48.12592" lon="6.86851">
        <ele>758.59997558594</ele>
        <time>2026-09-02T15:08:27.000Z</time>
      </trkpt>
      <trkpt lat="48.12592" lon="6.86851">
        <ele>758.59997558594</ele>
        <time>2026-09-02T15:08:28.000Z</time>
      </trkpt>
      <trkpt lat="48.12592" lon="6.86851">
        <ele>758.59997558594</ele>
        <time>2026-09-02T15:08:29.000Z</time>
      </trkpt>
      <trkpt lat="48.12592" lon="6.86851">
        <ele>758.40002441406</ele>
        <time>2026-09-02T15:08:30.000Z</time>
      </trkpt>
      <trkpt lat="48.12592" lon="6.86851">
        <ele>758.40002441406</ele>
        <time>2026-09-02T15:08:31.000Z</time>
      </trkpt>
      <trkpt lat="48.12592" lon="6.86851">
        <ele>758.40002441406</ele>
        <time>2026-09-02T15:08:32.000Z</time>
      </trkpt>
      <trkpt lat="48.12592" lon="6.86851">
        <ele>758.40002441406</ele>
        <time>2026-09-02T15:08:33.000Z</time>
      </trkpt>
      <trkpt lat="48.12593" lon="6.8685">
        <ele>758.40002441406</ele>
        <time>2026-09-02T15:08:34.000Z</time>
      </trkpt>
      <trkpt lat="48.12593" lon="6.8685">
        <ele>758.59997558594</ele>
        <time>2026-09-02T15:08:35.000Z</time>
      </trkpt>
      <trkpt lat="48.12593" lon="6.8685">
        <ele>758.59997558594</ele>
        <time>2026-09-02T15:08:36.000Z</time>
      </trkpt>
      <trkpt lat="48.12593" lon="6.8685">
        <ele>758.80004882812</ele>
        <time>2026-09-02T15:08:37.000Z</time>
      </trkpt>
      <trkpt lat="48.12592" lon="6.8685">
        <ele>759</ele>
        <time>2026-09-02T15:08:38.000Z</time>
      </trkpt>
      <trkpt lat="48.12591" lon="6.86849">
        <ele>759.19995117188</ele>
        <time>2026-09-02T15:08:39.000Z</time>
      </trkpt>
      <trkpt lat="48.12591" lon="6.86849">
        <ele>759.19995117188</ele>
        <time>2026-09-02T15:08:40.000Z</time>
      </trkpt>
      <trkpt lat="48.1259" lon="6.86849">
        <ele>759.40002441406</ele>
        <time>2026-09-02T15:08:41.000Z</time>
      </trkpt>
      <trkpt lat="48.1259" lon="6.86849">
        <ele>759.40002441406</ele>
        <time>2026-09-02T15:08:42.000Z</time>
      </trkpt>
      <trkpt lat="48.12589" lon="6.86849">
        <ele>759.59997558594</ele>
        <time>2026-09-02T15:08:43.000Z</time>
      </trkpt>
      <trkpt lat="48.12589" lon="6.86849">
        <ele>759.59997558594</ele>
        <time>2026-09-02T15:08:44.000Z</time>
      </trkpt>
      <trkpt lat="48.12589" lon="6.86849">
        <ele>759.80004882812</ele>
        <time>2026-09-02T15:08:45.000Z</time>
      </trkpt>
      <trkpt lat="48.12589" lon="6.86849">
        <ele>759.80004882812</ele>
        <time>2026-09-02T15:08:46.000Z</time>
      </trkpt>
      <trkpt lat="48.12589" lon="6.86849">
        <ele>759.80004882812</ele>
        <time>2026-09-02T15:08:47.000Z</time>
      </trkpt>
      <trkpt lat="48.12589" lon="6.86849">
        <ele>759.80004882812</ele>
        <time>2026-09-02T15:08:48.000Z</time>
      </trkpt>
      <trkpt lat="48.12589" lon="6.86849">
        <ele>759.80004882812</ele>
        <time>2026-09-02T15:08:49.000Z</time>
      </trkpt>
      <trkpt lat="48.12589" lon="6.86849">
        <ele>759.80004882812</ele>
        <time>2026-09-02T15:08:50.000Z</time>
      </trkpt>
      <trkpt lat="48.12589" lon="6.86849">
        <ele>759.80004882812</ele>
        <time>2026-09-02T15:08:51.000Z</time>
      </trkpt>
      <trkpt lat="48.12589" lon="6.86849">
        <ele>759.80004882812</ele>
        <time>2026-09-02T15:08:52.000Z</time>
      </trkpt>
      <trkpt lat="48.12589" lon="6.86849">
        <ele>759.80004882812</ele>
        <time>2026-09-02T15:08:53.000Z</time>
      </trkpt>
      <trkpt lat="48.12589" lon="6.8685">
        <ele>759.80004882812</ele>
        <time>2026-09-02T15:08:54.000Z</time>
      </trkpt>
      <trkpt lat="48.12588" lon="6.8685">
        <ele>759.80004882812</ele>
        <time>2026-09-02T15:08:55.000Z</time>
      </trkpt>
      <trkpt lat="48.12588" lon="6.8685">
        <ele>760</ele>
        <time>2026-09-02T15:08:56.000Z</time>
      </trkpt>
      <trkpt lat="48.12588" lon="6.8685">
        <ele>760</ele>
        <time>2026-09-02T15:08:57.000Z</time>
      </trkpt>
      <trkpt lat="48.12587" lon="6.86849">
        <ele>760.19995117188</ele>
        <time>2026-09-02T15:08:58.000Z</time>
      </trkpt>
      <trkpt lat="48.12586" lon="6.86849">
        <ele>760.40002441406</ele>
        <time>2026-09-02T15:08:59.000Z</time>
      </trkpt>
      <trkpt lat="48.12585" lon="6.86847">
        <ele>760.59997558594</ele>
        <time>2026-09-02T15:09:00.000Z</time>
      </trkpt>
      <trkpt lat="48.12584" lon="6.86846">
        <ele>760.59997558594</ele>
        <time>2026-09-02T15:09:01.000Z</time>
      </trkpt>
      <trkpt lat="48.12583" lon="6.86845">
        <ele>760.59997558594</ele>
        <time>2026-09-02T15:09:02.000Z</time>
      </trkpt>
      <trkpt lat="48.12582" lon="6.86845">
        <ele>760.40002441406</ele>
        <time>2026-09-02T15:09:03.000Z</time>
      </trkpt>
      <trkpt lat="48.12582" lon="6.86844">
        <ele>760.40002441406</ele>
        <time>2026-09-02T15:09:04.000Z</time>
      </trkpt>
      <trkpt lat="48.12582" lon="6.86843">
        <ele>760.40002441406</ele>
        <time>2026-09-02T15:09:05.000Z</time>
      </trkpt>
      <trkpt lat="48.12582" lon="6.86842">
        <ele>760.40002441406</ele>
        <time>2026-09-02T15:09:06.000Z</time>
      </trkpt>
      <trkpt lat="48.12582" lon="6.86842">
        <ele>760.59997558594</ele>
        <time>2026-09-02T15:09:07.000Z</time>
      </trkpt>
      <trkpt lat="48.12582" lon="6.86842">
        <ele>760.59997558594</ele>
        <time>2026-09-02T15:09:08.000Z</time>
      </trkpt>
      <trkpt lat="48.12582" lon="6.86842">
        <ele>760.80004882812</ele>
        <time>2026-09-02T15:09:09.000Z</time>
      </trkpt>
      <trkpt lat="48.12582" lon="6.86842">
        <ele>760.80004882812</ele>
        <time>2026-09-02T15:09:10.000Z</time>
      </trkpt>
      <trkpt lat="48.12582" lon="6.86842">
        <ele>760.80004882812</ele>
        <time>2026-09-02T15:09:11.000Z</time>
      </trkpt>
      <trkpt lat="48.12582" lon="6.86842">
        <ele>760.59997558594</ele>
        <time>2026-09-02T15:09:12.000Z</time>
      </trkpt>
      <trkpt lat="48.12582" lon="6.86842">
        <ele>760.59997558594</ele>
        <time>2026-09-02T15:09:13.000Z</time>
      </trkpt>
      <trkpt lat="48.12582" lon="6.86842">
        <ele>760.59997558594</ele>
        <time>2026-09-02T15:09:14.000Z</time>
      </trkpt>
      <trkpt lat="48.12582" lon="6.86842">
        <ele>760.59997558594</ele>
        <time>2026-09-02T15:09:15.000Z</time>
      </trkpt>
      <trkpt lat="48.12581" lon="6.8684">
        <ele>760.59997558594</ele>
        <time>2026-09-02T15:09:16.000Z</time>
      </trkpt>
      <trkpt lat="48.12581" lon="6.86839">
        <ele>760.80004882812</ele>
        <time>2026-09-02T15:09:17.000Z</time>
      </trkpt>
      <trkpt lat="48.1258" lon="6.86838">
        <ele>760.80004882812</ele>
        <time>2026-09-02T15:09:18.000Z</time>
      </trkpt>
      <trkpt lat="48.1258" lon="6.86838">
        <ele>760.80004882812</ele>
        <time>2026-09-02T15:09:19.000Z</time>
      </trkpt>
      <trkpt lat="48.1258" lon="6.86836">
        <ele>761</ele>
        <time>2026-09-02T15:09:20.000Z</time>
      </trkpt>
      <trkpt lat="48.1258" lon="6.86835">
        <ele>761</ele>
        <time>2026-09-02T15:09:21.000Z</time>
      </trkpt>
      <trkpt lat="48.1258" lon="6.86834">
        <ele>761</ele>
        <time>2026-09-02T15:09:22.000Z</time>
      </trkpt>
      <trkpt lat="48.12581" lon="6.86834">
        <ele>761</ele>
        <time>2026-09-02T15:09:23.000Z</time>
      </trkpt>
      <trkpt lat="48.12581" lon="6.86833">
        <ele>760.80004882812</ele>
        <time>2026-09-02T15:09:24.000Z</time>
      </trkpt>
      <trkpt lat="48.12581" lon="6.86832">
        <ele>760.80004882812</ele>
        <time>2026-09-02T15:09:25.000Z</time>
      </trkpt>
      <trkpt lat="48.12582" lon="6.86832">
        <ele>760.59997558594</ele>
        <time>2026-09-02T15:09:26.000Z</time>
      </trkpt>
      <trkpt lat="48.12582" lon="6.86833">
        <ele>760.59997558594</ele>
        <time>2026-09-02T15:09:27.000Z</time>
      </trkpt>
      <trkpt lat="48.12582" lon="6.86833">
        <ele>760.59997558594</ele>
        <time>2026-09-02T15:09:28.000Z</time>
      </trkpt>
      <trkpt lat="48.12582" lon="6.86833">
        <ele>760.59997558594</ele>
        <time>2026-09-02T15:09:29.000Z</time>
      </trkpt>
      <trkpt lat="48.12582" lon="6.86833">
        <ele>760.59997558594</ele>
        <time>2026-09-02T15:09:30.000Z</time>
      </trkpt>
      <trkpt lat="48.12582" lon="6.86833">
        <ele>760.59997558594</ele>
        <time>2026-09-02T15:09:31.000Z</time>
      </trkpt>
      <trkpt lat="48.12582" lon="6.86833">
        <ele>760.59997558594</ele>
        <time>2026-09-02T15:09:32.000Z</time>
      </trkpt>
      <trkpt lat="48.12582" lon="6.86833">
        <ele>760.40002441406</ele>
        <time>2026-09-02T15:09:33.000Z</time>
      </trkpt>
      <trkpt lat="48.12582" lon="6.86833">
        <ele>760.40002441406</ele>
        <time>2026-09-02T15:09:34.000Z</time>
      </trkpt>
      <trkpt lat="48.12582" lon="6.86833">
        <ele>760.40002441406</ele>
        <time>2026-09-02T15:09:35.000Z</time>
      </trkpt>
      <trkpt lat="48.12582" lon="6.86833">
        <ele>760.40002441406</ele>
        <time>2026-09-02T15:09:36.000Z</time>
      </trkpt>
      <trkpt lat="48.12582" lon="6.86833">
        <ele>760.40002441406</ele>
        <time>2026-09-02T15:09:37.000Z</time>
      </trkpt>
      <trkpt lat="48.12582" lon="6.86833">
        <ele>760.40002441406</ele>
        <time>2026-09-02T15:09:38.000Z</time>
      </trkpt>
      <trkpt lat="48.12582" lon="6.86833">
        <ele>760.40002441406</ele>
        <time>2026-09-02T15:09:39.000Z</time>
      </trkpt>
      <trkpt lat="48.12582" lon="6.86833">
        <ele>760.19995117188</ele>
        <time>2026-09-02T15:09:40.000Z</time>
      </trkpt>
      <trkpt lat="48.12582" lon="6.86833">
        <ele>760.19995117188</ele>
        <time>2026-09-02T15:09:41.000Z</time>
      </trkpt>
      <trkpt lat="48.12582" lon="6.86833">
        <ele>760.19995117188</ele>
        <time>2026-09-02T15:09:42.000Z</time>
      </trkpt>
      <trkpt lat="48.12582" lon="6.86833">
        <ele>760.19995117188</ele>
        <time>2026-09-02T15:09:43.000Z</time>
      </trkpt>
      <trkpt lat="48.12582" lon="6.86833">
        <ele>760.19995117188</ele>
        <time>2026-09-02T15:09:44.000Z</time>
      </trkpt>
      <trkpt lat="48.12582" lon="6.86833">
        <ele>760.40002441406</ele>
        <time>2026-09-02T15:09:45.000Z</time>
      </trkpt>
      <trkpt lat="48.12582" lon="6.86833">
        <ele>760.40002441406</ele>
        <time>2026-09-02T15:09:46.000Z</time>
      </trkpt>
      <trkpt lat="48.12582" lon="6.86833">
        <ele>760.40002441406</ele>
        <time>2026-09-02T15:09:47.000Z</time>
      </trkpt>
      <trkpt lat="48.12582" lon="6.86833">
        <ele>760.40002441406</ele>
        <time>2026-09-02T15:09:48.000Z</time>
      </trkpt>
      <trkpt lat="48.12582" lon="6.86833">
        <ele>760.40002441406</ele>
        <time>2026-09-02T15:09:49.000Z</time>
      </trkpt>
      <trkpt lat="48.12582" lon="6.86833">
        <ele>760.40002441406</ele>
        <time>2026-09-02T15:09:50.000Z</time>
      </trkpt>
      <trkpt lat="48.12582" lon="6.86833">
        <ele>760.19995117188</ele>
        <time>2026-09-02T15:09:51.000Z</time>
      </trkpt>
      <trkpt lat="48.12582" lon="6.86833">
        <ele>760.19995117188</ele>
        <time>2026-09-02T15:09:52.000Z</time>
      </trkpt>
      <trkpt lat="48.12582" lon="6.86833">
        <ele>760.19995117188</ele>
        <time>2026-09-02T15:09:53.000Z</time>
      </trkpt>
      <trkpt lat="48.12582" lon="6.86833">
        <ele>760.19995117188</ele>
        <time>2026-09-02T15:09:54.000Z</time>
      </trkpt>
      <trkpt lat="48.12582" lon="6.86833">
        <ele>760.19995117188</ele>
        <time>2026-09-02T15:09:55.000Z</time>
      </trkpt>
      <trkpt lat="48.12582" lon="6.86833">
        <ele>760.19995117188</ele>
        <time>2026-09-02T15:09:56.000Z</time>
      </trkpt>
      <trkpt lat="48.12582" lon="6.86833">
        <ele>760.40002441406</ele>
        <time>2026-09-02T15:09:57.000Z</time>
      </trkpt>
      <trkpt lat="48.12582" lon="6.86833">
        <ele>760.40002441406</ele>
        <time>2026-09-02T15:09:58.000Z</time>
      </trkpt>
      <trkpt lat="48.12582" lon="6.86833">
        <ele>760.40002441406</ele>
        <time>2026-09-02T15:09:59.000Z</time>
      </trkpt>
      <trkpt lat="48.12582" lon="6.86833">
        <ele>760.19995117188</ele>
        <time>2026-09-02T15:10:00.000Z</time>
      </trkpt>
      <trkpt lat="48.12582" lon="6.86833">
        <ele>760.19995117188</ele>
        <time>2026-09-02T15:10:01.000Z</time>
      </trkpt>
      <trkpt lat="48.12582" lon="6.86833">
        <ele>760.19995117188</ele>
        <time>2026-09-02T15:10:02.000Z</time>
      </trkpt>
      <trkpt lat="48.12582" lon="6.86833">
        <ele>760.19995117188</ele>
        <time>2026-09-02T15:10:03.000Z</time>
      </trkpt>
      <trkpt lat="48.12582" lon="6.86833">
        <ele>760.19995117188</ele>
        <time>2026-09-02T15:10:04.000Z</time>
      </trkpt>
      <trkpt lat="48.12582" lon="6.86833">
        <ele>760.19995117188</ele>
        <time>2026-09-02T15:10:05.000Z</time>
      </trkpt>
      <trkpt lat="48.12582" lon="6.86833">
        <ele>760.40002441406</ele>
        <time>2026-09-02T15:10:06.000Z</time>
      </trkpt>
      <trkpt lat="48.12582" lon="6.86833">
        <ele>760.40002441406</ele>
        <time>2026-09-02T15:10:07.000Z</time>
      </trkpt>
      <trkpt lat="48.12582" lon="6.86833">
        <ele>760.19995117188</ele>
        <time>2026-09-02T15:10:08.000Z</time>
      </trkpt>
      <trkpt lat="48.12582" lon="6.86833">
        <ele>760.19995117188</ele>
        <time>2026-09-02T15:10:09.000Z</time>
      </trkpt>
      <trkpt lat="48.12582" lon="6.86833">
        <ele>760.19995117188</ele>
        <time>2026-09-02T15:10:10.000Z</time>
      </trkpt>
      <trkpt lat="48.12582" lon="6.86833">
        <ele>760.19995117188</ele>
        <time>2026-09-02T15:10:11.000Z</time>
      </trkpt>
      <trkpt lat="48.12581" lon="6.86833">
        <ele>760.40002441406</ele>
        <time>2026-09-02T15:10:12.000Z</time>
      </trkpt>
      <trkpt lat="48.12582" lon="6.86833">
        <ele>760.59997558594</ele>
        <time>2026-09-02T15:10:13.000Z</time>
      </trkpt>
      <trkpt lat="48.12582" lon="6.86833">
        <ele>760.80004882812</ele>
        <time>2026-09-02T15:10:14.000Z</time>
      </trkpt>
      <trkpt lat="48.12582" lon="6.86833">
        <ele>761</ele>
        <time>2026-09-02T15:10:15.000Z</time>
      </trkpt>
      <trkpt lat="48.12582" lon="6.86833">
        <ele>761.19995117188</ele>
        <time>2026-09-02T15:10:16.000Z</time>
      </trkpt>
      <trkpt lat="48.12582" lon="6.86833">
        <ele>761.19995117188</ele>
        <time>2026-09-02T15:10:17.000Z</time>
      </trkpt>
      <trkpt lat="48.12582" lon="6.86833">
        <ele>761.19995117188</ele>
        <time>2026-09-02T15:10:18.000Z</time>
      </trkpt>
      <trkpt lat="48.12582" lon="6.86833">
        <ele>761</ele>
        <time>2026-09-02T15:10:19.000Z</time>
      </trkpt>
      <trkpt lat="48.12582" lon="6.86833">
        <ele>761</ele>
        <time>2026-09-02T15:10:20.000Z</time>
      </trkpt>
      <trkpt lat="48.12582" lon="6.86833">
        <ele>761</ele>
        <time>2026-09-02T15:10:21.000Z</time>
      </trkpt>
      <trkpt lat="48.12582" lon="6.86833">
        <ele>761</ele>
        <time>2026-09-02T15:10:22.000Z</time>
      </trkpt>
      <trkpt lat="48.12582" lon="6.86833">
        <ele>761</ele>
        <time>2026-09-02T15:10:23.000Z</time>
      </trkpt>
      <trkpt lat="48.12582" lon="6.86833">
        <ele>761</ele>
        <time>2026-09-02T15:10:24.000Z</time>
      </trkpt>
      <trkpt lat="48.12582" lon="6.86833">
        <ele>761</ele>
        <time>2026-09-02T15:10:25.000Z</time>
      </trkpt>
      <trkpt lat="48.12582" lon="6.86833">
        <ele>761</ele>
        <time>2026-09-02T15:10:26.000Z</time>
      </trkpt>
      <trkpt lat="48.12582" lon="6.86833">
        <ele>761</ele>
        <time>2026-09-02T15:10:27.000Z</time>
      </trkpt>
      <trkpt lat="48.12582" lon="6.86833">
        <ele>761</ele>
        <time>2026-09-02T15:10:28.000Z</time>
      </trkpt>
      <trkpt lat="48.12582" lon="6.86833">
        <ele>761</ele>
        <time>2026-09-02T15:10:29.000Z</time>
      </trkpt>
      <trkpt lat="48.12582" lon="6.86833">
        <ele>761</ele>
        <time>2026-09-02T15:10:30.000Z</time>
      </trkpt>
      <trkpt lat="48.12582" lon="6.86833">
        <ele>760.80004882812</ele>
        <time>2026-09-02T15:10:31.000Z</time>
      </trkpt>
      <trkpt lat="48.12582" lon="6.86833">
        <ele>760.80004882812</ele>
        <time>2026-09-02T15:10:32.000Z</time>
      </trkpt>
      <trkpt lat="48.12582" lon="6.86833">
        <ele>760.80004882812</ele>
        <time>2026-09-02T15:10:33.000Z</time>
      </trkpt>
      <trkpt lat="48.12582" lon="6.86833">
        <ele>760.80004882812</ele>
        <time>2026-09-02T15:10:34.000Z</time>
      </trkpt>
      <trkpt lat="48.12582" lon="6.86833">
        <ele>760.59997558594</ele>
        <time>2026-09-02T15:10:35.000Z</time>
      </trkpt>
      <trkpt lat="48.12582" lon="6.86833">
        <ele>760.59997558594</ele>
        <time>2026-09-02T15:10:36.000Z</time>
      </trkpt>
      <trkpt lat="48.12582" lon="6.86833">
        <ele>760.59997558594</ele>
        <time>2026-09-02T15:10:37.000Z</time>
      </trkpt>
      <trkpt lat="48.12582" lon="6.86833">
        <ele>760.59997558594</ele>
        <time>2026-09-02T15:10:38.000Z</time>
      </trkpt>
      <trkpt lat="48.12582" lon="6.86833">
        <ele>760.59997558594</ele>
        <time>2026-09-02T15:10:39.000Z</time>
      </trkpt>
      <trkpt lat="48.12582" lon="6.86833">
        <ele>760.80004882812</ele>
        <time>2026-09-02T15:10:40.000Z</time>
      </trkpt>
      <trkpt lat="48.12582" lon="6.86833">
        <ele>760.80004882812</ele>
        <time>2026-09-02T15:10:41.000Z</time>
      </trkpt>
      <trkpt lat="48.12582" lon="6.86833">
        <ele>760.80004882812</ele>
        <time>2026-09-02T15:10:42.000Z</time>
      </trkpt>
      <trkpt lat="48.12582" lon="6.86833">
        <ele>760.59997558594</ele>
        <time>2026-09-02T15:10:43.000Z</time>
      </trkpt>
      <trkpt lat="48.12582" lon="6.86833">
        <ele>760.59997558594</ele>
        <time>2026-09-02T15:10:44.000Z</time>
      </trkpt>
      <trkpt lat="48.12582" lon="6.86833">
        <ele>760.40002441406</ele>
        <time>2026-09-02T15:10:45.000Z</time>
      </trkpt>
      <trkpt lat="48.12582" lon="6.86833">
        <ele>760.40002441406</ele>
        <time>2026-09-02T15:10:46.000Z</time>
      </trkpt>
      <trkpt lat="48.12582" lon="6.86833">
        <ele>760.40002441406</ele>
        <time>2026-09-02T15:10:47.000Z</time>
      </trkpt>
      <trkpt lat="48.12582" lon="6.86833">
        <ele>760.40002441406</ele>
        <time>2026-09-02T15:10:48.000Z</time>
      </trkpt>
      <trkpt lat="48.12582" lon="6.86833">
        <ele>760.40002441406</ele>
        <time>2026-09-02T15:10:49.000Z</time>
      </trkpt>
      <trkpt lat="48.12582" lon="6.86833">
        <ele>760.40002441406</ele>
        <time>2026-09-02T15:10:50.000Z</time>
      </trkpt>
      <trkpt lat="48.12582" lon="6.86833">
        <ele>760.40002441406</ele>
        <time>2026-09-02T15:10:51.000Z</time>
      </trkpt>
      <trkpt lat="48.12582" lon="6.86833">
        <ele>760.40002441406</ele>
        <time>2026-09-02T15:10:52.000Z</time>
      </trkpt>
      <trkpt lat="48.12582" lon="6.86833">
        <ele>760.19995117188</ele>
        <time>2026-09-02T15:10:53.000Z</time>
      </trkpt>
      <trkpt lat="48.12582" lon="6.86833">
        <ele>760</ele>
        <time>2026-09-02T15:10:54.000Z</time>
      </trkpt>
      <trkpt lat="48.12582" lon="6.86833">
        <ele>760</ele>
        <time>2026-09-02T15:10:55.000Z</time>
      </trkpt>
      <trkpt lat="48.12582" lon="6.86833">
        <ele>760</ele>
        <time>2026-09-02T15:10:56.000Z</time>
      </trkpt>
      <trkpt lat="48.12582" lon="6.86833">
        <ele>760.19995117188</ele>
        <time>2026-09-02T15:10:57.000Z</time>
      </trkpt>
      <trkpt lat="48.12582" lon="6.86833">
        <ele>760.19995117188</ele>
        <time>2026-09-02T15:10:58.000Z</time>
      </trkpt>
      <trkpt lat="48.12582" lon="6.86833">
        <ele>760.40002441406</ele>
        <time>2026-09-02T15:10:59.000Z</time>
      </trkpt>
      <trkpt lat="48.12582" lon="6.86834">
        <ele>760.19995117188</ele>
        <time>2026-09-02T15:11:00.000Z</time>
      </trkpt>
      <trkpt lat="48.12582" lon="6.86835">
        <ele>760.19995117188</ele>
        <time>2026-09-02T15:11:01.000Z</time>
      </trkpt>
      <trkpt lat="48.12582" lon="6.86835">
        <ele>760.19995117188</ele>
        <time>2026-09-02T15:11:02.000Z</time>
      </trkpt>
      <trkpt lat="48.12582" lon="6.86835">
        <ele>760.19995117188</ele>
        <time>2026-09-02T15:11:03.000Z</time>
      </trkpt>
      <trkpt lat="48.12582" lon="6.86835">
        <ele>760.40002441406</ele>
        <time>2026-09-02T15:11:04.000Z</time>
      </trkpt>
      <trkpt lat="48.12582" lon="6.86835">
        <ele>760.40002441406</ele>
        <time>2026-09-02T15:11:05.000Z</time>
      </trkpt>
      <trkpt lat="48.12582" lon="6.86835">
        <ele>760.40002441406</ele>
        <time>2026-09-02T15:11:06.000Z</time>
      </trkpt>
      <trkpt lat="48.12582" lon="6.86835">
        <ele>760.40002441406</ele>
        <time>2026-09-02T15:11:07.000Z</time>
      </trkpt>
      <trkpt lat="48.12582" lon="6.86835">
        <ele>760.40002441406</ele>
        <time>2026-09-02T15:11:08.000Z</time>
      </trkpt>
      <trkpt lat="48.12582" lon="6.86835">
        <ele>760.40002441406</ele>
        <time>2026-09-02T15:11:09.000Z</time>
      </trkpt>
      <trkpt lat="48.12582" lon="6.86835">
        <ele>760.40002441406</ele>
        <time>2026-09-02T15:11:10.000Z</time>
      </trkpt>
      <trkpt lat="48.12582" lon="6.86835">
        <ele>760.40002441406</ele>
        <time>2026-09-02T15:11:11.000Z</time>
      </trkpt>
      <trkpt lat="48.12582" lon="6.86835">
        <ele>760.40002441406</ele>
        <time>2026-09-02T15:11:12.000Z</time>
      </trkpt>
      <trkpt lat="48.12582" lon="6.86835">
        <ele>760.40002441406</ele>
        <time>2026-09-02T15:11:13.000Z</time>
      </trkpt>
      <trkpt lat="48.12582" lon="6.86835">
        <ele>760.40002441406</ele>
        <time>2026-09-02T15:11:14.000Z</time>
      </trkpt>
      <trkpt lat="48.12582" lon="6.86835">
        <ele>760.40002441406</ele>
        <time>2026-09-02T15:11:15.000Z</time>
      </trkpt>
      <trkpt lat="48.12582" lon="6.86835">
        <ele>760.40002441406</ele>
        <time>2026-09-02T15:11:16.000Z</time>
      </trkpt>
      <trkpt lat="48.12582" lon="6.86835">
        <ele>760.40002441406</ele>
        <time>2026-09-02T15:11:17.000Z</time>
      </trkpt>
      <trkpt lat="48.12583" lon="6.86835">
        <ele>760.40002441406</ele>
        <time>2026-09-02T15:11:18.000Z</time>
      </trkpt>
      <trkpt lat="48.12583" lon="6.86835">
        <ele>760.40002441406</ele>
        <time>2026-09-02T15:11:19.000Z</time>
      </trkpt>
      <trkpt lat="48.12582" lon="6.86835">
        <ele>760.19995117188</ele>
        <time>2026-09-02T15:11:20.000Z</time>
      </trkpt>
      <trkpt lat="48.12582" lon="6.86835">
        <ele>760.19995117188</ele>
        <time>2026-09-02T15:11:21.000Z</time>
      </trkpt>
      <trkpt lat="48.12582" lon="6.86835">
        <ele>760.19995117188</ele>
        <time>2026-09-02T15:11:22.000Z</time>
      </trkpt>
      <trkpt lat="48.12582" lon="6.86835">
        <ele>760</ele>
        <time>2026-09-02T15:11:23.000Z</time>
      </trkpt>
      <trkpt lat="48.12582" lon="6.86835">
        <ele>760</ele>
        <time>2026-09-02T15:11:24.000Z</time>
      </trkpt>
      <trkpt lat="48.12582" lon="6.86835">
        <ele>760.19995117188</ele>
        <time>2026-09-02T15:11:25.000Z</time>
      </trkpt>
      <trkpt lat="48.12582" lon="6.86835">
        <ele>760.19995117188</ele>
        <time>2026-09-02T15:11:26.000Z</time>
      </trkpt>
      <trkpt lat="48.12582" lon="6.86835">
        <ele>760.19995117188</ele>
        <time>2026-09-02T15:11:27.000Z</time>
      </trkpt>
      <trkpt lat="48.12582" lon="6.86835">
        <ele>760.40002441406</ele>
        <time>2026-09-02T15:11:28.000Z</time>
      </trkpt>
      <trkpt lat="48.12582" lon="6.86835">
        <ele>760.40002441406</ele>
        <time>2026-09-02T15:11:29.000Z</time>
      </trkpt>
      <trkpt lat="48.12582" lon="6.86835">
        <ele>760.19995117188</ele>
        <time>2026-09-02T15:11:30.000Z</time>
      </trkpt>
      <trkpt lat="48.12582" lon="6.86835">
        <ele>760.19995117188</ele>
        <time>2026-09-02T15:11:31.000Z</time>
      </trkpt>
      <trkpt lat="48.12582" lon="6.86835">
        <ele>760.19995117188</ele>
        <time>2026-09-02T15:11:32.000Z</time>
      </trkpt>
      <trkpt lat="48.12582" lon="6.86835">
        <ele>760</ele>
        <time>2026-09-02T15:11:33.000Z</time>
      </trkpt>
      <trkpt lat="48.12582" lon="6.86835">
        <ele>760.19995117188</ele>
        <time>2026-09-02T15:11:34.000Z</time>
      </trkpt>
      <trkpt lat="48.12582" lon="6.86835">
        <ele>760.19995117188</ele>
        <time>2026-09-02T15:11:35.000Z</time>
      </trkpt>
      <trkpt lat="48.12582" lon="6.86835">
        <ele>760.19995117188</ele>
        <time>2026-09-02T15:11:36.000Z</time>
      </trkpt>
      <trkpt lat="48.12582" lon="6.86835">
        <ele>760.19995117188</ele>
        <time>2026-09-02T15:11:37.000Z</time>
      </trkpt>
      <trkpt lat="48.12582" lon="6.86835">
        <ele>760.19995117188</ele>
        <time>2026-09-02T15:11:38.000Z</time>
      </trkpt>
      <trkpt lat="48.12582" lon="6.86835">
        <ele>760.19995117188</ele>
        <time>2026-09-02T15:11:39.000Z</time>
      </trkpt>
      <trkpt lat="48.12582" lon="6.86835">
        <ele>760.19995117188</ele>
        <time>2026-09-02T15:11:40.000Z</time>
      </trkpt>
      <trkpt lat="48.12582" lon="6.86835">
        <ele>760.19995117188</ele>
        <time>2026-09-02T15:11:41.000Z</time>
      </trkpt>
      <trkpt lat="48.12582" lon="6.86835">
        <ele>760.19995117188</ele>
        <time>2026-09-02T15:11:42.000Z</time>
      </trkpt>
      <trkpt lat="48.12582" lon="6.86835">
        <ele>760</ele>
        <time>2026-09-02T15:11:43.000Z</time>
      </trkpt>
      <trkpt lat="48.12582" lon="6.86835">
        <ele>760</ele>
        <time>2026-09-02T15:11:44.000Z</time>
      </trkpt>
      <trkpt lat="48.12582" lon="6.86835">
        <ele>760</ele>
        <time>2026-09-02T15:11:45.000Z</time>
      </trkpt>
      <trkpt lat="48.12582" lon="6.86835">
        <ele>760</ele>
        <time>2026-09-02T15:11:46.000Z</time>
      </trkpt>
      <trkpt lat="48.12582" lon="6.86835">
        <ele>760</ele>
        <time>2026-09-02T15:11:47.000Z</time>
      </trkpt>
      <trkpt lat="48.12582" lon="6.86835">
        <ele>760</ele>
        <time>2026-09-02T15:11:48.000Z</time>
      </trkpt>
      <trkpt lat="48.12582" lon="6.86835">
        <ele>760</ele>
        <time>2026-09-02T15:11:49.000Z</time>
      </trkpt>
      <trkpt lat="48.12582" lon="6.86835">
        <ele>760</ele>
        <time>2026-09-02T15:11:50.000Z</time>
      </trkpt>
      <trkpt lat="48.12582" lon="6.86835">
        <ele>760</ele>
        <time>2026-09-02T15:11:51.000Z</time>
      </trkpt>
      <trkpt lat="48.12582" lon="6.86835">
        <ele>760</ele>
        <time>2026-09-02T15:11:52.000Z</time>
      </trkpt>
      <trkpt lat="48.12582" lon="6.86835">
        <ele>760</ele>
        <time>2026-09-02T15:11:53.000Z</time>
      </trkpt>
      <trkpt lat="48.12582" lon="6.86835">
        <ele>760</ele>
        <time>2026-09-02T15:11:54.000Z</time>
      </trkpt>
      <trkpt lat="48.12582" lon="6.86835">
        <ele>760</ele>
        <time>2026-09-02T15:11:55.000Z</time>
      </trkpt>
      <trkpt lat="48.12582" lon="6.86835">
        <ele>760.19995117188</ele>
        <time>2026-09-02T15:11:56.000Z</time>
      </trkpt>
      <trkpt lat="48.12582" lon="6.86835">
        <ele>760.19995117188</ele>
        <time>2026-09-02T15:11:57.000Z</time>
      </trkpt>
      <trkpt lat="48.12582" lon="6.86835">
        <ele>760.19995117188</ele>
        <time>2026-09-02T15:11:58.000Z</time>
      </trkpt>
      <trkpt lat="48.12582" lon="6.86835">
        <ele>760.19995117188</ele>
        <time>2026-09-02T15:11:59.000Z</time>
      </trkpt>
      <trkpt lat="48.12582" lon="6.86835">
        <ele>760.19995117188</ele>
        <time>2026-09-02T15:12:00.000Z</time>
      </trkpt>
      <trkpt lat="48.12582" lon="6.86835">
        <ele>760</ele>
        <time>2026-09-02T15:12:01.000Z</time>
      </trkpt>
      <trkpt lat="48.12582" lon="6.86835">
        <ele>760</ele>
        <time>2026-09-02T15:12:02.000Z</time>
      </trkpt>
      <trkpt lat="48.12582" lon="6.86835">
        <ele>760.19995117188</ele>
        <time>2026-09-02T15:12:03.000Z</time>
      </trkpt>
      <trkpt lat="48.12582" lon="6.86835">
        <ele>760.19995117188</ele>
        <time>2026-09-02T15:12:04.000Z</time>
      </trkpt>
      <trkpt lat="48.12582" lon="6.86835">
        <ele>760.19995117188</ele>
        <time>2026-09-02T15:12:05.000Z</time>
      </trkpt>
      <trkpt lat="48.12582" lon="6.86835">
        <ele>760.19995117188</ele>
        <time>2026-09-02T15:12:06.000Z</time>
      </trkpt>
      <trkpt lat="48.12582" lon="6.86835">
        <ele>760</ele>
        <time>2026-09-02T15:12:07.000Z</time>
      </trkpt>
      <trkpt lat="48.12582" lon="6.86835">
        <ele>760</ele>
        <time>2026-09-02T15:12:08.000Z</time>
      </trkpt>
      <trkpt lat="48.12582" lon="6.86835">
        <ele>760</ele>
        <time>2026-09-02T15:12:09.000Z</time>
      </trkpt>
      <trkpt lat="48.12582" lon="6.86835">
        <ele>760</ele>
        <time>2026-09-02T15:12:10.000Z</time>
      </trkpt>
      <trkpt lat="48.12582" lon="6.86835">
        <ele>760</ele>
        <time>2026-09-02T15:12:11.000Z</time>
      </trkpt>
      <trkpt lat="48.12582" lon="6.86835">
        <ele>760</ele>
        <time>2026-09-02T15:12:12.000Z</time>
      </trkpt>
      <trkpt lat="48.12582" lon="6.86835">
        <ele>760</ele>
        <time>2026-09-02T15:12:13.000Z</time>
      </trkpt>
      <trkpt lat="48.12582" lon="6.86835">
        <ele>760</ele>
        <time>2026-09-02T15:12:14.000Z</time>
      </trkpt>
      <trkpt lat="48.12582" lon="6.86835">
        <ele>760.19995117188</ele>
        <time>2026-09-02T15:12:15.000Z</time>
      </trkpt>
      <trkpt lat="48.12582" lon="6.86835">
        <ele>760</ele>
        <time>2026-09-02T15:12:16.000Z</time>
      </trkpt>
      <trkpt lat="48.12582" lon="6.86835">
        <ele>760</ele>
        <time>2026-09-02T15:12:17.000Z</time>
      </trkpt>
      <trkpt lat="48.12582" lon="6.86835">
        <ele>760</ele>
        <time>2026-09-02T15:12:18.000Z</time>
      </trkpt>
      <trkpt lat="48.12582" lon="6.86835">
        <ele>759.80004882812</ele>
        <time>2026-09-02T15:12:19.000Z</time>
      </trkpt>
      <trkpt lat="48.12582" lon="6.86835">
        <ele>759.80004882812</ele>
        <time>2026-09-02T15:12:20.000Z</time>
      </trkpt>
      <trkpt lat="48.12582" lon="6.86835">
        <ele>760</ele>
        <time>2026-09-02T15:12:21.000Z</time>
      </trkpt>
      <trkpt lat="48.12582" lon="6.86835">
        <ele>760</ele>
        <time>2026-09-02T15:12:22.000Z</time>
      </trkpt>
      <trkpt lat="48.12582" lon="6.86835">
        <ele>760</ele>
        <time>2026-09-02T15:12:23.000Z</time>
      </trkpt>
      <trkpt lat="48.12582" lon="6.86835">
        <ele>760</ele>
        <time>2026-09-02T15:12:24.000Z</time>
      </trkpt>
      <trkpt lat="48.12582" lon="6.86835">
        <ele>760</ele>
        <time>2026-09-02T15:12:25.000Z</time>
      </trkpt>
      <trkpt lat="48.12582" lon="6.86835">
        <ele>760</ele>
        <time>2026-09-02T15:12:26.000Z</time>
      </trkpt>
      <trkpt lat="48.12582" lon="6.86835">
        <ele>760</ele>
        <time>2026-09-02T15:12:27.000Z</time>
      </trkpt>
      <trkpt lat="48.12582" lon="6.86835">
        <ele>760</ele>
        <time>2026-09-02T15:12:28.000Z</time>
      </trkpt>
      <trkpt lat="48.12582" lon="6.86835">
        <ele>760</ele>
        <time>2026-09-02T15:12:29.000Z</time>
      </trkpt>
      <trkpt lat="48.12582" lon="6.86835">
        <ele>760</ele>
        <time>2026-09-02T15:12:30.000Z</time>
      </trkpt>
      <trkpt lat="48.12582" lon="6.86835">
        <ele>760.19995117188</ele>
        <time>2026-09-02T15:12:31.000Z</time>
      </trkpt>
      <trkpt lat="48.12582" lon="6.86835">
        <ele>760.19995117188</ele>
        <time>2026-09-02T15:12:32.000Z</time>
      </trkpt>
      <trkpt lat="48.12582" lon="6.86835">
        <ele>760.19995117188</ele>
        <time>2026-09-02T15:12:33.000Z</time>
      </trkpt>
      <trkpt lat="48.12582" lon="6.86835">
        <ele>760.19995117188</ele>
        <time>2026-09-02T15:12:34.000Z</time>
      </trkpt>
      <trkpt lat="48.12582" lon="6.86835">
        <ele>760.19995117188</ele>
        <time>2026-09-02T15:12:35.000Z</time>
      </trkpt>
      <trkpt lat="48.12582" lon="6.86835">
        <ele>760.19995117188</ele>
        <time>2026-09-02T15:12:36.000Z</time>
      </trkpt>
      <trkpt lat="48.12582" lon="6.86835">
        <ele>760.19995117188</ele>
        <time>2026-09-02T15:12:37.000Z</time>
      </trkpt>
      <trkpt lat="48.12582" lon="6.86835">
        <ele>760.19995117188</ele>
        <time>2026-09-02T15:12:38.000Z</time>
      </trkpt>
      <trkpt lat="48.12582" lon="6.86835">
        <ele>760</ele>
        <time>2026-09-02T15:12:39.000Z</time>
      </trkpt>
      <trkpt lat="48.12582" lon="6.86835">
        <ele>760</ele>
        <time>2026-09-02T15:12:40.000Z</time>
      </trkpt>
      <trkpt lat="48.12582" lon="6.86835">
        <ele>759.80004882812</ele>
        <time>2026-09-02T15:12:41.000Z</time>
      </trkpt>
      <trkpt lat="48.12582" lon="6.86835">
        <ele>759.80004882812</ele>
        <time>2026-09-02T15:12:42.000Z</time>
      </trkpt>
      <trkpt lat="48.12582" lon="6.86835">
        <ele>759.80004882812</ele>
        <time>2026-09-02T15:12:43.000Z</time>
      </trkpt>
      <trkpt lat="48.12582" lon="6.86835">
        <ele>759.80004882812</ele>
        <time>2026-09-02T15:12:44.000Z</time>
      </trkpt>
      <trkpt lat="48.12582" lon="6.86835">
        <ele>759.80004882812</ele>
        <time>2026-09-02T15:12:45.000Z</time>
      </trkpt>
      <trkpt lat="48.12582" lon="6.86835">
        <ele>759.80004882812</ele>
        <time>2026-09-02T15:12:46.000Z</time>
      </trkpt>
      <trkpt lat="48.12582" lon="6.86835">
        <ele>760</ele>
        <time>2026-09-02T15:12:47.000Z</time>
      </trkpt>
      <trkpt lat="48.12582" lon="6.86835">
        <ele>760</ele>
        <time>2026-09-02T15:12:48.000Z</time>
      </trkpt>
      <trkpt lat="48.12582" lon="6.86835">
        <ele>760</ele>
        <time>2026-09-02T15:12:49.000Z</time>
      </trkpt>
      <trkpt lat="48.12582" lon="6.86835">
        <ele>760</ele>
        <time>2026-09-02T15:12:50.000Z</time>
      </trkpt>
      <trkpt lat="48.12583" lon="6.86834">
        <ele>760</ele>
        <time>2026-09-02T15:12:51.000Z</time>
      </trkpt>
      <trkpt lat="48.12583" lon="6.86832">
        <ele>759.80004882812</ele>
        <time>2026-09-02T15:12:52.000Z</time>
      </trkpt>
      <trkpt lat="48.12583" lon="6.86831">
        <ele>759.80004882812</ele>
        <time>2026-09-02T15:12:53.000Z</time>
      </trkpt>
      <trkpt lat="48.12583" lon="6.8683">
        <ele>759.80004882812</ele>
        <time>2026-09-02T15:12:54.000Z</time>
      </trkpt>
      <trkpt lat="48.12584" lon="6.86829">
        <ele>759.80004882812</ele>
        <time>2026-09-02T15:12:55.000Z</time>
      </trkpt>
      <trkpt lat="48.12584" lon="6.86828">
        <ele>759.80004882812</ele>
        <time>2026-09-02T15:12:56.000Z</time>
      </trkpt>
      <trkpt lat="48.12585" lon="6.86827">
        <ele>759.59997558594</ele>
        <time>2026-09-02T15:12:57.000Z</time>
      </trkpt>
      <trkpt lat="48.12586" lon="6.86826">
        <ele>759.59997558594</ele>
        <time>2026-09-02T15:12:58.000Z</time>
      </trkpt>
      <trkpt lat="48.12586" lon="6.86825">
        <ele>759.40002441406</ele>
        <time>2026-09-02T15:12:59.000Z</time>
      </trkpt>
      <trkpt lat="48.12587" lon="6.86824">
        <ele>759.40002441406</ele>
        <time>2026-09-02T15:13:00.000Z</time>
      </trkpt>
      <trkpt lat="48.12587" lon="6.86823">
        <ele>759.40002441406</ele>
        <time>2026-09-02T15:13:01.000Z</time>
      </trkpt>
      <trkpt lat="48.12588" lon="6.86823">
        <ele>759.40002441406</ele>
        <time>2026-09-02T15:13:02.000Z</time>
      </trkpt>
      <trkpt lat="48.12589" lon="6.86822">
        <ele>759.19995117188</ele>
        <time>2026-09-02T15:13:03.000Z</time>
      </trkpt>
      <trkpt lat="48.12589" lon="6.86822">
        <ele>759.19995117188</ele>
        <time>2026-09-02T15:13:04.000Z</time>
      </trkpt>
      <trkpt lat="48.12589" lon="6.86822">
        <ele>759</ele>
        <time>2026-09-02T15:13:05.000Z</time>
      </trkpt>
      <trkpt lat="48.12589" lon="6.86821">
        <ele>759</ele>
        <time>2026-09-02T15:13:06.000Z</time>
      </trkpt>
      <trkpt lat="48.12589" lon="6.86821">
        <ele>758.80004882812</ele>
        <time>2026-09-02T15:13:07.000Z</time>
      </trkpt>
      <trkpt lat="48.12589" lon="6.86821">
        <ele>758.59997558594</ele>
        <time>2026-09-02T15:13:08.000Z</time>
      </trkpt>
      <trkpt lat="48.12589" lon="6.86821">
        <ele>758.40002441406</ele>
        <time>2026-09-02T15:13:09.000Z</time>
      </trkpt>
      <trkpt lat="48.12589" lon="6.8682">
        <ele>758.40002441406</ele>
        <time>2026-09-02T15:13:10.000Z</time>
      </trkpt>
      <trkpt lat="48.12589" lon="6.86821">
        <ele>758.19995117188</ele>
        <time>2026-09-02T15:13:11.000Z</time>
      </trkpt>
      <trkpt lat="48.12589" lon="6.8682">
        <ele>758.19995117188</ele>
        <time>2026-09-02T15:13:12.000Z</time>
      </trkpt>
      <trkpt lat="48.12589" lon="6.8682">
        <ele>758.19995117188</ele>
        <time>2026-09-02T15:13:13.000Z</time>
      </trkpt>
      <trkpt lat="48.12589" lon="6.8682">
        <ele>758</ele>
        <time>2026-09-02T15:13:14.000Z</time>
      </trkpt>
      <trkpt lat="48.12589" lon="6.8682">
        <ele>758</ele>
        <time>2026-09-02T15:13:15.000Z</time>
      </trkpt>
      <trkpt lat="48.12589" lon="6.8682">
        <ele>758</ele>
        <time>2026-09-02T15:13:16.000Z</time>
      </trkpt>
      <trkpt lat="48.12589" lon="6.8682">
        <ele>758</ele>
        <time>2026-09-02T15:13:17.000Z</time>
      </trkpt>
      <trkpt lat="48.1259" lon="6.86819">
        <ele>758</ele>
        <time>2026-09-02T15:13:18.000Z</time>
      </trkpt>
      <trkpt lat="48.1259" lon="6.86818">
        <ele>758.19995117188</ele>
        <time>2026-09-02T15:13:19.000Z</time>
      </trkpt>
      <trkpt lat="48.1259" lon="6.86817">
        <ele>758.19995117188</ele>
        <time>2026-09-02T15:13:20.000Z</time>
      </trkpt>
      <trkpt lat="48.12591" lon="6.86816">
        <ele>758.19995117188</ele>
        <time>2026-09-02T15:13:21.000Z</time>
      </trkpt>
      <trkpt lat="48.12591" lon="6.86815">
        <ele>758</ele>
        <time>2026-09-02T15:13:22.000Z</time>
      </trkpt>
      <trkpt lat="48.12592" lon="6.86814">
        <ele>758</ele>
        <time>2026-09-02T15:13:23.000Z</time>
      </trkpt>
      <trkpt lat="48.12592" lon="6.86812">
        <ele>757.80004882812</ele>
        <time>2026-09-02T15:13:24.000Z</time>
      </trkpt>
      <trkpt lat="48.12593" lon="6.86812">
        <ele>757.59997558594</ele>
        <time>2026-09-02T15:13:25.000Z</time>
      </trkpt>
      <trkpt lat="48.12593" lon="6.86811">
        <ele>757.40002441406</ele>
        <time>2026-09-02T15:13:26.000Z</time>
      </trkpt>
      <trkpt lat="48.12594" lon="6.8681">
        <ele>757.19995117188</ele>
        <time>2026-09-02T15:13:27.000Z</time>
      </trkpt>
      <trkpt lat="48.12594" lon="6.86808">
        <ele>757.19995117188</ele>
        <time>2026-09-02T15:13:28.000Z</time>
      </trkpt>
      <trkpt lat="48.12595" lon="6.86808">
        <ele>757</ele>
        <time>2026-09-02T15:13:29.000Z</time>
      </trkpt>
      <trkpt lat="48.12595" lon="6.86806">
        <ele>757</ele>
        <time>2026-09-02T15:13:30.000Z</time>
      </trkpt>
      <trkpt lat="48.12595" lon="6.86806">
        <ele>757</ele>
        <time>2026-09-02T15:13:31.000Z</time>
      </trkpt>
      <trkpt lat="48.12596" lon="6.86805">
        <ele>756.80004882812</ele>
        <time>2026-09-02T15:13:32.000Z</time>
      </trkpt>
      <trkpt lat="48.12596" lon="6.86804">
        <ele>756.80004882812</ele>
        <time>2026-09-02T15:13:33.000Z</time>
      </trkpt>
      <trkpt lat="48.12596" lon="6.86803">
        <ele>756.80004882812</ele>
        <time>2026-09-02T15:13:34.000Z</time>
      </trkpt>
      <trkpt lat="48.12597" lon="6.86803">
        <ele>756.59997558594</ele>
        <time>2026-09-02T15:13:35.000Z</time>
      </trkpt>
      <trkpt lat="48.12597" lon="6.86802">
        <ele>756.40002441406</ele>
        <time>2026-09-02T15:13:36.000Z</time>
      </trkpt>
      <trkpt lat="48.12597" lon="6.86801">
        <ele>756.40002441406</ele>
        <time>2026-09-02T15:13:37.000Z</time>
      </trkpt>
      <trkpt lat="48.12597" lon="6.868">
        <ele>756.19995117188</ele>
        <time>2026-09-02T15:13:38.000Z</time>
      </trkpt>
      <trkpt lat="48.12597" lon="6.86799">
        <ele>756</ele>
        <time>2026-09-02T15:13:39.000Z</time>
      </trkpt>
      <trkpt lat="48.12598" lon="6.86798">
        <ele>756</ele>
        <time>2026-09-02T15:13:40.000Z</time>
      </trkpt>
      <trkpt lat="48.12598" lon="6.86797">
        <ele>755.80004882812</ele>
        <time>2026-09-02T15:13:41.000Z</time>
      </trkpt>
      <trkpt lat="48.12598" lon="6.86795">
        <ele>755.80004882812</ele>
        <time>2026-09-02T15:13:42.000Z</time>
      </trkpt>
      <trkpt lat="48.12598" lon="6.86794">
        <ele>755.80004882812</ele>
        <time>2026-09-02T15:13:43.000Z</time>
      </trkpt>
      <trkpt lat="48.12599" lon="6.86793">
        <ele>755.80004882812</ele>
        <time>2026-09-02T15:13:44.000Z</time>
      </trkpt>
      <trkpt lat="48.12599" lon="6.86792">
        <ele>755.80004882812</ele>
        <time>2026-09-02T15:13:45.000Z</time>
      </trkpt>
      <trkpt lat="48.12599" lon="6.86791">
        <ele>755.59997558594</ele>
        <time>2026-09-02T15:13:46.000Z</time>
      </trkpt>
      <trkpt lat="48.12599" lon="6.86791">
        <ele>755.40002441406</ele>
        <time>2026-09-02T15:13:47.000Z</time>
      </trkpt>
      <trkpt lat="48.12599" lon="6.8679">
        <ele>755.19995117188</ele>
        <time>2026-09-02T15:13:48.000Z</time>
      </trkpt>
      <trkpt lat="48.126" lon="6.8679">
        <ele>755.19995117188</ele>
        <time>2026-09-02T15:13:49.000Z</time>
      </trkpt>
      <trkpt lat="48.126" lon="6.86789">
        <ele>755</ele>
        <time>2026-09-02T15:13:50.000Z</time>
      </trkpt>
      <trkpt lat="48.126" lon="6.86789">
        <ele>755</ele>
        <time>2026-09-02T15:13:51.000Z</time>
      </trkpt>
      <trkpt lat="48.12601" lon="6.86788">
        <ele>755</ele>
        <time>2026-09-02T15:13:52.000Z</time>
      </trkpt>
      <trkpt lat="48.12601" lon="6.86788">
        <ele>755.19995117188</ele>
        <time>2026-09-02T15:13:53.000Z</time>
      </trkpt>
      <trkpt lat="48.12601" lon="6.86787">
        <ele>755.19995117188</ele>
        <time>2026-09-02T15:13:54.000Z</time>
      </trkpt>
      <trkpt lat="48.12601" lon="6.86787">
        <ele>755.19995117188</ele>
        <time>2026-09-02T15:13:55.000Z</time>
      </trkpt>
      <trkpt lat="48.12601" lon="6.86786">
        <ele>755.19995117188</ele>
        <time>2026-09-02T15:13:56.000Z</time>
      </trkpt>
      <trkpt lat="48.12602" lon="6.86785">
        <ele>755.19995117188</ele>
        <time>2026-09-02T15:13:57.000Z</time>
      </trkpt>
      <trkpt lat="48.12602" lon="6.86785">
        <ele>755</ele>
        <time>2026-09-02T15:13:58.000Z</time>
      </trkpt>
      <trkpt lat="48.12602" lon="6.86784">
        <ele>754.80004882812</ele>
        <time>2026-09-02T15:13:59.000Z</time>
      </trkpt>
      <trkpt lat="48.12603" lon="6.86783">
        <ele>754.80004882812</ele>
        <time>2026-09-02T15:14:00.000Z</time>
      </trkpt>
      <trkpt lat="48.12603" lon="6.86782">
        <ele>754.80004882812</ele>
        <time>2026-09-02T15:14:01.000Z</time>
      </trkpt>
      <trkpt lat="48.12604" lon="6.86781">
        <ele>754.80004882812</ele>
        <time>2026-09-02T15:14:02.000Z</time>
      </trkpt>
      <trkpt lat="48.12604" lon="6.86781">
        <ele>754.59997558594</ele>
        <time>2026-09-02T15:14:03.000Z</time>
      </trkpt>
      <trkpt lat="48.12604" lon="6.8678">
        <ele>754.59997558594</ele>
        <time>2026-09-02T15:14:04.000Z</time>
      </trkpt>
      <trkpt lat="48.12604" lon="6.86779">
        <ele>754.40002441406</ele>
        <time>2026-09-02T15:14:05.000Z</time>
      </trkpt>
      <trkpt lat="48.12604" lon="6.86778">
        <ele>754.40002441406</ele>
        <time>2026-09-02T15:14:06.000Z</time>
      </trkpt>
      <trkpt lat="48.12605" lon="6.86777">
        <ele>754.40002441406</ele>
        <time>2026-09-02T15:14:07.000Z</time>
      </trkpt>
      <trkpt lat="48.12605" lon="6.86776">
        <ele>754.19995117188</ele>
        <time>2026-09-02T15:14:08.000Z</time>
      </trkpt>
      <trkpt lat="48.12605" lon="6.86775">
        <ele>754.19995117188</ele>
        <time>2026-09-02T15:14:09.000Z</time>
      </trkpt>
      <trkpt lat="48.12605" lon="6.86774">
        <ele>754</ele>
        <time>2026-09-02T15:14:10.000Z</time>
      </trkpt>
      <trkpt lat="48.12606" lon="6.86773">
        <ele>754</ele>
        <time>2026-09-02T15:14:11.000Z</time>
      </trkpt>
      <trkpt lat="48.12606" lon="6.86773">
        <ele>753.80004882812</ele>
        <time>2026-09-02T15:14:12.000Z</time>
      </trkpt>
      <trkpt lat="48.12605" lon="6.86772">
        <ele>753.80004882812</ele>
        <time>2026-09-02T15:14:13.000Z</time>
      </trkpt>
      <trkpt lat="48.12606" lon="6.86771">
        <ele>753.80004882812</ele>
        <time>2026-09-02T15:14:14.000Z</time>
      </trkpt>
      <trkpt lat="48.12606" lon="6.8677">
        <ele>753.80004882812</ele>
        <time>2026-09-02T15:14:15.000Z</time>
      </trkpt>
      <trkpt lat="48.12606" lon="6.86769">
        <ele>753.80004882812</ele>
        <time>2026-09-02T15:14:16.000Z</time>
      </trkpt>
      <trkpt lat="48.12606" lon="6.86768">
        <ele>753.59997558594</ele>
        <time>2026-09-02T15:14:17.000Z</time>
      </trkpt>
      <trkpt lat="48.12606" lon="6.86767">
        <ele>753.59997558594</ele>
        <time>2026-09-02T15:14:18.000Z</time>
      </trkpt>
      <trkpt lat="48.12606" lon="6.86766">
        <ele>753.59997558594</ele>
        <time>2026-09-02T15:14:19.000Z</time>
      </trkpt>
      <trkpt lat="48.12606" lon="6.86765">
        <ele>753.59997558594</ele>
        <time>2026-09-02T15:14:20.000Z</time>
      </trkpt>
      <trkpt lat="48.12607" lon="6.86764">
        <ele>753.40002441406</ele>
        <time>2026-09-02T15:14:21.000Z</time>
      </trkpt>
      <trkpt lat="48.12607" lon="6.86763">
        <ele>753.40002441406</ele>
        <time>2026-09-02T15:14:22.000Z</time>
      </trkpt>
      <trkpt lat="48.12607" lon="6.86763">
        <ele>753.40002441406</ele>
        <time>2026-09-02T15:14:23.000Z</time>
      </trkpt>
      <trkpt lat="48.12607" lon="6.86762">
        <ele>753.40002441406</ele>
        <time>2026-09-02T15:14:24.000Z</time>
      </trkpt>
      <trkpt lat="48.12607" lon="6.86761">
        <ele>753.40002441406</ele>
        <time>2026-09-02T15:14:25.000Z</time>
      </trkpt>
      <trkpt lat="48.12607" lon="6.8676">
        <ele>753.40002441406</ele>
        <time>2026-09-02T15:14:26.000Z</time>
      </trkpt>
      <trkpt lat="48.12607" lon="6.86758">
        <ele>753.40002441406</ele>
        <time>2026-09-02T15:14:27.000Z</time>
      </trkpt>
      <trkpt lat="48.12607" lon="6.86757">
        <ele>753.19995117188</ele>
        <time>2026-09-02T15:14:28.000Z</time>
      </trkpt>
      <trkpt lat="48.12607" lon="6.86756">
        <ele>753</ele>
        <time>2026-09-02T15:14:29.000Z</time>
      </trkpt>
      <trkpt lat="48.12606" lon="6.86755">
        <ele>753</ele>
        <time>2026-09-02T15:14:30.000Z</time>
      </trkpt>
      <trkpt lat="48.12606" lon="6.86753">
        <ele>753</ele>
        <time>2026-09-02T15:14:31.000Z</time>
      </trkpt>
      <trkpt lat="48.12606" lon="6.86752">
        <ele>753</ele>
        <time>2026-09-02T15:14:32.000Z</time>
      </trkpt>
      <trkpt lat="48.12606" lon="6.86751">
        <ele>752.80004882812</ele>
        <time>2026-09-02T15:14:33.000Z</time>
      </trkpt>
      <trkpt lat="48.12606" lon="6.8675">
        <ele>752.80004882812</ele>
        <time>2026-09-02T15:14:34.000Z</time>
      </trkpt>
      <trkpt lat="48.12606" lon="6.86749">
        <ele>752.80004882812</ele>
        <time>2026-09-02T15:14:35.000Z</time>
      </trkpt>
      <trkpt lat="48.12606" lon="6.86747">
        <ele>752.80004882812</ele>
        <time>2026-09-02T15:14:36.000Z</time>
      </trkpt>
      <trkpt lat="48.12606" lon="6.86746">
        <ele>752.59997558594</ele>
        <time>2026-09-02T15:14:37.000Z</time>
      </trkpt>
      <trkpt lat="48.12605" lon="6.86746">
        <ele>752.59997558594</ele>
        <time>2026-09-02T15:14:38.000Z</time>
      </trkpt>
      <trkpt lat="48.12605" lon="6.86745">
        <ele>752.59997558594</ele>
        <time>2026-09-02T15:14:39.000Z</time>
      </trkpt>
      <trkpt lat="48.12605" lon="6.86744">
        <ele>752.59997558594</ele>
        <time>2026-09-02T15:14:40.000Z</time>
      </trkpt>
      <trkpt lat="48.12605" lon="6.86743">
        <ele>752.59997558594</ele>
        <time>2026-09-02T15:14:41.000Z</time>
      </trkpt>
      <trkpt lat="48.12605" lon="6.86743">
        <ele>752.40002441406</ele>
        <time>2026-09-02T15:14:42.000Z</time>
      </trkpt>
      <trkpt lat="48.12605" lon="6.86741">
        <ele>752.40002441406</ele>
        <time>2026-09-02T15:14:43.000Z</time>
      </trkpt>
      <trkpt lat="48.12604" lon="6.8674">
        <ele>752.40002441406</ele>
        <time>2026-09-02T15:14:44.000Z</time>
      </trkpt>
      <trkpt lat="48.12604" lon="6.86739">
        <ele>752.19995117188</ele>
        <time>2026-09-02T15:14:45.000Z</time>
      </trkpt>
      <trkpt lat="48.12604" lon="6.86738">
        <ele>752.19995117188</ele>
        <time>2026-09-02T15:14:46.000Z</time>
      </trkpt>
      <trkpt lat="48.12604" lon="6.86736">
        <ele>752.19995117188</ele>
        <time>2026-09-02T15:14:47.000Z</time>
      </trkpt>
      <trkpt lat="48.12603" lon="6.86735">
        <ele>752.19995117188</ele>
        <time>2026-09-02T15:14:48.000Z</time>
      </trkpt>
      <trkpt lat="48.12603" lon="6.86734">
        <ele>752.19995117188</ele>
        <time>2026-09-02T15:14:49.000Z</time>
      </trkpt>
      <trkpt lat="48.12603" lon="6.86733">
        <ele>752.19995117188</ele>
        <time>2026-09-02T15:14:50.000Z</time>
      </trkpt>
      <trkpt lat="48.12602" lon="6.86732">
        <ele>752</ele>
        <time>2026-09-02T15:14:51.000Z</time>
      </trkpt>
      <trkpt lat="48.12602" lon="6.86731">
        <ele>752</ele>
        <time>2026-09-02T15:14:52.000Z</time>
      </trkpt>
      <trkpt lat="48.12602" lon="6.8673">
        <ele>751.80004882812</ele>
        <time>2026-09-02T15:14:53.000Z</time>
      </trkpt>
      <trkpt lat="48.12602" lon="6.8673">
        <ele>751.80004882812</ele>
        <time>2026-09-02T15:14:54.000Z</time>
      </trkpt>
      <trkpt lat="48.12602" lon="6.86729">
        <ele>751.59997558594</ele>
        <time>2026-09-02T15:14:55.000Z</time>
      </trkpt>
      <trkpt lat="48.12602" lon="6.86728">
        <ele>751.59997558594</ele>
        <time>2026-09-02T15:14:56.000Z</time>
      </trkpt>
      <trkpt lat="48.12602" lon="6.86727">
        <ele>751.59997558594</ele>
        <time>2026-09-02T15:14:57.000Z</time>
      </trkpt>
      <trkpt lat="48.12601" lon="6.86727">
        <ele>751.59997558594</ele>
        <time>2026-09-02T15:14:58.000Z</time>
      </trkpt>
      <trkpt lat="48.12601" lon="6.86726">
        <ele>751.40002441406</ele>
        <time>2026-09-02T15:14:59.000Z</time>
      </trkpt>
      <trkpt lat="48.12601" lon="6.86725">
        <ele>751.40002441406</ele>
        <time>2026-09-02T15:15:00.000Z</time>
      </trkpt>
      <trkpt lat="48.12601" lon="6.86724">
        <ele>751.19995117188</ele>
        <time>2026-09-02T15:15:01.000Z</time>
      </trkpt>
      <trkpt lat="48.12601" lon="6.86722">
        <ele>751.19995117188</ele>
        <time>2026-09-02T15:15:02.000Z</time>
      </trkpt>
      <trkpt lat="48.12601" lon="6.86721">
        <ele>751</ele>
        <time>2026-09-02T15:15:03.000Z</time>
      </trkpt>
      <trkpt lat="48.12601" lon="6.8672">
        <ele>751</ele>
        <time>2026-09-02T15:15:04.000Z</time>
      </trkpt>
      <trkpt lat="48.12601" lon="6.86719">
        <ele>751</ele>
        <time>2026-09-02T15:15:05.000Z</time>
      </trkpt>
      <trkpt lat="48.12601" lon="6.86717">
        <ele>751</ele>
        <time>2026-09-02T15:15:06.000Z</time>
      </trkpt>
      <trkpt lat="48.12601" lon="6.86716">
        <ele>751</ele>
        <time>2026-09-02T15:15:07.000Z</time>
      </trkpt>
      <trkpt lat="48.12601" lon="6.86715">
        <ele>751</ele>
        <time>2026-09-02T15:15:08.000Z</time>
      </trkpt>
      <trkpt lat="48.12601" lon="6.86715">
        <ele>750.80004882812</ele>
        <time>2026-09-02T15:15:09.000Z</time>
      </trkpt>
      <trkpt lat="48.12601" lon="6.86714">
        <ele>750.80004882812</ele>
        <time>2026-09-02T15:15:10.000Z</time>
      </trkpt>
      <trkpt lat="48.12601" lon="6.86713">
        <ele>750.59997558594</ele>
        <time>2026-09-02T15:15:11.000Z</time>
      </trkpt>
      <trkpt lat="48.12601" lon="6.86713">
        <ele>750.59997558594</ele>
        <time>2026-09-02T15:15:12.000Z</time>
      </trkpt>
      <trkpt lat="48.12601" lon="6.86712">
        <ele>750.59997558594</ele>
        <time>2026-09-02T15:15:13.000Z</time>
      </trkpt>
      <trkpt lat="48.12602" lon="6.86711">
        <ele>750.40002441406</ele>
        <time>2026-09-02T15:15:14.000Z</time>
      </trkpt>
      <trkpt lat="48.12602" lon="6.8671">
        <ele>750.19995117188</ele>
        <time>2026-09-02T15:15:15.000Z</time>
      </trkpt>
      <trkpt lat="48.12602" lon="6.86709">
        <ele>750.19995117188</ele>
        <time>2026-09-02T15:15:16.000Z</time>
      </trkpt>
      <trkpt lat="48.12602" lon="6.86708">
        <ele>750</ele>
        <time>2026-09-02T15:15:17.000Z</time>
      </trkpt>
      <trkpt lat="48.12602" lon="6.86707">
        <ele>750</ele>
        <time>2026-09-02T15:15:18.000Z</time>
      </trkpt>
      <trkpt lat="48.12602" lon="6.86705">
        <ele>750</ele>
        <time>2026-09-02T15:15:19.000Z</time>
      </trkpt>
      <trkpt lat="48.12603" lon="6.86704">
        <ele>750</ele>
        <time>2026-09-02T15:15:20.000Z</time>
      </trkpt>
      <trkpt lat="48.12603" lon="6.86702">
        <ele>750</ele>
        <time>2026-09-02T15:15:21.000Z</time>
      </trkpt>
      <trkpt lat="48.12603" lon="6.86701">
        <ele>749.80004882812</ele>
        <time>2026-09-02T15:15:22.000Z</time>
      </trkpt>
      <trkpt lat="48.12604" lon="6.867">
        <ele>749.80004882812</ele>
        <time>2026-09-02T15:15:23.000Z</time>
      </trkpt>
      <trkpt lat="48.12604" lon="6.86698">
        <ele>749.59997558594</ele>
        <time>2026-09-02T15:15:24.000Z</time>
      </trkpt>
      <trkpt lat="48.12604" lon="6.86697">
        <ele>749.40002441406</ele>
        <time>2026-09-02T15:15:25.000Z</time>
      </trkpt>
      <trkpt lat="48.12605" lon="6.86695">
        <ele>749.40002441406</ele>
        <time>2026-09-02T15:15:26.000Z</time>
      </trkpt>
      <trkpt lat="48.12605" lon="6.86694">
        <ele>749.19995117188</ele>
        <time>2026-09-02T15:15:27.000Z</time>
      </trkpt>
      <trkpt lat="48.12605" lon="6.86693">
        <ele>749.19995117188</ele>
        <time>2026-09-02T15:15:28.000Z</time>
      </trkpt>
      <trkpt lat="48.12605" lon="6.86692">
        <ele>749</ele>
        <time>2026-09-02T15:15:29.000Z</time>
      </trkpt>
      <trkpt lat="48.12605" lon="6.86691">
        <ele>749</ele>
        <time>2026-09-02T15:15:30.000Z</time>
      </trkpt>
      <trkpt lat="48.12605" lon="6.86691">
        <ele>748.80004882812</ele>
        <time>2026-09-02T15:15:31.000Z</time>
      </trkpt>
      <trkpt lat="48.12606" lon="6.8669">
        <ele>748.80004882812</ele>
        <time>2026-09-02T15:15:32.000Z</time>
      </trkpt>
      <trkpt lat="48.12606" lon="6.86689">
        <ele>748.59997558594</ele>
        <time>2026-09-02T15:15:33.000Z</time>
      </trkpt>
      <trkpt lat="48.12606" lon="6.86687">
        <ele>748.59997558594</ele>
        <time>2026-09-02T15:15:34.000Z</time>
      </trkpt>
      <trkpt lat="48.12607" lon="6.86686">
        <ele>748.40002441406</ele>
        <time>2026-09-02T15:15:35.000Z</time>
      </trkpt>
      <trkpt lat="48.12607" lon="6.86685">
        <ele>748.19995117188</ele>
        <time>2026-09-02T15:15:36.000Z</time>
      </trkpt>
      <trkpt lat="48.12607" lon="6.86684">
        <ele>748.19995117188</ele>
        <time>2026-09-02T15:15:37.000Z</time>
      </trkpt>
      <trkpt lat="48.12608" lon="6.86683">
        <ele>748</ele>
        <time>2026-09-02T15:15:38.000Z</time>
      </trkpt>
      <trkpt lat="48.12608" lon="6.86683">
        <ele>748</ele>
        <time>2026-09-02T15:15:39.000Z</time>
      </trkpt>
      <trkpt lat="48.12608" lon="6.86682">
        <ele>748</ele>
        <time>2026-09-02T15:15:40.000Z</time>
      </trkpt>
      <trkpt lat="48.12608" lon="6.86681">
        <ele>748</ele>
        <time>2026-09-02T15:15:41.000Z</time>
      </trkpt>
      <trkpt lat="48.12608" lon="6.8668">
        <ele>748</ele>
        <time>2026-09-02T15:15:42.000Z</time>
      </trkpt>
      <trkpt lat="48.12609" lon="6.86678">
        <ele>748</ele>
        <time>2026-09-02T15:15:43.000Z</time>
      </trkpt>
      <trkpt lat="48.12609" lon="6.86677">
        <ele>748</ele>
        <time>2026-09-02T15:15:44.000Z</time>
      </trkpt>
      <trkpt lat="48.12609" lon="6.86676">
        <ele>747.80004882812</ele>
        <time>2026-09-02T15:15:45.000Z</time>
      </trkpt>
      <trkpt lat="48.1261" lon="6.86675">
        <ele>747.80004882812</ele>
        <time>2026-09-02T15:15:46.000Z</time>
      </trkpt>
      <trkpt lat="48.1261" lon="6.86674">
        <ele>747.59997558594</ele>
        <time>2026-09-02T15:15:47.000Z</time>
      </trkpt>
      <trkpt lat="48.1261" lon="6.86673">
        <ele>747.40002441406</ele>
        <time>2026-09-02T15:15:48.000Z</time>
      </trkpt>
      <trkpt lat="48.1261" lon="6.86672">
        <ele>747.40002441406</ele>
        <time>2026-09-02T15:15:49.000Z</time>
      </trkpt>
      <trkpt lat="48.1261" lon="6.86672">
        <ele>747.19995117188</ele>
        <time>2026-09-02T15:15:50.000Z</time>
      </trkpt>
      <trkpt lat="48.1261" lon="6.8667">
        <ele>747.19995117188</ele>
        <time>2026-09-02T15:15:51.000Z</time>
      </trkpt>
      <trkpt lat="48.12611" lon="6.86669">
        <ele>747</ele>
        <time>2026-09-02T15:15:52.000Z</time>
      </trkpt>
      <trkpt lat="48.12611" lon="6.86668">
        <ele>747</ele>
        <time>2026-09-02T15:15:53.000Z</time>
      </trkpt>
      <trkpt lat="48.12611" lon="6.86667">
        <ele>747</ele>
        <time>2026-09-02T15:15:54.000Z</time>
      </trkpt>
      <trkpt lat="48.12611" lon="6.86665">
        <ele>747</ele>
        <time>2026-09-02T15:15:55.000Z</time>
      </trkpt>
      <trkpt lat="48.12611" lon="6.86664">
        <ele>746.80004882812</ele>
        <time>2026-09-02T15:15:56.000Z</time>
      </trkpt>
      <trkpt lat="48.12612" lon="6.86663">
        <ele>746.80004882812</ele>
        <time>2026-09-02T15:15:57.000Z</time>
      </trkpt>
      <trkpt lat="48.12612" lon="6.86662">
        <ele>746.80004882812</ele>
        <time>2026-09-02T15:15:58.000Z</time>
      </trkpt>
      <trkpt lat="48.12612" lon="6.86661">
        <ele>746.80004882812</ele>
        <time>2026-09-02T15:15:59.000Z</time>
      </trkpt>
      <trkpt lat="48.12612" lon="6.8666">
        <ele>746.80004882812</ele>
        <time>2026-09-02T15:16:00.000Z</time>
      </trkpt>
      <trkpt lat="48.12612" lon="6.86659">
        <ele>746.59997558594</ele>
        <time>2026-09-02T15:16:01.000Z</time>
      </trkpt>
      <trkpt lat="48.12612" lon="6.86658">
        <ele>746.59997558594</ele>
        <time>2026-09-02T15:16:02.000Z</time>
      </trkpt>
      <trkpt lat="48.12612" lon="6.86658">
        <ele>746.40002441406</ele>
        <time>2026-09-02T15:16:03.000Z</time>
      </trkpt>
      <trkpt lat="48.12612" lon="6.86657">
        <ele>746.40002441406</ele>
        <time>2026-09-02T15:16:04.000Z</time>
      </trkpt>
      <trkpt lat="48.12612" lon="6.86656">
        <ele>746.19995117188</ele>
        <time>2026-09-02T15:16:05.000Z</time>
      </trkpt>
      <trkpt lat="48.12613" lon="6.86655">
        <ele>746.19995117188</ele>
        <time>2026-09-02T15:16:06.000Z</time>
      </trkpt>
      <trkpt lat="48.12613" lon="6.86654">
        <ele>746</ele>
        <time>2026-09-02T15:16:07.000Z</time>
      </trkpt>
      <trkpt lat="48.12613" lon="6.86652">
        <ele>746</ele>
        <time>2026-09-02T15:16:08.000Z</time>
      </trkpt>
      <trkpt lat="48.12613" lon="6.86651">
        <ele>745.80004882812</ele>
        <time>2026-09-02T15:16:09.000Z</time>
      </trkpt>
      <trkpt lat="48.12614" lon="6.86649">
        <ele>745.80004882812</ele>
        <time>2026-09-02T15:16:10.000Z</time>
      </trkpt>
      <trkpt lat="48.12614" lon="6.86648">
        <ele>745.80004882812</ele>
        <time>2026-09-02T15:16:11.000Z</time>
      </trkpt>
      <trkpt lat="48.12614" lon="6.86647">
        <ele>745.80004882812</ele>
        <time>2026-09-02T15:16:12.000Z</time>
      </trkpt>
      <trkpt lat="48.12614" lon="6.86646">
        <ele>745.59997558594</ele>
        <time>2026-09-02T15:16:13.000Z</time>
      </trkpt>
      <trkpt lat="48.12614" lon="6.86645">
        <ele>745.59997558594</ele>
        <time>2026-09-02T15:16:14.000Z</time>
      </trkpt>
      <trkpt lat="48.12614" lon="6.86644">
        <ele>745.59997558594</ele>
        <time>2026-09-02T15:16:15.000Z</time>
      </trkpt>
      <trkpt lat="48.12614" lon="6.86643">
        <ele>745.59997558594</ele>
        <time>2026-09-02T15:16:16.000Z</time>
      </trkpt>
      <trkpt lat="48.12614" lon="6.86642">
        <ele>745.59997558594</ele>
        <time>2026-09-02T15:16:17.000Z</time>
      </trkpt>
      <trkpt lat="48.12614" lon="6.86641">
        <ele>745.40002441406</ele>
        <time>2026-09-02T15:16:18.000Z</time>
      </trkpt>
      <trkpt lat="48.12615" lon="6.8664">
        <ele>745.40002441406</ele>
        <time>2026-09-02T15:16:19.000Z</time>
      </trkpt>
      <trkpt lat="48.12614" lon="6.86639">
        <ele>745.40002441406</ele>
        <time>2026-09-02T15:16:20.000Z</time>
      </trkpt>
      <trkpt lat="48.12614" lon="6.86639">
        <ele>745.40002441406</ele>
        <time>2026-09-02T15:16:21.000Z</time>
      </trkpt>
      <trkpt lat="48.12615" lon="6.86638">
        <ele>745.19995117188</ele>
        <time>2026-09-02T15:16:22.000Z</time>
      </trkpt>
      <trkpt lat="48.12614" lon="6.86637">
        <ele>745.19995117188</ele>
        <time>2026-09-02T15:16:23.000Z</time>
      </trkpt>
      <trkpt lat="48.12614" lon="6.86636">
        <ele>745.40002441406</ele>
        <time>2026-09-02T15:16:24.000Z</time>
      </trkpt>
      <trkpt lat="48.12614" lon="6.86635">
        <ele>745.40002441406</ele>
        <time>2026-09-02T15:16:25.000Z</time>
      </trkpt>
      <trkpt lat="48.12614" lon="6.86633">
        <ele>745.40002441406</ele>
        <time>2026-09-02T15:16:26.000Z</time>
      </trkpt>
      <trkpt lat="48.12614" lon="6.8663">
        <ele>745.19995117188</ele>
        <time>2026-09-02T15:16:27.000Z</time>
      </trkpt>
      <trkpt lat="48.12614" lon="6.86629">
        <ele>745.19995117188</ele>
        <time>2026-09-02T15:16:28.000Z</time>
      </trkpt>
      <trkpt lat="48.12614" lon="6.86628">
        <ele>745</ele>
        <time>2026-09-02T15:16:29.000Z</time>
      </trkpt>
      <trkpt lat="48.12614" lon="6.86627">
        <ele>744.80004882812</ele>
        <time>2026-09-02T15:16:30.000Z</time>
      </trkpt>
      <trkpt lat="48.12614" lon="6.86626">
        <ele>744.59997558594</ele>
        <time>2026-09-02T15:16:31.000Z</time>
      </trkpt>
      <trkpt lat="48.12614" lon="6.86625">
        <ele>744.40002441406</ele>
        <time>2026-09-02T15:16:32.000Z</time>
      </trkpt>
      <trkpt lat="48.12614" lon="6.86623">
        <ele>744.19995117188</ele>
        <time>2026-09-02T15:16:33.000Z</time>
      </trkpt>
      <trkpt lat="48.12614" lon="6.86622">
        <ele>744.19995117188</ele>
        <time>2026-09-02T15:16:34.000Z</time>
      </trkpt>
      <trkpt lat="48.12614" lon="6.86621">
        <ele>744</ele>
        <time>2026-09-02T15:16:35.000Z</time>
      </trkpt>
      <trkpt lat="48.12614" lon="6.8662">
        <ele>744</ele>
        <time>2026-09-02T15:16:36.000Z</time>
      </trkpt>
      <trkpt lat="48.12614" lon="6.86619">
        <ele>744</ele>
        <time>2026-09-02T15:16:37.000Z</time>
      </trkpt>
      <trkpt lat="48.12615" lon="6.86617">
        <ele>744</ele>
        <time>2026-09-02T15:16:38.000Z</time>
      </trkpt>
      <trkpt lat="48.12615" lon="6.86616">
        <ele>743.80004882812</ele>
        <time>2026-09-02T15:16:39.000Z</time>
      </trkpt>
      <trkpt lat="48.12615" lon="6.86615">
        <ele>743.80004882812</ele>
        <time>2026-09-02T15:16:40.000Z</time>
      </trkpt>
      <trkpt lat="48.12616" lon="6.86614">
        <ele>743.80004882812</ele>
        <time>2026-09-02T15:16:41.000Z</time>
      </trkpt>
      <trkpt lat="48.12616" lon="6.86613">
        <ele>743.59997558594</ele>
        <time>2026-09-02T15:16:42.000Z</time>
      </trkpt>
      <trkpt lat="48.12616" lon="6.86612">
        <ele>743.59997558594</ele>
        <time>2026-09-02T15:16:43.000Z</time>
      </trkpt>
      <trkpt lat="48.12616" lon="6.86612">
        <ele>743.40002441406</ele>
        <time>2026-09-02T15:16:44.000Z</time>
      </trkpt>
      <trkpt lat="48.12616" lon="6.86611">
        <ele>743.40002441406</ele>
        <time>2026-09-02T15:16:45.000Z</time>
      </trkpt>
      <trkpt lat="48.12617" lon="6.8661">
        <ele>743.40002441406</ele>
        <time>2026-09-02T15:16:46.000Z</time>
      </trkpt>
      <trkpt lat="48.12617" lon="6.86609">
        <ele>743.40002441406</ele>
        <time>2026-09-02T15:16:47.000Z</time>
      </trkpt>
      <trkpt lat="48.12617" lon="6.86607">
        <ele>743.19995117188</ele>
        <time>2026-09-02T15:16:48.000Z</time>
      </trkpt>
      <trkpt lat="48.12618" lon="6.86606">
        <ele>743.19995117188</ele>
        <time>2026-09-02T15:16:49.000Z</time>
      </trkpt>
      <trkpt lat="48.12618" lon="6.86604">
        <ele>743</ele>
        <time>2026-09-02T15:16:50.000Z</time>
      </trkpt>
      <trkpt lat="48.12619" lon="6.86603">
        <ele>743</ele>
        <time>2026-09-02T15:16:51.000Z</time>
      </trkpt>
      <trkpt lat="48.12619" lon="6.86602">
        <ele>742.80004882812</ele>
        <time>2026-09-02T15:16:52.000Z</time>
      </trkpt>
      <trkpt lat="48.1262" lon="6.86601">
        <ele>742.80004882812</ele>
        <time>2026-09-02T15:16:53.000Z</time>
      </trkpt>
      <trkpt lat="48.1262" lon="6.866">
        <ele>742.80004882812</ele>
        <time>2026-09-02T15:16:54.000Z</time>
      </trkpt>
      <trkpt lat="48.1262" lon="6.86599">
        <ele>742.80004882812</ele>
        <time>2026-09-02T15:16:55.000Z</time>
      </trkpt>
      <trkpt lat="48.1262" lon="6.86598">
        <ele>742.59997558594</ele>
        <time>2026-09-02T15:16:56.000Z</time>
      </trkpt>
      <trkpt lat="48.1262" lon="6.86597">
        <ele>742.40002441406</ele>
        <time>2026-09-02T15:16:57.000Z</time>
      </trkpt>
      <trkpt lat="48.12621" lon="6.86596">
        <ele>742.40002441406</ele>
        <time>2026-09-02T15:16:58.000Z</time>
      </trkpt>
      <trkpt lat="48.12621" lon="6.86595">
        <ele>742.40002441406</ele>
        <time>2026-09-02T15:16:59.000Z</time>
      </trkpt>
      <trkpt lat="48.12621" lon="6.86594">
        <ele>742.40002441406</ele>
        <time>2026-09-02T15:17:00.000Z</time>
      </trkpt>
      <trkpt lat="48.12622" lon="6.86592">
        <ele>742.40002441406</ele>
        <time>2026-09-02T15:17:01.000Z</time>
      </trkpt>
      <trkpt lat="48.12622" lon="6.86591">
        <ele>742.40002441406</ele>
        <time>2026-09-02T15:17:02.000Z</time>
      </trkpt>
      <trkpt lat="48.12623" lon="6.8659">
        <ele>742.19995117188</ele>
        <time>2026-09-02T15:17:03.000Z</time>
      </trkpt>
      <trkpt lat="48.12623" lon="6.86589">
        <ele>742</ele>
        <time>2026-09-02T15:17:04.000Z</time>
      </trkpt>
      <trkpt lat="48.12623" lon="6.86587">
        <ele>742</ele>
        <time>2026-09-02T15:17:05.000Z</time>
      </trkpt>
      <trkpt lat="48.12624" lon="6.86587">
        <ele>741.80004882812</ele>
        <time>2026-09-02T15:17:06.000Z</time>
      </trkpt>
      <trkpt lat="48.12624" lon="6.86585">
        <ele>741.80004882812</ele>
        <time>2026-09-02T15:17:07.000Z</time>
      </trkpt>
      <trkpt lat="48.12625" lon="6.86585">
        <ele>741.80004882812</ele>
        <time>2026-09-02T15:17:08.000Z</time>
      </trkpt>
      <trkpt lat="48.12624" lon="6.86584">
        <ele>741.80004882812</ele>
        <time>2026-09-02T15:17:09.000Z</time>
      </trkpt>
      <trkpt lat="48.12625" lon="6.86583">
        <ele>741.80004882812</ele>
        <time>2026-09-02T15:17:10.000Z</time>
      </trkpt>
      <trkpt lat="48.12625" lon="6.86581">
        <ele>741.80004882812</ele>
        <time>2026-09-02T15:17:11.000Z</time>
      </trkpt>
      <trkpt lat="48.12626" lon="6.8658">
        <ele>741.80004882812</ele>
        <time>2026-09-02T15:17:12.000Z</time>
      </trkpt>
      <trkpt lat="48.12626" lon="6.86578">
        <ele>741.80004882812</ele>
        <time>2026-09-02T15:17:13.000Z</time>
      </trkpt>
      <trkpt lat="48.12626" lon="6.86577">
        <ele>741.59997558594</ele>
        <time>2026-09-02T15:17:14.000Z</time>
      </trkpt>
      <trkpt lat="48.12626" lon="6.86576">
        <ele>741.59997558594</ele>
        <time>2026-09-02T15:17:15.000Z</time>
      </trkpt>
      <trkpt lat="48.12626" lon="6.86575">
        <ele>741.40002441406</ele>
        <time>2026-09-02T15:17:16.000Z</time>
      </trkpt>
      <trkpt lat="48.12627" lon="6.86574">
        <ele>741.40002441406</ele>
        <time>2026-09-02T15:17:17.000Z</time>
      </trkpt>
      <trkpt lat="48.12627" lon="6.86572">
        <ele>741.19995117188</ele>
        <time>2026-09-02T15:17:18.000Z</time>
      </trkpt>
      <trkpt lat="48.12627" lon="6.86571">
        <ele>741.19995117188</ele>
        <time>2026-09-02T15:17:19.000Z</time>
      </trkpt>
      <trkpt lat="48.12628" lon="6.8657">
        <ele>741.19995117188</ele>
        <time>2026-09-02T15:17:20.000Z</time>
      </trkpt>
      <trkpt lat="48.12628" lon="6.86568">
        <ele>741.40002441406</ele>
        <time>2026-09-02T15:17:21.000Z</time>
      </trkpt>
      <trkpt lat="48.12628" lon="6.86567">
        <ele>741.40002441406</ele>
        <time>2026-09-02T15:17:22.000Z</time>
      </trkpt>
      <trkpt lat="48.12629" lon="6.86566">
        <ele>741.19995117188</ele>
        <time>2026-09-02T15:17:23.000Z</time>
      </trkpt>
      <trkpt lat="48.12629" lon="6.86565">
        <ele>741.19995117188</ele>
        <time>2026-09-02T15:17:24.000Z</time>
      </trkpt>
      <trkpt lat="48.12629" lon="6.86564">
        <ele>741.19995117188</ele>
        <time>2026-09-02T15:17:25.000Z</time>
      </trkpt>
      <trkpt lat="48.12629" lon="6.86563">
        <ele>741</ele>
        <time>2026-09-02T15:17:26.000Z</time>
      </trkpt>
      <trkpt lat="48.12629" lon="6.86562">
        <ele>741</ele>
        <time>2026-09-02T15:17:27.000Z</time>
      </trkpt>
      <trkpt lat="48.12629" lon="6.86561">
        <ele>740.80004882812</ele>
        <time>2026-09-02T15:17:28.000Z</time>
      </trkpt>
      <trkpt lat="48.1263" lon="6.8656">
        <ele>740.59997558594</ele>
        <time>2026-09-02T15:17:29.000Z</time>
      </trkpt>
      <trkpt lat="48.1263" lon="6.86559">
        <ele>740.59997558594</ele>
        <time>2026-09-02T15:17:30.000Z</time>
      </trkpt>
      <trkpt lat="48.1263" lon="6.86558">
        <ele>740.59997558594</ele>
        <time>2026-09-02T15:17:31.000Z</time>
      </trkpt>
      <trkpt lat="48.1263" lon="6.86557">
        <ele>740.59997558594</ele>
        <time>2026-09-02T15:17:32.000Z</time>
      </trkpt>
      <trkpt lat="48.1263" lon="6.86556">
        <ele>740.59997558594</ele>
        <time>2026-09-02T15:17:33.000Z</time>
      </trkpt>
      <trkpt lat="48.12631" lon="6.86555">
        <ele>740.40002441406</ele>
        <time>2026-09-02T15:17:34.000Z</time>
      </trkpt>
      <trkpt lat="48.12631" lon="6.86554">
        <ele>740.40002441406</ele>
        <time>2026-09-02T15:17:35.000Z</time>
      </trkpt>
      <trkpt lat="48.12631" lon="6.86554">
        <ele>740.40002441406</ele>
        <time>2026-09-02T15:17:36.000Z</time>
      </trkpt>
      <trkpt lat="48.12631" lon="6.86553">
        <ele>740.19995117188</ele>
        <time>2026-09-02T15:17:37.000Z</time>
      </trkpt>
      <trkpt lat="48.1263" lon="6.86552">
        <ele>740.19995117188</ele>
        <time>2026-09-02T15:17:38.000Z</time>
      </trkpt>
      <trkpt lat="48.12631" lon="6.8655">
        <ele>740</ele>
        <time>2026-09-02T15:17:39.000Z</time>
      </trkpt>
      <trkpt lat="48.12631" lon="6.86549">
        <ele>740</ele>
        <time>2026-09-02T15:17:40.000Z</time>
      </trkpt>
      <trkpt lat="48.12631" lon="6.86548">
        <ele>740</ele>
        <time>2026-09-02T15:17:41.000Z</time>
      </trkpt>
      <trkpt lat="48.12631" lon="6.86546">
        <ele>739.80004882812</ele>
        <time>2026-09-02T15:17:42.000Z</time>
      </trkpt>
      <trkpt lat="48.12632" lon="6.86545">
        <ele>739.80004882812</ele>
        <time>2026-09-02T15:17:43.000Z</time>
      </trkpt>
      <trkpt lat="48.12632" lon="6.86543">
        <ele>739.59997558594</ele>
        <time>2026-09-02T15:17:44.000Z</time>
      </trkpt>
      <trkpt lat="48.12632" lon="6.86542">
        <ele>739.40002441406</ele>
        <time>2026-09-02T15:17:45.000Z</time>
      </trkpt>
      <trkpt lat="48.12633" lon="6.86541">
        <ele>739.40002441406</ele>
        <time>2026-09-02T15:17:46.000Z</time>
      </trkpt>
      <trkpt lat="48.12633" lon="6.86539">
        <ele>739.40002441406</ele>
        <time>2026-09-02T15:17:47.000Z</time>
      </trkpt>
      <trkpt lat="48.12633" lon="6.86538">
        <ele>739.19995117188</ele>
        <time>2026-09-02T15:17:48.000Z</time>
      </trkpt>
      <trkpt lat="48.12633" lon="6.86537">
        <ele>739.19995117188</ele>
        <time>2026-09-02T15:17:49.000Z</time>
      </trkpt>
      <trkpt lat="48.12634" lon="6.86537">
        <ele>739.19995117188</ele>
        <time>2026-09-02T15:17:50.000Z</time>
      </trkpt>
      <trkpt lat="48.12634" lon="6.86536">
        <ele>739</ele>
        <time>2026-09-02T15:17:51.000Z</time>
      </trkpt>
      <trkpt lat="48.12634" lon="6.86535">
        <ele>739</ele>
        <time>2026-09-02T15:17:52.000Z</time>
      </trkpt>
      <trkpt lat="48.12634" lon="6.86534">
        <ele>739</ele>
        <time>2026-09-02T15:17:53.000Z</time>
      </trkpt>
      <trkpt lat="48.12635" lon="6.86533">
        <ele>739</ele>
        <time>2026-09-02T15:17:54.000Z</time>
      </trkpt>
      <trkpt lat="48.12635" lon="6.86532">
        <ele>739</ele>
        <time>2026-09-02T15:17:55.000Z</time>
      </trkpt>
      <trkpt lat="48.12635" lon="6.86531">
        <ele>739</ele>
        <time>2026-09-02T15:17:56.000Z</time>
      </trkpt>
      <trkpt lat="48.12635" lon="6.86531">
        <ele>739</ele>
        <time>2026-09-02T15:17:57.000Z</time>
      </trkpt>
      <trkpt lat="48.12636" lon="6.8653">
        <ele>739</ele>
        <time>2026-09-02T15:17:58.000Z</time>
      </trkpt>
      <trkpt lat="48.12636" lon="6.86529">
        <ele>738.80004882812</ele>
        <time>2026-09-02T15:17:59.000Z</time>
      </trkpt>
      <trkpt lat="48.12636" lon="6.86528">
        <ele>738.80004882812</ele>
        <time>2026-09-02T15:18:00.000Z</time>
      </trkpt>
      <trkpt lat="48.12637" lon="6.86527">
        <ele>738.80004882812</ele>
        <time>2026-09-02T15:18:01.000Z</time>
      </trkpt>
      <trkpt lat="48.12637" lon="6.86526">
        <ele>738.59997558594</ele>
        <time>2026-09-02T15:18:02.000Z</time>
      </trkpt>
      <trkpt lat="48.12637" lon="6.86525">
        <ele>738.59997558594</ele>
        <time>2026-09-02T15:18:03.000Z</time>
      </trkpt>
      <trkpt lat="48.12638" lon="6.86524">
        <ele>738.59997558594</ele>
        <time>2026-09-02T15:18:04.000Z</time>
      </trkpt>
      <trkpt lat="48.12638" lon="6.86523">
        <ele>738.59997558594</ele>
        <time>2026-09-02T15:18:05.000Z</time>
      </trkpt>
      <trkpt lat="48.12638" lon="6.86522">
        <ele>738.40002441406</ele>
        <time>2026-09-02T15:18:06.000Z</time>
      </trkpt>
      <trkpt lat="48.12638" lon="6.86521">
        <ele>738.40002441406</ele>
        <time>2026-09-02T15:18:07.000Z</time>
      </trkpt>
      <trkpt lat="48.12638" lon="6.8652">
        <ele>738.40002441406</ele>
        <time>2026-09-02T15:18:08.000Z</time>
      </trkpt>
      <trkpt lat="48.12639" lon="6.86519">
        <ele>738.40002441406</ele>
        <time>2026-09-02T15:18:09.000Z</time>
      </trkpt>
      <trkpt lat="48.12639" lon="6.86517">
        <ele>738.40002441406</ele>
        <time>2026-09-02T15:18:10.000Z</time>
      </trkpt>
      <trkpt lat="48.12639" lon="6.86516">
        <ele>738.40002441406</ele>
        <time>2026-09-02T15:18:11.000Z</time>
      </trkpt>
      <trkpt lat="48.12639" lon="6.86514">
        <ele>738.19995117188</ele>
        <time>2026-09-02T15:18:12.000Z</time>
      </trkpt>
      <trkpt lat="48.12639" lon="6.86512">
        <ele>738.19995117188</ele>
        <time>2026-09-02T15:18:13.000Z</time>
      </trkpt>
      <trkpt lat="48.12639" lon="6.86511">
        <ele>738.19995117188</ele>
        <time>2026-09-02T15:18:14.000Z</time>
      </trkpt>
      <trkpt lat="48.1264" lon="6.86509">
        <ele>738.19995117188</ele>
        <time>2026-09-02T15:18:15.000Z</time>
      </trkpt>
      <trkpt lat="48.1264" lon="6.86508">
        <ele>738.19995117188</ele>
        <time>2026-09-02T15:18:16.000Z</time>
      </trkpt>
      <trkpt lat="48.1264" lon="6.86508">
        <ele>738.19995117188</ele>
        <time>2026-09-02T15:18:17.000Z</time>
      </trkpt>
      <trkpt lat="48.1264" lon="6.86507">
        <ele>738</ele>
        <time>2026-09-02T15:18:18.000Z</time>
      </trkpt>
      <trkpt lat="48.1264" lon="6.86506">
        <ele>738</ele>
        <time>2026-09-02T15:18:19.000Z</time>
      </trkpt>
      <trkpt lat="48.1264" lon="6.86505">
        <ele>738</ele>
        <time>2026-09-02T15:18:20.000Z</time>
      </trkpt>
      <trkpt lat="48.12641" lon="6.86503">
        <ele>737.80004882812</ele>
        <time>2026-09-02T15:18:21.000Z</time>
      </trkpt>
      <trkpt lat="48.12641" lon="6.86502">
        <ele>737.80004882812</ele>
        <time>2026-09-02T15:18:22.000Z</time>
      </trkpt>
      <trkpt lat="48.12641" lon="6.86501">
        <ele>737.80004882812</ele>
        <time>2026-09-02T15:18:23.000Z</time>
      </trkpt>
      <trkpt lat="48.12641" lon="6.865">
        <ele>737.80004882812</ele>
        <time>2026-09-02T15:18:24.000Z</time>
      </trkpt>
      <trkpt lat="48.12642" lon="6.86498">
        <ele>737.80004882812</ele>
        <time>2026-09-02T15:18:25.000Z</time>
      </trkpt>
      <trkpt lat="48.12642" lon="6.86497">
        <ele>737.80004882812</ele>
        <time>2026-09-02T15:18:26.000Z</time>
      </trkpt>
      <trkpt lat="48.12642" lon="6.86496">
        <ele>737.80004882812</ele>
        <time>2026-09-02T15:18:27.000Z</time>
      </trkpt>
      <trkpt lat="48.12643" lon="6.86494">
        <ele>737.80004882812</ele>
        <time>2026-09-02T15:18:28.000Z</time>
      </trkpt>
      <trkpt lat="48.12643" lon="6.86493">
        <ele>737.59997558594</ele>
        <time>2026-09-02T15:18:29.000Z</time>
      </trkpt>
      <trkpt lat="48.12644" lon="6.86491">
        <ele>737.59997558594</ele>
        <time>2026-09-02T15:18:30.000Z</time>
      </trkpt>
      <trkpt lat="48.12644" lon="6.86491">
        <ele>737.40002441406</ele>
        <time>2026-09-02T15:18:31.000Z</time>
      </trkpt>
      <trkpt lat="48.12644" lon="6.86489">
        <ele>737.40002441406</ele>
        <time>2026-09-02T15:18:32.000Z</time>
      </trkpt>
      <trkpt lat="48.12644" lon="6.86488">
        <ele>737.40002441406</ele>
        <time>2026-09-02T15:18:33.000Z</time>
      </trkpt>
      <trkpt lat="48.12645" lon="6.86487">
        <ele>737.40002441406</ele>
        <time>2026-09-02T15:18:34.000Z</time>
      </trkpt>
      <trkpt lat="48.12645" lon="6.86486">
        <ele>737.40002441406</ele>
        <time>2026-09-02T15:18:35.000Z</time>
      </trkpt>
      <trkpt lat="48.12645" lon="6.86485">
        <ele>737.40002441406</ele>
        <time>2026-09-02T15:18:36.000Z</time>
      </trkpt>
      <trkpt lat="48.12645" lon="6.86484">
        <ele>737.40002441406</ele>
        <time>2026-09-02T15:18:37.000Z</time>
      </trkpt>
      <trkpt lat="48.12646" lon="6.86483">
        <ele>737.59997558594</ele>
        <time>2026-09-02T15:18:38.000Z</time>
      </trkpt>
      <trkpt lat="48.12646" lon="6.86482">
        <ele>737.80004882812</ele>
        <time>2026-09-02T15:18:39.000Z</time>
      </trkpt>
      <trkpt lat="48.12646" lon="6.8648">
        <ele>738</ele>
        <time>2026-09-02T15:18:40.000Z</time>
      </trkpt>
      <trkpt lat="48.12647" lon="6.86478">
        <ele>738.19995117188</ele>
        <time>2026-09-02T15:18:41.000Z</time>
      </trkpt>
      <trkpt lat="48.12647" lon="6.86475">
        <ele>738.19995117188</ele>
        <time>2026-09-02T15:18:42.000Z</time>
      </trkpt>
      <trkpt lat="48.12647" lon="6.86474">
        <ele>738</ele>
        <time>2026-09-02T15:18:43.000Z</time>
      </trkpt>
      <trkpt lat="48.12648" lon="6.86472">
        <ele>737.80004882812</ele>
        <time>2026-09-02T15:18:44.000Z</time>
      </trkpt>
      <trkpt lat="48.12648" lon="6.86471">
        <ele>737.59997558594</ele>
        <time>2026-09-02T15:18:45.000Z</time>
      </trkpt>
      <trkpt lat="48.12648" lon="6.8647">
        <ele>737.40002441406</ele>
        <time>2026-09-02T15:18:46.000Z</time>
      </trkpt>
      <trkpt lat="48.12649" lon="6.86469">
        <ele>737.19995117188</ele>
        <time>2026-09-02T15:18:47.000Z</time>
      </trkpt>
      <trkpt lat="48.12649" lon="6.86468">
        <ele>737</ele>
        <time>2026-09-02T15:18:48.000Z</time>
      </trkpt>
      <trkpt lat="48.12649" lon="6.86467">
        <ele>737</ele>
        <time>2026-09-02T15:18:49.000Z</time>
      </trkpt>
      <trkpt lat="48.1265" lon="6.86466">
        <ele>737</ele>
        <time>2026-09-02T15:18:50.000Z</time>
      </trkpt>
      <trkpt lat="48.1265" lon="6.86465">
        <ele>737</ele>
        <time>2026-09-02T15:18:51.000Z</time>
      </trkpt>
      <trkpt lat="48.1265" lon="6.86464">
        <ele>737</ele>
        <time>2026-09-02T15:18:52.000Z</time>
      </trkpt>
      <trkpt lat="48.12651" lon="6.86463">
        <ele>737</ele>
        <time>2026-09-02T15:18:53.000Z</time>
      </trkpt>
      <trkpt lat="48.12651" lon="6.86461">
        <ele>737</ele>
        <time>2026-09-02T15:18:54.000Z</time>
      </trkpt>
      <trkpt lat="48.12652" lon="6.86459">
        <ele>737</ele>
        <time>2026-09-02T15:18:55.000Z</time>
      </trkpt>
      <trkpt lat="48.12652" lon="6.86458">
        <ele>737</ele>
        <time>2026-09-02T15:18:56.000Z</time>
      </trkpt>
      <trkpt lat="48.12653" lon="6.86457">
        <ele>736.80004882812</ele>
        <time>2026-09-02T15:18:57.000Z</time>
      </trkpt>
      <trkpt lat="48.12653" lon="6.86456">
        <ele>736.80004882812</ele>
        <time>2026-09-02T15:18:58.000Z</time>
      </trkpt>
      <trkpt lat="48.12653" lon="6.86455">
        <ele>736.80004882812</ele>
        <time>2026-09-02T15:18:59.000Z</time>
      </trkpt>
      <trkpt lat="48.12653" lon="6.86454">
        <ele>736.59997558594</ele>
        <time>2026-09-02T15:19:00.000Z</time>
      </trkpt>
      <trkpt lat="48.12654" lon="6.86453">
        <ele>736.59997558594</ele>
        <time>2026-09-02T15:19:01.000Z</time>
      </trkpt>
      <trkpt lat="48.12654" lon="6.86451">
        <ele>736.59997558594</ele>
        <time>2026-09-02T15:19:02.000Z</time>
      </trkpt>
      <trkpt lat="48.12654" lon="6.8645">
        <ele>736.59997558594</ele>
        <time>2026-09-02T15:19:03.000Z</time>
      </trkpt>
      <trkpt lat="48.12655" lon="6.86449">
        <ele>736.59997558594</ele>
        <time>2026-09-02T15:19:04.000Z</time>
      </trkpt>
      <trkpt lat="48.12655" lon="6.86447">
        <ele>736.59997558594</ele>
        <time>2026-09-02T15:19:05.000Z</time>
      </trkpt>
      <trkpt lat="48.12655" lon="6.86446">
        <ele>736.59997558594</ele>
        <time>2026-09-02T15:19:06.000Z</time>
      </trkpt>
      <trkpt lat="48.12656" lon="6.86444">
        <ele>736.40002441406</ele>
        <time>2026-09-02T15:19:07.000Z</time>
      </trkpt>
      <trkpt lat="48.12656" lon="6.86443">
        <ele>736.40002441406</ele>
        <time>2026-09-02T15:19:08.000Z</time>
      </trkpt>
      <trkpt lat="48.12657" lon="6.86442">
        <ele>736.40002441406</ele>
        <time>2026-09-02T15:19:09.000Z</time>
      </trkpt>
      <trkpt lat="48.12657" lon="6.86441">
        <ele>736.40002441406</ele>
        <time>2026-09-02T15:19:10.000Z</time>
      </trkpt>
      <trkpt lat="48.12657" lon="6.86441">
        <ele>736.40002441406</ele>
        <time>2026-09-02T15:19:11.000Z</time>
      </trkpt>
      <trkpt lat="48.12658" lon="6.8644">
        <ele>736.40002441406</ele>
        <time>2026-09-02T15:19:12.000Z</time>
      </trkpt>
      <trkpt lat="48.12658" lon="6.86439">
        <ele>736.40002441406</ele>
        <time>2026-09-02T15:19:13.000Z</time>
      </trkpt>
      <trkpt lat="48.12658" lon="6.86438">
        <ele>736.59997558594</ele>
        <time>2026-09-02T15:19:14.000Z</time>
      </trkpt>
      <trkpt lat="48.12659" lon="6.86437">
        <ele>736.59997558594</ele>
        <time>2026-09-02T15:19:15.000Z</time>
      </trkpt>
      <trkpt lat="48.12659" lon="6.86436">
        <ele>736.40002441406</ele>
        <time>2026-09-02T15:19:16.000Z</time>
      </trkpt>
      <trkpt lat="48.1266" lon="6.86435">
        <ele>736.40002441406</ele>
        <time>2026-09-02T15:19:17.000Z</time>
      </trkpt>
      <trkpt lat="48.1266" lon="6.86433">
        <ele>736.19995117188</ele>
        <time>2026-09-02T15:19:18.000Z</time>
      </trkpt>
      <trkpt lat="48.12661" lon="6.86432">
        <ele>736.19995117188</ele>
        <time>2026-09-02T15:19:19.000Z</time>
      </trkpt>
      <trkpt lat="48.12661" lon="6.8643">
        <ele>736.19995117188</ele>
        <time>2026-09-02T15:19:20.000Z</time>
      </trkpt>
      <trkpt lat="48.12662" lon="6.86429">
        <ele>736</ele>
        <time>2026-09-02T15:19:21.000Z</time>
      </trkpt>
      <trkpt lat="48.12662" lon="6.86428">
        <ele>736</ele>
        <time>2026-09-02T15:19:22.000Z</time>
      </trkpt>
      <trkpt lat="48.12662" lon="6.86427">
        <ele>736</ele>
        <time>2026-09-02T15:19:23.000Z</time>
      </trkpt>
      <trkpt lat="48.12662" lon="6.86427">
        <ele>736.19995117188</ele>
        <time>2026-09-02T15:19:24.000Z</time>
      </trkpt>
      <trkpt lat="48.12663" lon="6.86426">
        <ele>736.19995117188</ele>
        <time>2026-09-02T15:19:25.000Z</time>
      </trkpt>
      <trkpt lat="48.12663" lon="6.86424">
        <ele>736.19995117188</ele>
        <time>2026-09-02T15:19:26.000Z</time>
      </trkpt>
      <trkpt lat="48.12664" lon="6.86423">
        <ele>736.19995117188</ele>
        <time>2026-09-02T15:19:27.000Z</time>
      </trkpt>
      <trkpt lat="48.12665" lon="6.86422">
        <ele>736.19995117188</ele>
        <time>2026-09-02T15:19:28.000Z</time>
      </trkpt>
      <trkpt lat="48.12665" lon="6.8642">
        <ele>736.19995117188</ele>
        <time>2026-09-02T15:19:29.000Z</time>
      </trkpt>
      <trkpt lat="48.12665" lon="6.86419">
        <ele>736.19995117188</ele>
        <time>2026-09-02T15:19:30.000Z</time>
      </trkpt>
      <trkpt lat="48.12665" lon="6.86418">
        <ele>736</ele>
        <time>2026-09-02T15:19:31.000Z</time>
      </trkpt>
      <trkpt lat="48.12666" lon="6.86417">
        <ele>736</ele>
        <time>2026-09-02T15:19:32.000Z</time>
      </trkpt>
      <trkpt lat="48.12666" lon="6.86416">
        <ele>736</ele>
        <time>2026-09-02T15:19:33.000Z</time>
      </trkpt>
      <trkpt lat="48.12667" lon="6.86414">
        <ele>736</ele>
        <time>2026-09-02T15:19:34.000Z</time>
      </trkpt>
      <trkpt lat="48.12667" lon="6.86413">
        <ele>736</ele>
        <time>2026-09-02T15:19:35.000Z</time>
      </trkpt>
      <trkpt lat="48.12668" lon="6.86412">
        <ele>736</ele>
        <time>2026-09-02T15:19:36.000Z</time>
      </trkpt>
      <trkpt lat="48.12668" lon="6.86411">
        <ele>736</ele>
        <time>2026-09-02T15:19:37.000Z</time>
      </trkpt>
      <trkpt lat="48.12669" lon="6.8641">
        <ele>736</ele>
        <time>2026-09-02T15:19:38.000Z</time>
      </trkpt>
      <trkpt lat="48.12669" lon="6.86409">
        <ele>736.19995117188</ele>
        <time>2026-09-02T15:19:39.000Z</time>
      </trkpt>
      <trkpt lat="48.12669" lon="6.86408">
        <ele>736.19995117188</ele>
        <time>2026-09-02T15:19:40.000Z</time>
      </trkpt>
      <trkpt lat="48.1267" lon="6.86406">
        <ele>736.19995117188</ele>
        <time>2026-09-02T15:19:41.000Z</time>
      </trkpt>
      <trkpt lat="48.1267" lon="6.86405">
        <ele>736.19995117188</ele>
        <time>2026-09-02T15:19:42.000Z</time>
      </trkpt>
      <trkpt lat="48.12671" lon="6.86404">
        <ele>736.40002441406</ele>
        <time>2026-09-02T15:19:43.000Z</time>
      </trkpt>
      <trkpt lat="48.12671" lon="6.86403">
        <ele>736.40002441406</ele>
        <time>2026-09-02T15:19:44.000Z</time>
      </trkpt>
      <trkpt lat="48.12671" lon="6.86403">
        <ele>736.40002441406</ele>
        <time>2026-09-02T15:19:45.000Z</time>
      </trkpt>
      <trkpt lat="48.12672" lon="6.86401">
        <ele>736.40002441406</ele>
        <time>2026-09-02T15:19:46.000Z</time>
      </trkpt>
      <trkpt lat="48.12673" lon="6.864">
        <ele>736.40002441406</ele>
        <time>2026-09-02T15:19:47.000Z</time>
      </trkpt>
      <trkpt lat="48.12673" lon="6.86399">
        <ele>736.40002441406</ele>
        <time>2026-09-02T15:19:48.000Z</time>
      </trkpt>
      <trkpt lat="48.12674" lon="6.86398">
        <ele>736.40002441406</ele>
        <time>2026-09-02T15:19:49.000Z</time>
      </trkpt>
      <trkpt lat="48.12674" lon="6.86397">
        <ele>736.40002441406</ele>
        <time>2026-09-02T15:19:50.000Z</time>
      </trkpt>
      <trkpt lat="48.12675" lon="6.86396">
        <ele>736.40002441406</ele>
        <time>2026-09-02T15:19:51.000Z</time>
      </trkpt>
      <trkpt lat="48.12675" lon="6.86395">
        <ele>736.40002441406</ele>
        <time>2026-09-02T15:19:52.000Z</time>
      </trkpt>
      <trkpt lat="48.12676" lon="6.86394">
        <ele>736.19995117188</ele>
        <time>2026-09-02T15:19:53.000Z</time>
      </trkpt>
      <trkpt lat="48.12676" lon="6.86393">
        <ele>736.19995117188</ele>
        <time>2026-09-02T15:19:54.000Z</time>
      </trkpt>
      <trkpt lat="48.12676" lon="6.86392">
        <ele>736</ele>
        <time>2026-09-02T15:19:55.000Z</time>
      </trkpt>
      <trkpt lat="48.12677" lon="6.8639">
        <ele>736</ele>
        <time>2026-09-02T15:19:56.000Z</time>
      </trkpt>
      <trkpt lat="48.12678" lon="6.86389">
        <ele>736</ele>
        <time>2026-09-02T15:19:57.000Z</time>
      </trkpt>
      <trkpt lat="48.12678" lon="6.86388">
        <ele>736</ele>
        <time>2026-09-02T15:19:58.000Z</time>
      </trkpt>
      <trkpt lat="48.12679" lon="6.86386">
        <ele>735.80004882812</ele>
        <time>2026-09-02T15:19:59.000Z</time>
      </trkpt>
      <trkpt lat="48.12679" lon="6.86385">
        <ele>735.80004882812</ele>
        <time>2026-09-02T15:20:00.000Z</time>
      </trkpt>
      <trkpt lat="48.1268" lon="6.86384">
        <ele>735.80004882812</ele>
        <time>2026-09-02T15:20:01.000Z</time>
      </trkpt>
      <trkpt lat="48.1268" lon="6.86383">
        <ele>735.80004882812</ele>
        <time>2026-09-02T15:20:02.000Z</time>
      </trkpt>
      <trkpt lat="48.12681" lon="6.86382">
        <ele>735.80004882812</ele>
        <time>2026-09-02T15:20:03.000Z</time>
      </trkpt>
      <trkpt lat="48.12682" lon="6.86381">
        <ele>736</ele>
        <time>2026-09-02T15:20:04.000Z</time>
      </trkpt>
      <trkpt lat="48.12683" lon="6.8638">
        <ele>736</ele>
        <time>2026-09-02T15:20:05.000Z</time>
      </trkpt>
      <trkpt lat="48.12683" lon="6.86379">
        <ele>736</ele>
        <time>2026-09-02T15:20:06.000Z</time>
      </trkpt>
      <trkpt lat="48.12684" lon="6.86378">
        <ele>736</ele>
        <time>2026-09-02T15:20:07.000Z</time>
      </trkpt>
      <trkpt lat="48.12685" lon="6.86377">
        <ele>735.80004882812</ele>
        <time>2026-09-02T15:20:08.000Z</time>
      </trkpt>
      <trkpt lat="48.12685" lon="6.86376">
        <ele>735.80004882812</ele>
        <time>2026-09-02T15:20:09.000Z</time>
      </trkpt>
      <trkpt lat="48.12686" lon="6.86375">
        <ele>735.80004882812</ele>
        <time>2026-09-02T15:20:10.000Z</time>
      </trkpt>
      <trkpt lat="48.12686" lon="6.86375">
        <ele>735.80004882812</ele>
        <time>2026-09-02T15:20:11.000Z</time>
      </trkpt>
      <trkpt lat="48.12687" lon="6.86374">
        <ele>736</ele>
        <time>2026-09-02T15:20:12.000Z</time>
      </trkpt>
      <trkpt lat="48.12688" lon="6.86373">
        <ele>736</ele>
        <time>2026-09-02T15:20:13.000Z</time>
      </trkpt>
      <trkpt lat="48.12689" lon="6.86372">
        <ele>736</ele>
        <time>2026-09-02T15:20:14.000Z</time>
      </trkpt>
      <trkpt lat="48.1269" lon="6.86371">
        <ele>736</ele>
        <time>2026-09-02T15:20:15.000Z</time>
      </trkpt>
      <trkpt lat="48.12691" lon="6.8637">
        <ele>736</ele>
        <time>2026-09-02T15:20:16.000Z</time>
      </trkpt>
      <trkpt lat="48.12691" lon="6.86369">
        <ele>736</ele>
        <time>2026-09-02T15:20:17.000Z</time>
      </trkpt>
      <trkpt lat="48.12692" lon="6.86369">
        <ele>736</ele>
        <time>2026-09-02T15:20:18.000Z</time>
      </trkpt>
      <trkpt lat="48.12692" lon="6.86368">
        <ele>736.19995117188</ele>
        <time>2026-09-02T15:20:19.000Z</time>
      </trkpt>
      <trkpt lat="48.12692" lon="6.86367">
        <ele>736.19995117188</ele>
        <time>2026-09-02T15:20:20.000Z</time>
      </trkpt>
      <trkpt lat="48.12693" lon="6.86366">
        <ele>736.19995117188</ele>
        <time>2026-09-02T15:20:21.000Z</time>
      </trkpt>
      <trkpt lat="48.12695" lon="6.86364">
        <ele>736.40002441406</ele>
        <time>2026-09-02T15:20:22.000Z</time>
      </trkpt>
      <trkpt lat="48.12696" lon="6.86364">
        <ele>736.40002441406</ele>
        <time>2026-09-02T15:20:23.000Z</time>
      </trkpt>
      <trkpt lat="48.12696" lon="6.86363">
        <ele>736.59997558594</ele>
        <time>2026-09-02T15:20:24.000Z</time>
      </trkpt>
      <trkpt lat="48.12697" lon="6.86362">
        <ele>736.59997558594</ele>
        <time>2026-09-02T15:20:25.000Z</time>
      </trkpt>
      <trkpt lat="48.12698" lon="6.86361">
        <ele>736.80004882812</ele>
        <time>2026-09-02T15:20:26.000Z</time>
      </trkpt>
      <trkpt lat="48.12698" lon="6.8636">
        <ele>736.80004882812</ele>
        <time>2026-09-02T15:20:27.000Z</time>
      </trkpt>
      <trkpt lat="48.12699" lon="6.86359">
        <ele>736.80004882812</ele>
        <time>2026-09-02T15:20:28.000Z</time>
      </trkpt>
      <trkpt lat="48.127" lon="6.86358">
        <ele>736.59997558594</ele>
        <time>2026-09-02T15:20:29.000Z</time>
      </trkpt>
      <trkpt lat="48.12701" lon="6.86357">
        <ele>736.59997558594</ele>
        <time>2026-09-02T15:20:30.000Z</time>
      </trkpt>
      <trkpt lat="48.12702" lon="6.86357">
        <ele>736.59997558594</ele>
        <time>2026-09-02T15:20:31.000Z</time>
      </trkpt>
      <trkpt lat="48.12702" lon="6.86356">
        <ele>736.40002441406</ele>
        <time>2026-09-02T15:20:32.000Z</time>
      </trkpt>
      <trkpt lat="48.12703" lon="6.86355">
        <ele>736.40002441406</ele>
        <time>2026-09-02T15:20:33.000Z</time>
      </trkpt>
      <trkpt lat="48.12704" lon="6.86355">
        <ele>736.40002441406</ele>
        <time>2026-09-02T15:20:34.000Z</time>
      </trkpt>
      <trkpt lat="48.12705" lon="6.86355">
        <ele>736.40002441406</ele>
        <time>2026-09-02T15:20:35.000Z</time>
      </trkpt>
      <trkpt lat="48.12706" lon="6.86354">
        <ele>736.40002441406</ele>
        <time>2026-09-02T15:20:36.000Z</time>
      </trkpt>
      <trkpt lat="48.12708" lon="6.86354">
        <ele>736.59997558594</ele>
        <time>2026-09-02T15:20:37.000Z</time>
      </trkpt>
      <trkpt lat="48.12709" lon="6.86354">
        <ele>736.80004882812</ele>
        <time>2026-09-02T15:20:38.000Z</time>
      </trkpt>
      <trkpt lat="48.1271" lon="6.86354">
        <ele>736.80004882812</ele>
        <time>2026-09-02T15:20:39.000Z</time>
      </trkpt>
      <trkpt lat="48.12711" lon="6.86354">
        <ele>736.80004882812</ele>
        <time>2026-09-02T15:20:40.000Z</time>
      </trkpt>
      <trkpt lat="48.12712" lon="6.86354">
        <ele>736.80004882812</ele>
        <time>2026-09-02T15:20:41.000Z</time>
      </trkpt>
      <trkpt lat="48.12713" lon="6.86353">
        <ele>736.59997558594</ele>
        <time>2026-09-02T15:20:42.000Z</time>
      </trkpt>
      <trkpt lat="48.12714" lon="6.86353">
        <ele>736.59997558594</ele>
        <time>2026-09-02T15:20:43.000Z</time>
      </trkpt>
      <trkpt lat="48.12715" lon="6.86352">
        <ele>736.40002441406</ele>
        <time>2026-09-02T15:20:44.000Z</time>
      </trkpt>
      <trkpt lat="48.12716" lon="6.86352">
        <ele>736.40002441406</ele>
        <time>2026-09-02T15:20:45.000Z</time>
      </trkpt>
      <trkpt lat="48.12716" lon="6.86352">
        <ele>736.40002441406</ele>
        <time>2026-09-02T15:20:46.000Z</time>
      </trkpt>
      <trkpt lat="48.12717" lon="6.86351">
        <ele>736.40002441406</ele>
        <time>2026-09-02T15:20:47.000Z</time>
      </trkpt>
      <trkpt lat="48.12718" lon="6.86351">
        <ele>736.40002441406</ele>
        <time>2026-09-02T15:20:48.000Z</time>
      </trkpt>
      <trkpt lat="48.12719" lon="6.8635">
        <ele>736.40002441406</ele>
        <time>2026-09-02T15:20:49.000Z</time>
      </trkpt>
      <trkpt lat="48.1272" lon="6.86351">
        <ele>736.40002441406</ele>
        <time>2026-09-02T15:20:50.000Z</time>
      </trkpt>
      <trkpt lat="48.12721" lon="6.8635">
        <ele>736.40002441406</ele>
        <time>2026-09-02T15:20:51.000Z</time>
      </trkpt>
      <trkpt lat="48.12722" lon="6.86349">
        <ele>736.40002441406</ele>
        <time>2026-09-02T15:20:52.000Z</time>
      </trkpt>
      <trkpt lat="48.12722" lon="6.86349">
        <ele>736.40002441406</ele>
        <time>2026-09-02T15:20:53.000Z</time>
      </trkpt>
      <trkpt lat="48.12724" lon="6.86349">
        <ele>736.19995117188</ele>
        <time>2026-09-02T15:20:54.000Z</time>
      </trkpt>
      <trkpt lat="48.12725" lon="6.86349">
        <ele>736.19995117188</ele>
        <time>2026-09-02T15:20:55.000Z</time>
      </trkpt>
      <trkpt lat="48.12725" lon="6.86348">
        <ele>736.19995117188</ele>
        <time>2026-09-02T15:20:56.000Z</time>
      </trkpt>
      <trkpt lat="48.12726" lon="6.86348">
        <ele>736.19995117188</ele>
        <time>2026-09-02T15:20:57.000Z</time>
      </trkpt>
      <trkpt lat="48.12727" lon="6.86347">
        <ele>736</ele>
        <time>2026-09-02T15:20:58.000Z</time>
      </trkpt>
      <trkpt lat="48.12727" lon="6.86347">
        <ele>736</ele>
        <time>2026-09-02T15:20:59.000Z</time>
      </trkpt>
      <trkpt lat="48.12728" lon="6.86347">
        <ele>736.19995117188</ele>
        <time>2026-09-02T15:21:00.000Z</time>
      </trkpt>
      <trkpt lat="48.12728" lon="6.86346">
        <ele>736.19995117188</ele>
        <time>2026-09-02T15:21:01.000Z</time>
      </trkpt>
      <trkpt lat="48.12729" lon="6.86346">
        <ele>736.19995117188</ele>
        <time>2026-09-02T15:21:02.000Z</time>
      </trkpt>
      <trkpt lat="48.1273" lon="6.86346">
        <ele>736</ele>
        <time>2026-09-02T15:21:03.000Z</time>
      </trkpt>
      <trkpt lat="48.1273" lon="6.86345">
        <ele>736</ele>
        <time>2026-09-02T15:21:04.000Z</time>
      </trkpt>
      <trkpt lat="48.12731" lon="6.86345">
        <ele>736</ele>
        <time>2026-09-02T15:21:05.000Z</time>
      </trkpt>
      <trkpt lat="48.12731" lon="6.86344">
        <ele>736</ele>
        <time>2026-09-02T15:21:06.000Z</time>
      </trkpt>
      <trkpt lat="48.12732" lon="6.86343">
        <ele>736</ele>
        <time>2026-09-02T15:21:07.000Z</time>
      </trkpt>
      <trkpt lat="48.12733" lon="6.86343">
        <ele>736</ele>
        <time>2026-09-02T15:21:08.000Z</time>
      </trkpt>
      <trkpt lat="48.12734" lon="6.86342">
        <ele>736</ele>
        <time>2026-09-02T15:21:09.000Z</time>
      </trkpt>
      <trkpt lat="48.12734" lon="6.86341">
        <ele>735.80004882812</ele>
        <time>2026-09-02T15:21:10.000Z</time>
      </trkpt>
      <trkpt lat="48.12735" lon="6.8634">
        <ele>735.80004882812</ele>
        <time>2026-09-02T15:21:11.000Z</time>
      </trkpt>
      <trkpt lat="48.12736" lon="6.86339">
        <ele>735.59997558594</ele>
        <time>2026-09-02T15:21:12.000Z</time>
      </trkpt>
      <trkpt lat="48.12737" lon="6.86338">
        <ele>735.59997558594</ele>
        <time>2026-09-02T15:21:13.000Z</time>
      </trkpt>
      <trkpt lat="48.12737" lon="6.86337">
        <ele>735.59997558594</ele>
        <time>2026-09-02T15:21:14.000Z</time>
      </trkpt>
      <trkpt lat="48.12738" lon="6.86336">
        <ele>735.80004882812</ele>
        <time>2026-09-02T15:21:15.000Z</time>
      </trkpt>
      <trkpt lat="48.12739" lon="6.86336">
        <ele>735.80004882812</ele>
        <time>2026-09-02T15:21:16.000Z</time>
      </trkpt>
      <trkpt lat="48.12739" lon="6.86335">
        <ele>736</ele>
        <time>2026-09-02T15:21:17.000Z</time>
      </trkpt>
      <trkpt lat="48.1274" lon="6.86334">
        <ele>735.80004882812</ele>
        <time>2026-09-02T15:21:18.000Z</time>
      </trkpt>
      <trkpt lat="48.12741" lon="6.86334">
        <ele>735.80004882812</ele>
        <time>2026-09-02T15:21:19.000Z</time>
      </trkpt>
      <trkpt lat="48.12742" lon="6.86333">
        <ele>735.80004882812</ele>
        <time>2026-09-02T15:21:20.000Z</time>
      </trkpt>
      <trkpt lat="48.12743" lon="6.86332">
        <ele>735.80004882812</ele>
        <time>2026-09-02T15:21:21.000Z</time>
      </trkpt>
      <trkpt lat="48.12744" lon="6.86332">
        <ele>735.59997558594</ele>
        <time>2026-09-02T15:21:22.000Z</time>
      </trkpt>
      <trkpt lat="48.12745" lon="6.86331">
        <ele>735.59997558594</ele>
        <time>2026-09-02T15:21:23.000Z</time>
      </trkpt>
      <trkpt lat="48.12746" lon="6.86331">
        <ele>735.59997558594</ele>
        <time>2026-09-02T15:21:24.000Z</time>
      </trkpt>
      <trkpt lat="48.12747" lon="6.8633">
        <ele>735.40002441406</ele>
        <time>2026-09-02T15:21:25.000Z</time>
      </trkpt>
      <trkpt lat="48.12747" lon="6.8633">
        <ele>735.40002441406</ele>
        <time>2026-09-02T15:21:26.000Z</time>
      </trkpt>
      <trkpt lat="48.12748" lon="6.86329">
        <ele>735.40002441406</ele>
        <time>2026-09-02T15:21:27.000Z</time>
      </trkpt>
      <trkpt lat="48.12749" lon="6.86328">
        <ele>735.40002441406</ele>
        <time>2026-09-02T15:21:28.000Z</time>
      </trkpt>
      <trkpt lat="48.1275" lon="6.86328">
        <ele>735.40002441406</ele>
        <time>2026-09-02T15:21:29.000Z</time>
      </trkpt>
      <trkpt lat="48.1275" lon="6.86327">
        <ele>735.40002441406</ele>
        <time>2026-09-02T15:21:30.000Z</time>
      </trkpt>
      <trkpt lat="48.12751" lon="6.86327">
        <ele>735.19995117188</ele>
        <time>2026-09-02T15:21:31.000Z</time>
      </trkpt>
      <trkpt lat="48.12751" lon="6.86326">
        <ele>735.19995117188</ele>
        <time>2026-09-02T15:21:32.000Z</time>
      </trkpt>
      <trkpt lat="48.12753" lon="6.86326">
        <ele>735</ele>
        <time>2026-09-02T15:21:33.000Z</time>
      </trkpt>
      <trkpt lat="48.12753" lon="6.86325">
        <ele>735</ele>
        <time>2026-09-02T15:21:34.000Z</time>
      </trkpt>
      <trkpt lat="48.12754" lon="6.86325">
        <ele>735</ele>
        <time>2026-09-02T15:21:35.000Z</time>
      </trkpt>
      <trkpt lat="48.12755" lon="6.86325">
        <ele>734.80004882812</ele>
        <time>2026-09-02T15:21:36.000Z</time>
      </trkpt>
      <trkpt lat="48.12756" lon="6.86324">
        <ele>734.80004882812</ele>
        <time>2026-09-02T15:21:37.000Z</time>
      </trkpt>
      <trkpt lat="48.12757" lon="6.86324">
        <ele>734.80004882812</ele>
        <time>2026-09-02T15:21:38.000Z</time>
      </trkpt>
      <trkpt lat="48.12758" lon="6.86323">
        <ele>734.59997558594</ele>
        <time>2026-09-02T15:21:39.000Z</time>
      </trkpt>
      <trkpt lat="48.12758" lon="6.86323">
        <ele>734.59997558594</ele>
        <time>2026-09-02T15:21:40.000Z</time>
      </trkpt>
      <trkpt lat="48.12759" lon="6.86322">
        <ele>734.59997558594</ele>
        <time>2026-09-02T15:21:41.000Z</time>
      </trkpt>
      <trkpt lat="48.12761" lon="6.86322">
        <ele>734.40002441406</ele>
        <time>2026-09-02T15:21:42.000Z</time>
      </trkpt>
      <trkpt lat="48.12761" lon="6.86322">
        <ele>734.40002441406</ele>
        <time>2026-09-02T15:21:43.000Z</time>
      </trkpt>
      <trkpt lat="48.12762" lon="6.86322">
        <ele>734.40002441406</ele>
        <time>2026-09-02T15:21:44.000Z</time>
      </trkpt>
      <trkpt lat="48.12763" lon="6.86322">
        <ele>734.19995117188</ele>
        <time>2026-09-02T15:21:45.000Z</time>
      </trkpt>
      <trkpt lat="48.12764" lon="6.86322">
        <ele>734.19995117188</ele>
        <time>2026-09-02T15:21:46.000Z</time>
      </trkpt>
      <trkpt lat="48.12765" lon="6.86322">
        <ele>734.19995117188</ele>
        <time>2026-09-02T15:21:47.000Z</time>
      </trkpt>
      <trkpt lat="48.12766" lon="6.86321">
        <ele>734.19995117188</ele>
        <time>2026-09-02T15:21:48.000Z</time>
      </trkpt>
      <trkpt lat="48.12767" lon="6.86321">
        <ele>734.19995117188</ele>
        <time>2026-09-02T15:21:49.000Z</time>
      </trkpt>
      <trkpt lat="48.12768" lon="6.86321">
        <ele>734.19995117188</ele>
        <time>2026-09-02T15:21:50.000Z</time>
      </trkpt>
      <trkpt lat="48.12769" lon="6.86321">
        <ele>734.19995117188</ele>
        <time>2026-09-02T15:21:51.000Z</time>
      </trkpt>
      <trkpt lat="48.1277" lon="6.86321">
        <ele>734.19995117188</ele>
        <time>2026-09-02T15:21:52.000Z</time>
      </trkpt>
      <trkpt lat="48.12771" lon="6.86321">
        <ele>734</ele>
        <time>2026-09-02T15:21:53.000Z</time>
      </trkpt>
      <trkpt lat="48.12772" lon="6.86321">
        <ele>734</ele>
        <time>2026-09-02T15:21:54.000Z</time>
      </trkpt>
      <trkpt lat="48.12772" lon="6.86321">
        <ele>734</ele>
        <time>2026-09-02T15:21:55.000Z</time>
      </trkpt>
      <trkpt lat="48.12773" lon="6.86321">
        <ele>734</ele>
        <time>2026-09-02T15:21:56.000Z</time>
      </trkpt>
      <trkpt lat="48.12774" lon="6.86321">
        <ele>734</ele>
        <time>2026-09-02T15:21:57.000Z</time>
      </trkpt>
      <trkpt lat="48.12775" lon="6.86321">
        <ele>734</ele>
        <time>2026-09-02T15:21:58.000Z</time>
      </trkpt>
      <trkpt lat="48.12776" lon="6.86321">
        <ele>733.80004882812</ele>
        <time>2026-09-02T15:21:59.000Z</time>
      </trkpt>
      <trkpt lat="48.12777" lon="6.86321">
        <ele>733.80004882812</ele>
        <time>2026-09-02T15:22:00.000Z</time>
      </trkpt>
      <trkpt lat="48.12779" lon="6.86321">
        <ele>733.59997558594</ele>
        <time>2026-09-02T15:22:01.000Z</time>
      </trkpt>
      <trkpt lat="48.1278" lon="6.86322">
        <ele>733.40002441406</ele>
        <time>2026-09-02T15:22:02.000Z</time>
      </trkpt>
      <trkpt lat="48.12781" lon="6.86322">
        <ele>733.40002441406</ele>
        <time>2026-09-02T15:22:03.000Z</time>
      </trkpt>
      <trkpt lat="48.12781" lon="6.86322">
        <ele>733.19995117188</ele>
        <time>2026-09-02T15:22:04.000Z</time>
      </trkpt>
      <trkpt lat="48.12782" lon="6.86322">
        <ele>733.19995117188</ele>
        <time>2026-09-02T15:22:05.000Z</time>
      </trkpt>
      <trkpt lat="48.12783" lon="6.86322">
        <ele>733</ele>
        <time>2026-09-02T15:22:06.000Z</time>
      </trkpt>
      <trkpt lat="48.12784" lon="6.86322">
        <ele>733</ele>
        <time>2026-09-02T15:22:07.000Z</time>
      </trkpt>
      <trkpt lat="48.12785" lon="6.86322">
        <ele>733</ele>
        <time>2026-09-02T15:22:08.000Z</time>
      </trkpt>
      <trkpt lat="48.12785" lon="6.86322">
        <ele>732.80004882812</ele>
        <time>2026-09-02T15:22:09.000Z</time>
      </trkpt>
      <trkpt lat="48.12787" lon="6.86322">
        <ele>732.80004882812</ele>
        <time>2026-09-02T15:22:10.000Z</time>
      </trkpt>
      <trkpt lat="48.12787" lon="6.86323">
        <ele>732.80004882812</ele>
        <time>2026-09-02T15:22:11.000Z</time>
      </trkpt>
      <trkpt lat="48.12788" lon="6.86323">
        <ele>732.80004882812</ele>
        <time>2026-09-02T15:22:12.000Z</time>
      </trkpt>
      <trkpt lat="48.12789" lon="6.86323">
        <ele>732.80004882812</ele>
        <time>2026-09-02T15:22:13.000Z</time>
      </trkpt>
      <trkpt lat="48.1279" lon="6.86323">
        <ele>732.80004882812</ele>
        <time>2026-09-02T15:22:14.000Z</time>
      </trkpt>
      <trkpt lat="48.12791" lon="6.86323">
        <ele>732.59997558594</ele>
        <time>2026-09-02T15:22:15.000Z</time>
      </trkpt>
      <trkpt lat="48.12791" lon="6.86323">
        <ele>732.59997558594</ele>
        <time>2026-09-02T15:22:16.000Z</time>
      </trkpt>
      <trkpt lat="48.12792" lon="6.86324">
        <ele>732.59997558594</ele>
        <time>2026-09-02T15:22:17.000Z</time>
      </trkpt>
      <trkpt lat="48.12793" lon="6.86324">
        <ele>732.59997558594</ele>
        <time>2026-09-02T15:22:18.000Z</time>
      </trkpt>
      <trkpt lat="48.12793" lon="6.86323">
        <ele>732.59997558594</ele>
        <time>2026-09-02T15:22:19.000Z</time>
      </trkpt>
      <trkpt lat="48.12794" lon="6.86324">
        <ele>732.59997558594</ele>
        <time>2026-09-02T15:22:20.000Z</time>
      </trkpt>
      <trkpt lat="48.12795" lon="6.86324">
        <ele>732.59997558594</ele>
        <time>2026-09-02T15:22:21.000Z</time>
      </trkpt>
      <trkpt lat="48.12796" lon="6.86324">
        <ele>732.40002441406</ele>
        <time>2026-09-02T15:22:22.000Z</time>
      </trkpt>
      <trkpt lat="48.12797" lon="6.86324">
        <ele>732.40002441406</ele>
        <time>2026-09-02T15:22:23.000Z</time>
      </trkpt>
      <trkpt lat="48.12798" lon="6.86324">
        <ele>732.40002441406</ele>
        <time>2026-09-02T15:22:24.000Z</time>
      </trkpt>
      <trkpt lat="48.12799" lon="6.86324">
        <ele>732.40002441406</ele>
        <time>2026-09-02T15:22:25.000Z</time>
      </trkpt>
      <trkpt lat="48.128" lon="6.86325">
        <ele>732.40002441406</ele>
        <time>2026-09-02T15:22:26.000Z</time>
      </trkpt>
      <trkpt lat="48.12801" lon="6.86325">
        <ele>732.40002441406</ele>
        <time>2026-09-02T15:22:27.000Z</time>
      </trkpt>
      <trkpt lat="48.12802" lon="6.86325">
        <ele>732.19995117188</ele>
        <time>2026-09-02T15:22:28.000Z</time>
      </trkpt>
      <trkpt lat="48.12803" lon="6.86325">
        <ele>732.19995117188</ele>
        <time>2026-09-02T15:22:29.000Z</time>
      </trkpt>
      <trkpt lat="48.12804" lon="6.86325">
        <ele>732.19995117188</ele>
        <time>2026-09-02T15:22:30.000Z</time>
      </trkpt>
      <trkpt lat="48.12805" lon="6.86325">
        <ele>732</ele>
        <time>2026-09-02T15:22:31.000Z</time>
      </trkpt>
      <trkpt lat="48.12805" lon="6.86325">
        <ele>732</ele>
        <time>2026-09-02T15:22:32.000Z</time>
      </trkpt>
      <trkpt lat="48.12806" lon="6.86325">
        <ele>732</ele>
        <time>2026-09-02T15:22:33.000Z</time>
      </trkpt>
      <trkpt lat="48.12807" lon="6.86324">
        <ele>732</ele>
        <time>2026-09-02T15:22:34.000Z</time>
      </trkpt>
      <trkpt lat="48.12808" lon="6.86324">
        <ele>732</ele>
        <time>2026-09-02T15:22:35.000Z</time>
      </trkpt>
      <trkpt lat="48.12809" lon="6.86324">
        <ele>732</ele>
        <time>2026-09-02T15:22:36.000Z</time>
      </trkpt>
      <trkpt lat="48.1281" lon="6.86324">
        <ele>731.80004882812</ele>
        <time>2026-09-02T15:22:37.000Z</time>
      </trkpt>
      <trkpt lat="48.1281" lon="6.86324">
        <ele>731.80004882812</ele>
        <time>2026-09-02T15:22:38.000Z</time>
      </trkpt>
      <trkpt lat="48.12812" lon="6.86324">
        <ele>731.80004882812</ele>
        <time>2026-09-02T15:22:39.000Z</time>
      </trkpt>
      <trkpt lat="48.12812" lon="6.86324">
        <ele>731.80004882812</ele>
        <time>2026-09-02T15:22:40.000Z</time>
      </trkpt>
      <trkpt lat="48.12813" lon="6.86323">
        <ele>731.59997558594</ele>
        <time>2026-09-02T15:22:41.000Z</time>
      </trkpt>
      <trkpt lat="48.12814" lon="6.86323">
        <ele>731.59997558594</ele>
        <time>2026-09-02T15:22:42.000Z</time>
      </trkpt>
      <trkpt lat="48.12815" lon="6.86323">
        <ele>731.59997558594</ele>
        <time>2026-09-02T15:22:43.000Z</time>
      </trkpt>
      <trkpt lat="48.12816" lon="6.86323">
        <ele>731.40002441406</ele>
        <time>2026-09-02T15:22:44.000Z</time>
      </trkpt>
      <trkpt lat="48.12817" lon="6.86322">
        <ele>731.40002441406</ele>
        <time>2026-09-02T15:22:45.000Z</time>
      </trkpt>
      <trkpt lat="48.12818" lon="6.86322">
        <ele>731.40002441406</ele>
        <time>2026-09-02T15:22:46.000Z</time>
      </trkpt>
      <trkpt lat="48.12818" lon="6.86322">
        <ele>731.40002441406</ele>
        <time>2026-09-02T15:22:47.000Z</time>
      </trkpt>
      <trkpt lat="48.12819" lon="6.86321">
        <ele>731.19995117188</ele>
        <time>2026-09-02T15:22:48.000Z</time>
      </trkpt>
      <trkpt lat="48.1282" lon="6.86321">
        <ele>731.19995117188</ele>
        <time>2026-09-02T15:22:49.000Z</time>
      </trkpt>
      <trkpt lat="48.12821" lon="6.86321">
        <ele>731.19995117188</ele>
        <time>2026-09-02T15:22:50.000Z</time>
      </trkpt>
      <trkpt lat="48.12822" lon="6.8632">
        <ele>731.19995117188</ele>
        <time>2026-09-02T15:22:51.000Z</time>
      </trkpt>
      <trkpt lat="48.12823" lon="6.8632">
        <ele>731.19995117188</ele>
        <time>2026-09-02T15:22:52.000Z</time>
      </trkpt>
      <trkpt lat="48.12824" lon="6.86319">
        <ele>731.19995117188</ele>
        <time>2026-09-02T15:22:53.000Z</time>
      </trkpt>
      <trkpt lat="48.12824" lon="6.86319">
        <ele>731.19995117188</ele>
        <time>2026-09-02T15:22:54.000Z</time>
      </trkpt>
      <trkpt lat="48.12825" lon="6.86318">
        <ele>731.19995117188</ele>
        <time>2026-09-02T15:22:55.000Z</time>
      </trkpt>
      <trkpt lat="48.12826" lon="6.86318">
        <ele>731.19995117188</ele>
        <time>2026-09-02T15:22:56.000Z</time>
      </trkpt>
      <trkpt lat="48.12826" lon="6.86317">
        <ele>731.19995117188</ele>
        <time>2026-09-02T15:22:57.000Z</time>
      </trkpt>
      <trkpt lat="48.12827" lon="6.86317">
        <ele>731.19995117188</ele>
        <time>2026-09-02T15:22:58.000Z</time>
      </trkpt>
      <trkpt lat="48.12828" lon="6.86316">
        <ele>731.19995117188</ele>
        <time>2026-09-02T15:22:59.000Z</time>
      </trkpt>
      <trkpt lat="48.12828" lon="6.86315">
        <ele>731</ele>
        <time>2026-09-02T15:23:00.000Z</time>
      </trkpt>
      <trkpt lat="48.12829" lon="6.86315">
        <ele>731</ele>
        <time>2026-09-02T15:23:01.000Z</time>
      </trkpt>
      <trkpt lat="48.1283" lon="6.86314">
        <ele>731</ele>
        <time>2026-09-02T15:23:02.000Z</time>
      </trkpt>
      <trkpt lat="48.1283" lon="6.86313">
        <ele>731</ele>
        <time>2026-09-02T15:23:03.000Z</time>
      </trkpt>
      <trkpt lat="48.12831" lon="6.86313">
        <ele>731</ele>
        <time>2026-09-02T15:23:04.000Z</time>
      </trkpt>
      <trkpt lat="48.12832" lon="6.86312">
        <ele>731</ele>
        <time>2026-09-02T15:23:05.000Z</time>
      </trkpt>
      <trkpt lat="48.12833" lon="6.86312">
        <ele>731</ele>
        <time>2026-09-02T15:23:06.000Z</time>
      </trkpt>
      <trkpt lat="48.12834" lon="6.8631">
        <ele>731</ele>
        <time>2026-09-02T15:23:07.000Z</time>
      </trkpt>
      <trkpt lat="48.12835" lon="6.86309">
        <ele>731</ele>
        <time>2026-09-02T15:23:08.000Z</time>
      </trkpt>
      <trkpt lat="48.12836" lon="6.86308">
        <ele>730.80004882812</ele>
        <time>2026-09-02T15:23:09.000Z</time>
      </trkpt>
      <trkpt lat="48.12836" lon="6.86308">
        <ele>730.80004882812</ele>
        <time>2026-09-02T15:23:10.000Z</time>
      </trkpt>
      <trkpt lat="48.12837" lon="6.86307">
        <ele>730.80004882812</ele>
        <time>2026-09-02T15:23:11.000Z</time>
      </trkpt>
      <trkpt lat="48.12838" lon="6.86307">
        <ele>730.80004882812</ele>
        <time>2026-09-02T15:23:12.000Z</time>
      </trkpt>
      <trkpt lat="48.12838" lon="6.86306">
        <ele>730.59997558594</ele>
        <time>2026-09-02T15:23:13.000Z</time>
      </trkpt>
      <trkpt lat="48.12839" lon="6.86305">
        <ele>730.59997558594</ele>
        <time>2026-09-02T15:23:14.000Z</time>
      </trkpt>
      <trkpt lat="48.12839" lon="6.86305">
        <ele>730.59997558594</ele>
        <time>2026-09-02T15:23:15.000Z</time>
      </trkpt>
      <trkpt lat="48.1284" lon="6.86304">
        <ele>730.40002441406</ele>
        <time>2026-09-02T15:23:16.000Z</time>
      </trkpt>
      <trkpt lat="48.12841" lon="6.86303">
        <ele>730.40002441406</ele>
        <time>2026-09-02T15:23:17.000Z</time>
      </trkpt>
      <trkpt lat="48.12841" lon="6.86302">
        <ele>730.40002441406</ele>
        <time>2026-09-02T15:23:18.000Z</time>
      </trkpt>
      <trkpt lat="48.12842" lon="6.86303">
        <ele>730.40002441406</ele>
        <time>2026-09-02T15:23:19.000Z</time>
      </trkpt>
      <trkpt lat="48.12842" lon="6.86302">
        <ele>730.40002441406</ele>
        <time>2026-09-02T15:23:20.000Z</time>
      </trkpt>
      <trkpt lat="48.12843" lon="6.86301">
        <ele>730.40002441406</ele>
        <time>2026-09-02T15:23:21.000Z</time>
      </trkpt>
      <trkpt lat="48.12844" lon="6.86299">
        <ele>730.40002441406</ele>
        <time>2026-09-02T15:23:22.000Z</time>
      </trkpt>
      <trkpt lat="48.12845" lon="6.86299">
        <ele>730.40002441406</ele>
        <time>2026-09-02T15:23:23.000Z</time>
      </trkpt>
      <trkpt lat="48.12846" lon="6.86298">
        <ele>730.40002441406</ele>
        <time>2026-09-02T15:23:24.000Z</time>
      </trkpt>
      <trkpt lat="48.12846" lon="6.86297">
        <ele>730.40002441406</ele>
        <time>2026-09-02T15:23:25.000Z</time>
      </trkpt>
      <trkpt lat="48.12847" lon="6.86296">
        <ele>730.40002441406</ele>
        <time>2026-09-02T15:23:26.000Z</time>
      </trkpt>
      <trkpt lat="48.12848" lon="6.86296">
        <ele>730.40002441406</ele>
        <time>2026-09-02T15:23:27.000Z</time>
      </trkpt>
      <trkpt lat="48.12849" lon="6.86295">
        <ele>730.40002441406</ele>
        <time>2026-09-02T15:23:28.000Z</time>
      </trkpt>
      <trkpt lat="48.12849" lon="6.86294">
        <ele>730.40002441406</ele>
        <time>2026-09-02T15:23:29.000Z</time>
      </trkpt>
      <trkpt lat="48.12851" lon="6.86293">
        <ele>730.40002441406</ele>
        <time>2026-09-02T15:23:30.000Z</time>
      </trkpt>
      <trkpt lat="48.12851" lon="6.86292">
        <ele>730.40002441406</ele>
        <time>2026-09-02T15:23:31.000Z</time>
      </trkpt>
      <trkpt lat="48.12852" lon="6.86291">
        <ele>730.40002441406</ele>
        <time>2026-09-02T15:23:32.000Z</time>
      </trkpt>
      <trkpt lat="48.12853" lon="6.86291">
        <ele>730.40002441406</ele>
        <time>2026-09-02T15:23:33.000Z</time>
      </trkpt>
      <trkpt lat="48.12853" lon="6.8629">
        <ele>730.40002441406</ele>
        <time>2026-09-02T15:23:34.000Z</time>
      </trkpt>
      <trkpt lat="48.12854" lon="6.86289">
        <ele>730.40002441406</ele>
        <time>2026-09-02T15:23:35.000Z</time>
      </trkpt>
      <trkpt lat="48.12855" lon="6.86287">
        <ele>730.19995117188</ele>
        <time>2026-09-02T15:23:36.000Z</time>
      </trkpt>
      <trkpt lat="48.12856" lon="6.86286">
        <ele>730.19995117188</ele>
        <time>2026-09-02T15:23:37.000Z</time>
      </trkpt>
      <trkpt lat="48.12856" lon="6.86284">
        <ele>730</ele>
        <time>2026-09-02T15:23:38.000Z</time>
      </trkpt>
      <trkpt lat="48.12857" lon="6.86283">
        <ele>730</ele>
        <time>2026-09-02T15:23:39.000Z</time>
      </trkpt>
      <trkpt lat="48.12857" lon="6.86283">
        <ele>730</ele>
        <time>2026-09-02T15:23:40.000Z</time>
      </trkpt>
      <trkpt lat="48.12858" lon="6.86282">
        <ele>730</ele>
        <time>2026-09-02T15:23:41.000Z</time>
      </trkpt>
      <trkpt lat="48.12859" lon="6.86281">
        <ele>730</ele>
        <time>2026-09-02T15:23:42.000Z</time>
      </trkpt>
      <trkpt lat="48.12859" lon="6.8628">
        <ele>730</ele>
        <time>2026-09-02T15:23:43.000Z</time>
      </trkpt>
      <trkpt lat="48.1286" lon="6.86279">
        <ele>730</ele>
        <time>2026-09-02T15:23:44.000Z</time>
      </trkpt>
      <trkpt lat="48.1286" lon="6.86279">
        <ele>730</ele>
        <time>2026-09-02T15:23:45.000Z</time>
      </trkpt>
      <trkpt lat="48.12861" lon="6.86278">
        <ele>730</ele>
        <time>2026-09-02T15:23:46.000Z</time>
      </trkpt>
      <trkpt lat="48.12862" lon="6.86277">
        <ele>730</ele>
        <time>2026-09-02T15:23:47.000Z</time>
      </trkpt>
      <trkpt lat="48.12862" lon="6.86275">
        <ele>729.80004882812</ele>
        <time>2026-09-02T15:23:48.000Z</time>
      </trkpt>
      <trkpt lat="48.12863" lon="6.86274">
        <ele>730</ele>
        <time>2026-09-02T15:23:49.000Z</time>
      </trkpt>
      <trkpt lat="48.12863" lon="6.86274">
        <ele>730</ele>
        <time>2026-09-02T15:23:50.000Z</time>
      </trkpt>
      <trkpt lat="48.12864" lon="6.86272">
        <ele>730</ele>
        <time>2026-09-02T15:23:51.000Z</time>
      </trkpt>
      <trkpt lat="48.12865" lon="6.86271">
        <ele>730</ele>
        <time>2026-09-02T15:23:52.000Z</time>
      </trkpt>
      <trkpt lat="48.12865" lon="6.8627">
        <ele>730</ele>
        <time>2026-09-02T15:23:53.000Z</time>
      </trkpt>
      <trkpt lat="48.12866" lon="6.8627">
        <ele>730</ele>
        <time>2026-09-02T15:23:54.000Z</time>
      </trkpt>
      <trkpt lat="48.12866" lon="6.8627">
        <ele>730</ele>
        <time>2026-09-02T15:23:55.000Z</time>
      </trkpt>
      <trkpt lat="48.12867" lon="6.86269">
        <ele>730</ele>
        <time>2026-09-02T15:23:56.000Z</time>
      </trkpt>
      <trkpt lat="48.12868" lon="6.86268">
        <ele>730</ele>
        <time>2026-09-02T15:23:57.000Z</time>
      </trkpt>
      <trkpt lat="48.12869" lon="6.86268">
        <ele>730</ele>
        <time>2026-09-02T15:23:58.000Z</time>
      </trkpt>
      <trkpt lat="48.12869" lon="6.86267">
        <ele>730</ele>
        <time>2026-09-02T15:23:59.000Z</time>
      </trkpt>
      <trkpt lat="48.1287" lon="6.86266">
        <ele>730</ele>
        <time>2026-09-02T15:24:00.000Z</time>
      </trkpt>
      <trkpt lat="48.1287" lon="6.86265">
        <ele>729.80004882812</ele>
        <time>2026-09-02T15:24:01.000Z</time>
      </trkpt>
      <trkpt lat="48.12871" lon="6.86264">
        <ele>729.80004882812</ele>
        <time>2026-09-02T15:24:02.000Z</time>
      </trkpt>
      <trkpt lat="48.12872" lon="6.86263">
        <ele>729.80004882812</ele>
        <time>2026-09-02T15:24:03.000Z</time>
      </trkpt>
      <trkpt lat="48.12873" lon="6.86262">
        <ele>729.80004882812</ele>
        <time>2026-09-02T15:24:04.000Z</time>
      </trkpt>
      <trkpt lat="48.12874" lon="6.86261">
        <ele>729.80004882812</ele>
        <time>2026-09-02T15:24:05.000Z</time>
      </trkpt>
      <trkpt lat="48.12875" lon="6.86259">
        <ele>729.80004882812</ele>
        <time>2026-09-02T15:24:06.000Z</time>
      </trkpt>
      <trkpt lat="48.12875" lon="6.86258">
        <ele>729.80004882812</ele>
        <time>2026-09-02T15:24:07.000Z</time>
      </trkpt>
      <trkpt lat="48.12875" lon="6.86257">
        <ele>729.80004882812</ele>
        <time>2026-09-02T15:24:08.000Z</time>
      </trkpt>
      <trkpt lat="48.12876" lon="6.86256">
        <ele>729.80004882812</ele>
        <time>2026-09-02T15:24:09.000Z</time>
      </trkpt>
      <trkpt lat="48.12877" lon="6.86255">
        <ele>729.80004882812</ele>
        <time>2026-09-02T15:24:10.000Z</time>
      </trkpt>
      <trkpt lat="48.12878" lon="6.86254">
        <ele>729.80004882812</ele>
        <time>2026-09-02T15:24:11.000Z</time>
      </trkpt>
      <trkpt lat="48.12879" lon="6.86253">
        <ele>729.80004882812</ele>
        <time>2026-09-02T15:24:12.000Z</time>
      </trkpt>
      <trkpt lat="48.12879" lon="6.86252">
        <ele>729.59997558594</ele>
        <time>2026-09-02T15:24:13.000Z</time>
      </trkpt>
      <trkpt lat="48.1288" lon="6.86252">
        <ele>729.59997558594</ele>
        <time>2026-09-02T15:24:14.000Z</time>
      </trkpt>
      <trkpt lat="48.1288" lon="6.8625">
        <ele>729.59997558594</ele>
        <time>2026-09-02T15:24:15.000Z</time>
      </trkpt>
      <trkpt lat="48.12882" lon="6.86249">
        <ele>729.59997558594</ele>
        <time>2026-09-02T15:24:16.000Z</time>
      </trkpt>
      <trkpt lat="48.12882" lon="6.86248">
        <ele>729.40002441406</ele>
        <time>2026-09-02T15:24:17.000Z</time>
      </trkpt>
      <trkpt lat="48.12883" lon="6.86247">
        <ele>729.40002441406</ele>
        <time>2026-09-02T15:24:18.000Z</time>
      </trkpt>
      <trkpt lat="48.12884" lon="6.86246">
        <ele>729.59997558594</ele>
        <time>2026-09-02T15:24:19.000Z</time>
      </trkpt>
      <trkpt lat="48.12885" lon="6.86245">
        <ele>729.59997558594</ele>
        <time>2026-09-02T15:24:20.000Z</time>
      </trkpt>
      <trkpt lat="48.12886" lon="6.86244">
        <ele>729.59997558594</ele>
        <time>2026-09-02T15:24:21.000Z</time>
      </trkpt>
      <trkpt lat="48.12887" lon="6.86242">
        <ele>729.59997558594</ele>
        <time>2026-09-02T15:24:22.000Z</time>
      </trkpt>
      <trkpt lat="48.12887" lon="6.86241">
        <ele>729.59997558594</ele>
        <time>2026-09-02T15:24:23.000Z</time>
      </trkpt>
      <trkpt lat="48.12888" lon="6.86241">
        <ele>729.59997558594</ele>
        <time>2026-09-02T15:24:24.000Z</time>
      </trkpt>
      <trkpt lat="48.12888" lon="6.8624">
        <ele>729.59997558594</ele>
        <time>2026-09-02T15:24:25.000Z</time>
      </trkpt>
      <trkpt lat="48.1289" lon="6.86239">
        <ele>729.40002441406</ele>
        <time>2026-09-02T15:24:26.000Z</time>
      </trkpt>
      <trkpt lat="48.1289" lon="6.86238">
        <ele>729.40002441406</ele>
        <time>2026-09-02T15:24:27.000Z</time>
      </trkpt>
      <trkpt lat="48.12891" lon="6.86238">
        <ele>729.40002441406</ele>
        <time>2026-09-02T15:24:28.000Z</time>
      </trkpt>
      <trkpt lat="48.12892" lon="6.86237">
        <ele>729.40002441406</ele>
        <time>2026-09-02T15:24:29.000Z</time>
      </trkpt>
      <trkpt lat="48.12893" lon="6.86236">
        <ele>729.40002441406</ele>
        <time>2026-09-02T15:24:30.000Z</time>
      </trkpt>
      <trkpt lat="48.12893" lon="6.86234">
        <ele>729.59997558594</ele>
        <time>2026-09-02T15:24:31.000Z</time>
      </trkpt>
      <trkpt lat="48.12894" lon="6.86233">
        <ele>729.40002441406</ele>
        <time>2026-09-02T15:24:32.000Z</time>
      </trkpt>
      <trkpt lat="48.12895" lon="6.86232">
        <ele>729.59997558594</ele>
        <time>2026-09-02T15:24:33.000Z</time>
      </trkpt>
      <trkpt lat="48.12896" lon="6.86231">
        <ele>729.59997558594</ele>
        <time>2026-09-02T15:24:34.000Z</time>
      </trkpt>
      <trkpt lat="48.12897" lon="6.8623">
        <ele>729.59997558594</ele>
        <time>2026-09-02T15:24:35.000Z</time>
      </trkpt>
      <trkpt lat="48.12898" lon="6.86229">
        <ele>729.59997558594</ele>
        <time>2026-09-02T15:24:36.000Z</time>
      </trkpt>
      <trkpt lat="48.12898" lon="6.86228">
        <ele>729.80004882812</ele>
        <time>2026-09-02T15:24:37.000Z</time>
      </trkpt>
      <trkpt lat="48.12899" lon="6.86227">
        <ele>729.80004882812</ele>
        <time>2026-09-02T15:24:38.000Z</time>
      </trkpt>
      <trkpt lat="48.12899" lon="6.86226">
        <ele>729.80004882812</ele>
        <time>2026-09-02T15:24:39.000Z</time>
      </trkpt>
      <trkpt lat="48.129" lon="6.86225">
        <ele>729.80004882812</ele>
        <time>2026-09-02T15:24:40.000Z</time>
      </trkpt>
      <trkpt lat="48.12901" lon="6.86224">
        <ele>729.80004882812</ele>
        <time>2026-09-02T15:24:41.000Z</time>
      </trkpt>
      <trkpt lat="48.12901" lon="6.86223">
        <ele>729.80004882812</ele>
        <time>2026-09-02T15:24:42.000Z</time>
      </trkpt>
      <trkpt lat="48.12902" lon="6.86222">
        <ele>729.80004882812</ele>
        <time>2026-09-02T15:24:43.000Z</time>
      </trkpt>
      <trkpt lat="48.12902" lon="6.86221">
        <ele>729.80004882812</ele>
        <time>2026-09-02T15:24:44.000Z</time>
      </trkpt>
      <trkpt lat="48.12903" lon="6.86221">
        <ele>730</ele>
        <time>2026-09-02T15:24:45.000Z</time>
      </trkpt>
      <trkpt lat="48.12903" lon="6.86221">
        <ele>730</ele>
        <time>2026-09-02T15:24:46.000Z</time>
      </trkpt>
      <trkpt lat="48.12903" lon="6.86221">
        <ele>730</ele>
        <time>2026-09-02T15:24:47.000Z</time>
      </trkpt>
      <trkpt lat="48.12903" lon="6.86221">
        <ele>730</ele>
        <time>2026-09-02T15:24:48.000Z</time>
      </trkpt>
      <trkpt lat="48.12902" lon="6.8622">
        <ele>730</ele>
        <time>2026-09-02T15:24:49.000Z</time>
      </trkpt>
      <trkpt lat="48.12903" lon="6.8622">
        <ele>730</ele>
        <time>2026-09-02T15:24:50.000Z</time>
      </trkpt>
      <trkpt lat="48.12903" lon="6.86219">
        <ele>730</ele>
        <time>2026-09-02T15:24:51.000Z</time>
      </trkpt>
      <trkpt lat="48.12904" lon="6.86218">
        <ele>730</ele>
        <time>2026-09-02T15:24:52.000Z</time>
      </trkpt>
      <trkpt lat="48.12905" lon="6.86217">
        <ele>730</ele>
        <time>2026-09-02T15:24:53.000Z</time>
      </trkpt>
      <trkpt lat="48.12905" lon="6.86215">
        <ele>730</ele>
        <time>2026-09-02T15:24:54.000Z</time>
      </trkpt>
      <trkpt lat="48.12906" lon="6.86215">
        <ele>730</ele>
        <time>2026-09-02T15:24:55.000Z</time>
      </trkpt>
      <trkpt lat="48.12906" lon="6.86215">
        <ele>730</ele>
        <time>2026-09-02T15:24:56.000Z</time>
      </trkpt>
      <trkpt lat="48.12907" lon="6.86213">
        <ele>730</ele>
        <time>2026-09-02T15:24:57.000Z</time>
      </trkpt>
      <trkpt lat="48.12908" lon="6.86213">
        <ele>730</ele>
        <time>2026-09-02T15:24:58.000Z</time>
      </trkpt>
      <trkpt lat="48.12909" lon="6.86212">
        <ele>730</ele>
        <time>2026-09-02T15:24:59.000Z</time>
      </trkpt>
      <trkpt lat="48.12909" lon="6.86211">
        <ele>730</ele>
        <time>2026-09-02T15:25:00.000Z</time>
      </trkpt>
      <trkpt lat="48.1291" lon="6.8621">
        <ele>730</ele>
        <time>2026-09-02T15:25:01.000Z</time>
      </trkpt>
      <trkpt lat="48.12911" lon="6.86209">
        <ele>730</ele>
        <time>2026-09-02T15:25:02.000Z</time>
      </trkpt>
      <trkpt lat="48.12911" lon="6.86209">
        <ele>730</ele>
        <time>2026-09-02T15:25:03.000Z</time>
      </trkpt>
      <trkpt lat="48.12912" lon="6.86208">
        <ele>730</ele>
        <time>2026-09-02T15:25:04.000Z</time>
      </trkpt>
      <trkpt lat="48.12913" lon="6.86207">
        <ele>730</ele>
        <time>2026-09-02T15:25:05.000Z</time>
      </trkpt>
      <trkpt lat="48.12914" lon="6.86206">
        <ele>730</ele>
        <time>2026-09-02T15:25:06.000Z</time>
      </trkpt>
      <trkpt lat="48.12914" lon="6.86205">
        <ele>730.19995117188</ele>
        <time>2026-09-02T15:25:07.000Z</time>
      </trkpt>
      <trkpt lat="48.12914" lon="6.86204">
        <ele>730.19995117188</ele>
        <time>2026-09-02T15:25:08.000Z</time>
      </trkpt>
      <trkpt lat="48.12915" lon="6.86203">
        <ele>730.19995117188</ele>
        <time>2026-09-02T15:25:09.000Z</time>
      </trkpt>
      <trkpt lat="48.12915" lon="6.86202">
        <ele>730.40002441406</ele>
        <time>2026-09-02T15:25:10.000Z</time>
      </trkpt>
      <trkpt lat="48.12916" lon="6.86201">
        <ele>730.40002441406</ele>
        <time>2026-09-02T15:25:11.000Z</time>
      </trkpt>
      <trkpt lat="48.12916" lon="6.86201">
        <ele>730.19995117188</ele>
        <time>2026-09-02T15:25:12.000Z</time>
      </trkpt>
      <trkpt lat="48.12916" lon="6.86201">
        <ele>730.19995117188</ele>
        <time>2026-09-02T15:25:13.000Z</time>
      </trkpt>
      <trkpt lat="48.12915" lon="6.86201">
        <ele>730.19995117188</ele>
        <time>2026-09-02T15:25:14.000Z</time>
      </trkpt>
      <trkpt lat="48.12915" lon="6.862">
        <ele>730.19995117188</ele>
        <time>2026-09-02T15:25:15.000Z</time>
      </trkpt>
      <trkpt lat="48.12916" lon="6.86199">
        <ele>730.19995117188</ele>
        <time>2026-09-02T15:25:16.000Z</time>
      </trkpt>
      <trkpt lat="48.12916" lon="6.862">
        <ele>730.19995117188</ele>
        <time>2026-09-02T15:25:17.000Z</time>
      </trkpt>
      <trkpt lat="48.12915" lon="6.862">
        <ele>730.19995117188</ele>
        <time>2026-09-02T15:25:18.000Z</time>
      </trkpt>
      <trkpt lat="48.12916" lon="6.86199">
        <ele>730.40002441406</ele>
        <time>2026-09-02T15:25:19.000Z</time>
      </trkpt>
      <trkpt lat="48.12916" lon="6.86199">
        <ele>730.40002441406</ele>
        <time>2026-09-02T15:25:20.000Z</time>
      </trkpt>
      <trkpt lat="48.12916" lon="6.86197">
        <ele>730.40002441406</ele>
        <time>2026-09-02T15:25:21.000Z</time>
      </trkpt>
      <trkpt lat="48.12917" lon="6.86195">
        <ele>730.40002441406</ele>
        <time>2026-09-02T15:25:22.000Z</time>
      </trkpt>
      <trkpt lat="48.12918" lon="6.86193">
        <ele>730.40002441406</ele>
        <time>2026-09-02T15:25:23.000Z</time>
      </trkpt>
      <trkpt lat="48.12919" lon="6.86192">
        <ele>730.40002441406</ele>
        <time>2026-09-02T15:25:24.000Z</time>
      </trkpt>
      <trkpt lat="48.1292" lon="6.8619">
        <ele>730.40002441406</ele>
        <time>2026-09-02T15:25:25.000Z</time>
      </trkpt>
      <trkpt lat="48.1292" lon="6.86189">
        <ele>730.59997558594</ele>
        <time>2026-09-02T15:25:26.000Z</time>
      </trkpt>
      <trkpt lat="48.12921" lon="6.86189">
        <ele>730.59997558594</ele>
        <time>2026-09-02T15:25:27.000Z</time>
      </trkpt>
      <trkpt lat="48.12922" lon="6.86187">
        <ele>730.80004882812</ele>
        <time>2026-09-02T15:25:28.000Z</time>
      </trkpt>
      <trkpt lat="48.12923" lon="6.86186">
        <ele>730.80004882812</ele>
        <time>2026-09-02T15:25:29.000Z</time>
      </trkpt>
      <trkpt lat="48.12923" lon="6.86185">
        <ele>730.80004882812</ele>
        <time>2026-09-02T15:25:30.000Z</time>
      </trkpt>
      <trkpt lat="48.12924" lon="6.86184">
        <ele>730.80004882812</ele>
        <time>2026-09-02T15:25:31.000Z</time>
      </trkpt>
      <trkpt lat="48.12925" lon="6.86183">
        <ele>730.80004882812</ele>
        <time>2026-09-02T15:25:32.000Z</time>
      </trkpt>
      <trkpt lat="48.12926" lon="6.86182">
        <ele>730.80004882812</ele>
        <time>2026-09-02T15:25:33.000Z</time>
      </trkpt>
      <trkpt lat="48.12926" lon="6.86181">
        <ele>730.80004882812</ele>
        <time>2026-09-02T15:25:34.000Z</time>
      </trkpt>
      <trkpt lat="48.12927" lon="6.86181">
        <ele>730.80004882812</ele>
        <time>2026-09-02T15:25:35.000Z</time>
      </trkpt>
      <trkpt lat="48.12927" lon="6.86181">
        <ele>730.80004882812</ele>
        <time>2026-09-02T15:25:36.000Z</time>
      </trkpt>
      <trkpt lat="48.12927" lon="6.8618">
        <ele>730.80004882812</ele>
        <time>2026-09-02T15:25:37.000Z</time>
      </trkpt>
      <trkpt lat="48.12926" lon="6.86181">
        <ele>730.59997558594</ele>
        <time>2026-09-02T15:25:38.000Z</time>
      </trkpt>
      <trkpt lat="48.12927" lon="6.86182">
        <ele>730.59997558594</ele>
        <time>2026-09-02T15:25:39.000Z</time>
      </trkpt>
      <trkpt lat="48.12928" lon="6.86181">
        <ele>730.59997558594</ele>
        <time>2026-09-02T15:25:40.000Z</time>
      </trkpt>
      <trkpt lat="48.12928" lon="6.86181">
        <ele>730.80004882812</ele>
        <time>2026-09-02T15:25:41.000Z</time>
      </trkpt>
      <trkpt lat="48.12928" lon="6.86181">
        <ele>730.80004882812</ele>
        <time>2026-09-02T15:25:42.000Z</time>
      </trkpt>
      <trkpt lat="48.12928" lon="6.86181">
        <ele>730.59997558594</ele>
        <time>2026-09-02T15:25:43.000Z</time>
      </trkpt>
      <trkpt lat="48.12928" lon="6.86181">
        <ele>730.59997558594</ele>
        <time>2026-09-02T15:25:44.000Z</time>
      </trkpt>
      <trkpt lat="48.12928" lon="6.86181">
        <ele>730.40002441406</ele>
        <time>2026-09-02T15:25:45.000Z</time>
      </trkpt>
      <trkpt lat="48.12928" lon="6.86181">
        <ele>730</ele>
        <time>2026-09-02T15:25:46.000Z</time>
      </trkpt>
      <trkpt lat="48.12928" lon="6.86181">
        <ele>730</ele>
        <time>2026-09-02T15:25:47.000Z</time>
      </trkpt>
      <trkpt lat="48.12928" lon="6.86181">
        <ele>730</ele>
        <time>2026-09-02T15:25:48.000Z</time>
      </trkpt>
      <trkpt lat="48.12928" lon="6.86181">
        <ele>730</ele>
        <time>2026-09-02T15:25:49.000Z</time>
      </trkpt>
      <trkpt lat="48.12928" lon="6.86181">
        <ele>730</ele>
        <time>2026-09-02T15:25:50.000Z</time>
      </trkpt>
      <trkpt lat="48.12928" lon="6.86181">
        <ele>730.19995117188</ele>
        <time>2026-09-02T15:25:51.000Z</time>
      </trkpt>
      <trkpt lat="48.12928" lon="6.86181">
        <ele>730.19995117188</ele>
        <time>2026-09-02T15:25:52.000Z</time>
      </trkpt>
      <trkpt lat="48.12929" lon="6.86181">
        <ele>730.19995117188</ele>
        <time>2026-09-02T15:25:53.000Z</time>
      </trkpt>
      <trkpt lat="48.1293" lon="6.86181">
        <ele>730</ele>
        <time>2026-09-02T15:25:54.000Z</time>
      </trkpt>
      <trkpt lat="48.12932" lon="6.86181">
        <ele>730</ele>
        <time>2026-09-02T15:25:55.000Z</time>
      </trkpt>
      <trkpt lat="48.12932" lon="6.8618">
        <ele>730</ele>
        <time>2026-09-02T15:25:56.000Z</time>
      </trkpt>
      <trkpt lat="48.12933" lon="6.86179">
        <ele>730</ele>
        <time>2026-09-02T15:25:57.000Z</time>
      </trkpt>
      <trkpt lat="48.12933" lon="6.86179">
        <ele>730</ele>
        <time>2026-09-02T15:25:58.000Z</time>
      </trkpt>
      <trkpt lat="48.12934" lon="6.86177">
        <ele>730.19995117188</ele>
        <time>2026-09-02T15:25:59.000Z</time>
      </trkpt>
      <trkpt lat="48.12935" lon="6.86176">
        <ele>730.19995117188</ele>
        <time>2026-09-02T15:26:00.000Z</time>
      </trkpt>
      <trkpt lat="48.12935" lon="6.86175">
        <ele>730.19995117188</ele>
        <time>2026-09-02T15:26:01.000Z</time>
      </trkpt>
      <trkpt lat="48.12935" lon="6.86174">
        <ele>730.40002441406</ele>
        <time>2026-09-02T15:26:02.000Z</time>
      </trkpt>
      <trkpt lat="48.12936" lon="6.86172">
        <ele>730.40002441406</ele>
        <time>2026-09-02T15:26:03.000Z</time>
      </trkpt>
      <trkpt lat="48.12936" lon="6.86171">
        <ele>730.40002441406</ele>
        <time>2026-09-02T15:26:04.000Z</time>
      </trkpt>
      <trkpt lat="48.12936" lon="6.8617">
        <ele>730.40002441406</ele>
        <time>2026-09-02T15:26:05.000Z</time>
      </trkpt>
      <trkpt lat="48.12936" lon="6.86169">
        <ele>730.59997558594</ele>
        <time>2026-09-02T15:26:06.000Z</time>
      </trkpt>
      <trkpt lat="48.12936" lon="6.86168">
        <ele>730.40002441406</ele>
        <time>2026-09-02T15:26:07.000Z</time>
      </trkpt>
      <trkpt lat="48.12937" lon="6.86167">
        <ele>730.40002441406</ele>
        <time>2026-09-02T15:26:08.000Z</time>
      </trkpt>
      <trkpt lat="48.12937" lon="6.86166">
        <ele>730.19995117188</ele>
        <time>2026-09-02T15:26:09.000Z</time>
      </trkpt>
      <trkpt lat="48.12936" lon="6.86166">
        <ele>730.19995117188</ele>
        <time>2026-09-02T15:26:10.000Z</time>
      </trkpt>
      <trkpt lat="48.12936" lon="6.86165">
        <ele>730.19995117188</ele>
        <time>2026-09-02T15:26:11.000Z</time>
      </trkpt>
      <trkpt lat="48.12936" lon="6.86164">
        <ele>730.59997558594</ele>
        <time>2026-09-02T15:26:12.000Z</time>
      </trkpt>
      <trkpt lat="48.12936" lon="6.86163">
        <ele>731.19995117188</ele>
        <time>2026-09-02T15:26:13.000Z</time>
      </trkpt>
      <trkpt lat="48.12936" lon="6.86162">
        <ele>731.40002441406</ele>
        <time>2026-09-02T15:26:14.000Z</time>
      </trkpt>
      <trkpt lat="48.12936" lon="6.86159">
        <ele>731.40002441406</ele>
        <time>2026-09-02T15:26:15.000Z</time>
      </trkpt>
      <trkpt lat="48.12937" lon="6.86158">
        <ele>731.40002441406</ele>
        <time>2026-09-02T15:26:16.000Z</time>
      </trkpt>
      <trkpt lat="48.12937" lon="6.86157">
        <ele>731.19995117188</ele>
        <time>2026-09-02T15:26:17.000Z</time>
      </trkpt>
      <trkpt lat="48.12936" lon="6.86156">
        <ele>730.80004882812</ele>
        <time>2026-09-02T15:26:18.000Z</time>
      </trkpt>
      <trkpt lat="48.12936" lon="6.86154">
        <ele>730.59997558594</ele>
        <time>2026-09-02T15:26:19.000Z</time>
      </trkpt>
      <trkpt lat="48.12936" lon="6.86152">
        <ele>730.40002441406</ele>
        <time>2026-09-02T15:26:20.000Z</time>
      </trkpt>
      <trkpt lat="48.12936" lon="6.86151">
        <ele>730.40002441406</ele>
        <time>2026-09-02T15:26:21.000Z</time>
      </trkpt>
      <trkpt lat="48.12936" lon="6.8615">
        <ele>730.40002441406</ele>
        <time>2026-09-02T15:26:22.000Z</time>
      </trkpt>
      <trkpt lat="48.12936" lon="6.86149">
        <ele>730.59997558594</ele>
        <time>2026-09-02T15:26:23.000Z</time>
      </trkpt>
      <trkpt lat="48.12936" lon="6.86148">
        <ele>730.80004882812</ele>
        <time>2026-09-02T15:26:24.000Z</time>
      </trkpt>
      <trkpt lat="48.12935" lon="6.86147">
        <ele>731.19995117188</ele>
        <time>2026-09-02T15:26:25.000Z</time>
      </trkpt>
      <trkpt lat="48.12935" lon="6.86146">
        <ele>731.40002441406</ele>
        <time>2026-09-02T15:26:26.000Z</time>
      </trkpt>
      <trkpt lat="48.12935" lon="6.86145">
        <ele>731.59997558594</ele>
        <time>2026-09-02T15:26:27.000Z</time>
      </trkpt>
      <trkpt lat="48.12934" lon="6.86144">
        <ele>731.80004882812</ele>
        <time>2026-09-02T15:26:28.000Z</time>
      </trkpt>
      <trkpt lat="48.12934" lon="6.86143">
        <ele>731.80004882812</ele>
        <time>2026-09-02T15:26:29.000Z</time>
      </trkpt>
      <trkpt lat="48.12934" lon="6.86141">
        <ele>731.80004882812</ele>
        <time>2026-09-02T15:26:30.000Z</time>
      </trkpt>
      <trkpt lat="48.12933" lon="6.8614">
        <ele>731.59997558594</ele>
        <time>2026-09-02T15:26:31.000Z</time>
      </trkpt>
      <trkpt lat="48.12933" lon="6.86138">
        <ele>731.59997558594</ele>
        <time>2026-09-02T15:26:32.000Z</time>
      </trkpt>
      <trkpt lat="48.12932" lon="6.86136">
        <ele>731.59997558594</ele>
        <time>2026-09-02T15:26:33.000Z</time>
      </trkpt>
      <trkpt lat="48.12932" lon="6.86134">
        <ele>731.59997558594</ele>
        <time>2026-09-02T15:26:34.000Z</time>
      </trkpt>
      <trkpt lat="48.12932" lon="6.86133">
        <ele>731.59997558594</ele>
        <time>2026-09-02T15:26:35.000Z</time>
      </trkpt>
      <trkpt lat="48.12931" lon="6.86132">
        <ele>731.80004882812</ele>
        <time>2026-09-02T15:26:36.000Z</time>
      </trkpt>
      <trkpt lat="48.12931" lon="6.8613">
        <ele>731.80004882812</ele>
        <time>2026-09-02T15:26:37.000Z</time>
      </trkpt>
      <trkpt lat="48.1293" lon="6.86128">
        <ele>731.80004882812</ele>
        <time>2026-09-02T15:26:38.000Z</time>
      </trkpt>
      <trkpt lat="48.1293" lon="6.86127">
        <ele>731.80004882812</ele>
        <time>2026-09-02T15:26:39.000Z</time>
      </trkpt>
      <trkpt lat="48.12931" lon="6.86126">
        <ele>731.80004882812</ele>
        <time>2026-09-02T15:26:40.000Z</time>
      </trkpt>
      <trkpt lat="48.1293" lon="6.86124">
        <ele>731.59997558594</ele>
        <time>2026-09-02T15:26:41.000Z</time>
      </trkpt>
      <trkpt lat="48.1293" lon="6.86122">
        <ele>731.59997558594</ele>
        <time>2026-09-02T15:26:42.000Z</time>
      </trkpt>
      <trkpt lat="48.12929" lon="6.8612">
        <ele>731.40002441406</ele>
        <time>2026-09-02T15:26:43.000Z</time>
      </trkpt>
      <trkpt lat="48.12928" lon="6.86119">
        <ele>731.40002441406</ele>
        <time>2026-09-02T15:26:44.000Z</time>
      </trkpt>
      <trkpt lat="48.12928" lon="6.86118">
        <ele>731.59997558594</ele>
        <time>2026-09-02T15:26:45.000Z</time>
      </trkpt>
      <trkpt lat="48.12928" lon="6.86117">
        <ele>731.59997558594</ele>
        <time>2026-09-02T15:26:46.000Z</time>
      </trkpt>
      <trkpt lat="48.12927" lon="6.86115">
        <ele>731.59997558594</ele>
        <time>2026-09-02T15:26:47.000Z</time>
      </trkpt>
      <trkpt lat="48.12927" lon="6.86114">
        <ele>731.59997558594</ele>
        <time>2026-09-02T15:26:48.000Z</time>
      </trkpt>
      <trkpt lat="48.12926" lon="6.86112">
        <ele>731.59997558594</ele>
        <time>2026-09-02T15:26:49.000Z</time>
      </trkpt>
      <trkpt lat="48.12925" lon="6.8611">
        <ele>731.59997558594</ele>
        <time>2026-09-02T15:26:50.000Z</time>
      </trkpt>
      <trkpt lat="48.12925" lon="6.86109">
        <ele>731.59997558594</ele>
        <time>2026-09-02T15:26:51.000Z</time>
      </trkpt>
      <trkpt lat="48.12925" lon="6.86107">
        <ele>731.59997558594</ele>
        <time>2026-09-02T15:26:52.000Z</time>
      </trkpt>
      <trkpt lat="48.12924" lon="6.86106">
        <ele>731.59997558594</ele>
        <time>2026-09-02T15:26:53.000Z</time>
      </trkpt>
      <trkpt lat="48.12924" lon="6.86104">
        <ele>731.59997558594</ele>
        <time>2026-09-02T15:26:54.000Z</time>
      </trkpt>
      <trkpt lat="48.12924" lon="6.86103">
        <ele>731.59997558594</ele>
        <time>2026-09-02T15:26:55.000Z</time>
      </trkpt>
      <trkpt lat="48.12923" lon="6.86101">
        <ele>731.40002441406</ele>
        <time>2026-09-02T15:26:56.000Z</time>
      </trkpt>
      <trkpt lat="48.12922" lon="6.86101">
        <ele>731.40002441406</ele>
        <time>2026-09-02T15:26:57.000Z</time>
      </trkpt>
      <trkpt lat="48.12922" lon="6.861">
        <ele>731.59997558594</ele>
        <time>2026-09-02T15:26:58.000Z</time>
      </trkpt>
      <trkpt lat="48.12921" lon="6.86099">
        <ele>731.59997558594</ele>
        <time>2026-09-02T15:26:59.000Z</time>
      </trkpt>
      <trkpt lat="48.12921" lon="6.86098">
        <ele>731.59997558594</ele>
        <time>2026-09-02T15:27:00.000Z</time>
      </trkpt>
      <trkpt lat="48.1292" lon="6.86096">
        <ele>731.59997558594</ele>
        <time>2026-09-02T15:27:01.000Z</time>
      </trkpt>
      <trkpt lat="48.1292" lon="6.86096">
        <ele>731.40002441406</ele>
        <time>2026-09-02T15:27:02.000Z</time>
      </trkpt>
      <trkpt lat="48.1292" lon="6.86095">
        <ele>731.40002441406</ele>
        <time>2026-09-02T15:27:03.000Z</time>
      </trkpt>
      <trkpt lat="48.12919" lon="6.86093">
        <ele>731.40002441406</ele>
        <time>2026-09-02T15:27:04.000Z</time>
      </trkpt>
      <trkpt lat="48.12919" lon="6.86092">
        <ele>731.40002441406</ele>
        <time>2026-09-02T15:27:05.000Z</time>
      </trkpt>
      <trkpt lat="48.12918" lon="6.86091">
        <ele>731.40002441406</ele>
        <time>2026-09-02T15:27:06.000Z</time>
      </trkpt>
      <trkpt lat="48.12918" lon="6.8609">
        <ele>731.19995117188</ele>
        <time>2026-09-02T15:27:07.000Z</time>
      </trkpt>
      <trkpt lat="48.12917" lon="6.86088">
        <ele>731.19995117188</ele>
        <time>2026-09-02T15:27:08.000Z</time>
      </trkpt>
      <trkpt lat="48.12917" lon="6.86087">
        <ele>731.19995117188</ele>
        <time>2026-09-02T15:27:09.000Z</time>
      </trkpt>
      <trkpt lat="48.12917" lon="6.86085">
        <ele>731</ele>
        <time>2026-09-02T15:27:10.000Z</time>
      </trkpt>
      <trkpt lat="48.12917" lon="6.86083">
        <ele>731</ele>
        <time>2026-09-02T15:27:11.000Z</time>
      </trkpt>
      <trkpt lat="48.12917" lon="6.86083">
        <ele>731</ele>
        <time>2026-09-02T15:27:12.000Z</time>
      </trkpt>
      <trkpt lat="48.12917" lon="6.86081">
        <ele>730.80004882812</ele>
        <time>2026-09-02T15:27:13.000Z</time>
      </trkpt>
      <trkpt lat="48.12916" lon="6.8608">
        <ele>730.80004882812</ele>
        <time>2026-09-02T15:27:14.000Z</time>
      </trkpt>
      <trkpt lat="48.12916" lon="6.86078">
        <ele>730.80004882812</ele>
        <time>2026-09-02T15:27:15.000Z</time>
      </trkpt>
      <trkpt lat="48.12915" lon="6.86076">
        <ele>730.59997558594</ele>
        <time>2026-09-02T15:27:16.000Z</time>
      </trkpt>
      <trkpt lat="48.12915" lon="6.86074">
        <ele>730.59997558594</ele>
        <time>2026-09-02T15:27:17.000Z</time>
      </trkpt>
      <trkpt lat="48.12914" lon="6.86073">
        <ele>730.59997558594</ele>
        <time>2026-09-02T15:27:18.000Z</time>
      </trkpt>
      <trkpt lat="48.12915" lon="6.86073">
        <ele>730.59997558594</ele>
        <time>2026-09-02T15:27:19.000Z</time>
      </trkpt>
      <trkpt lat="48.12915" lon="6.86072">
        <ele>730.40002441406</ele>
        <time>2026-09-02T15:27:20.000Z</time>
      </trkpt>
      <trkpt lat="48.12914" lon="6.86071">
        <ele>730.40002441406</ele>
        <time>2026-09-02T15:27:21.000Z</time>
      </trkpt>
      <trkpt lat="48.12914" lon="6.86069">
        <ele>730.40002441406</ele>
        <time>2026-09-02T15:27:22.000Z</time>
      </trkpt>
      <trkpt lat="48.12914" lon="6.86067">
        <ele>730.19995117188</ele>
        <time>2026-09-02T15:27:23.000Z</time>
      </trkpt>
      <trkpt lat="48.12914" lon="6.86066">
        <ele>730.19995117188</ele>
        <time>2026-09-02T15:27:24.000Z</time>
      </trkpt>
      <trkpt lat="48.12914" lon="6.86065">
        <ele>730.19995117188</ele>
        <time>2026-09-02T15:27:25.000Z</time>
      </trkpt>
      <trkpt lat="48.12913" lon="6.86063">
        <ele>730</ele>
        <time>2026-09-02T15:27:26.000Z</time>
      </trkpt>
      <trkpt lat="48.12913" lon="6.86062">
        <ele>730</ele>
        <time>2026-09-02T15:27:27.000Z</time>
      </trkpt>
      <trkpt lat="48.12913" lon="6.8606">
        <ele>729.59997558594</ele>
        <time>2026-09-02T15:27:28.000Z</time>
      </trkpt>
      <trkpt lat="48.12913" lon="6.86059">
        <ele>729.40002441406</ele>
        <time>2026-09-02T15:27:29.000Z</time>
      </trkpt>
      <trkpt lat="48.12913" lon="6.86058">
        <ele>729.19995117188</ele>
        <time>2026-09-02T15:27:30.000Z</time>
      </trkpt>
      <trkpt lat="48.12913" lon="6.86056">
        <ele>729</ele>
        <time>2026-09-02T15:27:31.000Z</time>
      </trkpt>
      <trkpt lat="48.12913" lon="6.86055">
        <ele>729</ele>
        <time>2026-09-02T15:27:32.000Z</time>
      </trkpt>
      <trkpt lat="48.12913" lon="6.86053">
        <ele>728.80004882812</ele>
        <time>2026-09-02T15:27:33.000Z</time>
      </trkpt>
      <trkpt lat="48.12913" lon="6.86051">
        <ele>728.80004882812</ele>
        <time>2026-09-02T15:27:34.000Z</time>
      </trkpt>
      <trkpt lat="48.12912" lon="6.8605">
        <ele>728.80004882812</ele>
        <time>2026-09-02T15:27:35.000Z</time>
      </trkpt>
      <trkpt lat="48.12912" lon="6.86048">
        <ele>728.80004882812</ele>
        <time>2026-09-02T15:27:36.000Z</time>
      </trkpt>
      <trkpt lat="48.12912" lon="6.86047">
        <ele>728.80004882812</ele>
        <time>2026-09-02T15:27:37.000Z</time>
      </trkpt>
      <trkpt lat="48.12911" lon="6.86046">
        <ele>728.80004882812</ele>
        <time>2026-09-02T15:27:38.000Z</time>
      </trkpt>
      <trkpt lat="48.12911" lon="6.86045">
        <ele>728.59997558594</ele>
        <time>2026-09-02T15:27:39.000Z</time>
      </trkpt>
      <trkpt lat="48.12911" lon="6.86044">
        <ele>728.59997558594</ele>
        <time>2026-09-02T15:27:40.000Z</time>
      </trkpt>
      <trkpt lat="48.12911" lon="6.86043">
        <ele>728.59997558594</ele>
        <time>2026-09-02T15:27:41.000Z</time>
      </trkpt>
      <trkpt lat="48.1291" lon="6.86042">
        <ele>728.40002441406</ele>
        <time>2026-09-02T15:27:42.000Z</time>
      </trkpt>
      <trkpt lat="48.1291" lon="6.86041">
        <ele>728.40002441406</ele>
        <time>2026-09-02T15:27:43.000Z</time>
      </trkpt>
      <trkpt lat="48.1291" lon="6.86039">
        <ele>728.40002441406</ele>
        <time>2026-09-02T15:27:44.000Z</time>
      </trkpt>
      <trkpt lat="48.12909" lon="6.86037">
        <ele>728.19995117188</ele>
        <time>2026-09-02T15:27:45.000Z</time>
      </trkpt>
      <trkpt lat="48.12909" lon="6.86035">
        <ele>728.19995117188</ele>
        <time>2026-09-02T15:27:46.000Z</time>
      </trkpt>
      <trkpt lat="48.12909" lon="6.86034">
        <ele>728.19995117188</ele>
        <time>2026-09-02T15:27:47.000Z</time>
      </trkpt>
      <trkpt lat="48.12909" lon="6.86033">
        <ele>728.19995117188</ele>
        <time>2026-09-02T15:27:48.000Z</time>
      </trkpt>
      <trkpt lat="48.12908" lon="6.86031">
        <ele>728.19995117188</ele>
        <time>2026-09-02T15:27:49.000Z</time>
      </trkpt>
      <trkpt lat="48.12908" lon="6.86029">
        <ele>728.19995117188</ele>
        <time>2026-09-02T15:27:50.000Z</time>
      </trkpt>
      <trkpt lat="48.12907" lon="6.86027">
        <ele>728</ele>
        <time>2026-09-02T15:27:51.000Z</time>
      </trkpt>
      <trkpt lat="48.12907" lon="6.86026">
        <ele>728</ele>
        <time>2026-09-02T15:27:52.000Z</time>
      </trkpt>
      <trkpt lat="48.12907" lon="6.86024">
        <ele>727.80004882812</ele>
        <time>2026-09-02T15:27:53.000Z</time>
      </trkpt>
      <trkpt lat="48.12907" lon="6.86023">
        <ele>727.80004882812</ele>
        <time>2026-09-02T15:27:54.000Z</time>
      </trkpt>
      <trkpt lat="48.12906" lon="6.86022">
        <ele>727.59997558594</ele>
        <time>2026-09-02T15:27:55.000Z</time>
      </trkpt>
      <trkpt lat="48.12906" lon="6.86021">
        <ele>727.59997558594</ele>
        <time>2026-09-02T15:27:56.000Z</time>
      </trkpt>
      <trkpt lat="48.12906" lon="6.8602">
        <ele>727.59997558594</ele>
        <time>2026-09-02T15:27:57.000Z</time>
      </trkpt>
      <trkpt lat="48.12906" lon="6.86019">
        <ele>727.40002441406</ele>
        <time>2026-09-02T15:27:58.000Z</time>
      </trkpt>
      <trkpt lat="48.12906" lon="6.86018">
        <ele>727.40002441406</ele>
        <time>2026-09-02T15:27:59.000Z</time>
      </trkpt>
      <trkpt lat="48.12905" lon="6.86017">
        <ele>727.40002441406</ele>
        <time>2026-09-02T15:28:00.000Z</time>
      </trkpt>
      <trkpt lat="48.12905" lon="6.86016">
        <ele>727.40002441406</ele>
        <time>2026-09-02T15:28:01.000Z</time>
      </trkpt>
      <trkpt lat="48.12905" lon="6.86014">
        <ele>727.40002441406</ele>
        <time>2026-09-02T15:28:02.000Z</time>
      </trkpt>
      <trkpt lat="48.12904" lon="6.86013">
        <ele>727.40002441406</ele>
        <time>2026-09-02T15:28:03.000Z</time>
      </trkpt>
      <trkpt lat="48.12904" lon="6.86011">
        <ele>727.40002441406</ele>
        <time>2026-09-02T15:28:04.000Z</time>
      </trkpt>
      <trkpt lat="48.12904" lon="6.86009">
        <ele>727.40002441406</ele>
        <time>2026-09-02T15:28:05.000Z</time>
      </trkpt>
      <trkpt lat="48.12904" lon="6.86008">
        <ele>727.40002441406</ele>
        <time>2026-09-02T15:28:06.000Z</time>
      </trkpt>
      <trkpt lat="48.12904" lon="6.86006">
        <ele>727.19995117188</ele>
        <time>2026-09-02T15:28:07.000Z</time>
      </trkpt>
      <trkpt lat="48.12904" lon="6.86005">
        <ele>727</ele>
        <time>2026-09-02T15:28:08.000Z</time>
      </trkpt>
      <trkpt lat="48.12904" lon="6.86004">
        <ele>727</ele>
        <time>2026-09-02T15:28:09.000Z</time>
      </trkpt>
      <trkpt lat="48.12904" lon="6.86003">
        <ele>726.80004882812</ele>
        <time>2026-09-02T15:28:10.000Z</time>
      </trkpt>
      <trkpt lat="48.12904" lon="6.86002">
        <ele>726.59997558594</ele>
        <time>2026-09-02T15:28:11.000Z</time>
      </trkpt>
      <trkpt lat="48.12903" lon="6.86">
        <ele>726.80004882812</ele>
        <time>2026-09-02T15:28:12.000Z</time>
      </trkpt>
      <trkpt lat="48.12904" lon="6.85998">
        <ele>726.80004882812</ele>
        <time>2026-09-02T15:28:13.000Z</time>
      </trkpt>
      <trkpt lat="48.12904" lon="6.85997">
        <ele>726.59997558594</ele>
        <time>2026-09-02T15:28:14.000Z</time>
      </trkpt>
      <trkpt lat="48.12904" lon="6.85995">
        <ele>726.59997558594</ele>
        <time>2026-09-02T15:28:15.000Z</time>
      </trkpt>
      <trkpt lat="48.12904" lon="6.85993">
        <ele>726.40002441406</ele>
        <time>2026-09-02T15:28:16.000Z</time>
      </trkpt>
      <trkpt lat="48.12904" lon="6.85991">
        <ele>726.19995117188</ele>
        <time>2026-09-02T15:28:17.000Z</time>
      </trkpt>
      <trkpt lat="48.12905" lon="6.85989">
        <ele>726</ele>
        <time>2026-09-02T15:28:18.000Z</time>
      </trkpt>
      <trkpt lat="48.12905" lon="6.85988">
        <ele>726</ele>
        <time>2026-09-02T15:28:19.000Z</time>
      </trkpt>
      <trkpt lat="48.12905" lon="6.85986">
        <ele>726</ele>
        <time>2026-09-02T15:28:20.000Z</time>
      </trkpt>
      <trkpt lat="48.12905" lon="6.85985">
        <ele>726</ele>
        <time>2026-09-02T15:28:21.000Z</time>
      </trkpt>
      <trkpt lat="48.12906" lon="6.85984">
        <ele>726</ele>
        <time>2026-09-02T15:28:22.000Z</time>
      </trkpt>
      <trkpt lat="48.12906" lon="6.85983">
        <ele>725.80004882812</ele>
        <time>2026-09-02T15:28:23.000Z</time>
      </trkpt>
      <trkpt lat="48.12906" lon="6.85981">
        <ele>725.80004882812</ele>
        <time>2026-09-02T15:28:24.000Z</time>
      </trkpt>
      <trkpt lat="48.12906" lon="6.8598">
        <ele>725.80004882812</ele>
        <time>2026-09-02T15:28:25.000Z</time>
      </trkpt>
      <trkpt lat="48.12907" lon="6.85979">
        <ele>725.80004882812</ele>
        <time>2026-09-02T15:28:26.000Z</time>
      </trkpt>
      <trkpt lat="48.12907" lon="6.85978">
        <ele>725.80004882812</ele>
        <time>2026-09-02T15:28:27.000Z</time>
      </trkpt>
      <trkpt lat="48.12908" lon="6.85977">
        <ele>725.80004882812</ele>
        <time>2026-09-02T15:28:28.000Z</time>
      </trkpt>
      <trkpt lat="48.12908" lon="6.85976">
        <ele>725.80004882812</ele>
        <time>2026-09-02T15:28:29.000Z</time>
      </trkpt>
      <trkpt lat="48.12908" lon="6.85975">
        <ele>726</ele>
        <time>2026-09-02T15:28:30.000Z</time>
      </trkpt>
      <trkpt lat="48.12908" lon="6.85974">
        <ele>726.19995117188</ele>
        <time>2026-09-02T15:28:31.000Z</time>
      </trkpt>
      <trkpt lat="48.12909" lon="6.85972">
        <ele>726.19995117188</ele>
        <time>2026-09-02T15:28:32.000Z</time>
      </trkpt>
      <trkpt lat="48.12909" lon="6.85971">
        <ele>726.40002441406</ele>
        <time>2026-09-02T15:28:33.000Z</time>
      </trkpt>
      <trkpt lat="48.12909" lon="6.85971">
        <ele>726.59997558594</ele>
        <time>2026-09-02T15:28:34.000Z</time>
      </trkpt>
      <trkpt lat="48.12909" lon="6.85969">
        <ele>726.80004882812</ele>
        <time>2026-09-02T15:28:35.000Z</time>
      </trkpt>
      <trkpt lat="48.1291" lon="6.85967">
        <ele>726.80004882812</ele>
        <time>2026-09-02T15:28:36.000Z</time>
      </trkpt>
      <trkpt lat="48.12911" lon="6.85967">
        <ele>726.80004882812</ele>
        <time>2026-09-02T15:28:37.000Z</time>
      </trkpt>
      <trkpt lat="48.12912" lon="6.85967">
        <ele>726.80004882812</ele>
        <time>2026-09-02T15:28:38.000Z</time>
      </trkpt>
      <trkpt lat="48.12912" lon="6.85967">
        <ele>726.59997558594</ele>
        <time>2026-09-02T15:28:39.000Z</time>
      </trkpt>
      <trkpt lat="48.12913" lon="6.85967">
        <ele>726.40002441406</ele>
        <time>2026-09-02T15:28:40.000Z</time>
      </trkpt>
      <trkpt lat="48.12914" lon="6.85966">
        <ele>726.19995117188</ele>
        <time>2026-09-02T15:28:41.000Z</time>
      </trkpt>
      <trkpt lat="48.12913" lon="6.85967">
        <ele>726</ele>
        <time>2026-09-02T15:28:42.000Z</time>
      </trkpt>
      <trkpt lat="48.12913" lon="6.85966">
        <ele>726</ele>
        <time>2026-09-02T15:28:43.000Z</time>
      </trkpt>
      <trkpt lat="48.12913" lon="6.85966">
        <ele>726</ele>
        <time>2026-09-02T15:28:44.000Z</time>
      </trkpt>
      <trkpt lat="48.12913" lon="6.85966">
        <ele>726.19995117188</ele>
        <time>2026-09-02T15:28:45.000Z</time>
      </trkpt>
      <trkpt lat="48.12913" lon="6.85966">
        <ele>726.19995117188</ele>
        <time>2026-09-02T15:28:46.000Z</time>
      </trkpt>
      <trkpt lat="48.12913" lon="6.85966">
        <ele>726.19995117188</ele>
        <time>2026-09-02T15:28:47.000Z</time>
      </trkpt>
      <trkpt lat="48.12913" lon="6.85966">
        <ele>726.19995117188</ele>
        <time>2026-09-02T15:28:48.000Z</time>
      </trkpt>
    </trkseg>
  </trk>
</gpx>